<?xml version='1.0' encoding='UTF-8'?><gpx version="1.1" creator="JPX - https://github.com/jenetics/jpx" xmlns="http://www.topografix.com/GPX/1/1"><trk><trkseg><trkpt lat="43.18849951650977" lon="10.53830183070524"><ele>6.0</ele><time>2026-05-03T07:55:18Z</time></trkpt><trkpt lat="43.18846374921888" lon="10.53839744937891"><ele>6.0</ele><time>2026-05-03T07:56:40Z</time></trkpt><trkpt lat="43.18850044883289" lon="10.538499728911496"><ele>6.0</ele><time>2026-05-03T07:56:42Z</time></trkpt><trkpt lat="43.188539933053484" lon="10.538603312581651"><ele>6.0</ele><time>2026-05-03T07:56:44Z</time></trkpt><trkpt lat="43.188572993615225" lon="10.538725052402034"><ele>6.0</ele><time>2026-05-03T07:56:46Z</time></trkpt><trkpt lat="43.18860789351007" lon="10.538849828901261"><ele>6.0</ele><time>2026-05-03T07:56:48Z</time></trkpt><trkpt lat="43.1886476412993" lon="10.538982774484435"><ele>6.166666666666667</ele><time>2026-05-03T07:56:50Z</time></trkpt><trkpt lat="43.18865751081102" lon="10.539116087098941"><ele>6.333333333333334</ele><time>2026-05-03T07:56:52Z</time></trkpt><trkpt lat="43.18864124664329" lon="10.539257716292733"><ele>6.5</ele><time>2026-05-03T07:56:54Z</time></trkpt><trkpt lat="43.188644984891695" lon="10.539382285539961"><ele>6.666666666666667</ele><time>2026-05-03T07:56:56Z</time></trkpt><trkpt lat="43.18870263081888" lon="10.539444952645484"><ele>6.833333333333334</ele><time>2026-05-03T07:56:58Z</time></trkpt><trkpt lat="43.18877127394217" lon="10.53943684096979"><ele>7.0</ele><time>2026-05-03T07:57:00Z</time></trkpt><trkpt lat="43.188862713000674" lon="10.539470324162153"><ele>7.6</ele><time>2026-05-03T07:57:02Z</time></trkpt><trkpt lat="43.18891582336995" lon="10.539577855408542"><ele>8.2</ele><time>2026-05-03T07:57:04Z</time></trkpt><trkpt lat="43.18896114504849" lon="10.53970867586847"><ele>8.8</ele><time>2026-05-03T07:57:06Z</time></trkpt><trkpt lat="43.18900623228685" lon="10.53977408309252"><ele>9.4</ele><time>2026-05-03T07:57:07Z</time></trkpt><trkpt lat="43.189030996280714" lon="10.53988997625482"><ele>10.0</ele><time>2026-05-03T07:57:09Z</time></trkpt><trkpt lat="43.189027750373164" lon="10.54003320717397"><ele>10.0</ele><time>2026-05-03T07:57:11Z</time></trkpt><trkpt lat="43.189008347913756" lon="10.5401783693032"><ele>10.0</ele><time>2026-05-03T07:57:13Z</time></trkpt><trkpt lat="43.18897419461997" lon="10.540278054498527"><ele>10.0</ele><time>2026-05-03T07:57:15Z</time></trkpt><trkpt lat="43.18895701764852" lon="10.54037264694424"><ele>10.0</ele><time>2026-05-03T07:57:17Z</time></trkpt><trkpt lat="43.18894442885427" lon="10.540492565785451"><ele>10.0</ele><time>2026-05-03T07:57:20Z</time></trkpt><trkpt lat="43.18894507077569" lon="10.540593772871027"><ele>10.0</ele><time>2026-05-03T07:57:22Z</time></trkpt><trkpt lat="43.18892371300173" lon="10.540705553471737"><ele>10.333333333333334</ele><time>2026-05-03T07:57:24Z</time></trkpt><trkpt lat="43.18890512117302" lon="10.540816154618021"><ele>10.666666666666668</ele><time>2026-05-03T07:57:26Z</time></trkpt><trkpt lat="43.188887858982405" lon="10.540917462089118"><ele>11.0</ele><time>2026-05-03T07:57:29Z</time></trkpt><trkpt lat="43.188804305303634" lon="10.54097741476169"><ele>11.333333333333334</ele><time>2026-05-03T07:57:33Z</time></trkpt><trkpt lat="43.188723342637836" lon="10.540959272318208"><ele>11.666666666666666</ele><time>2026-05-03T07:57:35Z</time></trkpt><trkpt lat="43.188622287514306" lon="10.54094845989463"><ele>12.0</ele><time>2026-05-03T07:57:39Z</time></trkpt><trkpt lat="43.188543133040596" lon="10.540932654285841"><ele>12.0</ele><time>2026-05-03T07:57:41Z</time></trkpt><trkpt lat="43.188476602836275" lon="10.540959991931034"><ele>12.0</ele><time>2026-05-03T07:57:44Z</time></trkpt><trkpt lat="43.18839624999903" lon="10.541028935895845"><ele>12.0</ele><time>2026-05-03T07:57:48Z</time></trkpt><trkpt lat="43.18833701849245" lon="10.5410828234759"><ele>12.0</ele><time>2026-05-03T07:57:50Z</time></trkpt><trkpt lat="43.18829008900394" lon="10.54115757803584"><ele>12.0</ele><time>2026-05-03T07:57:53Z</time></trkpt><trkpt lat="43.18826010838196" lon="10.541236450822598"><ele>12.0</ele><time>2026-05-03T07:57:54Z</time></trkpt><trkpt lat="43.18819413835948" lon="10.541383066689905"><ele>12.333333333333334</ele><time>2026-05-03T07:57:56Z</time></trkpt><trkpt lat="43.18809790311321" lon="10.54142944201281"><ele>12.666666666666668</ele><time>2026-05-03T07:57:57Z</time></trkpt><trkpt lat="43.18803049077694" lon="10.541489533342295"><ele>13.0</ele><time>2026-05-03T07:57:58Z</time></trkpt><trkpt lat="43.18796082586083" lon="10.541528831522914"><ele>13.333333333333334</ele><time>2026-05-03T07:57:59Z</time></trkpt><trkpt lat="43.18788924714721" lon="10.541558290402206"><ele>13.666666666666668</ele><time>2026-05-03T07:58:00Z</time></trkpt><trkpt lat="43.18780894778651" lon="10.54153145573403"><ele>14.0</ele><time>2026-05-03T07:58:01Z</time></trkpt><trkpt lat="43.18771570082411" lon="10.541461954996597"><ele>14.000000000000002</ele><time>2026-05-03T07:58:02Z</time></trkpt><trkpt lat="43.18762697940734" lon="10.541404688792522"><ele>14.0</ele><time>2026-05-03T07:58:03Z</time></trkpt><trkpt lat="43.18756085783641" lon="10.541350875886232"><ele>14.0</ele><time>2026-05-03T07:58:04Z</time></trkpt><trkpt lat="43.187497045606044" lon="10.54133943019839"><ele>14.0</ele><time>2026-05-03T07:58:05Z</time></trkpt><trkpt lat="43.18737620813119" lon="10.541360977221636"><ele>14.000000000000002</ele><time>2026-05-03T07:58:07Z</time></trkpt><trkpt lat="43.18731159763101" lon="10.541362240290285"><ele>14.0</ele><time>2026-05-03T07:58:08Z</time></trkpt><trkpt lat="43.1872423933383" lon="10.541402109486429"><ele>14.2</ele><time>2026-05-03T07:58:09Z</time></trkpt><trkpt lat="43.18715872514714" lon="10.541463356818172"><ele>14.399999999999999</ele><time>2026-05-03T07:58:10Z</time></trkpt><trkpt lat="43.187070633357116" lon="10.541526689373176"><ele>14.6</ele><time>2026-05-03T07:58:11Z</time></trkpt><trkpt lat="43.187006088463264" lon="10.541611574920351"><ele>14.8</ele><time>2026-05-03T07:58:12Z</time></trkpt><trkpt lat="43.186937699361536" lon="10.54170654236151"><ele>15.0</ele><time>2026-05-03T07:58:13Z</time></trkpt><trkpt lat="43.18687698192377" lon="10.541813948310141"><ele>15.0</ele><time>2026-05-03T07:58:14Z</time></trkpt><trkpt lat="43.186811361818954" lon="10.541880530889445"><ele>15.0</ele><time>2026-05-03T07:58:15Z</time></trkpt><trkpt lat="43.186788019304146" lon="10.542032794419429"><ele>15.0</ele><time>2026-05-03T07:58:17Z</time></trkpt><trkpt lat="43.186790389730525" lon="10.542157777804292"><ele>15.0</ele><time>2026-05-03T07:58:18Z</time></trkpt><trkpt lat="43.18680401765213" lon="10.542262012113476"><ele>15.0</ele><time>2026-05-03T07:58:19Z</time></trkpt><trkpt lat="43.18681298206533" lon="10.542379141115"><ele>15.0</ele><time>2026-05-03T07:58:21Z</time></trkpt><trkpt lat="43.18680716534231" lon="10.542492985418564"><ele>14.166666666666666</ele><time>2026-05-03T07:58:23Z</time></trkpt><trkpt lat="43.18681927398732" lon="10.542605511350843"><ele>13.333333333333334</ele><time>2026-05-03T07:58:25Z</time></trkpt><trkpt lat="43.1868623274204" lon="10.542743262371552"><ele>12.5</ele><time>2026-05-03T07:58:27Z</time></trkpt><trkpt lat="43.186887196545406" lon="10.542832975679676"><ele>11.666666666666668</ele><time>2026-05-03T07:58:28Z</time></trkpt><trkpt lat="43.186917154878145" lon="10.54291473261544"><ele>10.833333333333334</ele><time>2026-05-03T07:58:29Z</time></trkpt><trkpt lat="43.186945379217626" lon="10.54303604062238"><ele>10.0</ele><time>2026-05-03T07:58:30Z</time></trkpt><trkpt lat="43.18694986982968" lon="10.543206270590773"><ele>8.75</ele><time>2026-05-03T07:58:31Z</time></trkpt><trkpt lat="43.1869633227644" lon="10.543386722264353"><ele>7.5</ele><time>2026-05-03T07:58:32Z</time></trkpt><trkpt lat="43.187003225678446" lon="10.54354848266832"><ele>6.25</ele><time>2026-05-03T07:58:33Z</time></trkpt><trkpt lat="43.18706380026095" lon="10.543704179048124"><ele>5.0</ele><time>2026-05-03T07:58:34Z</time></trkpt><trkpt lat="43.18710897409839" lon="10.543826607461286"><ele>4.5</ele><time>2026-05-03T07:58:35Z</time></trkpt><trkpt lat="43.18712854014973" lon="10.543919704114806"><ele>4.0</ele><time>2026-05-03T07:58:36Z</time></trkpt><trkpt lat="43.1871305266595" lon="10.544012955105268"><ele>3.5</ele><time>2026-05-03T07:58:37Z</time></trkpt><trkpt lat="43.187093432096276" lon="10.54410631382964"><ele>3.0</ele><time>2026-05-03T07:58:38Z</time></trkpt><trkpt lat="43.18702851091568" lon="10.544186691743084"><ele>2.5</ele><time>2026-05-03T07:58:39Z</time></trkpt><trkpt lat="43.18692338762571" lon="10.544218122892412"><ele>2.0</ele><time>2026-05-03T07:58:40Z</time></trkpt><trkpt lat="43.186822905290796" lon="10.544285125704452"><ele>1.9999999999999998</ele><time>2026-05-03T07:58:41Z</time></trkpt><trkpt lat="43.186723053333935" lon="10.544352768683044"><ele>2.0</ele><time>2026-05-03T07:58:42Z</time></trkpt><trkpt lat="43.18664697322012" lon="10.544428631664493"><ele>2.0</ele><time>2026-05-03T07:58:43Z</time></trkpt><trkpt lat="43.186572920147576" lon="10.54447163371969"><ele>2.0</ele><time>2026-05-03T07:58:44Z</time></trkpt><trkpt lat="43.18650610361393" lon="10.54451572247978"><ele>1.9999999999999998</ele><time>2026-05-03T07:58:45Z</time></trkpt><trkpt lat="43.18644840618723" lon="10.544556218218757"><ele>2.0</ele><time>2026-05-03T07:58:46Z</time></trkpt><trkpt lat="43.18634863644274" lon="10.54463206186441"><ele>2.2</ele><time>2026-05-03T07:58:48Z</time></trkpt><trkpt lat="43.18622615157188" lon="10.544715233586121"><ele>2.4000000000000004</ele><time>2026-05-03T07:58:50Z</time></trkpt><trkpt lat="43.18615809020103" lon="10.544767077803945"><ele>2.5999999999999996</ele><time>2026-05-03T07:58:51Z</time></trkpt><trkpt lat="43.18608238025468" lon="10.54479447846562"><ele>2.8</ele><time>2026-05-03T07:58:52Z</time></trkpt><trkpt lat="43.18601034122628" lon="10.544844651274524"><ele>3.0</ele><time>2026-05-03T07:58:53Z</time></trkpt><trkpt lat="43.18594178968261" lon="10.544911065639289"><ele>3.0</ele><time>2026-05-03T07:58:54Z</time></trkpt><trkpt lat="43.18585681358332" lon="10.544950392862459"><ele>3.0</ele><time>2026-05-03T07:58:55Z</time></trkpt><trkpt lat="43.1857791992325" lon="10.545001173651588"><ele>3.0</ele><time>2026-05-03T07:58:56Z</time></trkpt><trkpt lat="43.18571123912218" lon="10.545046939093208"><ele>3.0</ele><time>2026-05-03T07:58:57Z</time></trkpt><trkpt lat="43.18563790024674" lon="10.545097144470056"><ele>3.0</ele><time>2026-05-03T07:58:58Z</time></trkpt><trkpt lat="43.18555864459977" lon="10.545150644206666"><ele>3.0</ele><time>2026-05-03T07:58:59Z</time></trkpt><trkpt lat="43.18548103399039" lon="10.545202581654262"><ele>3.1666666666666665</ele><time>2026-05-03T07:59:00Z</time></trkpt><trkpt lat="43.18538881717303" lon="10.545254270279012"><ele>3.333333333333333</ele><time>2026-05-03T07:59:01Z</time></trkpt><trkpt lat="43.185310565514555" lon="10.545318436384939"><ele>3.5</ele><time>2026-05-03T07:59:02Z</time></trkpt><trkpt lat="43.18522615170643" lon="10.545375368323379"><ele>3.6666666666666665</ele><time>2026-05-03T07:59:03Z</time></trkpt><trkpt lat="43.18515420576079" lon="10.545427918020168"><ele>3.833333333333333</ele><time>2026-05-03T07:59:04Z</time></trkpt><trkpt lat="43.185092604127234" lon="10.545482830390247"><ele>4.0</ele><time>2026-05-03T07:59:05Z</time></trkpt><trkpt lat="43.1849955484458" lon="10.545586019894442"><ele>3.2</ele><time>2026-05-03T07:59:07Z</time></trkpt><trkpt lat="43.18500290792875" lon="10.545765704199475"><ele>2.4000000000000004</ele><time>2026-05-03T07:59:09Z</time></trkpt><trkpt lat="43.18505066275031" lon="10.545861670768481"><ele>1.6</ele><time>2026-05-03T07:59:10Z</time></trkpt><trkpt lat="43.18511728652717" lon="10.545953589355754"><ele>0.8</ele><time>2026-05-03T07:59:11Z</time></trkpt><trkpt lat="43.185190892453875" lon="10.546039168707825"><ele>0.0</ele><time>2026-05-03T07:59:12Z</time></trkpt><trkpt lat="43.18526116766886" lon="10.54612893668213"><ele>0.0</ele><time>2026-05-03T07:59:13Z</time></trkpt><trkpt lat="43.18533153835752" lon="10.546230748023142"><ele>0.0</ele><time>2026-05-03T07:59:14Z</time></trkpt><trkpt lat="43.18540125302907" lon="10.546345689008117"><ele>0.0</ele><time>2026-05-03T07:59:15Z</time></trkpt><trkpt lat="43.18547975488727" lon="10.546454306900227"><ele>0.0</ele><time>2026-05-03T07:59:16Z</time></trkpt><trkpt lat="43.18554965999549" lon="10.54655112378302"><ele>0.0</ele><time>2026-05-03T07:59:17Z</time></trkpt><trkpt lat="43.18560997314669" lon="10.546640257198504"><ele>0.0</ele><time>2026-05-03T07:59:18Z</time></trkpt><trkpt lat="43.18566803575019" lon="10.546726274441921"><ele>0.0</ele><time>2026-05-03T07:59:19Z</time></trkpt><trkpt lat="43.185728423291536" lon="10.546812665078454"><ele>0.0</ele><time>2026-05-03T07:59:20Z</time></trkpt><trkpt lat="43.18578904548761" lon="10.546904915375526"><ele>0.0</ele><time>2026-05-03T07:59:21Z</time></trkpt><trkpt lat="43.18585122799245" lon="10.546993257895068"><ele>0.0</ele><time>2026-05-03T07:59:22Z</time></trkpt><trkpt lat="43.185905686505784" lon="10.547067676558655"><ele>0.0</ele><time>2026-05-03T07:59:23Z</time></trkpt><trkpt lat="43.18595887974065" lon="10.54714190398343"><ele>0.0</ele><time>2026-05-03T07:59:24Z</time></trkpt><trkpt lat="43.1860060058384" lon="10.547207040415225"><ele>0.0</ele><time>2026-05-03T07:59:25Z</time></trkpt><trkpt lat="43.18605006902847" lon="10.547269645878329"><ele>0.0</ele><time>2026-05-03T07:59:26Z</time></trkpt><trkpt lat="43.1860846137375" lon="10.54734877284613"><ele>0.0</ele><time>2026-05-03T07:59:28Z</time></trkpt><trkpt lat="43.18598823526481" lon="10.547473634353182"><ele>0.0</ele><time>2026-05-03T07:59:29Z</time></trkpt><trkpt lat="43.18590940636348" lon="10.547524741471626"><ele>0.0</ele><time>2026-05-03T07:59:30Z</time></trkpt><trkpt lat="43.185815162514835" lon="10.547571897043577"><ele>0.0</ele><time>2026-05-03T07:59:31Z</time></trkpt><trkpt lat="43.18572069438382" lon="10.547648001669925"><ele>0.0</ele><time>2026-05-03T07:59:32Z</time></trkpt><trkpt lat="43.18562654272152" lon="10.547724904636471"><ele>0.0</ele><time>2026-05-03T07:59:33Z</time></trkpt><trkpt lat="43.18552520231623" lon="10.547793546466165"><ele>0.0</ele><time>2026-05-03T07:59:34Z</time></trkpt><trkpt lat="43.18543791496019" lon="10.547859483926914"><ele>0.0</ele><time>2026-05-03T07:59:35Z</time></trkpt><trkpt lat="43.18535717275344" lon="10.547917551877143"><ele>0.0</ele><time>2026-05-03T07:59:36Z</time></trkpt><trkpt lat="43.18527499049631" lon="10.547982473915546"><ele>0.0</ele><time>2026-05-03T07:59:37Z</time></trkpt><trkpt lat="43.185190172656995" lon="10.548025104509238"><ele>0.0</ele><time>2026-05-03T07:59:38Z</time></trkpt><trkpt lat="43.18511127809341" lon="10.548091297833395"><ele>0.0</ele><time>2026-05-03T07:59:39Z</time></trkpt><trkpt lat="43.185036798058675" lon="10.548145023628827"><ele>0.0</ele><time>2026-05-03T07:59:40Z</time></trkpt><trkpt lat="43.18495782674994" lon="10.548194671872029"><ele>0.0</ele><time>2026-05-03T07:59:41Z</time></trkpt><trkpt lat="43.1848924757063" lon="10.548240213782796"><ele>0.0</ele><time>2026-05-03T07:59:42Z</time></trkpt><trkpt lat="43.18480508014416" lon="10.548302601001632"><ele>0.0</ele><time>2026-05-03T07:59:43Z</time></trkpt><trkpt lat="43.18471702322599" lon="10.548365343796702"><ele>0.0</ele><time>2026-05-03T07:59:44Z</time></trkpt><trkpt lat="43.184623432399256" lon="10.54843672728709"><ele>0.0</ele><time>2026-05-03T07:59:45Z</time></trkpt><trkpt lat="43.18452650290836" lon="10.548495233691765"><ele>0.0</ele><time>2026-05-03T07:59:46Z</time></trkpt><trkpt lat="43.18443757016477" lon="10.548561208357924"><ele>0.0</ele><time>2026-05-03T07:59:47Z</time></trkpt><trkpt lat="43.18435569821436" lon="10.54862490430794"><ele>0.0</ele><time>2026-05-03T07:59:48Z</time></trkpt><trkpt lat="43.18428698619623" lon="10.548678833748395"><ele>0.0</ele><time>2026-05-03T07:59:49Z</time></trkpt><trkpt lat="43.18420740849303" lon="10.548723167998073"><ele>0.0</ele><time>2026-05-03T07:59:50Z</time></trkpt><trkpt lat="43.18412282378826" lon="10.54878429126152"><ele>0.0</ele><time>2026-05-03T07:59:51Z</time></trkpt><trkpt lat="43.18404575156447" lon="10.548847315139222"><ele>0.0</ele><time>2026-05-03T07:59:52Z</time></trkpt><trkpt lat="43.183962113914944" lon="10.548896394838174"><ele>0.4</ele><time>2026-05-03T07:59:53Z</time></trkpt><trkpt lat="43.18388930493929" lon="10.54895313847566"><ele>0.8</ele><time>2026-05-03T07:59:54Z</time></trkpt><trkpt lat="43.18380670387933" lon="10.54901571383417"><ele>1.2000000000000002</ele><time>2026-05-03T07:59:55Z</time></trkpt><trkpt lat="43.18372300673148" lon="10.549073510409832"><ele>1.6</ele><time>2026-05-03T07:59:56Z</time></trkpt><trkpt lat="43.18364029820455" lon="10.549129897494767"><ele>2.0</ele><time>2026-05-03T07:59:57Z</time></trkpt><trkpt lat="43.183556598407264" lon="10.54919135359623"><ele>1.9999999999999998</ele><time>2026-05-03T07:59:58Z</time></trkpt><trkpt lat="43.18348155770549" lon="10.549243308956312"><ele>2.0</ele><time>2026-05-03T07:59:59Z</time></trkpt><trkpt lat="43.18340376933081" lon="10.549292177578447"><ele>2.0</ele><time>2026-05-03T08:00:00Z</time></trkpt><trkpt lat="43.18333501556604" lon="10.549348603173076"><ele>2.0</ele><time>2026-05-03T08:00:01Z</time></trkpt><trkpt lat="43.18326072270094" lon="10.549403988917307"><ele>1.9999999999999998</ele><time>2026-05-03T08:00:02Z</time></trkpt><trkpt lat="43.18318238166899" lon="10.549452589649201"><ele>2.0</ele><time>2026-05-03T08:00:03Z</time></trkpt><trkpt lat="43.18310623648394" lon="10.549501210749604"><ele>1.9999999999999998</ele><time>2026-05-03T08:00:04Z</time></trkpt><trkpt lat="43.18303890378086" lon="10.549555405900934"><ele>2.0</ele><time>2026-05-03T08:00:05Z</time></trkpt><trkpt lat="43.18296549117225" lon="10.549612227650746"><ele>2.0</ele><time>2026-05-03T08:00:06Z</time></trkpt><trkpt lat="43.18289825463272" lon="10.549655804640409"><ele>2.0</ele><time>2026-05-03T08:00:07Z</time></trkpt><trkpt lat="43.182821595271534" lon="10.549732414420907"><ele>1.9999999999999998</ele><time>2026-05-03T08:00:08Z</time></trkpt><trkpt lat="43.18273653846195" lon="10.549791968290625"><ele>2.0</ele><time>2026-05-03T08:00:09Z</time></trkpt><trkpt lat="43.182655323498075" lon="10.549845374041595"><ele>1.9999999999999998</ele><time>2026-05-03T08:00:10Z</time></trkpt><trkpt lat="43.182573862234555" lon="10.549899867469412"><ele>2.0</ele><time>2026-05-03T08:00:11Z</time></trkpt><trkpt lat="43.182498420149905" lon="10.549954662321696"><ele>2.0</ele><time>2026-05-03T08:00:12Z</time></trkpt><trkpt lat="43.18241796592609" lon="10.55001197587522"><ele>2.0</ele><time>2026-05-03T08:00:13Z</time></trkpt><trkpt lat="43.18233810057851" lon="10.550061987060475"><ele>1.9999999999999998</ele><time>2026-05-03T08:00:14Z</time></trkpt><trkpt lat="43.18225583921174" lon="10.550112794402704"><ele>2.0</ele><time>2026-05-03T08:00:15Z</time></trkpt><trkpt lat="43.18218523131773" lon="10.550157197486815"><ele>2.333333333333333</ele><time>2026-05-03T08:00:16Z</time></trkpt><trkpt lat="43.18210414140914" lon="10.55020792784667"><ele>2.6666666666666665</ele><time>2026-05-03T08:00:17Z</time></trkpt><trkpt lat="43.18202721144288" lon="10.550269281327413"><ele>3.0</ele><time>2026-05-03T08:00:18Z</time></trkpt><trkpt lat="43.181949535381484" lon="10.550323839715245"><ele>3.333333333333333</ele><time>2026-05-03T08:00:19Z</time></trkpt><trkpt lat="43.181872553558506" lon="10.550375745336972"><ele>3.6666666666666665</ele><time>2026-05-03T08:00:20Z</time></trkpt><trkpt lat="43.18180383711083" lon="10.550424265024027"><ele>4.0</ele><time>2026-05-03T08:00:21Z</time></trkpt><trkpt lat="43.1817364172397" lon="10.55045457104715"><ele>3.9999999999999996</ele><time>2026-05-03T08:00:22Z</time></trkpt><trkpt lat="43.18165715556758" lon="10.550482905831123"><ele>4.0</ele><time>2026-05-03T08:00:23Z</time></trkpt><trkpt lat="43.18158068747979" lon="10.55049430288681"><ele>4.0</ele><time>2026-05-03T08:00:24Z</time></trkpt><trkpt lat="43.18150709610737" lon="10.550497882047779"><ele>4.0</ele><time>2026-05-03T08:00:25Z</time></trkpt><trkpt lat="43.18140908477196" lon="10.550553179839003"><ele>3.9999999999999996</ele><time>2026-05-03T08:00:27Z</time></trkpt><trkpt lat="43.18134514059227" lon="10.550602208157374"><ele>4.0</ele><time>2026-05-03T08:00:30Z</time></trkpt><trkpt lat="43.181277945365366" lon="10.550552385740751"><ele>4.4</ele><time>2026-05-03T08:00:31Z</time></trkpt><trkpt lat="43.181169282991846" lon="10.550569923755459"><ele>4.800000000000001</ele><time>2026-05-03T08:00:33Z</time></trkpt><trkpt lat="43.18103947476752" lon="10.550559093952172"><ele>5.199999999999999</ele><time>2026-05-03T08:00:35Z</time></trkpt><trkpt lat="43.1809449164478" lon="10.550577640602652"><ele>5.6</ele><time>2026-05-03T08:00:37Z</time></trkpt><trkpt lat="43.1808528580042" lon="10.550597132711976"><ele>6.0</ele><time>2026-05-03T08:00:39Z</time></trkpt><trkpt lat="43.1807673960453" lon="10.550659161164031"><ele>7.0</ele><time>2026-05-03T08:00:41Z</time></trkpt><trkpt lat="43.18066260200057" lon="10.550671978586884"><ele>8.0</ele><time>2026-05-03T08:00:43Z</time></trkpt><trkpt lat="43.18057144077553" lon="10.550644990684996"><ele>9.0</ele><time>2026-05-03T08:00:45Z</time></trkpt><trkpt lat="43.18050965539274" lon="10.550609664795301"><ele>10.0</ele><time>2026-05-03T08:00:47Z</time></trkpt><trkpt lat="43.18042251046964" lon="10.550555053314188"><ele>11.0</ele><time>2026-05-03T08:00:49Z</time></trkpt><trkpt lat="43.18035663761026" lon="10.550465691454637"><ele>11.0</ele><time>2026-05-03T08:00:51Z</time></trkpt><trkpt lat="43.180316878010316" lon="10.550366338762927"><ele>11.0</ele><time>2026-05-03T08:00:53Z</time></trkpt><trkpt lat="43.18025052325458" lon="10.550385077432814"><ele>11.0</ele><time>2026-05-03T08:00:55Z</time></trkpt><trkpt lat="43.18018385395076" lon="10.550469497181938"><ele>11.0</ele><time>2026-05-03T08:00:57Z</time></trkpt><trkpt lat="43.18011396931637" lon="10.550527756744378"><ele>11.0</ele><time>2026-05-03T08:00:58Z</time></trkpt><trkpt lat="43.18012250320074" lon="10.5506660733212"><ele>11.0</ele><time>2026-05-03T08:00:59Z</time></trkpt><trkpt lat="43.180151367194064" lon="10.550762666583134"><ele>11.0</ele><time>2026-05-03T08:01:00Z</time></trkpt><trkpt lat="43.180095883214086" lon="10.550830830767952"><ele>11.0</ele><time>2026-05-03T08:01:01Z</time></trkpt><trkpt lat="43.18006192737741" lon="10.550993784651165"><ele>11.0</ele><time>2026-05-03T08:01:03Z</time></trkpt><trkpt lat="43.180056764932395" lon="10.551093929998858"><ele>11.0</ele><time>2026-05-03T08:01:04Z</time></trkpt><trkpt lat="43.18002387199571" lon="10.551184772326382"><ele>11.0</ele><time>2026-05-03T08:01:05Z</time></trkpt><trkpt lat="43.18000519528309" lon="10.551284003542158"><ele>11.0</ele><time>2026-05-03T08:01:06Z</time></trkpt><trkpt lat="43.17998668230549" lon="10.551393900789819"><ele>10.4</ele><time>2026-05-03T08:01:07Z</time></trkpt><trkpt lat="43.18001837455973" lon="10.551500127356665"><ele>9.8</ele><time>2026-05-03T08:01:08Z</time></trkpt><trkpt lat="43.17998946182535" lon="10.551615160766126"><ele>9.200000000000001</ele><time>2026-05-03T08:01:09Z</time></trkpt><trkpt lat="43.17996786261856" lon="10.551737890088782"><ele>8.600000000000001</ele><time>2026-05-03T08:01:10Z</time></trkpt><trkpt lat="43.1799423115541" lon="10.55187266605715"><ele>8.0</ele><time>2026-05-03T08:01:11Z</time></trkpt><trkpt lat="43.17992331614922" lon="10.551992072390894"><ele>7.800000000000001</ele><time>2026-05-03T08:01:12Z</time></trkpt><trkpt lat="43.179908248352476" lon="10.552113832734214"><ele>7.6000000000000005</ele><time>2026-05-03T08:01:13Z</time></trkpt><trkpt lat="43.17987628321896" lon="10.552237053384042"><ele>7.3999999999999995</ele><time>2026-05-03T08:01:14Z</time></trkpt><trkpt lat="43.17986917670623" lon="10.5523868292456"><ele>7.199999999999999</ele><time>2026-05-03T08:01:15Z</time></trkpt><trkpt lat="43.179848582650834" lon="10.552536736730586"><ele>7.0</ele><time>2026-05-03T08:01:16Z</time></trkpt><trkpt lat="43.17983026645566" lon="10.552680645623166"><ele>6.3999999999999995</ele><time>2026-05-03T08:01:17Z</time></trkpt><trkpt lat="43.179808409541224" lon="10.552820091674775"><ele>5.799999999999999</ele><time>2026-05-03T08:01:18Z</time></trkpt><trkpt lat="43.17979042479487" lon="10.55295818359428"><ele>5.2</ele><time>2026-05-03T08:01:19Z</time></trkpt><trkpt lat="43.17976964096308" lon="10.553080976533968"><ele>4.6</ele><time>2026-05-03T08:01:20Z</time></trkpt><trkpt lat="43.17975351706712" lon="10.553204728647394"><ele>4.0</ele><time>2026-05-03T08:01:21Z</time></trkpt><trkpt lat="43.179740984893364" lon="10.553340226709235"><ele>4.0</ele><time>2026-05-03T08:01:22Z</time></trkpt><trkpt lat="43.17972506270036" lon="10.553471723137424"><ele>4.0</ele><time>2026-05-03T08:01:23Z</time></trkpt><trkpt lat="43.17969607227834" lon="10.553641282046726"><ele>4.0</ele><time>2026-05-03T08:01:24Z</time></trkpt><trkpt lat="43.17967139116588" lon="10.553804823410815"><ele>4.0</ele><time>2026-05-03T08:01:25Z</time></trkpt><trkpt lat="43.17964642709303" lon="10.553992451158571"><ele>4.0</ele><time>2026-05-03T08:01:26Z</time></trkpt><trkpt lat="43.1796209135182" lon="10.554175929339097"><ele>4.0</ele><time>2026-05-03T08:01:27Z</time></trkpt><trkpt lat="43.179597613868324" lon="10.554369334534073"><ele>4.0</ele><time>2026-05-03T08:01:28Z</time></trkpt><trkpt lat="43.17957151166457" lon="10.554571249098917"><ele>4.0</ele><time>2026-05-03T08:01:29Z</time></trkpt><trkpt lat="43.17954022244269" lon="10.554753606116222"><ele>4.25</ele><time>2026-05-03T08:01:30Z</time></trkpt><trkpt lat="43.179513023823674" lon="10.55493588427588"><ele>4.5</ele><time>2026-05-03T08:01:31Z</time></trkpt><trkpt lat="43.17949640182973" lon="10.555096142362977"><ele>4.75</ele><time>2026-05-03T08:01:32Z</time></trkpt><trkpt lat="43.17947626339406" lon="10.555257453607274"><ele>5.0</ele><time>2026-05-03T08:01:33Z</time></trkpt><trkpt lat="43.179455255116494" lon="10.555422814519561"><ele>5.0</ele><time>2026-05-03T08:01:34Z</time></trkpt><trkpt lat="43.17943229663337" lon="10.555586548742548"><ele>5.0</ele><time>2026-05-03T08:01:35Z</time></trkpt><trkpt lat="43.17941078338727" lon="10.555745642224274"><ele>5.0</ele><time>2026-05-03T08:01:36Z</time></trkpt><trkpt lat="43.17938646648906" lon="10.555902088900888"><ele>5.0</ele><time>2026-05-03T08:01:37Z</time></trkpt><trkpt lat="43.17936506137865" lon="10.556071389128276"><ele>5.6</ele><time>2026-05-03T08:01:38Z</time></trkpt><trkpt lat="43.17934705507657" lon="10.556220217650488"><ele>6.2</ele><time>2026-05-03T08:01:39Z</time></trkpt><trkpt lat="43.179327281936075" lon="10.556358376468793"><ele>6.800000000000001</ele><time>2026-05-03T08:01:40Z</time></trkpt><trkpt lat="43.1793078551451" lon="10.556489871040013"><ele>7.4</ele><time>2026-05-03T08:01:41Z</time></trkpt><trkpt lat="43.17928782590761" lon="10.556643907813452"><ele>8.0</ele><time>2026-05-03T08:01:42Z</time></trkpt><trkpt lat="43.17926518201406" lon="10.55682265683148"><ele>8.0</ele><time>2026-05-03T08:01:43Z</time></trkpt><trkpt lat="43.17924359123279" lon="10.557000677497566"><ele>8.0</ele><time>2026-05-03T08:01:44Z</time></trkpt><trkpt lat="43.17922311010305" lon="10.557165411484494"><ele>8.0</ele><time>2026-05-03T08:01:45Z</time></trkpt><trkpt lat="43.17920373446583" lon="10.557325157994818"><ele>8.0</ele><time>2026-05-03T08:01:46Z</time></trkpt><trkpt lat="43.1791830119001" lon="10.557488037200262"><ele>8.0</ele><time>2026-05-03T08:01:47Z</time></trkpt><trkpt lat="43.179160787505936" lon="10.557649781167962"><ele>8.0</ele><time>2026-05-03T08:01:48Z</time></trkpt><trkpt lat="43.17913895100411" lon="10.557805937110537"><ele>8.0</ele><time>2026-05-03T08:01:49Z</time></trkpt><trkpt lat="43.1791213532614" lon="10.557957117562683"><ele>8.0</ele><time>2026-05-03T08:01:50Z</time></trkpt><trkpt lat="43.17910606159713" lon="10.558105533333915"><ele>8.0</ele><time>2026-05-03T08:01:51Z</time></trkpt><trkpt lat="43.17908655697043" lon="10.558255583202023"><ele>8.0</ele><time>2026-05-03T08:01:52Z</time></trkpt><trkpt lat="43.1790663307106" lon="10.558406394584898"><ele>8.0</ele><time>2026-05-03T08:01:53Z</time></trkpt><trkpt lat="43.17904736098897" lon="10.558548146727905"><ele>8.0</ele><time>2026-05-03T08:01:54Z</time></trkpt><trkpt lat="43.17902850210242" lon="10.55869417119074"><ele>8.0</ele><time>2026-05-03T08:01:55Z</time></trkpt><trkpt lat="43.179006876190606" lon="10.558847598595621"><ele>8.75</ele><time>2026-05-03T08:01:56Z</time></trkpt><trkpt lat="43.17898201658077" lon="10.559004214623423"><ele>9.5</ele><time>2026-05-03T08:01:57Z</time></trkpt><trkpt lat="43.1789545515316" lon="10.559158932955729"><ele>10.25</ele><time>2026-05-03T08:01:58Z</time></trkpt><trkpt lat="43.178928232933714" lon="10.559313327906908"><ele>11.0</ele><time>2026-05-03T08:01:59Z</time></trkpt><trkpt lat="43.17890133876526" lon="10.559465914752053"><ele>11.25</ele><time>2026-05-03T08:02:00Z</time></trkpt><trkpt lat="43.17887486510837" lon="10.559618556643487"><ele>11.5</ele><time>2026-05-03T08:02:01Z</time></trkpt><trkpt lat="43.17886751479753" lon="10.559773512995239"><ele>11.75</ele><time>2026-05-03T08:02:02Z</time></trkpt><trkpt lat="43.178832440865" lon="10.55992434656923"><ele>12.0</ele><time>2026-05-03T08:02:03Z</time></trkpt><trkpt lat="43.17881245382231" lon="10.560106793144788"><ele>12.0</ele><time>2026-05-03T08:02:04Z</time></trkpt><trkpt lat="43.178789239591566" lon="10.56029258654982"><ele>12.0</ele><time>2026-05-03T08:02:05Z</time></trkpt><trkpt lat="43.17876617771153" lon="10.560450766607326"><ele>12.0</ele><time>2026-05-03T08:02:06Z</time></trkpt><trkpt lat="43.178743373685286" lon="10.560601008940525"><ele>12.0</ele><time>2026-05-03T08:02:07Z</time></trkpt><trkpt lat="43.17872432236446" lon="10.560740195624655"><ele>12.2</ele><time>2026-05-03T08:02:08Z</time></trkpt><trkpt lat="43.17870308514423" lon="10.560877382995743"><ele>12.399999999999999</ele><time>2026-05-03T08:02:09Z</time></trkpt><trkpt lat="43.17868619695314" lon="10.561009908193814"><ele>12.600000000000001</ele><time>2026-05-03T08:02:10Z</time></trkpt><trkpt lat="43.17867201557518" lon="10.561128973718994"><ele>12.8</ele><time>2026-05-03T08:02:11Z</time></trkpt><trkpt lat="43.178656107229976" lon="10.561244799450874"><ele>13.0</ele><time>2026-05-03T08:02:12Z</time></trkpt><trkpt lat="43.17863558215122" lon="10.56138030111395"><ele>13.0</ele><time>2026-05-03T08:02:13Z</time></trkpt><trkpt lat="43.17860962112458" lon="10.56151726834345"><ele>13.0</ele><time>2026-05-03T08:02:14Z</time></trkpt><trkpt lat="43.178574669036244" lon="10.561651844416202"><ele>13.0</ele><time>2026-05-03T08:02:15Z</time></trkpt><trkpt lat="43.17853388808618" lon="10.561763234993531"><ele>13.0</ele><time>2026-05-03T08:02:16Z</time></trkpt><trkpt lat="43.178473331949384" lon="10.561856513494153"><ele>13.0</ele><time>2026-05-03T08:02:17Z</time></trkpt><trkpt lat="43.17840291514967" lon="10.561946409527314"><ele>13.0</ele><time>2026-05-03T08:02:18Z</time></trkpt><trkpt lat="43.178358039364966" lon="10.562045674575632"><ele>13.0</ele><time>2026-05-03T08:02:19Z</time></trkpt><trkpt lat="43.17833829892025" lon="10.562161607106042"><ele>13.0</ele><time>2026-05-03T08:02:20Z</time></trkpt><trkpt lat="43.17833924629539" lon="10.562283179755307"><ele>13.0</ele><time>2026-05-03T08:02:21Z</time></trkpt><trkpt lat="43.178367049465514" lon="10.562420847556227"><ele>13.0</ele><time>2026-05-03T08:02:22Z</time></trkpt><trkpt lat="43.17840662268525" lon="10.562572539859797"><ele>13.0</ele><time>2026-05-03T08:02:23Z</time></trkpt><trkpt lat="43.17843064924811" lon="10.562729535991974"><ele>13.0</ele><time>2026-05-03T08:02:24Z</time></trkpt><trkpt lat="43.17843530272621" lon="10.562905451334837"><ele>13.0</ele><time>2026-05-03T08:02:25Z</time></trkpt><trkpt lat="43.178411419094004" lon="10.563069423336485"><ele>13.0</ele><time>2026-05-03T08:02:26Z</time></trkpt><trkpt lat="43.178380551499615" lon="10.563239086006883"><ele>13.0</ele><time>2026-05-03T08:02:27Z</time></trkpt><trkpt lat="43.178345825366414" lon="10.563416737330531"><ele>13.0</ele><time>2026-05-03T08:02:28Z</time></trkpt><trkpt lat="43.178310918022675" lon="10.56358417786472"><ele>13.0</ele><time>2026-05-03T08:02:29Z</time></trkpt><trkpt lat="43.17827539329875" lon="10.563719997806942"><ele>13.0</ele><time>2026-05-03T08:02:30Z</time></trkpt><trkpt lat="43.178236131991106" lon="10.563849050785883"><ele>13.5</ele><time>2026-05-03T08:02:31Z</time></trkpt><trkpt lat="43.17819161379693" lon="10.563977289869024"><ele>14.0</ele><time>2026-05-03T08:02:32Z</time></trkpt><trkpt lat="43.17813922701034" lon="10.564114921456737"><ele>14.5</ele><time>2026-05-03T08:02:33Z</time></trkpt><trkpt lat="43.178086252088654" lon="10.564257885550502"><ele>15.0</ele><time>2026-05-03T08:02:34Z</time></trkpt><trkpt lat="43.1780334804068" lon="10.56440210186443"><ele>15.0</ele><time>2026-05-03T08:02:35Z</time></trkpt><trkpt lat="43.177971530132254" lon="10.564555707019148"><ele>15.0</ele><time>2026-05-03T08:02:36Z</time></trkpt><trkpt lat="43.17791197016993" lon="10.56472239688503"><ele>15.0</ele><time>2026-05-03T08:02:37Z</time></trkpt><trkpt lat="43.17786861977562" lon="10.564894073667139"><ele>15.0</ele><time>2026-05-03T08:02:38Z</time></trkpt><trkpt lat="43.1778399372887" lon="10.565085050316819"><ele>15.0</ele><time>2026-05-03T08:02:39Z</time></trkpt><trkpt lat="43.17782591046799" lon="10.565276614708429"><ele>15.0</ele><time>2026-05-03T08:02:40Z</time></trkpt><trkpt lat="43.17782510702985" lon="10.565462290605996"><ele>15.0</ele><time>2026-05-03T08:02:41Z</time></trkpt><trkpt lat="43.17783438705304" lon="10.565633029309588"><ele>15.0</ele><time>2026-05-03T08:02:42Z</time></trkpt><trkpt lat="43.17784133444636" lon="10.565792838425631"><ele>15.333333333333334</ele><time>2026-05-03T08:02:43Z</time></trkpt><trkpt lat="43.17784285971776" lon="10.56592469715768"><ele>15.666666666666668</ele><time>2026-05-03T08:02:44Z</time></trkpt><trkpt lat="43.177840261372" lon="10.566034466132944"><ele>16.0</ele><time>2026-05-03T08:02:45Z</time></trkpt><trkpt lat="43.17783543358446" lon="10.566131502622001"><ele>16.333333333333336</ele><time>2026-05-03T08:02:46Z</time></trkpt><trkpt lat="43.17782843431204" lon="10.566232334859686"><ele>16.666666666666668</ele><time>2026-05-03T08:02:47Z</time></trkpt><trkpt lat="43.17781800546948" lon="10.566348220684626"><ele>17.0</ele><time>2026-05-03T08:02:48Z</time></trkpt><trkpt lat="43.17781386584097" lon="10.566477235557144"><ele>17.2</ele><time>2026-05-03T08:02:49Z</time></trkpt><trkpt lat="43.17781108105664" lon="10.566612994542288"><ele>17.4</ele><time>2026-05-03T08:02:50Z</time></trkpt><trkpt lat="43.17780825985588" lon="10.56674286021697"><ele>17.6</ele><time>2026-05-03T08:02:51Z</time></trkpt><trkpt lat="43.17779746409995" lon="10.56684234290399"><ele>17.8</ele><time>2026-05-03T08:02:52Z</time></trkpt><trkpt lat="43.177800593035755" lon="10.566995926498098"><ele>18.0</ele><time>2026-05-03T08:02:54Z</time></trkpt><trkpt lat="43.17779807285132" lon="10.567095129520641"><ele>18.0</ele><time>2026-05-03T08:02:56Z</time></trkpt><trkpt lat="43.17779474081808" lon="10.567192709723644"><ele>18.0</ele><time>2026-05-03T08:02:59Z</time></trkpt><trkpt lat="43.177811006537226" lon="10.56728138611178"><ele>18.0</ele><time>2026-05-03T08:03:02Z</time></trkpt><trkpt lat="43.177869703348776" lon="10.567382842964877"><ele>18.0</ele><time>2026-05-03T08:03:07Z</time></trkpt><trkpt lat="43.17798674534481" lon="10.567445992688224"><ele>18.0</ele><time>2026-05-03T08:03:09Z</time></trkpt><trkpt lat="43.17805970308642" lon="10.567425657408386"><ele>18.0</ele><time>2026-05-03T08:03:10Z</time></trkpt><trkpt lat="43.17814103566518" lon="10.567425436849376"><ele>17.666666666666668</ele><time>2026-05-03T08:03:11Z</time></trkpt><trkpt lat="43.17822053143108" lon="10.567420149585294"><ele>17.333333333333332</ele><time>2026-05-03T08:03:12Z</time></trkpt><trkpt lat="43.178307927295755" lon="10.567411153407985"><ele>17.0</ele><time>2026-05-03T08:03:13Z</time></trkpt><trkpt lat="43.178385067134656" lon="10.567398341213261"><ele>16.666666666666664</ele><time>2026-05-03T08:03:14Z</time></trkpt><trkpt lat="43.178464025022016" lon="10.56738860982788"><ele>16.333333333333332</ele><time>2026-05-03T08:03:15Z</time></trkpt><trkpt lat="43.178549406434925" lon="10.567383719641972"><ele>16.0</ele><time>2026-05-03T08:03:16Z</time></trkpt><trkpt lat="43.17862831314672" lon="10.567379596763939"><ele>15.999999999999998</ele><time>2026-05-03T08:03:17Z</time></trkpt><trkpt lat="43.178698687485884" lon="10.567367204845828"><ele>16.0</ele><time>2026-05-03T08:03:18Z</time></trkpt><trkpt lat="43.17876238343912" lon="10.567345958360054"><ele>16.0</ele><time>2026-05-03T08:03:19Z</time></trkpt><trkpt lat="43.17884288071496" lon="10.567332291515061"><ele>16.0</ele><time>2026-05-03T08:03:20Z</time></trkpt><trkpt lat="43.17893735906965" lon="10.567327528048144"><ele>15.999999999999998</ele><time>2026-05-03T08:03:21Z</time></trkpt><trkpt lat="43.17901900078396" lon="10.567339510884295"><ele>16.0</ele><time>2026-05-03T08:03:22Z</time></trkpt><trkpt lat="43.179086754702574" lon="10.567396979326592"><ele>16.333333333333332</ele><time>2026-05-03T08:03:23Z</time></trkpt><trkpt lat="43.17913298220339" lon="10.56746347145257"><ele>16.666666666666664</ele><time>2026-05-03T08:03:24Z</time></trkpt><trkpt lat="43.17917056643517" lon="10.567551394365108"><ele>17.0</ele><time>2026-05-03T08:03:25Z</time></trkpt><trkpt lat="43.179200916871224" lon="10.567654180600863"><ele>17.333333333333332</ele><time>2026-05-03T08:03:26Z</time></trkpt><trkpt lat="43.179235703729255" lon="10.56774481394272"><ele>17.666666666666668</ele><time>2026-05-03T08:03:27Z</time></trkpt><trkpt lat="43.179215536913276" lon="10.567873385322828"><ele>18.0</ele><time>2026-05-03T08:03:28Z</time></trkpt><trkpt lat="43.17920514301596" lon="10.567975381094177"><ele>18.0</ele><time>2026-05-03T08:03:29Z</time></trkpt><trkpt lat="43.17919560779792" lon="10.568074947271036"><ele>18.0</ele><time>2026-05-03T08:03:30Z</time></trkpt><trkpt lat="43.17911760764558" lon="10.568166061640857"><ele>18.0</ele><time>2026-05-03T08:03:31Z</time></trkpt><trkpt lat="43.17905809290069" lon="10.56824751413737"><ele>18.0</ele><time>2026-05-03T08:03:32Z</time></trkpt><trkpt lat="43.1789934354618" lon="10.568346398038715"><ele>18.0</ele><time>2026-05-03T08:03:33Z</time></trkpt><trkpt lat="43.17892958792804" lon="10.568434823682367"><ele>18.0</ele><time>2026-05-03T08:03:34Z</time></trkpt><trkpt lat="43.17887770329942" lon="10.568525110339849"><ele>18.0</ele><time>2026-05-03T08:03:35Z</time></trkpt><trkpt lat="43.17884502327823" lon="10.568605121040218"><ele>18.0</ele><time>2026-05-03T08:03:36Z</time></trkpt><trkpt lat="43.17879058802989" lon="10.568679510180681"><ele>18.0</ele><time>2026-05-03T08:03:37Z</time></trkpt><trkpt lat="43.17873682403763" lon="10.568770056872424"><ele>18.0</ele><time>2026-05-03T08:03:38Z</time></trkpt><trkpt lat="43.17868710711129" lon="10.568882587460113"><ele>18.0</ele><time>2026-05-03T08:03:39Z</time></trkpt><trkpt lat="43.178618141065044" lon="10.568991141658515"><ele>18.0</ele><time>2026-05-03T08:03:40Z</time></trkpt><trkpt lat="43.17855363637846" lon="10.569098884739907"><ele>18.2</ele><time>2026-05-03T08:03:41Z</time></trkpt><trkpt lat="43.17849049938303" lon="10.569209267934133"><ele>18.4</ele><time>2026-05-03T08:03:42Z</time></trkpt><trkpt lat="43.17842786372296" lon="10.569312579215383"><ele>18.599999999999998</ele><time>2026-05-03T08:03:43Z</time></trkpt><trkpt lat="43.1783538473339" lon="10.569437056447475"><ele>18.8</ele><time>2026-05-03T08:03:44Z</time></trkpt><trkpt lat="43.17829920803112" lon="10.569535582140682"><ele>19.0</ele><time>2026-05-03T08:03:45Z</time></trkpt><trkpt lat="43.17823811142951" lon="10.569619217506375"><ele>18.4</ele><time>2026-05-03T08:03:46Z</time></trkpt><trkpt lat="43.17817890575553" lon="10.569710024942694"><ele>17.799999999999997</ele><time>2026-05-03T08:03:47Z</time></trkpt><trkpt lat="43.17810618406035" lon="10.569794455744665"><ele>17.200000000000003</ele><time>2026-05-03T08:03:48Z</time></trkpt><trkpt lat="43.1780206690983" lon="10.569897823278184"><ele>16.6</ele><time>2026-05-03T08:03:49Z</time></trkpt><trkpt lat="43.177932592993514" lon="10.569987002146885"><ele>16.0</ele><time>2026-05-03T08:03:50Z</time></trkpt><trkpt lat="43.177847980012366" lon="10.570062400777076"><ele>16.0</ele><time>2026-05-03T08:03:51Z</time></trkpt><trkpt lat="43.17775820475334" lon="10.57014335339344"><ele>16.0</ele><time>2026-05-03T08:03:52Z</time></trkpt><trkpt lat="43.17766790980214" lon="10.570224244315423"><ele>16.0</ele><time>2026-05-03T08:03:53Z</time></trkpt><trkpt lat="43.17757474677599" lon="10.570312662362213"><ele>16.0</ele><time>2026-05-03T08:03:54Z</time></trkpt><trkpt lat="43.17748456751802" lon="10.570395566148074"><ele>16.0</ele><time>2026-05-03T08:03:55Z</time></trkpt><trkpt lat="43.17738859566467" lon="10.570481830768317"><ele>16.5</ele><time>2026-05-03T08:03:56Z</time></trkpt><trkpt lat="43.17729187886747" lon="10.570572212712774"><ele>17.0</ele><time>2026-05-03T08:03:57Z</time></trkpt><trkpt lat="43.177201565182365" lon="10.57066033486924"><ele>17.5</ele><time>2026-05-03T08:03:58Z</time></trkpt><trkpt lat="43.17710448667707" lon="10.570746860386233"><ele>18.0</ele><time>2026-05-03T08:03:59Z</time></trkpt><trkpt lat="43.17700701573721" lon="10.570838142784684"><ele>18.0</ele><time>2026-05-03T08:04:00Z</time></trkpt><trkpt lat="43.1769097023849" lon="10.57092910645348"><ele>18.0</ele><time>2026-05-03T08:04:01Z</time></trkpt><trkpt lat="43.176809798632775" lon="10.571022285978882"><ele>18.0</ele><time>2026-05-03T08:04:02Z</time></trkpt><trkpt lat="43.17670908084692" lon="10.571113430016284"><ele>18.0</ele><time>2026-05-03T08:04:03Z</time></trkpt><trkpt lat="43.17660578014895" lon="10.571205887198836"><ele>18.75</ele><time>2026-05-03T08:04:04Z</time></trkpt><trkpt lat="43.176501406434795" lon="10.571305302766644"><ele>19.5</ele><time>2026-05-03T08:04:05Z</time></trkpt><trkpt lat="43.17640160854684" lon="10.57140088170683"><ele>20.25</ele><time>2026-05-03T08:04:06Z</time></trkpt><trkpt lat="43.17629975858254" lon="10.571497273838174"><ele>21.0</ele><time>2026-05-03T08:04:07Z</time></trkpt><trkpt lat="43.176194388161775" lon="10.571593483438471"><ele>21.0</ele><time>2026-05-03T08:04:08Z</time></trkpt><trkpt lat="43.17608170995638" lon="10.571686383931919"><ele>21.0</ele><time>2026-05-03T08:04:09Z</time></trkpt><trkpt lat="43.17596300390039" lon="10.57179083530714"><ele>21.0</ele><time>2026-05-03T08:04:10Z</time></trkpt><trkpt lat="43.175842775131684" lon="10.571904918402014"><ele>21.0</ele><time>2026-05-03T08:04:11Z</time></trkpt><trkpt lat="43.17572192265295" lon="10.572016405927185"><ele>21.25</ele><time>2026-05-03T08:04:12Z</time></trkpt><trkpt lat="43.17559949879786" lon="10.57212409294452"><ele>21.5</ele><time>2026-05-03T08:04:13Z</time></trkpt><trkpt lat="43.175477917901915" lon="10.572233100236467"><ele>21.75</ele><time>2026-05-03T08:04:14Z</time></trkpt><trkpt lat="43.17535622208928" lon="10.57233949811049"><ele>22.0</ele><time>2026-05-03T08:04:15Z</time></trkpt><trkpt lat="43.17523807720568" lon="10.57244819194432"><ele>22.0</ele><time>2026-05-03T08:04:16Z</time></trkpt><trkpt lat="43.17511564806498" lon="10.572562369779776"><ele>22.0</ele><time>2026-05-03T08:04:17Z</time></trkpt><trkpt lat="43.175005245189645" lon="10.572666384139929"><ele>22.0</ele><time>2026-05-03T08:04:18Z</time></trkpt><trkpt lat="43.17490272663273" lon="10.572761736124392"><ele>22.0</ele><time>2026-05-03T08:04:19Z</time></trkpt><trkpt lat="43.174805302687695" lon="10.572850090312908"><ele>22.25</ele><time>2026-05-03T08:04:20Z</time></trkpt><trkpt lat="43.17470748045327" lon="10.572937903461268"><ele>22.5</ele><time>2026-05-03T08:04:21Z</time></trkpt><trkpt lat="43.17461367398481" lon="10.573028262818283"><ele>22.75</ele><time>2026-05-03T08:04:22Z</time></trkpt><trkpt lat="43.17452171024103" lon="10.573117643258538"><ele>23.0</ele><time>2026-05-03T08:04:23Z</time></trkpt><trkpt lat="43.174426924559505" lon="10.573202131337897"><ele>23.0</ele><time>2026-05-03T08:04:24Z</time></trkpt><trkpt lat="43.174334377099385" lon="10.573282593668782"><ele>23.0</ele><time>2026-05-03T08:04:25Z</time></trkpt><trkpt lat="43.174242643196386" lon="10.573362295921683"><ele>23.0</ele><time>2026-05-03T08:04:26Z</time></trkpt><trkpt lat="43.174144804829176" lon="10.573450161758192"><ele>23.0</ele><time>2026-05-03T08:04:27Z</time></trkpt><trkpt lat="43.17404308237655" lon="10.573543858903326"><ele>23.333333333333336</ele><time>2026-05-03T08:04:28Z</time></trkpt><trkpt lat="43.17393522091851" lon="10.573656297069164"><ele>23.666666666666668</ele><time>2026-05-03T08:04:29Z</time></trkpt><trkpt lat="43.17380094884592" lon="10.573784727787203"><ele>24.0</ele><time>2026-05-03T08:04:30Z</time></trkpt><trkpt lat="43.173669326698864" lon="10.573895557205399"><ele>24.333333333333336</ele><time>2026-05-03T08:04:31Z</time></trkpt><trkpt lat="43.173543587195645" lon="10.57401063056184"><ele>24.666666666666668</ele><time>2026-05-03T08:04:32Z</time></trkpt><trkpt lat="43.17339938488604" lon="10.574143731762712"><ele>25.0</ele><time>2026-05-03T08:04:33Z</time></trkpt><trkpt lat="43.17325474441933" lon="10.574279325053263"><ele>25.0</ele><time>2026-05-03T08:04:34Z</time></trkpt><trkpt lat="43.173116991296546" lon="10.5744072747048"><ele>25.0</ele><time>2026-05-03T08:04:35Z</time></trkpt><trkpt lat="43.17297578981966" lon="10.574536980034427"><ele>25.0</ele><time>2026-05-03T08:04:36Z</time></trkpt><trkpt lat="43.17283307571777" lon="10.5746683961546"><ele>25.0</ele><time>2026-05-03T08:04:37Z</time></trkpt><trkpt lat="43.172703135099" lon="10.57478676702442"><ele>25.0</ele><time>2026-05-03T08:04:38Z</time></trkpt><trkpt lat="43.17258422381829" lon="10.574897892212627"><ele>25.0</ele><time>2026-05-03T08:04:39Z</time></trkpt><trkpt lat="43.172475071347826" lon="10.5750009616082"><ele>25.0</ele><time>2026-05-03T08:04:40Z</time></trkpt><trkpt lat="43.17237108281621" lon="10.575095239208672"><ele>25.0</ele><time>2026-05-03T08:04:41Z</time></trkpt><trkpt lat="43.17227920956586" lon="10.575171940357977"><ele>25.0</ele><time>2026-05-03T08:04:42Z</time></trkpt><trkpt lat="43.172190113481776" lon="10.575235507043176"><ele>25.0</ele><time>2026-05-03T08:04:43Z</time></trkpt><trkpt lat="43.17210429059057" lon="10.575277362128963"><ele>25.0</ele><time>2026-05-03T08:04:44Z</time></trkpt><trkpt lat="43.17202111789018" lon="10.575300363780938"><ele>25.0</ele><time>2026-05-03T08:04:45Z</time></trkpt><trkpt lat="43.171944025578185" lon="10.575292568618556"><ele>25.0</ele><time>2026-05-03T08:04:46Z</time></trkpt><trkpt lat="43.17187773658565" lon="10.57528243880177"><ele>25.0</ele><time>2026-05-03T08:04:47Z</time></trkpt><trkpt lat="43.17175794186257" lon="10.575352516152641"><ele>25.0</ele><time>2026-05-03T08:04:49Z</time></trkpt><trkpt lat="43.17173302062022" lon="10.575479807480319"><ele>25.0</ele><time>2026-05-03T08:04:50Z</time></trkpt><trkpt lat="43.171697720427815" lon="10.57559183413882"><ele>25.0</ele><time>2026-05-03T08:04:51Z</time></trkpt><trkpt lat="43.17164562344792" lon="10.575718631773576"><ele>25.0</ele><time>2026-05-03T08:04:52Z</time></trkpt><trkpt lat="43.171580224278046" lon="10.575818001099929"><ele>25.0</ele><time>2026-05-03T08:04:53Z</time></trkpt><trkpt lat="43.17151459279209" lon="10.575913758287143"><ele>25.0</ele><time>2026-05-03T08:04:54Z</time></trkpt><trkpt lat="43.171441850260635" lon="10.576020502904084"><ele>25.0</ele><time>2026-05-03T08:04:55Z</time></trkpt><trkpt lat="43.17136278320927" lon="10.576137868410273"><ele>25.0</ele><time>2026-05-03T08:04:56Z</time></trkpt><trkpt lat="43.17128048711095" lon="10.576257848181386"><ele>25.25</ele><time>2026-05-03T08:04:57Z</time></trkpt><trkpt lat="43.17120111398766" lon="10.576383668923048"><ele>25.5</ele><time>2026-05-03T08:04:58Z</time></trkpt><trkpt lat="43.171126100134586" lon="10.57650020875125"><ele>25.75</ele><time>2026-05-03T08:04:59Z</time></trkpt><trkpt lat="43.17104634293461" lon="10.576619809521716"><ele>26.0</ele><time>2026-05-03T08:05:00Z</time></trkpt><trkpt lat="43.170967627297955" lon="10.576739342464327"><ele>26.0</ele><time>2026-05-03T08:05:01Z</time></trkpt><trkpt lat="43.170889341871224" lon="10.57686139757135"><ele>26.0</ele><time>2026-05-03T08:05:02Z</time></trkpt><trkpt lat="43.17080170686639" lon="10.576989165984067"><ele>26.0</ele><time>2026-05-03T08:05:03Z</time></trkpt><trkpt lat="43.170717348645105" lon="10.577114564398242"><ele>26.0</ele><time>2026-05-03T08:05:04Z</time></trkpt><trkpt lat="43.17063475365879" lon="10.577242492994815"><ele>26.5</ele><time>2026-05-03T08:05:05Z</time></trkpt><trkpt lat="43.170549279333336" lon="10.577371872994783"><ele>27.0</ele><time>2026-05-03T08:05:06Z</time></trkpt><trkpt lat="43.1704697452173" lon="10.577494513184536"><ele>27.5</ele><time>2026-05-03T08:05:07Z</time></trkpt><trkpt lat="43.17039122492365" lon="10.577614770356657"><ele>28.0</ele><time>2026-05-03T08:05:08Z</time></trkpt><trkpt lat="43.170312086896544" lon="10.57774036425182"><ele>28.25</ele><time>2026-05-03T08:05:09Z</time></trkpt><trkpt lat="43.170233325048976" lon="10.577862388789999"><ele>28.5</ele><time>2026-05-03T08:05:10Z</time></trkpt><trkpt lat="43.17015280156272" lon="10.577987937496708"><ele>28.75</ele><time>2026-05-03T08:05:11Z</time></trkpt><trkpt lat="43.170075028799175" lon="10.578113239857778"><ele>29.0</ele><time>2026-05-03T08:05:12Z</time></trkpt><trkpt lat="43.16999414005264" lon="10.57823973766255"><ele>29.0</ele><time>2026-05-03T08:05:13Z</time></trkpt><trkpt lat="43.16990710535542" lon="10.578370670785771"><ele>29.0</ele><time>2026-05-03T08:05:14Z</time></trkpt><trkpt lat="43.16982145614584" lon="10.578500028795752"><ele>29.0</ele><time>2026-05-03T08:05:15Z</time></trkpt><trkpt lat="43.16974010681729" lon="10.57862475229162"><ele>29.0</ele><time>2026-05-03T08:05:16Z</time></trkpt><trkpt lat="43.169655797322775" lon="10.578762968152857"><ele>29.5</ele><time>2026-05-03T08:05:17Z</time></trkpt><trkpt lat="43.16957751112478" lon="10.578913401633567"><ele>30.0</ele><time>2026-05-03T08:05:18Z</time></trkpt><trkpt lat="43.16950391837042" lon="10.579080227006797"><ele>30.5</ele><time>2026-05-03T08:05:19Z</time></trkpt><trkpt lat="43.16945002412599" lon="10.579262699861394"><ele>31.0</ele><time>2026-05-03T08:05:20Z</time></trkpt><trkpt lat="43.16940820218935" lon="10.579460610242776"><ele>30.666666666666668</ele><time>2026-05-03T08:05:21Z</time></trkpt><trkpt lat="43.16936845016122" lon="10.579691777777667"><ele>30.333333333333336</ele><time>2026-05-03T08:05:22Z</time></trkpt><trkpt lat="43.16932149240086" lon="10.579917207568618"><ele>30.0</ele><time>2026-05-03T08:05:23Z</time></trkpt><trkpt lat="43.16927846360021" lon="10.580122867355865"><ele>30.0</ele><time>2026-05-03T08:05:24Z</time></trkpt><trkpt lat="43.169246253315514" lon="10.580320822425756"><ele>30.0</ele><time>2026-05-03T08:05:25Z</time></trkpt><trkpt lat="43.169214412597725" lon="10.580516584690596"><ele>30.0</ele><time>2026-05-03T08:05:26Z</time></trkpt><trkpt lat="43.16918045243428" lon="10.580715477413769"><ele>30.0</ele><time>2026-05-03T08:05:27Z</time></trkpt><trkpt lat="43.16914274790557" lon="10.580927830408928"><ele>30.0</ele><time>2026-05-03T08:05:28Z</time></trkpt><trkpt lat="43.16910794231732" lon="10.5811339977285"><ele>30.0</ele><time>2026-05-03T08:05:29Z</time></trkpt><trkpt lat="43.16907513774923" lon="10.581333832661239"><ele>30.0</ele><time>2026-05-03T08:05:30Z</time></trkpt><trkpt lat="43.169042804393825" lon="10.581529072628022"><ele>30.75</ele><time>2026-05-03T08:05:31Z</time></trkpt><trkpt lat="43.169013132246846" lon="10.581728135551659"><ele>31.5</ele><time>2026-05-03T08:05:32Z</time></trkpt><trkpt lat="43.168985292211325" lon="10.58192588618923"><ele>32.25</ele><time>2026-05-03T08:05:33Z</time></trkpt><trkpt lat="43.16896023351476" lon="10.582120172575795"><ele>33.0</ele><time>2026-05-03T08:05:34Z</time></trkpt><trkpt lat="43.168934180745744" lon="10.582315808880475"><ele>33.75</ele><time>2026-05-03T08:05:35Z</time></trkpt><trkpt lat="43.168909100073144" lon="10.582515844486132"><ele>34.5</ele><time>2026-05-03T08:05:36Z</time></trkpt><trkpt lat="43.16888325518565" lon="10.58271096236549"><ele>35.25</ele><time>2026-05-03T08:05:37Z</time></trkpt><trkpt lat="43.16885617687248" lon="10.582915804613554"><ele>36.0</ele><time>2026-05-03T08:05:38Z</time></trkpt><trkpt lat="43.16883285692745" lon="10.58311299767644"><ele>36.0</ele><time>2026-05-03T08:05:39Z</time></trkpt><trkpt lat="43.168808188980755" lon="10.583313983258984"><ele>36.0</ele><time>2026-05-03T08:05:40Z</time></trkpt><trkpt lat="43.1687864818149" lon="10.583502275851808"><ele>36.0</ele><time>2026-05-03T08:05:41Z</time></trkpt><trkpt lat="43.16876454284257" lon="10.583676119668626"><ele>36.0</ele><time>2026-05-03T08:05:42Z</time></trkpt><trkpt lat="43.168749094828364" lon="10.583846483401738"><ele>36.0</ele><time>2026-05-03T08:05:43Z</time></trkpt><trkpt lat="43.1687321332352" lon="10.584016175404582"><ele>36.0</ele><time>2026-05-03T08:05:44Z</time></trkpt><trkpt lat="43.168712537184874" lon="10.584183797375978"><ele>36.0</ele><time>2026-05-03T08:05:45Z</time></trkpt><trkpt lat="43.16869208135921" lon="10.584350953835012"><ele>36.0</ele><time>2026-05-03T08:05:46Z</time></trkpt><trkpt lat="43.16867556557855" lon="10.584510669897282"><ele>35.5</ele><time>2026-05-03T08:05:47Z</time></trkpt><trkpt lat="43.168660447177245" lon="10.584659582492472"><ele>35.0</ele><time>2026-05-03T08:05:48Z</time></trkpt><trkpt lat="43.16864885436739" lon="10.584794777016834"><ele>34.5</ele><time>2026-05-03T08:05:49Z</time></trkpt><trkpt lat="43.168639906672794" lon="10.584897931731229"><ele>34.0</ele><time>2026-05-03T08:05:50Z</time></trkpt><trkpt lat="43.168613795467486" lon="10.585014865280032"><ele>33.5</ele><time>2026-05-03T08:05:52Z</time></trkpt><trkpt lat="43.16861938415326" lon="10.585111154026055"><ele>33.0</ele><time>2026-05-03T08:05:56Z</time></trkpt><trkpt lat="43.16874343215546" lon="10.585204668311514"><ele>33.0</ele><time>2026-05-03T08:06:00Z</time></trkpt><trkpt lat="43.16868377565215" lon="10.585252154579877"><ele>33.0</ele><time>2026-05-03T08:06:17Z</time></trkpt><trkpt lat="43.168599167797026" lon="10.585294346458655"><ele>33.0</ele><time>2026-05-03T08:06:26Z</time></trkpt><trkpt lat="43.168567364871855" lon="10.585377680061127"><ele>33.0</ele><time>2026-05-03T08:06:27Z</time></trkpt><trkpt lat="43.168565802542005" lon="10.585496288323366"><ele>33.0</ele><time>2026-05-03T08:06:28Z</time></trkpt><trkpt lat="43.16855952308851" lon="10.585642226178916"><ele>33.0</ele><time>2026-05-03T08:06:29Z</time></trkpt><trkpt lat="43.16852797429063" lon="10.585779303694643"><ele>33.6</ele><time>2026-05-03T08:06:30Z</time></trkpt><trkpt lat="43.16850002082702" lon="10.585918592941013"><ele>34.199999999999996</ele><time>2026-05-03T08:06:31Z</time></trkpt><trkpt lat="43.168500098288995" lon="10.586051099920935"><ele>34.8</ele><time>2026-05-03T08:06:32Z</time></trkpt><trkpt lat="43.168482822721465" lon="10.58618849772973"><ele>35.4</ele><time>2026-05-03T08:06:33Z</time></trkpt><trkpt lat="43.1684650226403" lon="10.586332095045812"><ele>36.0</ele><time>2026-05-03T08:06:34Z</time></trkpt><trkpt lat="43.16846384154816" lon="10.586458482636546"><ele>36.2</ele><time>2026-05-03T08:06:35Z</time></trkpt><trkpt lat="43.16843691284171" lon="10.586607487704953"><ele>36.400000000000006</ele><time>2026-05-03T08:06:36Z</time></trkpt><trkpt lat="43.16842404684877" lon="10.586759265575328"><ele>36.6</ele><time>2026-05-03T08:06:37Z</time></trkpt><trkpt lat="43.16841092907687" lon="10.586901883534926"><ele>36.800000000000004</ele><time>2026-05-03T08:06:38Z</time></trkpt><trkpt lat="43.1683953441276" lon="10.587046884078047"><ele>37.0</ele><time>2026-05-03T08:06:39Z</time></trkpt><trkpt lat="43.16837609098979" lon="10.587192797316826"><ele>37.25</ele><time>2026-05-03T08:06:40Z</time></trkpt><trkpt lat="43.16835865683792" lon="10.5873418201078"><ele>37.5</ele><time>2026-05-03T08:06:41Z</time></trkpt><trkpt lat="43.16834425351836" lon="10.58750197966159"><ele>37.75</ele><time>2026-05-03T08:06:42Z</time></trkpt><trkpt lat="43.168328394702456" lon="10.587663267213323"><ele>38.0</ele><time>2026-05-03T08:06:43Z</time></trkpt><trkpt lat="43.168309184696184" lon="10.58781853319416"><ele>38.25</ele><time>2026-05-03T08:06:44Z</time></trkpt><trkpt lat="43.16829063219026" lon="10.587967319094933"><ele>38.5</ele><time>2026-05-03T08:06:45Z</time></trkpt><trkpt lat="43.16827319487661" lon="10.588127376387241"><ele>38.75</ele><time>2026-05-03T08:06:46Z</time></trkpt><trkpt lat="43.16825251990054" lon="10.58829568441354"><ele>39.0</ele><time>2026-05-03T08:06:47Z</time></trkpt><trkpt lat="43.168227533373496" lon="10.58846527819451"><ele>38.75</ele><time>2026-05-03T08:06:48Z</time></trkpt><trkpt lat="43.168186330402506" lon="10.588638803448262"><ele>38.5</ele><time>2026-05-03T08:06:49Z</time></trkpt><trkpt lat="43.168102786279555" lon="10.588803256671854"><ele>38.25</ele><time>2026-05-03T08:06:50Z</time></trkpt><trkpt lat="43.168022301588685" lon="10.588952534360354"><ele>38.0</ele><time>2026-05-03T08:06:51Z</time></trkpt><trkpt lat="43.16796146721846" lon="10.58909689265869"><ele>38.0</ele><time>2026-05-03T08:06:52Z</time></trkpt><trkpt lat="43.16788062521418" lon="10.589224742450163"><ele>38.0</ele><time>2026-05-03T08:06:53Z</time></trkpt><trkpt lat="43.167804116353565" lon="10.589361000258311"><ele>38.0</ele><time>2026-05-03T08:06:54Z</time></trkpt><trkpt lat="43.16773230215791" lon="10.589509388724853"><ele>38.0</ele><time>2026-05-03T08:06:55Z</time></trkpt><trkpt lat="43.16767877693344" lon="10.589687302148507"><ele>38.0</ele><time>2026-05-03T08:06:56Z</time></trkpt><trkpt lat="43.16762177417533" lon="10.589847824825796"><ele>38.0</ele><time>2026-05-03T08:06:57Z</time></trkpt><trkpt lat="43.167571417396736" lon="10.590015321519918"><ele>38.0</ele><time>2026-05-03T08:06:58Z</time></trkpt><trkpt lat="43.16751135331637" lon="10.590193109556438"><ele>38.0</ele><time>2026-05-03T08:06:59Z</time></trkpt><trkpt lat="43.167470536279865" lon="10.590359743182734"><ele>38.0</ele><time>2026-05-03T08:07:00Z</time></trkpt><trkpt lat="43.167417055420565" lon="10.590532198047121"><ele>38.0</ele><time>2026-05-03T08:07:01Z</time></trkpt><trkpt lat="43.16736222594553" lon="10.590710340027346"><ele>38.0</ele><time>2026-05-03T08:07:02Z</time></trkpt><trkpt lat="43.16730661769112" lon="10.590889010026801"><ele>38.0</ele><time>2026-05-03T08:07:03Z</time></trkpt><trkpt lat="43.16724571094208" lon="10.591086980137614"><ele>39.0</ele><time>2026-05-03T08:07:04Z</time></trkpt><trkpt lat="43.16718354473704" lon="10.591289875303119"><ele>40.0</ele><time>2026-05-03T08:07:05Z</time></trkpt><trkpt lat="43.167123724479104" lon="10.59148960792648"><ele>41.0</ele><time>2026-05-03T08:07:06Z</time></trkpt><trkpt lat="43.167062079925415" lon="10.591685398111498"><ele>41.0</ele><time>2026-05-03T08:07:07Z</time></trkpt><trkpt lat="43.167001449115745" lon="10.59189369064591"><ele>41.0</ele><time>2026-05-03T08:07:08Z</time></trkpt><trkpt lat="43.16694109123485" lon="10.592096502299027"><ele>41.0</ele><time>2026-05-03T08:07:09Z</time></trkpt><trkpt lat="43.166887134133745" lon="10.5922811529004"><ele>41.0</ele><time>2026-05-03T08:07:10Z</time></trkpt><trkpt lat="43.16683535040188" lon="10.592482404396279"><ele>41.0</ele><time>2026-05-03T08:07:11Z</time></trkpt><trkpt lat="43.16680055693807" lon="10.592709361350819"><ele>41.0</ele><time>2026-05-03T08:07:12Z</time></trkpt><trkpt lat="43.16677703661659" lon="10.592949793211108"><ele>41.0</ele><time>2026-05-03T08:07:13Z</time></trkpt><trkpt lat="43.16675646513293" lon="10.593168662577666"><ele>41.0</ele><time>2026-05-03T08:07:14Z</time></trkpt><trkpt lat="43.16672956058481" lon="10.593374185650429"><ele>41.0</ele><time>2026-05-03T08:07:15Z</time></trkpt><trkpt lat="43.166709326864904" lon="10.593567295525954"><ele>40.75</ele><time>2026-05-03T08:07:16Z</time></trkpt><trkpt lat="43.166688784927516" lon="10.593747079491092"><ele>40.5</ele><time>2026-05-03T08:07:17Z</time></trkpt><trkpt lat="43.16667412245472" lon="10.59391529212913"><ele>40.25</ele><time>2026-05-03T08:07:18Z</time></trkpt><trkpt lat="43.166667293777344" lon="10.594082094065007"><ele>40.0</ele><time>2026-05-03T08:07:19Z</time></trkpt><trkpt lat="43.16666930020666" lon="10.594255985658432"><ele>40.0</ele><time>2026-05-03T08:07:20Z</time></trkpt><trkpt lat="43.166678806881414" lon="10.594429695977206"><ele>40.0</ele><time>2026-05-03T08:07:21Z</time></trkpt><trkpt lat="43.16669571421196" lon="10.594608277388247"><ele>40.0</ele><time>2026-05-03T08:07:22Z</time></trkpt><trkpt lat="43.16671218737113" lon="10.594792666694431"><ele>40.0</ele><time>2026-05-03T08:07:23Z</time></trkpt><trkpt lat="43.166731480783206" lon="10.594987894368135"><ele>40.333333333333336</ele><time>2026-05-03T08:07:24Z</time></trkpt><trkpt lat="43.166744335339814" lon="10.595194709744103"><ele>40.666666666666664</ele><time>2026-05-03T08:07:25Z</time></trkpt><trkpt lat="43.16673586710605" lon="10.595405163022606"><ele>41.0</ele><time>2026-05-03T08:07:26Z</time></trkpt><trkpt lat="43.16670859620951" lon="10.59560846558769"><ele>41.666666666666664</ele><time>2026-05-03T08:07:27Z</time></trkpt><trkpt lat="43.16665914239396" lon="10.595796157364495"><ele>42.333333333333336</ele><time>2026-05-03T08:07:28Z</time></trkpt><trkpt lat="43.16658928597685" lon="10.595977370875104"><ele>43.0</ele><time>2026-05-03T08:07:29Z</time></trkpt><trkpt lat="43.166496873106546" lon="10.596153601433985"><ele>43.66666666666667</ele><time>2026-05-03T08:07:30Z</time></trkpt><trkpt lat="43.166383540602624" lon="10.596334900576137"><ele>44.333333333333336</ele><time>2026-05-03T08:07:31Z</time></trkpt><trkpt lat="43.16625734537683" lon="10.596522191807452"><ele>45.0</ele><time>2026-05-03T08:07:32Z</time></trkpt><trkpt lat="43.16614362912665" lon="10.596691822292945"><ele>45.0</ele><time>2026-05-03T08:07:33Z</time></trkpt><trkpt lat="43.16603733797461" lon="10.596849350750547"><ele>45.0</ele><time>2026-05-03T08:07:34Z</time></trkpt><trkpt lat="43.16594409066873" lon="10.59699067493074"><ele>45.0</ele><time>2026-05-03T08:07:35Z</time></trkpt><trkpt lat="43.16584866717794" lon="10.597131896035807"><ele>45.0</ele><time>2026-05-03T08:07:36Z</time></trkpt><trkpt lat="43.16575275672601" lon="10.597271482418867"><ele>45.5</ele><time>2026-05-03T08:07:37Z</time></trkpt><trkpt lat="43.16566236244148" lon="10.597407230055547"><ele>46.0</ele><time>2026-05-03T08:07:38Z</time></trkpt><trkpt lat="43.165577548985894" lon="10.597538272283339"><ele>46.5</ele><time>2026-05-03T08:07:39Z</time></trkpt><trkpt lat="43.16548540429734" lon="10.5976747761086"><ele>47.0</ele><time>2026-05-03T08:07:40Z</time></trkpt><trkpt lat="43.16539469429811" lon="10.59781434746804"><ele>46.75</ele><time>2026-05-03T08:07:41Z</time></trkpt><trkpt lat="43.16529665841867" lon="10.597953303386559"><ele>46.5</ele><time>2026-05-03T08:07:42Z</time></trkpt><trkpt lat="43.165199790107835" lon="10.598102584420708"><ele>46.25</ele><time>2026-05-03T08:07:43Z</time></trkpt><trkpt lat="43.16510013720334" lon="10.598251668588942"><ele>46.0</ele><time>2026-05-03T08:07:44Z</time></trkpt><trkpt lat="43.16499595503705" lon="10.598398918764062"><ele>46.0</ele><time>2026-05-03T08:07:45Z</time></trkpt><trkpt lat="43.16489611542909" lon="10.598540289989252"><ele>46.0</ele><time>2026-05-03T08:07:46Z</time></trkpt><trkpt lat="43.16478685350895" lon="10.598676442027532"><ele>46.0</ele><time>2026-05-03T08:07:47Z</time></trkpt><trkpt lat="43.164675083812924" lon="10.5988116447468"><ele>46.0</ele><time>2026-05-03T08:07:48Z</time></trkpt><trkpt lat="43.16456090336247" lon="10.598951243058389"><ele>46.75</ele><time>2026-05-03T08:07:49Z</time></trkpt><trkpt lat="43.164457855022185" lon="10.599083442664224"><ele>47.5</ele><time>2026-05-03T08:07:50Z</time></trkpt><trkpt lat="43.16435583850078" lon="10.599213676486151"><ele>48.25</ele><time>2026-05-03T08:07:51Z</time></trkpt><trkpt lat="43.16425131505893" lon="10.599348877080285"><ele>49.0</ele><time>2026-05-03T08:07:52Z</time></trkpt><trkpt lat="43.16414374978277" lon="10.599482707955943"><ele>49.5</ele><time>2026-05-03T08:07:53Z</time></trkpt><trkpt lat="43.16403341449984" lon="10.599619985926914"><ele>50.0</ele><time>2026-05-03T08:07:54Z</time></trkpt><trkpt lat="43.16392011118844" lon="10.599747430278216"><ele>50.5</ele><time>2026-05-03T08:07:55Z</time></trkpt><trkpt lat="43.16380914305965" lon="10.599882592260366"><ele>51.0</ele><time>2026-05-03T08:07:56Z</time></trkpt><trkpt lat="43.16370254855039" lon="10.60001955307169"><ele>53.0</ele><time>2026-05-03T08:07:57Z</time></trkpt><trkpt lat="43.163593921737174" lon="10.600166524740507"><ele>55.0</ele><time>2026-05-03T08:07:58Z</time></trkpt><trkpt lat="43.16348362814593" lon="10.600308506918571"><ele>57.0</ele><time>2026-05-03T08:07:59Z</time></trkpt><trkpt lat="43.163371786578196" lon="10.600439940900788"><ele>58.0</ele><time>2026-05-03T08:08:00Z</time></trkpt><trkpt lat="43.1632784385987" lon="10.600557812789749"><ele>59.0</ele><time>2026-05-03T08:08:01Z</time></trkpt><trkpt lat="43.16317984443491" lon="10.600676273293525"><ele>60.0</ele><time>2026-05-03T08:08:02Z</time></trkpt><trkpt lat="43.16309287482596" lon="10.60078179593755"><ele>61.0</ele><time>2026-05-03T08:08:03Z</time></trkpt><trkpt lat="43.16301212284311" lon="10.600891566787569"><ele>61.5</ele><time>2026-05-03T08:08:04Z</time></trkpt><trkpt lat="43.162923454847046" lon="10.601008439103413"><ele>62.0</ele><time>2026-05-03T08:08:05Z</time></trkpt><trkpt lat="43.162821504216716" lon="10.601128093968272"><ele>62.5</ele><time>2026-05-03T08:08:06Z</time></trkpt><trkpt lat="43.16271993815936" lon="10.601244478771715"><ele>63.0</ele><time>2026-05-03T08:08:07Z</time></trkpt><trkpt lat="43.16263497686259" lon="10.601346173232434"><ele>64.0</ele><time>2026-05-03T08:08:08Z</time></trkpt><trkpt lat="43.16257328740411" lon="10.601443643383872"><ele>65.0</ele><time>2026-05-03T08:08:09Z</time></trkpt><trkpt lat="43.16252694849997" lon="10.60150479935161"><ele>66.0</ele><time>2026-05-03T08:08:10Z</time></trkpt><trkpt lat="43.16257519747438" lon="10.601716245048124"><ele>67.0</ele><time>2026-05-03T08:08:12Z</time></trkpt><trkpt lat="43.16268612039317" lon="10.601773187441527"><ele>68.0</ele><time>2026-05-03T08:08:13Z</time></trkpt><trkpt lat="43.162773440212156" lon="10.601799710744068"><ele>68.0</ele><time>2026-05-03T08:08:14Z</time></trkpt><trkpt lat="43.16287488121054" lon="10.601803230170361"><ele>68.0</ele><time>2026-05-03T08:08:15Z</time></trkpt><trkpt lat="43.16298704139589" lon="10.601794362900488"><ele>68.0</ele><time>2026-05-03T08:08:16Z</time></trkpt><trkpt lat="43.16310103591248" lon="10.601795331001908"><ele>68.0</ele><time>2026-05-03T08:08:17Z</time></trkpt><trkpt lat="43.16319916568665" lon="10.601801406994324"><ele>68.0</ele><time>2026-05-03T08:08:18Z</time></trkpt><trkpt lat="43.16328167317576" lon="10.601818795404876"><ele>68.2</ele><time>2026-05-03T08:08:19Z</time></trkpt><trkpt lat="43.163344097563765" lon="10.601876798372578"><ele>68.4</ele><time>2026-05-03T08:08:20Z</time></trkpt><trkpt lat="43.16338447794769" lon="10.601971551729502"><ele>68.60000000000001</ele><time>2026-05-03T08:08:21Z</time></trkpt><trkpt lat="43.163387206488075" lon="10.602077271548154"><ele>68.8</ele><time>2026-05-03T08:08:22Z</time></trkpt><trkpt lat="43.16329488857154" lon="10.602223634018555"><ele>69.0</ele><time>2026-05-03T08:08:24Z</time></trkpt><trkpt lat="43.163196271098315" lon="10.602273699737891"><ele>71.0</ele><time>2026-05-03T08:08:25Z</time></trkpt><trkpt lat="43.163098503721514" lon="10.602296418954642"><ele>73.0</ele><time>2026-05-03T08:08:26Z</time></trkpt><trkpt lat="43.16298227660453" lon="10.602330489292344"><ele>75.0</ele><time>2026-05-03T08:08:27Z</time></trkpt><trkpt lat="43.16285187578068" lon="10.602407729222906"><ele>77.0</ele><time>2026-05-03T08:08:28Z</time></trkpt><trkpt lat="43.16272996230645" lon="10.602502763246324"><ele>77.0</ele><time>2026-05-03T08:08:29Z</time></trkpt><trkpt lat="43.162600765315204" lon="10.602601464029775"><ele>77.0</ele><time>2026-05-03T08:08:30Z</time></trkpt><trkpt lat="43.16247081159193" lon="10.602707521623397"><ele>77.0</ele><time>2026-05-03T08:08:31Z</time></trkpt><trkpt lat="43.162354543881904" lon="10.602837226151959"><ele>77.0</ele><time>2026-05-03T08:08:32Z</time></trkpt><trkpt lat="43.16224826373718" lon="10.602983065097279"><ele>77.75</ele><time>2026-05-03T08:08:33Z</time></trkpt><trkpt lat="43.16216205408066" lon="10.603139789213367"><ele>78.5</ele><time>2026-05-03T08:08:34Z</time></trkpt><trkpt lat="43.16208839007006" lon="10.603307496161586"><ele>79.25</ele><time>2026-05-03T08:08:35Z</time></trkpt><trkpt lat="43.16202857002247" lon="10.603489214439282"><ele>80.0</ele><time>2026-05-03T08:08:36Z</time></trkpt><trkpt lat="43.161969858695045" lon="10.60368774314779"><ele>83.0</ele><time>2026-05-03T08:08:37Z</time></trkpt><trkpt lat="43.16191335979103" lon="10.603865701369974"><ele>86.0</ele><time>2026-05-03T08:08:38Z</time></trkpt><trkpt lat="43.16185708298215" lon="10.604017653974134"><ele>89.0</ele><time>2026-05-03T08:08:39Z</time></trkpt><trkpt lat="43.16177822511817" lon="10.604129712738626"><ele>92.0</ele><time>2026-05-03T08:08:40Z</time></trkpt><trkpt lat="43.16166978379217" lon="10.604183495580099"><ele>92.0</ele><time>2026-05-03T08:08:41Z</time></trkpt><trkpt lat="43.161559164200455" lon="10.604233240328005"><ele>92.0</ele><time>2026-05-03T08:08:42Z</time></trkpt><trkpt lat="43.1614399400572" lon="10.604233604404763"><ele>92.0</ele><time>2026-05-03T08:08:43Z</time></trkpt><trkpt lat="43.161322360144844" lon="10.604200400894154"><ele>92.0</ele><time>2026-05-03T08:08:44Z</time></trkpt><trkpt lat="43.16123111834942" lon="10.604118600029274"><ele>91.19999999999999</ele><time>2026-05-03T08:08:45Z</time></trkpt><trkpt lat="43.16114781979923" lon="10.60399428672974"><ele>90.4</ele><time>2026-05-03T08:08:46Z</time></trkpt><trkpt lat="43.16106318626157" lon="10.603866589570172"><ele>89.6</ele><time>2026-05-03T08:08:47Z</time></trkpt><trkpt lat="43.160994409811124" lon="10.603766228434708"><ele>88.80000000000001</ele><time>2026-05-03T08:08:48Z</time></trkpt><trkpt lat="43.16093233965668" lon="10.60367759774427"><ele>88.0</ele><time>2026-05-03T08:08:49Z</time></trkpt><trkpt lat="43.160854747284" lon="10.603604830418426"><ele>88.0</ele><time>2026-05-03T08:08:50Z</time></trkpt><trkpt lat="43.16074053571141" lon="10.60356114927655"><ele>88.0</ele><time>2026-05-03T08:08:51Z</time></trkpt><trkpt lat="43.160603139208604" lon="10.60354325138783"><ele>88.0</ele><time>2026-05-03T08:08:52Z</time></trkpt><trkpt lat="43.160458175905696" lon="10.603480560468746"><ele>88.0</ele><time>2026-05-03T08:08:53Z</time></trkpt><trkpt lat="43.16032590657062" lon="10.603400802956179"><ele>92.33333333333333</ele><time>2026-05-03T08:08:54Z</time></trkpt><trkpt lat="43.16018999261912" lon="10.603274104622479"><ele>96.66666666666666</ele><time>2026-05-03T08:08:55Z</time></trkpt><trkpt lat="43.16004983696156" lon="10.603149132361317"><ele>101.0</ele><time>2026-05-03T08:08:56Z</time></trkpt><trkpt lat="43.15993980400413" lon="10.603021745370963"><ele>101.25</ele><time>2026-05-03T08:08:57Z</time></trkpt><trkpt lat="43.159835158355186" lon="10.602932565956435"><ele>101.5</ele><time>2026-05-03T08:08:58Z</time></trkpt><trkpt lat="43.15972846473442" lon="10.602891651429807"><ele>101.75</ele><time>2026-05-03T08:08:59Z</time></trkpt><trkpt lat="43.15962465537147" lon="10.60288147114782"><ele>102.0</ele><time>2026-05-03T08:09:00Z</time></trkpt><trkpt lat="43.15952593537343" lon="10.602958661437423"><ele>102.0</ele><time>2026-05-03T08:09:01Z</time></trkpt><trkpt lat="43.159430260898006" lon="10.603067295635142"><ele>102.0</ele><time>2026-05-03T08:09:02Z</time></trkpt><trkpt lat="43.15933717664748" lon="10.603198401740395"><ele>102.0</ele><time>2026-05-03T08:09:03Z</time></trkpt><trkpt lat="43.15922287268308" lon="10.603310784396797"><ele>102.0</ele><time>2026-05-03T08:09:04Z</time></trkpt><trkpt lat="43.15912800044325" lon="10.603456743723957"><ele>101.75</ele><time>2026-05-03T08:09:05Z</time></trkpt><trkpt lat="43.15902912741141" lon="10.603574709615614"><ele>101.5</ele><time>2026-05-03T08:09:06Z</time></trkpt><trkpt lat="43.15892544462703" lon="10.603696281715475"><ele>101.25</ele><time>2026-05-03T08:09:07Z</time></trkpt><trkpt lat="43.15883505719787" lon="10.603804310849629"><ele>101.0</ele><time>2026-05-03T08:09:08Z</time></trkpt><trkpt lat="43.15875867883798" lon="10.60391168967676"><ele>101.0</ele><time>2026-05-03T08:09:09Z</time></trkpt><trkpt lat="43.158680782457644" lon="10.604024293606134"><ele>101.0</ele><time>2026-05-03T08:09:10Z</time></trkpt><trkpt lat="43.15860615687345" lon="10.604141868449021"><ele>101.0</ele><time>2026-05-03T08:09:11Z</time></trkpt><trkpt lat="43.15852859691812" lon="10.60426328816978"><ele>101.0</ele><time>2026-05-03T08:09:12Z</time></trkpt><trkpt lat="43.15845465310617" lon="10.604378726895012"><ele>103.0</ele><time>2026-05-03T08:09:13Z</time></trkpt><trkpt lat="43.15838878140804" lon="10.604497536487724"><ele>105.0</ele><time>2026-05-03T08:09:14Z</time></trkpt><trkpt lat="43.15833076303367" lon="10.604626740123223"><ele>107.0</ele><time>2026-05-03T08:09:15Z</time></trkpt><trkpt lat="43.15829694585728" lon="10.604768385865434"><ele>109.0</ele><time>2026-05-03T08:09:16Z</time></trkpt><trkpt lat="43.158294813148025" lon="10.604919637520423"><ele>111.0</ele><time>2026-05-03T08:09:17Z</time></trkpt><trkpt lat="43.15831342734791" lon="10.605085680022004"><ele>111.0</ele><time>2026-05-03T08:09:18Z</time></trkpt><trkpt lat="43.15836088613477" lon="10.60526693824467"><ele>111.0</ele><time>2026-05-03T08:09:19Z</time></trkpt><trkpt lat="43.15842787858826" lon="10.605436253435629"><ele>111.0</ele><time>2026-05-03T08:09:20Z</time></trkpt><trkpt lat="43.15851317960772" lon="10.60561254485768"><ele>111.0</ele><time>2026-05-03T08:09:21Z</time></trkpt><trkpt lat="43.15858939982246" lon="10.605766369684074"><ele>110.25</ele><time>2026-05-03T08:09:22Z</time></trkpt><trkpt lat="43.1586716022312" lon="10.605915686851798"><ele>109.5</ele><time>2026-05-03T08:09:23Z</time></trkpt><trkpt lat="43.158753888609894" lon="10.606055595216654"><ele>108.75</ele><time>2026-05-03T08:09:24Z</time></trkpt><trkpt lat="43.1588340024575" lon="10.606187457864822"><ele>108.0</ele><time>2026-05-03T08:09:25Z</time></trkpt><trkpt lat="43.15889686332988" lon="10.606312010501037"><ele>108.0</ele><time>2026-05-03T08:09:26Z</time></trkpt><trkpt lat="43.15894437061028" lon="10.606450811048727"><ele>108.0</ele><time>2026-05-03T08:09:27Z</time></trkpt><trkpt lat="43.1589785625722" lon="10.606601094175081"><ele>108.0</ele><time>2026-05-03T08:09:28Z</time></trkpt><trkpt lat="43.159009754930345" lon="10.606755296094422"><ele>108.0</ele><time>2026-05-03T08:09:29Z</time></trkpt><trkpt lat="43.15904174843618" lon="10.60691459828013"><ele>110.25</ele><time>2026-05-03T08:09:30Z</time></trkpt><trkpt lat="43.15906609636403" lon="10.607081897870263"><ele>112.5</ele><time>2026-05-03T08:09:31Z</time></trkpt><trkpt lat="43.15905995310002" lon="10.607236459571448"><ele>114.75</ele><time>2026-05-03T08:09:32Z</time></trkpt><trkpt lat="43.15902120331463" lon="10.607392174195805"><ele>117.0</ele><time>2026-05-03T08:09:33Z</time></trkpt><trkpt lat="43.15893460028784" lon="10.607519804292197"><ele>117.0</ele><time>2026-05-03T08:09:34Z</time></trkpt><trkpt lat="43.158840428684094" lon="10.607649712090664"><ele>116.99999999999999</ele><time>2026-05-03T08:09:35Z</time></trkpt><trkpt lat="43.158771393345255" lon="10.607768341694822"><ele>116.99999999999999</ele><time>2026-05-03T08:09:36Z</time></trkpt><trkpt lat="43.15870689281666" lon="10.607862015782713"><ele>117.0</ele><time>2026-05-03T08:09:37Z</time></trkpt><trkpt lat="43.15866489384556" lon="10.607958413795183"><ele>117.0</ele><time>2026-05-03T08:09:38Z</time></trkpt><trkpt lat="43.15864685211641" lon="10.608068576215102"><ele>118.66666666666667</ele><time>2026-05-03T08:09:39Z</time></trkpt><trkpt lat="43.15865989036191" lon="10.608181738193542"><ele>120.33333333333334</ele><time>2026-05-03T08:09:40Z</time></trkpt><trkpt lat="43.158699272345956" lon="10.608283068284381"><ele>122.0</ele><time>2026-05-03T08:09:41Z</time></trkpt><trkpt lat="43.15876020005784" lon="10.608354329589249"><ele>123.66666666666667</ele><time>2026-05-03T08:09:42Z</time></trkpt><trkpt lat="43.1588458449294" lon="10.608401904192261"><ele>125.33333333333334</ele><time>2026-05-03T08:09:43Z</time></trkpt><trkpt lat="43.1589412178845" lon="10.608398072540036"><ele>127.0</ele><time>2026-05-03T08:09:44Z</time></trkpt><trkpt lat="43.15902767961907" lon="10.608347607745607"><ele>130.0</ele><time>2026-05-03T08:09:45Z</time></trkpt><trkpt lat="43.15910825207534" lon="10.608250907739023"><ele>133.0</ele><time>2026-05-03T08:09:46Z</time></trkpt><trkpt lat="43.159178753177926" lon="10.608132533427643"><ele>136.0</ele><time>2026-05-03T08:09:47Z</time></trkpt><trkpt lat="43.15923833854806" lon="10.607999422892153"><ele>139.0</ele><time>2026-05-03T08:09:48Z</time></trkpt><trkpt lat="43.15929006234732" lon="10.607844538718842"><ele>136.5</ele><time>2026-05-03T08:09:49Z</time></trkpt><trkpt lat="43.15933235796085" lon="10.607704276419032"><ele>134.0</ele><time>2026-05-03T08:09:50Z</time></trkpt><trkpt lat="43.15938189640622" lon="10.607555121671163"><ele>131.5</ele><time>2026-05-03T08:09:51Z</time></trkpt><trkpt lat="43.15942974982195" lon="10.607398978813634"><ele>129.0</ele><time>2026-05-03T08:09:52Z</time></trkpt><trkpt lat="43.15945331218339" lon="10.607226411170432"><ele>129.0</ele><time>2026-05-03T08:09:53Z</time></trkpt><trkpt lat="43.15945779884001" lon="10.607050684552103"><ele>129.0</ele><time>2026-05-03T08:09:54Z</time></trkpt><trkpt lat="43.15946107766513" lon="10.606885881066065"><ele>129.0</ele><time>2026-05-03T08:09:55Z</time></trkpt><trkpt lat="43.159474269187115" lon="10.606730141625214"><ele>129.0</ele><time>2026-05-03T08:09:56Z</time></trkpt><trkpt lat="43.159490378039585" lon="10.606575277982891"><ele>129.2</ele><time>2026-05-03T08:09:57Z</time></trkpt><trkpt lat="43.15950613834345" lon="10.606422642941103"><ele>129.4</ele><time>2026-05-03T08:09:58Z</time></trkpt><trkpt lat="43.15951988570893" lon="10.60627278178475"><ele>129.6</ele><time>2026-05-03T08:09:59Z</time></trkpt><trkpt lat="43.15952174655332" lon="10.606121721627751"><ele>129.8</ele><time>2026-05-03T08:10:00Z</time></trkpt><trkpt lat="43.15950334558807" lon="10.60596831812794"><ele>130.0</ele><time>2026-05-03T08:10:01Z</time></trkpt><trkpt lat="43.15947179414468" lon="10.605812433490705"><ele>130.0</ele><time>2026-05-03T08:10:02Z</time></trkpt><trkpt lat="43.15944021995147" lon="10.605654737751898"><ele>130.0</ele><time>2026-05-03T08:10:03Z</time></trkpt><trkpt lat="43.15940271943885" lon="10.605514807423246"><ele>130.0</ele><time>2026-05-03T08:10:04Z</time></trkpt><trkpt lat="43.159372479667766" lon="10.605388856184305"><ele>130.0</ele><time>2026-05-03T08:10:05Z</time></trkpt><trkpt lat="43.159360943348744" lon="10.605260760088996"><ele>130.0</ele><time>2026-05-03T08:10:06Z</time></trkpt><trkpt lat="43.159381069970884" lon="10.605134659178464"><ele>130.6</ele><time>2026-05-03T08:10:07Z</time></trkpt><trkpt lat="43.1594312221346" lon="10.605021169043068"><ele>131.2</ele><time>2026-05-03T08:10:08Z</time></trkpt><trkpt lat="43.15950370150364" lon="10.604943327061298"><ele>131.8</ele><time>2026-05-03T08:10:09Z</time></trkpt><trkpt lat="43.15958824557085" lon="10.604905036404435"><ele>132.4</ele><time>2026-05-03T08:10:10Z</time></trkpt><trkpt lat="43.15968137968697" lon="10.604894596050936"><ele>133.0</ele><time>2026-05-03T08:10:11Z</time></trkpt><trkpt lat="43.159768376596276" lon="10.604928927180977"><ele>133.0</ele><time>2026-05-03T08:10:12Z</time></trkpt><trkpt lat="43.15983800283272" lon="10.604990870705233"><ele>133.0</ele><time>2026-05-03T08:10:13Z</time></trkpt><trkpt lat="43.15988675974016" lon="10.605079257674198"><ele>133.0</ele><time>2026-05-03T08:10:14Z</time></trkpt><trkpt lat="43.15991987005385" lon="10.605188385947812"><ele>133.0</ele><time>2026-05-03T08:10:15Z</time></trkpt><trkpt lat="43.159930194967664" lon="10.60530328021562"><ele>133.0</ele><time>2026-05-03T08:10:16Z</time></trkpt><trkpt lat="43.15993122502694" lon="10.605411394241269"><ele>133.0</ele><time>2026-05-03T08:10:17Z</time></trkpt><trkpt lat="43.159932776363696" lon="10.605498683372556"><ele>135.4</ele><time>2026-05-03T08:10:18Z</time></trkpt><trkpt lat="43.15993745195214" lon="10.6056479518323"><ele>137.8</ele><time>2026-05-03T08:10:20Z</time></trkpt><trkpt lat="43.15993077437648" lon="10.605801696155936"><ele>140.2</ele><time>2026-05-03T08:10:22Z</time></trkpt><trkpt lat="43.15993317228274" lon="10.60597888670341"><ele>142.6</ele><time>2026-05-03T08:10:24Z</time></trkpt><trkpt lat="43.159950551501126" lon="10.606072845939128"><ele>145.0</ele><time>2026-05-03T08:10:25Z</time></trkpt><trkpt lat="43.159954085287595" lon="10.60617106342949"><ele>146.0</ele><time>2026-05-03T08:10:26Z</time></trkpt><trkpt lat="43.159958303847425" lon="10.6062671203838"><ele>147.0</ele><time>2026-05-03T08:10:27Z</time></trkpt><trkpt lat="43.159962165408245" lon="10.606367689000145"><ele>148.0</ele><time>2026-05-03T08:10:28Z</time></trkpt><trkpt lat="43.15996450773301" lon="10.606476125047447"><ele>149.0</ele><time>2026-05-03T08:10:29Z</time></trkpt><trkpt lat="43.159967975512124" lon="10.606578513367253"><ele>150.0</ele><time>2026-05-03T08:10:30Z</time></trkpt><trkpt lat="43.1599606553025" lon="10.606716670073665"><ele>151.0</ele><time>2026-05-03T08:10:32Z</time></trkpt><trkpt lat="43.15993493777809" lon="10.606805824927616"><ele>151.0</ele><time>2026-05-03T08:10:34Z</time></trkpt><trkpt lat="43.160016200511954" lon="10.60692151180697"><ele>151.0</ele><time>2026-05-03T08:12:36Z</time></trkpt><trkpt lat="43.15997076524624" lon="10.606861100321538"><ele>151.0</ele><time>2026-05-03T08:15:24Z</time></trkpt><trkpt lat="43.16002174350199" lon="10.606918872469857"><ele>151.0</ele><time>2026-05-03T08:16:46Z</time></trkpt><trkpt lat="43.16004740271777" lon="10.6070490609687"><ele>151.0</ele><time>2026-05-03T08:16:50Z</time></trkpt><trkpt lat="43.16000931268913" lon="10.607266725904783"><ele>152.0</ele><time>2026-05-03T08:16:52Z</time></trkpt><trkpt lat="43.15998702327425" lon="10.607387021851212"><ele>153.0</ele><time>2026-05-03T08:16:53Z</time></trkpt><trkpt lat="43.15996953977962" lon="10.607537170808465"><ele>154.0</ele><time>2026-05-03T08:16:54Z</time></trkpt><trkpt lat="43.15986054531535" lon="10.607668714139699"><ele>155.0</ele><time>2026-05-03T08:16:55Z</time></trkpt><trkpt lat="43.15984229838703" lon="10.607776063448577"><ele>156.0</ele><time>2026-05-03T08:16:56Z</time></trkpt><trkpt lat="43.159826099606704" lon="10.607868053858363"><ele>152.6</ele><time>2026-05-03T08:16:57Z</time></trkpt><trkpt lat="43.159814297641574" lon="10.607978500240092"><ele>149.2</ele><time>2026-05-03T08:16:58Z</time></trkpt><trkpt lat="43.159810077747" lon="10.608081514595673"><ele>145.8</ele><time>2026-05-03T08:16:59Z</time></trkpt><trkpt lat="43.15981134067258" lon="10.60820393707627"><ele>142.4</ele><time>2026-05-03T08:17:00Z</time></trkpt><trkpt lat="43.159815479660146" lon="10.608305213792331"><ele>139.0</ele><time>2026-05-03T08:17:01Z</time></trkpt><trkpt lat="43.15982405809735" lon="10.608482793943006"><ele>139.0</ele><time>2026-05-03T08:17:03Z</time></trkpt><trkpt lat="43.15983076417462" lon="10.608610491481873"><ele>139.0</ele><time>2026-05-03T08:17:04Z</time></trkpt><trkpt lat="43.15983664034779" lon="10.608715261560224"><ele>139.0</ele><time>2026-05-03T08:17:05Z</time></trkpt><trkpt lat="43.15984544758263" lon="10.608843589007758"><ele>139.0</ele><time>2026-05-03T08:17:06Z</time></trkpt><trkpt lat="43.159855637360714" lon="10.608982466132554"><ele>139.0</ele><time>2026-05-03T08:17:07Z</time></trkpt><trkpt lat="43.159864604849325" lon="10.609097473282933"><ele>144.4</ele><time>2026-05-03T08:17:08Z</time></trkpt><trkpt lat="43.1598775297613" lon="10.609239565490977"><ele>149.8</ele><time>2026-05-03T08:17:09Z</time></trkpt><trkpt lat="43.15988743547072" lon="10.609350295183528"><ele>155.20000000000002</ele><time>2026-05-03T08:17:10Z</time></trkpt><trkpt lat="43.15989896877931" lon="10.609479219160717"><ele>160.60000000000002</ele><time>2026-05-03T08:17:11Z</time></trkpt><trkpt lat="43.15990103216679" lon="10.609590982350719"><ele>166.0</ele><time>2026-05-03T08:17:12Z</time></trkpt><trkpt lat="43.15988670491632" lon="10.609728576169855"><ele>162.5</ele><time>2026-05-03T08:17:13Z</time></trkpt><trkpt lat="43.15985913280022" lon="10.609881129823123"><ele>159.0</ele><time>2026-05-03T08:17:14Z</time></trkpt><trkpt lat="43.159831904568186" lon="10.610029338070474"><ele>155.5</ele><time>2026-05-03T08:17:15Z</time></trkpt><trkpt lat="43.15980425015791" lon="10.610182473452582"><ele>152.0</ele><time>2026-05-03T08:17:16Z</time></trkpt><trkpt lat="43.15977760920446" lon="10.610329474586983"><ele>152.0</ele><time>2026-05-03T08:17:17Z</time></trkpt><trkpt lat="43.15975035207489" lon="10.61047484581893"><ele>152.0</ele><time>2026-05-03T08:17:18Z</time></trkpt><trkpt lat="43.15972252120323" lon="10.610623277035529"><ele>152.0</ele><time>2026-05-03T08:17:19Z</time></trkpt><trkpt lat="43.159700361275824" lon="10.610749009674626"><ele>152.0</ele><time>2026-05-03T08:17:20Z</time></trkpt><trkpt lat="43.159685542360954" lon="10.610842038415642"><ele>152.0</ele><time>2026-05-03T08:17:21Z</time></trkpt><trkpt lat="43.15967267359757" lon="10.610951348608118"><ele>152.0</ele><time>2026-05-03T08:17:22Z</time></trkpt><trkpt lat="43.15966444817031" lon="10.611081123763773"><ele>152.0</ele><time>2026-05-03T08:17:23Z</time></trkpt><trkpt lat="43.1596653337841" lon="10.611214703104087"><ele>152.0</ele><time>2026-05-03T08:17:24Z</time></trkpt><trkpt lat="43.15967167892096" lon="10.611347482662161"><ele>152.0</ele><time>2026-05-03T08:17:25Z</time></trkpt><trkpt lat="43.15968063582291" lon="10.611506385707035"><ele>152.0</ele><time>2026-05-03T08:17:26Z</time></trkpt><trkpt lat="43.15969173465736" lon="10.611633258739396"><ele>151.66666666666666</ele><time>2026-05-03T08:17:27Z</time></trkpt><trkpt lat="43.15970653362084" lon="10.611744400440678"><ele>151.33333333333331</ele><time>2026-05-03T08:17:28Z</time></trkpt><trkpt lat="43.159727785062735" lon="10.611860752274785"><ele>151.0</ele><time>2026-05-03T08:17:29Z</time></trkpt><trkpt lat="43.15975297083713" lon="10.611960128667588"><ele>150.66666666666666</ele><time>2026-05-03T08:17:30Z</time></trkpt><trkpt lat="43.159780611520304" lon="10.612058389147212"><ele>150.33333333333334</ele><time>2026-05-03T08:17:31Z</time></trkpt><trkpt lat="43.15983233566495" lon="10.612182775352455"><ele>150.0</ele><time>2026-05-03T08:17:32Z</time></trkpt><trkpt lat="43.159882422794524" lon="10.612301431626106"><ele>153.4</ele><time>2026-05-03T08:17:33Z</time></trkpt><trkpt lat="43.15994521696267" lon="10.612421438548047"><ele>156.8</ele><time>2026-05-03T08:17:34Z</time></trkpt><trkpt lat="43.160017570541456" lon="10.612521892674154"><ele>160.2</ele><time>2026-05-03T08:17:35Z</time></trkpt><trkpt lat="43.16007341340306" lon="10.612582270203962"><ele>163.6</ele><time>2026-05-03T08:17:36Z</time></trkpt><trkpt lat="43.16015556740422" lon="10.61269099109737"><ele>167.0</ele><time>2026-05-03T08:17:38Z</time></trkpt><trkpt lat="43.1602094446027" lon="10.612775200402641"><ele>166.0</ele><time>2026-05-03T08:17:39Z</time></trkpt><trkpt lat="43.16024715294556" lon="10.612847627270249"><ele>165.0</ele><time>2026-05-03T08:17:40Z</time></trkpt><trkpt lat="43.16029696257367" lon="10.612948015163484"><ele>164.0</ele><time>2026-05-03T08:17:41Z</time></trkpt><trkpt lat="43.16034858212971" lon="10.613031143821697"><ele>163.0</ele><time>2026-05-03T08:17:42Z</time></trkpt><trkpt lat="43.16039514877769" lon="10.613113146021151"><ele>162.0</ele><time>2026-05-03T08:17:43Z</time></trkpt><trkpt lat="43.16042994322035" lon="10.61319535482349"><ele>161.0</ele><time>2026-05-03T08:17:44Z</time></trkpt><trkpt lat="43.16046243462992" lon="10.613297004616735"><ele>161.0</ele><time>2026-05-03T08:17:45Z</time></trkpt><trkpt lat="43.16049092542703" lon="10.613394925244364"><ele>161.0</ele><time>2026-05-03T08:17:46Z</time></trkpt><trkpt lat="43.16048660334612" lon="10.613516094148775"><ele>161.0</ele><time>2026-05-03T08:17:47Z</time></trkpt><trkpt lat="43.160491381640675" lon="10.613654128529403"><ele>161.0</ele><time>2026-05-03T08:17:48Z</time></trkpt><trkpt lat="43.160495704378334" lon="10.61380294322423"><ele>161.0</ele><time>2026-05-03T08:17:49Z</time></trkpt><trkpt lat="43.1605122220634" lon="10.613954561463416"><ele>160.4</ele><time>2026-05-03T08:17:50Z</time></trkpt><trkpt lat="43.16050597619007" lon="10.614115119690675"><ele>159.8</ele><time>2026-05-03T08:17:51Z</time></trkpt><trkpt lat="43.1605114648174" lon="10.614264022718022"><ele>159.20000000000002</ele><time>2026-05-03T08:17:52Z</time></trkpt><trkpt lat="43.16052453479071" lon="10.614398695668184"><ele>158.60000000000002</ele><time>2026-05-03T08:17:53Z</time></trkpt><trkpt lat="43.160524422512474" lon="10.614533449919861"><ele>158.0</ele><time>2026-05-03T08:17:54Z</time></trkpt><trkpt lat="43.16053157031751" lon="10.614648898781763"><ele>158.0</ele><time>2026-05-03T08:17:55Z</time></trkpt><trkpt lat="43.16053481825403" lon="10.61475226137707"><ele>158.0</ele><time>2026-05-03T08:17:56Z</time></trkpt><trkpt lat="43.16053871961488" lon="10.614860489332104"><ele>158.0</ele><time>2026-05-03T08:17:57Z</time></trkpt><trkpt lat="43.16051311535783" lon="10.615008245866175"><ele>158.0</ele><time>2026-05-03T08:17:59Z</time></trkpt><trkpt lat="43.16044702255139" lon="10.615060166703703"><ele>158.0</ele><time>2026-05-03T08:18:01Z</time></trkpt><trkpt lat="43.16034194475649" lon="10.615117521481858"><ele>158.0</ele><time>2026-05-03T08:18:14Z</time></trkpt><trkpt lat="43.160236949175435" lon="10.615218794034883"><ele>158.0</ele><time>2026-05-03T08:18:16Z</time></trkpt><trkpt lat="43.16016678876889" lon="10.615278516821213"><ele>158.0</ele><time>2026-05-03T08:18:17Z</time></trkpt><trkpt lat="43.160105567399164" lon="10.615331129022369"><ele>158.0</ele><time>2026-05-03T08:18:18Z</time></trkpt><trkpt lat="43.16004481236523" lon="10.615381564646238"><ele>158.0</ele><time>2026-05-03T08:18:19Z</time></trkpt><trkpt lat="43.159971784806125" lon="10.615446600162633"><ele>158.0</ele><time>2026-05-03T08:18:20Z</time></trkpt><trkpt lat="43.15989061505691" lon="10.61549062479776"><ele>159.83333333333331</ele><time>2026-05-03T08:18:21Z</time></trkpt><trkpt lat="43.159830267909875" lon="10.615567888774768"><ele>161.66666666666666</ele><time>2026-05-03T08:18:22Z</time></trkpt><trkpt lat="43.15975862125909" lon="10.615623525529882"><ele>163.5</ele><time>2026-05-03T08:18:23Z</time></trkpt><trkpt lat="43.159678212107195" lon="10.615666031440705"><ele>165.33333333333334</ele><time>2026-05-03T08:18:24Z</time></trkpt><trkpt lat="43.15960488264596" lon="10.615727719430039"><ele>167.16666666666669</ele><time>2026-05-03T08:18:25Z</time></trkpt><trkpt lat="43.15954280308064" lon="10.615780024181106"><ele>169.0</ele><time>2026-05-03T08:18:26Z</time></trkpt><trkpt lat="43.15947594306846" lon="10.615839563447528"><ele>169.0</ele><time>2026-05-03T08:18:27Z</time></trkpt><trkpt lat="43.159407493977994" lon="10.61591084296311"><ele>169.0</ele><time>2026-05-03T08:18:28Z</time></trkpt><trkpt lat="43.15934407762525" lon="10.615986644838523"><ele>169.0</ele><time>2026-05-03T08:18:29Z</time></trkpt><trkpt lat="43.15927365796795" lon="10.616062143980983"><ele>169.0</ele><time>2026-05-03T08:18:30Z</time></trkpt><trkpt lat="43.15920774935955" lon="10.616121865109903"><ele>169.0</ele><time>2026-05-03T08:18:31Z</time></trkpt><trkpt lat="43.15906777586595" lon="10.616129319049984"><ele>168.66666666666669</ele><time>2026-05-03T08:18:33Z</time></trkpt><trkpt lat="43.15899001197604" lon="10.616059627421132"><ele>168.33333333333334</ele><time>2026-05-03T08:18:34Z</time></trkpt><trkpt lat="43.15890669198892" lon="10.616039597953932"><ele>168.0</ele><time>2026-05-03T08:18:35Z</time></trkpt><trkpt lat="43.15882767940049" lon="10.616006258198912"><ele>167.66666666666666</ele><time>2026-05-03T08:18:36Z</time></trkpt><trkpt lat="43.15874742559892" lon="10.615992027754276"><ele>167.33333333333331</ele><time>2026-05-03T08:18:37Z</time></trkpt><trkpt lat="43.15867993322868" lon="10.615971527765529"><ele>167.0</ele><time>2026-05-03T08:18:38Z</time></trkpt><trkpt lat="43.15858677337009" lon="10.615964629144848"><ele>167.0</ele><time>2026-05-03T08:18:39Z</time></trkpt><trkpt lat="43.15849553319656" lon="10.615963753685689"><ele>167.0</ele><time>2026-05-03T08:18:40Z</time></trkpt><trkpt lat="43.15840211238899" lon="10.61597190231706"><ele>167.0</ele><time>2026-05-03T08:18:41Z</time></trkpt><trkpt lat="43.15831418894205" lon="10.616004527605993"><ele>167.0</ele><time>2026-05-03T08:18:42Z</time></trkpt><trkpt lat="43.158230976433316" lon="10.616050105780326"><ele>167.0</ele><time>2026-05-03T08:18:43Z</time></trkpt><trkpt lat="43.158151733462496" lon="10.616091581597601"><ele>168.0</ele><time>2026-05-03T08:18:44Z</time></trkpt><trkpt lat="43.15809105323767" lon="10.616128391663718"><ele>169.0</ele><time>2026-05-03T08:18:45Z</time></trkpt><trkpt lat="43.158028900995696" lon="10.616183793637836"><ele>170.0</ele><time>2026-05-03T08:18:46Z</time></trkpt><trkpt lat="43.157967207962535" lon="10.616256957712412"><ele>171.0</ele><time>2026-05-03T08:18:47Z</time></trkpt><trkpt lat="43.157913034824155" lon="10.61633140347067"><ele>172.0</ele><time>2026-05-03T08:18:48Z</time></trkpt><trkpt lat="43.15785002637695" lon="10.616418310084233"><ele>173.0</ele><time>2026-05-03T08:18:49Z</time></trkpt><trkpt lat="43.157787697609805" lon="10.616498331031089"><ele>173.0</ele><time>2026-05-03T08:18:50Z</time></trkpt><trkpt lat="43.15773420789573" lon="10.61656569604777"><ele>173.0</ele><time>2026-05-03T08:18:51Z</time></trkpt><trkpt lat="43.157680871207155" lon="10.616612789821588"><ele>173.0</ele><time>2026-05-03T08:18:52Z</time></trkpt><trkpt lat="43.157613925143494" lon="10.61664669361247"><ele>173.0</ele><time>2026-05-03T08:18:53Z</time></trkpt><trkpt lat="43.15754419571577" lon="10.616679032982978"><ele>173.0</ele><time>2026-05-03T08:18:54Z</time></trkpt><trkpt lat="43.157465617235864" lon="10.616715225020407"><ele>173.0</ele><time>2026-05-03T08:18:55Z</time></trkpt><trkpt lat="43.157381547231154" lon="10.616762637936974"><ele>172.5</ele><time>2026-05-03T08:18:56Z</time></trkpt><trkpt lat="43.15729607039254" lon="10.616816753857623"><ele>172.0</ele><time>2026-05-03T08:18:57Z</time></trkpt><trkpt lat="43.157225345118114" lon="10.61688689449637"><ele>171.5</ele><time>2026-05-03T08:18:58Z</time></trkpt><trkpt lat="43.15715888954637" lon="10.616936333785983"><ele>171.0</ele><time>2026-05-03T08:18:59Z</time></trkpt><trkpt lat="43.15708511208542" lon="10.617008539513096"><ele>170.5</ele><time>2026-05-03T08:19:00Z</time></trkpt><trkpt lat="43.15701581721976" lon="10.617091211331603"><ele>170.0</ele><time>2026-05-03T08:19:01Z</time></trkpt><trkpt lat="43.15695636531716" lon="10.617178109472684"><ele>173.0</ele><time>2026-05-03T08:19:02Z</time></trkpt><trkpt lat="43.15690266047564" lon="10.617270326646219"><ele>176.0</ele><time>2026-05-03T08:19:03Z</time></trkpt><trkpt lat="43.15685367571032" lon="10.61736655255155"><ele>179.0</ele><time>2026-05-03T08:19:04Z</time></trkpt><trkpt lat="43.15680868254397" lon="10.61747506832569"><ele>182.0</ele><time>2026-05-03T08:19:05Z</time></trkpt><trkpt lat="43.15674804589776" lon="10.61758392626333"><ele>185.0</ele><time>2026-05-03T08:19:06Z</time></trkpt><trkpt lat="43.15671171267336" lon="10.617667645852944"><ele>188.0</ele><time>2026-05-03T08:19:07Z</time></trkpt><trkpt lat="43.156677953760195" lon="10.617747842662752"><ele>191.16666666666666</ele><time>2026-05-03T08:19:08Z</time></trkpt><trkpt lat="43.15663530464021" lon="10.61781881237035"><ele>194.33333333333331</ele><time>2026-05-03T08:19:09Z</time></trkpt><trkpt lat="43.156555320983514" lon="10.617879502027346"><ele>197.5</ele><time>2026-05-03T08:19:11Z</time></trkpt><trkpt lat="43.15645462920137" lon="10.617789988505509"><ele>200.66666666666666</ele><time>2026-05-03T08:19:13Z</time></trkpt><trkpt lat="43.15643843347287" lon="10.617690615367517"><ele>203.83333333333334</ele><time>2026-05-03T08:19:14Z</time></trkpt><trkpt lat="43.15640295384584" lon="10.617595765072474"><ele>207.0</ele><time>2026-05-03T08:19:15Z</time></trkpt><trkpt lat="43.15631881855719" lon="10.617393596789649"><ele>207.0</ele><time>2026-05-03T08:19:17Z</time></trkpt><trkpt lat="43.15626596723071" lon="10.617286936438271"><ele>207.0</ele><time>2026-05-03T08:19:18Z</time></trkpt><trkpt lat="43.15620137517314" lon="10.617184112755304"><ele>207.0</ele><time>2026-05-03T08:19:19Z</time></trkpt><trkpt lat="43.15613944649518" lon="10.617097359318121"><ele>207.0</ele><time>2026-05-03T08:19:20Z</time></trkpt><trkpt lat="43.156077826967156" lon="10.617012855553941"><ele>207.0</ele><time>2026-05-03T08:19:21Z</time></trkpt><trkpt lat="43.15601104146052" lon="10.616923158393416"><ele>204.5</ele><time>2026-05-03T08:19:22Z</time></trkpt><trkpt lat="43.1559441980954" lon="10.616846469868218"><ele>202.0</ele><time>2026-05-03T08:19:23Z</time></trkpt><trkpt lat="43.15586589832419" lon="10.616791086060553"><ele>199.5</ele><time>2026-05-03T08:19:24Z</time></trkpt><trkpt lat="43.1557933709935" lon="10.616774148133567"><ele>197.0</ele><time>2026-05-03T08:19:25Z</time></trkpt><trkpt lat="43.15572489630319" lon="10.616788094366965"><ele>194.5</ele><time>2026-05-03T08:19:26Z</time></trkpt><trkpt lat="43.15565774326591" lon="10.61680752847547"><ele>192.0</ele><time>2026-05-03T08:19:27Z</time></trkpt><trkpt lat="43.155559607296006" lon="10.616855383554508"><ele>190.16666666666666</ele><time>2026-05-03T08:19:28Z</time></trkpt><trkpt lat="43.15549372305483" lon="10.616936939964486"><ele>188.33333333333334</ele><time>2026-05-03T08:19:29Z</time></trkpt><trkpt lat="43.15544630314878" lon="10.617019223616094"><ele>186.5</ele><time>2026-05-03T08:19:30Z</time></trkpt><trkpt lat="43.155397054278964" lon="10.617103513353452"><ele>184.66666666666669</ele><time>2026-05-03T08:19:31Z</time></trkpt><trkpt lat="43.155341302834955" lon="10.61719419092481"><ele>182.83333333333334</ele><time>2026-05-03T08:19:32Z</time></trkpt><trkpt lat="43.15528279355692" lon="10.617279321202581"><ele>181.0</ele><time>2026-05-03T08:19:33Z</time></trkpt><trkpt lat="43.15522064122539" lon="10.617365690410383"><ele>185.4</ele><time>2026-05-03T08:19:34Z</time></trkpt><trkpt lat="43.1551544503095" lon="10.61746177969111"><ele>189.8</ele><time>2026-05-03T08:19:35Z</time></trkpt><trkpt lat="43.15509872324098" lon="10.617562862809475"><ele>194.20000000000002</ele><time>2026-05-03T08:19:36Z</time></trkpt><trkpt lat="43.15504735766741" lon="10.61768540104236"><ele>198.60000000000002</ele><time>2026-05-03T08:19:37Z</time></trkpt><trkpt lat="43.15500386006581" lon="10.617795189067799"><ele>203.0</ele><time>2026-05-03T08:19:38Z</time></trkpt><trkpt lat="43.15497361443533" lon="10.617892965976747"><ele>204.00000000000003</ele><time>2026-05-03T08:19:39Z</time></trkpt><trkpt lat="43.1549051240376" lon="10.617979053335835"><ele>205.0</ele><time>2026-05-03T08:19:40Z</time></trkpt><trkpt lat="43.15483046091331" lon="10.618042472071705"><ele>206.0</ele><time>2026-05-03T08:19:41Z</time></trkpt><trkpt lat="43.15477214688764" lon="10.618098544965576"><ele>207.0</ele><time>2026-05-03T08:19:42Z</time></trkpt><trkpt lat="43.1546886270555" lon="10.618143854198177"><ele>208.00000000000003</ele><time>2026-05-03T08:19:43Z</time></trkpt><trkpt lat="43.15461128272912" lon="10.618157192579968"><ele>209.0</ele><time>2026-05-03T08:19:44Z</time></trkpt><trkpt lat="43.15452328173108" lon="10.618141455982633"><ele>209.0</ele><time>2026-05-03T08:19:45Z</time></trkpt><trkpt lat="43.154433569579005" lon="10.618107416661633"><ele>209.0</ele><time>2026-05-03T08:19:46Z</time></trkpt><trkpt lat="43.154365135653066" lon="10.61809567538715"><ele>209.0</ele><time>2026-05-03T08:19:47Z</time></trkpt><trkpt lat="43.15428402393223" lon="10.618059472801177"><ele>209.0</ele><time>2026-05-03T08:19:48Z</time></trkpt><trkpt lat="43.154191222365" lon="10.6181131916229"><ele>209.0</ele><time>2026-05-03T08:19:49Z</time></trkpt><trkpt lat="43.15405622957996" lon="10.618255104667295"><ele>205.83333333333334</ele><time>2026-05-03T08:19:51Z</time></trkpt><trkpt lat="43.15403391474185" lon="10.618365343690343"><ele>202.66666666666669</ele><time>2026-05-03T08:19:52Z</time></trkpt><trkpt lat="43.154022853188806" lon="10.618453296867964"><ele>199.5</ele><time>2026-05-03T08:19:53Z</time></trkpt><trkpt lat="43.15401358004909" lon="10.618572346135299"><ele>196.33333333333334</ele><time>2026-05-03T08:19:54Z</time></trkpt><trkpt lat="43.15401149667482" lon="10.61866876564731"><ele>193.16666666666669</ele><time>2026-05-03T08:19:55Z</time></trkpt><trkpt lat="43.15402625497394" lon="10.618781892658756"><ele>190.0</ele><time>2026-05-03T08:19:56Z</time></trkpt><trkpt lat="43.15403069088146" lon="10.61888255335354"><ele>189.5</ele><time>2026-05-03T08:19:57Z</time></trkpt><trkpt lat="43.1540336518521" lon="10.618980929513137"><ele>189.0</ele><time>2026-05-03T08:19:58Z</time></trkpt><trkpt lat="43.15404052072037" lon="10.619101674250325"><ele>188.5</ele><time>2026-05-03T08:19:59Z</time></trkpt><trkpt lat="43.15403633106757" lon="10.619229379448928"><ele>188.0</ele><time>2026-05-03T08:20:00Z</time></trkpt><trkpt lat="43.15403501762584" lon="10.619360223625403"><ele>187.5</ele><time>2026-05-03T08:20:01Z</time></trkpt><trkpt lat="43.154028068951774" lon="10.619496690089193"><ele>187.0</ele><time>2026-05-03T08:20:02Z</time></trkpt><trkpt lat="43.15401156869694" lon="10.619645310260372"><ele>188.66666666666669</ele><time>2026-05-03T08:20:03Z</time></trkpt><trkpt lat="43.15399330891754" lon="10.61978420455555"><ele>190.33333333333334</ele><time>2026-05-03T08:20:04Z</time></trkpt><trkpt lat="43.153976576084084" lon="10.619905556098713"><ele>192.0</ele><time>2026-05-03T08:20:05Z</time></trkpt><trkpt lat="43.1539679672971" lon="10.620008915654426"><ele>193.66666666666669</ele><time>2026-05-03T08:20:06Z</time></trkpt><trkpt lat="43.153956722984915" lon="10.62010465780332"><ele>195.33333333333334</ele><time>2026-05-03T08:20:07Z</time></trkpt><trkpt lat="43.153942121510376" lon="10.62020886970414"><ele>197.0</ele><time>2026-05-03T08:20:08Z</time></trkpt><trkpt lat="43.15393375263734" lon="10.620305737165534"><ele>200.66666666666669</ele><time>2026-05-03T08:20:09Z</time></trkpt><trkpt lat="43.15394860744402" lon="10.620421983470488"><ele>204.33333333333334</ele><time>2026-05-03T08:20:10Z</time></trkpt><trkpt lat="43.15396745378378" lon="10.620533533677296"><ele>208.0</ele><time>2026-05-03T08:20:11Z</time></trkpt><trkpt lat="43.15398469656869" lon="10.620627349985865"><ele>211.66666666666669</ele><time>2026-05-03T08:20:12Z</time></trkpt><trkpt lat="43.15399093409404" lon="10.62072153071219"><ele>215.33333333333334</ele><time>2026-05-03T08:20:13Z</time></trkpt><trkpt lat="43.15395904117079" lon="10.62082528644551"><ele>219.0</ele><time>2026-05-03T08:20:14Z</time></trkpt><trkpt lat="43.15395060805241" lon="10.620956888957414"><ele>219.0</ele><time>2026-05-03T08:20:15Z</time></trkpt><trkpt lat="43.15393225962529" lon="10.621086165265643"><ele>218.99999999999997</ele><time>2026-05-03T08:20:16Z</time></trkpt><trkpt lat="43.15389823404856" lon="10.621198651128296"><ele>218.99999999999997</ele><time>2026-05-03T08:20:17Z</time></trkpt><trkpt lat="43.153890792935734" lon="10.621299243867739"><ele>219.0</ele><time>2026-05-03T08:20:18Z</time></trkpt><trkpt lat="43.15386567716264" lon="10.621432933689373"><ele>219.0</ele><time>2026-05-03T08:20:20Z</time></trkpt><trkpt lat="43.15377350566223" lon="10.621403955624087"><ele>219.0</ele><time>2026-05-03T08:20:22Z</time></trkpt><trkpt lat="43.15370117094062" lon="10.621301405890444"><ele>218.99999999999997</ele><time>2026-05-03T08:20:24Z</time></trkpt><trkpt lat="43.15365575176495" lon="10.621205787492741"><ele>218.99999999999997</ele><time>2026-05-03T08:20:25Z</time></trkpt><trkpt lat="43.153591059860496" lon="10.621121961378348"><ele>219.0</ele><time>2026-05-03T08:20:26Z</time></trkpt><trkpt lat="43.15354434870915" lon="10.621015219538966"><ele>219.0</ele><time>2026-05-03T08:20:27Z</time></trkpt><trkpt lat="43.15348090583014" lon="10.620923258552951"><ele>219.0</ele><time>2026-05-03T08:20:28Z</time></trkpt><trkpt lat="43.1534132725696" lon="10.62083777784142"><ele>218.99999999999997</ele><time>2026-05-03T08:20:29Z</time></trkpt><trkpt lat="43.15332378899652" lon="10.620761596103383"><ele>218.99999999999997</ele><time>2026-05-03T08:20:30Z</time></trkpt><trkpt lat="43.15323635704878" lon="10.620715250805853"><ele>219.0</ele><time>2026-05-03T08:20:31Z</time></trkpt><trkpt lat="43.15314478165334" lon="10.620681982740336"><ele>219.0</ele><time>2026-05-03T08:20:32Z</time></trkpt><trkpt lat="43.15304512610642" lon="10.620657612810858"><ele>218.33333333333334</ele><time>2026-05-03T08:20:33Z</time></trkpt><trkpt lat="43.152947478311226" lon="10.620636831177958"><ele>217.66666666666669</ele><time>2026-05-03T08:20:34Z</time></trkpt><trkpt lat="43.15286278839016" lon="10.620621008670492"><ele>217.0</ele><time>2026-05-03T08:20:35Z</time></trkpt><trkpt lat="43.152783125328355" lon="10.620598613963717"><ele>216.33333333333334</ele><time>2026-05-03T08:20:36Z</time></trkpt><trkpt lat="43.15270576661322" lon="10.620579304915049"><ele>215.66666666666669</ele><time>2026-05-03T08:20:37Z</time></trkpt><trkpt lat="43.15264015722636" lon="10.620549792591852"><ele>215.0</ele><time>2026-05-03T08:20:38Z</time></trkpt><trkpt lat="43.15258224228208" lon="10.620609288957757"><ele>215.0</ele><time>2026-05-03T08:20:39Z</time></trkpt><trkpt lat="43.15251813354444" lon="10.620666778215542"><ele>215.0</ele><time>2026-05-03T08:20:40Z</time></trkpt><trkpt lat="43.152449332060975" lon="10.620761473262641"><ele>215.0</ele><time>2026-05-03T08:20:41Z</time></trkpt><trkpt lat="43.15240098009168" lon="10.620862783177845"><ele>215.0</ele><time>2026-05-03T08:20:42Z</time></trkpt><trkpt lat="43.15235193702519" lon="10.620992441898897"><ele>215.0</ele><time>2026-05-03T08:20:43Z</time></trkpt><trkpt lat="43.15230589745875" lon="10.621135271728114"><ele>217.5</ele><time>2026-05-03T08:20:44Z</time></trkpt><trkpt lat="43.152255705666036" lon="10.621270087460108"><ele>220.0</ele><time>2026-05-03T08:20:45Z</time></trkpt><trkpt lat="43.15220099706515" lon="10.621419928033154"><ele>222.5</ele><time>2026-05-03T08:20:46Z</time></trkpt><trkpt lat="43.15214161327568" lon="10.621562309668906"><ele>225.0</ele><time>2026-05-03T08:20:47Z</time></trkpt><trkpt lat="43.15208015805297" lon="10.621685172235388"><ele>225.0</ele><time>2026-05-03T08:20:48Z</time></trkpt><trkpt lat="43.15202266369541" lon="10.621802167417878"><ele>225.0</ele><time>2026-05-03T08:20:49Z</time></trkpt><trkpt lat="43.15198094315753" lon="10.621927327647539"><ele>225.0</ele><time>2026-05-03T08:20:50Z</time></trkpt><trkpt lat="43.15195117706739" lon="10.622058943162557"><ele>225.0</ele><time>2026-05-03T08:20:51Z</time></trkpt><trkpt lat="43.15193618804752" lon="10.62215237684585"><ele>225.0</ele><time>2026-05-03T08:20:52Z</time></trkpt><trkpt lat="43.15189833207119" lon="10.622222506253793"><ele>225.0</ele><time>2026-05-03T08:20:53Z</time></trkpt><trkpt lat="43.151833099182824" lon="10.62229828183899"><ele>225.0</ele><time>2026-05-03T08:20:55Z</time></trkpt><trkpt lat="43.151744649033745" lon="10.622212236399086"><ele>225.0</ele><time>2026-05-03T08:20:57Z</time></trkpt><trkpt lat="43.15171750554169" lon="10.622064875588078"><ele>225.0</ele><time>2026-05-03T08:20:58Z</time></trkpt><trkpt lat="43.15170099439499" lon="10.621914439921307"><ele>225.0</ele><time>2026-05-03T08:20:59Z</time></trkpt><trkpt lat="43.1516984980339" lon="10.62174765939716"><ele>225.0</ele><time>2026-05-03T08:21:00Z</time></trkpt><trkpt lat="43.15170527506306" lon="10.621592687929247"><ele>225.0</ele><time>2026-05-03T08:21:01Z</time></trkpt><trkpt lat="43.151695824704525" lon="10.621469411371775"><ele>225.0</ele><time>2026-05-03T08:21:02Z</time></trkpt><trkpt lat="43.15168003073438" lon="10.621357053033092"><ele>225.0</ele><time>2026-05-03T08:21:03Z</time></trkpt><trkpt lat="43.15162784283666" lon="10.621262042028455"><ele>225.0</ele><time>2026-05-03T08:21:04Z</time></trkpt><trkpt lat="43.151563148846485" lon="10.621186668818657"><ele>220.2</ele><time>2026-05-03T08:21:05Z</time></trkpt><trkpt lat="43.151478390924616" lon="10.6211234938818"><ele>215.4</ele><time>2026-05-03T08:21:06Z</time></trkpt><trkpt lat="43.151364765355346" lon="10.621088133465191"><ele>210.60000000000002</ele><time>2026-05-03T08:21:07Z</time></trkpt><trkpt lat="43.15128320147121" lon="10.621064078044506"><ele>205.8</ele><time>2026-05-03T08:21:08Z</time></trkpt><trkpt lat="43.15120739603561" lon="10.621068311301718"><ele>201.0</ele><time>2026-05-03T08:21:09Z</time></trkpt><trkpt lat="43.15112320815012" lon="10.621085316158993"><ele>201.0</ele><time>2026-05-03T08:21:10Z</time></trkpt><trkpt lat="43.15105027097151" lon="10.621132503868935"><ele>201.0</ele><time>2026-05-03T08:21:11Z</time></trkpt><trkpt lat="43.15098501103522" lon="10.621189139678002"><ele>201.0</ele><time>2026-05-03T08:21:12Z</time></trkpt><trkpt lat="43.1509382480243" lon="10.621258892419696"><ele>201.0</ele><time>2026-05-03T08:21:13Z</time></trkpt><trkpt lat="43.150882810758915" lon="10.621342025057848"><ele>201.0</ele><time>2026-05-03T08:21:14Z</time></trkpt><trkpt lat="43.15084910697127" lon="10.621423363341208"><ele>201.0</ele><time>2026-05-03T08:21:15Z</time></trkpt><trkpt lat="43.15082349754881" lon="10.621520983918602"><ele>201.83333333333334</ele><time>2026-05-03T08:21:16Z</time></trkpt><trkpt lat="43.15079143003549" lon="10.621596568014606"><ele>202.66666666666669</ele><time>2026-05-03T08:21:17Z</time></trkpt><trkpt lat="43.15074945122511" lon="10.621692675222233"><ele>203.5</ele><time>2026-05-03T08:21:18Z</time></trkpt><trkpt lat="43.15069964208492" lon="10.621783197461669"><ele>204.33333333333334</ele><time>2026-05-03T08:21:19Z</time></trkpt><trkpt lat="43.15064590505925" lon="10.621848095676636"><ele>205.16666666666669</ele><time>2026-05-03T08:21:20Z</time></trkpt><trkpt lat="43.15058507974949" lon="10.621903506302733"><ele>206.0</ele><time>2026-05-03T08:21:21Z</time></trkpt><trkpt lat="43.15050578129744" lon="10.621964285185065"><ele>206.00000000000003</ele><time>2026-05-03T08:21:22Z</time></trkpt><trkpt lat="43.15042527602411" lon="10.622014592134192"><ele>206.0</ele><time>2026-05-03T08:21:23Z</time></trkpt><trkpt lat="43.15034942038374" lon="10.622031513542344"><ele>206.0</ele><time>2026-05-03T08:21:24Z</time></trkpt><trkpt lat="43.15025589903342" lon="10.622054538710898"><ele>206.0</ele><time>2026-05-03T08:21:25Z</time></trkpt><trkpt lat="43.15018685619626" lon="10.622039617190186"><ele>206.00000000000003</ele><time>2026-05-03T08:21:26Z</time></trkpt><trkpt lat="43.15011005436203" lon="10.622030398539652"><ele>206.0</ele><time>2026-05-03T08:21:27Z</time></trkpt><trkpt lat="43.15004410673648" lon="10.621980105357059"><ele>206.00000000000003</ele><time>2026-05-03T08:21:28Z</time></trkpt><trkpt lat="43.149979609243864" lon="10.621964523477262"><ele>206.0</ele><time>2026-05-03T08:21:29Z</time></trkpt><trkpt lat="43.149857067625234" lon="10.622004755806694"><ele>206.0</ele><time>2026-05-03T08:21:31Z</time></trkpt><trkpt lat="43.149818549982584" lon="10.622113627861294"><ele>206.0</ele><time>2026-05-03T08:21:32Z</time></trkpt><trkpt lat="43.149786796289625" lon="10.622192768798254"><ele>206.00000000000003</ele><time>2026-05-03T08:21:33Z</time></trkpt><trkpt lat="43.149746008547716" lon="10.622299572502309"><ele>206.0</ele><time>2026-05-03T08:21:34Z</time></trkpt><trkpt lat="43.149705799810484" lon="10.622407891948846"><ele>204.50000000000003</ele><time>2026-05-03T08:21:35Z</time></trkpt><trkpt lat="43.14968596716172" lon="10.622512750504859"><ele>203.0</ele><time>2026-05-03T08:21:36Z</time></trkpt><trkpt lat="43.149640389842254" lon="10.622588080730006"><ele>201.5</ele><time>2026-05-03T08:21:37Z</time></trkpt><trkpt lat="43.149587381980766" lon="10.622684009354249"><ele>200.0</ele><time>2026-05-03T08:21:38Z</time></trkpt><trkpt lat="43.149568486790095" lon="10.622784038936924"><ele>198.50000000000003</ele><time>2026-05-03T08:21:39Z</time></trkpt><trkpt lat="43.14956175282518" lon="10.62288859977313"><ele>197.0</ele><time>2026-05-03T08:21:40Z</time></trkpt><trkpt lat="43.14957047660425" lon="10.623014534700676"><ele>201.2</ele><time>2026-05-03T08:21:41Z</time></trkpt><trkpt lat="43.14957726338353" lon="10.62317478874041"><ele>205.39999999999998</ele><time>2026-05-03T08:21:43Z</time></trkpt><trkpt lat="43.14953691659105" lon="10.623309254215494"><ele>209.60000000000002</ele><time>2026-05-03T08:21:45Z</time></trkpt><trkpt lat="43.14945512565914" lon="10.6233269320134"><ele>213.8</ele><time>2026-05-03T08:21:46Z</time></trkpt><trkpt lat="43.14935855869609" lon="10.623350241479528"><ele>218.0</ele><time>2026-05-03T08:21:47Z</time></trkpt><trkpt lat="43.149238752586506" lon="10.623400118039392"><ele>218.0</ele><time>2026-05-03T08:21:48Z</time></trkpt><trkpt lat="43.149116898796215" lon="10.623431663364762"><ele>218.0</ele><time>2026-05-03T08:21:49Z</time></trkpt><trkpt lat="43.1490041034494" lon="10.623466654027505"><ele>218.0</ele><time>2026-05-03T08:21:50Z</time></trkpt><trkpt lat="43.148885577952925" lon="10.623513704592057"><ele>218.0</ele><time>2026-05-03T08:21:51Z</time></trkpt><trkpt lat="43.14876956453623" lon="10.623568299847335"><ele>218.8</ele><time>2026-05-03T08:21:52Z</time></trkpt><trkpt lat="43.14867639311968" lon="10.623629214487616"><ele>219.60000000000002</ele><time>2026-05-03T08:21:53Z</time></trkpt><trkpt lat="43.14861526914415" lon="10.62369313129814"><ele>220.39999999999998</ele><time>2026-05-03T08:21:54Z</time></trkpt><trkpt lat="43.148553301581245" lon="10.623794014306252"><ele>221.2</ele><time>2026-05-03T08:21:55Z</time></trkpt><trkpt lat="43.14847012509581" lon="10.623901400990805"><ele>222.0</ele><time>2026-05-03T08:21:56Z</time></trkpt><trkpt lat="43.14840319518595" lon="10.624019924588215"><ele>222.0</ele><time>2026-05-03T08:21:57Z</time></trkpt><trkpt lat="43.14830679993958" lon="10.624094719730893"><ele>222.0</ele><time>2026-05-03T08:21:58Z</time></trkpt><trkpt lat="43.148235329170475" lon="10.624172737097524"><ele>222.0</ele><time>2026-05-03T08:21:59Z</time></trkpt><trkpt lat="43.148175755377856" lon="10.624242190619869"><ele>222.0</ele><time>2026-05-03T08:22:00Z</time></trkpt><trkpt lat="43.14813036724276" lon="10.62432581922735"><ele>222.0</ele><time>2026-05-03T08:22:01Z</time></trkpt><trkpt lat="43.14810971383822" lon="10.624421820945024"><ele>222.0</ele><time>2026-05-03T08:22:02Z</time></trkpt><trkpt lat="43.14809228462503" lon="10.624551604868417"><ele>221.39999999999998</ele><time>2026-05-03T08:22:03Z</time></trkpt><trkpt lat="43.14808905434242" lon="10.624680994539114"><ele>220.79999999999998</ele><time>2026-05-03T08:22:04Z</time></trkpt><trkpt lat="43.14810274525196" lon="10.624803318576838"><ele>220.2</ele><time>2026-05-03T08:22:05Z</time></trkpt><trkpt lat="43.14812677064713" lon="10.624909406931097"><ele>219.6</ele><time>2026-05-03T08:22:06Z</time></trkpt><trkpt lat="43.148158241977235" lon="10.625025397114321"><ele>219.0</ele><time>2026-05-03T08:22:07Z</time></trkpt><trkpt lat="43.14823564986804" lon="10.625151062006976"><ele>221.79999999999998</ele><time>2026-05-03T08:22:08Z</time></trkpt><trkpt lat="43.1483443098414" lon="10.62525248368263"><ele>224.59999999999997</ele><time>2026-05-03T08:22:09Z</time></trkpt><trkpt lat="43.1483815212275" lon="10.625343897092344"><ele>227.4</ele><time>2026-05-03T08:22:10Z</time></trkpt><trkpt lat="43.148446836199625" lon="10.625495213111067"><ele>230.2</ele><time>2026-05-03T08:22:11Z</time></trkpt><trkpt lat="43.14846819217069" lon="10.625586699080452"><ele>233.0</ele><time>2026-05-03T08:22:12Z</time></trkpt><trkpt lat="43.148448254170845" lon="10.625714764337136"><ele>233.5</ele><time>2026-05-03T08:22:14Z</time></trkpt><trkpt lat="43.14833864298617" lon="10.625809659416038"><ele>234.0</ele><time>2026-05-03T08:22:16Z</time></trkpt><trkpt lat="43.14822795528505" lon="10.625765660609995"><ele>234.5</ele><time>2026-05-03T08:22:17Z</time></trkpt><trkpt lat="43.14811500746997" lon="10.625688947609612"><ele>235.0</ele><time>2026-05-03T08:22:18Z</time></trkpt><trkpt lat="43.148008131877404" lon="10.625636892946806"><ele>235.0</ele><time>2026-05-03T08:22:19Z</time></trkpt><trkpt lat="43.14794441333047" lon="10.625626056087528"><ele>235.0</ele><time>2026-05-03T08:22:20Z</time></trkpt><trkpt lat="43.147834959608176" lon="10.625655459048954"><ele>235.0</ele><time>2026-05-03T08:22:21Z</time></trkpt><trkpt lat="43.14774549517636" lon="10.625715409969503"><ele>235.0</ele><time>2026-05-03T08:22:22Z</time></trkpt><trkpt lat="43.147650011639286" lon="10.625819936724167"><ele>235.0</ele><time>2026-05-03T08:22:23Z</time></trkpt><trkpt lat="43.1475718750158" lon="10.625904585931744"><ele>235.0</ele><time>2026-05-03T08:22:24Z</time></trkpt><trkpt lat="43.1474657233315" lon="10.625871932198041"><ele>235.0</ele><time>2026-05-03T08:22:26Z</time></trkpt><trkpt lat="43.14736893059161" lon="10.625861249648704"><ele>235.0</ele><time>2026-05-03T08:22:27Z</time></trkpt><trkpt lat="43.147256449239684" lon="10.625797585508892"><ele>235.0</ele><time>2026-05-03T08:22:28Z</time></trkpt><trkpt lat="43.14713272296534" lon="10.625771342631639"><ele>236.75</ele><time>2026-05-03T08:22:29Z</time></trkpt><trkpt lat="43.14702346367225" lon="10.625695682529466"><ele>238.5</ele><time>2026-05-03T08:22:30Z</time></trkpt><trkpt lat="43.146914232049404" lon="10.625603710993898"><ele>240.25</ele><time>2026-05-03T08:22:31Z</time></trkpt><trkpt lat="43.146825656977846" lon="10.625528542810976"><ele>242.0</ele><time>2026-05-03T08:22:32Z</time></trkpt><trkpt lat="43.146741831608985" lon="10.625460842417914"><ele>242.00000000000003</ele><time>2026-05-03T08:22:33Z</time></trkpt><trkpt lat="43.14667118538743" lon="10.625404195355427"><ele>242.0</ele><time>2026-05-03T08:22:34Z</time></trkpt><trkpt lat="43.14660090623901" lon="10.625392291338102"><ele>242.0</ele><time>2026-05-03T08:22:35Z</time></trkpt><trkpt lat="43.146483474063196" lon="10.625428989588078"><ele>242.0</ele><time>2026-05-03T08:22:37Z</time></trkpt><trkpt lat="43.14644998200996" lon="10.62553347281308"><ele>242.00000000000003</ele><time>2026-05-03T08:22:38Z</time></trkpt><trkpt lat="43.14643282672708" lon="10.625629291224053"><ele>242.0</ele><time>2026-05-03T08:22:39Z</time></trkpt><trkpt lat="43.14642806095255" lon="10.625734737753175"><ele>243.75</ele><time>2026-05-03T08:22:40Z</time></trkpt><trkpt lat="43.146448590783635" lon="10.625858428099317"><ele>245.5</ele><time>2026-05-03T08:22:41Z</time></trkpt><trkpt lat="43.14647423356694" lon="10.626018113224418"><ele>247.25</ele><time>2026-05-03T08:22:42Z</time></trkpt><trkpt lat="43.14649066104487" lon="10.62619778955853"><ele>249.0</ele><time>2026-05-03T08:22:43Z</time></trkpt><trkpt lat="43.14645839964199" lon="10.626378062069506"><ele>249.0</ele><time>2026-05-03T08:22:44Z</time></trkpt><trkpt lat="43.146449788759874" lon="10.62655450376267"><ele>248.99999999999997</ele><time>2026-05-03T08:22:45Z</time></trkpt><trkpt lat="43.146466098802726" lon="10.626720817826692"><ele>248.99999999999997</ele><time>2026-05-03T08:22:46Z</time></trkpt><trkpt lat="43.14643683219177" lon="10.626848397009706"><ele>249.0</ele><time>2026-05-03T08:22:47Z</time></trkpt><trkpt lat="43.146400187667666" lon="10.626946329817336"><ele>249.0</ele><time>2026-05-03T08:22:48Z</time></trkpt><trkpt lat="43.14633320440361" lon="10.627037641101563"><ele>249.0</ele><time>2026-05-03T08:22:50Z</time></trkpt><trkpt lat="43.146268340973535" lon="10.626992986194455"><ele>248.99999999999997</ele><time>2026-05-03T08:22:51Z</time></trkpt><trkpt lat="43.14619171868189" lon="10.626919608059955"><ele>248.99999999999997</ele><time>2026-05-03T08:22:52Z</time></trkpt><trkpt lat="43.14609725662322" lon="10.626909743843196"><ele>249.0</ele><time>2026-05-03T08:22:53Z</time></trkpt><trkpt lat="43.14593165971483" lon="10.626847322352374"><ele>249.0</ele><time>2026-05-03T08:22:54Z</time></trkpt><trkpt lat="43.14579512513806" lon="10.626811016236232"><ele>249.0</ele><time>2026-05-03T08:22:55Z</time></trkpt><trkpt lat="43.14571204537457" lon="10.626788735477893"><ele>248.99999999999997</ele><time>2026-05-03T08:22:56Z</time></trkpt><trkpt lat="43.14564710856365" lon="10.62676208245973"><ele>249.0</ele><time>2026-05-03T08:22:57Z</time></trkpt><trkpt lat="43.14557966354906" lon="10.6267836361195"><ele>249.0</ele><time>2026-05-03T08:22:58Z</time></trkpt><trkpt lat="43.14551794740024" lon="10.626865288000394"><ele>248.99999999999997</ele><time>2026-05-03T08:22:59Z</time></trkpt><trkpt lat="43.145468545739554" lon="10.626922041431543"><ele>249.0</ele><time>2026-05-03T08:23:00Z</time></trkpt><trkpt lat="43.14543218464398" lon="10.626994351137549"><ele>249.0</ele><time>2026-05-03T08:23:01Z</time></trkpt><trkpt lat="43.14537449787815" lon="10.627077555506588"><ele>252.2</ele><time>2026-05-03T08:23:03Z</time></trkpt><trkpt lat="43.14529381498328" lon="10.62700933004926"><ele>255.39999999999998</ele><time>2026-05-03T08:23:05Z</time></trkpt><trkpt lat="43.145274308885135" lon="10.626903448242619"><ele>258.6</ele><time>2026-05-03T08:23:06Z</time></trkpt><trkpt lat="43.14526008208172" lon="10.626767528233017"><ele>261.8</ele><time>2026-05-03T08:23:07Z</time></trkpt><trkpt lat="43.14528369523925" lon="10.626621972135093"><ele>265.0</ele><time>2026-05-03T08:23:08Z</time></trkpt><trkpt lat="43.14532393129085" lon="10.626502946696478"><ele>265.0</ele><time>2026-05-03T08:23:09Z</time></trkpt><trkpt lat="43.145350670177294" lon="10.626347047581522"><ele>265.0</ele><time>2026-05-03T08:23:11Z</time></trkpt><trkpt lat="43.14533649367899" lon="10.62616933414753"><ele>265.0</ele><time>2026-05-03T08:23:13Z</time></trkpt><trkpt lat="43.14529149194027" lon="10.626037807630581"><ele>265.0</ele><time>2026-05-03T08:23:14Z</time></trkpt><trkpt lat="43.14521949708331" lon="10.625908663414323"><ele>262.8333333333333</ele><time>2026-05-03T08:23:15Z</time></trkpt><trkpt lat="43.14516187758829" lon="10.625815497924705"><ele>260.66666666666663</ele><time>2026-05-03T08:23:16Z</time></trkpt><trkpt lat="43.14510501678991" lon="10.625741965916522"><ele>258.5</ele><time>2026-05-03T08:23:17Z</time></trkpt><trkpt lat="43.145046861239436" lon="10.62568427704834"><ele>256.3333333333333</ele><time>2026-05-03T08:23:18Z</time></trkpt><trkpt lat="43.144987929236315" lon="10.625642026849091"><ele>254.16666666666666</ele><time>2026-05-03T08:23:19Z</time></trkpt><trkpt lat="43.14488104492013" lon="10.625673326026392"><ele>252.0</ele><time>2026-05-03T08:23:21Z</time></trkpt><trkpt lat="43.14480032380552" lon="10.625752058146182"><ele>251.66666666666666</ele><time>2026-05-03T08:23:22Z</time></trkpt><trkpt lat="43.14472919010502" lon="10.625822919668922"><ele>251.33333333333331</ele><time>2026-05-03T08:23:23Z</time></trkpt><trkpt lat="43.14465721869356" lon="10.62588250624773"><ele>251.0</ele><time>2026-05-03T08:23:24Z</time></trkpt><trkpt lat="43.14458422751883" lon="10.625850146198664"><ele>250.66666666666666</ele><time>2026-05-03T08:23:25Z</time></trkpt><trkpt lat="43.14450605796097" lon="10.625840255386173"><ele>250.33333333333331</ele><time>2026-05-03T08:23:26Z</time></trkpt><trkpt lat="43.144426683998205" lon="10.625788854236253"><ele>250.0</ele><time>2026-05-03T08:23:27Z</time></trkpt><trkpt lat="43.144359566933595" lon="10.625767168848801"><ele>250.0</ele><time>2026-05-03T08:23:28Z</time></trkpt><trkpt lat="43.14425041001462" lon="10.625822218555001"><ele>250.0</ele><time>2026-05-03T08:23:30Z</time></trkpt><trkpt lat="43.14423793467353" lon="10.625934732913725"><ele>250.0</ele><time>2026-05-03T08:23:31Z</time></trkpt><trkpt lat="43.14420156807303" lon="10.62604175914335"><ele>250.0</ele><time>2026-05-03T08:23:32Z</time></trkpt><trkpt lat="43.1441628581484" lon="10.626161731816392"><ele>250.0</ele><time>2026-05-03T08:23:33Z</time></trkpt><trkpt lat="43.14415506973318" lon="10.626286560691456"><ele>252.2</ele><time>2026-05-03T08:23:34Z</time></trkpt><trkpt lat="43.14411472913695" lon="10.626440551332944"><ele>254.4</ele><time>2026-05-03T08:23:35Z</time></trkpt><trkpt lat="43.14405300594137" lon="10.626566358439248"><ele>256.6</ele><time>2026-05-03T08:23:36Z</time></trkpt><trkpt lat="43.14398523989315" lon="10.626616730299887"><ele>258.8</ele><time>2026-05-03T08:23:37Z</time></trkpt><trkpt lat="43.143928321399024" lon="10.626671635887664"><ele>261.0</ele><time>2026-05-03T08:23:38Z</time></trkpt><trkpt lat="43.143854112904435" lon="10.626763625693972"><ele>261.0</ele><time>2026-05-03T08:23:39Z</time></trkpt><trkpt lat="43.14376120151646" lon="10.626850890563837"><ele>261.0</ele><time>2026-05-03T08:23:40Z</time></trkpt><trkpt lat="43.14368676153765" lon="10.626912700684194"><ele>261.0</ele><time>2026-05-03T08:23:41Z</time></trkpt><trkpt lat="43.14361862113656" lon="10.62700333385567"><ele>261.0</ele><time>2026-05-03T08:23:42Z</time></trkpt><trkpt lat="43.143573954590636" lon="10.627102527196136"><ele>261.0</ele><time>2026-05-03T08:23:43Z</time></trkpt><trkpt lat="43.14352460447384" lon="10.627206529183692"><ele>263.40000000000003</ele><time>2026-05-03T08:23:44Z</time></trkpt><trkpt lat="43.14349660266911" lon="10.62731105587803"><ele>265.8</ele><time>2026-05-03T08:23:45Z</time></trkpt><trkpt lat="43.14345775080142" lon="10.627406149621143"><ele>268.20000000000005</ele><time>2026-05-03T08:23:46Z</time></trkpt><trkpt lat="43.14336189288424" lon="10.627495791690778"><ele>270.6</ele><time>2026-05-03T08:23:48Z</time></trkpt><trkpt lat="43.143248519331" lon="10.62758136236321"><ele>273.0</ele><time>2026-05-03T08:23:50Z</time></trkpt><trkpt lat="43.14317126329684" lon="10.627636501673205"><ele>274.6</ele><time>2026-05-03T08:23:51Z</time></trkpt><trkpt lat="43.143100930761705" lon="10.627634498995004"><ele>276.20000000000005</ele><time>2026-05-03T08:23:52Z</time></trkpt><trkpt lat="43.14299942169669" lon="10.627633414399162"><ele>277.8</ele><time>2026-05-03T08:23:53Z</time></trkpt><trkpt lat="43.14288112864504" lon="10.627621503444024"><ele>279.40000000000003</ele><time>2026-05-03T08:23:54Z</time></trkpt><trkpt lat="43.14276410789232" lon="10.62766073405291"><ele>281.0</ele><time>2026-05-03T08:23:55Z</time></trkpt><trkpt lat="43.1426349972691" lon="10.627743530502956"><ele>284.0</ele><time>2026-05-03T08:23:56Z</time></trkpt><trkpt lat="43.14251596294755" lon="10.627840810902027"><ele>287.0</ele><time>2026-05-03T08:23:57Z</time></trkpt><trkpt lat="43.14240485741274" lon="10.62793871920596"><ele>290.0</ele><time>2026-05-03T08:23:58Z</time></trkpt><trkpt lat="43.14228598639797" lon="10.62805864902087"><ele>293.0</ele><time>2026-05-03T08:23:59Z</time></trkpt><trkpt lat="43.14217315774742" lon="10.628210253207788"><ele>294.0</ele><time>2026-05-03T08:24:00Z</time></trkpt><trkpt lat="43.14207024087215" lon="10.628336662884289"><ele>295.0</ele><time>2026-05-03T08:24:01Z</time></trkpt><trkpt lat="43.14195879393036" lon="10.62841293398533"><ele>296.0</ele><time>2026-05-03T08:24:02Z</time></trkpt><trkpt lat="43.14187642386912" lon="10.628467254663962"><ele>297.0</ele><time>2026-05-03T08:24:03Z</time></trkpt><trkpt lat="43.14179890394836" lon="10.628511853623932"><ele>298.0</ele><time>2026-05-03T08:24:04Z</time></trkpt><trkpt lat="43.1417171527161" lon="10.628479145014204"><ele>298.0</ele><time>2026-05-03T08:24:05Z</time></trkpt><trkpt lat="43.14163271245174" lon="10.628465090141864"><ele>298.0</ele><time>2026-05-03T08:24:06Z</time></trkpt><trkpt lat="43.141544623857655" lon="10.628456999232363"><ele>298.0</ele><time>2026-05-03T08:24:07Z</time></trkpt><trkpt lat="43.14143169612977" lon="10.628432831324352"><ele>298.0</ele><time>2026-05-03T08:24:08Z</time></trkpt><trkpt lat="43.14136897727666" lon="10.628407976237874"><ele>298.0</ele><time>2026-05-03T08:24:09Z</time></trkpt><trkpt lat="43.14127432593262" lon="10.62841223469261"><ele>298.0</ele><time>2026-05-03T08:24:11Z</time></trkpt><trkpt lat="43.141186490023415" lon="10.628511690441503"><ele>299.4</ele><time>2026-05-03T08:24:13Z</time></trkpt><trkpt lat="43.14112099787118" lon="10.62857233690801"><ele>300.8</ele><time>2026-05-03T08:24:14Z</time></trkpt><trkpt lat="43.14107378379088" lon="10.6286927295367"><ele>302.2</ele><time>2026-05-03T08:24:15Z</time></trkpt><trkpt lat="43.14099897391624" lon="10.628795647152298"><ele>303.6</ele><time>2026-05-03T08:24:16Z</time></trkpt><trkpt lat="43.140944311384" lon="10.628901672826276"><ele>305.0</ele><time>2026-05-03T08:24:17Z</time></trkpt><trkpt lat="43.14087971988269" lon="10.628943463613751"><ele>306.33333333333337</ele><time>2026-05-03T08:24:18Z</time></trkpt><trkpt lat="43.140824930193446" lon="10.62899138529962"><ele>307.6666666666667</ele><time>2026-05-03T08:24:19Z</time></trkpt><trkpt lat="43.14075750277291" lon="10.628992870812674"><ele>309.0</ele><time>2026-05-03T08:24:20Z</time></trkpt><trkpt lat="43.14069955575134" lon="10.628953377806171"><ele>310.3333333333333</ele><time>2026-05-03T08:24:21Z</time></trkpt><trkpt lat="43.14061268133662" lon="10.628896211207389"><ele>311.66666666666663</ele><time>2026-05-03T08:24:23Z</time></trkpt><trkpt lat="43.14056629673278" lon="10.628825182117529"><ele>313.0</ele><time>2026-05-03T08:24:24Z</time></trkpt><trkpt lat="43.140511981978946" lon="10.628679335382767"><ele>312.6</ele><time>2026-05-03T08:24:26Z</time></trkpt><trkpt lat="43.14048613383636" lon="10.62852601336555"><ele>312.20000000000005</ele><time>2026-05-03T08:24:27Z</time></trkpt><trkpt lat="43.14047446142017" lon="10.628395466778839"><ele>311.8</ele><time>2026-05-03T08:24:28Z</time></trkpt><trkpt lat="43.1404453391677" lon="10.628288992253141"><ele>311.40000000000003</ele><time>2026-05-03T08:24:29Z</time></trkpt><trkpt lat="43.14039286180393" lon="10.62819325961794"><ele>311.0</ele><time>2026-05-03T08:24:31Z</time></trkpt><trkpt lat="43.140262003293124" lon="10.628262608388347"><ele>311.0</ele><time>2026-05-03T08:24:33Z</time></trkpt><trkpt lat="43.14022022611736" lon="10.628346656717028"><ele>311.0</ele><time>2026-05-03T08:24:34Z</time></trkpt><trkpt lat="43.14016923251462" lon="10.62846128225819"><ele>311.0</ele><time>2026-05-03T08:24:35Z</time></trkpt><trkpt lat="43.140109933513756" lon="10.628623460819867"><ele>311.0</ele><time>2026-05-03T08:24:36Z</time></trkpt><trkpt lat="43.14004809872748" lon="10.628778511201775"><ele>311.0</ele><time>2026-05-03T08:24:37Z</time></trkpt><trkpt lat="43.13999878020016" lon="10.628890292376186"><ele>312.33333333333337</ele><time>2026-05-03T08:24:38Z</time></trkpt><trkpt lat="43.1399501870921" lon="10.628996653810571"><ele>313.6666666666667</ele><time>2026-05-03T08:24:39Z</time></trkpt><trkpt lat="43.13990153925487" lon="10.629080833701694"><ele>315.0</ele><time>2026-05-03T08:24:40Z</time></trkpt><trkpt lat="43.13984979437942" lon="10.629139075936536"><ele>316.3333333333333</ele><time>2026-05-03T08:24:41Z</time></trkpt><trkpt lat="43.1397327205667" lon="10.6290982304266"><ele>317.66666666666663</ele><time>2026-05-03T08:24:43Z</time></trkpt><trkpt lat="43.139671653702656" lon="10.629027985090575"><ele>319.0</ele><time>2026-05-03T08:24:44Z</time></trkpt><trkpt lat="43.13960285790561" lon="10.628887357672927"><ele>319.4</ele><time>2026-05-03T08:24:45Z</time></trkpt><trkpt lat="43.13951374061483" lon="10.628748234259648"><ele>319.79999999999995</ele><time>2026-05-03T08:24:46Z</time></trkpt><trkpt lat="43.139436228102475" lon="10.628640797797553"><ele>320.20000000000005</ele><time>2026-05-03T08:24:47Z</time></trkpt><trkpt lat="43.13937864001515" lon="10.628566843591626"><ele>320.6</ele><time>2026-05-03T08:24:48Z</time></trkpt><trkpt lat="43.13931138963969" lon="10.62846738465852"><ele>321.0</ele><time>2026-05-03T08:24:50Z</time></trkpt><trkpt lat="43.139208523105594" lon="10.628474175290831"><ele>321.0</ele><time>2026-05-03T08:24:52Z</time></trkpt><trkpt lat="43.13911612226781" lon="10.628519509199226"><ele>321.0</ele><time>2026-05-03T08:24:54Z</time></trkpt><trkpt lat="43.138992326054186" lon="10.628520658692526"><ele>321.0</ele><time>2026-05-03T08:24:55Z</time></trkpt><trkpt lat="43.13887589747127" lon="10.628570539967962"><ele>321.0</ele><time>2026-05-03T08:24:56Z</time></trkpt><trkpt lat="43.13880531732825" lon="10.62861945388069"><ele>321.0</ele><time>2026-05-03T08:24:57Z</time></trkpt><trkpt lat="43.13872107503079" lon="10.62870706961269"><ele>323.5</ele><time>2026-05-03T08:24:58Z</time></trkpt><trkpt lat="43.13863146692488" lon="10.628833193083484"><ele>326.0</ele><time>2026-05-03T08:24:59Z</time></trkpt><trkpt lat="43.13855570470648" lon="10.628961180613274"><ele>328.5</ele><time>2026-05-03T08:25:00Z</time></trkpt><trkpt lat="43.138508409590465" lon="10.62906556523519"><ele>331.0</ele><time>2026-05-03T08:25:01Z</time></trkpt><trkpt lat="43.1384548075782" lon="10.629234935528666"><ele>331.0</ele><time>2026-05-03T08:25:02Z</time></trkpt><trkpt lat="43.13841502587685" lon="10.629355404434286"><ele>331.0</ele><time>2026-05-03T08:25:03Z</time></trkpt><trkpt lat="43.138365465644036" lon="10.629474290000571"><ele>331.0</ele><time>2026-05-03T08:25:04Z</time></trkpt><trkpt lat="43.138317763808736" lon="10.629600061613058"><ele>331.0</ele><time>2026-05-03T08:25:05Z</time></trkpt><trkpt lat="43.13823348743739" lon="10.629722497034555"><ele>331.0</ele><time>2026-05-03T08:25:06Z</time></trkpt><trkpt lat="43.13819415177199" lon="10.62980615971996"><ele>335.3333333333333</ele><time>2026-05-03T08:25:07Z</time></trkpt><trkpt lat="43.13812988218051" lon="10.629869459813293"><ele>339.66666666666663</ele><time>2026-05-03T08:25:08Z</time></trkpt><trkpt lat="43.13807872840237" lon="10.62992211221306"><ele>344.0</ele><time>2026-05-03T08:25:09Z</time></trkpt><trkpt lat="43.13801669233288" lon="10.629959364381843"><ele>348.3333333333333</ele><time>2026-05-03T08:25:10Z</time></trkpt><trkpt lat="43.13792064304798" lon="10.62996517499948"><ele>352.6666666666667</ele><time>2026-05-03T08:25:12Z</time></trkpt><trkpt lat="43.13782010764166" lon="10.62990329798898"><ele>357.0</ele><time>2026-05-03T08:25:13Z</time></trkpt><trkpt lat="43.13771898658143" lon="10.629851652955944"><ele>357.0</ele><time>2026-05-03T08:25:14Z</time></trkpt><trkpt lat="43.13762709825984" lon="10.629784839551125"><ele>357.0</ele><time>2026-05-03T08:25:15Z</time></trkpt><trkpt lat="43.13751674203326" lon="10.629690188488008"><ele>357.0</ele><time>2026-05-03T08:25:16Z</time></trkpt><trkpt lat="43.13738672819105" lon="10.629540344565834"><ele>357.0</ele><time>2026-05-03T08:25:17Z</time></trkpt><trkpt lat="43.13728270903114" lon="10.629448977360008"><ele>355.8333333333333</ele><time>2026-05-03T08:25:18Z</time></trkpt><trkpt lat="43.13721018347438" lon="10.629376791600299"><ele>354.6666666666667</ele><time>2026-05-03T08:25:19Z</time></trkpt><trkpt lat="43.13715568752845" lon="10.62932176167148"><ele>353.5</ele><time>2026-05-03T08:25:20Z</time></trkpt><trkpt lat="43.13706854176056" lon="10.629291163287883"><ele>352.33333333333337</ele><time>2026-05-03T08:25:22Z</time></trkpt><trkpt lat="43.13699804284415" lon="10.629274867555678"><ele>351.1666666666667</ele><time>2026-05-03T08:25:23Z</time></trkpt><trkpt lat="43.13693322952085" lon="10.62926137274769"><ele>350.0</ele><time>2026-05-03T08:25:24Z</time></trkpt><trkpt lat="43.13685745965103" lon="10.629271076120112"><ele>350.0</ele><time>2026-05-03T08:25:25Z</time></trkpt><trkpt lat="43.13678704232653" lon="10.629299930758352"><ele>350.0</ele><time>2026-05-03T08:25:27Z</time></trkpt><trkpt lat="43.136675269165934" lon="10.629274561507223"><ele>350.0</ele><time>2026-05-03T08:25:29Z</time></trkpt><trkpt lat="43.13658465755611" lon="10.629274561499907"><ele>350.0</ele><time>2026-05-03T08:25:32Z</time></trkpt><trkpt lat="43.13648714151242" lon="10.629274402104116"><ele>350.0</ele><time>2026-05-03T08:25:33Z</time></trkpt><trkpt lat="43.136387646840646" lon="10.62926899373998"><ele>351.0</ele><time>2026-05-03T08:25:34Z</time></trkpt><trkpt lat="43.13630743273838" lon="10.629256683410793"><ele>352.0</ele><time>2026-05-03T08:25:35Z</time></trkpt><trkpt lat="43.136226821839976" lon="10.629232163071682"><ele>353.0</ele><time>2026-05-03T08:25:36Z</time></trkpt><trkpt lat="43.13615090241071" lon="10.629203828849345"><ele>354.0</ele><time>2026-05-03T08:25:37Z</time></trkpt><trkpt lat="43.136079708767504" lon="10.62917572608535"><ele>355.0</ele><time>2026-05-03T08:25:38Z</time></trkpt><trkpt lat="43.135992159076785" lon="10.629142966543169"><ele>356.0</ele><time>2026-05-03T08:25:39Z</time></trkpt><trkpt lat="43.135906960399545" lon="10.629095286186672"><ele>356.0</ele><time>2026-05-03T08:25:40Z</time></trkpt><trkpt lat="43.135822133567004" lon="10.629056070326"><ele>356.0</ele><time>2026-05-03T08:25:41Z</time></trkpt><trkpt lat="43.13573768576475" lon="10.629009696083731"><ele>356.0</ele><time>2026-05-03T08:25:42Z</time></trkpt><trkpt lat="43.13565094972461" lon="10.628972463503601"><ele>356.0</ele><time>2026-05-03T08:25:43Z</time></trkpt><trkpt lat="43.135560882113374" lon="10.628948050396351"><ele>356.0</ele><time>2026-05-03T08:25:44Z</time></trkpt><trkpt lat="43.13548264960552" lon="10.628894780019618"><ele>358.4</ele><time>2026-05-03T08:25:45Z</time></trkpt><trkpt lat="43.13538791234137" lon="10.628845795280364"><ele>360.8</ele><time>2026-05-03T08:25:46Z</time></trkpt><trkpt lat="43.13529856140349" lon="10.628799783614143"><ele>363.2</ele><time>2026-05-03T08:25:47Z</time></trkpt><trkpt lat="43.13520871750772" lon="10.62876857410406"><ele>365.59999999999997</ele><time>2026-05-03T08:25:48Z</time></trkpt><trkpt lat="43.13511062356825" lon="10.62872076200753"><ele>368.0</ele><time>2026-05-03T08:25:49Z</time></trkpt><trkpt lat="43.13504650304343" lon="10.62868105318554"><ele>364.79999999999995</ele><time>2026-05-03T08:25:50Z</time></trkpt><trkpt lat="43.13497413419366" lon="10.628622674698482"><ele>361.6</ele><time>2026-05-03T08:25:51Z</time></trkpt><trkpt lat="43.134910628115705" lon="10.62858703863962"><ele>358.4</ele><time>2026-05-03T08:25:52Z</time></trkpt><trkpt lat="43.13479588555765" lon="10.628522013788674"><ele>355.20000000000005</ele><time>2026-05-03T08:25:54Z</time></trkpt><trkpt lat="43.1346914176224" lon="10.628466147254453"><ele>352.0</ele><time>2026-05-03T08:25:56Z</time></trkpt><trkpt lat="43.1346153763437" lon="10.628410056180273"><ele>352.0</ele><time>2026-05-03T08:25:58Z</time></trkpt><trkpt lat="43.134530246558136" lon="10.628367646669702"><ele>352.0</ele><time>2026-05-03T08:26:01Z</time></trkpt><trkpt lat="43.13444991376817" lon="10.62831754368321"><ele>352.0</ele><time>2026-05-03T08:26:04Z</time></trkpt><trkpt lat="43.134401023066594" lon="10.628248652233923"><ele>352.0</ele><time>2026-05-03T08:26:07Z</time></trkpt><trkpt lat="43.13422012697628" lon="10.628109058121531"><ele>352.0</ele><time>2026-05-03T08:26:09Z</time></trkpt><trkpt lat="43.13412268321588" lon="10.628006428103834"><ele>352.0</ele><time>2026-05-03T08:26:10Z</time></trkpt><trkpt lat="43.13406799418142" lon="10.62794369747134"><ele>352.0</ele><time>2026-05-03T08:26:11Z</time></trkpt><trkpt lat="43.133985187789634" lon="10.627816805492198"><ele>352.0</ele><time>2026-05-03T08:26:12Z</time></trkpt><trkpt lat="43.133884966943505" lon="10.62771934720164"><ele>352.0</ele><time>2026-05-03T08:26:13Z</time></trkpt><trkpt lat="43.133821055985905" lon="10.627600119674772"><ele>352.8333333333333</ele><time>2026-05-03T08:26:14Z</time></trkpt><trkpt lat="43.133772828546924" lon="10.627507804826319"><ele>353.66666666666663</ele><time>2026-05-03T08:26:15Z</time></trkpt><trkpt lat="43.133738088894354" lon="10.627410224526548"><ele>354.5</ele><time>2026-05-03T08:26:16Z</time></trkpt><trkpt lat="43.13372101216717" lon="10.627320913492612"><ele>355.3333333333333</ele><time>2026-05-03T08:26:17Z</time></trkpt><trkpt lat="43.133704045249594" lon="10.627191326011445"><ele>356.1666666666667</ele><time>2026-05-03T08:26:18Z</time></trkpt><trkpt lat="43.1336934028807" lon="10.627034243045905"><ele>357.0</ele><time>2026-05-03T08:26:20Z</time></trkpt><trkpt lat="43.13373232670278" lon="10.62685042580611"><ele>357.0</ele><time>2026-05-03T08:26:22Z</time></trkpt><trkpt lat="43.13378829671769" lon="10.626664266519368"><ele>357.0</ele><time>2026-05-03T08:26:24Z</time></trkpt><trkpt lat="43.133813715092465" lon="10.62655354776664"><ele>357.0</ele><time>2026-05-03T08:26:25Z</time></trkpt><trkpt lat="43.133784075017616" lon="10.62643500639487"><ele>357.0</ele><time>2026-05-03T08:26:27Z</time></trkpt><trkpt lat="43.133738834700424" lon="10.626276558625174"><ele>357.0</ele><time>2026-05-03T08:26:29Z</time></trkpt><trkpt lat="43.133684441344805" lon="10.626192720351927"><ele>356.0</ele><time>2026-05-03T08:26:30Z</time></trkpt><trkpt lat="43.1336364301272" lon="10.626129874758428"><ele>355.0</ele><time>2026-05-03T08:26:31Z</time></trkpt><trkpt lat="43.13355618175924" lon="10.626024830836577"><ele>354.0</ele><time>2026-05-03T08:26:33Z</time></trkpt><trkpt lat="43.13347465725022" lon="10.625914651135714"><ele>353.0</ele><time>2026-05-03T08:26:35Z</time></trkpt><trkpt lat="43.13340537562634" lon="10.625789442299642"><ele>352.0</ele><time>2026-05-03T08:26:37Z</time></trkpt><trkpt lat="43.13335242954759" lon="10.625674274492996"><ele>352.0</ele><time>2026-05-03T08:26:39Z</time></trkpt><trkpt lat="43.13331003190592" lon="10.625572014018127"><ele>352.0</ele><time>2026-05-03T08:26:41Z</time></trkpt><trkpt lat="43.13325458608968" lon="10.625424517151052"><ele>352.0</ele><time>2026-05-03T08:26:43Z</time></trkpt><trkpt lat="43.13322538563927" lon="10.625346817986042"><ele>352.0</ele><time>2026-05-03T08:26:44Z</time></trkpt><trkpt lat="43.1331886538616" lon="10.625236975028157"><ele>352.0</ele><time>2026-05-03T08:26:45Z</time></trkpt><trkpt lat="43.13314957040323" lon="10.625089311088447"><ele>355.20000000000005</ele><time>2026-05-03T08:26:46Z</time></trkpt><trkpt lat="43.133117912424495" lon="10.624952609696402"><ele>358.4</ele><time>2026-05-03T08:26:47Z</time></trkpt><trkpt lat="43.13308739996529" lon="10.62485815052868"><ele>361.6</ele><time>2026-05-03T08:26:48Z</time></trkpt><trkpt lat="43.13304246307655" lon="10.624739713063859"><ele>364.79999999999995</ele><time>2026-05-03T08:26:49Z</time></trkpt><trkpt lat="43.132987603668546" lon="10.624645064381065"><ele>368.0</ele><time>2026-05-03T08:26:50Z</time></trkpt><trkpt lat="43.13292374669172" lon="10.624542996555137"><ele>367.2</ele><time>2026-05-03T08:26:52Z</time></trkpt><trkpt lat="43.13288130049068" lon="10.624475866790332"><ele>366.4</ele><time>2026-05-03T08:26:53Z</time></trkpt><trkpt lat="43.13286652925217" lon="10.624324702090869"><ele>365.59999999999997</ele><time>2026-05-03T08:26:54Z</time></trkpt><trkpt lat="43.132871891696766" lon="10.624140459727245"><ele>364.79999999999995</ele><time>2026-05-03T08:26:55Z</time></trkpt><trkpt lat="43.132883892428204" lon="10.62399601775072"><ele>364.0</ele><time>2026-05-03T08:26:56Z</time></trkpt><trkpt lat="43.132898733316736" lon="10.623874295304772"><ele>364.0</ele><time>2026-05-03T08:26:57Z</time></trkpt><trkpt lat="43.132928518663014" lon="10.623777982094264"><ele>364.0</ele><time>2026-05-03T08:26:58Z</time></trkpt><trkpt lat="43.13294584052862" lon="10.62366589082081"><ele>364.0</ele><time>2026-05-03T08:26:59Z</time></trkpt><trkpt lat="43.13297480895894" lon="10.623582735823135"><ele>364.0</ele><time>2026-05-03T08:27:00Z</time></trkpt><trkpt lat="43.13300963480873" lon="10.623458964152277"><ele>364.0</ele><time>2026-05-03T08:27:02Z</time></trkpt><trkpt lat="43.13305838851939" lon="10.623342660791401"><ele>364.0</ele><time>2026-05-03T08:27:05Z</time></trkpt><trkpt lat="43.133104743727934" lon="10.623256214100296"><ele>363.5</ele><time>2026-05-03T08:27:07Z</time></trkpt><trkpt lat="43.13315892014666" lon="10.62314999916987"><ele>363.0</ele><time>2026-05-03T08:27:09Z</time></trkpt><trkpt lat="43.13320335195825" lon="10.623062889889644"><ele>362.5</ele><time>2026-05-03T08:27:11Z</time></trkpt><trkpt lat="43.13324955201618" lon="10.622953182968201"><ele>362.0</ele><time>2026-05-03T08:27:12Z</time></trkpt><trkpt lat="43.133282245409944" lon="10.622841043496509"><ele>361.5</ele><time>2026-05-03T08:27:13Z</time></trkpt><trkpt lat="43.13330964758934" lon="10.622724855056308"><ele>361.0</ele><time>2026-05-03T08:27:14Z</time></trkpt><trkpt lat="43.13332406910953" lon="10.622604070727164"><ele>357.20000000000005</ele><time>2026-05-03T08:27:15Z</time></trkpt><trkpt lat="43.13333121250893" lon="10.622430426241728"><ele>353.40000000000003</ele><time>2026-05-03T08:27:17Z</time></trkpt><trkpt lat="43.13329282017698" lon="10.622278164495654"><ele>349.6</ele><time>2026-05-03T08:27:19Z</time></trkpt><trkpt lat="43.13324641063498" lon="10.62221088782015"><ele>345.8</ele><time>2026-05-03T08:27:20Z</time></trkpt><trkpt lat="43.133234076824245" lon="10.622073467024594"><ele>342.0</ele><time>2026-05-03T08:27:22Z</time></trkpt><trkpt lat="43.13332588206996" lon="10.622018436960715"><ele>342.20000000000005</ele><time>2026-05-03T08:27:23Z</time></trkpt><trkpt lat="43.133368276395636" lon="10.621916633362602"><ele>342.4</ele><time>2026-05-03T08:27:24Z</time></trkpt><trkpt lat="43.1334235750858" lon="10.62178942122095"><ele>342.6</ele><time>2026-05-03T08:27:25Z</time></trkpt><trkpt lat="43.13346880839407" lon="10.621657785434437"><ele>342.79999999999995</ele><time>2026-05-03T08:27:26Z</time></trkpt><trkpt lat="43.133505252604465" lon="10.621528043120428"><ele>343.0</ele><time>2026-05-03T08:27:27Z</time></trkpt><trkpt lat="43.13354828407633" lon="10.621404009910215"><ele>343.0</ele><time>2026-05-03T08:27:28Z</time></trkpt><trkpt lat="43.1335655497488" lon="10.621309963058886"><ele>343.0</ele><time>2026-05-03T08:27:29Z</time></trkpt><trkpt lat="43.1335755047852" lon="10.621146499190115"><ele>343.0</ele><time>2026-05-03T08:27:31Z</time></trkpt><trkpt lat="43.133530492144416" lon="10.621040130855"><ele>343.0</ele><time>2026-05-03T08:27:32Z</time></trkpt><trkpt lat="43.13342732569575" lon="10.620967477976356"><ele>343.0</ele><time>2026-05-03T08:27:33Z</time></trkpt><trkpt lat="43.13336154369717" lon="10.620829884246747"><ele>342.4</ele><time>2026-05-03T08:27:34Z</time></trkpt><trkpt lat="43.13331341247135" lon="10.620734346571197"><ele>341.79999999999995</ele><time>2026-05-03T08:27:36Z</time></trkpt><trkpt lat="43.13328722195005" lon="10.620653808596701"><ele>341.2</ele><time>2026-05-03T08:28:34Z</time></trkpt><trkpt lat="43.133263478880366" lon="10.620808217688822"><ele>340.6</ele><time>2026-05-03T08:35:21.001Z</time></trkpt><trkpt lat="43.13325192836667" lon="10.620969845414418"><ele>340.0</ele><time>2026-05-03T08:35:23.001Z</time></trkpt><trkpt lat="43.13324854078734" lon="10.621064557440858"><ele>340.6</ele><time>2026-05-03T08:35:24.001Z</time></trkpt><trkpt lat="43.133265294232025" lon="10.621170509206086"><ele>341.2</ele><time>2026-05-03T08:35:25.001Z</time></trkpt><trkpt lat="43.13326905782944" lon="10.621332645049856"><ele>341.79999999999995</ele><time>2026-05-03T08:35:27.001Z</time></trkpt><trkpt lat="43.13322398400012" lon="10.621452216853388"><ele>342.4</ele><time>2026-05-03T08:35:29.001Z</time></trkpt><trkpt lat="43.13313361047183" lon="10.62154853701342"><ele>343.0</ele><time>2026-05-03T08:35:31.001Z</time></trkpt><trkpt lat="43.133044581050456" lon="10.621649168800124"><ele>345.3333333333333</ele><time>2026-05-03T08:35:33.001Z</time></trkpt><trkpt lat="43.13294956646322" lon="10.621744991467096"><ele>347.66666666666663</ele><time>2026-05-03T08:35:35.001Z</time></trkpt><trkpt lat="43.1328846793917" lon="10.621775919959854"><ele>350.0</ele><time>2026-05-03T08:35:36.001Z</time></trkpt><trkpt lat="43.132817858627554" lon="10.621811488193888"><ele>352.3333333333333</ele><time>2026-05-03T08:35:37.001Z</time></trkpt><trkpt lat="43.13273810713124" lon="10.621847283238278"><ele>354.6666666666667</ele><time>2026-05-03T08:35:38.001Z</time></trkpt><trkpt lat="43.13265588260922" lon="10.621886143679918"><ele>357.0</ele><time>2026-05-03T08:35:39.001Z</time></trkpt><trkpt lat="43.132583004382646" lon="10.62193576133873"><ele>357.8</ele><time>2026-05-03T08:35:41.001Z</time></trkpt><trkpt lat="43.13250575376371" lon="10.621981992566155"><ele>358.6</ele><time>2026-05-03T08:35:43.001Z</time></trkpt><trkpt lat="43.13240617051509" lon="10.622059412008904"><ele>359.40000000000003</ele><time>2026-05-03T08:35:45.001Z</time></trkpt><trkpt lat="43.13233555586653" lon="10.62210302836869"><ele>360.20000000000005</ele><time>2026-05-03T08:35:46.001Z</time></trkpt><trkpt lat="43.13225855107054" lon="10.622211899682735"><ele>361.0</ele><time>2026-05-03T08:35:48Z</time></trkpt><trkpt lat="43.13222696970889" lon="10.622371449936395"><ele>363.0</ele><time>2026-05-03T08:35:50Z</time></trkpt><trkpt lat="43.13220949655888" lon="10.622475534481904"><ele>365.0</ele><time>2026-05-03T08:35:52Z</time></trkpt><trkpt lat="43.132155671875" lon="10.622587502160366"><ele>367.0</ele><time>2026-05-03T08:35:54Z</time></trkpt><trkpt lat="43.1321153099376" lon="10.622684640634212"><ele>369.0</ele><time>2026-05-03T08:35:56Z</time></trkpt><trkpt lat="43.132071114040215" lon="10.622778632004707"><ele>371.0</ele><time>2026-05-03T08:35:57Z</time></trkpt><trkpt lat="43.13200864425313" lon="10.6228346181028"><ele>373.0</ele><time>2026-05-03T08:35:58Z</time></trkpt><trkpt lat="43.13192058148227" lon="10.622893653769642"><ele>375.0</ele><time>2026-05-03T08:36:00Z</time></trkpt><trkpt lat="43.13184721511632" lon="10.623007589236739"><ele>377.0</ele><time>2026-05-03T08:36:02Z</time></trkpt><trkpt lat="43.13179620741913" lon="10.623149621110064"><ele>379.0</ele><time>2026-05-03T08:36:04Z</time></trkpt><trkpt lat="43.1317868381319" lon="10.623292301879097"><ele>381.0</ele><time>2026-05-03T08:36:06Z</time></trkpt><trkpt lat="43.13176322609401" lon="10.623385718721988"><ele>383.0</ele><time>2026-05-03T08:36:07Z</time></trkpt><trkpt lat="43.131746147403014" lon="10.623509962260192"><ele>383.0</ele><time>2026-05-03T08:36:09Z</time></trkpt><trkpt lat="43.13172989517051" lon="10.623604526820216"><ele>383.0</ele><time>2026-05-03T08:36:12Z</time></trkpt><trkpt lat="43.13174091117905" lon="10.623719683920754"><ele>383.0</ele><time>2026-05-03T08:36:14Z</time></trkpt><trkpt lat="43.13171936552398" lon="10.623821185818144"><ele>383.0</ele><time>2026-05-03T08:36:16Z</time></trkpt><trkpt lat="43.1317029599432" lon="10.623908553193624"><ele>383.0</ele><time>2026-05-03T08:36:18Z</time></trkpt><trkpt lat="43.13169274349887" lon="10.624048487399579"><ele>383.0</ele><time>2026-05-03T08:36:21Z</time></trkpt><trkpt lat="43.13166840557998" lon="10.624243446331475"><ele>384.59999999999997</ele><time>2026-05-03T08:36:23Z</time></trkpt><trkpt lat="43.13158297593413" lon="10.624362676652114"><ele>386.2</ele><time>2026-05-03T08:36:24Z</time></trkpt><trkpt lat="43.13154206744675" lon="10.624471879325027"><ele>387.8</ele><time>2026-05-03T08:36:25Z</time></trkpt><trkpt lat="43.13149063274612" lon="10.6245414743846"><ele>389.4</ele><time>2026-05-03T08:36:26Z</time></trkpt><trkpt lat="43.13144924762356" lon="10.624643891593493"><ele>391.0</ele><time>2026-05-03T08:36:28Z</time></trkpt><trkpt lat="43.13142304966372" lon="10.624750941661631"><ele>396.5</ele><time>2026-05-03T08:36:31Z</time></trkpt><trkpt lat="43.13141901998438" lon="10.624919682235742"><ele>402.0</ele><time>2026-05-03T08:36:36Z</time></trkpt><trkpt lat="43.131351862050884" lon="10.625068487882269"><ele>407.5</ele><time>2026-05-03T08:36:38Z</time></trkpt><trkpt lat="43.13136381625879" lon="10.625184382651709"><ele>413.0</ele><time>2026-05-03T08:36:39Z</time></trkpt><trkpt lat="43.13131446291258" lon="10.62534683247867"><ele>414.0</ele><time>2026-05-03T08:36:41Z</time></trkpt><trkpt lat="43.13127715012211" lon="10.625431604631043"><ele>415.0</ele><time>2026-05-03T08:36:42Z</time></trkpt><trkpt lat="43.13130908844017" lon="10.625525623339632"><ele>416.0</ele><time>2026-05-03T08:36:44Z</time></trkpt><trkpt lat="43.131313846522296" lon="10.625634618553928"><ele>417.0</ele><time>2026-05-03T08:36:45Z</time></trkpt><trkpt lat="43.131255122179766" lon="10.62580441618843"><ele>418.0</ele><time>2026-05-03T08:36:47Z</time></trkpt><trkpt lat="43.13117130094918" lon="10.625967136442892"><ele>418.00000000000006</ele><time>2026-05-03T08:36:49Z</time></trkpt><trkpt lat="43.13115735634938" lon="10.626070651209078"><ele>418.0</ele><time>2026-05-03T08:36:50Z</time></trkpt><trkpt lat="43.131133081791376" lon="10.626206405530194"><ele>418.0</ele><time>2026-05-03T08:36:52Z</time></trkpt><trkpt lat="43.13111767799812" lon="10.626305324400885"><ele>418.0</ele><time>2026-05-03T08:36:53Z</time></trkpt><trkpt lat="43.13103051103154" lon="10.62635962006088"><ele>418.00000000000006</ele><time>2026-05-03T08:36:54Z</time></trkpt><trkpt lat="43.1309990128152" lon="10.626479985739433"><ele>418.0</ele><time>2026-05-03T08:36:56Z</time></trkpt><trkpt lat="43.13094577224259" lon="10.626554930619958"><ele>417.4</ele><time>2026-05-03T08:36:59Z</time></trkpt><trkpt lat="43.130822256218266" lon="10.626630892844227"><ele>416.79999999999995</ele><time>2026-05-03T08:37:01Z</time></trkpt><trkpt lat="43.13076861680278" lon="10.626678382722918"><ele>416.2</ele><time>2026-05-03T08:37:02Z</time></trkpt><trkpt lat="43.130697845663825" lon="10.62671791866333"><ele>415.6</ele><time>2026-05-03T08:37:03Z</time></trkpt><trkpt lat="43.130608111634025" lon="10.626795069989464"><ele>415.0</ele><time>2026-05-03T08:37:05Z</time></trkpt><trkpt lat="43.13051094122956" lon="10.626905551412783"><ele>418.1666666666667</ele><time>2026-05-03T08:37:07Z</time></trkpt><trkpt lat="43.130435157958004" lon="10.62701098860122"><ele>421.33333333333337</ele><time>2026-05-03T08:37:08Z</time></trkpt><trkpt lat="43.13037428822844" lon="10.627082759745976"><ele>424.5</ele><time>2026-05-03T08:37:10Z</time></trkpt><trkpt lat="43.13034404463336" lon="10.626996439856754"><ele>427.66666666666663</ele><time>2026-05-03T08:37:13Z</time></trkpt><trkpt lat="43.13027680624911" lon="10.626982730324075"><ele>430.8333333333333</ele><time>2026-05-03T08:37:15Z</time></trkpt><trkpt lat="43.13024119345121" lon="10.62682611370292"><ele>434.0</ele><time>2026-05-03T08:37:17Z</time></trkpt><trkpt lat="43.130204380601526" lon="10.626748304759525"><ele>433.99999999999994</ele><time>2026-05-03T08:37:20Z</time></trkpt><trkpt lat="43.13021840757481" lon="10.626654960852992"><ele>434.0</ele><time>2026-05-03T08:37:22Z</time></trkpt><trkpt lat="43.130229614314366" lon="10.62652980439464"><ele>434.0</ele><time>2026-05-03T08:37:23Z</time></trkpt><trkpt lat="43.13023362868223" lon="10.626408331242796"><ele>434.0</ele><time>2026-05-03T08:37:26.001Z</time></trkpt><trkpt lat="43.13020259081748" lon="10.626306991880533"><ele>433.99999999999994</ele><time>2026-05-03T08:37:28.001Z</time></trkpt><trkpt lat="43.130192962360326" lon="10.626199314814905"><ele>434.0</ele><time>2026-05-03T08:37:29.001Z</time></trkpt><trkpt lat="43.13009766630798" lon="10.626077821004523"><ele>433.4</ele><time>2026-05-03T08:37:31.001Z</time></trkpt><trkpt lat="43.130022778581555" lon="10.625990071233518"><ele>432.79999999999995</ele><time>2026-05-03T08:37:32.001Z</time></trkpt><trkpt lat="43.12995107386732" lon="10.625910463940905"><ele>432.20000000000005</ele><time>2026-05-03T08:37:33.001Z</time></trkpt><trkpt lat="43.12987941264001" lon="10.625836235347217"><ele>431.6</ele><time>2026-05-03T08:37:34.001Z</time></trkpt><trkpt lat="43.12977062332837" lon="10.625736185119205"><ele>431.0</ele><time>2026-05-03T08:37:35.001Z</time></trkpt><trkpt lat="43.12969547814687" lon="10.625609620758691"><ele>430.4</ele><time>2026-05-03T08:37:36.001Z</time></trkpt><trkpt lat="43.12961260570563" lon="10.62555494630708"><ele>429.8</ele><time>2026-05-03T08:37:37.001Z</time></trkpt><trkpt lat="43.12955906859563" lon="10.62550606555399"><ele>429.19999999999993</ele><time>2026-05-03T08:37:38.001Z</time></trkpt><trkpt lat="43.129479598266656" lon="10.625433652895504"><ele>428.59999999999997</ele><time>2026-05-03T08:37:39.001Z</time></trkpt><trkpt lat="43.12938291317313" lon="10.625352192520594"><ele>428.0</ele><time>2026-05-03T08:37:40.001Z</time></trkpt><trkpt lat="43.129298939955966" lon="10.625269561664062"><ele>428.0</ele><time>2026-05-03T08:37:41.001Z</time></trkpt><trkpt lat="43.12923634372909" lon="10.625177006880383"><ele>427.99999999999994</ele><time>2026-05-03T08:37:42.001Z</time></trkpt><trkpt lat="43.12916514659945" lon="10.625099655876541"><ele>427.99999999999994</ele><time>2026-05-03T08:37:43.001Z</time></trkpt><trkpt lat="43.1291023444577" lon="10.625041270824946"><ele>428.0</ele><time>2026-05-03T08:37:44.001Z</time></trkpt><trkpt lat="43.129026960574556" lon="10.625002817360407"><ele>428.0</ele><time>2026-05-03T08:37:45.001Z</time></trkpt><trkpt lat="43.12893126408474" lon="10.624902297199379"><ele>429.99999999999994</ele><time>2026-05-03T08:37:47.001Z</time></trkpt><trkpt lat="43.12886625056878" lon="10.624801489996377"><ele>432.0</ele><time>2026-05-03T08:37:49.001Z</time></trkpt><trkpt lat="43.12879616990172" lon="10.62476371696303"><ele>434.0</ele><time>2026-05-03T08:37:51.001Z</time></trkpt><trkpt lat="43.12872539532096" lon="10.624784186813793"><ele>436.0</ele><time>2026-05-03T08:37:53.001Z</time></trkpt><trkpt lat="43.12866555369183" lon="10.624822324260169"><ele>437.99999999999994</ele><time>2026-05-03T08:37:54Z</time></trkpt><trkpt lat="43.12856826422404" lon="10.624851179651772"><ele>440.0</ele><time>2026-05-03T08:37:56Z</time></trkpt><trkpt lat="43.12850117986278" lon="10.624794404688243"><ele>440.0</ele><time>2026-05-03T08:37:58Z</time></trkpt><trkpt lat="43.1284758297084" lon="10.624662297767905"><ele>440.0</ele><time>2026-05-03T08:38:00Z</time></trkpt><trkpt lat="43.12842266841212" lon="10.624555783862453"><ele>440.0</ele><time>2026-05-03T08:38:02Z</time></trkpt><trkpt lat="43.12834818692963" lon="10.624509497558421"><ele>440.0</ele><time>2026-05-03T08:38:04Z</time></trkpt><trkpt lat="43.12822921826693" lon="10.624468880633847"><ele>440.0</ele><time>2026-05-03T08:38:06Z</time></trkpt><trkpt lat="43.128129320418566" lon="10.624426992941478"><ele>438.2</ele><time>2026-05-03T08:38:08Z</time></trkpt><trkpt lat="43.12804490902685" lon="10.624367966944575"><ele>436.4</ele><time>2026-05-03T08:38:10Z</time></trkpt><trkpt lat="43.1279499094595" lon="10.624308564199652"><ele>434.6</ele><time>2026-05-03T08:38:13Z</time></trkpt><trkpt lat="43.12785734919734" lon="10.624258146017791"><ele>432.8</ele><time>2026-05-03T08:38:14Z</time></trkpt><trkpt lat="43.12777826040708" lon="10.624212669809511"><ele>431.0</ele><time>2026-05-03T08:38:15Z</time></trkpt><trkpt lat="43.12769707099047" lon="10.62417814832345"><ele>430.99999999999994</ele><time>2026-05-03T08:38:16Z</time></trkpt><trkpt lat="43.12762311693063" lon="10.624154774791593"><ele>431.0</ele><time>2026-05-03T08:38:17Z</time></trkpt><trkpt lat="43.127525476564216" lon="10.62410098815711"><ele>431.0</ele><time>2026-05-03T08:38:19Z</time></trkpt><trkpt lat="43.12741420761992" lon="10.624087185804356"><ele>431.0</ele><time>2026-05-03T08:38:21Z</time></trkpt><trkpt lat="43.12735032875666" lon="10.624043429954561"><ele>430.99999999999994</ele><time>2026-05-03T08:38:23Z</time></trkpt><trkpt lat="43.127286235458605" lon="10.624061056402702"><ele>431.0</ele><time>2026-05-03T08:38:24Z</time></trkpt><trkpt lat="43.12721999841421" lon="10.624061447735444"><ele>433.8333333333333</ele><time>2026-05-03T08:38:26Z</time></trkpt><trkpt lat="43.12717959846437" lon="10.623971966299102"><ele>436.66666666666663</ele><time>2026-05-03T08:38:28Z</time></trkpt><trkpt lat="43.12719511439983" lon="10.62383439492057"><ele>439.5</ele><time>2026-05-03T08:38:31Z</time></trkpt><trkpt lat="43.12718828056986" lon="10.623712866920894"><ele>442.33333333333337</ele><time>2026-05-03T08:38:34Z</time></trkpt><trkpt lat="43.12720780049107" lon="10.623582376694193"><ele>445.1666666666667</ele><time>2026-05-03T08:38:36Z</time></trkpt><trkpt lat="43.12723602499541" lon="10.623505198956137"><ele>448.0</ele><time>2026-05-03T08:38:38Z</time></trkpt><trkpt lat="43.12729875319593" lon="10.623352420041844"><ele>448.8571428571429</ele><time>2026-05-03T08:38:40Z</time></trkpt><trkpt lat="43.127282895682725" lon="10.623217629646009"><ele>449.7142857142857</ele><time>2026-05-03T08:38:43Z</time></trkpt><trkpt lat="43.127258201405404" lon="10.623128726053018"><ele>450.57142857142856</ele><time>2026-05-03T08:38:47Z</time></trkpt><trkpt lat="43.127274358578646" lon="10.623039501567437"><ele>451.42857142857144</ele><time>2026-05-03T08:39:24Z</time></trkpt><trkpt lat="43.12732323776381" lon="10.622967228214101"><ele>452.28571428571433</ele><time>2026-05-03T08:39:35.001Z</time></trkpt><trkpt lat="43.127367389927336" lon="10.622893333799352"><ele>453.14285714285717</ele><time>2026-05-03T08:39:37.001Z</time></trkpt><trkpt lat="43.12735210145567" lon="10.622808630443938"><ele>454.0</ele><time>2026-05-03T08:39:40.001Z</time></trkpt><trkpt lat="43.12730025426859" lon="10.62275732212362"><ele>454.6666666666667</ele><time>2026-05-03T08:39:42.001Z</time></trkpt><trkpt lat="43.12722933447541" lon="10.622725307884878"><ele>455.33333333333337</ele><time>2026-05-03T08:39:44.001Z</time></trkpt><trkpt lat="43.12716377219558" lon="10.622698179951252"><ele>456.0</ele><time>2026-05-03T08:39:46.001Z</time></trkpt><trkpt lat="43.12709236835693" lon="10.622628053642222"><ele>456.66666666666663</ele><time>2026-05-03T08:39:48.001Z</time></trkpt><trkpt lat="43.12701335267056" lon="10.622569562014311"><ele>457.3333333333333</ele><time>2026-05-03T08:39:50.001Z</time></trkpt><trkpt lat="43.12695442639564" lon="10.622531664878693"><ele>458.0</ele><time>2026-05-03T08:39:51.001Z</time></trkpt><trkpt lat="43.126881893798725" lon="10.622443814640889"><ele>457.99999999999994</ele><time>2026-05-03T08:39:54.001Z</time></trkpt><trkpt lat="43.126822398681746" lon="10.622408126239092"><ele>458.0</ele><time>2026-05-03T08:39:56.001Z</time></trkpt><trkpt lat="43.12679519376122" lon="10.62231947271764"><ele>458.0</ele><time>2026-05-03T08:39:58.001Z</time></trkpt><trkpt lat="43.12670797693471" lon="10.62222497239177"><ele>458.0</ele><time>2026-05-03T08:40:00Z</time></trkpt><trkpt lat="43.12673743216847" lon="10.622104483086627"><ele>457.99999999999994</ele><time>2026-05-03T08:40:02Z</time></trkpt><trkpt lat="43.12667154748175" lon="10.622037913524034"><ele>458.0</ele><time>2026-05-03T08:40:03Z</time></trkpt><trkpt lat="43.12660307349902" lon="10.621941019644066"><ele>462.2</ele><time>2026-05-03T08:40:05Z</time></trkpt><trkpt lat="43.126558359912345" lon="10.621807710950922"><ele>466.4</ele><time>2026-05-03T08:40:07Z</time></trkpt><trkpt lat="43.12648839669684" lon="10.621712258643171"><ele>470.59999999999997</ele><time>2026-05-03T08:40:09Z</time></trkpt><trkpt lat="43.12637963418582" lon="10.621617003474794"><ele>474.79999999999995</ele><time>2026-05-03T08:40:11Z</time></trkpt><trkpt lat="43.12632582036868" lon="10.621550387586565"><ele>479.0</ele><time>2026-05-03T08:40:12Z</time></trkpt><trkpt lat="43.12623766525867" lon="10.621418572301828"><ele>478.99999999999994</ele><time>2026-05-03T08:40:14Z</time></trkpt><trkpt lat="43.12620597207104" lon="10.621340002140725"><ele>479.0</ele><time>2026-05-03T08:40:17Z</time></trkpt><trkpt lat="43.12614723802157" lon="10.621249550067834"><ele>479.0</ele><time>2026-05-03T08:40:20Z</time></trkpt><trkpt lat="43.12608395862128" lon="10.621251456808455"><ele>479.0</ele><time>2026-05-03T08:40:24Z</time></trkpt><trkpt lat="43.1260112443092" lon="10.621242819117123"><ele>478.99999999999994</ele><time>2026-05-03T08:42:07Z</time></trkpt><trkpt lat="43.12595269946284" lon="10.621362478427928"><ele>479.0</ele><time>2026-05-03T08:42:10Z</time></trkpt><trkpt lat="43.12594718460551" lon="10.621479683264287"><ele>478.99999999999994</ele><time>2026-05-03T08:42:12Z</time></trkpt><trkpt lat="43.12590625708628" lon="10.621614987083595"><ele>479.0</ele><time>2026-05-03T08:42:14Z</time></trkpt><trkpt lat="43.125914653449684" lon="10.621705368701951"><ele>479.0</ele><time>2026-05-03T08:42:16Z</time></trkpt><trkpt lat="43.125887936745016" lon="10.621825169403888"><ele>479.0</ele><time>2026-05-03T08:42:18Z</time></trkpt><trkpt lat="43.12589032681239" lon="10.62192688758296"><ele>478.99999999999994</ele><time>2026-05-03T08:42:19Z</time></trkpt><trkpt lat="43.12586015836478" lon="10.622061587617196"><ele>479.0</ele><time>2026-05-03T08:42:21Z</time></trkpt><trkpt lat="43.1258385254316" lon="10.622166502458253"><ele>480.49999999999994</ele><time>2026-05-03T08:42:23Z</time></trkpt><trkpt lat="43.125813906170656" lon="10.62226392931639"><ele>482.0</ele><time>2026-05-03T08:42:25Z</time></trkpt><trkpt lat="43.12584527180813" lon="10.62238788260225"><ele>483.5</ele><time>2026-05-03T08:42:28Z</time></trkpt><trkpt lat="43.125838554501954" lon="10.6224987515616"><ele>485.0</ele><time>2026-05-03T08:42:30Z</time></trkpt><trkpt lat="43.12583883603784" lon="10.62261341550763"><ele>486.49999999999994</ele><time>2026-05-03T08:42:31Z</time></trkpt><trkpt lat="43.12581873385231" lon="10.622699094469684"><ele>488.0</ele><time>2026-05-03T08:42:32Z</time></trkpt><trkpt lat="43.12580122998942" lon="10.622831323355328"><ele>489.25</ele><time>2026-05-03T08:42:35Z</time></trkpt><trkpt lat="43.12578476016151" lon="10.622952749436976"><ele>490.5</ele><time>2026-05-03T08:42:37Z</time></trkpt><trkpt lat="43.12575501129338" lon="10.623044026237826"><ele>491.75</ele><time>2026-05-03T08:42:40Z</time></trkpt><trkpt lat="43.125671227743396" lon="10.623398707164691"><ele>493.0</ele><time>2026-05-03T08:42:41Z</time></trkpt><trkpt lat="43.12561417036484" lon="10.623569069064073"><ele>496.0</ele><time>2026-05-03T08:42:43Z</time></trkpt><trkpt lat="43.125590659141665" lon="10.623661105062855"><ele>498.99999999999994</ele><time>2026-05-03T08:42:44Z</time></trkpt><trkpt lat="43.125597510413414" lon="10.623774490609328"><ele>501.99999999999994</ele><time>2026-05-03T08:42:46Z</time></trkpt><trkpt lat="43.1255736141219" lon="10.623947076807505"><ele>505.0</ele><time>2026-05-03T08:42:48Z</time></trkpt><trkpt lat="43.12560364997232" lon="10.624084775703155"><ele>508.0</ele><time>2026-05-03T08:42:49Z</time></trkpt><trkpt lat="43.125610107800206" lon="10.624179360632505"><ele>508.00000000000006</ele><time>2026-05-03T08:42:50Z</time></trkpt><trkpt lat="43.125627548470504" lon="10.62432339293988"><ele>508.0</ele><time>2026-05-03T08:42:52Z</time></trkpt><trkpt lat="43.125629203051766" lon="10.624423806211611"><ele>508.0</ele><time>2026-05-03T08:42:53Z</time></trkpt><trkpt lat="43.12563063186139" lon="10.624520888677692"><ele>508.0</ele><time>2026-05-03T08:42:55Z</time></trkpt><trkpt lat="43.12557720575387" lon="10.62467638453811"><ele>508.00000000000006</ele><time>2026-05-03T08:42:57Z</time></trkpt><trkpt lat="43.12552864040997" lon="10.624739158934196"><ele>508.0</ele><time>2026-05-03T08:42:58Z</time></trkpt><trkpt lat="43.12550353252439" lon="10.624821678754193"><ele>506.59999999999997</ele><time>2026-05-03T08:42:59Z</time></trkpt><trkpt lat="43.125450768073684" lon="10.62490099227923"><ele>505.19999999999993</ele><time>2026-05-03T08:43:00Z</time></trkpt><trkpt lat="43.12538130749237" lon="10.624990037787159"><ele>503.8</ele><time>2026-05-03T08:43:01Z</time></trkpt><trkpt lat="43.125342086334605" lon="10.625093578416235"><ele>502.4</ele><time>2026-05-03T08:43:02Z</time></trkpt><trkpt lat="43.125316348352015" lon="10.625257723024372"><ele>501.0</ele><time>2026-05-03T08:43:04Z</time></trkpt><trkpt lat="43.12529849071068" lon="10.62541480416906"><ele>500.3333333333333</ele><time>2026-05-03T08:43:06Z</time></trkpt><trkpt lat="43.1253179138294" lon="10.625561879506192"><ele>499.66666666666663</ele><time>2026-05-03T08:43:08Z</time></trkpt><trkpt lat="43.125300224306294" lon="10.625679678994228"><ele>499.0</ele><time>2026-05-03T08:43:11Z</time></trkpt><trkpt lat="43.12533815640496" lon="10.62579739247865"><ele>498.3333333333333</ele><time>2026-05-03T08:43:13Z</time></trkpt><trkpt lat="43.1253578112075" lon="10.625888020509704"><ele>497.66666666666663</ele><time>2026-05-03T08:43:14Z</time></trkpt><trkpt lat="43.12539094696869" lon="10.62600109625233"><ele>497.0</ele><time>2026-05-03T08:43:15Z</time></trkpt><trkpt lat="43.1254156309387" lon="10.62612933396284"><ele>497.8</ele><time>2026-05-03T08:43:16Z</time></trkpt><trkpt lat="43.12543651978763" lon="10.626269805196499"><ele>498.6</ele><time>2026-05-03T08:43:17Z</time></trkpt><trkpt lat="43.125464095062874" lon="10.626374433053309"><ele>499.40000000000003</ele><time>2026-05-03T08:43:18Z</time></trkpt><trkpt lat="43.125517388808774" lon="10.62652264728185"><ele>500.20000000000005</ele><time>2026-05-03T08:43:20Z</time></trkpt><trkpt lat="43.12557545270574" lon="10.626613392590457"><ele>501.0</ele><time>2026-05-03T08:43:21Z</time></trkpt><trkpt lat="43.125635086027096" lon="10.626691079696052"><ele>501.0</ele><time>2026-05-03T08:43:22Z</time></trkpt><trkpt lat="43.12570371681707" lon="10.62679175838998"><ele>501.0</ele><time>2026-05-03T08:43:23Z</time></trkpt><trkpt lat="43.125754343371675" lon="10.62688622122793"><ele>501.0</ele><time>2026-05-03T08:43:24Z</time></trkpt><trkpt lat="43.125815579939314" lon="10.627061956664832"><ele>501.0</ele><time>2026-05-03T08:43:26Z</time></trkpt><trkpt lat="43.12584764938744" lon="10.627149331227388"><ele>501.0</ele><time>2026-05-03T08:43:27Z</time></trkpt><trkpt lat="43.12592365980274" lon="10.627220668466887"><ele>504.20000000000005</ele><time>2026-05-03T08:43:29Z</time></trkpt><trkpt lat="43.125959685941496" lon="10.627303946506219"><ele>507.40000000000003</ele><time>2026-05-03T08:43:31Z</time></trkpt><trkpt lat="43.126008765381734" lon="10.6274457700262"><ele>510.6</ele><time>2026-05-03T08:43:33Z</time></trkpt><trkpt lat="43.126080930224276" lon="10.627553531580999"><ele>513.8000000000001</ele><time>2026-05-03T08:43:35Z</time></trkpt><trkpt lat="43.12612931944297" lon="10.627618188083423"><ele>517.0</ele><time>2026-05-03T08:43:36Z</time></trkpt><trkpt lat="43.12622314985386" lon="10.627728466360816"><ele>517.6666666666667</ele><time>2026-05-03T08:43:38Z</time></trkpt><trkpt lat="43.12629156022947" lon="10.62782330426467"><ele>518.3333333333334</ele><time>2026-05-03T08:43:40Z</time></trkpt><trkpt lat="43.12638293452094" lon="10.62792952884391"><ele>519.0</ele><time>2026-05-03T08:43:42Z</time></trkpt><trkpt lat="43.126434845482734" lon="10.628002969370021"><ele>519.6666666666666</ele><time>2026-05-03T08:43:43Z</time></trkpt><trkpt lat="43.12647427442189" lon="10.628091800351106"><ele>520.3333333333333</ele><time>2026-05-03T08:43:44Z</time></trkpt><trkpt lat="43.12650035210237" lon="10.628187906352554"><ele>521.0</ele><time>2026-05-03T08:43:45Z</time></trkpt><trkpt lat="43.12653927025421" lon="10.628305621378999"><ele>521.3333333333333</ele><time>2026-05-03T08:43:46Z</time></trkpt><trkpt lat="43.126567715349374" lon="10.628394879075444"><ele>521.6666666666666</ele><time>2026-05-03T08:43:47Z</time></trkpt><trkpt lat="43.12658929489977" lon="10.628490937856444"><ele>522.0</ele><time>2026-05-03T08:43:48Z</time></trkpt><trkpt lat="43.12660033713446" lon="10.628613355804308"><ele>522.3333333333334</ele><time>2026-05-03T08:43:49Z</time></trkpt><trkpt lat="43.126623807393585" lon="10.62871356785837"><ele>522.6666666666667</ele><time>2026-05-03T08:43:50Z</time></trkpt><trkpt lat="43.1266494238305" lon="10.628809174556572"><ele>523.0</ele><time>2026-05-03T08:43:51.001Z</time></trkpt><trkpt lat="43.12666768705229" lon="10.628978550774384"><ele>523.4</ele><time>2026-05-03T08:43:53.001Z</time></trkpt><trkpt lat="43.12668608908462" lon="10.629161257989821"><ele>523.8</ele><time>2026-05-03T08:43:55.001Z</time></trkpt><trkpt lat="43.12668281502822" lon="10.62928374556269"><ele>524.2</ele><time>2026-05-03T08:43:57.001Z</time></trkpt><trkpt lat="43.12666830468884" lon="10.629370896826831"><ele>524.6</ele><time>2026-05-03T08:44:28Z</time></trkpt><trkpt lat="43.12658950179238" lon="10.629311531032192"><ele>525.0</ele><time>2026-05-03T08:49:30Z</time></trkpt><trkpt lat="43.126671364638426" lon="10.629324956346904"><ele>525.0</ele><time>2026-05-03T08:49:44Z</time></trkpt><trkpt lat="43.12664477900577" lon="10.629405377961946"><ele>525.0</ele><time>2026-05-03T09:02:45Z</time></trkpt><trkpt lat="43.12659023750363" lon="10.629513211336524"><ele>525.0</ele><time>2026-05-03T09:06:12Z</time></trkpt><trkpt lat="43.12653139055941" lon="10.629591621319703"><ele>525.0</ele><time>2026-05-03T09:06:13Z</time></trkpt><trkpt lat="43.1264780912786" lon="10.629689777692574"><ele>525.0</ele><time>2026-05-03T09:06:14Z</time></trkpt><trkpt lat="43.12641269381161" lon="10.629788652759412"><ele>525.0</ele><time>2026-05-03T09:06:15Z</time></trkpt><trkpt lat="43.126354434248476" lon="10.629883346976676"><ele>524.5</ele><time>2026-05-03T09:06:16Z</time></trkpt><trkpt lat="43.126301070778574" lon="10.629945609141114"><ele>524.0</ele><time>2026-05-03T09:06:17Z</time></trkpt><trkpt lat="43.126223210459514" lon="10.630013219290047"><ele>523.5</ele><time>2026-05-03T09:06:18Z</time></trkpt><trkpt lat="43.12615213023154" lon="10.630066404884683"><ele>523.0</ele><time>2026-05-03T09:06:19Z</time></trkpt><trkpt lat="43.126089672642365" lon="10.63014380543613"><ele>522.5</ele><time>2026-05-03T09:06:20Z</time></trkpt><trkpt lat="43.12603620887083" lon="10.630202812717208"><ele>522.0</ele><time>2026-05-03T09:06:21Z</time></trkpt><trkpt lat="43.12597623267764" lon="10.630286435438393"><ele>522.0</ele><time>2026-05-03T09:06:22Z</time></trkpt><trkpt lat="43.125902341197616" lon="10.630365334351445"><ele>522.0</ele><time>2026-05-03T09:06:23Z</time></trkpt><trkpt lat="43.12583865458389" lon="10.630431991726157"><ele>522.0</ele><time>2026-05-03T09:06:24Z</time></trkpt><trkpt lat="43.12576723800815" lon="10.630499557954659"><ele>522.0</ele><time>2026-05-03T09:06:25Z</time></trkpt><trkpt lat="43.125712484562534" lon="10.630555283968333"><ele>522.0</ele><time>2026-05-03T09:06:26Z</time></trkpt><trkpt lat="43.12563672717546" lon="10.630652811650075"><ele>522.0</ele><time>2026-05-03T09:06:28Z</time></trkpt><trkpt lat="43.12554834888709" lon="10.630737242883843"><ele>523.6</ele><time>2026-05-03T09:06:30Z</time></trkpt><trkpt lat="43.125439255244714" lon="10.63077402812345"><ele>525.2</ele><time>2026-05-03T09:06:31Z</time></trkpt><trkpt lat="43.125361172228466" lon="10.630843550320796"><ele>526.8</ele><time>2026-05-03T09:06:32Z</time></trkpt><trkpt lat="43.12528315380671" lon="10.630931510143807"><ele>528.4</ele><time>2026-05-03T09:06:34Z</time></trkpt><trkpt lat="43.125208359493506" lon="10.631028566678102"><ele>530.0</ele><time>2026-05-03T09:06:36Z</time></trkpt><trkpt lat="43.12514261889655" lon="10.631093402615473"><ele>530.0</ele><time>2026-05-03T09:06:37Z</time></trkpt><trkpt lat="43.12508499125259" lon="10.631148063129373"><ele>530.0</ele><time>2026-05-03T09:06:38Z</time></trkpt><trkpt lat="43.12498666727796" lon="10.631191033323653"><ele>530.0</ele><time>2026-05-03T09:06:39Z</time></trkpt><trkpt lat="43.12492042909187" lon="10.631244918286075"><ele>530.0</ele><time>2026-05-03T09:06:40Z</time></trkpt><trkpt lat="43.1248417050718" lon="10.63131027810934"><ele>530.0</ele><time>2026-05-03T09:06:41Z</time></trkpt><trkpt lat="43.12475450660846" lon="10.63136991493505"><ele>530.0</ele><time>2026-05-03T09:06:42Z</time></trkpt><trkpt lat="43.12466298812184" lon="10.631429311674966"><ele>530.0</ele><time>2026-05-03T09:06:43Z</time></trkpt><trkpt lat="43.12456981541012" lon="10.631479198170897"><ele>530.0</ele><time>2026-05-03T09:06:44Z</time></trkpt><trkpt lat="43.124464031962674" lon="10.631542679106353"><ele>530.0</ele><time>2026-05-03T09:06:45Z</time></trkpt><trkpt lat="43.124365719016865" lon="10.631602296394483"><ele>530.0</ele><time>2026-05-03T09:06:46Z</time></trkpt><trkpt lat="43.124273509622405" lon="10.631657449688252"><ele>530.0</ele><time>2026-05-03T09:06:47Z</time></trkpt><trkpt lat="43.12418066857681" lon="10.631711246716765"><ele>530.0</ele><time>2026-05-03T09:06:48Z</time></trkpt><trkpt lat="43.1241006770853" lon="10.631747220966613"><ele>530.0</ele><time>2026-05-03T09:06:49Z</time></trkpt><trkpt lat="43.12403178659045" lon="10.631777608458831"><ele>530.0</ele><time>2026-05-03T09:06:50Z</time></trkpt><trkpt lat="43.123962385253556" lon="10.631842198002355"><ele>530.0</ele><time>2026-05-03T09:06:51Z</time></trkpt><trkpt lat="43.12388723369571" lon="10.631910364224648"><ele>530.0</ele><time>2026-05-03T09:06:52Z</time></trkpt><trkpt lat="43.123803841958285" lon="10.631967534063405"><ele>530.0</ele><time>2026-05-03T09:06:53Z</time></trkpt><trkpt lat="43.123698253431506" lon="10.632083850561191"><ele>528.4</ele><time>2026-05-03T09:06:55Z</time></trkpt><trkpt lat="43.12360683735047" lon="10.632172295228626"><ele>526.8</ele><time>2026-05-03T09:06:57Z</time></trkpt><trkpt lat="43.12350837086453" lon="10.632242602387134"><ele>525.2</ele><time>2026-05-03T09:06:59Z</time></trkpt><trkpt lat="43.12341447107017" lon="10.632253447067974"><ele>523.6</ele><time>2026-05-03T09:07:01Z</time></trkpt><trkpt lat="43.12333162475031" lon="10.632243595503539"><ele>522.0</ele><time>2026-05-03T09:07:03Z</time></trkpt><trkpt lat="43.12323778986747" lon="10.632224281105215"><ele>523.75</ele><time>2026-05-03T09:07:08Z</time></trkpt><trkpt lat="43.12315841883901" lon="10.632175098795734"><ele>525.5</ele><time>2026-05-03T09:07:11Z</time></trkpt><trkpt lat="43.12291724249397" lon="10.63229675669952"><ele>527.25</ele><time>2026-05-03T09:07:13Z</time></trkpt><trkpt lat="43.12284935570181" lon="10.632317746348233"><ele>529.0</ele><time>2026-05-03T09:07:14Z</time></trkpt><trkpt lat="43.12277378401557" lon="10.63234815471055"><ele>529.0</ele><time>2026-05-03T09:07:15Z</time></trkpt><trkpt lat="43.122704891055896" lon="10.632396176748333"><ele>529.0</ele><time>2026-05-03T09:07:16Z</time></trkpt><trkpt lat="43.122642751662106" lon="10.632472345367633"><ele>529.0</ele><time>2026-05-03T09:07:17Z</time></trkpt><trkpt lat="43.122577082348066" lon="10.632554195556965"><ele>529.0</ele><time>2026-05-03T09:07:18Z</time></trkpt><trkpt lat="43.12249370385899" lon="10.632631414261791"><ele>529.0</ele><time>2026-05-03T09:07:19Z</time></trkpt><trkpt lat="43.122414056096105" lon="10.63268860295592"><ele>529.0</ele><time>2026-05-03T09:07:20Z</time></trkpt><trkpt lat="43.122350586205634" lon="10.632695888804651"><ele>528.8</ele><time>2026-05-03T09:07:21Z</time></trkpt><trkpt lat="43.12228817325367" lon="10.632736028956694"><ele>528.5999999999999</ele><time>2026-05-03T09:07:22Z</time></trkpt><trkpt lat="43.12222791635272" lon="10.632862590718364"><ele>528.4</ele><time>2026-05-03T09:07:24Z</time></trkpt><trkpt lat="43.12212584997838" lon="10.632947847900168"><ele>528.1999999999999</ele><time>2026-05-03T09:07:26Z</time></trkpt><trkpt lat="43.12204900611379" lon="10.632989399101003"><ele>528.0</ele><time>2026-05-03T09:07:27Z</time></trkpt><trkpt lat="43.12198094897085" lon="10.633032025162457"><ele>527.0</ele><time>2026-05-03T09:07:28Z</time></trkpt><trkpt lat="43.121921905676814" lon="10.633087066130834"><ele>526.0</ele><time>2026-05-03T09:07:29Z</time></trkpt><trkpt lat="43.121792771586044" lon="10.633150031054841"><ele>525.0</ele><time>2026-05-03T09:07:30Z</time></trkpt><trkpt lat="43.12173080952211" lon="10.633195782308269"><ele>524.0</ele><time>2026-05-03T09:07:31Z</time></trkpt><trkpt lat="43.121593227467066" lon="10.633294295051858"><ele>523.0</ele><time>2026-05-03T09:07:33Z</time></trkpt><trkpt lat="43.12150680924325" lon="10.63336302669416"><ele>522.1666666666667</ele><time>2026-05-03T09:07:34Z</time></trkpt><trkpt lat="43.121438895197855" lon="10.633437712621527"><ele>521.3333333333334</ele><time>2026-05-03T09:07:35Z</time></trkpt><trkpt lat="43.1213687593297" lon="10.633479754274404"><ele>520.5</ele><time>2026-05-03T09:07:36Z</time></trkpt><trkpt lat="43.121294217131855" lon="10.633538190150812"><ele>519.6666666666666</ele><time>2026-05-03T09:07:37Z</time></trkpt><trkpt lat="43.1212271033357" lon="10.633606710858123"><ele>518.8333333333333</ele><time>2026-05-03T09:07:38Z</time></trkpt><trkpt lat="43.12114596052216" lon="10.633653306834791"><ele>518.0</ele><time>2026-05-03T09:07:39Z</time></trkpt><trkpt lat="43.12107748734301" lon="10.63370282990148"><ele>517.5</ele><time>2026-05-03T09:07:40Z</time></trkpt><trkpt lat="43.120933458211844" lon="10.63377909752652"><ele>517.0</ele><time>2026-05-03T09:07:42Z</time></trkpt><trkpt lat="43.120845117637586" lon="10.633840355855014"><ele>516.5</ele><time>2026-05-03T09:07:43Z</time></trkpt><trkpt lat="43.12074332232058" lon="10.633911636699425"><ele>516.0</ele><time>2026-05-03T09:07:44Z</time></trkpt><trkpt lat="43.12067309613682" lon="10.633988637432473"><ele>517.2</ele><time>2026-05-03T09:07:45Z</time></trkpt><trkpt lat="43.120577820926776" lon="10.634055220230211"><ele>518.4000000000001</ele><time>2026-05-03T09:07:46Z</time></trkpt><trkpt lat="43.12050004845478" lon="10.63411816120212"><ele>519.6</ele><time>2026-05-03T09:07:47Z</time></trkpt><trkpt lat="43.12043460979987" lon="10.6342026717932"><ele>520.8000000000001</ele><time>2026-05-03T09:07:48Z</time></trkpt><trkpt lat="43.12034908181514" lon="10.634270275351916"><ele>522.0</ele><time>2026-05-03T09:07:49Z</time></trkpt><trkpt lat="43.120278777092025" lon="10.634357525677386"><ele>522.0</ele><time>2026-05-03T09:07:50Z</time></trkpt><trkpt lat="43.12023009584948" lon="10.634435012818846"><ele>522.0</ele><time>2026-05-03T09:07:51Z</time></trkpt><trkpt lat="43.120103150203306" lon="10.634525363454332"><ele>522.0</ele><time>2026-05-03T09:07:53Z</time></trkpt><trkpt lat="43.12003233867496" lon="10.63455420945669"><ele>522.0</ele><time>2026-05-03T09:07:54Z</time></trkpt><trkpt lat="43.119916084474994" lon="10.634607681673188"><ele>522.0</ele><time>2026-05-03T09:07:56Z</time></trkpt><trkpt lat="43.119844227770805" lon="10.63461625463922"><ele>521.6</ele><time>2026-05-03T09:07:57Z</time></trkpt><trkpt lat="43.11975373422739" lon="10.634628211160226"><ele>521.2</ele><time>2026-05-03T09:07:58Z</time></trkpt><trkpt lat="43.119660325638776" lon="10.634611505615878"><ele>520.8</ele><time>2026-05-03T09:07:59Z</time></trkpt><trkpt lat="43.119566355644274" lon="10.634637174542968"><ele>520.4</ele><time>2026-05-03T09:08:00Z</time></trkpt><trkpt lat="43.11948754314024" lon="10.634681001187335"><ele>520.0</ele><time>2026-05-03T09:08:01Z</time></trkpt><trkpt lat="43.11941043346541" lon="10.63474364656111"><ele>520.0</ele><time>2026-05-03T09:08:02Z</time></trkpt><trkpt lat="43.119339638746084" lon="10.634804210832227"><ele>520.0</ele><time>2026-05-03T09:08:03Z</time></trkpt><trkpt lat="43.11927424556751" lon="10.634881085198352"><ele>520.0</ele><time>2026-05-03T09:08:04Z</time></trkpt><trkpt lat="43.119214907715666" lon="10.634973625340562"><ele>520.0</ele><time>2026-05-03T09:08:05Z</time></trkpt><trkpt lat="43.11915463631195" lon="10.635071512999497"><ele>520.0</ele><time>2026-05-03T09:08:06Z</time></trkpt><trkpt lat="43.11909774101823" lon="10.635140422760177"><ele>520.0</ele><time>2026-05-03T09:08:07Z</time></trkpt><trkpt lat="43.11903664524521" lon="10.635219118874527"><ele>520.0</ele><time>2026-05-03T09:08:08Z</time></trkpt><trkpt lat="43.11895579643508" lon="10.635275036943844"><ele>520.0</ele><time>2026-05-03T09:08:09Z</time></trkpt><trkpt lat="43.118845728585676" lon="10.635328794326654"><ele>520.0</ele><time>2026-05-03T09:08:11Z</time></trkpt><trkpt lat="43.1187619954936" lon="10.635333314394456"><ele>520.0</ele><time>2026-05-03T09:08:12Z</time></trkpt><trkpt lat="43.118673201372516" lon="10.635332139274349"><ele>520.0</ele><time>2026-05-03T09:08:13Z</time></trkpt><trkpt lat="43.118596428381366" lon="10.635349333276599"><ele>518.2</ele><time>2026-05-03T09:08:14Z</time></trkpt><trkpt lat="43.11846090906826" lon="10.635319984496345"><ele>516.4</ele><time>2026-05-03T09:08:16Z</time></trkpt><trkpt lat="43.1183916017492" lon="10.63537627973427"><ele>514.6</ele><time>2026-05-03T09:08:17Z</time></trkpt><trkpt lat="43.11830533473798" lon="10.63544372111835"><ele>512.8</ele><time>2026-05-03T09:08:18Z</time></trkpt><trkpt lat="43.11822646201681" lon="10.635490997852768"><ele>511.0</ele><time>2026-05-03T09:08:19Z</time></trkpt><trkpt lat="43.11815578999159" lon="10.635542291101329"><ele>511.00000000000006</ele><time>2026-05-03T09:08:20Z</time></trkpt><trkpt lat="43.11807411211139" lon="10.635561332703313"><ele>511.0</ele><time>2026-05-03T09:08:21Z</time></trkpt><trkpt lat="43.11800057863697" lon="10.635606581524215"><ele>511.0</ele><time>2026-05-03T09:08:22Z</time></trkpt><trkpt lat="43.11793332214723" lon="10.635717555134446"><ele>511.0</ele><time>2026-05-03T09:08:24Z</time></trkpt><trkpt lat="43.117880759226026" lon="10.635803382521225"><ele>511.00000000000006</ele><time>2026-05-03T09:08:25Z</time></trkpt><trkpt lat="43.117813430415545" lon="10.635877446660057"><ele>511.0</ele><time>2026-05-03T09:08:26Z</time></trkpt><trkpt lat="43.117743299373295" lon="10.635957327503316"><ele>511.00000000000006</ele><time>2026-05-03T09:08:27Z</time></trkpt><trkpt lat="43.11767401223038" lon="10.63604366428742"><ele>511.0</ele><time>2026-05-03T09:08:28Z</time></trkpt><trkpt lat="43.117610004362405" lon="10.636129338512118"><ele>511.0</ele><time>2026-05-03T09:08:29Z</time></trkpt><trkpt lat="43.11756422478737" lon="10.6362258437853"><ele>511.0</ele><time>2026-05-03T09:08:30Z</time></trkpt><trkpt lat="43.11751117341703" lon="10.636310315966112"><ele>511.00000000000006</ele><time>2026-05-03T09:08:31Z</time></trkpt><trkpt lat="43.11747408365689" lon="10.636387311988564"><ele>511.0</ele><time>2026-05-03T09:08:32Z</time></trkpt><trkpt lat="43.11743222213171" lon="10.636463510351133"><ele>510.50000000000006</ele><time>2026-05-03T09:08:33Z</time></trkpt><trkpt lat="43.11736300224744" lon="10.636593374003382"><ele>510.0</ele><time>2026-05-03T09:08:35Z</time></trkpt><trkpt lat="43.117304981331" lon="10.6366714809279"><ele>509.5</ele><time>2026-05-03T09:08:36Z</time></trkpt><trkpt lat="43.117243060405656" lon="10.636733994820036"><ele>509.0</ele><time>2026-05-03T09:08:37Z</time></trkpt><trkpt lat="43.11717820094945" lon="10.636772766215108"><ele>508.50000000000006</ele><time>2026-05-03T09:08:38Z</time></trkpt><trkpt lat="43.11712513615372" lon="10.636884872534406"><ele>508.0</ele><time>2026-05-03T09:08:40Z</time></trkpt><trkpt lat="43.11709539776621" lon="10.637038751988296"><ele>507.1666666666667</ele><time>2026-05-03T09:08:42Z</time></trkpt><trkpt lat="43.1170420929172" lon="10.637103569286277"><ele>506.33333333333337</ele><time>2026-05-03T09:08:43Z</time></trkpt><trkpt lat="43.116960719348874" lon="10.637167806326097"><ele>505.5</ele><time>2026-05-03T09:08:44Z</time></trkpt><trkpt lat="43.116881730066034" lon="10.637230922863012"><ele>504.66666666666663</ele><time>2026-05-03T09:08:45Z</time></trkpt><trkpt lat="43.11679226901185" lon="10.637292909538091"><ele>503.8333333333333</ele><time>2026-05-03T09:08:46Z</time></trkpt><trkpt lat="43.11672759216644" lon="10.637370961853167"><ele>503.0</ele><time>2026-05-03T09:08:47Z</time></trkpt><trkpt lat="43.11665857225239" lon="10.637463623969545"><ele>503.0</ele><time>2026-05-03T09:08:48Z</time></trkpt><trkpt lat="43.11659849337681" lon="10.637571096708912"><ele>502.99999999999994</ele><time>2026-05-03T09:08:49Z</time></trkpt><trkpt lat="43.11654616234361" lon="10.637672766343535"><ele>502.99999999999994</ele><time>2026-05-03T09:08:50Z</time></trkpt><trkpt lat="43.11648849686653" lon="10.637755974586664"><ele>503.0</ele><time>2026-05-03T09:08:51Z</time></trkpt><trkpt lat="43.11643363547265" lon="10.637828999110377"><ele>503.0</ele><time>2026-05-03T09:08:52Z</time></trkpt><trkpt lat="43.116340201704844" lon="10.637924988442027"><ele>500.0</ele><time>2026-05-03T09:08:54Z</time></trkpt><trkpt lat="43.11626736794864" lon="10.638029488935828"><ele>496.99999999999994</ele><time>2026-05-03T09:08:56Z</time></trkpt><trkpt lat="43.11617478819571" lon="10.638101411587199"><ele>493.99999999999994</ele><time>2026-05-03T09:08:58Z</time></trkpt><trkpt lat="43.11610710317171" lon="10.63817213485059"><ele>491.0</ele><time>2026-05-03T09:09:00Z</time></trkpt><trkpt lat="43.116065206717444" lon="10.63834617629327"><ele>488.0</ele><time>2026-05-03T09:09:02Z</time></trkpt><trkpt lat="43.11605142873508" lon="10.6384613641977"><ele>487.99999999999994</ele><time>2026-05-03T09:09:03Z</time></trkpt><trkpt lat="43.11603878766638" lon="10.638548006004399"><ele>488.0</ele><time>2026-05-03T09:09:04Z</time></trkpt><trkpt lat="43.1159976946957" lon="10.638681383354958"><ele>488.0</ele><time>2026-05-03T09:09:06Z</time></trkpt><trkpt lat="43.115964124494475" lon="10.638778037197241"><ele>488.0</ele><time>2026-05-03T09:09:08Z</time></trkpt><trkpt lat="43.115910232244595" lon="10.638908222361279"><ele>487.99999999999994</ele><time>2026-05-03T09:09:10Z</time></trkpt><trkpt lat="43.1158735608358" lon="10.63900249420422"><ele>488.0</ele><time>2026-05-03T09:09:11Z</time></trkpt><trkpt lat="43.11583587587805" lon="10.639084604858029"><ele>487.4</ele><time>2026-05-03T09:09:12Z</time></trkpt><trkpt lat="43.11577881801786" lon="10.639163823523688"><ele>486.79999999999995</ele><time>2026-05-03T09:09:13Z</time></trkpt><trkpt lat="43.115710322274644" lon="10.639222323889301"><ele>486.2</ele><time>2026-05-03T09:09:14Z</time></trkpt><trkpt lat="43.115625449697454" lon="10.639278146298668"><ele>485.6</ele><time>2026-05-03T09:09:15Z</time></trkpt><trkpt lat="43.11553208982472" lon="10.639375564591695"><ele>485.0</ele><time>2026-05-03T09:09:16Z</time></trkpt><trkpt lat="43.11545869200619" lon="10.639475652753832"><ele>484.0</ele><time>2026-05-03T09:09:17Z</time></trkpt><trkpt lat="43.11541018195332" lon="10.63955945328784"><ele>483.0</ele><time>2026-05-03T09:09:18Z</time></trkpt><trkpt lat="43.11538323571741" lon="10.63964325828198"><ele>482.0</ele><time>2026-05-03T09:09:21Z</time></trkpt><trkpt lat="43.1154443516673" lon="10.639715565914733"><ele>481.0</ele><time>2026-05-03T09:09:24Z</time></trkpt><trkpt lat="43.11556153196802" lon="10.639818988186764"><ele>480.0</ele><time>2026-05-03T09:09:25Z</time></trkpt><trkpt lat="43.115631549206654" lon="10.639895089415457"><ele>480.0</ele><time>2026-05-03T09:09:26Z</time></trkpt><trkpt lat="43.11571711548723" lon="10.640025257643975"><ele>480.0</ele><time>2026-05-03T09:09:27Z</time></trkpt><trkpt lat="43.115782524369585" lon="10.640109716299275"><ele>480.0</ele><time>2026-05-03T09:09:28Z</time></trkpt><trkpt lat="43.1158683143458" lon="10.64020301356319"><ele>480.0</ele><time>2026-05-03T09:09:29Z</time></trkpt><trkpt lat="43.115927181788564" lon="10.640382296075071"><ele>478.6</ele><time>2026-05-03T09:09:30Z</time></trkpt><trkpt lat="43.115988747790524" lon="10.640510048062655"><ele>477.2</ele><time>2026-05-03T09:09:31Z</time></trkpt><trkpt lat="43.1160394630342" lon="10.640618505910227"><ele>475.79999999999995</ele><time>2026-05-03T09:09:32Z</time></trkpt><trkpt lat="43.11608280294317" lon="10.640739967973536"><ele>474.4</ele><time>2026-05-03T09:09:33Z</time></trkpt><trkpt lat="43.11613136944606" lon="10.640835348226252"><ele>473.0</ele><time>2026-05-03T09:09:34Z</time></trkpt><trkpt lat="43.11618558864002" lon="10.640929428092003"><ele>473.0</ele><time>2026-05-03T09:09:35Z</time></trkpt><trkpt lat="43.116236897646615" lon="10.641027287612621"><ele>472.99999999999994</ele><time>2026-05-03T09:09:38Z</time></trkpt><trkpt lat="43.11623650296808" lon="10.641116754797412"><ele>472.99999999999994</ele><time>2026-05-03T09:09:39Z</time></trkpt><trkpt lat="43.11607493332907" lon="10.641295208155517"><ele>473.0</ele><time>2026-05-03T09:09:40Z</time></trkpt><trkpt lat="43.11602712333931" lon="10.641383660544502"><ele>473.0</ele><time>2026-05-03T09:09:41Z</time></trkpt><trkpt lat="43.11596957361709" lon="10.641485602562218"><ele>472.4</ele><time>2026-05-03T09:09:42Z</time></trkpt><trkpt lat="43.115891110393626" lon="10.641606014055904"><ele>471.79999999999995</ele><time>2026-05-03T09:09:43Z</time></trkpt><trkpt lat="43.11581911769362" lon="10.641704948325582"><ele>471.2</ele><time>2026-05-03T09:09:44Z</time></trkpt><trkpt lat="43.11576133175462" lon="10.641775177696742"><ele>470.6</ele><time>2026-05-03T09:09:45Z</time></trkpt><trkpt lat="43.115663803981846" lon="10.641888407202785"><ele>470.0</ele><time>2026-05-03T09:09:47Z</time></trkpt><trkpt lat="43.115599476773234" lon="10.641945067222565"><ele>468.49999999999994</ele><time>2026-05-03T09:09:48Z</time></trkpt><trkpt lat="43.11554055842856" lon="10.64198891714694"><ele>467.0</ele><time>2026-05-03T09:09:49Z</time></trkpt><trkpt lat="43.115450662046825" lon="10.642044772810076"><ele>465.5</ele><time>2026-05-03T09:09:51Z</time></trkpt><trkpt lat="43.11539852162929" lon="10.6421004700395"><ele>464.0</ele><time>2026-05-03T09:09:52Z</time></trkpt><trkpt lat="43.115346567842" lon="10.642164520387599"><ele>462.49999999999994</ele><time>2026-05-03T09:09:53Z</time></trkpt><trkpt lat="43.11529391181453" lon="10.642228560420763"><ele>461.0</ele><time>2026-05-03T09:09:54Z</time></trkpt><trkpt lat="43.11524185811757" lon="10.642318771569531"><ele>460.99999999999994</ele><time>2026-05-03T09:09:55Z</time></trkpt><trkpt lat="43.1152096903713" lon="10.642415106298413"><ele>461.0</ele><time>2026-05-03T09:09:56Z</time></trkpt><trkpt lat="43.115174362349386" lon="10.64249995841971"><ele>461.0</ele><time>2026-05-03T09:09:57Z</time></trkpt><trkpt lat="43.1151233591079" lon="10.642602709166656"><ele>461.0</ele><time>2026-05-03T09:09:58Z</time></trkpt><trkpt lat="43.11508765147932" lon="10.642701558433583"><ele>460.99999999999994</ele><time>2026-05-03T09:10:00Z</time></trkpt><trkpt lat="43.11505111763493" lon="10.642778820656789"><ele>461.0</ele><time>2026-05-03T09:10:01Z</time></trkpt><trkpt lat="43.114979442475494" lon="10.642879525962408"><ele>461.16666666666663</ele><time>2026-05-03T09:10:03Z</time></trkpt><trkpt lat="43.114959781544194" lon="10.642996098479266"><ele>461.3333333333333</ele><time>2026-05-03T09:10:04Z</time></trkpt><trkpt lat="43.11493986567476" lon="10.643081993869743"><ele>461.5</ele><time>2026-05-03T09:10:05Z</time></trkpt><trkpt lat="43.11492886978743" lon="10.643176666722528"><ele>461.66666666666663</ele><time>2026-05-03T09:10:06Z</time></trkpt><trkpt lat="43.114922948811696" lon="10.64329170837635"><ele>461.8333333333333</ele><time>2026-05-03T09:10:07Z</time></trkpt><trkpt lat="43.114920120608254" lon="10.643403191577681"><ele>462.0</ele><time>2026-05-03T09:10:08Z</time></trkpt><trkpt lat="43.114903958294164" lon="10.643488622934345"><ele>459.20000000000005</ele><time>2026-05-03T09:10:09Z</time></trkpt><trkpt lat="43.11482147362454" lon="10.64357956033371"><ele>456.40000000000003</ele><time>2026-05-03T09:10:11Z</time></trkpt><trkpt lat="43.11469180907582" lon="10.643631305345314"><ele>453.59999999999997</ele><time>2026-05-03T09:10:13Z</time></trkpt><trkpt lat="43.11462303135955" lon="10.643637670644823"><ele>450.79999999999995</ele><time>2026-05-03T09:10:14Z</time></trkpt><trkpt lat="43.114542258046775" lon="10.643580985883995"><ele>448.0</ele><time>2026-05-03T09:10:15Z</time></trkpt><trkpt lat="43.114457168743726" lon="10.643601351126033"><ele>448.0</ele><time>2026-05-03T09:10:16Z</time></trkpt><trkpt lat="43.11440417503983" lon="10.643539656792768"><ele>447.99999999999994</ele><time>2026-05-03T09:10:17Z</time></trkpt><trkpt lat="43.11428145219779" lon="10.643506771718618"><ele>447.99999999999994</ele><time>2026-05-03T09:10:19Z</time></trkpt><trkpt lat="43.114220851193544" lon="10.643471787427348"><ele>448.0</ele><time>2026-05-03T09:10:20Z</time></trkpt><trkpt lat="43.114145561097104" lon="10.64347951737863"><ele>448.0</ele><time>2026-05-03T09:10:21Z</time></trkpt><trkpt lat="43.114026251600556" lon="10.643481161773053"><ele>446.2</ele><time>2026-05-03T09:10:23Z</time></trkpt><trkpt lat="43.11389388580611" lon="10.643488231683476"><ele>444.4</ele><time>2026-05-03T09:10:25Z</time></trkpt><trkpt lat="43.113795688721424" lon="10.643515540292965"><ele>442.59999999999997</ele><time>2026-05-03T09:10:26Z</time></trkpt><trkpt lat="43.113708650640085" lon="10.643510534243598"><ele>440.79999999999995</ele><time>2026-05-03T09:10:27Z</time></trkpt><trkpt lat="43.11362155351562" lon="10.643551964350095"><ele>439.0</ele><time>2026-05-03T09:10:29Z</time></trkpt><trkpt lat="43.11353122939662" lon="10.64362282098024"><ele>438.33333333333337</ele><time>2026-05-03T09:10:31Z</time></trkpt><trkpt lat="43.113484375618484" lon="10.643693314432047"><ele>437.6666666666667</ele><time>2026-05-03T09:10:32Z</time></trkpt><trkpt lat="43.113442405288794" lon="10.64378031072124"><ele>437.0</ele><time>2026-05-03T09:10:33Z</time></trkpt><trkpt lat="43.11340589725746" lon="10.643876590503439"><ele>436.33333333333337</ele><time>2026-05-03T09:10:34Z</time></trkpt><trkpt lat="43.11336946324732" lon="10.643978225058728"><ele>435.6666666666667</ele><time>2026-05-03T09:10:35Z</time></trkpt><trkpt lat="43.11332477269197" lon="10.644103980865081"><ele>435.0</ele><time>2026-05-03T09:10:36Z</time></trkpt><trkpt lat="43.113284359213615" lon="10.644228402067004"><ele>434.6666666666667</ele><time>2026-05-03T09:10:37Z</time></trkpt><trkpt lat="43.113227552614916" lon="10.64432558390968"><ele>434.33333333333337</ele><time>2026-05-03T09:10:38Z</time></trkpt><trkpt lat="43.11318045004993" lon="10.644420409868731"><ele>434.0</ele><time>2026-05-03T09:10:39Z</time></trkpt><trkpt lat="43.113128936064555" lon="10.64451282633825"><ele>433.6666666666667</ele><time>2026-05-03T09:10:40Z</time></trkpt><trkpt lat="43.11306595735703" lon="10.64461801667276"><ele>433.33333333333337</ele><time>2026-05-03T09:10:41Z</time></trkpt><trkpt lat="43.113023197235506" lon="10.644716400055268"><ele>433.0</ele><time>2026-05-03T09:10:42Z</time></trkpt><trkpt lat="43.11298696086283" lon="10.644791893805637"><ele>434.0</ele><time>2026-05-03T09:10:43Z</time></trkpt><trkpt lat="43.11290147228837" lon="10.644869244771876"><ele>434.99999999999994</ele><time>2026-05-03T09:10:45Z</time></trkpt><trkpt lat="43.11285453828975" lon="10.644975861088355"><ele>435.99999999999994</ele><time>2026-05-03T09:10:47Z</time></trkpt><trkpt lat="43.112905354321875" lon="10.645123211347938"><ele>437.0</ele><time>2026-05-03T09:10:49Z</time></trkpt><trkpt lat="43.112873471642814" lon="10.645235572700294"><ele>438.0</ele><time>2026-05-03T09:10:51Z</time></trkpt><trkpt lat="43.11281689004946" lon="10.645336377719543"><ele>438.0</ele><time>2026-05-03T09:10:53Z</time></trkpt><trkpt lat="43.11278223778699" lon="10.64541453062455"><ele>438.0</ele><time>2026-05-03T09:10:54Z</time></trkpt><trkpt lat="43.112746823285924" lon="10.645504343587953"><ele>438.0</ele><time>2026-05-03T09:10:55Z</time></trkpt><trkpt lat="43.112782350890484" lon="10.645606010506516"><ele>438.0</ele><time>2026-05-03T09:10:58Z</time></trkpt><trkpt lat="43.11289298807496" lon="10.645640650001585"><ele>438.0</ele><time>2026-05-03T09:11:00Z</time></trkpt><trkpt lat="43.11296953208243" lon="10.645656502806348"><ele>438.0</ele><time>2026-05-03T09:11:03Z</time></trkpt><trkpt lat="43.11303510883653" lon="10.645662738831206"><ele>438.0</ele><time>2026-05-03T09:11:05Z</time></trkpt><trkpt lat="43.1131112619004" lon="10.64565668858141"><ele>438.0</ele><time>2026-05-03T09:11:07Z</time></trkpt><trkpt lat="43.113180146293104" lon="10.645728608949396"><ele>438.0</ele><time>2026-05-03T09:11:09Z</time></trkpt><trkpt lat="43.11326412228523" lon="10.645786883112853"><ele>438.0</ele><time>2026-05-03T09:11:11Z</time></trkpt><trkpt lat="43.1133341044177" lon="10.645867243154068"><ele>438.0</ele><time>2026-05-03T09:11:14Z</time></trkpt><trkpt lat="43.11339696213759" lon="10.645879575564821"><ele>438.0</ele><time>2026-05-03T09:11:16Z</time></trkpt><trkpt lat="43.11347958986431" lon="10.64589330020618"><ele>436.5</ele><time>2026-05-03T09:11:18Z</time></trkpt><trkpt lat="43.11354566647742" lon="10.645914462176052"><ele>435.0</ele><time>2026-05-03T09:11:21Z</time></trkpt><trkpt lat="43.1136166991736" lon="10.645930079168279"><ele>433.5</ele><time>2026-05-03T09:11:24Z</time></trkpt><trkpt lat="43.113694860747586" lon="10.646034897819884"><ele>432.0</ele><time>2026-05-03T09:11:27Z</time></trkpt><trkpt lat="43.11373414355877" lon="10.646163756387534"><ele>430.5</ele><time>2026-05-03T09:11:29Z</time></trkpt><trkpt lat="43.11376207001195" lon="10.646272384847796"><ele>429.0</ele><time>2026-05-03T09:11:31Z</time></trkpt><trkpt lat="43.1137865775541" lon="10.64637191271007"><ele>427.1666666666667</ele><time>2026-05-03T09:11:33Z</time></trkpt><trkpt lat="43.11381130929557" lon="10.646516550488352"><ele>425.33333333333337</ele><time>2026-05-03T09:11:36Z</time></trkpt><trkpt lat="43.113868298829914" lon="10.646608283447565"><ele>423.5</ele><time>2026-05-03T09:11:39Z</time></trkpt><trkpt lat="43.113866466740674" lon="10.646707212004594"><ele>421.6666666666667</ele><time>2026-05-03T09:11:41Z</time></trkpt><trkpt lat="43.113854206976036" lon="10.646792238870507"><ele>419.83333333333337</ele><time>2026-05-03T09:11:43Z</time></trkpt><trkpt lat="43.11376002757832" lon="10.646805329528014"><ele>418.0</ele><time>2026-05-03T09:11:45Z</time></trkpt><trkpt lat="43.113685873374706" lon="10.646788376408669"><ele>418.00000000000006</ele><time>2026-05-03T09:11:46Z</time></trkpt><trkpt lat="43.11361259679538" lon="10.64679396149165"><ele>418.0</ele><time>2026-05-03T09:11:47Z</time></trkpt><trkpt lat="43.113525282751816" lon="10.646754411224496"><ele>418.0</ele><time>2026-05-03T09:11:49Z</time></trkpt><trkpt lat="43.11347386978383" lon="10.646704408110528"><ele>418.0</ele><time>2026-05-03T09:11:50Z</time></trkpt><trkpt lat="43.11340831371784" lon="10.646708633405584"><ele>418.00000000000006</ele><time>2026-05-03T09:11:51Z</time></trkpt><trkpt lat="43.113360557201005" lon="10.646785961469327"><ele>418.0</ele><time>2026-05-03T09:11:53Z</time></trkpt><trkpt lat="43.1133802823071" lon="10.6468986229489"><ele>416.33333333333337</ele><time>2026-05-03T09:11:55Z</time></trkpt><trkpt lat="43.113449087116926" lon="10.647007987669587"><ele>414.6666666666667</ele><time>2026-05-03T09:11:57Z</time></trkpt><trkpt lat="43.11349783252782" lon="10.647076687916348"><ele>413.0</ele><time>2026-05-03T09:12:01Z</time></trkpt><trkpt lat="43.113540858251035" lon="10.647175204262993"><ele>411.33333333333337</ele><time>2026-05-03T09:12:05Z</time></trkpt><trkpt lat="43.113579311285854" lon="10.647286988831112"><ele>409.6666666666667</ele><time>2026-05-03T09:12:08Z</time></trkpt><trkpt lat="43.11360907928656" lon="10.647388303592525"><ele>408.0</ele><time>2026-05-03T09:12:10Z</time></trkpt><trkpt lat="43.113660164754236" lon="10.647511761413208"><ele>408.0</ele><time>2026-05-03T09:12:12Z</time></trkpt><trkpt lat="43.11369243590637" lon="10.647586575652973"><ele>408.0</ele><time>2026-05-03T09:12:13Z</time></trkpt><trkpt lat="43.11373327345548" lon="10.647658289095313"><ele>408.0</ele><time>2026-05-03T09:12:14Z</time></trkpt><trkpt lat="43.113768450485175" lon="10.647732233624405"><ele>408.0</ele><time>2026-05-03T09:12:15Z</time></trkpt><trkpt lat="43.11381762066909" lon="10.647790088265475"><ele>408.0</ele><time>2026-05-03T09:12:17Z</time></trkpt><trkpt lat="43.11379432490753" lon="10.647873680537304"><ele>408.0</ele><time>2026-05-03T09:12:20Z</time></trkpt><trkpt lat="43.11381900945767" lon="10.64798271697378"><ele>408.0</ele><time>2026-05-03T09:12:22Z</time></trkpt><trkpt lat="43.11379273169721" lon="10.648107526191962"><ele>406.5</ele><time>2026-05-03T09:12:24Z</time></trkpt><trkpt lat="43.11379383799662" lon="10.648217248276884"><ele>405.0</ele><time>2026-05-03T09:12:26Z</time></trkpt><trkpt lat="43.11380719620941" lon="10.648303734685431"><ele>403.5</ele><time>2026-05-03T09:12:28Z</time></trkpt><trkpt lat="43.1137678738768" lon="10.648394771442865"><ele>402.0</ele><time>2026-05-03T09:12:31Z</time></trkpt><trkpt lat="43.11379220150058" lon="10.648490301810915"><ele>400.5</ele><time>2026-05-03T09:12:32Z</time></trkpt><trkpt lat="43.11382066400991" lon="10.648593534752333"><ele>399.0</ele><time>2026-05-03T09:12:34Z</time></trkpt><trkpt lat="43.113853565781746" lon="10.648719039917594"><ele>395.79999999999995</ele><time>2026-05-03T09:12:37Z</time></trkpt><trkpt lat="43.113874656896805" lon="10.648894109827149"><ele>392.59999999999997</ele><time>2026-05-03T09:12:40Z</time></trkpt><trkpt lat="43.11392896462683" lon="10.648987694578382"><ele>389.4</ele><time>2026-05-03T09:12:42Z</time></trkpt><trkpt lat="43.11399859825273" lon="10.649066904933507"><ele>386.2</ele><time>2026-05-03T09:12:46Z</time></trkpt><trkpt lat="43.11409164983321" lon="10.649082571715077"><ele>383.0</ele><time>2026-05-03T09:12:48Z</time></trkpt><trkpt lat="43.114151857771866" lon="10.64919227595812"><ele>383.0</ele><time>2026-05-03T09:12:50Z</time></trkpt><trkpt lat="43.114617482094324" lon="10.649204839324284"><ele>383.0</ele><time>2026-05-03T09:12:52Z</time></trkpt><trkpt lat="43.114702730522914" lon="10.649216803299826"><ele>383.0</ele><time>2026-05-03T09:12:53Z</time></trkpt><trkpt lat="43.114811326369896" lon="10.649173414946398"><ele>383.0</ele><time>2026-05-03T09:12:54Z</time></trkpt><trkpt lat="43.11491704274664" lon="10.649141982948766"><ele>383.0</ele><time>2026-05-03T09:12:55Z</time></trkpt><trkpt lat="43.1149944389229" lon="10.649115024823073"><ele>383.0</ele><time>2026-05-03T09:12:57Z</time></trkpt><trkpt lat="43.115071080088214" lon="10.649074858873773"><ele>382.0</ele><time>2026-05-03T09:12:58Z</time></trkpt><trkpt lat="43.11514382714445" lon="10.649001771035536"><ele>381.0</ele><time>2026-05-03T09:12:59Z</time></trkpt><trkpt lat="43.115226024651534" lon="10.648928946725157"><ele>380.0</ele><time>2026-05-03T09:13:00Z</time></trkpt><trkpt lat="43.11530441407681" lon="10.648885930499263"><ele>379.0</ele><time>2026-05-03T09:13:01Z</time></trkpt><trkpt lat="43.115388689315274" lon="10.648925179927435"><ele>378.0</ele><time>2026-05-03T09:13:02Z</time></trkpt><trkpt lat="43.11546445798519" lon="10.648910969384785"><ele>377.0</ele><time>2026-05-03T09:13:03Z</time></trkpt><trkpt lat="43.115526081556744" lon="10.648868138318461"><ele>377.0</ele><time>2026-05-03T09:13:04Z</time></trkpt><trkpt lat="43.115610880117615" lon="10.648771501078748"><ele>377.0</ele><time>2026-05-03T09:13:06Z</time></trkpt><trkpt lat="43.11563012198102" lon="10.648689159113287"><ele>377.0</ele><time>2026-05-03T09:13:07Z</time></trkpt><trkpt lat="43.115648824789396" lon="10.648546662394933"><ele>377.0</ele><time>2026-05-03T09:13:10Z</time></trkpt><trkpt lat="43.115676257728914" lon="10.648436412197537"><ele>377.0</ele><time>2026-05-03T09:13:12Z</time></trkpt><trkpt lat="43.11571594566886" lon="10.648336141508796"><ele>377.0</ele><time>2026-05-03T09:13:15Z</time></trkpt><trkpt lat="43.1158569055712" lon="10.648200004345599"><ele>374.33333333333337</ele><time>2026-05-03T09:13:21Z</time></trkpt><trkpt lat="43.11585503121865" lon="10.648522643224386"><ele>371.6666666666667</ele><time>2026-05-03T09:13:22Z</time></trkpt><trkpt lat="43.11586674305192" lon="10.648701555469108"><ele>369.0</ele><time>2026-05-03T09:13:24Z</time></trkpt><trkpt lat="43.11590077041614" lon="10.648808064720535"><ele>368.1666666666667</ele><time>2026-05-03T09:13:25Z</time></trkpt><trkpt lat="43.11594215689692" lon="10.648897586251922"><ele>367.3333333333333</ele><time>2026-05-03T09:13:26Z</time></trkpt><trkpt lat="43.11595416238277" lon="10.648991289292004"><ele>366.5</ele><time>2026-05-03T09:13:27Z</time></trkpt><trkpt lat="43.11593223028633" lon="10.64913193164234"><ele>365.66666666666663</ele><time>2026-05-03T09:13:29Z</time></trkpt><trkpt lat="43.115879184675656" lon="10.649232789607582"><ele>364.8333333333333</ele><time>2026-05-03T09:13:30Z</time></trkpt><trkpt lat="43.115801558109695" lon="10.64932329250352"><ele>364.0</ele><time>2026-05-03T09:13:31Z</time></trkpt><trkpt lat="43.115719386095314" lon="10.649387497389572"><ele>363.16666666666663</ele><time>2026-05-03T09:13:32Z</time></trkpt><trkpt lat="43.11565964173905" lon="10.649450259902244"><ele>362.3333333333333</ele><time>2026-05-03T09:13:33Z</time></trkpt><trkpt lat="43.11562649508164" lon="10.649540428258199"><ele>361.5</ele><time>2026-05-03T09:13:34Z</time></trkpt><trkpt lat="43.115593093070515" lon="10.64964551465504"><ele>360.6666666666667</ele><time>2026-05-03T09:13:35Z</time></trkpt><trkpt lat="43.115570230020026" lon="10.64978275489955"><ele>359.83333333333337</ele><time>2026-05-03T09:13:36Z</time></trkpt><trkpt lat="43.115568223627534" lon="10.649894432332568"><ele>359.0</ele><time>2026-05-03T09:13:37Z</time></trkpt><trkpt lat="43.115530055358946" lon="10.65001289726625"><ele>359.0</ele><time>2026-05-03T09:13:39Z</time></trkpt><trkpt lat="43.11545567363172" lon="10.650124658068673"><ele>359.0</ele><time>2026-05-03T09:13:41Z</time></trkpt><trkpt lat="43.11533230804105" lon="10.65021112744591"><ele>359.0</ele><time>2026-05-03T09:13:43Z</time></trkpt><trkpt lat="43.11522764992898" lon="10.650242716613594"><ele>359.0</ele><time>2026-05-03T09:13:44Z</time></trkpt><trkpt lat="43.11514261685186" lon="10.650290558831992"><ele>359.0</ele><time>2026-05-03T09:13:45Z</time></trkpt><trkpt lat="43.11505591080033" lon="10.650334357420592"><ele>358.5</ele><time>2026-05-03T09:13:46Z</time></trkpt><trkpt lat="43.11495786679179" lon="10.650360571234819"><ele>358.0</ele><time>2026-05-03T09:13:47Z</time></trkpt><trkpt lat="43.114863943466766" lon="10.650383353598034"><ele>357.5</ele><time>2026-05-03T09:13:48Z</time></trkpt><trkpt lat="43.114790236233624" lon="10.650408311589974"><ele>357.0</ele><time>2026-05-03T09:13:49Z</time></trkpt><trkpt lat="43.114726160839595" lon="10.650446399621769"><ele>356.5</ele><time>2026-05-03T09:13:50Z</time></trkpt><trkpt lat="43.11467232387199" lon="10.650503634338977"><ele>356.0</ele><time>2026-05-03T09:13:51Z</time></trkpt><trkpt lat="43.11463122286804" lon="10.650579061058654"><ele>356.0</ele><time>2026-05-03T09:13:52Z</time></trkpt><trkpt lat="43.11459923003064" lon="10.650675296456036"><ele>356.0</ele><time>2026-05-03T09:13:53Z</time></trkpt><trkpt lat="43.114579390492146" lon="10.650785581718564"><ele>356.0</ele><time>2026-05-03T09:13:54Z</time></trkpt><trkpt lat="43.11457408775963" lon="10.65087205180474"><ele>356.0</ele><time>2026-05-03T09:13:55Z</time></trkpt><trkpt lat="43.114554653143784" lon="10.650955747296898"><ele>356.0</ele><time>2026-05-03T09:13:56Z</time></trkpt><trkpt lat="43.114534878437745" lon="10.651046954896865"><ele>356.0</ele><time>2026-05-03T09:13:57Z</time></trkpt><trkpt lat="43.11448198227744" lon="10.651175078601119"><ele>352.8</ele><time>2026-05-03T09:13:59Z</time></trkpt><trkpt lat="43.11439552900791" lon="10.651251376666389"><ele>349.6</ele><time>2026-05-03T09:14:01Z</time></trkpt><trkpt lat="43.11434476662651" lon="10.651304934719866"><ele>346.4</ele><time>2026-05-03T09:14:02Z</time></trkpt><trkpt lat="43.11429931931767" lon="10.651369192774336"><ele>343.2</ele><time>2026-05-03T09:14:03Z</time></trkpt><trkpt lat="43.11423189855791" lon="10.651448147897092"><ele>340.0</ele><time>2026-05-03T09:14:05Z</time></trkpt><trkpt lat="43.11414822177216" lon="10.651582373288504"><ele>340.0</ele><time>2026-05-03T09:14:07Z</time></trkpt><trkpt lat="43.11408248821799" lon="10.65170323955402"><ele>340.0</ele><time>2026-05-03T09:14:09Z</time></trkpt><trkpt lat="43.11401352955325" lon="10.651839499004913"><ele>340.0</ele><time>2026-05-03T09:14:11Z</time></trkpt><trkpt lat="43.113964916548554" lon="10.651944096162508"><ele>340.0</ele><time>2026-05-03T09:14:12Z</time></trkpt><trkpt lat="43.1139272573974" lon="10.652029944507833"><ele>340.0</ele><time>2026-05-03T09:14:13Z</time></trkpt><trkpt lat="43.11386190481526" lon="10.652132371740356"><ele>340.0</ele><time>2026-05-03T09:14:15Z</time></trkpt><trkpt lat="43.113782565294024" lon="10.65226659954464"><ele>340.0</ele><time>2026-05-03T09:14:17Z</time></trkpt><trkpt lat="43.113736286679575" lon="10.652332803996897"><ele>340.0</ele><time>2026-05-03T09:14:18Z</time></trkpt><trkpt lat="43.113692770317705" lon="10.652397073696205"><ele>340.0</ele><time>2026-05-03T09:14:19Z</time></trkpt><trkpt lat="43.11361816786324" lon="10.65248909918533"><ele>340.0</ele><time>2026-05-03T09:14:21Z</time></trkpt><trkpt lat="43.11356988839235" lon="10.652583965976453"><ele>340.0</ele><time>2026-05-03T09:14:23Z</time></trkpt><trkpt lat="43.11351883140482" lon="10.652688306289539"><ele>338.4</ele><time>2026-05-03T09:14:25Z</time></trkpt><trkpt lat="43.1134499152511" lon="10.65281773984815"><ele>336.8</ele><time>2026-05-03T09:14:27Z</time></trkpt><trkpt lat="43.11335165083455" lon="10.652893501759426"><ele>335.20000000000005</ele><time>2026-05-03T09:14:29Z</time></trkpt><trkpt lat="43.11327210265231" lon="10.652976361337926"><ele>333.6</ele><time>2026-05-03T09:14:31Z</time></trkpt><trkpt lat="43.113191793131186" lon="10.653017351463525"><ele>332.0</ele><time>2026-05-03T09:14:32Z</time></trkpt><trkpt lat="43.11311988753266" lon="10.653059627296171"><ele>332.0</ele><time>2026-05-03T09:14:33Z</time></trkpt><trkpt lat="43.11306816228279" lon="10.653116402428967"><ele>332.0</ele><time>2026-05-03T09:14:34Z</time></trkpt><trkpt lat="43.11301681328392" lon="10.653177696330271"><ele>332.0</ele><time>2026-05-03T09:14:35Z</time></trkpt><trkpt lat="43.11296239456642" lon="10.65323632058794"><ele>332.0</ele><time>2026-05-03T09:14:36Z</time></trkpt><trkpt lat="43.11289017805071" lon="10.653271260751293"><ele>332.0</ele><time>2026-05-03T09:14:37Z</time></trkpt><trkpt lat="43.11282142102559" lon="10.653296020942504"><ele>332.0</ele><time>2026-05-03T09:14:38Z</time></trkpt><trkpt lat="43.112752643173565" lon="10.653299440070334"><ele>332.0</ele><time>2026-05-03T09:14:39Z</time></trkpt><trkpt lat="43.11268373071038" lon="10.653286569323805"><ele>332.0</ele><time>2026-05-03T09:14:40Z</time></trkpt><trkpt lat="43.11261950298109" lon="10.653285558057869"><ele>332.0</ele><time>2026-05-03T09:14:41Z</time></trkpt><trkpt lat="43.112548539150275" lon="10.653296688788851"><ele>332.0</ele><time>2026-05-03T09:14:42Z</time></trkpt><trkpt lat="43.11248045157051" lon="10.653348756448471"><ele>332.0</ele><time>2026-05-03T09:14:43Z</time></trkpt><trkpt lat="43.112415099782204" lon="10.653479225765036"><ele>332.0</ele><time>2026-05-03T09:14:45Z</time></trkpt><trkpt lat="43.11237492105363" lon="10.653576725118128"><ele>332.0</ele><time>2026-05-03T09:14:46Z</time></trkpt><trkpt lat="43.112341885733784" lon="10.653704346371104"><ele>331.6666666666667</ele><time>2026-05-03T09:14:47Z</time></trkpt><trkpt lat="43.112317147914" lon="10.653805753968964"><ele>331.33333333333337</ele><time>2026-05-03T09:14:48Z</time></trkpt><trkpt lat="43.112271610225896" lon="10.65391463925845"><ele>331.0</ele><time>2026-05-03T09:14:49Z</time></trkpt><trkpt lat="43.112211002469394" lon="10.654005333574254"><ele>330.6666666666667</ele><time>2026-05-03T09:14:50Z</time></trkpt><trkpt lat="43.112159495472156" lon="10.654061880098286"><ele>330.3333333333333</ele><time>2026-05-03T09:14:51Z</time></trkpt><trkpt lat="43.112110274987224" lon="10.654121933154364"><ele>330.0</ele><time>2026-05-03T09:14:52Z</time></trkpt><trkpt lat="43.112051978283006" lon="10.654166614657269"><ele>330.0</ele><time>2026-05-03T09:14:53Z</time></trkpt><trkpt lat="43.11198991909161" lon="10.654193918583607"><ele>330.0</ele><time>2026-05-03T09:14:54Z</time></trkpt><trkpt lat="43.111913051736686" lon="10.654220990532625"><ele>330.0</ele><time>2026-05-03T09:14:55Z</time></trkpt><trkpt lat="43.111852934285366" lon="10.65428133845913"><ele>330.0</ele><time>2026-05-03T09:14:56Z</time></trkpt><trkpt lat="43.1118198099725" lon="10.654354864750923"><ele>330.0</ele><time>2026-05-03T09:14:57Z</time></trkpt><trkpt lat="43.11179834679963" lon="10.654455380151463"><ele>330.0</ele><time>2026-05-03T09:14:58Z</time></trkpt><trkpt lat="43.11178882528036" lon="10.65459021424903"><ele>327.6666666666667</ele><time>2026-05-03T09:14:59Z</time></trkpt><trkpt lat="43.11179798598539" lon="10.654702023941528"><ele>325.3333333333333</ele><time>2026-05-03T09:15:00Z</time></trkpt><trkpt lat="43.11178587229788" lon="10.65484089502291"><ele>323.0</ele><time>2026-05-03T09:15:01Z</time></trkpt><trkpt lat="43.111764199267" lon="10.654962318169185"><ele>320.66666666666663</ele><time>2026-05-03T09:15:02Z</time></trkpt><trkpt lat="43.11173576335775" lon="10.65506694188982"><ele>318.3333333333333</ele><time>2026-05-03T09:15:03Z</time></trkpt><trkpt lat="43.111723180987994" lon="10.65515427611704"><ele>316.0</ele><time>2026-05-03T09:15:04Z</time></trkpt><trkpt lat="43.11170256956983" lon="10.655280446222742"><ele>317.0</ele><time>2026-05-03T09:15:06Z</time></trkpt><trkpt lat="43.11164246197276" lon="10.655400163545853"><ele>318.0</ele><time>2026-05-03T09:15:08Z</time></trkpt><trkpt lat="43.11155858391727" lon="10.655555945093054"><ele>319.0</ele><time>2026-05-03T09:15:10Z</time></trkpt><trkpt lat="43.11152791544795" lon="10.655634257181564"><ele>320.0</ele><time>2026-05-03T09:16:34Z</time></trkpt><trkpt lat="43.11164648045683" lon="10.655614858358105"><ele>321.0</ele><time>2026-05-03T09:16:37Z</time></trkpt><trkpt lat="43.111722288689776" lon="10.655474884028136"><ele>319.75</ele><time>2026-05-03T09:16:38Z</time></trkpt><trkpt lat="43.11178455978011" lon="10.655367373715663"><ele>318.5</ele><time>2026-05-03T09:16:39Z</time></trkpt><trkpt lat="43.111829107919476" lon="10.655220455443903"><ele>317.25</ele><time>2026-05-03T09:16:40Z</time></trkpt><trkpt lat="43.111883534903605" lon="10.655043749689638"><ele>316.0</ele><time>2026-05-03T09:16:41Z</time></trkpt><trkpt lat="43.111933097860025" lon="10.654873211286016"><ele>316.0</ele><time>2026-05-03T09:16:42Z</time></trkpt><trkpt lat="43.11198439881782" lon="10.654682539606053"><ele>316.0</ele><time>2026-05-03T09:16:43Z</time></trkpt><trkpt lat="43.11202890253537" lon="10.654525575821483"><ele>316.0</ele><time>2026-05-03T09:16:45Z</time></trkpt><trkpt lat="43.11209914649712" lon="10.654533557412638"><ele>316.0</ele><time>2026-05-03T09:16:46Z</time></trkpt><trkpt lat="43.112187870917765" lon="10.654553444017647"><ele>316.0</ele><time>2026-05-03T09:16:47Z</time></trkpt><trkpt lat="43.11228320644095" lon="10.654637900045994"><ele>316.0</ele><time>2026-05-03T09:16:48Z</time></trkpt><trkpt lat="43.11234775284019" lon="10.654782770988337"><ele>316.0</ele><time>2026-05-03T09:16:49Z</time></trkpt><trkpt lat="43.112424779453455" lon="10.654937793176936"><ele>316.0</ele><time>2026-05-03T09:16:50Z</time></trkpt><trkpt lat="43.11250451459908" lon="10.65505423474585"><ele>316.0</ele><time>2026-05-03T09:16:51Z</time></trkpt><trkpt lat="43.1125512937887" lon="10.655165633849222"><ele>313.8</ele><time>2026-05-03T09:16:52Z</time></trkpt><trkpt lat="43.112601566004976" lon="10.655219928801035"><ele>311.6</ele><time>2026-05-03T09:16:53Z</time></trkpt><trkpt lat="43.11267855504685" lon="10.655103183756564"><ele>309.4</ele><time>2026-05-03T09:16:55Z</time></trkpt><trkpt lat="43.11274701160983" lon="10.655045333762747"><ele>307.2</ele><time>2026-05-03T09:16:56Z</time></trkpt><trkpt lat="43.11278795760165" lon="10.654903981499498"><ele>305.0</ele><time>2026-05-03T09:16:57Z</time></trkpt><trkpt lat="43.11277799433769" lon="10.654781549717777"><ele>305.0</ele><time>2026-05-03T09:16:58Z</time></trkpt><trkpt lat="43.11276685871688" lon="10.654657870579133"><ele>305.0</ele><time>2026-05-03T09:16:59Z</time></trkpt><trkpt lat="43.11275639148675" lon="10.654523889016774"><ele>305.0</ele><time>2026-05-03T09:17:00Z</time></trkpt><trkpt lat="43.112735273585635" lon="10.654381618590667"><ele>305.0</ele><time>2026-05-03T09:17:01Z</time></trkpt><trkpt lat="43.112704703781915" lon="10.654228939248702"><ele>305.0</ele><time>2026-05-03T09:17:02Z</time></trkpt><trkpt lat="43.11267299429737" lon="10.65407500617882"><ele>307.6</ele><time>2026-05-03T09:17:03Z</time></trkpt><trkpt lat="43.11265397202898" lon="10.653952943903997"><ele>310.2</ele><time>2026-05-03T09:17:04Z</time></trkpt><trkpt lat="43.11270200061415" lon="10.653828458885927"><ele>312.8</ele><time>2026-05-03T09:17:06Z</time></trkpt><trkpt lat="43.11278703834992" lon="10.653796284656055"><ele>315.4</ele><time>2026-05-03T09:17:07Z</time></trkpt><trkpt lat="43.112881518171406" lon="10.65385556841657"><ele>318.0</ele><time>2026-05-03T09:17:08Z</time></trkpt><trkpt lat="43.112970288396674" lon="10.653886925076526"><ele>318.0</ele><time>2026-05-03T09:17:09Z</time></trkpt><trkpt lat="43.11311017264061" lon="10.653876344144342"><ele>318.0</ele><time>2026-05-03T09:17:11Z</time></trkpt><trkpt lat="43.11318271023201" lon="10.653799317595869"><ele>318.0</ele><time>2026-05-03T09:17:12Z</time></trkpt><trkpt lat="43.11324907363815" lon="10.65367518275769"><ele>318.0</ele><time>2026-05-03T09:17:13Z</time></trkpt><trkpt lat="43.11332536723084" lon="10.653530647592966"><ele>319.0</ele><time>2026-05-03T09:17:14Z</time></trkpt><trkpt lat="43.11343867032331" lon="10.65342415426519"><ele>320.0</ele><time>2026-05-03T09:17:15Z</time></trkpt><trkpt lat="43.11354538395431" lon="10.653343756541327"><ele>321.0</ele><time>2026-05-03T09:17:16Z</time></trkpt><trkpt lat="43.11363192685963" lon="10.65326449532127"><ele>322.0</ele><time>2026-05-03T09:17:17Z</time></trkpt><trkpt lat="43.11369929573712" lon="10.653217424134066"><ele>323.0</ele><time>2026-05-03T09:17:18Z</time></trkpt><trkpt lat="43.11378823160459" lon="10.653207904471737"><ele>323.0</ele><time>2026-05-03T09:17:20Z</time></trkpt><trkpt lat="43.11382777373128" lon="10.653311334152184"><ele>323.0</ele><time>2026-05-03T09:17:21Z</time></trkpt><trkpt lat="43.11382315755713" lon="10.65343521515211"><ele>323.0</ele><time>2026-05-03T09:17:22Z</time></trkpt><trkpt lat="43.11378839546365" lon="10.653574614577671"><ele>323.0</ele><time>2026-05-03T09:17:23Z</time></trkpt><trkpt lat="43.11375921764483" lon="10.653742832253569"><ele>323.0</ele><time>2026-05-03T09:17:24Z</time></trkpt><trkpt lat="43.11372701639812" lon="10.653925822163446"><ele>320.4</ele><time>2026-05-03T09:17:25Z</time></trkpt><trkpt lat="43.11370012070321" lon="10.654092245460115"><ele>317.79999999999995</ele><time>2026-05-03T09:17:26Z</time></trkpt><trkpt lat="43.11368993301419" lon="10.654239965155954"><ele>315.2</ele><time>2026-05-03T09:17:27Z</time></trkpt><trkpt lat="43.11369802257687" lon="10.654371146978535"><ele>312.6</ele><time>2026-05-03T09:17:28Z</time></trkpt><trkpt lat="43.113726448277326" lon="10.654495822270592"><ele>310.0</ele><time>2026-05-03T09:17:29Z</time></trkpt><trkpt lat="43.11377769456403" lon="10.654601211543222"><ele>310.57142857142856</ele><time>2026-05-03T09:17:30Z</time></trkpt><trkpt lat="43.113826535959866" lon="10.654690384152042"><ele>311.1428571428571</ele><time>2026-05-03T09:17:31Z</time></trkpt><trkpt lat="43.1138806854669" lon="10.654758726743019"><ele>311.71428571428567</ele><time>2026-05-03T09:17:32Z</time></trkpt><trkpt lat="43.11393812242425" lon="10.65482021850884"><ele>312.2857142857143</ele><time>2026-05-03T09:17:33Z</time></trkpt><trkpt lat="43.113997758843794" lon="10.654882676950061"><ele>312.85714285714283</ele><time>2026-05-03T09:17:34Z</time></trkpt><trkpt lat="43.114058579115955" lon="10.654931911184248"><ele>313.4285714285714</ele><time>2026-05-03T09:17:35Z</time></trkpt><trkpt lat="43.114109038632186" lon="10.654997066906843"><ele>314.0</ele><time>2026-05-03T09:17:37Z</time></trkpt><trkpt lat="43.11417841947145" lon="10.655046730916922"><ele>314.0</ele><time>2026-05-03T09:17:50Z</time></trkpt><trkpt lat="43.114222476253815" lon="10.655123787437397"><ele>314.0</ele><time>2026-05-03T09:17:51Z</time></trkpt><trkpt lat="43.11427697383794" lon="10.655168415792403"><ele>314.0</ele><time>2026-05-03T09:17:52Z</time></trkpt><trkpt lat="43.11433818093419" lon="10.655229840418192"><ele>314.0</ele><time>2026-05-03T09:17:53Z</time></trkpt><trkpt lat="43.11441046249089" lon="10.655287587704374"><ele>314.0</ele><time>2026-05-03T09:17:54Z</time></trkpt><trkpt lat="43.11450731173568" lon="10.655362263022807"><ele>314.0</ele><time>2026-05-03T09:17:55Z</time></trkpt><trkpt lat="43.11462129396983" lon="10.655445099946062"><ele>310.83333333333337</ele><time>2026-05-03T09:17:57Z</time></trkpt><trkpt lat="43.11469424435771" lon="10.655402596931822"><ele>307.6666666666667</ele><time>2026-05-03T09:17:58Z</time></trkpt><trkpt lat="43.114794512165204" lon="10.6554290851957"><ele>304.5</ele><time>2026-05-03T09:18:00Z</time></trkpt><trkpt lat="43.1148603625752" lon="10.655434940342717"><ele>301.3333333333333</ele><time>2026-05-03T09:18:02Z</time></trkpt><trkpt lat="43.11486179730737" lon="10.655564515020167"><ele>298.16666666666663</ele><time>2026-05-03T09:18:05Z</time></trkpt><trkpt lat="43.1148029011776" lon="10.655652427237873"><ele>295.0</ele><time>2026-05-03T09:18:06Z</time></trkpt><trkpt lat="43.11477620718073" lon="10.655756761361223"><ele>295.0</ele><time>2026-05-03T09:18:07Z</time></trkpt><trkpt lat="43.114709207550625" lon="10.655880948084684"><ele>295.0</ele><time>2026-05-03T09:18:09Z</time></trkpt><trkpt lat="43.114754246519844" lon="10.655996578633546"><ele>295.0</ele><time>2026-05-03T09:18:12Z</time></trkpt><trkpt lat="43.11482209900737" lon="10.656012293172662"><ele>295.0</ele><time>2026-05-03T09:18:13Z</time></trkpt><trkpt lat="43.11489087968578" lon="10.655982828137093"><ele>295.0</ele><time>2026-05-03T09:18:14Z</time></trkpt><trkpt lat="43.11496874544212" lon="10.65591515646309"><ele>295.0</ele><time>2026-05-03T09:18:15Z</time></trkpt><trkpt lat="43.11503764317412" lon="10.65585497206735"><ele>295.2</ele><time>2026-05-03T09:18:16Z</time></trkpt><trkpt lat="43.115096692936106" lon="10.655809261188637"><ele>295.4</ele><time>2026-05-03T09:18:17Z</time></trkpt><trkpt lat="43.115177252319" lon="10.655739256224328"><ele>295.6</ele><time>2026-05-03T09:18:19Z</time></trkpt><trkpt lat="43.11523403552846" lon="10.655632903467694"><ele>295.8</ele><time>2026-05-03T09:18:21Z</time></trkpt><trkpt lat="43.11526854746449" lon="10.655554386677254"><ele>296.0</ele><time>2026-05-03T09:18:23Z</time></trkpt><trkpt lat="43.11530708591365" lon="10.65571592435994"><ele>296.0</ele><time>2026-05-03T09:18:27Z</time></trkpt><trkpt lat="43.115278489577534" lon="10.655851447638586"><ele>296.0</ele><time>2026-05-03T09:18:28Z</time></trkpt><trkpt lat="43.115239182652296" lon="10.655991984320991"><ele>296.0</ele><time>2026-05-03T09:18:29Z</time></trkpt><trkpt lat="43.11520816039899" lon="10.656111473969586"><ele>296.0</ele><time>2026-05-03T09:18:30Z</time></trkpt><trkpt lat="43.115185356173015" lon="10.656227650767914"><ele>296.0</ele><time>2026-05-03T09:18:31Z</time></trkpt><trkpt lat="43.1151698820005" lon="10.656344923115313"><ele>293.5</ele><time>2026-05-03T09:18:32Z</time></trkpt><trkpt lat="43.115152931759226" lon="10.656457689301442"><ele>291.0</ele><time>2026-05-03T09:18:33Z</time></trkpt><trkpt lat="43.11513522479192" lon="10.656562040184031"><ele>288.5</ele><time>2026-05-03T09:18:34Z</time></trkpt><trkpt lat="43.115079796142886" lon="10.656651509126124"><ele>286.0</ele><time>2026-05-03T09:18:35Z</time></trkpt><trkpt lat="43.11504439623687" lon="10.656742875110098"><ele>283.5</ele><time>2026-05-03T09:18:36Z</time></trkpt><trkpt lat="43.11501047871055" lon="10.6568358025451"><ele>281.0</ele><time>2026-05-03T09:18:39Z</time></trkpt><trkpt lat="43.1150186081524" lon="10.65694398519511"><ele>281.0</ele><time>2026-05-03T09:18:41Z</time></trkpt><trkpt lat="43.11509088900976" lon="10.656990450468447"><ele>281.0</ele><time>2026-05-03T09:18:43Z</time></trkpt><trkpt lat="43.115154048155" lon="10.65692641375942"><ele>281.0</ele><time>2026-05-03T09:18:45Z</time></trkpt><trkpt lat="43.11521181620291" lon="10.656859086803534"><ele>281.0</ele><time>2026-05-03T09:18:46Z</time></trkpt><trkpt lat="43.11528815262001" lon="10.656797889414976"><ele>281.0</ele><time>2026-05-03T09:18:47Z</time></trkpt><trkpt lat="43.115356731868964" lon="10.656727668714472"><ele>281.0</ele><time>2026-05-03T09:18:48Z</time></trkpt><trkpt lat="43.115423833650595" lon="10.656693258064886"><ele>281.0</ele><time>2026-05-03T09:18:49Z</time></trkpt><trkpt lat="43.115511853222216" lon="10.65667442254908"><ele>281.0</ele><time>2026-05-03T09:18:51Z</time></trkpt><trkpt lat="43.11561387835166" lon="10.656637415947912"><ele>281.0</ele><time>2026-05-03T09:18:53Z</time></trkpt><trkpt lat="43.11572252082218" lon="10.656690719766809"><ele>281.0</ele><time>2026-05-03T09:18:55Z</time></trkpt><trkpt lat="43.115778969378475" lon="10.65674616545474"><ele>281.0</ele><time>2026-05-03T09:18:56Z</time></trkpt><trkpt lat="43.11581918246737" lon="10.656824308819399"><ele>281.0</ele><time>2026-05-03T09:18:57Z</time></trkpt><trkpt lat="43.11584900911141" lon="10.656912897266134"><ele>278.5</ele><time>2026-05-03T09:18:58Z</time></trkpt><trkpt lat="43.115935098791994" lon="10.657028861583646"><ele>276.0</ele><time>2026-05-03T09:19:00Z</time></trkpt><trkpt lat="43.11599967386028" lon="10.65706511465738"><ele>273.5</ele><time>2026-05-03T09:19:01Z</time></trkpt><trkpt lat="43.11608213885534" lon="10.657086961209522"><ele>271.0</ele><time>2026-05-03T09:19:02Z</time></trkpt><trkpt lat="43.11615895913479" lon="10.65710541964005"><ele>268.5</ele><time>2026-05-03T09:19:03Z</time></trkpt><trkpt lat="43.11622983954159" lon="10.657120770511519"><ele>266.0</ele><time>2026-05-03T09:19:04Z</time></trkpt><trkpt lat="43.11633270732509" lon="10.657156597818666"><ele>266.0</ele><time>2026-05-03T09:19:06Z</time></trkpt><trkpt lat="43.11644042898088" lon="10.657299578811804"><ele>266.0</ele><time>2026-05-03T09:19:08Z</time></trkpt><trkpt lat="43.11644034911091" lon="10.6574397758629"><ele>266.0</ele><time>2026-05-03T09:19:09Z</time></trkpt><trkpt lat="43.116459445548195" lon="10.657585971328954"><ele>266.0</ele><time>2026-05-03T09:19:10Z</time></trkpt><trkpt lat="43.11647432426812" lon="10.657733703051033"><ele>264.2</ele><time>2026-05-03T09:19:11Z</time></trkpt><trkpt lat="43.11649246465429" lon="10.657876265082947"><ele>262.40000000000003</ele><time>2026-05-03T09:19:12Z</time></trkpt><trkpt lat="43.116522632553306" lon="10.658009922831093"><ele>260.6</ele><time>2026-05-03T09:19:13Z</time></trkpt><trkpt lat="43.11654988233687" lon="10.658148559643571"><ele>258.8</ele><time>2026-05-03T09:19:14Z</time></trkpt><trkpt lat="43.116559813445235" lon="10.658276489734426"><ele>257.0</ele><time>2026-05-03T09:19:15Z</time></trkpt><trkpt lat="43.11655092082702" lon="10.658393631151275"><ele>257.0</ele><time>2026-05-03T09:19:16Z</time></trkpt><trkpt lat="43.116491772169205" lon="10.658502142793889"><ele>257.0</ele><time>2026-05-03T09:19:17Z</time></trkpt><trkpt lat="43.116445320742386" lon="10.658622137362297"><ele>257.0</ele><time>2026-05-03T09:19:18Z</time></trkpt><trkpt lat="43.11641024950991" lon="10.658756676425222"><ele>257.0</ele><time>2026-05-03T09:19:19Z</time></trkpt><trkpt lat="43.116356398966865" lon="10.658859895434265"><ele>257.0</ele><time>2026-05-03T09:19:20Z</time></trkpt><trkpt lat="43.11632392030477" lon="10.658994210220447"><ele>256.42857142857144</ele><time>2026-05-03T09:19:21Z</time></trkpt><trkpt lat="43.11633024015751" lon="10.65912653079783"><ele>255.8571428571429</ele><time>2026-05-03T09:19:22Z</time></trkpt><trkpt lat="43.11633925689877" lon="10.659227747294711"><ele>255.2857142857143</ele><time>2026-05-03T09:19:23Z</time></trkpt><trkpt lat="43.116350927196095" lon="10.659315325449539"><ele>254.71428571428572</ele><time>2026-05-03T09:19:24Z</time></trkpt><trkpt lat="43.11636890562961" lon="10.659401063897814"><ele>254.14285714285717</ele><time>2026-05-03T09:19:25Z</time></trkpt><trkpt lat="43.11640773901603" lon="10.659472623338228"><ele>253.5714285714286</ele><time>2026-05-03T09:19:26Z</time></trkpt><trkpt lat="43.116412352565355" lon="10.659576228436734"><ele>253.00000000000003</ele><time>2026-05-03T09:19:27Z</time></trkpt><trkpt lat="43.116428292880514" lon="10.659676019693324"><ele>252.99999999999997</ele><time>2026-05-03T09:19:28Z</time></trkpt><trkpt lat="43.11641394802147" lon="10.659788077406619"><ele>253.0</ele><time>2026-05-03T09:19:29Z</time></trkpt><trkpt lat="43.11640012718119" lon="10.659890694866501"><ele>253.0</ele><time>2026-05-03T09:19:30Z</time></trkpt><trkpt lat="43.116396449803304" lon="10.660058516219417"><ele>253.0</ele><time>2026-05-03T09:19:32Z</time></trkpt><trkpt lat="43.11639540617532" lon="10.660165837464588"><ele>252.99999999999997</ele><time>2026-05-03T09:19:33Z</time></trkpt><trkpt lat="43.116397126113" lon="10.660274846311811"><ele>253.0</ele><time>2026-05-03T09:19:34Z</time></trkpt><trkpt lat="43.11639896654191" lon="10.66038993388939"><ele>255.0</ele><time>2026-05-03T09:19:35Z</time></trkpt><trkpt lat="43.11640108914842" lon="10.66051803497101"><ele>257.0</ele><time>2026-05-03T09:19:36Z</time></trkpt><trkpt lat="43.11639699729795" lon="10.6606544385254"><ele>259.0</ele><time>2026-05-03T09:19:37Z</time></trkpt><trkpt lat="43.11639272525022" lon="10.660764844732856"><ele>261.0</ele><time>2026-05-03T09:19:38Z</time></trkpt><trkpt lat="43.11638388822203" lon="10.660896795077816"><ele>263.0</ele><time>2026-05-03T09:19:40Z</time></trkpt><trkpt lat="43.11652404368762" lon="10.661018043746488"><ele>264.2857142857143</ele><time>2026-05-03T09:19:43Z</time></trkpt><trkpt lat="43.11659261137687" lon="10.661011652619273"><ele>265.57142857142856</ele><time>2026-05-03T09:19:45Z</time></trkpt><trkpt lat="43.116660441807106" lon="10.661005330301414"><ele>266.85714285714283</ele><time>2026-05-03T09:19:46Z</time></trkpt><trkpt lat="43.11673562781407" lon="10.660998322378683"><ele>268.1428571428571</ele><time>2026-05-03T09:19:48Z</time></trkpt><trkpt lat="43.11677095300673" lon="10.660906570926882"><ele>269.42857142857144</ele><time>2026-05-03T09:19:49Z</time></trkpt><trkpt lat="43.11683520823686" lon="10.660920213217038"><ele>270.71428571428567</ele><time>2026-05-03T09:19:51Z</time></trkpt><trkpt lat="43.116927140710025" lon="10.660957309636558"><ele>272.0</ele><time>2026-05-03T09:19:53Z</time></trkpt><trkpt lat="43.11698029056388" lon="10.66101056498961"><ele>272.0</ele><time>2026-05-03T09:19:54Z</time></trkpt><trkpt lat="43.11703461252969" lon="10.661061573712956"><ele>272.0</ele><time>2026-05-03T09:19:55Z</time></trkpt><trkpt lat="43.11709433160582" lon="10.661134851555268"><ele>272.0</ele><time>2026-05-03T09:19:56Z</time></trkpt><trkpt lat="43.117143071973366" lon="10.661212420785448"><ele>272.0</ele><time>2026-05-03T09:19:57Z</time></trkpt><trkpt lat="43.11718352933283" lon="10.661287130561668"><ele>272.0</ele><time>2026-05-03T09:19:58Z</time></trkpt><trkpt lat="43.11722584370889" lon="10.661367491645974"><ele>272.0</ele><time>2026-05-03T09:19:59Z</time></trkpt><trkpt lat="43.1172773589046" lon="10.661466972583883"><ele>270.8</ele><time>2026-05-03T09:20:00Z</time></trkpt><trkpt lat="43.11731415158711" lon="10.66157508723463"><ele>269.6</ele><time>2026-05-03T09:20:01Z</time></trkpt><trkpt lat="43.11736055310767" lon="10.661682742343604"><ele>268.40000000000003</ele><time>2026-05-03T09:20:02Z</time></trkpt><trkpt lat="43.11740529939057" lon="10.661798011156963"><ele>267.2</ele><time>2026-05-03T09:20:03Z</time></trkpt><trkpt lat="43.11745530280354" lon="10.661897594953713"><ele>266.0</ele><time>2026-05-03T09:20:04Z</time></trkpt><trkpt lat="43.11749097236029" lon="10.662009983750995"><ele>266.0</ele><time>2026-05-03T09:20:05Z</time></trkpt><trkpt lat="43.117511266749275" lon="10.662134346377272"><ele>266.0</ele><time>2026-05-03T09:20:06Z</time></trkpt><trkpt lat="43.11752937297073" lon="10.662275600149227"><ele>266.0</ele><time>2026-05-03T09:20:07Z</time></trkpt><trkpt lat="43.11754650173292" lon="10.66242812962349"><ele>266.0</ele><time>2026-05-03T09:20:08Z</time></trkpt><trkpt lat="43.117554916165346" lon="10.662521785162559"><ele>266.0</ele><time>2026-05-03T09:20:10Z</time></trkpt><trkpt lat="43.11755884497741" lon="10.662612302974098"><ele>266.0</ele><time>2026-05-03T09:20:14Z</time></trkpt><trkpt lat="43.11754547654877" lon="10.662709772442483"><ele>266.0</ele><time>2026-05-03T09:20:18Z</time></trkpt><trkpt lat="43.11754110143043" lon="10.662909186954877"><ele>266.0</ele><time>2026-05-03T09:20:20Z</time></trkpt><trkpt lat="43.11754654536191" lon="10.6630330786572"><ele>266.0</ele><time>2026-05-03T09:20:21Z</time></trkpt><trkpt lat="43.11756169507824" lon="10.663175583877582"><ele>266.0</ele><time>2026-05-03T09:20:22Z</time></trkpt><trkpt lat="43.117595866119366" lon="10.663343420445509"><ele>266.0</ele><time>2026-05-03T09:20:23Z</time></trkpt><trkpt lat="43.11764441390243" lon="10.663480069255979"><ele>266.0</ele><time>2026-05-03T09:20:24Z</time></trkpt><trkpt lat="43.117693966612045" lon="10.663578015292345"><ele>266.0</ele><time>2026-05-03T09:20:25Z</time></trkpt><trkpt lat="43.117738503544935" lon="10.663682376631943"><ele>266.0</ele><time>2026-05-03T09:20:26Z</time></trkpt><trkpt lat="43.11775028876461" lon="10.663781597890326"><ele>266.0</ele><time>2026-05-03T09:20:27Z</time></trkpt><trkpt lat="43.117791528221176" lon="10.663910800431632"><ele>264.40000000000003</ele><time>2026-05-03T09:20:29Z</time></trkpt><trkpt lat="43.117850398655705" lon="10.663954919054058"><ele>262.8</ele><time>2026-05-03T09:20:30Z</time></trkpt><trkpt lat="43.11792588809428" lon="10.66398660432592"><ele>261.20000000000005</ele><time>2026-05-03T09:20:31Z</time></trkpt><trkpt lat="43.11802881347912" lon="10.664033031889598"><ele>259.6</ele><time>2026-05-03T09:20:32Z</time></trkpt><trkpt lat="43.11812009608233" lon="10.6640654642658"><ele>258.0</ele><time>2026-05-03T09:20:33Z</time></trkpt><trkpt lat="43.11820706234359" lon="10.664171897881733"><ele>258.1666666666667</ele><time>2026-05-03T09:20:35Z</time></trkpt><trkpt lat="43.11825535599554" lon="10.664265035182117"><ele>258.3333333333333</ele><time>2026-05-03T09:20:36Z</time></trkpt><trkpt lat="43.118280197891565" lon="10.664375779647807"><ele>258.5</ele><time>2026-05-03T09:20:37Z</time></trkpt><trkpt lat="43.11828237112208" lon="10.66449274262205"><ele>258.66666666666663</ele><time>2026-05-03T09:20:38Z</time></trkpt><trkpt lat="43.11829571033648" lon="10.664611636381466"><ele>258.8333333333333</ele><time>2026-05-03T09:20:39Z</time></trkpt><trkpt lat="43.11828684829888" lon="10.664741300462966"><ele>259.0</ele><time>2026-05-03T09:20:40Z</time></trkpt><trkpt lat="43.11827291216949" lon="10.664880363243359"><ele>259.0</ele><time>2026-05-03T09:20:41Z</time></trkpt><trkpt lat="43.1182637366501" lon="10.665008087353012"><ele>259.0</ele><time>2026-05-03T09:20:42Z</time></trkpt><trkpt lat="43.11825637651953" lon="10.66512544503016"><ele>259.0</ele><time>2026-05-03T09:20:43Z</time></trkpt><trkpt lat="43.11824491527267" lon="10.665244486958366"><ele>259.0</ele><time>2026-05-03T09:20:44Z</time></trkpt><trkpt lat="43.118242731685015" lon="10.665375980260333"><ele>259.0</ele><time>2026-05-03T09:20:45Z</time></trkpt><trkpt lat="43.11823325123566" lon="10.66552345497806"><ele>255.6</ele><time>2026-05-03T09:20:46Z</time></trkpt><trkpt lat="43.11822604245167" lon="10.665663532577815"><ele>252.2</ele><time>2026-05-03T09:20:47Z</time></trkpt><trkpt lat="43.11822102470475" lon="10.665800557475803"><ele>248.79999999999998</ele><time>2026-05-03T09:20:48Z</time></trkpt><trkpt lat="43.118205909109804" lon="10.665943947335947"><ele>245.39999999999998</ele><time>2026-05-03T09:20:49Z</time></trkpt><trkpt lat="43.11819694389785" lon="10.666079773188375"><ele>242.0</ele><time>2026-05-03T09:20:50Z</time></trkpt><trkpt lat="43.11818772491296" lon="10.666196391470809"><ele>240.66666666666669</ele><time>2026-05-03T09:20:51Z</time></trkpt><trkpt lat="43.118191607242615" lon="10.666294715646963"><ele>239.33333333333334</ele><time>2026-05-03T09:20:52Z</time></trkpt><trkpt lat="43.11820344647416" lon="10.666384520909997"><ele>238.0</ele><time>2026-05-03T09:20:53Z</time></trkpt><trkpt lat="43.11820851286472" lon="10.666490387111812"><ele>236.66666666666669</ele><time>2026-05-03T09:20:54Z</time></trkpt><trkpt lat="43.11821911448341" lon="10.666649971463507"><ele>235.33333333333334</ele><time>2026-05-03T09:20:56Z</time></trkpt><trkpt lat="43.118222023689796" lon="10.666764870489923"><ele>234.0</ele><time>2026-05-03T09:20:57Z</time></trkpt><trkpt lat="43.11819328165805" lon="10.666867089635442"><ele>233.2</ele><time>2026-05-03T09:20:58Z</time></trkpt><trkpt lat="43.11817334649423" lon="10.66697547157945"><ele>232.39999999999998</ele><time>2026-05-03T09:20:59Z</time></trkpt><trkpt lat="43.11815435418634" lon="10.667120745735025"><ele>231.6</ele><time>2026-05-03T09:21:00Z</time></trkpt><trkpt lat="43.11811474290076" lon="10.667244628445376"><ele>230.8</ele><time>2026-05-03T09:21:01Z</time></trkpt><trkpt lat="43.11808074301534" lon="10.667354408172155"><ele>230.0</ele><time>2026-05-03T09:21:02Z</time></trkpt><trkpt lat="43.118049324487146" lon="10.667465864549747"><ele>230.0</ele><time>2026-05-03T09:21:03Z</time></trkpt><trkpt lat="43.118021572558355" lon="10.667591091996874"><ele>230.0</ele><time>2026-05-03T09:21:04Z</time></trkpt><trkpt lat="43.117989143914556" lon="10.667717908237929"><ele>230.0</ele><time>2026-05-03T09:21:05Z</time></trkpt><trkpt lat="43.117979885550334" lon="10.667863229413983"><ele>230.0</ele><time>2026-05-03T09:21:06Z</time></trkpt><trkpt lat="43.117951505810964" lon="10.668009726774066"><ele>230.0</ele><time>2026-05-03T09:21:07Z</time></trkpt><trkpt lat="43.11791662517848" lon="10.668152734417562"><ele>230.2</ele><time>2026-05-03T09:21:08Z</time></trkpt><trkpt lat="43.117888190606486" lon="10.66828167921646"><ele>230.4</ele><time>2026-05-03T09:21:09Z</time></trkpt><trkpt lat="43.11786988447633" lon="10.668400833044913"><ele>230.60000000000002</ele><time>2026-05-03T09:21:10Z</time></trkpt><trkpt lat="43.11785985033592" lon="10.668504428309296"><ele>230.8</ele><time>2026-05-03T09:21:11Z</time></trkpt><trkpt lat="43.117830356302626" lon="10.668679513710368"><ele>231.0</ele><time>2026-05-03T09:21:13Z</time></trkpt><trkpt lat="43.11779950769937" lon="10.668785148472447"><ele>230.66666666666666</ele><time>2026-05-03T09:21:14Z</time></trkpt><trkpt lat="43.117775073802925" lon="10.668892458194202"><ele>230.33333333333331</ele><time>2026-05-03T09:21:15Z</time></trkpt><trkpt lat="43.11776049520498" lon="10.668996977479487"><ele>230.0</ele><time>2026-05-03T09:21:16Z</time></trkpt><trkpt lat="43.1177440497174" lon="10.669104469242509"><ele>229.66666666666666</ele><time>2026-05-03T09:21:17Z</time></trkpt><trkpt lat="43.117728361911034" lon="10.669215037380637"><ele>229.33333333333331</ele><time>2026-05-03T09:21:18Z</time></trkpt><trkpt lat="43.11771169263848" lon="10.66933139999572"><ele>229.0</ele><time>2026-05-03T09:21:19Z</time></trkpt><trkpt lat="43.11768763040328" lon="10.66944981866149"><ele>228.33333333333331</ele><time>2026-05-03T09:21:20Z</time></trkpt><trkpt lat="43.11764797924927" lon="10.669558100664434"><ele>227.66666666666666</ele><time>2026-05-03T09:21:21Z</time></trkpt><trkpt lat="43.1176129628406" lon="10.669670625371396"><ele>227.0</ele><time>2026-05-03T09:21:22Z</time></trkpt><trkpt lat="43.11760000409416" lon="10.669792318863118"><ele>226.33333333333331</ele><time>2026-05-03T09:21:23Z</time></trkpt><trkpt lat="43.117596410650336" lon="10.669913903804016"><ele>225.66666666666666</ele><time>2026-05-03T09:21:24Z</time></trkpt><trkpt lat="43.117612869548715" lon="10.670025826145345"><ele>225.0</ele><time>2026-05-03T09:21:25Z</time></trkpt><trkpt lat="43.11762755271445" lon="10.670144236817741"><ele>225.0</ele><time>2026-05-03T09:21:26Z</time></trkpt><trkpt lat="43.11764430526333" lon="10.670240838090836"><ele>225.0</ele><time>2026-05-03T09:21:27Z</time></trkpt><trkpt lat="43.11765113704029" lon="10.670346732771037"><ele>225.0</ele><time>2026-05-03T09:21:28Z</time></trkpt><trkpt lat="43.11765450020343" lon="10.670456129235246"><ele>225.0</ele><time>2026-05-03T09:21:29Z</time></trkpt><trkpt lat="43.1176509758605" lon="10.670562107283384"><ele>225.0</ele><time>2026-05-03T09:21:30Z</time></trkpt><trkpt lat="43.11763614764917" lon="10.670669054254569"><ele>225.0</ele><time>2026-05-03T09:21:31Z</time></trkpt><trkpt lat="43.11761134835613" lon="10.670765671045034"><ele>223.8571428571429</ele><time>2026-05-03T09:21:32Z</time></trkpt><trkpt lat="43.11758882217844" lon="10.670856466697497"><ele>222.71428571428572</ele><time>2026-05-03T09:21:33Z</time></trkpt><trkpt lat="43.11756360597575" lon="10.670944554048312"><ele>221.57142857142858</ele><time>2026-05-03T09:21:34Z</time></trkpt><trkpt lat="43.11753005691949" lon="10.671027082857547"><ele>220.42857142857144</ele><time>2026-05-03T09:21:35Z</time></trkpt><trkpt lat="43.11750443446759" lon="10.67111229250359"><ele>219.28571428571428</ele><time>2026-05-03T09:21:36Z</time></trkpt><trkpt lat="43.117477405797985" lon="10.671210723341174"><ele>218.14285714285714</ele><time>2026-05-03T09:21:37Z</time></trkpt><trkpt lat="43.11745263123587" lon="10.671304052021352"><ele>217.0</ele><time>2026-05-03T09:21:38Z</time></trkpt><trkpt lat="43.11742757521073" lon="10.671399150639953"><ele>215.6</ele><time>2026-05-03T09:21:39Z</time></trkpt><trkpt lat="43.11740880548372" lon="10.67149630247376"><ele>214.2</ele><time>2026-05-03T09:21:40Z</time></trkpt><trkpt lat="43.117392713145115" lon="10.671604929499692"><ele>212.8</ele><time>2026-05-03T09:21:41Z</time></trkpt><trkpt lat="43.11737862484229" lon="10.671712750925277"><ele>211.4</ele><time>2026-05-03T09:21:42Z</time></trkpt><trkpt lat="43.117369430083926" lon="10.671868304280816"><ele>210.0</ele><time>2026-05-03T09:21:43Z</time></trkpt><trkpt lat="43.11735352648618" lon="10.672043797462397"><ele>207.25</ele><time>2026-05-03T09:21:44Z</time></trkpt><trkpt lat="43.117346369455454" lon="10.672250656121156"><ele>204.5</ele><time>2026-05-03T09:21:45Z</time></trkpt><trkpt lat="43.117326750920924" lon="10.67244396052749"><ele>201.75</ele><time>2026-05-03T09:21:46Z</time></trkpt><trkpt lat="43.11730996666382" lon="10.672611550161747"><ele>199.0</ele><time>2026-05-03T09:21:47Z</time></trkpt><trkpt lat="43.11729631773691" lon="10.672770194300197"><ele>199.2</ele><time>2026-05-03T09:21:48Z</time></trkpt><trkpt lat="43.1172797728593" lon="10.672921001775988"><ele>199.39999999999998</ele><time>2026-05-03T09:21:49Z</time></trkpt><trkpt lat="43.11726173114573" lon="10.673051749476922"><ele>199.6</ele><time>2026-05-03T09:21:50Z</time></trkpt><trkpt lat="43.117244027217644" lon="10.673178460957814"><ele>199.8</ele><time>2026-05-03T09:21:51Z</time></trkpt><trkpt lat="43.117222461035084" lon="10.673299785548947"><ele>200.0</ele><time>2026-05-03T09:21:52Z</time></trkpt><trkpt lat="43.117214910892955" lon="10.673444799542983"><ele>199.2</ele><time>2026-05-03T09:21:53Z</time></trkpt><trkpt lat="43.11721691481805" lon="10.673605913245847"><ele>198.4</ele><time>2026-05-03T09:21:54Z</time></trkpt><trkpt lat="43.11722791401197" lon="10.673769966773348"><ele>197.60000000000002</ele><time>2026-05-03T09:21:55Z</time></trkpt><trkpt lat="43.11725734524491" lon="10.673921526973006"><ele>196.8</ele><time>2026-05-03T09:21:56Z</time></trkpt><trkpt lat="43.11727650764945" lon="10.674043675666253"><ele>196.0</ele><time>2026-05-03T09:21:57Z</time></trkpt><trkpt lat="43.117315355005395" lon="10.674132107799345"><ele>196.0</ele><time>2026-05-03T09:21:58Z</time></trkpt><trkpt lat="43.11735946006494" lon="10.674213551291492"><ele>196.0</ele><time>2026-05-03T09:21:59Z</time></trkpt><trkpt lat="43.11739272208037" lon="10.6742938546607"><ele>196.0</ele><time>2026-05-03T09:22:00Z</time></trkpt><trkpt lat="43.117396693985896" lon="10.67447241351512"><ele>196.0</ele><time>2026-05-03T09:22:02Z</time></trkpt><trkpt lat="43.117380394771594" lon="10.674591627950365"><ele>196.0</ele><time>2026-05-03T09:22:03Z</time></trkpt><trkpt lat="43.1173644681768" lon="10.67472137544329"><ele>194.49999999999997</ele><time>2026-05-03T09:22:04Z</time></trkpt><trkpt lat="43.117342565808734" lon="10.674856781343747"><ele>193.0</ele><time>2026-05-03T09:22:05Z</time></trkpt><trkpt lat="43.11734565412904" lon="10.67498103617821"><ele>191.5</ele><time>2026-05-03T09:22:06Z</time></trkpt><trkpt lat="43.11733525014881" lon="10.675103892623312"><ele>190.0</ele><time>2026-05-03T09:22:07Z</time></trkpt><trkpt lat="43.11732352280639" lon="10.675219629930758"><ele>188.5</ele><time>2026-05-03T09:22:08Z</time></trkpt><trkpt lat="43.11731984825231" lon="10.675328844429108"><ele>187.0</ele><time>2026-05-03T09:22:09Z</time></trkpt><trkpt lat="43.11733248335413" lon="10.675433877940785"><ele>185.8</ele><time>2026-05-03T09:22:10Z</time></trkpt><trkpt lat="43.1173504693955" lon="10.675545414591781"><ele>184.6</ele><time>2026-05-03T09:22:11Z</time></trkpt><trkpt lat="43.11737385857649" lon="10.675655209286775"><ele>183.4</ele><time>2026-05-03T09:22:12Z</time></trkpt><trkpt lat="43.11736484807396" lon="10.67577432696279"><ele>182.20000000000002</ele><time>2026-05-03T09:22:13Z</time></trkpt><trkpt lat="43.11737525517214" lon="10.67590594622211"><ele>181.0</ele><time>2026-05-03T09:22:14Z</time></trkpt><trkpt lat="43.1173533475499" lon="10.676071729022716"><ele>180.0</ele><time>2026-05-03T09:22:15Z</time></trkpt><trkpt lat="43.11733961157913" lon="10.676212888364498"><ele>179.0</ele><time>2026-05-03T09:22:16Z</time></trkpt><trkpt lat="43.117339735555895" lon="10.67634727146575"><ele>178.0</ele><time>2026-05-03T09:22:17Z</time></trkpt><trkpt lat="43.11732978367211" lon="10.676465076262803"><ele>177.0</ele><time>2026-05-03T09:22:18Z</time></trkpt><trkpt lat="43.11731260457785" lon="10.676582130018419"><ele>176.0</ele><time>2026-05-03T09:22:19Z</time></trkpt><trkpt lat="43.11728799535237" lon="10.67668794451078"><ele>176.0</ele><time>2026-05-03T09:22:20Z</time></trkpt><trkpt lat="43.117272286195934" lon="10.676805601554959"><ele>176.0</ele><time>2026-05-03T09:22:21Z</time></trkpt><trkpt lat="43.11725863203618" lon="10.676939644468526"><ele>176.0</ele><time>2026-05-03T09:22:22Z</time></trkpt><trkpt lat="43.11726429921929" lon="10.677068483215546"><ele>176.0</ele><time>2026-05-03T09:22:23Z</time></trkpt><trkpt lat="43.117248299066446" lon="10.677197347224332"><ele>176.0</ele><time>2026-05-03T09:22:24Z</time></trkpt><trkpt lat="43.117226523819" lon="10.677323334443926"><ele>175.60000000000002</ele><time>2026-05-03T09:22:25Z</time></trkpt><trkpt lat="43.1172281301161" lon="10.677439641358587"><ele>175.2</ele><time>2026-05-03T09:22:26Z</time></trkpt><trkpt lat="43.11723064804385" lon="10.677535195894103"><ele>174.8</ele><time>2026-05-03T09:22:27Z</time></trkpt><trkpt lat="43.11722505496668" lon="10.677642703838144"><ele>174.39999999999998</ele><time>2026-05-03T09:22:29Z</time></trkpt><trkpt lat="43.11735896840467" lon="10.677708085314784"><ele>174.0</ele><time>2026-05-03T09:22:35Z</time></trkpt><trkpt lat="43.11742720820891" lon="10.677791768565948"><ele>175.39999999999998</ele><time>2026-05-03T09:22:38Z</time></trkpt><trkpt lat="43.11748671416653" lon="10.67791271923419"><ele>176.8</ele><time>2026-05-03T09:22:40Z</time></trkpt><trkpt lat="43.11751534412926" lon="10.678032188313528"><ele>178.2</ele><time>2026-05-03T09:22:41Z</time></trkpt><trkpt lat="43.117539191158805" lon="10.67813461608086"><ele>179.60000000000002</ele><time>2026-05-03T09:22:42Z</time></trkpt><trkpt lat="43.117579238751574" lon="10.678274365148877"><ele>181.0</ele><time>2026-05-03T09:22:44Z</time></trkpt><trkpt lat="43.11759993007507" lon="10.67838387392912"><ele>181.0</ele><time>2026-05-03T09:22:46Z</time></trkpt><trkpt lat="43.117625082675254" lon="10.678515361108381"><ele>181.0</ele><time>2026-05-03T09:22:48Z</time></trkpt><trkpt lat="43.117679661709595" lon="10.678648910410656"><ele>181.0</ele><time>2026-05-03T09:22:50Z</time></trkpt><trkpt lat="43.11774345482603" lon="10.67873252131556"><ele>181.0</ele><time>2026-05-03T09:22:52Z</time></trkpt><trkpt lat="43.117802381792345" lon="10.678766942075175"><ele>181.0</ele><time>2026-05-03T09:22:53Z</time></trkpt><trkpt lat="43.11788254040084" lon="10.678796339323803"><ele>181.0</ele><time>2026-05-03T09:22:55Z</time></trkpt><trkpt lat="43.11792703151693" lon="10.678862395693704"><ele>182.0</ele><time>2026-05-03T09:22:57Z</time></trkpt><trkpt lat="43.117930345354644" lon="10.67896748862544"><ele>183.0</ele><time>2026-05-03T09:22:59Z</time></trkpt><trkpt lat="43.117899042705716" lon="10.679098765403564"><ele>184.0</ele><time>2026-05-03T09:23:01Z</time></trkpt><trkpt lat="43.11787104790277" lon="10.679184189393537"><ele>185.0</ele><time>2026-05-03T09:23:02Z</time></trkpt><trkpt lat="43.11782799253148" lon="10.679325147958773"><ele>186.0</ele><time>2026-05-03T09:23:04Z</time></trkpt><trkpt lat="43.117810439603346" lon="10.679446528470411"><ele>187.0</ele><time>2026-05-03T09:23:05Z</time></trkpt><trkpt lat="43.1178146866129" lon="10.679591998772795"><ele>188.6</ele><time>2026-05-03T09:23:06Z</time></trkpt><trkpt lat="43.117808842290835" lon="10.679722850171888"><ele>190.2</ele><time>2026-05-03T09:23:07Z</time></trkpt><trkpt lat="43.117815227127984" lon="10.679850455470282"><ele>191.8</ele><time>2026-05-03T09:23:09Z</time></trkpt><trkpt lat="43.11787368899597" lon="10.679978089790453"><ele>193.4</ele><time>2026-05-03T09:23:11Z</time></trkpt><trkpt lat="43.11789745794698" lon="10.680074690665736"><ele>195.0</ele><time>2026-05-03T09:23:12Z</time></trkpt><trkpt lat="43.11792881019235" lon="10.680233721145775"><ele>195.5</ele><time>2026-05-03T09:23:14Z</time></trkpt><trkpt lat="43.11794209723943" lon="10.680324716020998"><ele>196.0</ele><time>2026-05-03T09:23:15Z</time></trkpt><trkpt lat="43.117947637513616" lon="10.680434597313093"><ele>196.5</ele><time>2026-05-03T09:23:16Z</time></trkpt><trkpt lat="43.1179524987192" lon="10.68055580926655"><ele>197.0</ele><time>2026-05-03T09:23:17Z</time></trkpt><trkpt lat="43.117936910821825" lon="10.680663322168165"><ele>197.5</ele><time>2026-05-03T09:23:18Z</time></trkpt><trkpt lat="43.1179066247252" lon="10.680761540318892"><ele>198.0</ele><time>2026-05-03T09:23:19Z</time></trkpt><trkpt lat="43.11787405021803" lon="10.680839234195563"><ele>198.0</ele><time>2026-05-03T09:23:20Z</time></trkpt><trkpt lat="43.11782315681692" lon="10.681003861495684"><ele>198.0</ele><time>2026-05-03T09:23:22Z</time></trkpt><trkpt lat="43.1177960009538" lon="10.681088018033572"><ele>198.0</ele><time>2026-05-03T09:23:23Z</time></trkpt><trkpt lat="43.11774950891053" lon="10.681188888175628"><ele>198.0</ele><time>2026-05-03T09:23:24Z</time></trkpt><trkpt lat="43.11770405539351" lon="10.681304921050229"><ele>198.0</ele><time>2026-05-03T09:23:25Z</time></trkpt><trkpt lat="43.117662722314066" lon="10.68140917057876"><ele>197.5</ele><time>2026-05-03T09:23:26Z</time></trkpt><trkpt lat="43.117631032250955" lon="10.681519667484496"><ele>197.0</ele><time>2026-05-03T09:23:27Z</time></trkpt><trkpt lat="43.11761741619702" lon="10.681640334867575"><ele>196.5</ele><time>2026-05-03T09:23:28Z</time></trkpt><trkpt lat="43.11762770742751" lon="10.681780610966435"><ele>196.0</ele><time>2026-05-03T09:23:29Z</time></trkpt><trkpt lat="43.11763797026297" lon="10.681889984540943"><ele>195.5</ele><time>2026-05-03T09:23:30Z</time></trkpt><trkpt lat="43.117648378192115" lon="10.681992237676825"><ele>195.0</ele><time>2026-05-03T09:23:31Z</time></trkpt><trkpt lat="43.11768554714028" lon="10.682094134742712"><ele>194.0</ele><time>2026-05-03T09:23:32Z</time></trkpt><trkpt lat="43.11770313231586" lon="10.682189889923825"><ele>193.0</ele><time>2026-05-03T09:23:33Z</time></trkpt><trkpt lat="43.11772167137519" lon="10.682297825388753"><ele>192.0</ele><time>2026-05-03T09:23:34Z</time></trkpt><trkpt lat="43.1177338396161" lon="10.682405552718302"><ele>191.0</ele><time>2026-05-03T09:23:35Z</time></trkpt><trkpt lat="43.117747973770626" lon="10.682494075652826"><ele>190.0</ele><time>2026-05-03T09:23:36Z</time></trkpt><trkpt lat="43.11778574435249" lon="10.682609694721718"><ele>189.0</ele><time>2026-05-03T09:23:37Z</time></trkpt><trkpt lat="43.117813879130686" lon="10.682709594575757"><ele>188.0</ele><time>2026-05-03T09:23:38Z</time></trkpt><trkpt lat="43.11784004525283" lon="10.682819427256584"><ele>187.0</ele><time>2026-05-03T09:23:39Z</time></trkpt><trkpt lat="43.117842625805416" lon="10.682919950242539"><ele>186.0</ele><time>2026-05-03T09:23:40Z</time></trkpt><trkpt lat="43.11785649617126" lon="10.683030955370187"><ele>185.0</ele><time>2026-05-03T09:23:41Z</time></trkpt><trkpt lat="43.11783702397677" lon="10.683132869504707"><ele>184.0</ele><time>2026-05-03T09:23:42Z</time></trkpt><trkpt lat="43.11781551727963" lon="10.683236754140946"><ele>183.0</ele><time>2026-05-03T09:23:43Z</time></trkpt><trkpt lat="43.11780617263549" lon="10.683333192071983"><ele>183.0</ele><time>2026-05-03T09:23:44Z</time></trkpt><trkpt lat="43.11781380308412" lon="10.683434211791978"><ele>183.0</ele><time>2026-05-03T09:23:45Z</time></trkpt><trkpt lat="43.11784667639337" lon="10.683561680185603"><ele>183.0</ele><time>2026-05-03T09:23:46Z</time></trkpt><trkpt lat="43.11789820351859" lon="10.683708979361436"><ele>183.0</ele><time>2026-05-03T09:23:47Z</time></trkpt><trkpt lat="43.117918141757855" lon="10.683835557278956"><ele>183.0</ele><time>2026-05-03T09:23:48Z</time></trkpt><trkpt lat="43.11790356739162" lon="10.683967002339774"><ele>181.5</ele><time>2026-05-03T09:23:49Z</time></trkpt><trkpt lat="43.11788399855706" lon="10.68413991558425"><ele>180.0</ele><time>2026-05-03T09:23:50Z</time></trkpt><trkpt lat="43.11786761827619" lon="10.684326392230844"><ele>178.5</ele><time>2026-05-03T09:23:51Z</time></trkpt><trkpt lat="43.11785418785013" lon="10.684473952088236"><ele>177.0</ele><time>2026-05-03T09:23:52Z</time></trkpt><trkpt lat="43.117836601986546" lon="10.684604129718704"><ele>174.6</ele><time>2026-05-03T09:23:53Z</time></trkpt><trkpt lat="43.11783753884443" lon="10.684754027608031"><ele>172.2</ele><time>2026-05-03T09:23:54Z</time></trkpt><trkpt lat="43.11785960151187" lon="10.68492454020021"><ele>169.8</ele><time>2026-05-03T09:23:55Z</time></trkpt><trkpt lat="43.11788056603666" lon="10.68509878453106"><ele>167.4</ele><time>2026-05-03T09:23:56Z</time></trkpt><trkpt lat="43.11790024806315" lon="10.685207975954038"><ele>165.0</ele><time>2026-05-03T09:23:57Z</time></trkpt><trkpt lat="43.1179484413874" lon="10.685373915770654"><ele>162.8</ele><time>2026-05-03T09:23:59Z</time></trkpt><trkpt lat="43.11799721417377" lon="10.68548542105523"><ele>160.6</ele><time>2026-05-03T09:24:00Z</time></trkpt><trkpt lat="43.11806141440524" lon="10.685606477850886"><ele>158.4</ele><time>2026-05-03T09:24:01Z</time></trkpt><trkpt lat="43.11814415925151" lon="10.685744632761288"><ele>156.2</ele><time>2026-05-03T09:24:02Z</time></trkpt><trkpt lat="43.11821581098845" lon="10.68585469419855"><ele>154.0</ele><time>2026-05-03T09:24:03Z</time></trkpt><trkpt lat="43.11828034001814" lon="10.685921122743034"><ele>154.0</ele><time>2026-05-03T09:24:04Z</time></trkpt><trkpt lat="43.11835793476297" lon="10.685969756307028"><ele>154.0</ele><time>2026-05-03T09:24:05Z</time></trkpt><trkpt lat="43.118450027017985" lon="10.686002252208153"><ele>154.0</ele><time>2026-05-03T09:24:06Z</time></trkpt><trkpt lat="43.1185321235928" lon="10.686048322613306"><ele>154.0</ele><time>2026-05-03T09:24:07Z</time></trkpt><trkpt lat="43.11859794374362" lon="10.686115899538015"><ele>154.0</ele><time>2026-05-03T09:24:08Z</time></trkpt><trkpt lat="43.11866330981315" lon="10.686229860620362"><ele>154.25</ele><time>2026-05-03T09:24:09Z</time></trkpt><trkpt lat="43.11873873909391" lon="10.686380377426278"><ele>154.5</ele><time>2026-05-03T09:24:10Z</time></trkpt><trkpt lat="43.118849280770824" lon="10.686515661183023"><ele>154.75</ele><time>2026-05-03T09:24:11Z</time></trkpt><trkpt lat="43.118956136480264" lon="10.686607401408816"><ele>155.0</ele><time>2026-05-03T09:24:12Z</time></trkpt><trkpt lat="43.11904609204016" lon="10.686682323987368"><ele>155.2</ele><time>2026-05-03T09:24:13Z</time></trkpt><trkpt lat="43.11912835130878" lon="10.686768000849456"><ele>155.4</ele><time>2026-05-03T09:24:14Z</time></trkpt><trkpt lat="43.119197680590254" lon="10.686880108449566"><ele>155.6</ele><time>2026-05-03T09:24:15Z</time></trkpt><trkpt lat="43.11926034583029" lon="10.686998317946966"><ele>155.8</ele><time>2026-05-03T09:24:16Z</time></trkpt><trkpt lat="43.11931063418565" lon="10.687139632277443"><ele>156.0</ele><time>2026-05-03T09:24:17Z</time></trkpt><trkpt lat="43.11935294757321" lon="10.687284427541424"><ele>156.0</ele><time>2026-05-03T09:24:18Z</time></trkpt><trkpt lat="43.1193904712795" lon="10.68745916168377"><ele>156.0</ele><time>2026-05-03T09:24:19Z</time></trkpt><trkpt lat="43.119423406068236" lon="10.68767322472456"><ele>156.0</ele><time>2026-05-03T09:24:20Z</time></trkpt><trkpt lat="43.11947915341557" lon="10.687865363479052"><ele>156.0</ele><time>2026-05-03T09:24:21Z</time></trkpt><trkpt lat="43.11950899287067" lon="10.687999509150142"><ele>155.0</ele><time>2026-05-03T09:24:22Z</time></trkpt><trkpt lat="43.11951280150917" lon="10.688110081108363"><ele>154.0</ele><time>2026-05-03T09:24:23Z</time></trkpt><trkpt lat="43.11954681264097" lon="10.688189892115764"><ele>153.0</ele><time>2026-05-03T09:24:24Z</time></trkpt><trkpt lat="43.11960514605551" lon="10.688273504740422"><ele>152.0</ele><time>2026-05-03T09:24:25Z</time></trkpt><trkpt lat="43.11968946272228" lon="10.688368248206276"><ele>151.0</ele><time>2026-05-03T09:24:26Z</time></trkpt><trkpt lat="43.11979150729247" lon="10.688459126147686"><ele>151.0</ele><time>2026-05-03T09:24:27Z</time></trkpt><trkpt lat="43.11988425396477" lon="10.68854271426738"><ele>151.0</ele><time>2026-05-03T09:24:28Z</time></trkpt><trkpt lat="43.119953799992146" lon="10.688636455951446"><ele>151.0</ele><time>2026-05-03T09:24:29Z</time></trkpt><trkpt lat="43.120003407605765" lon="10.688747153991953"><ele>151.0</ele><time>2026-05-03T09:24:30Z</time></trkpt><trkpt lat="43.1200401410399" lon="10.688862802854475"><ele>151.0</ele><time>2026-05-03T09:24:31Z</time></trkpt><trkpt lat="43.12005684193488" lon="10.68898605093627"><ele>150.6</ele><time>2026-05-03T09:24:32Z</time></trkpt><trkpt lat="43.12005117969479" lon="10.689138098929895"><ele>150.2</ele><time>2026-05-03T09:24:33Z</time></trkpt><trkpt lat="43.12002579819711" lon="10.689294825566973"><ele>149.8</ele><time>2026-05-03T09:24:34Z</time></trkpt><trkpt lat="43.11997859932303" lon="10.68945213819355"><ele>149.4</ele><time>2026-05-03T09:24:35Z</time></trkpt><trkpt lat="43.11995171920315" lon="10.689545654583538"><ele>149.0</ele><time>2026-05-03T09:24:36Z</time></trkpt><trkpt lat="43.1199227543363" lon="10.689626267698808"><ele>148.66666666666666</ele><time>2026-05-03T09:24:38Z</time></trkpt><trkpt lat="43.119950444045095" lon="10.689787656574305"><ele>148.33333333333331</ele><time>2026-05-03T09:24:41Z</time></trkpt><trkpt lat="43.11998962036093" lon="10.689890568376049"><ele>148.0</ele><time>2026-05-03T09:24:43Z</time></trkpt><trkpt lat="43.12003190914455" lon="10.689979055349731"><ele>147.66666666666666</ele><time>2026-05-03T09:24:46Z</time></trkpt><trkpt lat="43.12007696776091" lon="10.690055319100178"><ele>147.33333333333334</ele><time>2026-05-03T09:24:49Z</time></trkpt><trkpt lat="43.120092863331685" lon="10.690142671405697"><ele>147.0</ele><time>2026-05-03T09:25:44Z</time></trkpt><trkpt lat="43.120131401868065" lon="10.690247220812545"><ele>146.83333333333334</ele><time>2026-05-03T09:25:45Z</time></trkpt><trkpt lat="43.12014375371889" lon="10.690345551488452"><ele>146.66666666666666</ele><time>2026-05-03T09:25:46Z</time></trkpt><trkpt lat="43.12013922857208" lon="10.690467836174209"><ele>146.5</ele><time>2026-05-03T09:25:47Z</time></trkpt><trkpt lat="43.12014678297154" lon="10.690591298293375"><ele>146.33333333333331</ele><time>2026-05-03T09:25:48Z</time></trkpt><trkpt lat="43.12015691883248" lon="10.690710367514974"><ele>146.16666666666666</ele><time>2026-05-03T09:25:49Z</time></trkpt><trkpt lat="43.12015264518802" lon="10.690802423528782"><ele>146.0</ele><time>2026-05-03T09:25:50Z</time></trkpt><trkpt lat="43.12015130660276" lon="10.690918142325703"><ele>146.0</ele><time>2026-05-03T09:25:51Z</time></trkpt><trkpt lat="43.120149784329946" lon="10.69101836298782"><ele>146.0</ele><time>2026-05-03T09:25:52Z</time></trkpt><trkpt lat="43.12017136304335" lon="10.691135714179923"><ele>146.0</ele><time>2026-05-03T09:25:53Z</time></trkpt><trkpt lat="43.12019814773277" lon="10.691253044806684"><ele>146.0</ele><time>2026-05-03T09:25:54Z</time></trkpt><trkpt lat="43.12023473537318" lon="10.691372435073978"><ele>146.0</ele><time>2026-05-03T09:25:55Z</time></trkpt><trkpt lat="43.120269468773266" lon="10.6914713436907"><ele>146.0</ele><time>2026-05-03T09:25:56Z</time></trkpt><trkpt lat="43.120299981638055" lon="10.691569432062124"><ele>145.0</ele><time>2026-05-03T09:25:57Z</time></trkpt><trkpt lat="43.12033657207659" lon="10.69172527011464"><ele>144.0</ele><time>2026-05-03T09:25:58Z</time></trkpt><trkpt lat="43.12035180170091" lon="10.691865790399596"><ele>143.0</ele><time>2026-05-03T09:25:59Z</time></trkpt><trkpt lat="43.12037108716959" lon="10.692008818567265"><ele>142.0</ele><time>2026-05-03T09:26:00Z</time></trkpt><trkpt lat="43.12040721839183" lon="10.692169678580445"><ele>141.79999999999998</ele><time>2026-05-03T09:26:01Z</time></trkpt><trkpt lat="43.120438528727576" lon="10.692303923751252"><ele>141.6</ele><time>2026-05-03T09:26:02Z</time></trkpt><trkpt lat="43.120441538232406" lon="10.692429787700197"><ele>141.39999999999998</ele><time>2026-05-03T09:26:03Z</time></trkpt><trkpt lat="43.1204740047055" lon="10.692565259318828"><ele>141.2</ele><time>2026-05-03T09:26:04Z</time></trkpt><trkpt lat="43.12052316468451" lon="10.692744048369203"><ele>141.0</ele><time>2026-05-03T09:26:05Z</time></trkpt><trkpt lat="43.12053744568383" lon="10.692856118976808"><ele>141.0</ele><time>2026-05-03T09:26:06Z</time></trkpt><trkpt lat="43.120531595403996" lon="10.692967371277371"><ele>141.0</ele><time>2026-05-03T09:26:07Z</time></trkpt><trkpt lat="43.12050172227197" lon="10.693123088943578"><ele>141.0</ele><time>2026-05-03T09:26:08Z</time></trkpt><trkpt lat="43.12046896158523" lon="10.693319534996073"><ele>141.0</ele><time>2026-05-03T09:26:09Z</time></trkpt><trkpt lat="43.12041374698438" lon="10.69353965373254"><ele>140.5</ele><time>2026-05-03T09:26:10Z</time></trkpt><trkpt lat="43.120355571457694" lon="10.693753251349255"><ele>140.0</ele><time>2026-05-03T09:26:11Z</time></trkpt><trkpt lat="43.120305424542856" lon="10.693934138816639"><ele>139.5</ele><time>2026-05-03T09:26:12Z</time></trkpt><trkpt lat="43.12026580575284" lon="10.694102864198431"><ele>139.0</ele><time>2026-05-03T09:26:13Z</time></trkpt><trkpt lat="43.1202402540975" lon="10.694264255857536"><ele>139.0</ele><time>2026-05-03T09:26:14Z</time></trkpt><trkpt lat="43.12020132941078" lon="10.694392831645507"><ele>139.0</ele><time>2026-05-03T09:26:15Z</time></trkpt><trkpt lat="43.12014593686753" lon="10.694504646642292"><ele>139.0</ele><time>2026-05-03T09:26:16Z</time></trkpt><trkpt lat="43.12008114195847" lon="10.694608419429436"><ele>139.0</ele><time>2026-05-03T09:26:17Z</time></trkpt><trkpt lat="43.11998833876449" lon="10.694703815618551"><ele>139.0</ele><time>2026-05-03T09:26:18Z</time></trkpt><trkpt lat="43.11991641261465" lon="10.694809934560649"><ele>136.5</ele><time>2026-05-03T09:26:19Z</time></trkpt><trkpt lat="43.11988143067051" lon="10.694890640769128"><ele>134.0</ele><time>2026-05-03T09:26:20Z</time></trkpt><trkpt lat="43.119838445815034" lon="10.694970458196531"><ele>131.5</ele><time>2026-05-03T09:26:21Z</time></trkpt><trkpt lat="43.119777366111" lon="10.695047921105303"><ele>129.0</ele><time>2026-05-03T09:26:22Z</time></trkpt><trkpt lat="43.119717053969346" lon="10.695125312869806"><ele>126.50000000000001</ele><time>2026-05-03T09:26:23Z</time></trkpt><trkpt lat="43.11963610578959" lon="10.695245934524381"><ele>124.0</ele><time>2026-05-03T09:26:24Z</time></trkpt><trkpt lat="43.11957503219137" lon="10.695385682953297"><ele>124.0</ele><time>2026-05-03T09:26:25Z</time></trkpt><trkpt lat="43.11951937900091" lon="10.695545819724398"><ele>124.0</ele><time>2026-05-03T09:26:26Z</time></trkpt><trkpt lat="43.11945945723017" lon="10.695676777969176"><ele>124.0</ele><time>2026-05-03T09:26:27Z</time></trkpt><trkpt lat="43.11938043678783" lon="10.695785433728435"><ele>124.0</ele><time>2026-05-03T09:26:28Z</time></trkpt><trkpt lat="43.11928767763774" lon="10.695880975985226"><ele>124.0</ele><time>2026-05-03T09:26:29Z</time></trkpt><trkpt lat="43.119179471816324" lon="10.695994502581087"><ele>124.0</ele><time>2026-05-03T09:26:30Z</time></trkpt><trkpt lat="43.11907026291071" lon="10.696104933243992"><ele>124.0</ele><time>2026-05-03T09:26:31Z</time></trkpt><trkpt lat="43.11896874985262" lon="10.696214292294876"><ele>124.0</ele><time>2026-05-03T09:26:32Z</time></trkpt><trkpt lat="43.11889852420156" lon="10.696340022663112"><ele>123.75</ele><time>2026-05-03T09:26:33Z</time></trkpt><trkpt lat="43.118849994483156" lon="10.69648534527173"><ele>123.5</ele><time>2026-05-03T09:26:34Z</time></trkpt><trkpt lat="43.1188152106307" lon="10.696668797633441"><ele>123.25</ele><time>2026-05-03T09:26:35Z</time></trkpt><trkpt lat="43.11877292805855" lon="10.696859247854226"><ele>123.0</ele><time>2026-05-03T09:26:36Z</time></trkpt><trkpt lat="43.11871801159585" lon="10.697011194355381"><ele>124.80000000000001</ele><time>2026-05-03T09:26:37Z</time></trkpt><trkpt lat="43.118670385516594" lon="10.697123830304282"><ele>126.60000000000001</ele><time>2026-05-03T09:26:38Z</time></trkpt><trkpt lat="43.1186101098231" lon="10.69721528706143"><ele>128.39999999999998</ele><time>2026-05-03T09:26:39Z</time></trkpt><trkpt lat="43.11855394645488" lon="10.697306056682258"><ele>130.2</ele><time>2026-05-03T09:26:40Z</time></trkpt><trkpt lat="43.11848888297462" lon="10.697394182865045"><ele>132.0</ele><time>2026-05-03T09:26:41Z</time></trkpt><trkpt lat="43.118412186248115" lon="10.697462961926917"><ele>132.0</ele><time>2026-05-03T09:26:42Z</time></trkpt><trkpt lat="43.118320928237466" lon="10.69750889131194"><ele>132.0</ele><time>2026-05-03T09:26:43Z</time></trkpt><trkpt lat="43.11826079332317" lon="10.69756791904326"><ele>132.0</ele><time>2026-05-03T09:26:44Z</time></trkpt><trkpt lat="43.11821931719528" lon="10.697659796392434"><ele>132.0</ele><time>2026-05-03T09:26:45Z</time></trkpt><trkpt lat="43.118215166339844" lon="10.697784152254867"><ele>132.0</ele><time>2026-05-03T09:26:46Z</time></trkpt><trkpt lat="43.118222177573514" lon="10.697915471947352"><ele>132.0</ele><time>2026-05-03T09:26:47Z</time></trkpt><trkpt lat="43.11821798388113" lon="10.698059784013353"><ele>131.6</ele><time>2026-05-03T09:26:48Z</time></trkpt><trkpt lat="43.118219242410284" lon="10.698177948929121"><ele>131.2</ele><time>2026-05-03T09:26:49Z</time></trkpt><trkpt lat="43.1182258525854" lon="10.698275388405648"><ele>130.8</ele><time>2026-05-03T09:26:50Z</time></trkpt><trkpt lat="43.118269602333584" lon="10.698372256469161"><ele>130.4</ele><time>2026-05-03T09:26:51Z</time></trkpt><trkpt lat="43.11834326330662" lon="10.698474688390153"><ele>130.0</ele><time>2026-05-03T09:26:52Z</time></trkpt><trkpt lat="43.11844954931009" lon="10.69862985410271"><ele>131.0</ele><time>2026-05-03T09:26:53Z</time></trkpt><trkpt lat="43.118535324291564" lon="10.698769288078275"><ele>132.0</ele><time>2026-05-03T09:26:54Z</time></trkpt><trkpt lat="43.11860647633286" lon="10.698906181649933"><ele>133.0</ele><time>2026-05-03T09:26:55Z</time></trkpt><trkpt lat="43.118665110010625" lon="10.69903974117875"><ele>134.0</ele><time>2026-05-03T09:26:56Z</time></trkpt><trkpt lat="43.118735636101604" lon="10.699201879495273"><ele>134.0</ele><time>2026-05-03T09:26:57Z</time></trkpt><trkpt lat="43.1188059751903" lon="10.699357502219156"><ele>134.0</ele><time>2026-05-03T09:26:58Z</time></trkpt><trkpt lat="43.1188820336056" lon="10.699489950572364"><ele>134.0</ele><time>2026-05-03T09:26:59Z</time></trkpt><trkpt lat="43.11896152976322" lon="10.69962006107666"><ele>134.0</ele><time>2026-05-03T09:27:00Z</time></trkpt><trkpt lat="43.11903476979342" lon="10.699741215246721"><ele>135.6</ele><time>2026-05-03T09:27:01Z</time></trkpt><trkpt lat="43.11908811295897" lon="10.699870583670183"><ele>137.2</ele><time>2026-05-03T09:27:02Z</time></trkpt><trkpt lat="43.11912849781475" lon="10.700013038117806"><ele>138.79999999999998</ele><time>2026-05-03T09:27:03Z</time></trkpt><trkpt lat="43.11916099387023" lon="10.700167408850065"><ele>140.4</ele><time>2026-05-03T09:27:04Z</time></trkpt><trkpt lat="43.1191924299725" lon="10.700300940293896"><ele>142.0</ele><time>2026-05-03T09:27:05Z</time></trkpt><trkpt lat="43.119237735877846" lon="10.700428253984375"><ele>142.5</ele><time>2026-05-03T09:27:06Z</time></trkpt><trkpt lat="43.119300788012985" lon="10.700592237752968"><ele>143.0</ele><time>2026-05-03T09:27:07Z</time></trkpt><trkpt lat="43.11934143325981" lon="10.700749977298434"><ele>143.5</ele><time>2026-05-03T09:27:08Z</time></trkpt><trkpt lat="43.119373210980555" lon="10.700933761731369"><ele>144.0</ele><time>2026-05-03T09:27:09Z</time></trkpt><trkpt lat="43.1193910530084" lon="10.701150214741677"><ele>144.5</ele><time>2026-05-03T09:27:10Z</time></trkpt><trkpt lat="43.119397757382785" lon="10.70134607142313"><ele>145.0</ele><time>2026-05-03T09:27:11Z</time></trkpt><trkpt lat="43.11942122453984" lon="10.701542052842257"><ele>145.5</ele><time>2026-05-03T09:27:12Z</time></trkpt><trkpt lat="43.119450921795504" lon="10.70173043542365"><ele>146.0</ele><time>2026-05-03T09:27:13Z</time></trkpt><trkpt lat="43.119442967662366" lon="10.701857763256951"><ele>146.5</ele><time>2026-05-03T09:27:14Z</time></trkpt><trkpt lat="43.119468996387354" lon="10.701944436195056"><ele>147.0</ele><time>2026-05-03T09:27:15Z</time></trkpt><trkpt lat="43.11958154848223" lon="10.702076847565179"><ele>147.5</ele><time>2026-05-03T09:27:17Z</time></trkpt><trkpt lat="43.11970248038522" lon="10.702132946689424"><ele>148.0</ele><time>2026-05-03T09:27:18Z</time></trkpt><trkpt lat="43.11980857968341" lon="10.702176136813017"><ele>148.0</ele><time>2026-05-03T09:27:19Z</time></trkpt><trkpt lat="43.11986280293855" lon="10.702225542635166"><ele>148.0</ele><time>2026-05-03T09:27:20Z</time></trkpt><trkpt lat="43.11990648993001" lon="10.702302629806525"><ele>148.0</ele><time>2026-05-03T09:27:21Z</time></trkpt><trkpt lat="43.11995805599761" lon="10.702419283115843"><ele>148.0</ele><time>2026-05-03T09:27:22Z</time></trkpt><trkpt lat="43.11998096442288" lon="10.70257176946732"><ele>148.0</ele><time>2026-05-03T09:27:23Z</time></trkpt><trkpt lat="43.1200132633189" lon="10.702724508609514"><ele>148.0</ele><time>2026-05-03T09:27:24Z</time></trkpt><trkpt lat="43.12004252114766" lon="10.70283518150753"><ele>148.0</ele><time>2026-05-03T09:27:25Z</time></trkpt><trkpt lat="43.12009014075428" lon="10.702938674337657"><ele>148.0</ele><time>2026-05-03T09:27:26Z</time></trkpt><trkpt lat="43.120168949227065" lon="10.70306556994015"><ele>148.0</ele><time>2026-05-03T09:27:27Z</time></trkpt><trkpt lat="43.12028798050866" lon="10.703188262846293"><ele>148.0</ele><time>2026-05-03T09:27:28Z</time></trkpt><trkpt lat="43.120366206211266" lon="10.703320825584129"><ele>148.0</ele><time>2026-05-03T09:27:29Z</time></trkpt><trkpt lat="43.12043746271706" lon="10.703445756502854"><ele>148.0</ele><time>2026-05-03T09:27:30Z</time></trkpt><trkpt lat="43.120521096345165" lon="10.70356301381245"><ele>148.0</ele><time>2026-05-03T09:27:31Z</time></trkpt><trkpt lat="43.12063262275208" lon="10.70366839163084"><ele>148.0</ele><time>2026-05-03T09:27:32Z</time></trkpt><trkpt lat="43.12072317630325" lon="10.703755992770624"><ele>146.83333333333334</ele><time>2026-05-03T09:27:33Z</time></trkpt><trkpt lat="43.12080243680863" lon="10.703818124374514"><ele>145.66666666666669</ele><time>2026-05-03T09:27:34Z</time></trkpt><trkpt lat="43.12087354769311" lon="10.703898977110592"><ele>144.5</ele><time>2026-05-03T09:27:35Z</time></trkpt><trkpt lat="43.1209290028931" lon="10.703974397857568"><ele>143.33333333333334</ele><time>2026-05-03T09:27:36Z</time></trkpt><trkpt lat="43.12096127048911" lon="10.704076230540487"><ele>142.16666666666666</ele><time>2026-05-03T09:27:37Z</time></trkpt><trkpt lat="43.12096371156175" lon="10.70420747188947"><ele>141.0</ele><time>2026-05-03T09:27:38Z</time></trkpt><trkpt lat="43.12094817962578" lon="10.704349783727006"><ele>140.5</ele><time>2026-05-03T09:27:39Z</time></trkpt><trkpt lat="43.12097397780743" lon="10.704495492156001"><ele>140.0</ele><time>2026-05-03T09:27:40Z</time></trkpt><trkpt lat="43.12103724457192" lon="10.704634203560424"><ele>139.5</ele><time>2026-05-03T09:27:41Z</time></trkpt><trkpt lat="43.12108359525852" lon="10.704781802335944"><ele>139.0</ele><time>2026-05-03T09:27:42Z</time></trkpt><trkpt lat="43.12109369865329" lon="10.704958681976938"><ele>139.0</ele><time>2026-05-03T09:27:43Z</time></trkpt><trkpt lat="43.12111612503551" lon="10.705139996689837"><ele>139.0</ele><time>2026-05-03T09:27:44Z</time></trkpt><trkpt lat="43.121109012634655" lon="10.705267587773418"><ele>139.0</ele><time>2026-05-03T09:27:45Z</time></trkpt><trkpt lat="43.121083172941276" lon="10.705389562388511"><ele>139.0</ele><time>2026-05-03T09:27:46Z</time></trkpt><trkpt lat="43.12104441735262" lon="10.70554868848703"><ele>139.0</ele><time>2026-05-03T09:27:47Z</time></trkpt><trkpt lat="43.121033773953336" lon="10.705729232795639"><ele>138.6</ele><time>2026-05-03T09:27:48Z</time></trkpt><trkpt lat="43.12102042180092" lon="10.705877180473417"><ele>138.2</ele><time>2026-05-03T09:27:49Z</time></trkpt><trkpt lat="43.12100758701923" lon="10.705982748140437"><ele>137.79999999999998</ele><time>2026-05-03T09:27:50Z</time></trkpt><trkpt lat="43.12096419459534" lon="10.706109636275158"><ele>137.4</ele><time>2026-05-03T09:27:51Z</time></trkpt><trkpt lat="43.12091467911765" lon="10.70625092907017"><ele>137.0</ele><time>2026-05-03T09:27:52Z</time></trkpt><trkpt lat="43.12087073678256" lon="10.706410639840724"><ele>137.0</ele><time>2026-05-03T09:27:53Z</time></trkpt><trkpt lat="43.12083062608111" lon="10.706572189880927"><ele>137.0</ele><time>2026-05-03T09:27:54Z</time></trkpt><trkpt lat="43.12080379522914" lon="10.706748367880213"><ele>137.0</ele><time>2026-05-03T09:27:55Z</time></trkpt><trkpt lat="43.12078308929202" lon="10.706895834536676"><ele>137.0</ele><time>2026-05-03T09:27:56Z</time></trkpt><trkpt lat="43.120756555124885" lon="10.707018441433638"><ele>137.79999999999998</ele><time>2026-05-03T09:27:57Z</time></trkpt><trkpt lat="43.12073799227259" lon="10.707139803821153"><ele>138.6</ele><time>2026-05-03T09:27:58Z</time></trkpt><trkpt lat="43.12071520132979" lon="10.707271246384845"><ele>139.39999999999998</ele><time>2026-05-03T09:27:59Z</time></trkpt><trkpt lat="43.12070330057387" lon="10.707421612131364"><ele>140.2</ele><time>2026-05-03T09:28:00Z</time></trkpt><trkpt lat="43.1206986261722" lon="10.707576687512061"><ele>141.0</ele><time>2026-05-03T09:28:01Z</time></trkpt><trkpt lat="43.12069989434393" lon="10.707742875104342"><ele>141.2</ele><time>2026-05-03T09:28:02Z</time></trkpt><trkpt lat="43.12070662661924" lon="10.707919306671913"><ele>141.39999999999998</ele><time>2026-05-03T09:28:03Z</time></trkpt><trkpt lat="43.12070690565241" lon="10.708072469429114"><ele>141.6</ele><time>2026-05-03T09:28:04Z</time></trkpt><trkpt lat="43.12071622274158" lon="10.70818989478007"><ele>141.79999999999998</ele><time>2026-05-03T09:28:05Z</time></trkpt><trkpt lat="43.120749015454884" lon="10.708268223633993"><ele>142.0</ele><time>2026-05-03T09:28:06Z</time></trkpt><trkpt lat="43.12081924217151" lon="10.708341104375265"><ele>142.0</ele><time>2026-05-03T09:28:07Z</time></trkpt><trkpt lat="43.120876860452974" lon="10.708446763216365"><ele>142.0</ele><time>2026-05-03T09:28:08Z</time></trkpt><trkpt lat="43.12092530408399" lon="10.708551801628403"><ele>142.0</ele><time>2026-05-03T09:28:09Z</time></trkpt><trkpt lat="43.12095845390134" lon="10.70868359597435"><ele>142.0</ele><time>2026-05-03T09:28:10Z</time></trkpt><trkpt lat="43.120991020865006" lon="10.708797901572803"><ele>142.0</ele><time>2026-05-03T09:28:11Z</time></trkpt><trkpt lat="43.12103254145874" lon="10.708924279416783"><ele>142.2</ele><time>2026-05-03T09:28:12Z</time></trkpt><trkpt lat="43.12104755248605" lon="10.70907920870263"><ele>142.39999999999998</ele><time>2026-05-03T09:28:13Z</time></trkpt><trkpt lat="43.12106516865742" lon="10.709179812622791"><ele>142.60000000000002</ele><time>2026-05-03T09:28:14Z</time></trkpt><trkpt lat="43.12111358425944" lon="10.709331240509991"><ele>142.8</ele><time>2026-05-03T09:28:16Z</time></trkpt><trkpt lat="43.12111900621594" lon="10.709427845475231"><ele>143.0</ele><time>2026-05-03T09:28:17Z</time></trkpt><trkpt lat="43.121120133577456" lon="10.709521824620904"><ele>141.83333333333331</ele><time>2026-05-03T09:28:18Z</time></trkpt><trkpt lat="43.12111326437759" lon="10.70962048150532"><ele>140.66666666666666</ele><time>2026-05-03T09:28:19Z</time></trkpt><trkpt lat="43.121114869735855" lon="10.709721503764786"><ele>139.5</ele><time>2026-05-03T09:28:20Z</time></trkpt><trkpt lat="43.121121100829185" lon="10.709822487730216"><ele>138.33333333333334</ele><time>2026-05-03T09:28:21Z</time></trkpt><trkpt lat="43.121128563402685" lon="10.70995582274228"><ele>137.16666666666669</ele><time>2026-05-03T09:28:22Z</time></trkpt><trkpt lat="43.121129898069384" lon="10.710094713144828"><ele>136.0</ele><time>2026-05-03T09:28:23Z</time></trkpt><trkpt lat="43.12112399108189" lon="10.710232072258403"><ele>134.5</ele><time>2026-05-03T09:28:24Z</time></trkpt><trkpt lat="43.121104686139404" lon="10.71036272774317"><ele>133.0</ele><time>2026-05-03T09:28:25Z</time></trkpt><trkpt lat="43.121093981244236" lon="10.710516615530803"><ele>131.5</ele><time>2026-05-03T09:28:26Z</time></trkpt><trkpt lat="43.12107990365221" lon="10.710686816914041"><ele>130.0</ele><time>2026-05-03T09:28:27Z</time></trkpt><trkpt lat="43.12109203691946" lon="10.710875086411988"><ele>130.0</ele><time>2026-05-03T09:28:28Z</time></trkpt><trkpt lat="43.12111199313524" lon="10.711067462737237"><ele>130.0</ele><time>2026-05-03T09:28:29Z</time></trkpt><trkpt lat="43.12112494846389" lon="10.711219949676433"><ele>130.0</ele><time>2026-05-03T09:28:30Z</time></trkpt><trkpt lat="43.12113238257816" lon="10.711344133828385"><ele>130.0</ele><time>2026-05-03T09:28:31Z</time></trkpt><trkpt lat="43.12113065614055" lon="10.711481477579207"><ele>130.0</ele><time>2026-05-03T09:28:32Z</time></trkpt><trkpt lat="43.12114863486988" lon="10.711629333694932"><ele>130.0</ele><time>2026-05-03T09:28:33Z</time></trkpt><trkpt lat="43.12118589293133" lon="10.711765214581211"><ele>130.0</ele><time>2026-05-03T09:28:34Z</time></trkpt><trkpt lat="43.12123183214335" lon="10.711910349234277"><ele>130.0</ele><time>2026-05-03T09:28:35Z</time></trkpt><trkpt lat="43.12128984211546" lon="10.71200648128253"><ele>130.0</ele><time>2026-05-03T09:28:36Z</time></trkpt><trkpt lat="43.121336768017166" lon="10.712103120967408"><ele>130.0</ele><time>2026-05-03T09:28:37Z</time></trkpt><trkpt lat="43.12134899568353" lon="10.712227445410873"><ele>130.25</ele><time>2026-05-03T09:28:38Z</time></trkpt><trkpt lat="43.12136215249915" lon="10.712396222284303"><ele>130.5</ele><time>2026-05-03T09:28:39Z</time></trkpt><trkpt lat="43.12137637507757" lon="10.712552993093128"><ele>130.75</ele><time>2026-05-03T09:28:40Z</time></trkpt><trkpt lat="43.12141234455107" lon="10.712695205705028"><ele>131.0</ele><time>2026-05-03T09:28:41Z</time></trkpt><trkpt lat="43.121461277305826" lon="10.712832738827377"><ele>131.0</ele><time>2026-05-03T09:28:42Z</time></trkpt><trkpt lat="43.121511950757984" lon="10.712969328611674"><ele>131.0</ele><time>2026-05-03T09:28:43Z</time></trkpt><trkpt lat="43.121579655560765" lon="10.713064069090324"><ele>131.0</ele><time>2026-05-03T09:28:44Z</time></trkpt><trkpt lat="43.121650305396656" lon="10.713180852985806"><ele>131.0</ele><time>2026-05-03T09:28:45Z</time></trkpt><trkpt lat="43.12172618894397" lon="10.713278357902714"><ele>131.0</ele><time>2026-05-03T09:28:46Z</time></trkpt><trkpt lat="43.12175773420922" lon="10.713367830486245"><ele>129.66666666666666</ele><time>2026-05-03T09:28:47Z</time></trkpt><trkpt lat="43.12179308786782" lon="10.713462204890352"><ele>128.33333333333331</ele><time>2026-05-03T09:28:48Z</time></trkpt><trkpt lat="43.12183380129918" lon="10.713570495787323"><ele>127.0</ele><time>2026-05-03T09:28:49Z</time></trkpt><trkpt lat="43.12185799962649" lon="10.713685931393261"><ele>125.66666666666666</ele><time>2026-05-03T09:28:50Z</time></trkpt><trkpt lat="43.12188147810036" lon="10.713791147163207"><ele>124.33333333333333</ele><time>2026-05-03T09:28:51Z</time></trkpt><trkpt lat="43.12189522347052" lon="10.713915066188427"><ele>123.0</ele><time>2026-05-03T09:28:52Z</time></trkpt><trkpt lat="43.12190170537019" lon="10.714036155291831"><ele>122.2</ele><time>2026-05-03T09:28:53Z</time></trkpt><trkpt lat="43.121917680841115" lon="10.7141686884654"><ele>121.4</ele><time>2026-05-03T09:28:54Z</time></trkpt><trkpt lat="43.121927968271315" lon="10.714291056517546"><ele>120.60000000000001</ele><time>2026-05-03T09:28:55Z</time></trkpt><trkpt lat="43.1219343972319" lon="10.714418600080453"><ele>119.80000000000001</ele><time>2026-05-03T09:28:56Z</time></trkpt><trkpt lat="43.12196631566325" lon="10.7145430505771"><ele>119.0</ele><time>2026-05-03T09:28:57Z</time></trkpt><trkpt lat="43.12198158291362" lon="10.714661929618137"><ele>117.49999999999999</ele><time>2026-05-03T09:28:58Z</time></trkpt><trkpt lat="43.1220075670477" lon="10.714771698201078"><ele>116.0</ele><time>2026-05-03T09:28:59Z</time></trkpt><trkpt lat="43.12202082768157" lon="10.714879755818199"><ele>114.5</ele><time>2026-05-03T09:29:00Z</time></trkpt><trkpt lat="43.12204767965799" lon="10.714995172496609"><ele>113.0</ele><time>2026-05-03T09:29:01Z</time></trkpt><trkpt lat="43.12207358558717" lon="10.715109124452903"><ele>111.49999999999999</ele><time>2026-05-03T09:29:02Z</time></trkpt><trkpt lat="43.122104652199745" lon="10.715238499693946"><ele>110.0</ele><time>2026-05-03T09:29:03Z</time></trkpt><trkpt lat="43.12212549306062" lon="10.715348985775238"><ele>108.16666666666666</ele><time>2026-05-03T09:29:04Z</time></trkpt><trkpt lat="43.12215193470845" lon="10.715476472420347"><ele>106.33333333333333</ele><time>2026-05-03T09:29:05Z</time></trkpt><trkpt lat="43.12218855020254" lon="10.715583197984996"><ele>104.5</ele><time>2026-05-03T09:29:06Z</time></trkpt><trkpt lat="43.12222727088742" lon="10.715674652144566"><ele>102.66666666666666</ele><time>2026-05-03T09:29:07Z</time></trkpt><trkpt lat="43.122278638421825" lon="10.715755077492245"><ele>100.83333333333333</ele><time>2026-05-03T09:29:08Z</time></trkpt><trkpt lat="43.12234262953809" lon="10.71582299122581"><ele>99.0</ele><time>2026-05-03T09:29:09Z</time></trkpt><trkpt lat="43.12239073620852" lon="10.71588081641338"><ele>98.5</ele><time>2026-05-03T09:29:10Z</time></trkpt><trkpt lat="43.12248387703475" lon="10.71595156011661"><ele>98.0</ele><time>2026-05-03T09:29:12Z</time></trkpt><trkpt lat="43.12255857869646" lon="10.71593303175701"><ele>97.5</ele><time>2026-05-03T09:29:13Z</time></trkpt><trkpt lat="43.12263455064194" lon="10.715924434442435"><ele>97.0</ele><time>2026-05-03T09:29:14Z</time></trkpt><trkpt lat="43.12274680312062" lon="10.715881463016673"><ele>96.5</ele><time>2026-05-03T09:29:16Z</time></trkpt><trkpt lat="43.12281557126968" lon="10.715861226482133"><ele>96.0</ele><time>2026-05-03T09:29:18Z</time></trkpt><trkpt lat="43.12283236576906" lon="10.715736155755415"><ele>96.0</ele><time>2026-05-03T09:29:23Z</time></trkpt><trkpt lat="43.1228251961689" lon="10.715587990405071"><ele>96.0</ele><time>2026-05-03T09:29:25Z</time></trkpt><trkpt lat="43.12281811996829" lon="10.715444769853484"><ele>96.0</ele><time>2026-05-03T09:29:27Z</time></trkpt><trkpt lat="43.12281926695444" lon="10.71534460929823"><ele>96.0</ele><time>2026-05-03T09:29:28Z</time></trkpt><trkpt lat="43.122807423375406" lon="10.71522096860418"><ele>96.0</ele><time>2026-05-03T09:29:29Z</time></trkpt><trkpt lat="43.12283435205987" lon="10.715029976267896"><ele>96.5</ele><time>2026-05-03T09:29:31Z</time></trkpt><trkpt lat="43.12288801335405" lon="10.71489657259874"><ele>97.0</ele><time>2026-05-03T09:29:32Z</time></trkpt><trkpt lat="43.12290024053593" lon="10.714753389057591"><ele>97.5</ele><time>2026-05-03T09:29:33Z</time></trkpt><trkpt lat="43.12292597534189" lon="10.714658128956323"><ele>98.0</ele><time>2026-05-03T09:29:34Z</time></trkpt><trkpt lat="43.122971450178454" lon="10.714575870602866"><ele>98.5</ele><time>2026-05-03T09:29:35Z</time></trkpt><trkpt lat="43.12300863673168" lon="10.714505573119647"><ele>99.0</ele><time>2026-05-03T09:29:36Z</time></trkpt><trkpt lat="43.123068077869156" lon="10.714393205469245"><ele>99.6</ele><time>2026-05-03T09:29:38Z</time></trkpt><trkpt lat="43.12310766566804" lon="10.714317433233088"><ele>100.2</ele><time>2026-05-03T09:29:40Z</time></trkpt><trkpt lat="43.12314702254982" lon="10.714239612252712"><ele>100.8</ele><time>2026-05-03T09:29:42Z</time></trkpt><trkpt lat="43.12319194115477" lon="10.714090546053303"><ele>101.39999999999999</ele><time>2026-05-03T09:29:44Z</time></trkpt><trkpt lat="43.12327803486966" lon="10.713966008360329"><ele>102.0</ele><time>2026-05-03T09:29:46Z</time></trkpt><trkpt lat="43.12332724625709" lon="10.71386891823267"><ele>98.8</ele><time>2026-05-03T09:29:47Z</time></trkpt><trkpt lat="43.12340283681123" lon="10.713773268136112"><ele>95.6</ele><time>2026-05-03T09:29:48Z</time></trkpt><trkpt lat="43.123483743954324" lon="10.713676124915237"><ele>92.39999999999999</ele><time>2026-05-03T09:29:49Z</time></trkpt><trkpt lat="43.12356574550616" lon="10.713577457767393"><ele>89.19999999999999</ele><time>2026-05-03T09:29:50Z</time></trkpt><trkpt lat="43.12364520652695" lon="10.71347584829891"><ele>86.0</ele><time>2026-05-03T09:29:51Z</time></trkpt><trkpt lat="43.12372063251907" lon="10.713391068579641"><ele>86.0</ele><time>2026-05-03T09:29:52Z</time></trkpt><trkpt lat="43.12378647147382" lon="10.713311614097044"><ele>86.0</ele><time>2026-05-03T09:29:53Z</time></trkpt><trkpt lat="43.123847076138524" lon="10.713233409774018"><ele>86.0</ele><time>2026-05-03T09:29:54Z</time></trkpt><trkpt lat="43.12390337892416" lon="10.713152213863484"><ele>86.0</ele><time>2026-05-03T09:29:55Z</time></trkpt><trkpt lat="43.123952780669306" lon="10.71308849309093"><ele>86.0</ele><time>2026-05-03T09:29:56Z</time></trkpt><trkpt lat="43.12400450865233" lon="10.713025705272747"><ele>86.0</ele><time>2026-05-03T09:29:57Z</time></trkpt><trkpt lat="43.12407329815818" lon="10.713003188885285"><ele>85.0</ele><time>2026-05-03T09:29:58Z</time></trkpt><trkpt lat="43.124125467283534" lon="10.71294863609143"><ele>84.0</ele><time>2026-05-03T09:29:59Z</time></trkpt><trkpt lat="43.12418409455099" lon="10.712882979576973"><ele>83.0</ele><time>2026-05-03T09:30:00Z</time></trkpt><trkpt lat="43.124241811517955" lon="10.712811282036908"><ele>82.0</ele><time>2026-05-03T09:30:01Z</time></trkpt><trkpt lat="43.124319968895065" lon="10.712659352381852"><ele>81.0</ele><time>2026-05-03T09:30:03Z</time></trkpt><trkpt lat="43.12435457808979" lon="10.71254510937717"><ele>80.0</ele><time>2026-05-03T09:30:04Z</time></trkpt><trkpt lat="43.12438029000718" lon="10.712401817336891"><ele>80.0</ele><time>2026-05-03T09:30:05Z</time></trkpt><trkpt lat="43.12440959716536" lon="10.71225299748424"><ele>80.0</ele><time>2026-05-03T09:30:06Z</time></trkpt><trkpt lat="43.12444158191181" lon="10.7121147860915"><ele>80.0</ele><time>2026-05-03T09:30:07Z</time></trkpt><trkpt lat="43.124461983035395" lon="10.711965037748161"><ele>80.0</ele><time>2026-05-03T09:30:08Z</time></trkpt><trkpt lat="43.12451096719916" lon="10.711839368986299"><ele>80.0</ele><time>2026-05-03T09:30:09Z</time></trkpt><trkpt lat="43.124544069401225" lon="10.711686487294388"><ele>80.0</ele><time>2026-05-03T09:30:10Z</time></trkpt><trkpt lat="43.12456929180914" lon="10.71157105802577"><ele>80.0</ele><time>2026-05-03T09:30:11Z</time></trkpt><trkpt lat="43.12459341365237" lon="10.711463221622784"><ele>80.0</ele><time>2026-05-03T09:30:12Z</time></trkpt><trkpt lat="43.124644049238825" lon="10.71139231497278"><ele>80.0</ele><time>2026-05-03T09:30:13Z</time></trkpt><trkpt lat="43.124706728898616" lon="10.711347857654292"><ele>80.0</ele><time>2026-05-03T09:30:15Z</time></trkpt><trkpt lat="43.12473606112965" lon="10.711507549797895"><ele>80.0</ele><time>2026-05-03T09:30:20Z</time></trkpt><trkpt lat="43.124734337308546" lon="10.711697161066786"><ele>80.0</ele><time>2026-05-03T09:30:22Z</time></trkpt><trkpt lat="43.1247322392276" lon="10.711804531823148"><ele>80.0</ele><time>2026-05-03T09:30:23Z</time></trkpt><trkpt lat="43.1247247306954" lon="10.711917533060074"><ele>80.0</ele><time>2026-05-03T09:30:24Z</time></trkpt><trkpt lat="43.124723199314005" lon="10.71202471944055"><ele>80.0</ele><time>2026-05-03T09:30:25Z</time></trkpt><trkpt lat="43.12472231495672" lon="10.71213913010756"><ele>80.0</ele><time>2026-05-03T09:30:26Z</time></trkpt><trkpt lat="43.12472397436489" lon="10.712251643239346"><ele>80.0</ele><time>2026-05-03T09:30:27Z</time></trkpt><trkpt lat="43.124730267748106" lon="10.712369347236196"><ele>80.0</ele><time>2026-05-03T09:30:28Z</time></trkpt><trkpt lat="43.124737151172525" lon="10.712487664535898"><ele>80.0</ele><time>2026-05-03T09:30:29Z</time></trkpt><trkpt lat="43.124741843787326" lon="10.712604934195877"><ele>80.0</ele><time>2026-05-03T09:30:30Z</time></trkpt><trkpt lat="43.124752706268616" lon="10.712720813611247"><ele>80.0</ele><time>2026-05-03T09:30:31Z</time></trkpt><trkpt lat="43.12475371365258" lon="10.712840866825102"><ele>80.0</ele><time>2026-05-03T09:30:32Z</time></trkpt><trkpt lat="43.12475832665616" lon="10.712948237871123"><ele>80.0</ele><time>2026-05-03T09:30:33Z</time></trkpt><trkpt lat="43.12476564763575" lon="10.713047292587504"><ele>80.0</ele><time>2026-05-03T09:30:34Z</time></trkpt><trkpt lat="43.124775946204615" lon="10.713155092378548"><ele>80.0</ele><time>2026-05-03T09:30:35Z</time></trkpt><trkpt lat="43.1247940707907" lon="10.713274948108843"><ele>80.0</ele><time>2026-05-03T09:30:36Z</time></trkpt><trkpt lat="43.12481141569739" lon="10.713398119427714"><ele>80.0</ele><time>2026-05-03T09:30:37Z</time></trkpt><trkpt lat="43.12482690130524" lon="10.713524745303257"><ele>80.0</ele><time>2026-05-03T09:30:38Z</time></trkpt><trkpt lat="43.12484686708263" lon="10.71364757293255"><ele>80.0</ele><time>2026-05-03T09:30:39Z</time></trkpt><trkpt lat="43.12486915877784" lon="10.713771126010581"><ele>79.8</ele><time>2026-05-03T09:30:40Z</time></trkpt><trkpt lat="43.12489398686262" lon="10.713903902275375"><ele>79.6</ele><time>2026-05-03T09:30:41Z</time></trkpt><trkpt lat="43.1249180014297" lon="10.71405419275728"><ele>79.4</ele><time>2026-05-03T09:30:42Z</time></trkpt><trkpt lat="43.12494355270848" lon="10.714201663256178"><ele>79.2</ele><time>2026-05-03T09:30:43Z</time></trkpt><trkpt lat="43.12497133510239" lon="10.714347963644714"><ele>79.0</ele><time>2026-05-03T09:30:44Z</time></trkpt><trkpt lat="43.12500498969609" lon="10.714510856634611"><ele>79.0</ele><time>2026-05-03T09:30:45Z</time></trkpt><trkpt lat="43.12503512442125" lon="10.714684831633914"><ele>79.0</ele><time>2026-05-03T09:30:46Z</time></trkpt><trkpt lat="43.12506225778052" lon="10.71484944890601"><ele>79.0</ele><time>2026-05-03T09:30:47Z</time></trkpt><trkpt lat="43.12509216338083" lon="10.715016330190016"><ele>79.0</ele><time>2026-05-03T09:30:48Z</time></trkpt><trkpt lat="43.125103885485615" lon="10.715176156219174"><ele>78.5</ele><time>2026-05-03T09:30:49Z</time></trkpt><trkpt lat="43.125142311066064" lon="10.715335187223374"><ele>78.0</ele><time>2026-05-03T09:30:50Z</time></trkpt><trkpt lat="43.12517373422572" lon="10.715512395431414"><ele>77.5</ele><time>2026-05-03T09:30:51Z</time></trkpt><trkpt lat="43.1252049026522" lon="10.715684827090902"><ele>77.0</ele><time>2026-05-03T09:30:52Z</time></trkpt><trkpt lat="43.12523222611694" lon="10.715844252973456"><ele>77.0</ele><time>2026-05-03T09:30:53Z</time></trkpt><trkpt lat="43.125256796972906" lon="10.715993782472887"><ele>77.0</ele><time>2026-05-03T09:30:54Z</time></trkpt><trkpt lat="43.125275189758014" lon="10.716134597269091"><ele>77.0</ele><time>2026-05-03T09:30:55Z</time></trkpt><trkpt lat="43.1252917813025" lon="10.716269868917244"><ele>77.0</ele><time>2026-05-03T09:30:56Z</time></trkpt><trkpt lat="43.12531319755024" lon="10.716394261033667"><ele>77.0</ele><time>2026-05-03T09:30:57Z</time></trkpt><trkpt lat="43.12533803480642" lon="10.71651620484739"><ele>77.0</ele><time>2026-05-03T09:30:58Z</time></trkpt><trkpt lat="43.12535751652686" lon="10.716627850711696"><ele>77.0</ele><time>2026-05-03T09:30:59Z</time></trkpt><trkpt lat="43.125369432143636" lon="10.716721291167623"><ele>77.0</ele><time>2026-05-03T09:31:00Z</time></trkpt><trkpt lat="43.125380343404196" lon="10.71680875084531"><ele>77.0</ele><time>2026-05-03T09:31:01Z</time></trkpt><trkpt lat="43.12539351710709" lon="10.716946343636621"><ele>77.0</ele><time>2026-05-03T09:31:03Z</time></trkpt><trkpt lat="43.125531780924625" lon="10.71701961864176"><ele>77.0</ele><time>2026-05-03T09:31:05Z</time></trkpt><trkpt lat="43.1256194574503" lon="10.717035401021915"><ele>77.0</ele><time>2026-05-03T09:31:06Z</time></trkpt><trkpt lat="43.12570682721063" lon="10.717063193920485"><ele>77.0</ele><time>2026-05-03T09:31:07Z</time></trkpt><trkpt lat="43.12580510535476" lon="10.717080415476106"><ele>77.0</ele><time>2026-05-03T09:31:08Z</time></trkpt><trkpt lat="43.12591203342367" lon="10.717079774130791"><ele>77.0</ele><time>2026-05-03T09:31:09Z</time></trkpt><trkpt lat="43.126011021340204" lon="10.717119194212923"><ele>77.0</ele><time>2026-05-03T09:31:10Z</time></trkpt><trkpt lat="43.12612204348286" lon="10.717119328940887"><ele>77.0</ele><time>2026-05-03T09:31:11Z</time></trkpt><trkpt lat="43.12622868744607" lon="10.717150632146238"><ele>77.0</ele><time>2026-05-03T09:31:12Z</time></trkpt><trkpt lat="43.126333377947326" lon="10.717181814351049"><ele>77.0</ele><time>2026-05-03T09:31:13Z</time></trkpt><trkpt lat="43.126444439242825" lon="10.717208854897978"><ele>77.0</ele><time>2026-05-03T09:31:14Z</time></trkpt><trkpt lat="43.12655325277548" lon="10.717248398326877"><ele>77.25</ele><time>2026-05-03T09:31:15Z</time></trkpt><trkpt lat="43.126664944161384" lon="10.717294902299402"><ele>77.5</ele><time>2026-05-03T09:31:16Z</time></trkpt><trkpt lat="43.12677685668268" lon="10.717340804432462"><ele>77.75</ele><time>2026-05-03T09:31:17Z</time></trkpt><trkpt lat="43.126894409050635" lon="10.717392004939773"><ele>78.0</ele><time>2026-05-03T09:31:18Z</time></trkpt><trkpt lat="43.12701178851261" lon="10.717471235316136"><ele>78.0</ele><time>2026-05-03T09:31:19Z</time></trkpt><trkpt lat="43.12713603526419" lon="10.717509711156433"><ele>78.0</ele><time>2026-05-03T09:31:20Z</time></trkpt><trkpt lat="43.12726346871373" lon="10.717575036143394"><ele>78.0</ele><time>2026-05-03T09:31:21Z</time></trkpt><trkpt lat="43.12738784354702" lon="10.717651411147816"><ele>78.0</ele><time>2026-05-03T09:31:22Z</time></trkpt><trkpt lat="43.127512474610405" lon="10.717719929383295"><ele>78.25</ele><time>2026-05-03T09:31:23Z</time></trkpt><trkpt lat="43.127641733116334" lon="10.717788709756844"><ele>78.5</ele><time>2026-05-03T09:31:24Z</time></trkpt><trkpt lat="43.1277756961326" lon="10.717854885253393"><ele>78.75</ele><time>2026-05-03T09:31:25Z</time></trkpt><trkpt lat="43.12790984669914" lon="10.71792354371748"><ele>79.0</ele><time>2026-05-03T09:31:26Z</time></trkpt><trkpt lat="43.128037433072784" lon="10.717992400872603"><ele>79.0</ele><time>2026-05-03T09:31:27Z</time></trkpt><trkpt lat="43.1281549736386" lon="10.71805362899997"><ele>79.0</ele><time>2026-05-03T09:31:28Z</time></trkpt><trkpt lat="43.12826501565268" lon="10.718099657486123"><ele>79.0</ele><time>2026-05-03T09:31:29Z</time></trkpt><trkpt lat="43.128377997135985" lon="10.718153330506166"><ele>79.0</ele><time>2026-05-03T09:31:30Z</time></trkpt><trkpt lat="43.128487828040335" lon="10.718206236330738"><ele>79.25</ele><time>2026-05-03T09:31:31Z</time></trkpt><trkpt lat="43.12859829856531" lon="10.718260228773515"><ele>79.5</ele><time>2026-05-03T09:31:32Z</time></trkpt><trkpt lat="43.12871188491939" lon="10.718316663239332"><ele>79.75</ele><time>2026-05-03T09:31:33Z</time></trkpt><trkpt lat="43.12882810021658" lon="10.718376303703561"><ele>80.0</ele><time>2026-05-03T09:31:34Z</time></trkpt><trkpt lat="43.12894252962078" lon="10.718438825179726"><ele>80.25</ele><time>2026-05-03T09:31:35Z</time></trkpt><trkpt lat="43.12906323428049" lon="10.718494886803283"><ele>80.5</ele><time>2026-05-03T09:31:36Z</time></trkpt><trkpt lat="43.129184881161166" lon="10.718552565097353"><ele>80.75</ele><time>2026-05-03T09:31:37Z</time></trkpt><trkpt lat="43.12930854452776" lon="10.718615529751732"><ele>81.0</ele><time>2026-05-03T09:31:38Z</time></trkpt><trkpt lat="43.129433936987255" lon="10.71867791836496"><ele>81.0</ele><time>2026-05-03T09:31:39Z</time></trkpt><trkpt lat="43.12956512339534" lon="10.71874235291492"><ele>81.0</ele><time>2026-05-03T09:31:40Z</time></trkpt><trkpt lat="43.1297006564582" lon="10.718814287788604"><ele>81.0</ele><time>2026-05-03T09:31:41Z</time></trkpt><trkpt lat="43.12983656373831" lon="10.718899394143163"><ele>81.0</ele><time>2026-05-03T09:31:42Z</time></trkpt><trkpt lat="43.12996271176622" lon="10.718987564528165"><ele>81.75</ele><time>2026-05-03T09:31:43Z</time></trkpt><trkpt lat="43.13007472532853" lon="10.719079982898924"><ele>82.5</ele><time>2026-05-03T09:31:44Z</time></trkpt><trkpt lat="43.13017831199213" lon="10.719169026674777"><ele>83.25</ele><time>2026-05-03T09:31:45Z</time></trkpt><trkpt lat="43.13027876251938" lon="10.719258937995367"><ele>84.0</ele><time>2026-05-03T09:31:46Z</time></trkpt><trkpt lat="43.130384315894105" lon="10.719355602513334"><ele>84.25</ele><time>2026-05-03T09:31:47Z</time></trkpt><trkpt lat="43.13049264789253" lon="10.719466752060072"><ele>84.5</ele><time>2026-05-03T09:31:48Z</time></trkpt><trkpt lat="43.13059735902673" lon="10.719594720421467"><ele>84.75</ele><time>2026-05-03T09:31:49Z</time></trkpt><trkpt lat="43.130702029919874" lon="10.719732118502709"><ele>85.0</ele><time>2026-05-03T09:31:50Z</time></trkpt><trkpt lat="43.13081950493733" lon="10.719876606356951"><ele>85.0</ele><time>2026-05-03T09:31:51Z</time></trkpt><trkpt lat="43.13094539461971" lon="10.7200379229492"><ele>85.0</ele><time>2026-05-03T09:31:52Z</time></trkpt><trkpt lat="43.1310756699917" lon="10.720212016370857"><ele>85.0</ele><time>2026-05-03T09:31:53Z</time></trkpt><trkpt lat="43.13121753439125" lon="10.720401945809364"><ele>85.0</ele><time>2026-05-03T09:31:54Z</time></trkpt><trkpt lat="43.13134510641122" lon="10.720580248242438"><ele>85.0</ele><time>2026-05-03T09:31:55Z</time></trkpt><trkpt lat="43.1314578033303" lon="10.720748046252606"><ele>85.0</ele><time>2026-05-03T09:31:56Z</time></trkpt><trkpt lat="43.1315702158328" lon="10.720912983566736"><ele>85.33333333333333</ele><time>2026-05-03T09:31:57Z</time></trkpt><trkpt lat="43.1316782745022" lon="10.721072423527447"><ele>85.66666666666667</ele><time>2026-05-03T09:31:58Z</time></trkpt><trkpt lat="43.13177909634065" lon="10.721232023320457"><ele>86.0</ele><time>2026-05-03T09:31:59Z</time></trkpt><trkpt lat="43.13188015736564" lon="10.721391841434079"><ele>86.0</ele><time>2026-05-03T09:32:00Z</time></trkpt><trkpt lat="43.131987742355705" lon="10.72154035934967"><ele>86.0</ele><time>2026-05-03T09:32:01Z</time></trkpt><trkpt lat="43.132098275296315" lon="10.721686895202845"><ele>86.0</ele><time>2026-05-03T09:32:02Z</time></trkpt><trkpt lat="43.13220951063304" lon="10.721832630419312"><ele>86.66666666666667</ele><time>2026-05-03T09:32:03Z</time></trkpt><trkpt lat="43.132331955334436" lon="10.721966691828785"><ele>87.33333333333333</ele><time>2026-05-03T09:32:04Z</time></trkpt><trkpt lat="43.13246980120315" lon="10.722097438940088"><ele>88.0</ele><time>2026-05-03T09:32:05Z</time></trkpt><trkpt lat="43.13262451108736" lon="10.722228187947117"><ele>88.0</ele><time>2026-05-03T09:32:06Z</time></trkpt><trkpt lat="43.13278208358216" lon="10.722350641785123"><ele>88.0</ele><time>2026-05-03T09:32:07Z</time></trkpt><trkpt lat="43.132921310800434" lon="10.722462716132597"><ele>88.0</ele><time>2026-05-03T09:32:08Z</time></trkpt><trkpt lat="43.13305549254891" lon="10.72257097569648"><ele>88.0</ele><time>2026-05-03T09:32:09Z</time></trkpt><trkpt lat="43.133179134127325" lon="10.72267477104402"><ele>88.0</ele><time>2026-05-03T09:32:10Z</time></trkpt><trkpt lat="43.13329422929466" lon="10.72278029970665"><ele>88.0</ele><time>2026-05-03T09:32:11Z</time></trkpt><trkpt lat="43.13339775375804" lon="10.722892805737482"><ele>88.0</ele><time>2026-05-03T09:32:12Z</time></trkpt><trkpt lat="43.13349972046517" lon="10.723009554971807"><ele>87.75</ele><time>2026-05-03T09:32:13Z</time></trkpt><trkpt lat="43.133601219573684" lon="10.7231280249678"><ele>87.5</ele><time>2026-05-03T09:32:14Z</time></trkpt><trkpt lat="43.133689382829616" lon="10.723268996804737"><ele>87.25</ele><time>2026-05-03T09:32:15Z</time></trkpt><trkpt lat="43.13378241559036" lon="10.72340319729211"><ele>87.0</ele><time>2026-05-03T09:32:16Z</time></trkpt><trkpt lat="43.133877159771416" lon="10.723539654991372"><ele>87.25</ele><time>2026-05-03T09:32:17Z</time></trkpt><trkpt lat="43.1339708381162" lon="10.723676513892906"><ele>87.5</ele><time>2026-05-03T09:32:18Z</time></trkpt><trkpt lat="43.13406404665369" lon="10.723818890452973"><ele>87.75</ele><time>2026-05-03T09:32:19Z</time></trkpt><trkpt lat="43.134148938086106" lon="10.723949278407424"><ele>88.0</ele><time>2026-05-03T09:32:20Z</time></trkpt><trkpt lat="43.134233999736956" lon="10.724081649042086"><ele>88.0</ele><time>2026-05-03T09:32:21Z</time></trkpt><trkpt lat="43.13431954452295" lon="10.724207428121058"><ele>88.0</ele><time>2026-05-03T09:32:22Z</time></trkpt><trkpt lat="43.13440726871014" lon="10.724333266610339"><ele>88.0</ele><time>2026-05-03T09:32:23Z</time></trkpt><trkpt lat="43.134498128376215" lon="10.724462815827174"><ele>88.0</ele><time>2026-05-03T09:32:24Z</time></trkpt><trkpt lat="43.13459007871773" lon="10.724589650943761"><ele>88.5</ele><time>2026-05-03T09:32:25Z</time></trkpt><trkpt lat="43.134677954332204" lon="10.724715896523549"><ele>89.0</ele><time>2026-05-03T09:32:26Z</time></trkpt><trkpt lat="43.13477093952725" lon="10.724843076569531"><ele>89.5</ele><time>2026-05-03T09:32:27Z</time></trkpt><trkpt lat="43.13486416744331" lon="10.724972680854522"><ele>90.0</ele><time>2026-05-03T09:32:28Z</time></trkpt><trkpt lat="43.13496292184305" lon="10.725100688132411"><ele>90.0</ele><time>2026-05-03T09:32:29Z</time></trkpt><trkpt lat="43.13506538526489" lon="10.725228203783143"><ele>90.0</ele><time>2026-05-03T09:32:30Z</time></trkpt><trkpt lat="43.13516841533403" lon="10.72535992100496"><ele>90.0</ele><time>2026-05-03T09:32:31Z</time></trkpt><trkpt lat="43.13527359146048" lon="10.725496939104326"><ele>90.0</ele><time>2026-05-03T09:32:32Z</time></trkpt><trkpt lat="43.13538209981947" lon="10.725640881687015"><ele>90.0</ele><time>2026-05-03T09:32:33Z</time></trkpt><trkpt lat="43.13549247308103" lon="10.725787204483606"><ele>90.0</ele><time>2026-05-03T09:32:34Z</time></trkpt><trkpt lat="43.13559990472856" lon="10.725925778332678"><ele>90.0</ele><time>2026-05-03T09:32:35Z</time></trkpt><trkpt lat="43.135698306336124" lon="10.72605158735723"><ele>90.0</ele><time>2026-05-03T09:32:36Z</time></trkpt><trkpt lat="43.13579594903987" lon="10.726177325770905"><ele>90.0</ele><time>2026-05-03T09:32:37Z</time></trkpt><trkpt lat="43.135892865309735" lon="10.726306436080684"><ele>90.0</ele><time>2026-05-03T09:32:38Z</time></trkpt><trkpt lat="43.135989192889" lon="10.726436521501636"><ele>90.0</ele><time>2026-05-03T09:32:39Z</time></trkpt><trkpt lat="43.13608666101526" lon="10.726563707633618"><ele>90.0</ele><time>2026-05-03T09:32:40Z</time></trkpt><trkpt lat="43.136182246915816" lon="10.726692771445014"><ele>90.0</ele><time>2026-05-03T09:32:41Z</time></trkpt><trkpt lat="43.13628008412301" lon="10.72682228661378"><ele>90.0</ele><time>2026-05-03T09:32:42Z</time></trkpt><trkpt lat="43.13637975948161" lon="10.726950079831047"><ele>90.0</ele><time>2026-05-03T09:32:43Z</time></trkpt><trkpt lat="43.13647831723945" lon="10.727075814667176"><ele>90.0</ele><time>2026-05-03T09:32:44Z</time></trkpt><trkpt lat="43.1365742445053" lon="10.72720342333108"><ele>90.0</ele><time>2026-05-03T09:32:45Z</time></trkpt><trkpt lat="43.136672252272696" lon="10.727332971716317"><ele>90.0</ele><time>2026-05-03T09:32:46Z</time></trkpt><trkpt lat="43.13676986102445" lon="10.727465480325588"><ele>90.0</ele><time>2026-05-03T09:32:47Z</time></trkpt><trkpt lat="43.13687021990992" lon="10.727598207484816"><ele>90.0</ele><time>2026-05-03T09:32:48Z</time></trkpt><trkpt lat="43.13696964276672" lon="10.727732283947418"><ele>89.0</ele><time>2026-05-03T09:32:49Z</time></trkpt><trkpt lat="43.1370712716116" lon="10.727868165921276"><ele>88.0</ele><time>2026-05-03T09:32:50Z</time></trkpt><trkpt lat="43.13717753759849" lon="10.728010874494817"><ele>87.0</ele><time>2026-05-03T09:32:51Z</time></trkpt><trkpt lat="43.137283286477555" lon="10.728149420126163"><ele>86.0</ele><time>2026-05-03T09:32:52Z</time></trkpt><trkpt lat="43.13738675606661" lon="10.728277625969703"><ele>86.75</ele><time>2026-05-03T09:32:53Z</time></trkpt><trkpt lat="43.137497822563056" lon="10.72839158861702"><ele>87.5</ele><time>2026-05-03T09:32:54Z</time></trkpt><trkpt lat="43.13761675044787" lon="10.728487192086725"><ele>88.25</ele><time>2026-05-03T09:32:55Z</time></trkpt><trkpt lat="43.13774435446459" lon="10.728554849885933"><ele>89.0</ele><time>2026-05-03T09:32:56Z</time></trkpt><trkpt lat="43.137873614259206" lon="10.728599120442453"><ele>89.0</ele><time>2026-05-03T09:32:57Z</time></trkpt><trkpt lat="43.138005534545606" lon="10.72863508200544"><ele>89.0</ele><time>2026-05-03T09:32:58Z</time></trkpt><trkpt lat="43.138136446962584" lon="10.728682736521241"><ele>89.0</ele><time>2026-05-03T09:32:59Z</time></trkpt><trkpt lat="43.13827451997458" lon="10.728744861409856"><ele>89.0</ele><time>2026-05-03T09:33:00Z</time></trkpt><trkpt lat="43.138413134551726" lon="10.728822607508867"><ele>89.66666666666667</ele><time>2026-05-03T09:33:01Z</time></trkpt><trkpt lat="43.13854029615656" lon="10.728935201271145"><ele>90.33333333333333</ele><time>2026-05-03T09:33:02Z</time></trkpt><trkpt lat="43.13865702147965" lon="10.729062755892084"><ele>91.0</ele><time>2026-05-03T09:33:03Z</time></trkpt><trkpt lat="43.13875435610195" lon="10.729217993030264"><ele>91.0</ele><time>2026-05-03T09:33:04Z</time></trkpt><trkpt lat="43.138843822575716" lon="10.729378783623241"><ele>91.0</ele><time>2026-05-03T09:33:05Z</time></trkpt><trkpt lat="43.138921740042385" lon="10.72954010767095"><ele>91.0</ele><time>2026-05-03T09:33:06Z</time></trkpt><trkpt lat="43.13900320175088" lon="10.729684561562294"><ele>91.0</ele><time>2026-05-03T09:33:07Z</time></trkpt><trkpt lat="43.13910280095914" lon="10.729816189604724"><ele>91.25</ele><time>2026-05-03T09:33:08Z</time></trkpt><trkpt lat="43.1392130016804" lon="10.729936139873312"><ele>91.5</ele><time>2026-05-03T09:33:09Z</time></trkpt><trkpt lat="43.13933713461284" lon="10.730038983005485"><ele>91.75</ele><time>2026-05-03T09:33:10Z</time></trkpt><trkpt lat="43.139480442589345" lon="10.730139759967317"><ele>92.0</ele><time>2026-05-03T09:33:11Z</time></trkpt><trkpt lat="43.139636689547274" lon="10.730250588761677"><ele>91.33333333333334</ele><time>2026-05-03T09:33:12Z</time></trkpt><trkpt lat="43.139776538983355" lon="10.730355056113504"><ele>90.66666666666667</ele><time>2026-05-03T09:33:13Z</time></trkpt><trkpt lat="43.13990929133945" lon="10.730449785223739"><ele>90.0</ele><time>2026-05-03T09:33:14Z</time></trkpt><trkpt lat="43.14003542965549" lon="10.730541299604745"><ele>90.0</ele><time>2026-05-03T09:33:15Z</time></trkpt><trkpt lat="43.140150914920945" lon="10.7306274731703"><ele>90.0</ele><time>2026-05-03T09:33:16Z</time></trkpt><trkpt lat="43.140257979832754" lon="10.730709232441539"><ele>90.0</ele><time>2026-05-03T09:33:17Z</time></trkpt><trkpt lat="43.140356683326054" lon="10.730780087601662"><ele>90.0</ele><time>2026-05-03T09:33:18Z</time></trkpt><trkpt lat="43.14043814010051" lon="10.730842988627945"><ele>90.0</ele><time>2026-05-03T09:33:19Z</time></trkpt><trkpt lat="43.14051467083557" lon="10.730921399624165"><ele>90.0</ele><time>2026-05-03T09:33:21Z</time></trkpt><trkpt lat="43.14045607695706" lon="10.731044226985473"><ele>90.0</ele><time>2026-05-03T09:33:24Z</time></trkpt><trkpt lat="43.14040010181929" lon="10.731088485977763"><ele>90.0</ele><time>2026-05-03T09:33:25Z</time></trkpt><trkpt lat="43.14034445291266" lon="10.731166539037112"><ele>90.0</ele><time>2026-05-03T09:33:26Z</time></trkpt><trkpt lat="43.14026902408473" lon="10.731261049804727"><ele>90.0</ele><time>2026-05-03T09:33:27Z</time></trkpt><trkpt lat="43.14020862023052" lon="10.731344116689202"><ele>89.33333333333333</ele><time>2026-05-03T09:33:28Z</time></trkpt><trkpt lat="43.14016110323559" lon="10.731415381259831"><ele>88.66666666666667</ele><time>2026-05-03T09:33:29Z</time></trkpt><trkpt lat="43.14011977281718" lon="10.73149135453494"><ele>88.0</ele><time>2026-05-03T09:33:30Z</time></trkpt><trkpt lat="43.140083784328425" lon="10.731568206493952"><ele>87.33333333333334</ele><time>2026-05-03T09:33:31Z</time></trkpt><trkpt lat="43.14000898863348" lon="10.731647196465165"><ele>86.66666666666667</ele><time>2026-05-03T09:33:33Z</time></trkpt><trkpt lat="43.1399502568163" lon="10.731734005102027"><ele>86.0</ele><time>2026-05-03T09:33:35Z</time></trkpt><trkpt lat="43.13992389488337" lon="10.731845880850301"><ele>87.0</ele><time>2026-05-03T09:33:37Z</time></trkpt><trkpt lat="43.13990303359449" lon="10.731944427478181"><ele>88.0</ele><time>2026-05-03T09:33:39Z</time></trkpt><trkpt lat="43.13986981534803" lon="10.732020275210433"><ele>89.0</ele><time>2026-05-03T09:33:41Z</time></trkpt><trkpt lat="43.139810078210076" lon="10.732062682243075"><ele>90.0</ele><time>2026-05-03T09:33:48Z</time></trkpt><trkpt lat="43.13984197998999" lon="10.732159539802177"><ele>91.0</ele><time>2026-05-03T09:33:58Z</time></trkpt><trkpt lat="43.13992688014032" lon="10.73221241349489"><ele>92.0</ele><time>2026-05-03T09:34:00Z</time></trkpt><trkpt lat="43.13999988079862" lon="10.73226334391522"><ele>92.0</ele><time>2026-05-03T09:34:03Z</time></trkpt><trkpt lat="43.13992016914552" lon="10.73222720310835"><ele>92.0</ele><time>2026-05-03T09:34:39Z</time></trkpt><trkpt lat="43.139861948553936" lon="10.732172646203859"><ele>92.0</ele><time>2026-05-03T09:34:41Z</time></trkpt><trkpt lat="43.139798626523046" lon="10.732125351675636"><ele>92.0</ele><time>2026-05-03T09:34:44Z</time></trkpt><trkpt lat="43.139776701686664" lon="10.732035045675767"><ele>92.0</ele><time>2026-05-03T09:38:42Z</time></trkpt><trkpt lat="43.13978186526959" lon="10.732127314056886"><ele>92.0</ele><time>2026-05-03T09:55:43Z</time></trkpt><trkpt lat="43.13984560330363" lon="10.73206049483435"><ele>92.0</ele><time>2026-05-03T09:57:29.001Z</time></trkpt><trkpt lat="43.13990606302758" lon="10.73198976730159"><ele>90.8</ele><time>2026-05-03T09:57:31.001Z</time></trkpt><trkpt lat="43.13991426404999" lon="10.731845162126838"><ele>89.6</ele><time>2026-05-03T09:57:33.001Z</time></trkpt><trkpt lat="43.13997541801772" lon="10.731745921882043"><ele>88.39999999999999</ele><time>2026-05-03T09:57:34.001Z</time></trkpt><trkpt lat="43.14004471598119" lon="10.731640404519979"><ele>87.19999999999999</ele><time>2026-05-03T09:57:36.001Z</time></trkpt><trkpt lat="43.14009708205109" lon="10.731587465302228"><ele>86.0</ele><time>2026-05-03T09:57:37.001Z</time></trkpt><trkpt lat="43.140148889311256" lon="10.73150301225281"><ele>86.0</ele><time>2026-05-03T09:57:38.001Z</time></trkpt><trkpt lat="43.140198799396686" lon="10.731416960008008"><ele>86.0</ele><time>2026-05-03T09:57:39.001Z</time></trkpt><trkpt lat="43.140245554785224" lon="10.731337645257119"><ele>86.0</ele><time>2026-05-03T09:57:40.001Z</time></trkpt><trkpt lat="43.14029903591396" lon="10.731263809215774"><ele>86.0</ele><time>2026-05-03T09:57:41.001Z</time></trkpt><trkpt lat="43.14035393046042" lon="10.731188268711398"><ele>86.0</ele><time>2026-05-03T09:57:42Z</time></trkpt><trkpt lat="43.140416147596426" lon="10.731120802941446"><ele>86.0</ele><time>2026-05-03T09:57:43Z</time></trkpt><trkpt lat="43.14047447349219" lon="10.731051813323159"><ele>87.0</ele><time>2026-05-03T09:57:44Z</time></trkpt><trkpt lat="43.14052525094774" lon="10.730968886496763"><ele>88.0</ele><time>2026-05-03T09:57:46Z</time></trkpt><trkpt lat="43.140596037401174" lon="10.730961260168705"><ele>89.0</ele><time>2026-05-03T09:57:50Z</time></trkpt><trkpt lat="43.1407740501648" lon="10.731086471344954"><ele>90.0</ele><time>2026-05-03T09:57:52Z</time></trkpt><trkpt lat="43.14087970189575" lon="10.73116614526564"><ele>90.0</ele><time>2026-05-03T09:57:53Z</time></trkpt><trkpt lat="43.14099342416637" lon="10.731252784560935"><ele>90.0</ele><time>2026-05-03T09:57:54Z</time></trkpt><trkpt lat="43.141123141509155" lon="10.731341460690526"><ele>90.0</ele><time>2026-05-03T09:57:55Z</time></trkpt><trkpt lat="43.14123348488435" lon="10.73141643061895"><ele>90.0</ele><time>2026-05-03T09:57:56Z</time></trkpt><trkpt lat="43.14134198695581" lon="10.731507649567298"><ele>90.0</ele><time>2026-05-03T09:57:57Z</time></trkpt><trkpt lat="43.14144863996481" lon="10.731591545532101"><ele>90.0</ele><time>2026-05-03T09:57:58Z</time></trkpt><trkpt lat="43.14155583124964" lon="10.731666554432207"><ele>90.0</ele><time>2026-05-03T09:57:59Z</time></trkpt><trkpt lat="43.141666006383176" lon="10.731752689985301"><ele>90.0</ele><time>2026-05-03T09:58:00Z</time></trkpt><trkpt lat="43.14177277732008" lon="10.731828256538183"><ele>90.25</ele><time>2026-05-03T09:58:01Z</time></trkpt><trkpt lat="43.14187825238671" lon="10.731903547853452"><ele>90.5</ele><time>2026-05-03T09:58:02Z</time></trkpt><trkpt lat="43.141983667887345" lon="10.73197499228569"><ele>90.75</ele><time>2026-05-03T09:58:03Z</time></trkpt><trkpt lat="43.14210217500183" lon="10.732026230540354"><ele>91.0</ele><time>2026-05-03T09:58:04Z</time></trkpt><trkpt lat="43.14221548903391" lon="10.732070732518428"><ele>91.0</ele><time>2026-05-03T09:58:05Z</time></trkpt><trkpt lat="43.14233875278543" lon="10.732100563512375"><ele>91.0</ele><time>2026-05-03T09:58:06Z</time></trkpt><trkpt lat="43.14248308848766" lon="10.732110404601231"><ele>91.0</ele><time>2026-05-03T09:58:07Z</time></trkpt><trkpt lat="43.14262021984215" lon="10.73209200511011"><ele>91.0</ele><time>2026-05-03T09:58:08Z</time></trkpt><trkpt lat="43.142752415927596" lon="10.73205551527927"><ele>91.5</ele><time>2026-05-03T09:58:09Z</time></trkpt><trkpt lat="43.14288359454802" lon="10.7319958700769"><ele>92.0</ele><time>2026-05-03T09:58:10Z</time></trkpt><trkpt lat="43.143009346541604" lon="10.73195274251575"><ele>92.5</ele><time>2026-05-03T09:58:11Z</time></trkpt><trkpt lat="43.14315052623397" lon="10.731878561654778"><ele>93.0</ele><time>2026-05-03T09:58:12Z</time></trkpt><trkpt lat="43.143285788046384" lon="10.73179924791377"><ele>95.75</ele><time>2026-05-03T09:58:13Z</time></trkpt><trkpt lat="43.14341401825803" lon="10.731712009415691"><ele>98.5</ele><time>2026-05-03T09:58:14Z</time></trkpt><trkpt lat="43.143544453828405" lon="10.731666274343965"><ele>101.25</ele><time>2026-05-03T09:58:15Z</time></trkpt><trkpt lat="43.143670517790504" lon="10.731648261651216"><ele>104.0</ele><time>2026-05-03T09:58:16Z</time></trkpt><trkpt lat="43.14380234341939" lon="10.731649744281968"><ele>104.0</ele><time>2026-05-03T09:58:17Z</time></trkpt><trkpt lat="43.14394270437252" lon="10.731645221898109"><ele>104.0</ele><time>2026-05-03T09:58:18Z</time></trkpt><trkpt lat="43.1440830134442" lon="10.731640422646318"><ele>104.0</ele><time>2026-05-03T09:58:19Z</time></trkpt><trkpt lat="43.144224173200854" lon="10.731635040616297"><ele>104.0</ele><time>2026-05-03T09:58:20Z</time></trkpt><trkpt lat="43.14436747791938" lon="10.731625225143379"><ele>103.5</ele><time>2026-05-03T09:58:21Z</time></trkpt><trkpt lat="43.14450983739054" lon="10.731608369738721"><ele>103.0</ele><time>2026-05-03T09:58:22Z</time></trkpt><trkpt lat="43.144652188937954" lon="10.73158982665896"><ele>102.5</ele><time>2026-05-03T09:58:23Z</time></trkpt><trkpt lat="43.14479404379289" lon="10.73156302415468"><ele>102.0</ele><time>2026-05-03T09:58:24Z</time></trkpt><trkpt lat="43.14493463974836" lon="10.731519702045798"><ele>101.25</ele><time>2026-05-03T09:58:25Z</time></trkpt><trkpt lat="43.14507267224467" lon="10.731470937086783"><ele>100.5</ele><time>2026-05-03T09:58:26Z</time></trkpt><trkpt lat="43.14521082645429" lon="10.731430772117859"><ele>99.75</ele><time>2026-05-03T09:58:27Z</time></trkpt><trkpt lat="43.14535138864357" lon="10.731390371625904"><ele>99.0</ele><time>2026-05-03T09:58:28Z</time></trkpt><trkpt lat="43.14549641234802" lon="10.731347921359179"><ele>99.0</ele><time>2026-05-03T09:58:29Z</time></trkpt><trkpt lat="43.14564240449433" lon="10.731301301952135"><ele>99.0</ele><time>2026-05-03T09:58:30Z</time></trkpt><trkpt lat="43.145793738844695" lon="10.731267665793544"><ele>99.0</ele><time>2026-05-03T09:58:31Z</time></trkpt><trkpt lat="43.14595143808324" lon="10.731220582910444"><ele>98.75</ele><time>2026-05-03T09:58:32Z</time></trkpt><trkpt lat="43.14609645444602" lon="10.731171659758441"><ele>98.5</ele><time>2026-05-03T09:58:33Z</time></trkpt><trkpt lat="43.146233747468756" lon="10.731126643597694"><ele>98.25</ele><time>2026-05-03T09:58:34Z</time></trkpt><trkpt lat="43.14635737365509" lon="10.731087718588894"><ele>98.0</ele><time>2026-05-03T09:58:35Z</time></trkpt><trkpt lat="43.14647934058048" lon="10.731045179252723"><ele>100.0</ele><time>2026-05-03T09:58:36Z</time></trkpt><trkpt lat="43.14660083966075" lon="10.730983318966459"><ele>102.0</ele><time>2026-05-03T09:58:37Z</time></trkpt><trkpt lat="43.14671976048831" lon="10.730903771169713"><ele>104.0</ele><time>2026-05-03T09:58:38Z</time></trkpt><trkpt lat="43.146833938990696" lon="10.730811287196186"><ele>106.0</ele><time>2026-05-03T09:58:39Z</time></trkpt><trkpt lat="43.146944270492995" lon="10.730695252254277"><ele>106.0</ele><time>2026-05-03T09:58:40Z</time></trkpt><trkpt lat="43.14704842917007" lon="10.730565293826766"><ele>106.0</ele><time>2026-05-03T09:58:41Z</time></trkpt><trkpt lat="43.14715870865655" lon="10.730443864113292"><ele>106.0</ele><time>2026-05-03T09:58:42Z</time></trkpt><trkpt lat="43.147271993275695" lon="10.730325339399243"><ele>106.0</ele><time>2026-05-03T09:58:43Z</time></trkpt><trkpt lat="43.14738573936101" lon="10.730206830712588"><ele>106.5</ele><time>2026-05-03T09:58:44Z</time></trkpt><trkpt lat="43.14750354655166" lon="10.730089012399361"><ele>107.0</ele><time>2026-05-03T09:58:45Z</time></trkpt><trkpt lat="43.14762210669782" lon="10.729978393968802"><ele>107.5</ele><time>2026-05-03T09:58:46Z</time></trkpt><trkpt lat="43.147743544386216" lon="10.729871750018209"><ele>108.0</ele><time>2026-05-03T09:58:47Z</time></trkpt><trkpt lat="43.14786489112255" lon="10.729770315953548"><ele>108.0</ele><time>2026-05-03T09:58:48Z</time></trkpt><trkpt lat="43.147983670826" lon="10.729667352841094"><ele>108.0</ele><time>2026-05-03T09:58:49Z</time></trkpt><trkpt lat="43.14810319974179" lon="10.729565376448356"><ele>108.0</ele><time>2026-05-03T09:58:50Z</time></trkpt><trkpt lat="43.14822319501816" lon="10.729467618702849"><ele>108.0</ele><time>2026-05-03T09:58:51Z</time></trkpt><trkpt lat="43.148343626027106" lon="10.729370871909643"><ele>108.0</ele><time>2026-05-03T09:58:52Z</time></trkpt><trkpt lat="43.148465271058704" lon="10.729275564626256"><ele>108.0</ele><time>2026-05-03T09:58:53Z</time></trkpt><trkpt lat="43.14858830210492" lon="10.72918348444648"><ele>108.0</ele><time>2026-05-03T09:58:54Z</time></trkpt><trkpt lat="43.14871573919882" lon="10.729092400345879"><ele>108.0</ele><time>2026-05-03T09:58:55Z</time></trkpt><trkpt lat="43.148837637885" lon="10.728994315815712"><ele>108.0</ele><time>2026-05-03T09:58:56Z</time></trkpt><trkpt lat="43.14895151806875" lon="10.728903696471711"><ele>108.0</ele><time>2026-05-03T09:58:57Z</time></trkpt><trkpt lat="43.149079555838426" lon="10.728801401413278"><ele>108.0</ele><time>2026-05-03T09:58:58Z</time></trkpt><trkpt lat="43.149206207131236" lon="10.7287048978014"><ele>108.0</ele><time>2026-05-03T09:58:59Z</time></trkpt><trkpt lat="43.14932958332693" lon="10.728608103551208"><ele>108.25</ele><time>2026-05-03T09:59:00Z</time></trkpt><trkpt lat="43.149437961738165" lon="10.728502407943012"><ele>108.5</ele><time>2026-05-03T09:59:01Z</time></trkpt><trkpt lat="43.149531008306035" lon="10.728374949380502"><ele>108.75</ele><time>2026-05-03T09:59:02Z</time></trkpt><trkpt lat="43.14960394992683" lon="10.72822015453296"><ele>109.0</ele><time>2026-05-03T09:59:03Z</time></trkpt><trkpt lat="43.14964218708549" lon="10.728042779179894"><ele>109.0</ele><time>2026-05-03T09:59:04Z</time></trkpt><trkpt lat="43.14965099001708" lon="10.727853178714135"><ele>109.0</ele><time>2026-05-03T09:59:05Z</time></trkpt><trkpt lat="43.14967491639565" lon="10.727675763740582"><ele>109.0</ele><time>2026-05-03T09:59:06Z</time></trkpt><trkpt lat="43.1497005159638" lon="10.727491844981392"><ele>109.0</ele><time>2026-05-03T09:59:07Z</time></trkpt><trkpt lat="43.14972516183042" lon="10.727318731131719"><ele>110.0</ele><time>2026-05-03T09:59:08Z</time></trkpt><trkpt lat="43.14974442428436" lon="10.727146154230322"><ele>111.0</ele><time>2026-05-03T09:59:09Z</time></trkpt><trkpt lat="43.14976345550385" lon="10.726989664611377"><ele>112.0</ele><time>2026-05-03T09:59:10Z</time></trkpt><trkpt lat="43.14978538873523" lon="10.72684693828993"><ele>113.0</ele><time>2026-05-03T09:59:11Z</time></trkpt><trkpt lat="43.149806582832134" lon="10.72671882451166"><ele>114.0</ele><time>2026-05-03T09:59:12Z</time></trkpt><trkpt lat="43.14981990336238" lon="10.726600835955466"><ele>115.0</ele><time>2026-05-03T09:59:13Z</time></trkpt><trkpt lat="43.14983889319424" lon="10.726483639463886"><ele>116.0</ele><time>2026-05-03T09:59:14Z</time></trkpt><trkpt lat="43.14985948326505" lon="10.726386092677185"><ele>117.0</ele><time>2026-05-03T09:59:15Z</time></trkpt><trkpt lat="43.14987376642283" lon="10.726300273698005"><ele>118.0</ele><time>2026-05-03T09:59:16Z</time></trkpt><trkpt lat="43.14987808627856" lon="10.726208863207727"><ele>119.0</ele><time>2026-05-03T09:59:18Z</time></trkpt><trkpt lat="43.149812929859785" lon="10.72614523018288"><ele>120.0</ele><time>2026-05-03T09:59:20Z</time></trkpt><trkpt lat="43.1497350541783" lon="10.726218320795313"><ele>120.0</ele><time>2026-05-03T10:00:19Z</time></trkpt><trkpt lat="43.149708631168075" lon="10.726387031699197"><ele>120.0</ele><time>2026-05-03T10:00:21Z</time></trkpt><trkpt lat="43.149644181309625" lon="10.726544537369287"><ele>120.0</ele><time>2026-05-03T10:00:23Z</time></trkpt><trkpt lat="43.149583018762826" lon="10.726624362982262"><ele>120.0</ele><time>2026-05-03T10:00:24Z</time></trkpt><trkpt lat="43.14952029225064" lon="10.726685545381939"><ele>120.0</ele><time>2026-05-03T10:00:25Z</time></trkpt><trkpt lat="43.149467736220494" lon="10.726739392130234"><ele>120.0</ele><time>2026-05-03T10:00:26Z</time></trkpt><trkpt lat="43.14940462760992" lon="10.726806468742035"><ele>120.0</ele><time>2026-05-03T10:00:27Z</time></trkpt><trkpt lat="43.14933467424803" lon="10.726880483596009"><ele>120.0</ele><time>2026-05-03T10:00:28Z</time></trkpt><trkpt lat="43.14926342872027" lon="10.72692078536831"><ele>120.0</ele><time>2026-05-03T10:00:29Z</time></trkpt><trkpt lat="43.149148018082464" lon="10.726865995547023"><ele>120.0</ele><time>2026-05-03T10:00:31Z</time></trkpt><trkpt lat="43.149074191058766" lon="10.726808348955458"><ele>122.6</ele><time>2026-05-03T10:00:32Z</time></trkpt><trkpt lat="43.14900316928429" lon="10.726735130690955"><ele>125.2</ele><time>2026-05-03T10:00:33Z</time></trkpt><trkpt lat="43.14895303257213" lon="10.726577547690642"><ele>127.80000000000001</ele><time>2026-05-03T10:00:35Z</time></trkpt><trkpt lat="43.14895244468473" lon="10.726462033712279"><ele>130.4</ele><time>2026-05-03T10:00:36Z</time></trkpt><trkpt lat="43.14895829258213" lon="10.726329508946947"><ele>133.0</ele><time>2026-05-03T10:00:37Z</time></trkpt><trkpt lat="43.14895422130739" lon="10.726183724919983"><ele>134.6</ele><time>2026-05-03T10:00:38Z</time></trkpt><trkpt lat="43.14892386138029" lon="10.72602235074936"><ele>136.20000000000002</ele><time>2026-05-03T10:00:39Z</time></trkpt><trkpt lat="43.14888351544969" lon="10.72588394775628"><ele>137.8</ele><time>2026-05-03T10:00:40Z</time></trkpt><trkpt lat="43.148843832967216" lon="10.725766447281922"><ele>139.4</ele><time>2026-05-03T10:00:41Z</time></trkpt><trkpt lat="43.14879969120068" lon="10.725631297288102"><ele>141.0</ele><time>2026-05-03T10:00:42Z</time></trkpt><trkpt lat="43.14877227264037" lon="10.725507425354538"><ele>141.0</ele><time>2026-05-03T10:00:43Z</time></trkpt><trkpt lat="43.14875880910768" lon="10.725389183263195"><ele>141.0</ele><time>2026-05-03T10:00:44Z</time></trkpt><trkpt lat="43.148781255063824" lon="10.725277705980258"><ele>141.0</ele><time>2026-05-03T10:00:45Z</time></trkpt><trkpt lat="43.14880730961673" lon="10.725186051274326"><ele>141.0</ele><time>2026-05-03T10:00:46Z</time></trkpt><trkpt lat="43.148859631873876" lon="10.725116003603395"><ele>141.0</ele><time>2026-05-03T10:00:47Z</time></trkpt><trkpt lat="43.14891531717194" lon="10.725066232523988"><ele>141.0</ele><time>2026-05-03T10:00:48Z</time></trkpt><trkpt lat="43.14883430652118" lon="10.72514440597188"><ele>141.0</ele><time>2026-05-03T10:03:57.001Z</time></trkpt><trkpt lat="43.148790691146964" lon="10.725233543673827"><ele>141.0</ele><time>2026-05-03T10:03:58.001Z</time></trkpt><trkpt lat="43.14875193885435" lon="10.725408574269085"><ele>141.0</ele><time>2026-05-03T10:04:00Z</time></trkpt><trkpt lat="43.14876263806535" lon="10.725532740405438"><ele>141.0</ele><time>2026-05-03T10:04:01Z</time></trkpt><trkpt lat="43.148779627236806" lon="10.725634469534484"><ele>141.0</ele><time>2026-05-03T10:04:02Z</time></trkpt><trkpt lat="43.148811608249524" lon="10.725733957800031"><ele>141.0</ele><time>2026-05-03T10:04:03Z</time></trkpt><trkpt lat="43.1488597563436" lon="10.725863587327444"><ele>141.0</ele><time>2026-05-03T10:04:04Z</time></trkpt><trkpt lat="43.14891141123001" lon="10.726016799039108"><ele>141.0</ele><time>2026-05-03T10:04:05Z</time></trkpt><trkpt lat="43.14894333311835" lon="10.726147285791223"><ele>141.0</ele><time>2026-05-03T10:04:06Z</time></trkpt><trkpt lat="43.148968891536555" lon="10.726268270274133"><ele>141.0</ele><time>2026-05-03T10:04:07Z</time></trkpt><trkpt lat="43.14896688260497" lon="10.726386906942606"><ele>139.66666666666666</ele><time>2026-05-03T10:04:08Z</time></trkpt><trkpt lat="43.14896497484104" lon="10.726506489718139"><ele>138.33333333333334</ele><time>2026-05-03T10:04:09Z</time></trkpt><trkpt lat="43.148959115419196" lon="10.726598027552992"><ele>137.0</ele><time>2026-05-03T10:04:10Z</time></trkpt><trkpt lat="43.148967925947275" lon="10.726693746052256"><ele>135.66666666666669</ele><time>2026-05-03T10:04:11Z</time></trkpt><trkpt lat="43.14903555335308" lon="10.726821980624162"><ele>134.33333333333334</ele><time>2026-05-03T10:04:13Z</time></trkpt><trkpt lat="43.14910492394364" lon="10.726862974980126"><ele>133.0</ele><time>2026-05-03T10:04:14Z</time></trkpt><trkpt lat="43.149183723669424" lon="10.726909321220905"><ele>130.4</ele><time>2026-05-03T10:04:15Z</time></trkpt><trkpt lat="43.149306992791225" lon="10.726912947527534"><ele>127.80000000000001</ele><time>2026-05-03T10:04:17Z</time></trkpt><trkpt lat="43.14936771497759" lon="10.726877823319898"><ele>125.2</ele><time>2026-05-03T10:04:18Z</time></trkpt><trkpt lat="43.149442580807204" lon="10.72679898286763"><ele>122.6</ele><time>2026-05-03T10:04:19Z</time></trkpt><trkpt lat="43.14951936322074" lon="10.726699107027736"><ele>120.0</ele><time>2026-05-03T10:04:20Z</time></trkpt><trkpt lat="43.1495843941589" lon="10.726606800316189"><ele>120.0</ele><time>2026-05-03T10:04:21Z</time></trkpt><trkpt lat="43.14964082926547" lon="10.726528232571903"><ele>120.0</ele><time>2026-05-03T10:04:22Z</time></trkpt><trkpt lat="43.14969024274689" lon="10.726439707742648"><ele>120.0</ele><time>2026-05-03T10:04:23Z</time></trkpt><trkpt lat="43.14972840132154" lon="10.726326849362568"><ele>120.0</ele><time>2026-05-03T10:04:24Z</time></trkpt><trkpt lat="43.149872127760446" lon="10.72623446252185"><ele>120.0</ele><time>2026-05-03T10:04:26Z</time></trkpt><trkpt lat="43.14981190495697" lon="10.726201414729152"><ele>117.2</ele><time>2026-05-03T10:04:28Z</time></trkpt><trkpt lat="43.14988144107343" lon="10.726175770438395"><ele>114.4</ele><time>2026-05-03T10:04:32Z</time></trkpt><trkpt lat="43.149904738939874" lon="10.726080694859142"><ele>111.6</ele><time>2026-05-03T10:04:33Z</time></trkpt><trkpt lat="43.14991118618279" lon="10.725947728816193"><ele>108.8</ele><time>2026-05-03T10:04:34Z</time></trkpt><trkpt lat="43.14992470071995" lon="10.725813933520335"><ele>106.0</ele><time>2026-05-03T10:04:35Z</time></trkpt><trkpt lat="43.149944444857766" lon="10.725657402946151"><ele>106.0</ele><time>2026-05-03T10:04:36Z</time></trkpt><trkpt lat="43.149972750230226" lon="10.725497924118644"><ele>106.0</ele><time>2026-05-03T10:04:37Z</time></trkpt><trkpt lat="43.15000174720524" lon="10.725332608605356"><ele>106.0</ele><time>2026-05-03T10:04:38Z</time></trkpt><trkpt lat="43.1500297339067" lon="10.72517360040769"><ele>106.0</ele><time>2026-05-03T10:04:39Z</time></trkpt><trkpt lat="43.15007124863785" lon="10.725009431193852"><ele>107.6</ele><time>2026-05-03T10:04:40Z</time></trkpt><trkpt lat="43.150125041761044" lon="10.724870060988192"><ele>109.19999999999999</ele><time>2026-05-03T10:04:41Z</time></trkpt><trkpt lat="43.150196078533185" lon="10.724755436435792"><ele>110.80000000000001</ele><time>2026-05-03T10:04:42Z</time></trkpt><trkpt lat="43.15027035416971" lon="10.724671039762091"><ele>112.4</ele><time>2026-05-03T10:04:43Z</time></trkpt><trkpt lat="43.15035382646259" lon="10.724620176538139"><ele>114.0</ele><time>2026-05-03T10:04:44Z</time></trkpt><trkpt lat="43.150444303042974" lon="10.72459316884104"><ele>114.0</ele><time>2026-05-03T10:04:45Z</time></trkpt><trkpt lat="43.15054263945383" lon="10.724582939605044"><ele>114.0</ele><time>2026-05-03T10:04:46Z</time></trkpt><trkpt lat="43.150642108585146" lon="10.724570829200742"><ele>114.0</ele><time>2026-05-03T10:04:47Z</time></trkpt><trkpt lat="43.15073479029105" lon="10.724556893955834"><ele>114.0</ele><time>2026-05-03T10:04:48Z</time></trkpt><trkpt lat="43.1508157428009" lon="10.724542696296647"><ele>114.0</ele><time>2026-05-03T10:04:49Z</time></trkpt><trkpt lat="43.15088393779146" lon="10.724540922994134"><ele>114.0</ele><time>2026-05-03T10:04:50Z</time></trkpt><trkpt lat="43.15094440486269" lon="10.72456646476932"><ele>114.0</ele><time>2026-05-03T10:04:53Z</time></trkpt><trkpt lat="43.15076808916665" lon="10.72450898201074"><ele>114.0</ele><time>2026-05-03T10:08:25Z</time></trkpt><trkpt lat="43.150656667384894" lon="10.724532877149851"><ele>114.0</ele><time>2026-05-03T10:08:26Z</time></trkpt><trkpt lat="43.15053604714179" lon="10.724555792563626"><ele>114.0</ele><time>2026-05-03T10:08:27Z</time></trkpt><trkpt lat="43.150423251918504" lon="10.724578111913173"><ele>114.0</ele><time>2026-05-03T10:08:28Z</time></trkpt><trkpt lat="43.15033500439375" lon="10.724610160354596"><ele>114.0</ele><time>2026-05-03T10:08:29Z</time></trkpt><trkpt lat="43.15025985605648" lon="10.724653074024628"><ele>114.0</ele><time>2026-05-03T10:08:30Z</time></trkpt><trkpt lat="43.15019590079426" lon="10.724722032887671"><ele>114.0</ele><time>2026-05-03T10:08:31Z</time></trkpt><trkpt lat="43.15012899703143" lon="10.724819599654058"><ele>114.0</ele><time>2026-05-03T10:08:32Z</time></trkpt><trkpt lat="43.15007405474302" lon="10.724944696025867"><ele>114.0</ele><time>2026-05-03T10:08:33Z</time></trkpt><trkpt lat="43.150023956831525" lon="10.725079759546457"><ele>114.0</ele><time>2026-05-03T10:08:34Z</time></trkpt><trkpt lat="43.149987474680465" lon="10.725221061607591"><ele>114.0</ele><time>2026-05-03T10:08:35Z</time></trkpt><trkpt lat="43.14996481378285" lon="10.725362537539262"><ele>114.0</ele><time>2026-05-03T10:08:36Z</time></trkpt><trkpt lat="43.14994633551102" lon="10.725509705520052"><ele>114.0</ele><time>2026-05-03T10:08:37Z</time></trkpt><trkpt lat="43.149929218921194" lon="10.725641256991407"><ele>115.2</ele><time>2026-05-03T10:08:38Z</time></trkpt><trkpt lat="43.14991012690252" lon="10.725768029724193"><ele>116.4</ele><time>2026-05-03T10:08:39Z</time></trkpt><trkpt lat="43.14989251862691" lon="10.725860550584814"><ele>117.6</ele><time>2026-05-03T10:08:40Z</time></trkpt><trkpt lat="43.149871857573814" lon="10.726029622152064"><ele>118.8</ele><time>2026-05-03T10:08:42Z</time></trkpt><trkpt lat="43.149839896180666" lon="10.726136430828731"><ele>120.0</ele><time>2026-05-03T10:08:44Z</time></trkpt><trkpt lat="43.149816862381236" lon="10.7262633795148"><ele>120.0</ele><time>2026-05-03T10:08:46Z</time></trkpt><trkpt lat="43.14979447426295" lon="10.726413919978475"><ele>120.0</ele><time>2026-05-03T10:08:48Z</time></trkpt><trkpt lat="43.14976693958961" lon="10.726597386742357"><ele>120.0</ele><time>2026-05-03T10:08:50Z</time></trkpt><trkpt lat="43.14974845375888" lon="10.726720560122248"><ele>120.0</ele><time>2026-05-03T10:08:51Z</time></trkpt><trkpt lat="43.1497258437072" lon="10.726836675838811"><ele>120.0</ele><time>2026-05-03T10:08:52Z</time></trkpt><trkpt lat="43.14969853442798" lon="10.726957753352718"><ele>114.0</ele><time>2026-05-03T10:08:53Z</time></trkpt><trkpt lat="43.149230962930346" lon="10.72692116539141"><ele>115.2</ele><time>2026-05-03T10:08:55Z</time></trkpt><trkpt lat="43.14916463686365" lon="10.726884887474485"><ele>116.4</ele><time>2026-05-03T10:08:56Z</time></trkpt><trkpt lat="43.149089991060414" lon="10.726810945784717"><ele>117.6</ele><time>2026-05-03T10:08:57Z</time></trkpt><trkpt lat="43.149033876564026" lon="10.726744288354304"><ele>118.8</ele><time>2026-05-03T10:08:58Z</time></trkpt><trkpt lat="43.148968837930674" lon="10.726673512333118"><ele>120.0</ele><time>2026-05-03T10:08:59Z</time></trkpt><trkpt lat="43.148966874731634" lon="10.726441126775422"><ele>122.6</ele><time>2026-05-03T10:09:01Z</time></trkpt><trkpt lat="43.148953362853746" lon="10.726270672165581"><ele>125.2</ele><time>2026-05-03T10:09:02Z</time></trkpt><trkpt lat="43.148931158136136" lon="10.726134989148175"><ele>127.80000000000001</ele><time>2026-05-03T10:09:03Z</time></trkpt><trkpt lat="43.14891581528861" lon="10.726038693447501"><ele>130.4</ele><time>2026-05-03T10:09:04Z</time></trkpt><trkpt lat="43.148875578554794" lon="10.725946971921191"><ele>133.0</ele><time>2026-05-03T10:09:05Z</time></trkpt><trkpt lat="43.14884074771112" lon="10.72584606940987"><ele>134.6</ele><time>2026-05-03T10:09:06Z</time></trkpt><trkpt lat="43.148812683870446" lon="10.725731112529575"><ele>136.20000000000002</ele><time>2026-05-03T10:09:07Z</time></trkpt><trkpt lat="43.148789090349695" lon="10.72563253977103"><ele>137.8</ele><time>2026-05-03T10:09:08Z</time></trkpt><trkpt lat="43.148768857342134" lon="10.725445370160372"><ele>139.4</ele><time>2026-05-03T10:09:10Z</time></trkpt><trkpt lat="43.14877102495222" lon="10.725322816666795"><ele>141.0</ele><time>2026-05-03T10:09:11Z</time></trkpt><trkpt lat="43.14879543471962" lon="10.725214740689454"><ele>141.66666666666666</ele><time>2026-05-03T10:09:12Z</time></trkpt><trkpt lat="43.148854372273945" lon="10.725122689589943"><ele>142.33333333333334</ele><time>2026-05-03T10:09:13Z</time></trkpt><trkpt lat="43.148910106236244" lon="10.725049493591055"><ele>143.0</ele><time>2026-05-03T10:09:14Z</time></trkpt><trkpt lat="43.14896565236757" lon="10.724980448566143"><ele>143.66666666666669</ele><time>2026-05-03T10:09:15Z</time></trkpt><trkpt lat="43.149024104448586" lon="10.724921789576056"><ele>144.33333333333334</ele><time>2026-05-03T10:09:16Z</time></trkpt><trkpt lat="43.149146516272154" lon="10.724852922117083"><ele>145.0</ele><time>2026-05-03T10:09:18.001Z</time></trkpt><trkpt lat="43.14919816921729" lon="10.72478509627338"><ele>144.0</ele><time>2026-05-03T10:09:19.001Z</time></trkpt><trkpt lat="43.14922440077069" lon="10.72469739291893"><ele>143.0</ele><time>2026-05-03T10:09:20.001Z</time></trkpt><trkpt lat="43.14926623337214" lon="10.724572518206129"><ele>142.0</ele><time>2026-05-03T10:09:21.001Z</time></trkpt><trkpt lat="43.14930771329037" lon="10.724443933280433"><ele>141.0</ele><time>2026-05-03T10:09:22.001Z</time></trkpt><trkpt lat="43.14932576213591" lon="10.724350563150162"><ele>140.0</ele><time>2026-05-03T10:09:23.001Z</time></trkpt><trkpt lat="43.14934604572614" lon="10.724238298450746"><ele>139.0</ele><time>2026-05-03T10:09:25.001Z</time></trkpt><trkpt lat="43.149336483053446" lon="10.724080162236444"><ele>139.0</ele><time>2026-05-03T10:09:27.001Z</time></trkpt><trkpt lat="43.1493199683221" lon="10.723969006132744"><ele>139.0</ele><time>2026-05-03T10:09:29.001Z</time></trkpt><trkpt lat="43.149256045440254" lon="10.72386129512331"><ele>139.0</ele><time>2026-05-03T10:09:32.001Z</time></trkpt><trkpt lat="43.1491526258546" lon="10.723816529830033"><ele>139.0</ele><time>2026-05-03T10:09:34.001Z</time></trkpt><trkpt lat="43.14903464275582" lon="10.723827103428752"><ele>139.0</ele><time>2026-05-03T10:09:36.001Z</time></trkpt><trkpt lat="43.148952453994994" lon="10.723851552026565"><ele>140.33333333333334</ele><time>2026-05-03T10:09:37.001Z</time></trkpt><trkpt lat="43.14887873699282" lon="10.723867246236315"><ele>141.66666666666669</ele><time>2026-05-03T10:09:38.001Z</time></trkpt><trkpt lat="43.14879043821888" lon="10.723848068570607"><ele>143.0</ele><time>2026-05-03T10:09:40.001Z</time></trkpt><trkpt lat="43.1486875452739" lon="10.723767984884145"><ele>144.33333333333334</ele><time>2026-05-03T10:09:42.001Z</time></trkpt><trkpt lat="43.14862831455465" lon="10.723721439642793"><ele>145.66666666666666</ele><time>2026-05-03T10:09:43.001Z</time></trkpt><trkpt lat="43.14857202942958" lon="10.723649903586315"><ele>147.0</ele><time>2026-05-03T10:09:45.001Z</time></trkpt><trkpt lat="43.148588670132824" lon="10.723552668723354"><ele>147.79999999999998</ele><time>2026-05-03T10:09:47.001Z</time></trkpt><trkpt lat="43.1486816451215" lon="10.723470015057456"><ele>148.6</ele><time>2026-05-03T10:09:49.001Z</time></trkpt><trkpt lat="43.14877746165628" lon="10.723369460617308"><ele>149.39999999999998</ele><time>2026-05-03T10:09:51.001Z</time></trkpt><trkpt lat="43.14880704096521" lon="10.723284583199906"><ele>150.2</ele><time>2026-05-03T10:09:52.001Z</time></trkpt><trkpt lat="43.14886060893327" lon="10.72310848916907"><ele>151.0</ele><time>2026-05-03T10:09:54.001Z</time></trkpt><trkpt lat="43.14888267951485" lon="10.72301701791262"><ele>151.0</ele><time>2026-05-03T10:09:55.001Z</time></trkpt><trkpt lat="43.14887761857106" lon="10.722908463295699"><ele>151.0</ele><time>2026-05-03T10:09:56.001Z</time></trkpt><trkpt lat="43.14885591504311" lon="10.722791526038405"><ele>151.0</ele><time>2026-05-03T10:09:57.001Z</time></trkpt><trkpt lat="43.14882429396799" lon="10.722674038427488"><ele>151.0</ele><time>2026-05-03T10:09:58.001Z</time></trkpt><trkpt lat="43.14880284439641" lon="10.722572341985154"><ele>151.0</ele><time>2026-05-03T10:09:59.001Z</time></trkpt><trkpt lat="43.14878045716339" lon="10.722475992534337"><ele>151.0</ele><time>2026-05-03T10:10:00.001Z</time></trkpt><trkpt lat="43.14876238270274" lon="10.722384642283572"><ele>151.0</ele><time>2026-05-03T10:10:01.001Z</time></trkpt><trkpt lat="43.14867007765936" lon="10.722253569739653"><ele>151.0</ele><time>2026-05-03T10:10:03.001Z</time></trkpt><trkpt lat="43.14859789740435" lon="10.722207222097024"><ele>151.0</ele><time>2026-05-03T10:10:04.001Z</time></trkpt><trkpt lat="43.148520525379595" lon="10.722192923234237"><ele>151.0</ele><time>2026-05-03T10:10:05.001Z</time></trkpt><trkpt lat="43.148448055503366" lon="10.722214530599256"><ele>151.0</ele><time>2026-05-03T10:10:06.001Z</time></trkpt><trkpt lat="43.14834980959089" lon="10.722246310830837"><ele>151.0</ele><time>2026-05-03T10:10:07.001Z</time></trkpt><trkpt lat="43.14827187926141" lon="10.722244185034809"><ele>151.0</ele><time>2026-05-03T10:10:08.001Z</time></trkpt><trkpt lat="43.14819662295153" lon="10.72221241338443"><ele>151.0</ele><time>2026-05-03T10:10:09.001Z</time></trkpt><trkpt lat="43.148139518005976" lon="10.722162020297178"><ele>151.0</ele><time>2026-05-03T10:10:10.001Z</time></trkpt><trkpt lat="43.14808685640992" lon="10.722070190515677"><ele>151.0</ele><time>2026-05-03T10:10:11.001Z</time></trkpt><trkpt lat="43.148032148999" lon="10.721923891299749"><ele>151.0</ele><time>2026-05-03T10:10:12.001Z</time></trkpt><trkpt lat="43.14798252517542" lon="10.7218134514517"><ele>154.2</ele><time>2026-05-03T10:10:13.001Z</time></trkpt><trkpt lat="43.14792117784477" lon="10.721704130794084"><ele>157.39999999999998</ele><time>2026-05-03T10:10:14.001Z</time></trkpt><trkpt lat="43.147856507342546" lon="10.72160872701233"><ele>160.6</ele><time>2026-05-03T10:10:15.001Z</time></trkpt><trkpt lat="43.1478033722569" lon="10.721486104148733"><ele>163.79999999999998</ele><time>2026-05-03T10:10:16.001Z</time></trkpt><trkpt lat="43.14775987833517" lon="10.721376562586487"><ele>167.0</ele><time>2026-05-03T10:10:17.001Z</time></trkpt><trkpt lat="43.14769837598312" lon="10.721283448150903"><ele>167.0</ele><time>2026-05-03T10:10:18Z</time></trkpt><trkpt lat="43.147634023122755" lon="10.721172924528748"><ele>167.0</ele><time>2026-05-03T10:10:19Z</time></trkpt><trkpt lat="43.147578069931086" lon="10.721065496141678"><ele>167.0</ele><time>2026-05-03T10:10:20Z</time></trkpt><trkpt lat="43.14753509175938" lon="10.720992772665467"><ele>167.0</ele><time>2026-05-03T10:10:21Z</time></trkpt><trkpt lat="43.14746525211161" lon="10.720919773022775"><ele>167.0</ele><time>2026-05-03T10:10:22Z</time></trkpt><trkpt lat="43.147379421013795" lon="10.720824591074779"><ele>171.39999999999998</ele><time>2026-05-03T10:10:23Z</time></trkpt><trkpt lat="43.14729643591111" lon="10.720711795369366"><ele>175.79999999999998</ele><time>2026-05-03T10:10:24Z</time></trkpt><trkpt lat="43.14721725908671" lon="10.720618613059854"><ele>180.2</ele><time>2026-05-03T10:10:25Z</time></trkpt><trkpt lat="43.14715747882716" lon="10.72050304990318"><ele>184.6</ele><time>2026-05-03T10:10:26Z</time></trkpt><trkpt lat="43.14708950144271" lon="10.72037545000295"><ele>189.0</ele><time>2026-05-03T10:10:27Z</time></trkpt><trkpt lat="43.14701927586641" lon="10.720247136199259"><ele>189.39999999999998</ele><time>2026-05-03T10:10:28Z</time></trkpt><trkpt lat="43.14694388850482" lon="10.720146676405376"><ele>189.8</ele><time>2026-05-03T10:10:29Z</time></trkpt><trkpt lat="43.146857679364174" lon="10.720057993053091"><ele>190.2</ele><time>2026-05-03T10:10:30Z</time></trkpt><trkpt lat="43.14678044416066" lon="10.71996932709054"><ele>190.60000000000002</ele><time>2026-05-03T10:10:31Z</time></trkpt><trkpt lat="43.14668852953293" lon="10.719913513590257"><ele>191.0</ele><time>2026-05-03T10:10:32Z</time></trkpt><trkpt lat="43.14658965839637" lon="10.719853892971924"><ele>191.0</ele><time>2026-05-03T10:10:33Z</time></trkpt><trkpt lat="43.1465266642922" lon="10.719784465382551"><ele>191.0</ele><time>2026-05-03T10:10:35Z</time></trkpt><trkpt lat="43.14657910333745" lon="10.719629106992185"><ele>191.0</ele><time>2026-05-03T10:10:37Z</time></trkpt><trkpt lat="43.14666264569858" lon="10.71948533949218"><ele>191.0</ele><time>2026-05-03T10:10:38Z</time></trkpt><trkpt lat="43.14671948630857" lon="10.719351346288931"><ele>191.75</ele><time>2026-05-03T10:10:39Z</time></trkpt><trkpt lat="43.14677829642391" lon="10.719226330921192"><ele>192.5</ele><time>2026-05-03T10:10:40Z</time></trkpt><trkpt lat="43.14684974966392" lon="10.719098654627487"><ele>193.25</ele><time>2026-05-03T10:10:41Z</time></trkpt><trkpt lat="43.14691777950418" lon="10.718956673132247"><ele>194.0</ele><time>2026-05-03T10:10:42Z</time></trkpt><trkpt lat="43.14696723795807" lon="10.718823196423648"><ele>194.0</ele><time>2026-05-03T10:10:43Z</time></trkpt><trkpt lat="43.1470217994777" lon="10.71869048563456"><ele>194.0</ele><time>2026-05-03T10:10:44Z</time></trkpt><trkpt lat="43.147073070985954" lon="10.718565464151396"><ele>194.0</ele><time>2026-05-03T10:10:45Z</time></trkpt><trkpt lat="43.147120619011844" lon="10.71844215555509"><ele>194.0</ele><time>2026-05-03T10:10:46Z</time></trkpt><trkpt lat="43.14715545710281" lon="10.718319090351814"><ele>194.0</ele><time>2026-05-03T10:10:47Z</time></trkpt><trkpt lat="43.1471942478397" lon="10.718170526251654"><ele>195.14285714285714</ele><time>2026-05-03T10:10:48Z</time></trkpt><trkpt lat="43.14721103007703" lon="10.718061255563775"><ele>196.2857142857143</ele><time>2026-05-03T10:10:49Z</time></trkpt><trkpt lat="43.14722537386296" lon="10.717971156669693"><ele>197.42857142857144</ele><time>2026-05-03T10:10:50Z</time></trkpt><trkpt lat="43.14723736384838" lon="10.71787456948194"><ele>198.57142857142856</ele><time>2026-05-03T10:10:51Z</time></trkpt><trkpt lat="43.14723732336741" lon="10.717787724413546"><ele>199.71428571428572</ele><time>2026-05-03T10:10:52Z</time></trkpt><trkpt lat="43.147252391574206" lon="10.717683647940254"><ele>200.85714285714286</ele><time>2026-05-03T10:10:54Z</time></trkpt><trkpt lat="43.147305870508426" lon="10.71762963736971"><ele>202.0</ele><time>2026-05-03T10:13:22.001Z</time></trkpt><trkpt lat="43.14735997903759" lon="10.717576236260228"><ele>203.0</ele><time>2026-05-03T10:13:23.001Z</time></trkpt><trkpt lat="43.147407997440354" lon="10.717510298086868"><ele>204.0</ele><time>2026-05-03T10:13:24.001Z</time></trkpt><trkpt lat="43.14746267921779" lon="10.717423544532497"><ele>205.0</ele><time>2026-05-03T10:13:25.001Z</time></trkpt><trkpt lat="43.14752096073451" lon="10.71731995603241"><ele>206.0</ele><time>2026-05-03T10:13:26.001Z</time></trkpt><trkpt lat="43.1475984522346" lon="10.717209490555971"><ele>207.0</ele><time>2026-05-03T10:13:27.001Z</time></trkpt><trkpt lat="43.14767454664267" lon="10.717089780452415"><ele>207.0</ele><time>2026-05-03T10:13:28.001Z</time></trkpt><trkpt lat="43.147744009025786" lon="10.716977739538763"><ele>207.0</ele><time>2026-05-03T10:13:29.001Z</time></trkpt><trkpt lat="43.14780050002942" lon="10.71687776859563"><ele>207.0</ele><time>2026-05-03T10:13:30.001Z</time></trkpt><trkpt lat="43.147846679182805" lon="10.716785761602326"><ele>207.0</ele><time>2026-05-03T10:13:31.001Z</time></trkpt><trkpt lat="43.14788156965781" lon="10.716685384875875"><ele>207.0</ele><time>2026-05-03T10:13:32.001Z</time></trkpt><trkpt lat="43.147905068133056" lon="10.716571781374231"><ele>207.0</ele><time>2026-05-03T10:13:33.001Z</time></trkpt><trkpt lat="43.14793843114148" lon="10.716457548665945"><ele>206.6</ele><time>2026-05-03T10:13:34.001Z</time></trkpt><trkpt lat="43.147974157244604" lon="10.71634422784638"><ele>206.2</ele><time>2026-05-03T10:13:35.001Z</time></trkpt><trkpt lat="43.14801397278067" lon="10.716232575072683"><ele>205.8</ele><time>2026-05-03T10:13:36.001Z</time></trkpt><trkpt lat="43.1480673407676" lon="10.716108566264305"><ele>205.4</ele><time>2026-05-03T10:13:37.001Z</time></trkpt><trkpt lat="43.14812367982178" lon="10.715988395795833"><ele>205.0</ele><time>2026-05-03T10:13:38.001Z</time></trkpt><trkpt lat="43.148176213309675" lon="10.715861743130837"><ele>204.0</ele><time>2026-05-03T10:13:39.001Z</time></trkpt><trkpt lat="43.14821542260748" lon="10.715722714542633"><ele>203.0</ele><time>2026-05-03T10:13:40.001Z</time></trkpt><trkpt lat="43.14824014701818" lon="10.715554621881683"><ele>202.0</ele><time>2026-05-03T10:13:41.001Z</time></trkpt><trkpt lat="43.148263719124145" lon="10.715416974579162"><ele>201.0</ele><time>2026-05-03T10:13:42.001Z</time></trkpt><trkpt lat="43.14828557097434" lon="10.715306524943603"><ele>200.0</ele><time>2026-05-03T10:13:43.001Z</time></trkpt><trkpt lat="43.14830470713909" lon="10.715210323823124"><ele>199.8</ele><time>2026-05-03T10:13:44.001Z</time></trkpt><trkpt lat="43.14830800915002" lon="10.715096991949599"><ele>199.6</ele><time>2026-05-03T10:13:45.001Z</time></trkpt><trkpt lat="43.148299063425945" lon="10.71498181096083"><ele>199.39999999999998</ele><time>2026-05-03T10:13:46.001Z</time></trkpt><trkpt lat="43.14829508911514" lon="10.714845067123797"><ele>199.2</ele><time>2026-05-03T10:13:47.001Z</time></trkpt><trkpt lat="43.14828090687789" lon="10.714717314943735"><ele>199.0</ele><time>2026-05-03T10:13:48.001Z</time></trkpt><trkpt lat="43.148259746115244" lon="10.71459060167707"><ele>199.0</ele><time>2026-05-03T10:13:49.001Z</time></trkpt><trkpt lat="43.14824444160946" lon="10.714454086040114"><ele>199.0</ele><time>2026-05-03T10:13:50.001Z</time></trkpt><trkpt lat="43.14822638682722" lon="10.714335595641696"><ele>199.0</ele><time>2026-05-03T10:13:51.001Z</time></trkpt><trkpt lat="43.1482142928324" lon="10.714228201655345"><ele>199.0</ele><time>2026-05-03T10:13:52.001Z</time></trkpt><trkpt lat="43.148192131348296" lon="10.71411423974283"><ele>199.0</ele><time>2026-05-03T10:13:53.001Z</time></trkpt><trkpt lat="43.14816116434716" lon="10.713978541533999"><ele>199.33333333333331</ele><time>2026-05-03T10:13:54.001Z</time></trkpt><trkpt lat="43.14813227306532" lon="10.713859916376142"><ele>199.66666666666666</ele><time>2026-05-03T10:13:55.001Z</time></trkpt><trkpt lat="43.148107389369834" lon="10.713758764596534"><ele>200.0</ele><time>2026-05-03T10:13:56.001Z</time></trkpt><trkpt lat="43.14808678445552" lon="10.713649128129832"><ele>200.33333333333331</ele><time>2026-05-03T10:13:57.001Z</time></trkpt><trkpt lat="43.148050050566006" lon="10.713536165373746"><ele>200.66666666666666</ele><time>2026-05-03T10:13:58.001Z</time></trkpt><trkpt lat="43.148003135021604" lon="10.713438500507475"><ele>201.0</ele><time>2026-05-03T10:13:59.001Z</time></trkpt><trkpt lat="43.14795758324321" lon="10.713339293100244"><ele>201.0</ele><time>2026-05-03T10:14:00.001Z</time></trkpt><trkpt lat="43.147911880988524" lon="10.713229737338764"><ele>201.0</ele><time>2026-05-03T10:14:01.001Z</time></trkpt><trkpt lat="43.14786396987985" lon="10.713110708497751"><ele>201.0</ele><time>2026-05-03T10:14:02.001Z</time></trkpt><trkpt lat="43.147817814020485" lon="10.712987584006456"><ele>201.0</ele><time>2026-05-03T10:14:03.001Z</time></trkpt><trkpt lat="43.147770745429014" lon="10.712862424320637"><ele>201.0</ele><time>2026-05-03T10:14:04.001Z</time></trkpt><trkpt lat="43.14773640277611" lon="10.712738250982168"><ele>201.4</ele><time>2026-05-03T10:14:05.001Z</time></trkpt><trkpt lat="43.14771006593361" lon="10.712638774697455"><ele>201.8</ele><time>2026-05-03T10:14:06.001Z</time></trkpt><trkpt lat="43.14767847641823" lon="10.712530566119032"><ele>202.20000000000002</ele><time>2026-05-03T10:14:07.001Z</time></trkpt><trkpt lat="43.14763171438149" lon="10.712394190722868"><ele>202.60000000000002</ele><time>2026-05-03T10:14:08.001Z</time></trkpt><trkpt lat="43.14758282252015" lon="10.712251049734974"><ele>203.0</ele><time>2026-05-03T10:14:09.001Z</time></trkpt><trkpt lat="43.147539154560256" lon="10.71209900749069"><ele>203.0</ele><time>2026-05-03T10:14:10.001Z</time></trkpt><trkpt lat="43.14749264956329" lon="10.71195460899342"><ele>203.0</ele><time>2026-05-03T10:14:11.001Z</time></trkpt><trkpt lat="43.147444081372214" lon="10.71182103348759"><ele>203.0</ele><time>2026-05-03T10:14:12.001Z</time></trkpt><trkpt lat="43.14740258150023" lon="10.711705004989257"><ele>203.0</ele><time>2026-05-03T10:14:13.001Z</time></trkpt><trkpt lat="43.147360129169925" lon="10.711606495499044"><ele>203.0</ele><time>2026-05-03T10:14:14.001Z</time></trkpt><trkpt lat="43.14732009605474" lon="10.711468220543265"><ele>202.60000000000002</ele><time>2026-05-03T10:14:15.001Z</time></trkpt><trkpt lat="43.147289789939755" lon="10.711310625766693"><ele>202.20000000000002</ele><time>2026-05-03T10:14:16.001Z</time></trkpt><trkpt lat="43.147264908363354" lon="10.711170595688397"><ele>201.8</ele><time>2026-05-03T10:14:17.001Z</time></trkpt><trkpt lat="43.14724782540291" lon="10.711041847792725"><ele>201.4</ele><time>2026-05-03T10:14:18.001Z</time></trkpt><trkpt lat="43.14723109828548" lon="10.71091180652676"><ele>201.0</ele><time>2026-05-03T10:14:19.001Z</time></trkpt><trkpt lat="43.14720468661604" lon="10.71078763286815"><ele>201.0</ele><time>2026-05-03T10:14:20.001Z</time></trkpt><trkpt lat="43.147179768031364" lon="10.710662360205887"><ele>201.0</ele><time>2026-05-03T10:14:21.001Z</time></trkpt><trkpt lat="43.147149256947024" lon="10.71054066305755"><ele>201.0</ele><time>2026-05-03T10:14:22.001Z</time></trkpt><trkpt lat="43.147107619878824" lon="10.710419098590469"><ele>201.0</ele><time>2026-05-03T10:14:23.001Z</time></trkpt><trkpt lat="43.147069696789565" lon="10.71031134849279"><ele>201.0</ele><time>2026-05-03T10:14:24.001Z</time></trkpt><trkpt lat="43.14702338912299" lon="10.710205009297994"><ele>202.0</ele><time>2026-05-03T10:14:25.001Z</time></trkpt><trkpt lat="43.14698014414301" lon="10.710091329815143"><ele>203.0</ele><time>2026-05-03T10:14:26.001Z</time></trkpt><trkpt lat="43.14693813786386" lon="10.709978862251356"><ele>204.0</ele><time>2026-05-03T10:14:27.001Z</time></trkpt><trkpt lat="43.14688495419881" lon="10.70986799381799"><ele>205.0</ele><time>2026-05-03T10:14:28.001Z</time></trkpt><trkpt lat="43.14682197681877" lon="10.709767682867707"><ele>206.0</ele><time>2026-05-03T10:14:29.001Z</time></trkpt><trkpt lat="43.146761682725135" lon="10.709683294203284"><ele>206.0</ele><time>2026-05-03T10:14:30Z</time></trkpt><trkpt lat="43.14669075785234" lon="10.709613095215618"><ele>206.0</ele><time>2026-05-03T10:14:31Z</time></trkpt><trkpt lat="43.1465960140145" lon="10.709556316390222"><ele>206.0</ele><time>2026-05-03T10:14:32Z</time></trkpt><trkpt lat="43.14650610185246" lon="10.709498820438203"><ele>206.0</ele><time>2026-05-03T10:14:33Z</time></trkpt><trkpt lat="43.14642829840994" lon="10.709426497672375"><ele>206.0</ele><time>2026-05-03T10:14:34Z</time></trkpt><trkpt lat="43.14636480832863" lon="10.70934373537521"><ele>207.0</ele><time>2026-05-03T10:14:35Z</time></trkpt><trkpt lat="43.14629831504812" lon="10.709255783071477"><ele>208.0</ele><time>2026-05-03T10:14:36Z</time></trkpt><trkpt lat="43.146219764243604" lon="10.709184498100006"><ele>209.0</ele><time>2026-05-03T10:14:37Z</time></trkpt><trkpt lat="43.146132606916375" lon="10.709138776047896"><ele>210.0</ele><time>2026-05-03T10:14:38Z</time></trkpt><trkpt lat="43.14605050512524" lon="10.709075828076946"><ele>211.0</ele><time>2026-05-03T10:14:39Z</time></trkpt><trkpt lat="43.145966495263465" lon="10.709017265189418"><ele>210.99999999999997</ele><time>2026-05-03T10:14:40Z</time></trkpt><trkpt lat="43.14589013465526" lon="10.708955783811152"><ele>211.0</ele><time>2026-05-03T10:14:41Z</time></trkpt><trkpt lat="43.14583424330578" lon="10.7088895423861"><ele>211.0</ele><time>2026-05-03T10:14:42Z</time></trkpt><trkpt lat="43.145778610457405" lon="10.708810201066505"><ele>211.0</ele><time>2026-05-03T10:14:43Z</time></trkpt><trkpt lat="43.14571311864602" lon="10.708732223808196"><ele>210.99999999999997</ele><time>2026-05-03T10:14:44Z</time></trkpt><trkpt lat="43.14563758221127" lon="10.708656266846027"><ele>211.0</ele><time>2026-05-03T10:14:45Z</time></trkpt><trkpt lat="43.145553999073826" lon="10.70857210185755"><ele>209.99999999999997</ele><time>2026-05-03T10:14:46Z</time></trkpt><trkpt lat="43.145482751611965" lon="10.7084928818353"><ele>209.0</ele><time>2026-05-03T10:14:47Z</time></trkpt><trkpt lat="43.14542031372374" lon="10.708430062940804"><ele>208.0</ele><time>2026-05-03T10:14:48Z</time></trkpt><trkpt lat="43.14535453623188" lon="10.708370625557404"><ele>207.0</ele><time>2026-05-03T10:14:49Z</time></trkpt><trkpt lat="43.14529052161199" lon="10.708307242724208"><ele>205.99999999999997</ele><time>2026-05-03T10:14:50Z</time></trkpt><trkpt lat="43.14522674773132" lon="10.70826209010857"><ele>205.0</ele><time>2026-05-03T10:14:51Z</time></trkpt><trkpt lat="43.145139359667276" lon="10.708215231919118"><ele>205.0</ele><time>2026-05-03T10:14:52Z</time></trkpt><trkpt lat="43.14502898636012" lon="10.708185007223785"><ele>205.0</ele><time>2026-05-03T10:14:53Z</time></trkpt><trkpt lat="43.14491778936119" lon="10.7081592130389"><ele>205.0</ele><time>2026-05-03T10:14:54Z</time></trkpt><trkpt lat="43.144814610003664" lon="10.70816118388567"><ele>205.0</ele><time>2026-05-03T10:14:55Z</time></trkpt><trkpt lat="43.14471935649798" lon="10.70817495300943"><ele>205.0</ele><time>2026-05-03T10:14:56Z</time></trkpt><trkpt lat="43.14461648213298" lon="10.708180455451123"><ele>204.6</ele><time>2026-05-03T10:14:57Z</time></trkpt><trkpt lat="43.144518442757196" lon="10.708175729793782"><ele>204.2</ele><time>2026-05-03T10:14:58Z</time></trkpt><trkpt lat="43.1444284858089" lon="10.708135117495976"><ele>203.8</ele><time>2026-05-03T10:14:59Z</time></trkpt><trkpt lat="43.144321472275045" lon="10.708054298250536"><ele>203.4</ele><time>2026-05-03T10:15:00Z</time></trkpt><trkpt lat="43.14422528743718" lon="10.707965945143217"><ele>203.0</ele><time>2026-05-03T10:15:01Z</time></trkpt><trkpt lat="43.144139468623756" lon="10.70789883907496"><ele>203.0</ele><time>2026-05-03T10:15:02Z</time></trkpt><trkpt lat="43.14406507543083" lon="10.70784428215288"><ele>203.0</ele><time>2026-05-03T10:15:03Z</time></trkpt><trkpt lat="43.14400121945122" lon="10.707790662130337"><ele>203.0</ele><time>2026-05-03T10:15:04Z</time></trkpt><trkpt lat="43.14393175608265" lon="10.707718429675058"><ele>203.0</ele><time>2026-05-03T10:15:05Z</time></trkpt><trkpt lat="43.14384925733986" lon="10.707637505168499"><ele>203.0</ele><time>2026-05-03T10:15:06Z</time></trkpt><trkpt lat="43.143755348505486" lon="10.707556597016506"><ele>202.25</ele><time>2026-05-03T10:15:07Z</time></trkpt><trkpt lat="43.14364100984773" lon="10.707480668860372"><ele>201.5</ele><time>2026-05-03T10:15:08Z</time></trkpt><trkpt lat="43.14350935343573" lon="10.707405228650291"><ele>200.75</ele><time>2026-05-03T10:15:09Z</time></trkpt><trkpt lat="43.143410049766814" lon="10.707353009961468"><ele>200.0</ele><time>2026-05-03T10:15:10Z</time></trkpt><trkpt lat="43.14332783398704" lon="10.707302231908018"><ele>200.00000000000003</ele><time>2026-05-03T10:15:11Z</time></trkpt><trkpt lat="43.143257182455926" lon="10.7072360572685"><ele>200.0</ele><time>2026-05-03T10:15:12Z</time></trkpt><trkpt lat="43.14321252190543" lon="10.707163489696539"><ele>200.0</ele><time>2026-05-03T10:15:13Z</time></trkpt><trkpt lat="43.14317456424575" lon="10.707055043212893"><ele>200.0</ele><time>2026-05-03T10:15:14Z</time></trkpt><trkpt lat="43.14314348689681" lon="10.70694171761619"><ele>200.00000000000003</ele><time>2026-05-03T10:15:15Z</time></trkpt><trkpt lat="43.143129165806144" lon="10.706818597019984"><ele>200.0</ele><time>2026-05-03T10:15:16Z</time></trkpt><trkpt lat="43.14310529267903" lon="10.706669598453196"><ele>199.8</ele><time>2026-05-03T10:15:17Z</time></trkpt><trkpt lat="43.143062686392064" lon="10.706520730637704"><ele>199.6</ele><time>2026-05-03T10:15:18Z</time></trkpt><trkpt lat="43.1430285673522" lon="10.70642505336819"><ele>199.39999999999998</ele><time>2026-05-03T10:15:19Z</time></trkpt><trkpt lat="43.14297811717951" lon="10.70625885678401"><ele>199.2</ele><time>2026-05-03T10:15:21Z</time></trkpt><trkpt lat="43.14294915546375" lon="10.706162867598167"><ele>199.0</ele><time>2026-05-03T10:15:22Z</time></trkpt><trkpt lat="43.14289935524278" lon="10.706105940988916"><ele>200.2</ele><time>2026-05-03T10:15:23Z</time></trkpt><trkpt lat="43.1428343814537" lon="10.706054550754207"><ele>201.39999999999998</ele><time>2026-05-03T10:15:24Z</time></trkpt><trkpt lat="43.14277392388681" lon="10.705996751172892"><ele>202.6</ele><time>2026-05-03T10:15:25Z</time></trkpt><trkpt lat="43.14272919144463" lon="10.705834455426528"><ele>203.8</ele><time>2026-05-03T10:15:27Z</time></trkpt><trkpt lat="43.142692296182375" lon="10.705715875557635"><ele>205.0</ele><time>2026-05-03T10:15:28Z</time></trkpt><trkpt lat="43.142646958984955" lon="10.705598340394651"><ele>204.99999999999997</ele><time>2026-05-03T10:15:29.001Z</time></trkpt><trkpt lat="43.142614648599015" lon="10.70547662441982"><ele>205.0</ele><time>2026-05-03T10:15:30.001Z</time></trkpt><trkpt lat="43.14257578656998" lon="10.705367854644015"><ele>205.0</ele><time>2026-05-03T10:15:31.001Z</time></trkpt><trkpt lat="43.14253749722738" lon="10.705266214210798"><ele>205.0</ele><time>2026-05-03T10:15:32.001Z</time></trkpt><trkpt lat="43.14249746457757" lon="10.705170788400252"><ele>204.99999999999997</ele><time>2026-05-03T10:15:33.001Z</time></trkpt><trkpt lat="43.14246480988351" lon="10.705081963985386"><ele>205.0</ele><time>2026-05-03T10:15:34.001Z</time></trkpt><trkpt lat="43.14241709362414" lon="10.70501672181323"><ele>206.8</ele><time>2026-05-03T10:15:35.001Z</time></trkpt><trkpt lat="43.142332864530175" lon="10.704936761674228"><ele>208.6</ele><time>2026-05-03T10:15:37.001Z</time></trkpt><trkpt lat="43.142262847582465" lon="10.704839212193146"><ele>210.39999999999998</ele><time>2026-05-03T10:15:39.001Z</time></trkpt><trkpt lat="43.14219638958142" lon="10.704733666917125"><ele>212.2</ele><time>2026-05-03T10:15:41.001Z</time></trkpt><trkpt lat="43.142110402674625" lon="10.704600700807303"><ele>214.0</ele><time>2026-05-03T10:15:44.001Z</time></trkpt><trkpt lat="43.14203099513308" lon="10.704486826000167"><ele>214.0</ele><time>2026-05-03T10:15:46.001Z</time></trkpt><trkpt lat="43.141987006369064" lon="10.704422744637958"><ele>213.99999999999997</ele><time>2026-05-03T10:15:47.001Z</time></trkpt><trkpt lat="43.14193096239005" lon="10.704307385687729"><ele>213.99999999999997</ele><time>2026-05-03T10:15:49.001Z</time></trkpt><trkpt lat="43.141893017305144" lon="10.704236515480188"><ele>214.0</ele><time>2026-05-03T10:15:51.001Z</time></trkpt><trkpt lat="43.14178833428608" lon="10.704027455739427"><ele>214.0</ele><time>2026-05-03T10:15:53.001Z</time></trkpt><trkpt lat="43.14175273449182" lon="10.703947233531178"><ele>215.6</ele><time>2026-05-03T10:15:54.001Z</time></trkpt><trkpt lat="43.1417136481784" lon="10.703836021542777"><ele>217.2</ele><time>2026-05-03T10:15:56.001Z</time></trkpt><trkpt lat="43.141671975869656" lon="10.703700783867616"><ele>218.79999999999998</ele><time>2026-05-03T10:15:58.001Z</time></trkpt><trkpt lat="43.14165128021912" lon="10.70358631231897"><ele>220.39999999999998</ele><time>2026-05-03T10:15:59.001Z</time></trkpt><trkpt lat="43.14166132362652" lon="10.70346997836915"><ele>222.0</ele><time>2026-05-03T10:16:01.001Z</time></trkpt><trkpt lat="43.14163916606535" lon="10.703328459178946"><ele>223.6</ele><time>2026-05-03T10:16:03.001Z</time></trkpt><trkpt lat="43.14159335670581" lon="10.703265759397507"><ele>225.2</ele><time>2026-05-03T10:16:04.001Z</time></trkpt><trkpt lat="43.14153069408801" lon="10.703112215893583"><ele>226.8</ele><time>2026-05-03T10:16:06.001Z</time></trkpt><trkpt lat="43.14147944693432" lon="10.703046503175731"><ele>228.4</ele><time>2026-05-03T10:16:07.001Z</time></trkpt><trkpt lat="43.14142290939854" lon="10.702894329105003"><ele>230.0</ele><time>2026-05-03T10:16:08.001Z</time></trkpt><trkpt lat="43.1414097929341" lon="10.702790825910746"><ele>230.16666666666669</ele><time>2026-05-03T10:16:10.001Z</time></trkpt><trkpt lat="43.1413944414218" lon="10.702662698521733"><ele>230.33333333333334</ele><time>2026-05-03T10:16:12.001Z</time></trkpt><trkpt lat="43.14138436028217" lon="10.702563981870156"><ele>230.5</ele><time>2026-05-03T10:16:14.001Z</time></trkpt><trkpt lat="43.14138350948148" lon="10.702474077942705"><ele>230.66666666666669</ele><time>2026-05-03T10:17:12Z</time></trkpt><trkpt lat="43.14137421497471" lon="10.70237251095928"><ele>230.83333333333334</ele><time>2026-05-03T10:17:15Z</time></trkpt><trkpt lat="43.141368467050256" lon="10.702269244882803"><ele>231.0</ele><time>2026-05-03T10:17:18Z</time></trkpt><trkpt lat="43.141402820188766" lon="10.702167290499602"><ele>231.0</ele><time>2026-05-03T10:17:21Z</time></trkpt><trkpt lat="43.14142256003099" lon="10.702061145308525"><ele>231.0</ele><time>2026-05-03T10:17:24Z</time></trkpt><trkpt lat="43.14135669903611" lon="10.701932685250092"><ele>231.0</ele><time>2026-05-03T10:17:26Z</time></trkpt><trkpt lat="43.14129451733464" lon="10.701832645439815"><ele>231.0</ele><time>2026-05-03T10:17:28Z</time></trkpt><trkpt lat="43.14126023052223" lon="10.701758752274737"><ele>231.0</ele><time>2026-05-03T10:17:30Z</time></trkpt><trkpt lat="43.14127430804356" lon="10.7016725003308"><ele>231.0</ele><time>2026-05-03T10:17:32Z</time></trkpt><trkpt lat="43.141255860998804" lon="10.701581055703079"><ele>230.33333333333334</ele><time>2026-05-03T10:17:34Z</time></trkpt><trkpt lat="43.14126759253106" lon="10.701488124972352"><ele>229.66666666666669</ele><time>2026-05-03T10:17:36Z</time></trkpt><trkpt lat="43.14127803477321" lon="10.701357058711752"><ele>229.0</ele><time>2026-05-03T10:17:39.001Z</time></trkpt><trkpt lat="43.14129819052858" lon="10.701268982851401"><ele>228.33333333333334</ele><time>2026-05-03T10:17:41.001Z</time></trkpt><trkpt lat="43.14131793992258" lon="10.70114746117987"><ele>227.66666666666669</ele><time>2026-05-03T10:17:44.001Z</time></trkpt><trkpt lat="43.14130133960629" lon="10.701041045451756"><ele>227.0</ele><time>2026-05-03T10:17:46.001Z</time></trkpt><trkpt lat="43.141256816472385" lon="10.700935316244657"><ele>225.6</ele><time>2026-05-03T10:17:48.001Z</time></trkpt><trkpt lat="43.14124591088343" lon="10.700841718715868"><ele>224.2</ele><time>2026-05-03T10:17:51.001Z</time></trkpt><trkpt lat="43.141230092790344" lon="10.700727182206046"><ele>222.8</ele><time>2026-05-03T10:17:54.001Z</time></trkpt><trkpt lat="43.1412338061073" lon="10.700624207845303"><ele>221.4</ele><time>2026-05-03T10:17:56.001Z</time></trkpt><trkpt lat="43.141280584532225" lon="10.700456368363891"><ele>220.0</ele><time>2026-05-03T10:17:59.001Z</time></trkpt><trkpt lat="43.14128535496319" lon="10.700251573108464"><ele>219.33333333333331</ele><time>2026-05-03T10:18:02.001Z</time></trkpt><trkpt lat="43.14130686587922" lon="10.700152607054159"><ele>218.66666666666666</ele><time>2026-05-03T10:18:03.001Z</time></trkpt><trkpt lat="43.14133013166737" lon="10.700036347491285"><ele>218.0</ele><time>2026-05-03T10:18:09.001Z</time></trkpt><trkpt lat="43.14136917386211" lon="10.699949836374646"><ele>217.33333333333331</ele><time>2026-05-03T10:18:12.001Z</time></trkpt><trkpt lat="43.14139953112996" lon="10.699845859620948"><ele>216.66666666666666</ele><time>2026-05-03T10:18:15.001Z</time></trkpt><trkpt lat="43.14141877191425" lon="10.699746292719942"><ele>216.0</ele><time>2026-05-03T10:18:17.001Z</time></trkpt><trkpt lat="43.141452332306415" lon="10.699614924388635"><ele>216.0</ele><time>2026-05-03T10:18:19.001Z</time></trkpt><trkpt lat="43.14147158261177" lon="10.699526643973092"><ele>216.0</ele><time>2026-05-03T10:18:20.001Z</time></trkpt><trkpt lat="43.14152177340501" lon="10.699413858815038"><ele>216.0</ele><time>2026-05-03T10:18:22.001Z</time></trkpt><trkpt lat="43.141566153548155" lon="10.699309879309373"><ele>216.0</ele><time>2026-05-03T10:18:24.001Z</time></trkpt><trkpt lat="43.14158019848153" lon="10.699204973793199"><ele>216.0</ele><time>2026-05-03T10:18:27.001Z</time></trkpt><trkpt lat="43.141563710204444" lon="10.69910757619044"><ele>216.0</ele><time>2026-05-03T10:18:29.001Z</time></trkpt><trkpt lat="43.141546304233486" lon="10.699015769196247"><ele>215.8</ele><time>2026-05-03T10:18:31.001Z</time></trkpt><trkpt lat="43.14155140110969" lon="10.698885403877405"><ele>215.60000000000002</ele><time>2026-05-03T10:18:33.001Z</time></trkpt><trkpt lat="43.14157110399558" lon="10.698801426253851"><ele>215.4</ele><time>2026-05-03T10:18:34.001Z</time></trkpt><trkpt lat="43.14156754449647" lon="10.698682161197386"><ele>215.2</ele><time>2026-05-03T10:18:36.001Z</time></trkpt><trkpt lat="43.14154686073301" lon="10.698519860977637"><ele>215.0</ele><time>2026-05-03T10:18:38.001Z</time></trkpt><trkpt lat="43.14152390727925" lon="10.69837649241058"><ele>215.0</ele><time>2026-05-03T10:18:40.001Z</time></trkpt><trkpt lat="43.14151202229221" lon="10.698224216416941"><ele>215.0</ele><time>2026-05-03T10:18:42Z</time></trkpt><trkpt lat="43.141459047082485" lon="10.698100279878581"><ele>215.0</ele><time>2026-05-03T10:18:45Z</time></trkpt><trkpt lat="43.14146281050809" lon="10.697988711888504"><ele>215.0</ele><time>2026-05-03T10:18:47Z</time></trkpt><trkpt lat="43.141499288244724" lon="10.697855401796671"><ele>215.0</ele><time>2026-05-03T10:18:49Z</time></trkpt><trkpt lat="43.141501675445596" lon="10.697758100710084"><ele>215.0</ele><time>2026-05-03T10:18:51Z</time></trkpt><trkpt lat="43.14151923941204" lon="10.69767205508658"><ele>215.0</ele><time>2026-05-03T10:18:52Z</time></trkpt><trkpt lat="43.14152514063287" lon="10.697577614698941"><ele>215.0</ele><time>2026-05-03T10:18:53Z</time></trkpt><trkpt lat="43.14153583088608" lon="10.69748812413654"><ele>215.0</ele><time>2026-05-03T10:18:54Z</time></trkpt><trkpt lat="43.14153808204652" lon="10.697396886448303"><ele>215.0</ele><time>2026-05-03T10:18:55Z</time></trkpt><trkpt lat="43.14153030529614" lon="10.69726218095433"><ele>215.0</ele><time>2026-05-03T10:18:57Z</time></trkpt><trkpt lat="43.14154795453503" lon="10.697175937624472"><ele>215.0</ele><time>2026-05-03T10:18:58Z</time></trkpt><trkpt lat="43.14155455940132" lon="10.697066012936217"><ele>215.0</ele><time>2026-05-03T10:19:00Z</time></trkpt><trkpt lat="43.141534761381926" lon="10.696967792684468"><ele>215.0</ele><time>2026-05-03T10:19:02Z</time></trkpt><trkpt lat="43.14153596350859" lon="10.696869062971983"><ele>215.0</ele><time>2026-05-03T10:19:06Z</time></trkpt><trkpt lat="43.141535777845895" lon="10.696771812556857"><ele>215.0</ele><time>2026-05-03T10:19:11Z</time></trkpt><trkpt lat="43.141549851084775" lon="10.696675604924419"><ele>215.0</ele><time>2026-05-03T10:19:15Z</time></trkpt><trkpt lat="43.14157963666547" lon="10.696590524811192"><ele>215.0</ele><time>2026-05-03T10:19:17Z</time></trkpt><trkpt lat="43.14160105917064" lon="10.696501775978115"><ele>215.0</ele><time>2026-05-03T10:19:19Z</time></trkpt><trkpt lat="43.14157581495483" lon="10.696363025020784"><ele>216.4</ele><time>2026-05-03T10:19:22Z</time></trkpt><trkpt lat="43.14160035780254" lon="10.696216478009706"><ele>217.8</ele><time>2026-05-03T10:19:24Z</time></trkpt><trkpt lat="43.14159176048699" lon="10.696097740451123"><ele>219.2</ele><time>2026-05-03T10:19:26Z</time></trkpt><trkpt lat="43.141586201216334" lon="10.695970191160313"><ele>220.6</ele><time>2026-05-03T10:19:28Z</time></trkpt><trkpt lat="43.141584551983186" lon="10.69585431242837"><ele>222.0</ele><time>2026-05-03T10:19:30Z</time></trkpt><trkpt lat="43.14161575791014" lon="10.695736151768735"><ele>222.0</ele><time>2026-05-03T10:19:32Z</time></trkpt><trkpt lat="43.14165301291842" lon="10.69564651338707"><ele>222.0</ele><time>2026-05-03T10:19:34Z</time></trkpt><trkpt lat="43.14174068089921" lon="10.695561511926824"><ele>222.0</ele><time>2026-05-03T10:19:36Z</time></trkpt><trkpt lat="43.14179777546585" lon="10.695513874411958"><ele>222.0</ele><time>2026-05-03T10:19:38Z</time></trkpt><trkpt lat="43.14187010751316" lon="10.695430110104589"><ele>222.0</ele><time>2026-05-03T10:19:40Z</time></trkpt><trkpt lat="43.141896539350505" lon="10.695332807419383"><ele>222.0</ele><time>2026-05-03T10:19:42Z</time></trkpt><trkpt lat="43.141936729350476" lon="10.69523549968934"><ele>222.5</ele><time>2026-05-03T10:19:44Z</time></trkpt><trkpt lat="43.141996542555994" lon="10.695201303140502"><ele>223.0</ele><time>2026-05-03T10:19:47Z</time></trkpt><trkpt lat="43.142080043088534" lon="10.695160232703133"><ele>223.5</ele><time>2026-05-03T10:19:49Z</time></trkpt><trkpt lat="43.14214944717517" lon="10.69512033892247"><ele>224.0</ele><time>2026-05-03T10:19:52.001Z</time></trkpt><trkpt lat="43.14220395429842" lon="10.695071390039555"><ele>224.5</ele><time>2026-05-03T10:19:55.001Z</time></trkpt><trkpt lat="43.14226066393378" lon="10.694988996586476"><ele>225.0</ele><time>2026-05-03T10:19:58.001Z</time></trkpt><trkpt lat="43.14233782913917" lon="10.694953205102996"><ele>224.16666666666666</ele><time>2026-05-03T10:20:01.001Z</time></trkpt><trkpt lat="43.14243176062473" lon="10.694919080171715"><ele>223.33333333333331</ele><time>2026-05-03T10:20:04.001Z</time></trkpt><trkpt lat="43.14247048004119" lon="10.69483529679169"><ele>222.5</ele><time>2026-05-03T10:20:07.001Z</time></trkpt><trkpt lat="43.142538611538434" lon="10.694762283995313"><ele>221.66666666666666</ele><time>2026-05-03T10:20:10.001Z</time></trkpt><trkpt lat="43.14260559429568" lon="10.694701064380407"><ele>220.83333333333331</ele><time>2026-05-03T10:20:13.001Z</time></trkpt><trkpt lat="43.142662004901055" lon="10.694621709987697"><ele>220.0</ele><time>2026-05-03T10:20:16.001Z</time></trkpt><trkpt lat="43.14270551717456" lon="10.694532804647999"><ele>219.99999999999997</ele><time>2026-05-03T10:20:20.001Z</time></trkpt><trkpt lat="43.14274326622758" lon="10.694458030756646"><ele>220.0</ele><time>2026-05-03T10:20:23.001Z</time></trkpt><trkpt lat="43.14280397704721" lon="10.694406087154452"><ele>220.0</ele><time>2026-05-03T10:20:26.001Z</time></trkpt><trkpt lat="43.142867120164404" lon="10.694355146232489"><ele>220.0</ele><time>2026-05-03T10:20:29.001Z</time></trkpt><trkpt lat="43.142938624692164" lon="10.694278609069043"><ele>219.99999999999997</ele><time>2026-05-03T10:20:32.001Z</time></trkpt><trkpt lat="43.14300095819852" lon="10.694251615460493"><ele>220.0</ele><time>2026-05-03T10:20:34.001Z</time></trkpt><trkpt lat="43.14310860507195" lon="10.69417202903117"><ele>219.66666666666666</ele><time>2026-05-03T10:20:37.001Z</time></trkpt><trkpt lat="43.143184108461945" lon="10.694097499087958"><ele>219.33333333333331</ele><time>2026-05-03T10:20:39.001Z</time></trkpt><trkpt lat="43.1432466709454" lon="10.694069632249594"><ele>219.0</ele><time>2026-05-03T10:22:43.001Z</time></trkpt><trkpt lat="43.1433183351912" lon="10.694048273805393"><ele>218.66666666666669</ele><time>2026-05-03T10:22:45.001Z</time></trkpt><trkpt lat="43.14342679370732" lon="10.694035042510553"><ele>218.33333333333334</ele><time>2026-05-03T10:22:48.001Z</time></trkpt><trkpt lat="43.14349244335371" lon="10.694042300842348"><ele>218.0</ele><time>2026-05-03T10:22:50.001Z</time></trkpt><trkpt lat="43.14354822923838" lon="10.693988517877202"><ele>218.00000000000003</ele><time>2026-05-03T10:22:52.001Z</time></trkpt><trkpt lat="43.1436291198646" lon="10.693961278955364"><ele>218.0</ele><time>2026-05-03T10:22:54Z</time></trkpt><trkpt lat="43.14371284060897" lon="10.693929176977122"><ele>218.0</ele><time>2026-05-03T10:22:56Z</time></trkpt><trkpt lat="43.14379928053208" lon="10.693893381128476"><ele>218.0</ele><time>2026-05-03T10:22:58Z</time></trkpt><trkpt lat="43.14386867667664" lon="10.693841486550403"><ele>218.00000000000003</ele><time>2026-05-03T10:23:00Z</time></trkpt><trkpt lat="43.143902853503086" lon="10.693765672492942"><ele>218.0</ele><time>2026-05-03T10:23:03Z</time></trkpt><trkpt lat="43.14396504463243" lon="10.69370797591731"><ele>218.00000000000003</ele><time>2026-05-03T10:23:06Z</time></trkpt><trkpt lat="43.14405790615853" lon="10.693696599398367"><ele>218.0</ele><time>2026-05-03T10:23:08Z</time></trkpt><trkpt lat="43.14413219822631" lon="10.693664894360586"><ele>218.0</ele><time>2026-05-03T10:23:12Z</time></trkpt><trkpt lat="43.1442162788736" lon="10.693635402168319"><ele>218.0</ele><time>2026-05-03T10:23:15Z</time></trkpt><trkpt lat="43.14428351131565" lon="10.693628421691788"><ele>218.00000000000003</ele><time>2026-05-03T10:23:17Z</time></trkpt><trkpt lat="43.144395180930324" lon="10.693594735509636"><ele>218.0</ele><time>2026-05-03T10:23:19Z</time></trkpt><trkpt lat="43.14445390354195" lon="10.693549786011783"><ele>218.00000000000003</ele><time>2026-05-03T10:23:21Z</time></trkpt><trkpt lat="43.14452450348328" lon="10.693556668159383"><ele>218.0</ele><time>2026-05-03T10:23:23Z</time></trkpt><trkpt lat="43.14460501601018" lon="10.693510276301607"><ele>218.0</ele><time>2026-05-03T10:23:25Z</time></trkpt><trkpt lat="43.144678637810536" lon="10.693492871033525"><ele>218.0</ele><time>2026-05-03T10:23:27Z</time></trkpt><trkpt lat="43.144751281960055" lon="10.693468677355927"><ele>218.00000000000003</ele><time>2026-05-03T10:23:30Z</time></trkpt><trkpt lat="43.14484278117453" lon="10.693465195953015"><ele>218.0</ele><time>2026-05-03T10:23:33Z</time></trkpt><trkpt lat="43.1449311023064" lon="10.693448853586624"><ele>217.83333333333334</ele><time>2026-05-03T10:23:36Z</time></trkpt><trkpt lat="43.14501459444833" lon="10.693413565082773"><ele>217.66666666666669</ele><time>2026-05-03T10:23:38Z</time></trkpt><trkpt lat="43.14507696192149" lon="10.693381622592723"><ele>217.5</ele><time>2026-05-03T10:23:40Z</time></trkpt><trkpt lat="43.14516073627007" lon="10.69331575331384"><ele>217.33333333333331</ele><time>2026-05-03T10:23:42Z</time></trkpt><trkpt lat="43.14522046558651" lon="10.693232746687787"><ele>217.16666666666666</ele><time>2026-05-03T10:23:44Z</time></trkpt><trkpt lat="43.145283217154955" lon="10.693145439353486"><ele>217.0</ele><time>2026-05-03T10:23:47Z</time></trkpt><trkpt lat="43.1453444533259" lon="10.693085052562104"><ele>216.99999999999997</ele><time>2026-05-03T10:23:49Z</time></trkpt><trkpt lat="43.145413504725504" lon="10.693055900430831"><ele>217.0</ele><time>2026-05-03T10:23:51Z</time></trkpt><trkpt lat="43.14548648108644" lon="10.692998291606813"><ele>217.0</ele><time>2026-05-03T10:24:18.001Z</time></trkpt><trkpt lat="43.145587313147054" lon="10.69295916855397"><ele>217.0</ele><time>2026-05-03T10:24:22.001Z</time></trkpt><trkpt lat="43.145650526451185" lon="10.692971205941364"><ele>216.99999999999997</ele><time>2026-05-03T10:24:24.001Z</time></trkpt><trkpt lat="43.145739921740386" lon="10.692962211527089"><ele>217.0</ele><time>2026-05-03T10:24:28.001Z</time></trkpt><trkpt lat="43.145820418690136" lon="10.692930761494384"><ele>216.99999999999997</ele><time>2026-05-03T10:24:30.001Z</time></trkpt><trkpt lat="43.14583761224618" lon="10.692837127834443"><ele>217.0</ele><time>2026-05-03T10:24:33.001Z</time></trkpt><trkpt lat="43.145866994217876" lon="10.69274617933578"><ele>217.0</ele><time>2026-05-03T10:24:35.001Z</time></trkpt><trkpt lat="43.145918107861505" lon="10.692674128187742"><ele>217.0</ele><time>2026-05-03T10:24:37.001Z</time></trkpt><trkpt lat="43.14598962223169" lon="10.692616259986965"><ele>216.99999999999997</ele><time>2026-05-03T10:24:39.001Z</time></trkpt><trkpt lat="43.14607599948492" lon="10.692577137919015"><ele>217.0</ele><time>2026-05-03T10:24:42.001Z</time></trkpt><trkpt lat="43.14613812136655" lon="10.692542919152444"><ele>216.99999999999997</ele><time>2026-05-03T10:24:44.001Z</time></trkpt><trkpt lat="43.146216018013675" lon="10.692495003252443"><ele>217.0</ele><time>2026-05-03T10:24:47.001Z</time></trkpt><trkpt lat="43.146272930044844" lon="10.692454411143581"><ele>217.0</ele><time>2026-05-03T10:24:49.001Z</time></trkpt><trkpt lat="43.1463229251763" lon="10.69236401211987"><ele>217.0</ele><time>2026-05-03T10:24:51.001Z</time></trkpt><trkpt lat="43.14638993560877" lon="10.69225969370605"><ele>216.99999999999997</ele><time>2026-05-03T10:24:53.001Z</time></trkpt><trkpt lat="43.146441735206544" lon="10.692163404305191"><ele>217.0</ele><time>2026-05-03T10:24:56.001Z</time></trkpt><trkpt lat="43.14648803333123" lon="10.69207784571564"><ele>216.99999999999997</ele><time>2026-05-03T10:24:59.001Z</time></trkpt><trkpt lat="43.146528751415964" lon="10.69199875745605"><ele>217.0</ele><time>2026-05-03T10:25:02Z</time></trkpt><trkpt lat="43.146568863484596" lon="10.691914824839733"><ele>217.0</ele><time>2026-05-03T10:25:05Z</time></trkpt><trkpt lat="43.146620348436194" lon="10.69181126387388"><ele>217.0</ele><time>2026-05-03T10:25:07Z</time></trkpt><trkpt lat="43.14663668892948" lon="10.691710294673697"><ele>216.99999999999997</ele><time>2026-05-03T10:25:09Z</time></trkpt><trkpt lat="43.14664944592205" lon="10.69160011200801"><ele>217.0</ele><time>2026-05-03T10:25:11Z</time></trkpt><trkpt lat="43.14669786509017" lon="10.69151449501598"><ele>215.66666666666666</ele><time>2026-05-03T10:25:14Z</time></trkpt><trkpt lat="43.14673276159863" lon="10.691390919224238"><ele>214.33333333333331</ele><time>2026-05-03T10:25:17Z</time></trkpt><trkpt lat="43.1467023550059" lon="10.691299561345682"><ele>213.0</ele><time>2026-05-03T10:25:19Z</time></trkpt><trkpt lat="43.14664370312221" lon="10.691211942254109"><ele>211.66666666666669</ele><time>2026-05-03T10:25:21Z</time></trkpt><trkpt lat="43.14661659634567" lon="10.691098737975176"><ele>210.33333333333334</ele><time>2026-05-03T10:25:23Z</time></trkpt><trkpt lat="43.146588578489975" lon="10.690989011147657"><ele>209.0</ele><time>2026-05-03T10:25:25Z</time></trkpt><trkpt lat="43.146580197856736" lon="10.69085701119766"><ele>208.33333333333334</ele><time>2026-05-03T10:25:27Z</time></trkpt><trkpt lat="43.14658199216541" lon="10.690744442802734"><ele>207.66666666666669</ele><time>2026-05-03T10:25:29Z</time></trkpt><trkpt lat="43.14656913881918" lon="10.690637476828158"><ele>207.0</ele><time>2026-05-03T10:25:32Z</time></trkpt><trkpt lat="43.14658463011427" lon="10.690523026870839"><ele>206.33333333333331</ele><time>2026-05-03T10:25:34Z</time></trkpt><trkpt lat="43.14657337557096" lon="10.690382205289541"><ele>205.66666666666666</ele><time>2026-05-03T10:25:36Z</time></trkpt><trkpt lat="43.14656108725925" lon="10.69027214954965"><ele>205.0</ele><time>2026-05-03T10:25:37Z</time></trkpt><trkpt lat="43.14655970536905" lon="10.690159450116163"><ele>204.4</ele><time>2026-05-03T10:25:38Z</time></trkpt><trkpt lat="43.146548094237836" lon="10.69000165100642"><ele>203.8</ele><time>2026-05-03T10:25:40Z</time></trkpt><trkpt lat="43.14661371561049" lon="10.689883587081734"><ele>203.2</ele><time>2026-05-03T10:25:42Z</time></trkpt><trkpt lat="43.14666448107822" lon="10.689819000658384"><ele>202.6</ele><time>2026-05-03T10:25:43Z</time></trkpt><trkpt lat="43.14676673533544" lon="10.68969663862446"><ele>202.0</ele><time>2026-05-03T10:25:45Z</time></trkpt><trkpt lat="43.14683648952132" lon="10.689569445904054"><ele>202.0</ele><time>2026-05-03T10:25:47Z</time></trkpt><trkpt lat="43.14689432330331" lon="10.68946511929824"><ele>202.0</ele><time>2026-05-03T10:25:49Z</time></trkpt><trkpt lat="43.146917195855146" lon="10.68933159257784"><ele>202.0</ele><time>2026-05-03T10:25:52Z</time></trkpt><trkpt lat="43.146956006821846" lon="10.689186582655276"><ele>202.0</ele><time>2026-05-03T10:25:54Z</time></trkpt><trkpt lat="43.1470223590028" lon="10.689048854984899"><ele>202.0</ele><time>2026-05-03T10:25:56Z</time></trkpt><trkpt lat="43.1470803283361" lon="10.688960883674751"><ele>202.99999999999997</ele><time>2026-05-03T10:25:58Z</time></trkpt><trkpt lat="43.14712725924123" lon="10.688862935909004"><ele>204.0</ele><time>2026-05-03T10:26:00Z</time></trkpt><trkpt lat="43.147237598110145" lon="10.688795994083701"><ele>205.0</ele><time>2026-05-03T10:26:02Z</time></trkpt><trkpt lat="43.14729840278289" lon="10.688763291487517"><ele>206.0</ele><time>2026-05-03T10:26:03.001Z</time></trkpt><trkpt lat="43.14738065077955" lon="10.68871434286683"><ele>206.99999999999997</ele><time>2026-05-03T10:26:05.001Z</time></trkpt><trkpt lat="43.147447030387426" lon="10.688693003146645"><ele>208.0</ele><time>2026-05-03T10:26:06.001Z</time></trkpt><trkpt lat="43.14754521586577" lon="10.688626037982127"><ele>208.8</ele><time>2026-05-03T10:26:08.001Z</time></trkpt><trkpt lat="43.147668977168856" lon="10.688507765839505"><ele>209.60000000000002</ele><time>2026-05-03T10:26:10.001Z</time></trkpt><trkpt lat="43.14772913550745" lon="10.68846104993965"><ele>210.39999999999998</ele><time>2026-05-03T10:26:11.001Z</time></trkpt><trkpt lat="43.14778487178902" lon="10.688397814221043"><ele>211.2</ele><time>2026-05-03T10:26:12.001Z</time></trkpt><trkpt lat="43.14789189308292" lon="10.688290639644235"><ele>212.0</ele><time>2026-05-03T10:26:14.001Z</time></trkpt><trkpt lat="43.14796826536636" lon="10.68824547766176"><ele>212.00000000000003</ele><time>2026-05-03T10:26:15.001Z</time></trkpt><trkpt lat="43.148026712702816" lon="10.688189013773114"><ele>212.0</ele><time>2026-05-03T10:26:16.001Z</time></trkpt><trkpt lat="43.14808482562275" lon="10.688131986655252"><ele>212.0</ele><time>2026-05-03T10:26:17.001Z</time></trkpt><trkpt lat="43.1481442601773" lon="10.688053813784354"><ele>212.0</ele><time>2026-05-03T10:26:21.001Z</time></trkpt><trkpt lat="43.1481943899596" lon="10.68791022707311"><ele>212.00000000000003</ele><time>2026-05-03T10:26:23.001Z</time></trkpt><trkpt lat="43.14822853634243" lon="10.687836428266854"><ele>212.0</ele><time>2026-05-03T10:26:26.001Z</time></trkpt><trkpt lat="43.148267355565935" lon="10.687762237311409"><ele>213.2</ele><time>2026-05-03T10:26:27.001Z</time></trkpt><trkpt lat="43.14831111023104" lon="10.687692180105481"><ele>214.39999999999998</ele><time>2026-05-03T10:26:28.001Z</time></trkpt><trkpt lat="43.14834956349104" lon="10.687579358154666"><ele>215.60000000000002</ele><time>2026-05-03T10:26:30.001Z</time></trkpt><trkpt lat="43.14838609923484" lon="10.687464967804654"><ele>216.8</ele><time>2026-05-03T10:26:32.001Z</time></trkpt><trkpt lat="43.148421743530406" lon="10.687342647572018"><ele>218.0</ele><time>2026-05-03T10:26:34.001Z</time></trkpt><trkpt lat="43.14848995729238" lon="10.68722965059221"><ele>218.00000000000003</ele><time>2026-05-03T10:26:36.001Z</time></trkpt><trkpt lat="43.148540735463804" lon="10.687168761726218"><ele>218.0</ele><time>2026-05-03T10:26:37.001Z</time></trkpt><trkpt lat="43.14859629065176" lon="10.687090250674865"><ele>218.0</ele><time>2026-05-03T10:26:38.001Z</time></trkpt><trkpt lat="43.148640082456346" lon="10.68699565732573"><ele>218.0</ele><time>2026-05-03T10:26:39.001Z</time></trkpt><trkpt lat="43.14869101927473" lon="10.686915358869223"><ele>218.00000000000003</ele><time>2026-05-03T10:26:40.001Z</time></trkpt><trkpt lat="43.148714288116665" lon="10.68681512524577"><ele>218.0</ele><time>2026-05-03T10:26:41.001Z</time></trkpt><trkpt lat="43.14876150116142" lon="10.6867301106628"><ele>218.16666666666669</ele><time>2026-05-03T10:26:42.001Z</time></trkpt><trkpt lat="43.148810484932426" lon="10.686657251303584"><ele>218.33333333333334</ele><time>2026-05-03T10:26:43.001Z</time></trkpt><trkpt lat="43.148867757337754" lon="10.686592384731393"><ele>218.5</ele><time>2026-05-03T10:26:44.001Z</time></trkpt><trkpt lat="43.14890470862101" lon="10.686517345076545"><ele>218.66666666666669</ele><time>2026-05-03T10:26:45.001Z</time></trkpt><trkpt lat="43.14894764157926" lon="10.686367180976552"><ele>218.83333333333334</ele><time>2026-05-03T10:26:47.001Z</time></trkpt><trkpt lat="43.14896147176977" lon="10.686269778706032"><ele>219.0</ele><time>2026-05-03T10:26:48.001Z</time></trkpt><trkpt lat="43.14901166509267" lon="10.686125969104562"><ele>221.33333333333334</ele><time>2026-05-03T10:26:50.001Z</time></trkpt><trkpt lat="43.14905569048389" lon="10.686061594109525"><ele>223.66666666666669</ele><time>2026-05-03T10:26:51.001Z</time></trkpt><trkpt lat="43.14910691638974" lon="10.685973553754426"><ele>226.0</ele><time>2026-05-03T10:26:52.001Z</time></trkpt><trkpt lat="43.14915766176567" lon="10.685887517908132"><ele>228.33333333333334</ele><time>2026-05-03T10:26:53.001Z</time></trkpt><trkpt lat="43.14920733804458" lon="10.685770327364924"><ele>230.66666666666669</ele><time>2026-05-03T10:26:54.001Z</time></trkpt><trkpt lat="43.149266846327386" lon="10.685703765384895"><ele>233.0</ele><time>2026-05-03T10:26:55.001Z</time></trkpt><trkpt lat="43.14933153329485" lon="10.685565117488682"><ele>233.00000000000003</ele><time>2026-05-03T10:26:57.001Z</time></trkpt><trkpt lat="43.14941093283171" lon="10.685435117715304"><ele>233.0</ele><time>2026-05-03T10:26:59.001Z</time></trkpt><trkpt lat="43.14945664467947" lon="10.685362915544724"><ele>233.0</ele><time>2026-05-03T10:27:00.001Z</time></trkpt><trkpt lat="43.149499547388274" lon="10.685276826813201"><ele>233.0</ele><time>2026-05-03T10:27:01.001Z</time></trkpt><trkpt lat="43.14954530599008" lon="10.68518491221908"><ele>233.00000000000003</ele><time>2026-05-03T10:27:02.001Z</time></trkpt><trkpt lat="43.149590663272484" lon="10.685085546875753"><ele>233.0</ele><time>2026-05-03T10:27:03.001Z</time></trkpt><trkpt lat="43.14963308028519" lon="10.684973278535168"><ele>235.0</ele><time>2026-05-03T10:27:04.001Z</time></trkpt><trkpt lat="43.149691777020934" lon="10.684858882336055"><ele>237.0</ele><time>2026-05-03T10:27:05.001Z</time></trkpt><trkpt lat="43.149726850454" lon="10.684741857678619"><ele>239.0</ele><time>2026-05-03T10:27:06Z</time></trkpt><trkpt lat="43.14972006065759" lon="10.684610006934786"><ele>241.0</ele><time>2026-05-03T10:27:07Z</time></trkpt><trkpt lat="43.14974778259107" lon="10.684497091251028"><ele>243.0</ele><time>2026-05-03T10:27:08Z</time></trkpt><trkpt lat="43.14975952950303" lon="10.68439581383118"><ele>243.83333333333334</ele><time>2026-05-03T10:27:09Z</time></trkpt><trkpt lat="43.14975696122562" lon="10.684290900263655"><ele>244.66666666666669</ele><time>2026-05-03T10:27:10Z</time></trkpt><trkpt lat="43.14976974714711" lon="10.684206097935657"><ele>245.5</ele><time>2026-05-03T10:27:11Z</time></trkpt><trkpt lat="43.149779021651256" lon="10.68410360663912"><ele>246.33333333333334</ele><time>2026-05-03T10:27:13Z</time></trkpt><trkpt lat="43.14973690785214" lon="10.683987165175784"><ele>247.16666666666669</ele><time>2026-05-03T10:27:15Z</time></trkpt><trkpt lat="43.14966564482044" lon="10.683893249333627"><ele>248.0</ele><time>2026-05-03T10:27:17Z</time></trkpt><trkpt lat="43.14962823122869" lon="10.683788010165976"><ele>248.0</ele><time>2026-05-03T10:27:19Z</time></trkpt><trkpt lat="43.149660840821056" lon="10.683624375711798"><ele>248.0</ele><time>2026-05-03T10:27:21Z</time></trkpt><trkpt lat="43.14969119780788" lon="10.683538288455809"><ele>248.0</ele><time>2026-05-03T10:27:22Z</time></trkpt><trkpt lat="43.14977187881014" lon="10.68344035277038"><ele>248.0</ele><time>2026-05-03T10:27:24Z</time></trkpt><trkpt lat="43.149883651874404" lon="10.683466047026746"><ele>248.0</ele><time>2026-05-03T10:27:26Z</time></trkpt><trkpt lat="43.14999136913046" lon="10.683508640749519"><ele>251.0</ele><time>2026-05-03T10:27:28Z</time></trkpt><trkpt lat="43.15005513027895" lon="10.683529922344034"><ele>254.0</ele><time>2026-05-03T10:27:29Z</time></trkpt><trkpt lat="43.15015626329791" lon="10.683545155468831"><ele>257.0</ele><time>2026-05-03T10:27:31Z</time></trkpt><trkpt lat="43.15023907118461" lon="10.68340954529877"><ele>260.0</ele><time>2026-05-03T10:27:33Z</time></trkpt><trkpt lat="43.15023839035147" lon="10.68330246868573"><ele>263.0</ele><time>2026-05-03T10:27:34Z</time></trkpt><trkpt lat="43.150236529454254" lon="10.683195142140573"><ele>263.0</ele><time>2026-05-03T10:27:35Z</time></trkpt><trkpt lat="43.15023436062361" lon="10.683094636346084"><ele>263.0</ele><time>2026-05-03T10:27:36Z</time></trkpt><trkpt lat="43.150231635486406" lon="10.683006625633857"><ele>263.0</ele><time>2026-05-03T10:27:37Z</time></trkpt><trkpt lat="43.15022856125291" lon="10.682907340510662"><ele>263.0</ele><time>2026-05-03T10:27:38Z</time></trkpt><trkpt lat="43.150225829124295" lon="10.682789492496275"><ele>263.0</ele><time>2026-05-03T10:27:39Z</time></trkpt><trkpt lat="43.15022575085572" lon="10.682675891636055"><ele>263.0</ele><time>2026-05-03T10:27:40Z</time></trkpt><trkpt lat="43.15022705672255" lon="10.68256709207761"><ele>264.0</ele><time>2026-05-03T10:27:41Z</time></trkpt><trkpt lat="43.150230765784386" lon="10.682463624511632"><ele>265.0</ele><time>2026-05-03T10:27:42Z</time></trkpt><trkpt lat="43.150219442455416" lon="10.682353500355472"><ele>266.0</ele><time>2026-05-03T10:27:43Z</time></trkpt><trkpt lat="43.150230203034475" lon="10.682248562806157"><ele>267.0</ele><time>2026-05-03T10:27:44Z</time></trkpt><trkpt lat="43.15023680540202" lon="10.6821422589067"><ele>268.0</ele><time>2026-05-03T10:27:45Z</time></trkpt><trkpt lat="43.150250750229766" lon="10.682015242673081"><ele>269.0</ele><time>2026-05-03T10:27:46Z</time></trkpt><trkpt lat="43.15026439362929" lon="10.6819054874535"><ele>269.83333333333337</ele><time>2026-05-03T10:27:47Z</time></trkpt><trkpt lat="43.15027390251877" lon="10.681804879334214"><ele>270.6666666666667</ele><time>2026-05-03T10:27:48Z</time></trkpt><trkpt lat="43.15028577995606" lon="10.68170072496218"><ele>271.5</ele><time>2026-05-03T10:27:49Z</time></trkpt><trkpt lat="43.15029864719309" lon="10.681592104751994"><ele>272.3333333333333</ele><time>2026-05-03T10:27:50Z</time></trkpt><trkpt lat="43.15031025420807" lon="10.681483925022496"><ele>273.16666666666663</ele><time>2026-05-03T10:27:51Z</time></trkpt><trkpt lat="43.15032072044334" lon="10.681371305771508"><ele>274.0</ele><time>2026-05-03T10:27:52Z</time></trkpt><trkpt lat="43.1503335552531" lon="10.681260908545728"><ele>274.0</ele><time>2026-05-03T10:27:53Z</time></trkpt><trkpt lat="43.15034795943392" lon="10.681152079317988"><ele>274.0</ele><time>2026-05-03T10:27:54Z</time></trkpt><trkpt lat="43.1503562221806" lon="10.681045356029522"><ele>274.0</ele><time>2026-05-03T10:27:55Z</time></trkpt><trkpt lat="43.150366501276295" lon="10.680938616512579"><ele>274.0</ele><time>2026-05-03T10:27:56Z</time></trkpt><trkpt lat="43.150372153173564" lon="10.680835749465329"><ele>274.0</ele><time>2026-05-03T10:27:57Z</time></trkpt><trkpt lat="43.150382141684915" lon="10.68072154199379"><ele>274.0</ele><time>2026-05-03T10:27:58Z</time></trkpt><trkpt lat="43.15038893066348" lon="10.680613986393455"><ele>275.0</ele><time>2026-05-03T10:27:59Z</time></trkpt><trkpt lat="43.150395072587" lon="10.68049384256809"><ele>276.0</ele><time>2026-05-03T10:28:00Z</time></trkpt><trkpt lat="43.15040363869513" lon="10.680366072868367"><ele>277.0</ele><time>2026-05-03T10:28:01Z</time></trkpt><trkpt lat="43.150406570058536" lon="10.680247978808929"><ele>278.0</ele><time>2026-05-03T10:28:02Z</time></trkpt><trkpt lat="43.15042251383618" lon="10.680137081721737"><ele>279.0</ele><time>2026-05-03T10:28:03Z</time></trkpt><trkpt lat="43.150445957306715" lon="10.68002725648758"><ele>280.0</ele><time>2026-05-03T10:28:04Z</time></trkpt><trkpt lat="43.15048716370311" lon="10.679904184162574"><ele>280.5</ele><time>2026-05-03T10:28:05Z</time></trkpt><trkpt lat="43.15054637366044" lon="10.679806093665507"><ele>281.0</ele><time>2026-05-03T10:28:06Z</time></trkpt><trkpt lat="43.15061790839176" lon="10.67972366304217"><ele>281.5</ele><time>2026-05-03T10:28:07Z</time></trkpt><trkpt lat="43.15070382427305" lon="10.679693102033362"><ele>282.0</ele><time>2026-05-03T10:28:08Z</time></trkpt><trkpt lat="43.150786848921996" lon="10.679636109705223"><ele>282.5</ele><time>2026-05-03T10:28:09Z</time></trkpt><trkpt lat="43.15085120723136" lon="10.679573315529241"><ele>283.0</ele><time>2026-05-03T10:28:10Z</time></trkpt><trkpt lat="43.150921318568095" lon="10.679535931697057"><ele>285.5</ele><time>2026-05-03T10:28:11Z</time></trkpt><trkpt lat="43.1509854565758" lon="10.67949481710981"><ele>288.0</ele><time>2026-05-03T10:28:12Z</time></trkpt><trkpt lat="43.1510486629919" lon="10.67945255418503"><ele>290.5</ele><time>2026-05-03T10:28:13.001Z</time></trkpt><trkpt lat="43.151116164771054" lon="10.679353842936644"><ele>293.0</ele><time>2026-05-03T10:28:15.001Z</time></trkpt><trkpt lat="43.151118996944824" lon="10.679266760552386"><ele>295.5</ele><time>2026-05-03T10:28:16.001Z</time></trkpt><trkpt lat="43.15110808846238" lon="10.679137032790905"><ele>298.0</ele><time>2026-05-03T10:28:17.001Z</time></trkpt><trkpt lat="43.15110488459066" lon="10.679005215233165"><ele>298.66666666666663</ele><time>2026-05-03T10:28:18.001Z</time></trkpt><trkpt lat="43.151118013496735" lon="10.678897642819862"><ele>299.3333333333333</ele><time>2026-05-03T10:28:19.001Z</time></trkpt><trkpt lat="43.1511427696469" lon="10.678812984495341"><ele>300.0</ele><time>2026-05-03T10:28:20.001Z</time></trkpt><trkpt lat="43.15118021015142" lon="10.678728739473605"><ele>300.6666666666667</ele><time>2026-05-03T10:28:21.001Z</time></trkpt><trkpt lat="43.15121899457117" lon="10.67864901287209"><ele>301.33333333333337</ele><time>2026-05-03T10:28:23.001Z</time></trkpt><trkpt lat="43.151280854933994" lon="10.678521311930794"><ele>302.0</ele><time>2026-05-03T10:28:27.001Z</time></trkpt><trkpt lat="43.15131252826304" lon="10.678442074656322"><ele>302.2</ele><time>2026-05-03T10:28:28.001Z</time></trkpt><trkpt lat="43.15135782462339" lon="10.678324009668335"><ele>302.4</ele><time>2026-05-03T10:28:30.001Z</time></trkpt><trkpt lat="43.15141831328803" lon="10.678157452433238"><ele>302.6</ele><time>2026-05-03T10:28:32.001Z</time></trkpt><trkpt lat="43.151450191227035" lon="10.678067982842363"><ele>302.8</ele><time>2026-05-03T10:28:33.001Z</time></trkpt><trkpt lat="43.15149762228143" lon="10.677934861425275"><ele>303.0</ele><time>2026-05-03T10:28:35.001Z</time></trkpt><trkpt lat="43.15154846294363" lon="10.677792170486123"><ele>305.7142857142857</ele><time>2026-05-03T10:28:37.001Z</time></trkpt><trkpt lat="43.151578459727155" lon="10.67770798062208"><ele>308.42857142857144</ele><time>2026-05-03T10:28:38.001Z</time></trkpt><trkpt lat="43.151611730934924" lon="10.677614600647168"><ele>311.1428571428571</ele><time>2026-05-03T10:28:39.001Z</time></trkpt><trkpt lat="43.15164166567919" lon="10.677530584883959"><ele>313.8571428571429</ele><time>2026-05-03T10:28:40.001Z</time></trkpt><trkpt lat="43.15167266777927" lon="10.677444727450093"><ele>316.57142857142856</ele><time>2026-05-03T10:28:41.001Z</time></trkpt><trkpt lat="43.15170955487882" lon="10.677347442512986"><ele>319.2857142857143</ele><time>2026-05-03T10:28:42.001Z</time></trkpt><trkpt lat="43.151747845223234" lon="10.67724892798996"><ele>322.0</ele><time>2026-05-03T10:28:43.001Z</time></trkpt><trkpt lat="43.15176976336703" lon="10.677145958308397"><ele>322.0</ele><time>2026-05-03T10:28:44.001Z</time></trkpt><trkpt lat="43.151806553393094" lon="10.67704958953603"><ele>322.0</ele><time>2026-05-03T10:28:45.001Z</time></trkpt><trkpt lat="43.15183679443105" lon="10.676952287360782"><ele>322.0</ele><time>2026-05-03T10:28:46.001Z</time></trkpt><trkpt lat="43.1518644780148" lon="10.676866329874873"><ele>322.0</ele><time>2026-05-03T10:28:47.001Z</time></trkpt><trkpt lat="43.15185713073991" lon="10.676759919694812"><ele>322.0</ele><time>2026-05-03T10:28:48.001Z</time></trkpt><trkpt lat="43.15184018830726" lon="10.676637764379837"><ele>322.0</ele><time>2026-05-03T10:28:49.001Z</time></trkpt><trkpt lat="43.15182392259199" lon="10.676524866542879"><ele>323.16666666666663</ele><time>2026-05-03T10:28:50.001Z</time></trkpt><trkpt lat="43.15180457458813" lon="10.676405245374216"><ele>324.3333333333333</ele><time>2026-05-03T10:28:51.001Z</time></trkpt><trkpt lat="43.15178316375433" lon="10.67629809133663"><ele>325.5</ele><time>2026-05-03T10:28:52.001Z</time></trkpt><trkpt lat="43.15176051164812" lon="10.676193129753944"><ele>326.6666666666667</ele><time>2026-05-03T10:28:53.001Z</time></trkpt><trkpt lat="43.15173714461158" lon="10.676093671122146"><ele>327.83333333333337</ele><time>2026-05-03T10:28:54.001Z</time></trkpt><trkpt lat="43.15170525264891" lon="10.675957336189787"><ele>329.0</ele><time>2026-05-03T10:28:56.001Z</time></trkpt><trkpt lat="43.151682196927744" lon="10.675858775167693"><ele>329.0</ele><time>2026-05-03T10:28:58.001Z</time></trkpt><trkpt lat="43.15166131726945" lon="10.675753944959114"><ele>329.0</ele><time>2026-05-03T10:29:00.001Z</time></trkpt><trkpt lat="43.15170740367579" lon="10.675690421018354"><ele>329.0</ele><time>2026-05-03T10:29:03.001Z</time></trkpt><trkpt lat="43.15175155455517" lon="10.675833518486872"><ele>329.0</ele><time>2026-05-03T10:29:05.001Z</time></trkpt><trkpt lat="43.15178622161595" lon="10.675960420596972"><ele>329.0</ele><time>2026-05-03T10:29:06.001Z</time></trkpt><trkpt lat="43.151813019323995" lon="10.6760788304542"><ele>329.0</ele><time>2026-05-03T10:29:07.001Z</time></trkpt><trkpt lat="43.151848574404646" lon="10.676195537993278"><ele>329.0</ele><time>2026-05-03T10:29:08.001Z</time></trkpt><trkpt lat="43.15190273207604" lon="10.676318747337216"><ele>329.0</ele><time>2026-05-03T10:29:09.001Z</time></trkpt><trkpt lat="43.15197330686427" lon="10.676404833678772"><ele>329.0</ele><time>2026-05-03T10:29:10.001Z</time></trkpt><trkpt lat="43.152025591204925" lon="10.676475289164978"><ele>329.0</ele><time>2026-05-03T10:29:11.001Z</time></trkpt><trkpt lat="43.152086519137356" lon="10.676531615774115"><ele>329.0</ele><time>2026-05-03T10:29:12Z</time></trkpt><trkpt lat="43.15216211906809" lon="10.676584762044353"><ele>329.0</ele><time>2026-05-03T10:29:13Z</time></trkpt><trkpt lat="43.15224470184223" lon="10.676626186640421"><ele>329.0</ele><time>2026-05-03T10:29:14Z</time></trkpt><trkpt lat="43.15233356539787" lon="10.676659683766259"><ele>329.0</ele><time>2026-05-03T10:29:15Z</time></trkpt><trkpt lat="43.15242219199283" lon="10.67669017234079"><ele>329.0</ele><time>2026-05-03T10:29:16Z</time></trkpt><trkpt lat="43.15251314904752" lon="10.676717309752473"><ele>329.0</ele><time>2026-05-03T10:29:17Z</time></trkpt><trkpt lat="43.152606314527674" lon="10.676751911128694"><ele>329.0</ele><time>2026-05-03T10:29:18Z</time></trkpt><trkpt lat="43.15269997395259" lon="10.676787787134487"><ele>328.0</ele><time>2026-05-03T10:29:19Z</time></trkpt><trkpt lat="43.152791726677776" lon="10.676822705102607"><ele>327.0</ele><time>2026-05-03T10:29:20Z</time></trkpt><trkpt lat="43.15287912931875" lon="10.676865267504978"><ele>326.0</ele><time>2026-05-03T10:29:21Z</time></trkpt><trkpt lat="43.15296328332516" lon="10.676920603495436"><ele>325.0</ele><time>2026-05-03T10:29:22Z</time></trkpt><trkpt lat="43.15305044557131" lon="10.676989472555228"><ele>324.0</ele><time>2026-05-03T10:29:23Z</time></trkpt><trkpt lat="43.15312895410602" lon="10.67707485722545"><ele>326.2</ele><time>2026-05-03T10:29:24Z</time></trkpt><trkpt lat="43.15320760583255" lon="10.677166942333676"><ele>328.4</ele><time>2026-05-03T10:29:25Z</time></trkpt><trkpt lat="43.15328713000536" lon="10.677262828843803"><ele>330.6</ele><time>2026-05-03T10:29:26Z</time></trkpt><trkpt lat="43.153374664503914" lon="10.677348613616617"><ele>332.8</ele><time>2026-05-03T10:29:27Z</time></trkpt><trkpt lat="43.153470034717834" lon="10.677419053980593"><ele>335.0</ele><time>2026-05-03T10:29:28Z</time></trkpt><trkpt lat="43.153566182531996" lon="10.677465177494886"><ele>335.0</ele><time>2026-05-03T10:29:29Z</time></trkpt><trkpt lat="43.15366357707451" lon="10.677483937106178"><ele>335.0</ele><time>2026-05-03T10:29:30Z</time></trkpt><trkpt lat="43.15377285859562" lon="10.677481914334978"><ele>335.0</ele><time>2026-05-03T10:29:31Z</time></trkpt><trkpt lat="43.15388000745932" lon="10.677455516209651"><ele>335.0</ele><time>2026-05-03T10:29:32Z</time></trkpt><trkpt lat="43.15399032461973" lon="10.677399165951906"><ele>335.0</ele><time>2026-05-03T10:29:33Z</time></trkpt><trkpt lat="43.15409788692215" lon="10.677316793555592"><ele>336.0</ele><time>2026-05-03T10:29:34Z</time></trkpt><trkpt lat="43.154193717369445" lon="10.677213734007898"><ele>337.0</ele><time>2026-05-03T10:29:35Z</time></trkpt><trkpt lat="43.154269908618076" lon="10.677111691285125"><ele>338.0</ele><time>2026-05-03T10:29:36Z</time></trkpt><trkpt lat="43.154351806657665" lon="10.67699885189207"><ele>339.0</ele><time>2026-05-03T10:29:37Z</time></trkpt><trkpt lat="43.15441823851891" lon="10.676896592324391"><ele>340.0</ele><time>2026-05-03T10:29:38Z</time></trkpt><trkpt lat="43.15447140772331" lon="10.676818646524008"><ele>340.2</ele><time>2026-05-03T10:29:39Z</time></trkpt><trkpt lat="43.154568659803424" lon="10.67671051212389"><ele>340.4</ele><time>2026-05-03T10:29:41Z</time></trkpt><trkpt lat="43.154670483660766" lon="10.676641675939372"><ele>340.6</ele><time>2026-05-03T10:29:43Z</time></trkpt><trkpt lat="43.15473189868474" lon="10.676610139976786"><ele>340.8</ele><time>2026-05-03T10:29:44Z</time></trkpt><trkpt lat="43.15481250527156" lon="10.676578339537132"><ele>341.0</ele><time>2026-05-03T10:29:45Z</time></trkpt><trkpt lat="43.15491263993674" lon="10.676562683528825"><ele>341.0</ele><time>2026-05-03T10:29:46Z</time></trkpt><trkpt lat="43.1550287320238" lon="10.676563934982289"><ele>341.0</ele><time>2026-05-03T10:29:47Z</time></trkpt><trkpt lat="43.15514825803008" lon="10.676576643305129"><ele>341.0</ele><time>2026-05-03T10:29:48Z</time></trkpt><trkpt lat="43.15528138914253" lon="10.676594001257097"><ele>341.0</ele><time>2026-05-03T10:29:49Z</time></trkpt><trkpt lat="43.155412554421034" lon="10.6766132146"><ele>341.0</ele><time>2026-05-03T10:29:50Z</time></trkpt><trkpt lat="43.155549343656446" lon="10.676634994365724"><ele>341.0</ele><time>2026-05-03T10:29:51Z</time></trkpt><trkpt lat="43.15569565792326" lon="10.67666213764563"><ele>341.0</ele><time>2026-05-03T10:29:52Z</time></trkpt><trkpt lat="43.15583492957047" lon="10.676689860100707"><ele>341.0</ele><time>2026-05-03T10:29:53Z</time></trkpt><trkpt lat="43.155969373546974" lon="10.67671471695037"><ele>340.8</ele><time>2026-05-03T10:29:54Z</time></trkpt><trkpt lat="43.15609369838305" lon="10.676733876372603"><ele>340.6</ele><time>2026-05-03T10:29:55Z</time></trkpt><trkpt lat="43.156208443779995" lon="10.676751051317195"><ele>340.4</ele><time>2026-05-03T10:29:56Z</time></trkpt><trkpt lat="43.15630220043419" lon="10.676764652248586"><ele>340.2</ele><time>2026-05-03T10:29:57Z</time></trkpt><trkpt lat="43.15637735839052" lon="10.67677636348796"><ele>340.0</ele><time>2026-05-03T10:29:58Z</time></trkpt><trkpt lat="43.1564686238578" lon="10.676790640773202"><ele>340.0</ele><time>2026-05-03T10:30:00Z</time></trkpt><trkpt lat="43.15653838003714" lon="10.67679824631444"><ele>340.0</ele><time>2026-05-03T10:36:25.001Z</time></trkpt><trkpt lat="43.15662043810974" lon="10.676774611511886"><ele>340.0</ele><time>2026-05-03T10:36:27.001Z</time></trkpt><trkpt lat="43.156726533339665" lon="10.67668614486263"><ele>340.0</ele><time>2026-05-03T10:36:29.001Z</time></trkpt><trkpt lat="43.156801893543914" lon="10.676615932910536"><ele>340.0</ele><time>2026-05-03T10:36:30.001Z</time></trkpt><trkpt lat="43.156873643657505" lon="10.676536309479381"><ele>340.0</ele><time>2026-05-03T10:36:31.001Z</time></trkpt><trkpt lat="43.15694436759268" lon="10.676433386061538"><ele>340.0</ele><time>2026-05-03T10:36:32.001Z</time></trkpt><trkpt lat="43.1570032076875" lon="10.676290108742444"><ele>340.0</ele><time>2026-05-03T10:36:33.001Z</time></trkpt><trkpt lat="43.15703628276947" lon="10.676136916128925"><ele>340.0</ele><time>2026-05-03T10:36:34.001Z</time></trkpt><trkpt lat="43.15705316819252" lon="10.675950604667106"><ele>343.75</ele><time>2026-05-03T10:36:35.001Z</time></trkpt><trkpt lat="43.15705638375364" lon="10.675775502031671"><ele>347.5</ele><time>2026-05-03T10:36:36.001Z</time></trkpt><trkpt lat="43.15706648616433" lon="10.675606417345698"><ele>351.25</ele><time>2026-05-03T10:36:37.001Z</time></trkpt><trkpt lat="43.157072845702324" lon="10.675440855514141"><ele>355.0</ele><time>2026-05-03T10:36:38.001Z</time></trkpt><trkpt lat="43.15710408437922" lon="10.675281564524214"><ele>355.4</ele><time>2026-05-03T10:36:39.001Z</time></trkpt><trkpt lat="43.157168553508164" lon="10.675124907204703"><ele>355.8</ele><time>2026-05-03T10:36:40.001Z</time></trkpt><trkpt lat="43.157237579606" lon="10.67501045140229"><ele>356.20000000000005</ele><time>2026-05-03T10:36:41.001Z</time></trkpt><trkpt lat="43.157324779269366" lon="10.674934230689896"><ele>356.6</ele><time>2026-05-03T10:36:42.001Z</time></trkpt><trkpt lat="43.15742337780949" lon="10.674889786154104"><ele>357.0</ele><time>2026-05-03T10:36:43.001Z</time></trkpt><trkpt lat="43.157523573122965" lon="10.674861532839087"><ele>353.6</ele><time>2026-05-03T10:36:44.001Z</time></trkpt><trkpt lat="43.15763415449597" lon="10.674862875699807"><ele>350.20000000000005</ele><time>2026-05-03T10:36:45.001Z</time></trkpt><trkpt lat="43.15774720472223" lon="10.674872417351134"><ele>346.8</ele><time>2026-05-03T10:36:46.001Z</time></trkpt><trkpt lat="43.157860082801676" lon="10.674883464019668"><ele>343.4</ele><time>2026-05-03T10:36:47.001Z</time></trkpt><trkpt lat="43.15796891907357" lon="10.674912122265802"><ele>340.0</ele><time>2026-05-03T10:36:48.001Z</time></trkpt><trkpt lat="43.15806549964835" lon="10.674976013392088"><ele>340.0</ele><time>2026-05-03T10:36:49.001Z</time></trkpt><trkpt lat="43.158141369785916" lon="10.675062756845046"><ele>340.0</ele><time>2026-05-03T10:36:50.001Z</time></trkpt><trkpt lat="43.158203411823926" lon="10.675171111472798"><ele>340.0</ele><time>2026-05-03T10:36:51.001Z</time></trkpt><trkpt lat="43.158275539257716" lon="10.675277769641639"><ele>340.0</ele><time>2026-05-03T10:36:52.001Z</time></trkpt><trkpt lat="43.15834734277626" lon="10.67539071613839"><ele>340.0</ele><time>2026-05-03T10:36:53.001Z</time></trkpt><trkpt lat="43.15842221197563" lon="10.675514129606695"><ele>339.25</ele><time>2026-05-03T10:36:54.001Z</time></trkpt><trkpt lat="43.15849741180423" lon="10.675642123938688"><ele>338.5</ele><time>2026-05-03T10:36:55.001Z</time></trkpt><trkpt lat="43.15857305455133" lon="10.675775085914701"><ele>337.75</ele><time>2026-05-03T10:36:56.001Z</time></trkpt><trkpt lat="43.158649467531006" lon="10.67590206810298"><ele>337.0</ele><time>2026-05-03T10:36:57.001Z</time></trkpt><trkpt lat="43.15872574288677" lon="10.6760243500786"><ele>338.5</ele><time>2026-05-03T10:36:58.001Z</time></trkpt><trkpt lat="43.15880733456103" lon="10.676140625444562"><ele>340.0</ele><time>2026-05-03T10:36:59.001Z</time></trkpt><trkpt lat="43.158895227081274" lon="10.67625262730672"><ele>341.5</ele><time>2026-05-03T10:37:00.001Z</time></trkpt><trkpt lat="43.158991259391186" lon="10.676359056534254"><ele>343.0</ele><time>2026-05-03T10:37:01.001Z</time></trkpt><trkpt lat="43.159092039798274" lon="10.676454161501066"><ele>343.0</ele><time>2026-05-03T10:37:02.001Z</time></trkpt><trkpt lat="43.159197860219024" lon="10.6765531713917"><ele>343.0</ele><time>2026-05-03T10:37:03.001Z</time></trkpt><trkpt lat="43.159300670079084" lon="10.676653968967642"><ele>343.0</ele><time>2026-05-03T10:37:04.001Z</time></trkpt><trkpt lat="43.15940522076213" lon="10.676746657353283"><ele>343.0</ele><time>2026-05-03T10:37:05.001Z</time></trkpt><trkpt lat="43.159503976155094" lon="10.676845827901632"><ele>342.75</ele><time>2026-05-03T10:37:06.001Z</time></trkpt><trkpt lat="43.15960237347328" lon="10.676946276120193"><ele>342.5</ele><time>2026-05-03T10:37:07.001Z</time></trkpt><trkpt lat="43.15970142153981" lon="10.677043063357038"><ele>342.25</ele><time>2026-05-03T10:37:08.001Z</time></trkpt><trkpt lat="43.159799817591626" lon="10.677137334045545"><ele>342.0</ele><time>2026-05-03T10:37:09.001Z</time></trkpt><trkpt lat="43.15989687008348" lon="10.677232467270366"><ele>342.0</ele><time>2026-05-03T10:37:10.001Z</time></trkpt><trkpt lat="43.15999647479294" lon="10.677318247472861"><ele>342.0</ele><time>2026-05-03T10:37:11.001Z</time></trkpt><trkpt lat="43.16009861188145" lon="10.677379110246758"><ele>342.0</ele><time>2026-05-03T10:37:12.001Z</time></trkpt><trkpt lat="43.160211775072504" lon="10.677414841467288"><ele>342.0</ele><time>2026-05-03T10:37:13.001Z</time></trkpt><trkpt lat="43.16032940707699" lon="10.677429185004652"><ele>342.0</ele><time>2026-05-03T10:37:14.001Z</time></trkpt><trkpt lat="43.1604402348617" lon="10.677435832875899"><ele>342.0</ele><time>2026-05-03T10:37:15.001Z</time></trkpt><trkpt lat="43.16054009236317" lon="10.677455512218035"><ele>342.0</ele><time>2026-05-03T10:37:16.001Z</time></trkpt><trkpt lat="43.16064262995872" lon="10.677504425477956"><ele>342.0</ele><time>2026-05-03T10:37:17.001Z</time></trkpt><trkpt lat="43.16073547967392" lon="10.677581709129884"><ele>342.0</ele><time>2026-05-03T10:37:18.001Z</time></trkpt><trkpt lat="43.160810420593094" lon="10.677690119578262"><ele>341.75</ele><time>2026-05-03T10:37:19.001Z</time></trkpt><trkpt lat="43.160863128908396" lon="10.677817919788218"><ele>341.5</ele><time>2026-05-03T10:37:20.001Z</time></trkpt><trkpt lat="43.160902578236474" lon="10.67797017726846"><ele>341.25</ele><time>2026-05-03T10:37:21.001Z</time></trkpt><trkpt lat="43.16092753442062" lon="10.678133928480985"><ele>341.0</ele><time>2026-05-03T10:37:22.001Z</time></trkpt><trkpt lat="43.16094680927594" lon="10.678304935811285"><ele>341.0</ele><time>2026-05-03T10:37:23.001Z</time></trkpt><trkpt lat="43.16098007855407" lon="10.678465974121186"><ele>341.0</ele><time>2026-05-03T10:37:24.001Z</time></trkpt><trkpt lat="43.16103865741536" lon="10.678608321051621"><ele>341.0</ele><time>2026-05-03T10:37:25.001Z</time></trkpt><trkpt lat="43.16111394181156" lon="10.678731142779965"><ele>341.0</ele><time>2026-05-03T10:37:26.001Z</time></trkpt><trkpt lat="43.1612064624681" lon="10.67883077678917"><ele>341.75</ele><time>2026-05-03T10:37:27.001Z</time></trkpt><trkpt lat="43.16131110472467" lon="10.67890364411026"><ele>342.5</ele><time>2026-05-03T10:37:28.001Z</time></trkpt><trkpt lat="43.161426459574606" lon="10.67895270618077"><ele>343.25</ele><time>2026-05-03T10:37:29.001Z</time></trkpt><trkpt lat="43.16155734542526" lon="10.678974458680889"><ele>344.0</ele><time>2026-05-03T10:37:30.001Z</time></trkpt><trkpt lat="43.16169605230025" lon="10.678977487049726"><ele>344.0</ele><time>2026-05-03T10:37:31.001Z</time></trkpt><trkpt lat="43.16182988938436" lon="10.678977298644366"><ele>344.0</ele><time>2026-05-03T10:37:32.001Z</time></trkpt><trkpt lat="43.1619667129681" lon="10.678969395519252"><ele>344.0</ele><time>2026-05-03T10:37:33.001Z</time></trkpt><trkpt lat="43.16210503984784" lon="10.678965181459311"><ele>344.0</ele><time>2026-05-03T10:37:34.001Z</time></trkpt><trkpt lat="43.16223894523476" lon="10.678962394830227"><ele>343.75</ele><time>2026-05-03T10:37:35.001Z</time></trkpt><trkpt lat="43.16237179801213" lon="10.67896254193696"><ele>343.5</ele><time>2026-05-03T10:37:36Z</time></trkpt><trkpt lat="43.162506257877666" lon="10.678983161972274"><ele>343.25</ele><time>2026-05-03T10:37:37Z</time></trkpt><trkpt lat="43.16263609066396" lon="10.679032375278432"><ele>343.0</ele><time>2026-05-03T10:37:38Z</time></trkpt><trkpt lat="43.16276651285604" lon="10.679090736700847"><ele>343.0</ele><time>2026-05-03T10:37:39Z</time></trkpt><trkpt lat="43.16289348199788" lon="10.679170818683748"><ele>343.0</ele><time>2026-05-03T10:37:40Z</time></trkpt><trkpt lat="43.16302233824678" lon="10.679255873621479"><ele>343.0</ele><time>2026-05-03T10:37:41Z</time></trkpt><trkpt lat="43.16315166587806" lon="10.67934417034836"><ele>343.0</ele><time>2026-05-03T10:37:42Z</time></trkpt><trkpt lat="43.16328312653483" lon="10.679430427701151"><ele>342.25</ele><time>2026-05-03T10:37:43Z</time></trkpt><trkpt lat="43.16340547391259" lon="10.679511228900212"><ele>341.5</ele><time>2026-05-03T10:37:44Z</time></trkpt><trkpt lat="43.16352222653158" lon="10.67958349633301"><ele>340.75</ele><time>2026-05-03T10:37:45Z</time></trkpt><trkpt lat="43.16364575796642" lon="10.679640303273846"><ele>340.0</ele><time>2026-05-03T10:37:46Z</time></trkpt><trkpt lat="43.16377635589717" lon="10.679674845979502"><ele>340.0</ele><time>2026-05-03T10:37:47Z</time></trkpt><trkpt lat="43.1639043360747" lon="10.679671904099575"><ele>340.0</ele><time>2026-05-03T10:37:48Z</time></trkpt><trkpt lat="43.16403321848441" lon="10.67963018633103"><ele>340.0</ele><time>2026-05-03T10:37:49Z</time></trkpt><trkpt lat="43.16415863671724" lon="10.679560348334434"><ele>340.0</ele><time>2026-05-03T10:37:50Z</time></trkpt><trkpt lat="43.16428068861307" lon="10.67947028451636"><ele>344.25</ele><time>2026-05-03T10:37:51Z</time></trkpt><trkpt lat="43.16440305998212" lon="10.67936964978985"><ele>348.5</ele><time>2026-05-03T10:37:52Z</time></trkpt><trkpt lat="43.164522527360674" lon="10.679272030239106"><ele>352.75</ele><time>2026-05-03T10:37:53Z</time></trkpt><trkpt lat="43.1646319226973" lon="10.67918159414877"><ele>357.0</ele><time>2026-05-03T10:37:54Z</time></trkpt><trkpt lat="43.16472894682771" lon="10.679076503682195"><ele>357.0</ele><time>2026-05-03T10:37:55Z</time></trkpt><trkpt lat="43.16481402561287" lon="10.678946118932728"><ele>357.0</ele><time>2026-05-03T10:37:56Z</time></trkpt><trkpt lat="43.16488292190424" lon="10.678805617527118"><ele>357.0</ele><time>2026-05-03T10:37:57Z</time></trkpt><trkpt lat="43.164943145498995" lon="10.678671698765447"><ele>357.0</ele><time>2026-05-03T10:37:58Z</time></trkpt><trkpt lat="43.16501431330167" lon="10.678560939472455"><ele>356.20000000000005</ele><time>2026-05-03T10:37:59Z</time></trkpt><trkpt lat="43.16510024263194" lon="10.678487207949859"><ele>355.4</ele><time>2026-05-03T10:38:00Z</time></trkpt><trkpt lat="43.16519598945254" lon="10.678444963589333"><ele>354.6</ele><time>2026-05-03T10:38:01Z</time></trkpt><trkpt lat="43.16529474127073" lon="10.678438215002561"><ele>353.79999999999995</ele><time>2026-05-03T10:38:02Z</time></trkpt><trkpt lat="43.16539054165907" lon="10.678470622955405"><ele>353.0</ele><time>2026-05-03T10:38:03Z</time></trkpt><trkpt lat="43.1654812065408" lon="10.67853413463337"><ele>350.75</ele><time>2026-05-03T10:38:04Z</time></trkpt><trkpt lat="43.16557328046827" lon="10.678603556920338"><ele>348.5</ele><time>2026-05-03T10:38:05Z</time></trkpt><trkpt lat="43.16567427134228" lon="10.678674208526523"><ele>346.25</ele><time>2026-05-03T10:38:06Z</time></trkpt><trkpt lat="43.16578182779104" lon="10.678749580954422"><ele>344.0</ele><time>2026-05-03T10:38:07Z</time></trkpt><trkpt lat="43.1658807588955" lon="10.67883562064428"><ele>344.0</ele><time>2026-05-03T10:38:08Z</time></trkpt><trkpt lat="43.16597056691245" lon="10.678932311255995"><ele>344.0</ele><time>2026-05-03T10:38:09Z</time></trkpt><trkpt lat="43.16605135760106" lon="10.679048470428974"><ele>344.0</ele><time>2026-05-03T10:38:10Z</time></trkpt><trkpt lat="43.16611324120476" lon="10.679186996747454"><ele>344.0</ele><time>2026-05-03T10:38:11Z</time></trkpt><trkpt lat="43.1661476697588" lon="10.6793387331102"><ele>343.4</ele><time>2026-05-03T10:38:12Z</time></trkpt><trkpt lat="43.16616128730978" lon="10.67949269407597"><ele>342.79999999999995</ele><time>2026-05-03T10:38:13Z</time></trkpt><trkpt lat="43.16616067886286" lon="10.679643152064543"><ele>342.20000000000005</ele><time>2026-05-03T10:38:14Z</time></trkpt><trkpt lat="43.166130403603695" lon="10.67978809345269"><ele>341.6</ele><time>2026-05-03T10:38:15Z</time></trkpt><trkpt lat="43.16608662610208" lon="10.679934291590401"><ele>341.0</ele><time>2026-05-03T10:38:16Z</time></trkpt><trkpt lat="43.16604314255063" lon="10.680088179785526"><ele>341.0</ele><time>2026-05-03T10:38:17Z</time></trkpt><trkpt lat="43.16601319707082" lon="10.680259176876575"><ele>341.0</ele><time>2026-05-03T10:38:18Z</time></trkpt><trkpt lat="43.166003076640955" lon="10.680449231439006"><ele>341.0</ele><time>2026-05-03T10:38:19Z</time></trkpt><trkpt lat="43.16601154521051" lon="10.680640732540827"><ele>341.0</ele><time>2026-05-03T10:38:20Z</time></trkpt><trkpt lat="43.16602986195173" lon="10.680828481867668"><ele>340.5</ele><time>2026-05-03T10:38:21Z</time></trkpt><trkpt lat="43.166050659188784" lon="10.68101313417034"><ele>340.0</ele><time>2026-05-03T10:38:22Z</time></trkpt><trkpt lat="43.166075744231755" lon="10.681180603462257"><ele>339.5</ele><time>2026-05-03T10:38:23Z</time></trkpt><trkpt lat="43.16611730117606" lon="10.68133850666872"><ele>339.0</ele><time>2026-05-03T10:38:24Z</time></trkpt><trkpt lat="43.16617427559488" lon="10.681481634142962"><ele>338.0</ele><time>2026-05-03T10:38:25Z</time></trkpt><trkpt lat="43.1662502666995" lon="10.681622411479301"><ele>337.0</ele><time>2026-05-03T10:38:26Z</time></trkpt><trkpt lat="43.166341912199805" lon="10.681751401072855"><ele>336.0</ele><time>2026-05-03T10:38:27Z</time></trkpt><trkpt lat="43.16644511897184" lon="10.68187033165723"><ele>335.0</ele><time>2026-05-03T10:38:28Z</time></trkpt><trkpt lat="43.16655539507803" lon="10.681987151764542"><ele>337.5</ele><time>2026-05-03T10:38:29Z</time></trkpt><trkpt lat="43.166671121298364" lon="10.68210332620267"><ele>340.0</ele><time>2026-05-03T10:38:30Z</time></trkpt><trkpt lat="43.16678180640661" lon="10.682205634041935"><ele>342.5</ele><time>2026-05-03T10:38:31Z</time></trkpt><trkpt lat="43.16688603712226" lon="10.68231570129519"><ele>345.0</ele><time>2026-05-03T10:38:32.001Z</time></trkpt><trkpt lat="43.16697131346274" lon="10.682456688531621"><ele>345.0</ele><time>2026-05-03T10:38:33.001Z</time></trkpt><trkpt lat="43.16703124529504" lon="10.682620347942374"><ele>345.0</ele><time>2026-05-03T10:38:34.001Z</time></trkpt><trkpt lat="43.16708036747222" lon="10.682797094315085"><ele>345.0</ele><time>2026-05-03T10:38:35.001Z</time></trkpt><trkpt lat="43.16712992937791" lon="10.682976245342184"><ele>345.0</ele><time>2026-05-03T10:38:36.001Z</time></trkpt><trkpt lat="43.16717825991167" lon="10.683144442281034"><ele>344.5</ele><time>2026-05-03T10:38:37.001Z</time></trkpt><trkpt lat="43.167227521708796" lon="10.683311703016532"><ele>344.0</ele><time>2026-05-03T10:38:38.001Z</time></trkpt><trkpt lat="43.16727835713962" lon="10.683479143558992"><ele>343.5</ele><time>2026-05-03T10:38:39.001Z</time></trkpt><trkpt lat="43.16732629067204" lon="10.683645318460496"><ele>343.0</ele><time>2026-05-03T10:38:40.001Z</time></trkpt><trkpt lat="43.167382059469766" lon="10.683805847323134"><ele>344.5</ele><time>2026-05-03T10:38:41.001Z</time></trkpt><trkpt lat="43.167456081764826" lon="10.68394840072459"><ele>346.0</ele><time>2026-05-03T10:38:42.001Z</time></trkpt><trkpt lat="43.16755354149078" lon="10.684068116802603"><ele>347.5</ele><time>2026-05-03T10:38:43.001Z</time></trkpt><trkpt lat="43.167673936169464" lon="10.68416338328185"><ele>349.0</ele><time>2026-05-03T10:38:44.001Z</time></trkpt><trkpt lat="43.167803166162" lon="10.68423564489148"><ele>349.0</ele><time>2026-05-03T10:38:45.001Z</time></trkpt><trkpt lat="43.16793434367749" lon="10.684309134809386"><ele>349.0</ele><time>2026-05-03T10:38:46.001Z</time></trkpt><trkpt lat="43.16806954515954" lon="10.684385556123605"><ele>349.0</ele><time>2026-05-03T10:38:47.001Z</time></trkpt><trkpt lat="43.16820617419277" lon="10.684468235843644"><ele>349.0</ele><time>2026-05-03T10:38:48.001Z</time></trkpt><trkpt lat="43.16834310894078" lon="10.684554047353975"><ele>348.0</ele><time>2026-05-03T10:38:49.001Z</time></trkpt><trkpt lat="43.16848031579732" lon="10.684636708842444"><ele>347.0</ele><time>2026-05-03T10:38:50.001Z</time></trkpt><trkpt lat="43.168617085751386" lon="10.68471867137246"><ele>346.0</ele><time>2026-05-03T10:38:51.001Z</time></trkpt><trkpt lat="43.16875037375066" lon="10.684801152559189"><ele>345.0</ele><time>2026-05-03T10:38:52.001Z</time></trkpt><trkpt lat="43.168883572337705" lon="10.6848821316395"><ele>345.0</ele><time>2026-05-03T10:38:53.001Z</time></trkpt><trkpt lat="43.16901238096502" lon="10.68495507769575"><ele>345.0</ele><time>2026-05-03T10:38:54.001Z</time></trkpt><trkpt lat="43.16913519531923" lon="10.685026205905224"><ele>345.0</ele><time>2026-05-03T10:38:55.001Z</time></trkpt><trkpt lat="43.16926027934148" lon="10.685100095496118"><ele>345.0</ele><time>2026-05-03T10:38:56.001Z</time></trkpt><trkpt lat="43.16937756902168" lon="10.685171004787994"><ele>345.0</ele><time>2026-05-03T10:38:57.001Z</time></trkpt><trkpt lat="43.16948447741771" lon="10.685238793877817"><ele>345.0</ele><time>2026-05-03T10:38:58.001Z</time></trkpt><trkpt lat="43.1695821905453" lon="10.685310583888942"><ele>345.0</ele><time>2026-05-03T10:38:59.001Z</time></trkpt><trkpt lat="43.16966972084091" lon="10.685399719251237"><ele>345.0</ele><time>2026-05-03T10:39:00.001Z</time></trkpt><trkpt lat="43.16974298684931" lon="10.685513718103323"><ele>345.0</ele><time>2026-05-03T10:39:01.001Z</time></trkpt><trkpt lat="43.169799511522555" lon="10.685651587450403"><ele>345.0</ele><time>2026-05-03T10:39:02.001Z</time></trkpt><trkpt lat="43.16983451501578" lon="10.685805784577386"><ele>345.0</ele><time>2026-05-03T10:39:03.001Z</time></trkpt><trkpt lat="43.16985263734345" lon="10.685966138096015"><ele>345.0</ele><time>2026-05-03T10:39:04.001Z</time></trkpt><trkpt lat="43.169863783654094" lon="10.686121277856294"><ele>345.0</ele><time>2026-05-03T10:39:05.001Z</time></trkpt><trkpt lat="43.1698782842132" lon="10.686273753962032"><ele>344.75</ele><time>2026-05-03T10:39:06.001Z</time></trkpt><trkpt lat="43.16989166484533" lon="10.686439472524297"><ele>344.5</ele><time>2026-05-03T10:39:07.001Z</time></trkpt><trkpt lat="43.16990900544536" lon="10.686611881821175"><ele>344.25</ele><time>2026-05-03T10:39:08.001Z</time></trkpt><trkpt lat="43.16992418718074" lon="10.686790209347963"><ele>344.0</ele><time>2026-05-03T10:39:09.001Z</time></trkpt><trkpt lat="43.16993833797605" lon="10.686966599404903"><ele>345.0</ele><time>2026-05-03T10:39:10.001Z</time></trkpt><trkpt lat="43.16995707140358" lon="10.687148911427457"><ele>346.0</ele><time>2026-05-03T10:39:11.001Z</time></trkpt><trkpt lat="43.169976945979876" lon="10.687336366107209"><ele>347.0</ele><time>2026-05-03T10:39:12.001Z</time></trkpt><trkpt lat="43.16999678877598" lon="10.687521539527912"><ele>348.0</ele><time>2026-05-03T10:39:13.001Z</time></trkpt><trkpt lat="43.17001536174216" lon="10.687699642397462"><ele>350.0</ele><time>2026-05-03T10:39:14.001Z</time></trkpt><trkpt lat="43.17003091508879" lon="10.6878809820207"><ele>352.0</ele><time>2026-05-03T10:39:15.001Z</time></trkpt><trkpt lat="43.17004442559262" lon="10.688045430317358"><ele>354.0</ele><time>2026-05-03T10:39:16.001Z</time></trkpt><trkpt lat="43.170058574201946" lon="10.688204666804047"><ele>356.0</ele><time>2026-05-03T10:39:17.001Z</time></trkpt><trkpt lat="43.17007519537178" lon="10.68836572214822"><ele>356.0</ele><time>2026-05-03T10:39:18.001Z</time></trkpt><trkpt lat="43.17010579108941" lon="10.688525802294322"><ele>356.0</ele><time>2026-05-03T10:39:19.001Z</time></trkpt><trkpt lat="43.17016378968817" lon="10.68867438357067"><ele>356.0</ele><time>2026-05-03T10:39:20.001Z</time></trkpt><trkpt lat="43.17023782468441" lon="10.68880860606641"><ele>356.0</ele><time>2026-05-03T10:39:21.001Z</time></trkpt><trkpt lat="43.17033224914712" lon="10.688908792993589"><ele>356.5</ele><time>2026-05-03T10:39:22.001Z</time></trkpt><trkpt lat="43.17043879727371" lon="10.688986234432718"><ele>357.0</ele><time>2026-05-03T10:39:23.001Z</time></trkpt><trkpt lat="43.170558400984106" lon="10.68903914404807"><ele>357.5</ele><time>2026-05-03T10:39:24.001Z</time></trkpt><trkpt lat="43.17068168663154" lon="10.689104083474293"><ele>358.0</ele><time>2026-05-03T10:39:25.001Z</time></trkpt><trkpt lat="43.17081739470568" lon="10.689178215096018"><ele>358.0</ele><time>2026-05-03T10:39:26.001Z</time></trkpt><trkpt lat="43.1709461143959" lon="10.68925958285375"><ele>358.0</ele><time>2026-05-03T10:39:27.001Z</time></trkpt><trkpt lat="43.171059563089806" lon="10.689365078493468"><ele>358.0</ele><time>2026-05-03T10:39:28.001Z</time></trkpt><trkpt lat="43.17115971113777" lon="10.689507492033574"><ele>358.0</ele><time>2026-05-03T10:39:29.001Z</time></trkpt><trkpt lat="43.171263613570424" lon="10.689656882219879"><ele>358.75</ele><time>2026-05-03T10:39:30.001Z</time></trkpt><trkpt lat="43.171368579324735" lon="10.68980776811285"><ele>359.5</ele><time>2026-05-03T10:39:31.001Z</time></trkpt><trkpt lat="43.1714723541082" lon="10.689947277852717"><ele>360.25</ele><time>2026-05-03T10:39:32.001Z</time></trkpt><trkpt lat="43.17157285310406" lon="10.690068277276348"><ele>361.0</ele><time>2026-05-03T10:39:33.001Z</time></trkpt><trkpt lat="43.171673955809744" lon="10.690172987189992"><ele>360.6</ele><time>2026-05-03T10:39:34.001Z</time></trkpt><trkpt lat="43.171769026733514" lon="10.690259204592035"><ele>360.20000000000005</ele><time>2026-05-03T10:39:35.001Z</time></trkpt><trkpt lat="43.17185801387467" lon="10.690329230659243"><ele>359.79999999999995</ele><time>2026-05-03T10:39:36.001Z</time></trkpt><trkpt lat="43.17194452280229" lon="10.690378400781015"><ele>359.4</ele><time>2026-05-03T10:39:37.001Z</time></trkpt><trkpt lat="43.172023708297075" lon="10.690423077426358"><ele>359.0</ele><time>2026-05-03T10:39:38.001Z</time></trkpt><trkpt lat="43.17209459536922" lon="10.690462169395353"><ele>359.0</ele><time>2026-05-03T10:39:39.001Z</time></trkpt><trkpt lat="43.172158541408535" lon="10.690500792153955"><ele>359.0</ele><time>2026-05-03T10:39:40.001Z</time></trkpt><trkpt lat="43.172227910242114" lon="10.690548744478756"><ele>359.0</ele><time>2026-05-03T10:39:41.001Z</time></trkpt><trkpt lat="43.17231286225118" lon="10.690602218210802"><ele>359.0</ele><time>2026-05-03T10:39:42Z</time></trkpt><trkpt lat="43.17240935698367" lon="10.690660760364826"><ele>359.0</ele><time>2026-05-03T10:39:43Z</time></trkpt><trkpt lat="43.172491837065685" lon="10.690714771440469"><ele>359.0</ele><time>2026-05-03T10:39:44Z</time></trkpt><trkpt lat="43.17259002693593" lon="10.690742492333802"><ele>359.6666666666667</ele><time>2026-05-03T10:39:46Z</time></trkpt><trkpt lat="43.17264287377797" lon="10.69080523346761"><ele>360.33333333333337</ele><time>2026-05-03T10:39:49Z</time></trkpt><trkpt lat="43.17269910539199" lon="10.690859720527758"><ele>361.0</ele><time>2026-05-03T10:39:52Z</time></trkpt><trkpt lat="43.17280961930265" lon="10.690929929430137"><ele>361.6666666666667</ele><time>2026-05-03T10:40:57.001Z</time></trkpt><trkpt lat="43.17287352534054" lon="10.690970379107098"><ele>362.3333333333333</ele><time>2026-05-03T10:40:58.001Z</time></trkpt><trkpt lat="43.17294381376983" lon="10.691014417074365"><ele>363.0</ele><time>2026-05-03T10:40:59.001Z</time></trkpt><trkpt lat="43.17301443021493" lon="10.691058727514587"><ele>363.59999999999997</ele><time>2026-05-03T10:41:00.001Z</time></trkpt><trkpt lat="43.173094917524764" lon="10.691109231735572"><ele>364.2</ele><time>2026-05-03T10:41:01.001Z</time></trkpt><trkpt lat="43.17316137615838" lon="10.691150713978368"><ele>364.8</ele><time>2026-05-03T10:41:02.001Z</time></trkpt><trkpt lat="43.17328178859541" lon="10.691225467887735"><ele>365.4</ele><time>2026-05-03T10:41:04.001Z</time></trkpt><trkpt lat="43.17339898936298" lon="10.691309645527195"><ele>366.0</ele><time>2026-05-03T10:41:06.001Z</time></trkpt><trkpt lat="43.17347396220704" lon="10.691367284896726"><ele>366.0</ele><time>2026-05-03T10:41:07.001Z</time></trkpt><trkpt lat="43.17353928698176" lon="10.691455820418653"><ele>366.0</ele><time>2026-05-03T10:41:09.001Z</time></trkpt><trkpt lat="43.173596484768346" lon="10.691521660586954"><ele>366.0</ele><time>2026-05-03T10:41:10.001Z</time></trkpt><trkpt lat="43.1736673872297" lon="10.69158390190607"><ele>366.0</ele><time>2026-05-03T10:41:11.001Z</time></trkpt><trkpt lat="43.1737147007416" lon="10.691675045460352"><ele>366.0</ele><time>2026-05-03T10:41:14.001Z</time></trkpt><trkpt lat="43.174353532528734" lon="10.691293428466254"><ele>368.20000000000005</ele><time>2026-05-03T10:41:16.001Z</time></trkpt><trkpt lat="43.17443930824294" lon="10.69134535364216"><ele>370.40000000000003</ele><time>2026-05-03T10:41:17.001Z</time></trkpt><trkpt lat="43.17452387591388" lon="10.691413279997095"><ele>372.6</ele><time>2026-05-03T10:41:18.001Z</time></trkpt><trkpt lat="43.174601304911334" lon="10.69149334790404"><ele>374.8</ele><time>2026-05-03T10:41:19.001Z</time></trkpt><trkpt lat="43.174684787295284" lon="10.691582460326725"><ele>377.0</ele><time>2026-05-03T10:41:20.001Z</time></trkpt><trkpt lat="43.17475937300776" lon="10.69164566389614"><ele>377.0</ele><time>2026-05-03T10:41:21.001Z</time></trkpt><trkpt lat="43.1748428074305" lon="10.691715254030555"><ele>377.0</ele><time>2026-05-03T10:41:22.001Z</time></trkpt><trkpt lat="43.17491103375429" lon="10.691774286635342"><ele>377.0</ele><time>2026-05-03T10:41:23.001Z</time></trkpt><trkpt lat="43.17499305155849" lon="10.691852480673324"><ele>377.0</ele><time>2026-05-03T10:41:24.001Z</time></trkpt><trkpt lat="43.17505570930173" lon="10.691913769991157"><ele>377.0</ele><time>2026-05-03T10:41:25.001Z</time></trkpt><trkpt lat="43.17513474451731" lon="10.691972029057103"><ele>377.0</ele><time>2026-05-03T10:41:26.001Z</time></trkpt><trkpt lat="43.17521005896665" lon="10.692036991236966"><ele>378.83333333333337</ele><time>2026-05-03T10:41:27.001Z</time></trkpt><trkpt lat="43.17527893818597" lon="10.692090085850829"><ele>380.6666666666667</ele><time>2026-05-03T10:41:28.001Z</time></trkpt><trkpt lat="43.17534658688299" lon="10.692146717657224"><ele>382.5</ele><time>2026-05-03T10:41:29.001Z</time></trkpt><trkpt lat="43.17541114314899" lon="10.692196018272904"><ele>384.33333333333337</ele><time>2026-05-03T10:41:30.001Z</time></trkpt><trkpt lat="43.17548154351664" lon="10.692224888312692"><ele>386.1666666666667</ele><time>2026-05-03T10:41:31.001Z</time></trkpt><trkpt lat="43.175556674329705" lon="10.69226626711713"><ele>388.0</ele><time>2026-05-03T10:41:32.001Z</time></trkpt><trkpt lat="43.17563015322114" lon="10.692328979980918"><ele>389.59999999999997</ele><time>2026-05-03T10:41:33.001Z</time></trkpt><trkpt lat="43.17570949488782" lon="10.69239319981035"><ele>391.2</ele><time>2026-05-03T10:41:34.001Z</time></trkpt><trkpt lat="43.175785108163716" lon="10.692459363520815"><ele>392.8</ele><time>2026-05-03T10:41:35.001Z</time></trkpt><trkpt lat="43.17585447919456" lon="10.692530042347043"><ele>394.4</ele><time>2026-05-03T10:41:36.001Z</time></trkpt><trkpt lat="43.17592126171864" lon="10.692617594085888"><ele>396.0</ele><time>2026-05-03T10:41:37.001Z</time></trkpt><trkpt lat="43.17599114738078" lon="10.69270299004795"><ele>396.3333333333333</ele><time>2026-05-03T10:41:38.001Z</time></trkpt><trkpt lat="43.176035695821135" lon="10.692800621605324"><ele>396.66666666666663</ele><time>2026-05-03T10:41:39.001Z</time></trkpt><trkpt lat="43.17605703438633" lon="10.692906587618038"><ele>397.0</ele><time>2026-05-03T10:41:40.001Z</time></trkpt><trkpt lat="43.17606265023842" lon="10.693028720425778"><ele>397.3333333333333</ele><time>2026-05-03T10:41:41.001Z</time></trkpt><trkpt lat="43.176049226639755" lon="10.6931679342447"><ele>397.66666666666663</ele><time>2026-05-03T10:41:43.001Z</time></trkpt><trkpt lat="43.1761029088133" lon="10.693245351316902"><ele>398.0</ele><time>2026-05-03T10:41:47.001Z</time></trkpt><trkpt lat="43.17615050792299" lon="10.693302083058017"><ele>398.0</ele><time>2026-05-03T10:41:49Z</time></trkpt><trkpt lat="43.17621276760714" lon="10.693413723143687"><ele>398.0</ele><time>2026-05-03T10:41:51Z</time></trkpt><trkpt lat="43.176271098627254" lon="10.693575740642938"><ele>398.0</ele><time>2026-05-03T10:41:53Z</time></trkpt><trkpt lat="43.176314714844516" lon="10.693645184891814"><ele>398.0</ele><time>2026-05-03T10:41:54Z</time></trkpt><trkpt lat="43.17636457273686" lon="10.693710019320608"><ele>398.0</ele><time>2026-05-03T10:41:55Z</time></trkpt><trkpt lat="43.176448018972906" lon="10.693754911253981"><ele>399.99999999999994</ele><time>2026-05-03T10:41:57Z</time></trkpt><trkpt lat="43.17654184408434" lon="10.693766806364033"><ele>402.0</ele><time>2026-05-03T10:41:59Z</time></trkpt><trkpt lat="43.17662696593529" lon="10.693873799309861"><ele>404.0</ele><time>2026-05-03T10:42:01Z</time></trkpt><trkpt lat="43.17665506411441" lon="10.693958804143605"><ele>406.0</ele><time>2026-05-03T10:42:02Z</time></trkpt><trkpt lat="43.17667831417504" lon="10.694043017537814"><ele>407.99999999999994</ele><time>2026-05-03T10:42:03Z</time></trkpt><trkpt lat="43.17669827257286" lon="10.694130716454083"><ele>410.0</ele><time>2026-05-03T10:42:04Z</time></trkpt><trkpt lat="43.176691801758324" lon="10.694297087597974"><ele>410.8</ele><time>2026-05-03T10:42:06Z</time></trkpt><trkpt lat="43.17669024284859" lon="10.694509370080002"><ele>411.6</ele><time>2026-05-03T10:42:08Z</time></trkpt><trkpt lat="43.17671546134712" lon="10.694617387791526"><ele>412.4</ele><time>2026-05-03T10:42:09Z</time></trkpt><trkpt lat="43.176748416532654" lon="10.694724923307367"><ele>413.2</ele><time>2026-05-03T10:42:10Z</time></trkpt><trkpt lat="43.17678774375958" lon="10.694820201573362"><ele>414.0</ele><time>2026-05-03T10:42:11Z</time></trkpt><trkpt lat="43.176833508115315" lon="10.694904734378982"><ele>414.0</ele><time>2026-05-03T10:42:12Z</time></trkpt><trkpt lat="43.17688324512682" lon="10.694982239204592"><ele>414.0</ele><time>2026-05-03T10:42:13Z</time></trkpt><trkpt lat="43.1769365809609" lon="10.695046644525416"><ele>414.0</ele><time>2026-05-03T10:42:14Z</time></trkpt><trkpt lat="43.176989787725915" lon="10.695131828162113"><ele>414.0</ele><time>2026-05-03T10:42:15Z</time></trkpt><trkpt lat="43.177051150748525" lon="10.695255720608948"><ele>414.0</ele><time>2026-05-03T10:42:16Z</time></trkpt><trkpt lat="43.17710705505648" lon="10.695389815621363"><ele>414.2</ele><time>2026-05-03T10:42:17Z</time></trkpt><trkpt lat="43.177152906944926" lon="10.6955103210687"><ele>414.4</ele><time>2026-05-03T10:42:18Z</time></trkpt><trkpt lat="43.1772119924745" lon="10.695636012513125"><ele>414.6</ele><time>2026-05-03T10:42:19Z</time></trkpt><trkpt lat="43.17726334954006" lon="10.695764877922787"><ele>414.8</ele><time>2026-05-03T10:42:20Z</time></trkpt><trkpt lat="43.177286299691126" lon="10.695849584734761"><ele>415.0</ele><time>2026-05-03T10:42:21Z</time></trkpt><trkpt lat="43.177311156191195" lon="10.695944890887635"><ele>415.00000000000006</ele><time>2026-05-03T10:42:23Z</time></trkpt><trkpt lat="43.17733906267118" lon="10.69605955178355"><ele>415.0</ele><time>2026-05-03T10:42:26Z</time></trkpt><trkpt lat="43.1773868107111" lon="10.696156307098763"><ele>415.0</ele><time>2026-05-03T10:42:28Z</time></trkpt><trkpt lat="43.17743722760514" lon="10.696251309723957"><ele>415.0</ele><time>2026-05-03T10:42:30Z</time></trkpt><trkpt lat="43.1774880659388" lon="10.696314276520399"><ele>415.00000000000006</ele><time>2026-05-03T10:42:32Z</time></trkpt><trkpt lat="43.17757146304326" lon="10.696364944461903"><ele>415.0</ele><time>2026-05-03T10:42:34Z</time></trkpt><trkpt lat="43.17763039426884" lon="10.696412696911471"><ele>416.33333333333337</ele><time>2026-05-03T10:42:35Z</time></trkpt><trkpt lat="43.177684378662214" lon="10.696481327000265"><ele>417.6666666666667</ele><time>2026-05-03T10:42:36Z</time></trkpt><trkpt lat="43.17773903384356" lon="10.696567814869704"><ele>419.0</ele><time>2026-05-03T10:42:37Z</time></trkpt><trkpt lat="43.17779852698566" lon="10.696644396358108"><ele>420.33333333333337</ele><time>2026-05-03T10:42:38Z</time></trkpt><trkpt lat="43.17785494488847" lon="10.696684691023977"><ele>421.6666666666667</ele><time>2026-05-03T10:42:39Z</time></trkpt><trkpt lat="43.1779396162143" lon="10.69676733038535"><ele>423.0</ele><time>2026-05-03T10:42:41Z</time></trkpt><trkpt lat="43.17802519714686" lon="10.696840590162129"><ele>423.0</ele><time>2026-05-03T10:42:43Z</time></trkpt><trkpt lat="43.17815880352664" lon="10.696909150016266"><ele>423.0</ele><time>2026-05-03T10:42:45Z</time></trkpt><trkpt lat="43.178230102019896" lon="10.696949080820431"><ele>423.0</ele><time>2026-05-03T10:42:46Z</time></trkpt><trkpt lat="43.17829784974913" lon="10.697002207767882"><ele>423.0</ele><time>2026-05-03T10:42:47Z</time></trkpt><trkpt lat="43.178357587459594" lon="10.697049499937245"><ele>423.0</ele><time>2026-05-03T10:42:48Z</time></trkpt><trkpt lat="43.17847853922846" lon="10.697082215211822"><ele>424.0</ele><time>2026-05-03T10:42:50Z</time></trkpt><trkpt lat="43.17856303025105" lon="10.697075847220392"><ele>425.0</ele><time>2026-05-03T10:42:51Z</time></trkpt><trkpt lat="43.17862999231067" lon="10.697066839985137"><ele>426.0</ele><time>2026-05-03T10:42:52Z</time></trkpt><trkpt lat="43.178698515360686" lon="10.697055512555659"><ele>427.0</ele><time>2026-05-03T10:42:53Z</time></trkpt><trkpt lat="43.17878274677352" lon="10.69707737481392"><ele>428.0</ele><time>2026-05-03T10:42:55Z</time></trkpt><trkpt lat="43.1788454512646" lon="10.697090848270136"><ele>429.0</ele><time>2026-05-03T10:43:00Z</time></trkpt><trkpt lat="43.17887623211827" lon="10.697166284104734"><ele>430.0</ele><time>2026-05-03T10:46:45Z</time></trkpt><trkpt lat="43.178853686410214" lon="10.697078165173052"><ele>430.0</ele><time>2026-05-03T11:13:00Z</time></trkpt><trkpt lat="43.17878262582214" lon="10.697047744775992"><ele>430.0</ele><time>2026-05-03T11:19:27Z</time></trkpt><trkpt lat="43.17884165243108" lon="10.697085602067697"><ele>430.0</ele><time>2026-05-03T11:21:07Z</time></trkpt><trkpt lat="43.17890350033705" lon="10.697142172830397"><ele>430.0</ele><time>2026-05-03T11:35:24Z</time></trkpt><trkpt lat="43.178965909606305" lon="10.697113405952274"><ele>430.0</ele><time>2026-05-03T11:39:05Z</time></trkpt><trkpt lat="43.179025822635104" lon="10.697154668405531"><ele>430.0</ele><time>2026-05-03T11:39:08Z</time></trkpt><trkpt lat="43.1789435453522" lon="10.697115621597098"><ele>430.0</ele><time>2026-05-03T11:39:19Z</time></trkpt><trkpt lat="43.17887132834806" lon="10.697081432516907"><ele>430.00000000000006</ele><time>2026-05-03T11:39:22Z</time></trkpt><trkpt lat="43.1788015158779" lon="10.697065718586119"><ele>430.0</ele><time>2026-05-03T11:41:33Z</time></trkpt><trkpt lat="43.17873477552666" lon="10.697043931602838"><ele>430.0</ele><time>2026-05-03T11:41:36Z</time></trkpt><trkpt lat="43.1786632173662" lon="10.697055562186048"><ele>430.0</ele><time>2026-05-03T11:41:55Z</time></trkpt><trkpt lat="43.17855295673101" lon="10.697051205099713"><ele>430.00000000000006</ele><time>2026-05-03T11:41:57Z</time></trkpt><trkpt lat="43.17845096625017" lon="10.6970483152825"><ele>430.0</ele><time>2026-05-03T11:41:59Z</time></trkpt><trkpt lat="43.17833737851757" lon="10.697001921876439"><ele>430.00000000000006</ele><time>2026-05-03T11:42:01Z</time></trkpt><trkpt lat="43.17826303096695" lon="10.696954045369736"><ele>430.0</ele><time>2026-05-03T11:42:02Z</time></trkpt><trkpt lat="43.17819160092687" lon="10.696905145629339"><ele>430.0</ele><time>2026-05-03T11:42:03Z</time></trkpt><trkpt lat="43.1781210294276" lon="10.696865317360178"><ele>430.0</ele><time>2026-05-03T11:42:04Z</time></trkpt><trkpt lat="43.17804672386718" lon="10.69682016602696"><ele>430.00000000000006</ele><time>2026-05-03T11:42:05Z</time></trkpt><trkpt lat="43.17797766131337" lon="10.696769992953698"><ele>430.0</ele><time>2026-05-03T11:42:06Z</time></trkpt><trkpt lat="43.17789821514199" lon="10.696694118960904"><ele>428.83333333333337</ele><time>2026-05-03T11:42:07Z</time></trkpt><trkpt lat="43.177825414688186" lon="10.696631254419696"><ele>427.6666666666667</ele><time>2026-05-03T11:42:08Z</time></trkpt><trkpt lat="43.17775653187018" lon="10.696560333396478"><ele>426.5</ele><time>2026-05-03T11:42:09Z</time></trkpt><trkpt lat="43.17768940607541" lon="10.696476414460514"><ele>425.33333333333337</ele><time>2026-05-03T11:42:10Z</time></trkpt><trkpt lat="43.17762352255422" lon="10.696398730987298"><ele>424.1666666666667</ele><time>2026-05-03T11:42:11Z</time></trkpt><trkpt lat="43.177550139944515" lon="10.696324745421133"><ele>423.0</ele><time>2026-05-03T11:42:12Z</time></trkpt><trkpt lat="43.17747772375951" lon="10.696252957882736"><ele>423.0</ele><time>2026-05-03T11:42:13Z</time></trkpt><trkpt lat="43.17741975253392" lon="10.696176330261997"><ele>423.0</ele><time>2026-05-03T11:42:14Z</time></trkpt><trkpt lat="43.17737562638283" lon="10.69608971547998"><ele>423.0</ele><time>2026-05-03T11:42:15Z</time></trkpt><trkpt lat="43.17733898038808" lon="10.69599393065687"><ele>423.0</ele><time>2026-05-03T11:42:16Z</time></trkpt><trkpt lat="43.17731200311389" lon="10.695887265302499"><ele>423.0</ele><time>2026-05-03T11:42:17Z</time></trkpt><trkpt lat="43.177273962151965" lon="10.69575478404694"><ele>423.0</ele><time>2026-05-03T11:42:18Z</time></trkpt><trkpt lat="43.1772176951901" lon="10.695613165134306"><ele>421.4</ele><time>2026-05-03T11:42:19Z</time></trkpt><trkpt lat="43.17716612561413" lon="10.695494443913743"><ele>419.79999999999995</ele><time>2026-05-03T11:42:20Z</time></trkpt><trkpt lat="43.17711451013742" lon="10.695381646950834"><ele>418.2</ele><time>2026-05-03T11:42:21Z</time></trkpt><trkpt lat="43.177059992508376" lon="10.69526857124574"><ele>416.6</ele><time>2026-05-03T11:42:22Z</time></trkpt><trkpt lat="43.1770176912265" lon="10.695166436480344"><ele>415.0</ele><time>2026-05-03T11:42:23Z</time></trkpt><trkpt lat="43.17697371772822" lon="10.695076951640484"><ele>414.8571428571429</ele><time>2026-05-03T11:42:24Z</time></trkpt><trkpt lat="43.176916565491645" lon="10.694994817925416"><ele>414.7142857142857</ele><time>2026-05-03T11:42:25Z</time></trkpt><trkpt lat="43.17686763835763" lon="10.694911797239909"><ele>414.57142857142856</ele><time>2026-05-03T11:42:26Z</time></trkpt><trkpt lat="43.17682237003004" lon="10.69484057520471"><ele>414.42857142857144</ele><time>2026-05-03T11:42:27Z</time></trkpt><trkpt lat="43.176786321483135" lon="10.694767706067003"><ele>414.2857142857143</ele><time>2026-05-03T11:42:28Z</time></trkpt><trkpt lat="43.17675751379647" lon="10.694675459781356"><ele>414.14285714285717</ele><time>2026-05-03T11:42:29Z</time></trkpt><trkpt lat="43.17674052766476" lon="10.694590987429372"><ele>414.0</ele><time>2026-05-03T11:42:30Z</time></trkpt><trkpt lat="43.176719198079844" lon="10.694497822639933"><ele>413.3333333333333</ele><time>2026-05-03T11:42:31Z</time></trkpt><trkpt lat="43.17671385614712" lon="10.694373986483683"><ele>412.66666666666663</ele><time>2026-05-03T11:42:32Z</time></trkpt><trkpt lat="43.17671444348359" lon="10.694262509058643"><ele>412.0</ele><time>2026-05-03T11:42:33Z</time></trkpt><trkpt lat="43.17671478251033" lon="10.694155042301329"><ele>411.3333333333333</ele><time>2026-05-03T11:42:34Z</time></trkpt><trkpt lat="43.17669954766497" lon="10.694050392390931"><ele>410.66666666666663</ele><time>2026-05-03T11:42:35Z</time></trkpt><trkpt lat="43.176667481887485" lon="10.693936646190624"><ele>410.0</ele><time>2026-05-03T11:42:36Z</time></trkpt><trkpt lat="43.17662820402166" lon="10.693852297398639"><ele>409.99999999999994</ele><time>2026-05-03T11:42:37Z</time></trkpt><trkpt lat="43.17652650093989" lon="10.693759252216214"><ele>410.0</ele><time>2026-05-03T11:42:39Z</time></trkpt><trkpt lat="43.176459709430794" lon="10.693734712732418"><ele>410.0</ele><time>2026-05-03T11:42:40Z</time></trkpt><trkpt lat="43.17639352858568" lon="10.693710962156045"><ele>410.0</ele><time>2026-05-03T11:42:41Z</time></trkpt><trkpt lat="43.1763407195185" lon="10.693662733949536"><ele>409.99999999999994</ele><time>2026-05-03T11:42:42Z</time></trkpt><trkpt lat="43.17629714191128" lon="10.693587182976628"><ele>410.0</ele><time>2026-05-03T11:42:43Z</time></trkpt><trkpt lat="43.17625787058833" lon="10.693485298352371"><ele>407.99999999999994</ele><time>2026-05-03T11:42:44Z</time></trkpt><trkpt lat="43.17621338443375" lon="10.693393775618137"><ele>406.0</ele><time>2026-05-03T11:42:45Z</time></trkpt><trkpt lat="43.17616855299697" lon="10.69331812196754"><ele>404.0</ele><time>2026-05-03T11:42:46Z</time></trkpt><trkpt lat="43.17611115922877" lon="10.693233324607302"><ele>402.0</ele><time>2026-05-03T11:42:48Z</time></trkpt><trkpt lat="43.17607607073675" lon="10.693131207636679"><ele>399.99999999999994</ele><time>2026-05-03T11:42:51Z</time></trkpt><trkpt lat="43.17605051476646" lon="10.692980096390752"><ele>398.0</ele><time>2026-05-03T11:42:53Z</time></trkpt><trkpt lat="43.17603004287623" lon="10.69283914249859"><ele>397.66666666666663</ele><time>2026-05-03T11:42:54Z</time></trkpt><trkpt lat="43.17600433771189" lon="10.692733796013496"><ele>397.3333333333333</ele><time>2026-05-03T11:42:55Z</time></trkpt><trkpt lat="43.17596023163707" lon="10.69264713463884"><ele>397.0</ele><time>2026-05-03T11:42:56Z</time></trkpt><trkpt lat="43.17590381280293" lon="10.692581088981447"><ele>396.66666666666663</ele><time>2026-05-03T11:42:57Z</time></trkpt><trkpt lat="43.175825344475555" lon="10.692506422809823"><ele>396.3333333333333</ele><time>2026-05-03T11:42:58Z</time></trkpt><trkpt lat="43.17574034075908" lon="10.692430371862281"><ele>396.0</ele><time>2026-05-03T11:42:59Z</time></trkpt><trkpt lat="43.175664057570636" lon="10.692360076435307"><ele>394.6666666666667</ele><time>2026-05-03T11:43:00Z</time></trkpt><trkpt lat="43.17558312688963" lon="10.692292496463507"><ele>393.33333333333337</ele><time>2026-05-03T11:43:01Z</time></trkpt><trkpt lat="43.17551177383319" lon="10.692236083958921"><ele>392.0</ele><time>2026-05-03T11:43:02Z</time></trkpt><trkpt lat="43.17544431450309" lon="10.692182651107117"><ele>390.6666666666667</ele><time>2026-05-03T11:43:03Z</time></trkpt><trkpt lat="43.17538126203254" lon="10.692142958063437"><ele>389.33333333333337</ele><time>2026-05-03T11:43:04Z</time></trkpt><trkpt lat="43.175319156594455" lon="10.692102835727258"><ele>388.0</ele><time>2026-05-03T11:43:05Z</time></trkpt><trkpt lat="43.17525512073818" lon="10.692052293296948"><ele>388.00000000000006</ele><time>2026-05-03T11:43:06Z</time></trkpt><trkpt lat="43.17519132201062" lon="10.691993705041002"><ele>388.0</ele><time>2026-05-03T11:43:07Z</time></trkpt><trkpt lat="43.175129459011" lon="10.691937899661546"><ele>388.0</ele><time>2026-05-03T11:43:08Z</time></trkpt><trkpt lat="43.175050530087006" lon="10.691885217225003"><ele>388.0</ele><time>2026-05-03T11:43:09Z</time></trkpt><trkpt lat="43.17499285794237" lon="10.691823276348881"><ele>388.00000000000006</ele><time>2026-05-03T11:43:10Z</time></trkpt><trkpt lat="43.17492664591233" lon="10.69175093606333"><ele>388.0</ele><time>2026-05-03T11:43:11Z</time></trkpt><trkpt lat="43.174860198835994" lon="10.691668608894005"><ele>385.79999999999995</ele><time>2026-05-03T11:43:12Z</time></trkpt><trkpt lat="43.17477072376509" lon="10.69159159494885"><ele>383.6</ele><time>2026-05-03T11:43:13Z</time></trkpt><trkpt lat="43.174694731062445" lon="10.691519617365747"><ele>381.4</ele><time>2026-05-03T11:43:14Z</time></trkpt><trkpt lat="43.17461624151002" lon="10.691456822624053"><ele>379.20000000000005</ele><time>2026-05-03T11:43:15Z</time></trkpt><trkpt lat="43.174537579655784" lon="10.69138281404143"><ele>377.0</ele><time>2026-05-03T11:43:16Z</time></trkpt><trkpt lat="43.174448862652795" lon="10.691316776024912"><ele>377.0</ele><time>2026-05-03T11:43:17Z</time></trkpt><trkpt lat="43.17436189504114" lon="10.69126254634908"><ele>377.0</ele><time>2026-05-03T11:43:18Z</time></trkpt><trkpt lat="43.174261953508946" lon="10.691219064227683"><ele>377.0</ele><time>2026-05-03T11:43:19Z</time></trkpt><trkpt lat="43.17415358242439" lon="10.691199564907404"><ele>377.0</ele><time>2026-05-03T11:43:20Z</time></trkpt><trkpt lat="43.17404034721353" lon="10.691150484635735"><ele>377.0</ele><time>2026-05-03T11:43:21Z</time></trkpt><trkpt lat="43.17392199305305" lon="10.691099744389652"><ele>375.0</ele><time>2026-05-03T11:43:22Z</time></trkpt><trkpt lat="43.17379962663461" lon="10.691063259905222"><ele>373.0</ele><time>2026-05-03T11:43:23Z</time></trkpt><trkpt lat="43.173690053284936" lon="10.691026521350363"><ele>371.0</ele><time>2026-05-03T11:43:24Z</time></trkpt><trkpt lat="43.17358719489723" lon="10.690994394051637"><ele>369.0</ele><time>2026-05-03T11:43:25Z</time></trkpt><trkpt lat="43.173479324307685" lon="10.690977385840608"><ele>369.0</ele><time>2026-05-03T11:43:26Z</time></trkpt><trkpt lat="43.17337932977016" lon="10.690954327218115"><ele>369.0</ele><time>2026-05-03T11:43:27Z</time></trkpt><trkpt lat="43.17327816600359" lon="10.690927416686897"><ele>369.0</ele><time>2026-05-03T11:43:28Z</time></trkpt><trkpt lat="43.17317524844126" lon="10.690903269592887"><ele>369.0</ele><time>2026-05-03T11:43:29Z</time></trkpt><trkpt lat="43.17308587679688" lon="10.690870684458854"><ele>369.0</ele><time>2026-05-03T11:43:30Z</time></trkpt><trkpt lat="43.172971475338684" lon="10.690919116678039"><ele>367.79999999999995</ele><time>2026-05-03T11:43:31Z</time></trkpt><trkpt lat="43.172890693469945" lon="10.690868427613644"><ele>366.59999999999997</ele><time>2026-05-03T11:43:32Z</time></trkpt><trkpt lat="43.172810894650006" lon="10.690817907180413"><ele>365.4</ele><time>2026-05-03T11:43:33Z</time></trkpt><trkpt lat="43.17277696681023" lon="10.690650337483039"><ele>364.2</ele><time>2026-05-03T11:43:34Z</time></trkpt><trkpt lat="43.17267855249107" lon="10.690613105831664"><ele>363.0</ele><time>2026-05-03T11:43:36Z</time></trkpt><trkpt lat="43.17262834305515" lon="10.690684376442546"><ele>363.0</ele><time>2026-05-03T11:43:38Z</time></trkpt><trkpt lat="43.17252364523956" lon="10.690690885778347"><ele>363.0</ele><time>2026-05-03T11:43:43Z</time></trkpt><trkpt lat="43.17243932200109" lon="10.690619885133136"><ele>363.0</ele><time>2026-05-03T11:43:44Z</time></trkpt><trkpt lat="43.17234078168757" lon="10.690560458059064"><ele>363.0</ele><time>2026-05-03T11:43:45Z</time></trkpt><trkpt lat="43.17223167554976" lon="10.690503661503701"><ele>363.0</ele><time>2026-05-03T11:43:46Z</time></trkpt><trkpt lat="43.17212588715503" lon="10.690424438368854"><ele>362.5</ele><time>2026-05-03T11:43:47Z</time></trkpt><trkpt lat="43.172015960214615" lon="10.69035099380681"><ele>362.0</ele><time>2026-05-03T11:43:48Z</time></trkpt><trkpt lat="43.1719003385128" lon="10.690274734065767"><ele>361.5</ele><time>2026-05-03T11:43:49Z</time></trkpt><trkpt lat="43.17177959434281" lon="10.690192359203127"><ele>361.0</ele><time>2026-05-03T11:43:50Z</time></trkpt><trkpt lat="43.171664199956155" lon="10.690096577904946"><ele>361.0</ele><time>2026-05-03T11:43:51Z</time></trkpt><trkpt lat="43.17155402485119" lon="10.68997023474609"><ele>361.0</ele><time>2026-05-03T11:43:52Z</time></trkpt><trkpt lat="43.1714487581058" lon="10.689827725502816"><ele>361.0</ele><time>2026-05-03T11:43:53Z</time></trkpt><trkpt lat="43.1713526180285" lon="10.689686235891426"><ele>361.0</ele><time>2026-05-03T11:43:54Z</time></trkpt><trkpt lat="43.17126725011903" lon="10.689558247019583"><ele>361.5</ele><time>2026-05-03T11:43:55Z</time></trkpt><trkpt lat="43.17118206452093" lon="10.689433905174688"><ele>362.0</ele><time>2026-05-03T11:43:56Z</time></trkpt><trkpt lat="43.17109692145396" lon="10.689325443623952"><ele>362.5</ele><time>2026-05-03T11:43:57Z</time></trkpt><trkpt lat="43.17099784157102" lon="10.689228499621514"><ele>363.0</ele><time>2026-05-03T11:43:58Z</time></trkpt><trkpt lat="43.17087119735194" lon="10.689151492315455"><ele>363.0</ele><time>2026-05-03T11:43:59Z</time></trkpt><trkpt lat="43.17073247232674" lon="10.689090212622022"><ele>363.0</ele><time>2026-05-03T11:44:00Z</time></trkpt><trkpt lat="43.17059732712894" lon="10.689022627358014"><ele>363.0</ele><time>2026-05-03T11:44:01Z</time></trkpt><trkpt lat="43.17047733781864" lon="10.688953590504905"><ele>363.0</ele><time>2026-05-03T11:44:02Z</time></trkpt><trkpt lat="43.17036391002018" lon="10.68887119778177"><ele>363.0</ele><time>2026-05-03T11:44:03Z</time></trkpt><trkpt lat="43.1702665404041" lon="10.688767181347831"><ele>363.0</ele><time>2026-05-03T11:44:04Z</time></trkpt><trkpt lat="43.17019534770853" lon="10.688632298205214"><ele>363.0</ele><time>2026-05-03T11:44:05Z</time></trkpt><trkpt lat="43.170149146628695" lon="10.688488255648616"><ele>363.0</ele><time>2026-05-03T11:44:06Z</time></trkpt><trkpt lat="43.170120510127006" lon="10.688334960561393"><ele>361.25</ele><time>2026-05-03T11:44:07Z</time></trkpt><trkpt lat="43.170105618846975" lon="10.688171945733686"><ele>359.5</ele><time>2026-05-03T11:44:08Z</time></trkpt><trkpt lat="43.17009775577889" lon="10.688002049503398"><ele>357.75</ele><time>2026-05-03T11:44:09Z</time></trkpt><trkpt lat="43.17007629600562" lon="10.687829704247608"><ele>356.0</ele><time>2026-05-03T11:44:10Z</time></trkpt><trkpt lat="43.170056032473894" lon="10.687647020967495"><ele>354.0</ele><time>2026-05-03T11:44:11Z</time></trkpt><trkpt lat="43.170036809925286" lon="10.687453573244957"><ele>352.0</ele><time>2026-05-03T11:44:12Z</time></trkpt><trkpt lat="43.17001875425749" lon="10.687254706087733"><ele>350.0</ele><time>2026-05-03T11:44:13Z</time></trkpt><trkpt lat="43.16999877976901" lon="10.687050119100121"><ele>348.0</ele><time>2026-05-03T11:44:14Z</time></trkpt><trkpt lat="43.16997792336667" lon="10.686844578438494"><ele>347.0</ele><time>2026-05-03T11:44:15Z</time></trkpt><trkpt lat="43.16995784934749" lon="10.686643945075408"><ele>346.0</ele><time>2026-05-03T11:44:16Z</time></trkpt><trkpt lat="43.16994011764014" lon="10.686457516447014"><ele>345.0</ele><time>2026-05-03T11:44:17Z</time></trkpt><trkpt lat="43.169922859706574" lon="10.686275537593275"><ele>344.0</ele><time>2026-05-03T11:44:18Z</time></trkpt><trkpt lat="43.16990713066664" lon="10.686100855721982"><ele>344.25</ele><time>2026-05-03T11:44:19Z</time></trkpt><trkpt lat="43.1698887684581" lon="10.685935895496137"><ele>344.5</ele><time>2026-05-03T11:44:20Z</time></trkpt><trkpt lat="43.169867497925374" lon="10.685778318721137"><ele>344.75</ele><time>2026-05-03T11:44:21Z</time></trkpt><trkpt lat="43.16983107321513" lon="10.685620563260496"><ele>345.0</ele><time>2026-05-03T11:44:22Z</time></trkpt><trkpt lat="43.169768729498365" lon="10.685480095360914"><ele>345.0</ele><time>2026-05-03T11:44:23Z</time></trkpt><trkpt lat="43.169688023931364" lon="10.685358260840575"><ele>345.0</ele><time>2026-05-03T11:44:24Z</time></trkpt><trkpt lat="43.16958587307939" lon="10.6852650906465"><ele>345.0</ele><time>2026-05-03T11:44:25Z</time></trkpt><trkpt lat="43.16947539054779" lon="10.685190024698597"><ele>345.0</ele><time>2026-05-03T11:44:26Z</time></trkpt><trkpt lat="43.16935753682136" lon="10.68512583771527"><ele>345.0</ele><time>2026-05-03T11:44:27Z</time></trkpt><trkpt lat="43.16924783472846" lon="10.685061155552619"><ele>345.0</ele><time>2026-05-03T11:44:28.001Z</time></trkpt><trkpt lat="43.169138130703224" lon="10.684996303987406"><ele>345.0</ele><time>2026-05-03T11:44:29.001Z</time></trkpt><trkpt lat="43.16901874607896" lon="10.684923113159428"><ele>345.0</ele><time>2026-05-03T11:44:30.001Z</time></trkpt><trkpt lat="43.16889014756929" lon="10.68484758678118"><ele>345.0</ele><time>2026-05-03T11:44:31.001Z</time></trkpt><trkpt lat="43.16876850457078" lon="10.684772900490598"><ele>345.0</ele><time>2026-05-03T11:44:32.001Z</time></trkpt><trkpt lat="43.16864019279695" lon="10.684696438893155"><ele>345.0</ele><time>2026-05-03T11:44:33.001Z</time></trkpt><trkpt lat="43.16851143340636" lon="10.684620234207548"><ele>345.0</ele><time>2026-05-03T11:44:34.001Z</time></trkpt><trkpt lat="43.168385135168215" lon="10.684542785107535"><ele>345.0</ele><time>2026-05-03T11:44:35.001Z</time></trkpt><trkpt lat="43.16826357238347" lon="10.684471577635076"><ele>345.0</ele><time>2026-05-03T11:44:36.001Z</time></trkpt><trkpt lat="43.16815074462562" lon="10.684405294904119"><ele>345.0</ele><time>2026-05-03T11:44:37.001Z</time></trkpt><trkpt lat="43.16804903076244" lon="10.68434349209729"><ele>345.0</ele><time>2026-05-03T11:44:38.001Z</time></trkpt><trkpt lat="43.1679408138862" lon="10.684280933069273"><ele>346.0</ele><time>2026-05-03T11:44:39.001Z</time></trkpt><trkpt lat="43.167830150934215" lon="10.68421502755003"><ele>347.0</ele><time>2026-05-03T11:44:40.001Z</time></trkpt><trkpt lat="43.167719603674165" lon="10.684145595840112"><ele>348.0</ele><time>2026-05-03T11:44:41.001Z</time></trkpt><trkpt lat="43.16760502892903" lon="10.684067927589552"><ele>349.0</ele><time>2026-05-03T11:44:42.001Z</time></trkpt><trkpt lat="43.167507115398884" lon="10.683952616972036"><ele>349.0</ele><time>2026-05-03T11:44:43.001Z</time></trkpt><trkpt lat="43.16743164215205" lon="10.683809551135681"><ele>349.0</ele><time>2026-05-03T11:44:44.001Z</time></trkpt><trkpt lat="43.167372301793115" lon="10.683645665594364"><ele>349.0</ele><time>2026-05-03T11:44:45.001Z</time></trkpt><trkpt lat="43.167319554629174" lon="10.683469949298333"><ele>349.0</ele><time>2026-05-03T11:44:46.001Z</time></trkpt><trkpt lat="43.16727195616117" lon="10.683285244677043"><ele>348.0</ele><time>2026-05-03T11:44:47Z</time></trkpt><trkpt lat="43.16721731338986" lon="10.6830982761445"><ele>347.0</ele><time>2026-05-03T11:44:48Z</time></trkpt><trkpt lat="43.167159135886784" lon="10.682909595175103"><ele>346.0</ele><time>2026-05-03T11:44:49Z</time></trkpt><trkpt lat="43.16710640473928" lon="10.682729476182871"><ele>345.0</ele><time>2026-05-03T11:44:50Z</time></trkpt><trkpt lat="43.1670614760959" lon="10.682566405198019"><ele>345.0</ele><time>2026-05-03T11:44:51Z</time></trkpt><trkpt lat="43.16699808164068" lon="10.682418666515527"><ele>345.0</ele><time>2026-05-03T11:44:52Z</time></trkpt><trkpt lat="43.1669066382099" lon="10.682291470509384"><ele>345.0</ele><time>2026-05-03T11:44:53Z</time></trkpt><trkpt lat="43.16680764910571" lon="10.682177299377585"><ele>345.0</ele><time>2026-05-03T11:44:54Z</time></trkpt><trkpt lat="43.166700667271705" lon="10.682069778215658"><ele>345.0</ele><time>2026-05-03T11:44:55Z</time></trkpt><trkpt lat="43.16658847450119" lon="10.681960888573773"><ele>345.0</ele><time>2026-05-03T11:44:56Z</time></trkpt><trkpt lat="43.166475119809405" lon="10.68184474989893"><ele>345.0</ele><time>2026-05-03T11:44:57Z</time></trkpt><trkpt lat="43.166370837542296" lon="10.681714926602897"><ele>345.0</ele><time>2026-05-03T11:44:58Z</time></trkpt><trkpt lat="43.16628114622819" lon="10.681577717927828"><ele>343.5</ele><time>2026-05-03T11:44:59Z</time></trkpt><trkpt lat="43.16620203218669" lon="10.681427268019112"><ele>342.0</ele><time>2026-05-03T11:45:00Z</time></trkpt><trkpt lat="43.166144705347584" lon="10.681257584240779"><ele>340.5</ele><time>2026-05-03T11:45:01Z</time></trkpt><trkpt lat="43.16610488603948" lon="10.681071839832775"><ele>339.0</ele><time>2026-05-03T11:45:02Z</time></trkpt><trkpt lat="43.166074636126524" lon="10.680874393383244"><ele>339.0</ele><time>2026-05-03T11:45:03Z</time></trkpt><trkpt lat="43.16605528985399" lon="10.680690928469838"><ele>339.0</ele><time>2026-05-03T11:45:04Z</time></trkpt><trkpt lat="43.16604455876363" lon="10.680509207631866"><ele>339.0</ele><time>2026-05-03T11:45:05Z</time></trkpt><trkpt lat="43.166049029376005" lon="10.680335328144473"><ele>339.0</ele><time>2026-05-03T11:45:06Z</time></trkpt><trkpt lat="43.16607686139677" lon="10.680161877063044"><ele>339.5</ele><time>2026-05-03T11:45:07Z</time></trkpt><trkpt lat="43.1661160971268" lon="10.679996616872637"><ele>340.0</ele><time>2026-05-03T11:45:08Z</time></trkpt><trkpt lat="43.16616450459401" lon="10.679834291584411"><ele>340.5</ele><time>2026-05-03T11:45:09Z</time></trkpt><trkpt lat="43.16619873490779" lon="10.679663965824679"><ele>341.0</ele><time>2026-05-03T11:45:10Z</time></trkpt><trkpt lat="43.16620069493264" lon="10.679486477548927"><ele>341.75</ele><time>2026-05-03T11:45:11Z</time></trkpt><trkpt lat="43.16618117532515" lon="10.679309457356581"><ele>342.5</ele><time>2026-05-03T11:45:12Z</time></trkpt><trkpt lat="43.16614213421867" lon="10.67915337246763"><ele>343.25</ele><time>2026-05-03T11:45:13Z</time></trkpt><trkpt lat="43.16607135498334" lon="10.679009886531363"><ele>344.0</ele><time>2026-05-03T11:45:14Z</time></trkpt><trkpt lat="43.165982885880645" lon="10.678880436664343"><ele>344.0</ele><time>2026-05-03T11:45:15Z</time></trkpt><trkpt lat="43.16587831127847" lon="10.678768430346073"><ele>344.0</ele><time>2026-05-03T11:45:16Z</time></trkpt><trkpt lat="43.16575689287786" lon="10.67867706448409"><ele>344.0</ele><time>2026-05-03T11:45:17Z</time></trkpt><trkpt lat="43.16563482119781" lon="10.678589088270762"><ele>344.0</ele><time>2026-05-03T11:45:18Z</time></trkpt><trkpt lat="43.165522797199465" lon="10.67851189967835"><ele>345.79999999999995</ele><time>2026-05-03T11:45:19Z</time></trkpt><trkpt lat="43.16541947306739" lon="10.678440685379176"><ele>347.59999999999997</ele><time>2026-05-03T11:45:20Z</time></trkpt><trkpt lat="43.16531923882343" lon="10.678392594917073"><ele>349.4</ele><time>2026-05-03T11:45:21Z</time></trkpt><trkpt lat="43.16521304952454" lon="10.678381487662612"><ele>351.2</ele><time>2026-05-03T11:45:22Z</time></trkpt><trkpt lat="43.1651072116093" lon="10.678417328281418"><ele>353.0</ele><time>2026-05-03T11:45:23Z</time></trkpt><trkpt lat="43.16501262102723" lon="10.678494451820931"><ele>354.0</ele><time>2026-05-03T11:45:24Z</time></trkpt><trkpt lat="43.16494092604509" lon="10.678607335059702"><ele>355.0</ele><time>2026-05-03T11:45:25Z</time></trkpt><trkpt lat="43.16488064287744" lon="10.678736932992898"><ele>356.0</ele><time>2026-05-03T11:45:26Z</time></trkpt><trkpt lat="43.16481341863075" lon="10.678880315247383"><ele>357.0</ele><time>2026-05-03T11:45:27Z</time></trkpt><trkpt lat="43.164735408110566" lon="10.679008553551427"><ele>357.0</ele><time>2026-05-03T11:45:28Z</time></trkpt><trkpt lat="43.16463933558312" lon="10.67911610636643"><ele>357.0</ele><time>2026-05-03T11:45:29Z</time></trkpt><trkpt lat="43.16453202248164" lon="10.679210527559095"><ele>357.0</ele><time>2026-05-03T11:45:30Z</time></trkpt><trkpt lat="43.16441568532558" lon="10.679303183102897"><ele>357.0</ele><time>2026-05-03T11:45:31Z</time></trkpt><trkpt lat="43.16429838577269" lon="10.679393346414448"><ele>353.0</ele><time>2026-05-03T11:45:32Z</time></trkpt><trkpt lat="43.16418290299645" lon="10.67947646755513"><ele>349.0</ele><time>2026-05-03T11:45:33Z</time></trkpt><trkpt lat="43.16406487151645" lon="10.679552966590816"><ele>345.0</ele><time>2026-05-03T11:45:34Z</time></trkpt><trkpt lat="43.16394299432751" lon="10.679605556515831"><ele>341.0</ele><time>2026-05-03T11:45:35Z</time></trkpt><trkpt lat="43.16382921948736" lon="10.679625497705448"><ele>340.75</ele><time>2026-05-03T11:45:36Z</time></trkpt><trkpt lat="43.16371432655581" lon="10.679613732047164"><ele>340.5</ele><time>2026-05-03T11:45:37Z</time></trkpt><trkpt lat="43.16359655722631" lon="10.67957024601978"><ele>340.25</ele><time>2026-05-03T11:45:38Z</time></trkpt><trkpt lat="43.16347658871305" lon="10.679507777553319"><ele>340.0</ele><time>2026-05-03T11:45:39Z</time></trkpt><trkpt lat="43.16335741234345" lon="10.679430784058598"><ele>340.75</ele><time>2026-05-03T11:45:40Z</time></trkpt><trkpt lat="43.1632378113128" lon="10.679348367804865"><ele>341.5</ele><time>2026-05-03T11:45:41Z</time></trkpt><trkpt lat="43.16311132955774" lon="10.679263229480316"><ele>342.25</ele><time>2026-05-03T11:45:42Z</time></trkpt><trkpt lat="43.162983795726575" lon="10.679180293156293"><ele>343.0</ele><time>2026-05-03T11:45:43Z</time></trkpt><trkpt lat="43.16285069086571" lon="10.679095287282184"><ele>343.0</ele><time>2026-05-03T11:45:44Z</time></trkpt><trkpt lat="43.16271580750646" lon="10.679008598181408"><ele>343.0</ele><time>2026-05-03T11:45:45Z</time></trkpt><trkpt lat="43.16257208306956" lon="10.67894702292879"><ele>343.0</ele><time>2026-05-03T11:45:46Z</time></trkpt><trkpt lat="43.16242098127224" lon="10.678916966821813"><ele>343.3333333333333</ele><time>2026-05-03T11:45:47Z</time></trkpt><trkpt lat="43.16224871317159" lon="10.678908671767813"><ele>343.6666666666667</ele><time>2026-05-03T11:45:48Z</time></trkpt><trkpt lat="43.16207049781375" lon="10.678919010298426"><ele>344.0</ele><time>2026-05-03T11:45:49Z</time></trkpt><trkpt lat="43.161913684942114" lon="10.678934571575867"><ele>344.0</ele><time>2026-05-03T11:45:50Z</time></trkpt><trkpt lat="43.1617656401662" lon="10.678939856567043"><ele>344.0</ele><time>2026-05-03T11:45:51Z</time></trkpt><trkpt lat="43.16162885444609" lon="10.678936962270116"><ele>344.0</ele><time>2026-05-03T11:45:52Z</time></trkpt><trkpt lat="43.16149737252399" lon="10.678923936943736"><ele>344.0</ele><time>2026-05-03T11:45:53Z</time></trkpt><trkpt lat="43.16137226109274" lon="10.678887208492906"><ele>343.25</ele><time>2026-05-03T11:45:54Z</time></trkpt><trkpt lat="43.16126239754471" lon="10.678823793566218"><ele>342.5</ele><time>2026-05-03T11:45:55Z</time></trkpt><trkpt lat="43.16116885964141" lon="10.678742473672253"><ele>341.75</ele><time>2026-05-03T11:45:56Z</time></trkpt><trkpt lat="43.16109001342043" lon="10.678628054066223"><ele>341.0</ele><time>2026-05-03T11:45:57Z</time></trkpt><trkpt lat="43.161020883608" lon="10.67849002824057"><ele>341.0</ele><time>2026-05-03T11:45:58Z</time></trkpt><trkpt lat="43.16097596388533" lon="10.678328741434651"><ele>341.0</ele><time>2026-05-03T11:45:59Z</time></trkpt><trkpt lat="43.1609552169262" lon="10.678162382842212"><ele>341.0</ele><time>2026-05-03T11:46:00Z</time></trkpt><trkpt lat="43.16094150891244" lon="10.678012590117358"><ele>341.0</ele><time>2026-05-03T11:46:01Z</time></trkpt><trkpt lat="43.160914662199716" lon="10.677861858934273"><ele>341.25</ele><time>2026-05-03T11:46:02Z</time></trkpt><trkpt lat="43.16085333483702" lon="10.677713762634296"><ele>341.5</ele><time>2026-05-03T11:46:03Z</time></trkpt><trkpt lat="43.1607736451423" lon="10.677578747101947"><ele>341.75</ele><time>2026-05-03T11:46:04Z</time></trkpt><trkpt lat="43.16068184676462" lon="10.67747943465544"><ele>342.0</ele><time>2026-05-03T11:46:05Z</time></trkpt><trkpt lat="43.16057566135391" lon="10.677421590637923"><ele>342.0</ele><time>2026-05-03T11:46:06Z</time></trkpt><trkpt lat="43.16045958259744" lon="10.677406160246564"><ele>342.0</ele><time>2026-05-03T11:46:07Z</time></trkpt><trkpt lat="43.16033519049193" lon="10.677401905603634"><ele>342.0</ele><time>2026-05-03T11:46:08Z</time></trkpt><trkpt lat="43.16020468427481" lon="10.677383098760979"><ele>342.0</ele><time>2026-05-03T11:46:09Z</time></trkpt><trkpt lat="43.16009107045096" lon="10.677337984288206"><ele>342.0</ele><time>2026-05-03T11:46:10Z</time></trkpt><trkpt lat="43.159983967888756" lon="10.67725753436773"><ele>342.0</ele><time>2026-05-03T11:46:11Z</time></trkpt><trkpt lat="43.15987328694303" lon="10.677146388276427"><ele>342.0</ele><time>2026-05-03T11:46:12Z</time></trkpt><trkpt lat="43.15976434517455" lon="10.677039505127125"><ele>342.0</ele><time>2026-05-03T11:46:13Z</time></trkpt><trkpt lat="43.15965004115292" lon="10.676927438656797"><ele>342.3333333333333</ele><time>2026-05-03T11:46:14Z</time></trkpt><trkpt lat="43.15952652183691" lon="10.676809169553847"><ele>342.66666666666663</ele><time>2026-05-03T11:46:15Z</time></trkpt><trkpt lat="43.1594047705123" lon="10.676681559938467"><ele>343.0</ele><time>2026-05-03T11:46:16Z</time></trkpt><trkpt lat="43.15928153180406" lon="10.676570384486599"><ele>343.0</ele><time>2026-05-03T11:46:17Z</time></trkpt><trkpt lat="43.15915643897241" lon="10.676453275526791"><ele>343.0</ele><time>2026-05-03T11:46:18Z</time></trkpt><trkpt lat="43.15903210218394" lon="10.676339317075925"><ele>343.0</ele><time>2026-05-03T11:46:19Z</time></trkpt><trkpt lat="43.158916366841204" lon="10.676222925616987"><ele>343.0</ele><time>2026-05-03T11:46:20Z</time></trkpt><trkpt lat="43.15881510420859" lon="10.676081407087269"><ele>341.0</ele><time>2026-05-03T11:46:21Z</time></trkpt><trkpt lat="43.1587161740059" lon="10.675924056564574"><ele>339.0</ele><time>2026-05-03T11:46:22Z</time></trkpt><trkpt lat="43.158621112677736" lon="10.67576000581754"><ele>337.0</ele><time>2026-05-03T11:46:23.001Z</time></trkpt><trkpt lat="43.15852348258444" lon="10.675595430899193"><ele>337.0</ele><time>2026-05-03T11:46:24.001Z</time></trkpt><trkpt lat="43.15842560458041" lon="10.675433032117716"><ele>337.0</ele><time>2026-05-03T11:46:25.001Z</time></trkpt><trkpt lat="43.15833257081354" lon="10.675287453649336"><ele>337.0</ele><time>2026-05-03T11:46:26.001Z</time></trkpt><trkpt lat="43.15824803037586" lon="10.67514459629281"><ele>337.0</ele><time>2026-05-03T11:46:27.001Z</time></trkpt><trkpt lat="43.158160595115795" lon="10.675013827796931"><ele>337.75</ele><time>2026-05-03T11:46:28.001Z</time></trkpt><trkpt lat="43.15806090188828" lon="10.67492160896278"><ele>338.5</ele><time>2026-05-03T11:46:29.001Z</time></trkpt><trkpt lat="43.157950615939384" lon="10.674862280625135"><ele>339.25</ele><time>2026-05-03T11:46:30.001Z</time></trkpt><trkpt lat="43.15783320385547" lon="10.674837092362491"><ele>340.0</ele><time>2026-05-03T11:46:31.001Z</time></trkpt><trkpt lat="43.157713091988384" lon="10.674828438470565"><ele>340.0</ele><time>2026-05-03T11:46:32.001Z</time></trkpt><trkpt lat="43.157584347435105" lon="10.67482352166619"><ele>340.0</ele><time>2026-05-03T11:46:33.001Z</time></trkpt><trkpt lat="43.15746606584538" lon="10.674835341790814"><ele>340.0</ele><time>2026-05-03T11:46:34.001Z</time></trkpt><trkpt lat="43.157357981702454" lon="10.674876369013546"><ele>340.0</ele><time>2026-05-03T11:46:35.001Z</time></trkpt><trkpt lat="43.157257906435674" lon="10.67494875741961"><ele>343.75</ele><time>2026-05-03T11:46:36.001Z</time></trkpt><trkpt lat="43.157172489619086" lon="10.675058223285735"><ele>347.5</ele><time>2026-05-03T11:46:37.001Z</time></trkpt><trkpt lat="43.157106722188" lon="10.675193402829285"><ele>351.25</ele><time>2026-05-03T11:46:38.001Z</time></trkpt><trkpt lat="43.157070388558026" lon="10.67535339398303"><ele>355.0</ele><time>2026-05-03T11:46:39.001Z</time></trkpt><trkpt lat="43.157047012397975" lon="10.675529478130825"><ele>355.0</ele><time>2026-05-03T11:46:40.001Z</time></trkpt><trkpt lat="43.15703790861504" lon="10.67570937119257"><ele>355.0</ele><time>2026-05-03T11:46:41.001Z</time></trkpt><trkpt lat="43.15702529965502" lon="10.675888144910672"><ele>355.0</ele><time>2026-05-03T11:46:42.001Z</time></trkpt><trkpt lat="43.15700131244827" lon="10.676064946770467"><ele>355.0</ele><time>2026-05-03T11:46:43.001Z</time></trkpt><trkpt lat="43.156971654253624" lon="10.676222877865618"><ele>352.0</ele><time>2026-05-03T11:46:44.001Z</time></trkpt><trkpt lat="43.156927368316445" lon="10.67635959285079"><ele>349.0</ele><time>2026-05-03T11:46:45.001Z</time></trkpt><trkpt lat="43.15686929498907" lon="10.676468525346776"><ele>346.0</ele><time>2026-05-03T11:46:46.001Z</time></trkpt><trkpt lat="43.1567897809466" lon="10.676560330598313"><ele>343.0</ele><time>2026-05-03T11:46:47.001Z</time></trkpt><trkpt lat="43.15669423570197" lon="10.676634769010445"><ele>340.0</ele><time>2026-05-03T11:46:48.001Z</time></trkpt><trkpt lat="43.15658641310106" lon="10.676690064848392"><ele>340.0</ele><time>2026-05-03T11:46:49.001Z</time></trkpt><trkpt lat="43.156470464659904" lon="10.676717087355375"><ele>340.0</ele><time>2026-05-03T11:46:50.001Z</time></trkpt><trkpt lat="43.156344956182416" lon="10.676716894880176"><ele>340.0</ele><time>2026-05-03T11:46:51.001Z</time></trkpt><trkpt lat="43.156207466192235" lon="10.676702468076904"><ele>340.0</ele><time>2026-05-03T11:46:52.001Z</time></trkpt><trkpt lat="43.156062662537195" lon="10.67668249189789"><ele>340.0</ele><time>2026-05-03T11:46:53Z</time></trkpt><trkpt lat="43.15592815658798" lon="10.676656933647212"><ele>340.0</ele><time>2026-05-03T11:46:54Z</time></trkpt><trkpt lat="43.15579292951103" lon="10.676636462119381"><ele>340.0</ele><time>2026-05-03T11:46:55Z</time></trkpt><trkpt lat="43.155659884224534" lon="10.67661711158907"><ele>340.0</ele><time>2026-05-03T11:46:56Z</time></trkpt><trkpt lat="43.155530966290875" lon="10.676594269164793"><ele>340.25</ele><time>2026-05-03T11:46:57Z</time></trkpt><trkpt lat="43.155407132090744" lon="10.676572362907397"><ele>340.5</ele><time>2026-05-03T11:46:58Z</time></trkpt><trkpt lat="43.15527938698155" lon="10.676556292562573"><ele>340.75</ele><time>2026-05-03T11:46:59Z</time></trkpt><trkpt lat="43.15514568942219" lon="10.676534373489803"><ele>341.0</ele><time>2026-05-03T11:47:00Z</time></trkpt><trkpt lat="43.155018303746445" lon="10.676517585477187"><ele>341.0</ele><time>2026-05-03T11:47:01Z</time></trkpt><trkpt lat="43.154896361859784" lon="10.676508431640615"><ele>341.0</ele><time>2026-05-03T11:47:02Z</time></trkpt><trkpt lat="43.154779222171705" lon="10.6765371804026"><ele>341.0</ele><time>2026-05-03T11:47:03Z</time></trkpt><trkpt lat="43.154669524555956" lon="10.676585484096817"><ele>341.0</ele><time>2026-05-03T11:47:04Z</time></trkpt><trkpt lat="43.154569488764906" lon="10.676665226653084"><ele>340.75</ele><time>2026-05-03T11:47:05Z</time></trkpt><trkpt lat="43.15447271352427" lon="10.676763136069782"><ele>340.5</ele><time>2026-05-03T11:47:06Z</time></trkpt><trkpt lat="43.154378835031736" lon="10.676884645843039"><ele>340.25</ele><time>2026-05-03T11:47:07Z</time></trkpt><trkpt lat="43.15428829141836" lon="10.677016833862048"><ele>340.0</ele><time>2026-05-03T11:47:08Z</time></trkpt><trkpt lat="43.15420258344305" lon="10.677143165691184"><ele>340.0</ele><time>2026-05-03T11:47:09Z</time></trkpt><trkpt lat="43.15411097370814" lon="10.677246976906902"><ele>340.0</ele><time>2026-05-03T11:47:10Z</time></trkpt><trkpt lat="43.15401049440738" lon="10.677332435773499"><ele>340.0</ele><time>2026-05-03T11:47:11Z</time></trkpt><trkpt lat="43.153901481947024" lon="10.677395753803115"><ele>340.0</ele><time>2026-05-03T11:47:12Z</time></trkpt><trkpt lat="43.153789571676604" lon="10.677427469253018"><ele>339.0</ele><time>2026-05-03T11:47:13Z</time></trkpt><trkpt lat="43.15368805370669" lon="10.6774344318518"><ele>338.0</ele><time>2026-05-03T11:47:14Z</time></trkpt><trkpt lat="43.15359405231913" lon="10.677420285746107"><ele>337.0</ele><time>2026-05-03T11:47:15Z</time></trkpt><trkpt lat="43.15349685943921" lon="10.677383086838423"><ele>336.0</ele><time>2026-05-03T11:47:16Z</time></trkpt><trkpt lat="43.153398756969025" lon="10.677315971525465"><ele>335.0</ele><time>2026-05-03T11:47:17Z</time></trkpt><trkpt lat="43.15330484177691" lon="10.677214174680419"><ele>335.0</ele><time>2026-05-03T11:47:18Z</time></trkpt><trkpt lat="43.15320933228315" lon="10.67709623631876"><ele>335.0</ele><time>2026-05-03T11:47:19Z</time></trkpt><trkpt lat="43.15311003419175" lon="10.676980800122926"><ele>335.0</ele><time>2026-05-03T11:47:20Z</time></trkpt><trkpt lat="43.15300578501059" lon="10.67688824041397"><ele>335.0</ele><time>2026-05-03T11:47:21Z</time></trkpt><trkpt lat="43.15288536691823" lon="10.676813844545446"><ele>336.25</ele><time>2026-05-03T11:47:22Z</time></trkpt><trkpt lat="43.15275266491658" lon="10.676749717188123"><ele>337.5</ele><time>2026-05-03T11:47:23Z</time></trkpt><trkpt lat="43.152611022614714" lon="10.676695342299972"><ele>338.75</ele><time>2026-05-03T11:47:24Z</time></trkpt><trkpt lat="43.15247683514569" lon="10.676653389477007"><ele>340.0</ele><time>2026-05-03T11:47:25Z</time></trkpt><trkpt lat="43.15235316562923" lon="10.676611565446402"><ele>337.25</ele><time>2026-05-03T11:47:26Z</time></trkpt><trkpt lat="43.15223472652242" lon="10.676568836188503"><ele>334.5</ele><time>2026-05-03T11:47:27Z</time></trkpt><trkpt lat="43.15212951503641" lon="10.676510393477592"><ele>331.75</ele><time>2026-05-03T11:47:28Z</time></trkpt><trkpt lat="43.15203844412509" lon="10.676429642469303"><ele>329.0</ele><time>2026-05-03T11:47:29Z</time></trkpt><trkpt lat="43.15196137371113" lon="10.67632902037682"><ele>329.0</ele><time>2026-05-03T11:47:30Z</time></trkpt><trkpt lat="43.15190196427185" lon="10.676216319026977"><ele>329.0</ele><time>2026-05-03T11:47:31Z</time></trkpt><trkpt lat="43.15184859608806" lon="10.67608541315513"><ele>329.0</ele><time>2026-05-03T11:47:32Z</time></trkpt><trkpt lat="43.151808972946604" lon="10.675940348158552"><ele>329.0</ele><time>2026-05-03T11:47:33Z</time></trkpt><trkpt lat="43.151790529346925" lon="10.675814282078596"><ele>329.0</ele><time>2026-05-03T11:47:34Z</time></trkpt><trkpt lat="43.15177273568929" lon="10.675729087250478"><ele>329.6666666666667</ele><time>2026-05-03T11:47:35Z</time></trkpt><trkpt lat="43.15175394110503" lon="10.675631448218386"><ele>330.33333333333337</ele><time>2026-05-03T11:47:37Z</time></trkpt><trkpt lat="43.151636542104164" lon="10.675713859398765"><ele>331.0</ele><time>2026-05-03T11:47:40Z</time></trkpt><trkpt lat="43.151636488385485" lon="10.675802006828008"><ele>331.6666666666667</ele><time>2026-05-03T11:47:41Z</time></trkpt><trkpt lat="43.1516699720862" lon="10.675885187888085"><ele>332.3333333333333</ele><time>2026-05-03T11:47:42Z</time></trkpt><trkpt lat="43.15167398276393" lon="10.675973116979549"><ele>333.0</ele><time>2026-05-03T11:47:43Z</time></trkpt><trkpt lat="43.151694792419946" lon="10.676062076098164"><ele>332.3333333333333</ele><time>2026-05-03T11:47:44Z</time></trkpt><trkpt lat="43.15171954635442" lon="10.67616789674446"><ele>331.6666666666667</ele><time>2026-05-03T11:47:45Z</time></trkpt><trkpt lat="43.15175742515768" lon="10.676277539486708"><ele>331.0</ele><time>2026-05-03T11:47:46Z</time></trkpt><trkpt lat="43.15177303249305" lon="10.676392938676074"><ele>330.33333333333337</ele><time>2026-05-03T11:47:47Z</time></trkpt><trkpt lat="43.15179366912672" lon="10.676506657996564"><ele>329.6666666666667</ele><time>2026-05-03T11:47:48Z</time></trkpt><trkpt lat="43.15181798086582" lon="10.676614355608825"><ele>329.0</ele><time>2026-05-03T11:47:49Z</time></trkpt><trkpt lat="43.15181684184094" lon="10.676719454702907"><ele>329.0</ele><time>2026-05-03T11:47:50Z</time></trkpt><trkpt lat="43.15182832512092" lon="10.676818931827274"><ele>329.0</ele><time>2026-05-03T11:47:51Z</time></trkpt><trkpt lat="43.15182557380859" lon="10.676911618293198"><ele>329.0</ele><time>2026-05-03T11:47:52Z</time></trkpt><trkpt lat="43.151815145363805" lon="10.677014838587915"><ele>329.0</ele><time>2026-05-03T11:47:53Z</time></trkpt><trkpt lat="43.151771119971926" lon="10.67713004026241"><ele>329.0</ele><time>2026-05-03T11:47:54Z</time></trkpt><trkpt lat="43.15171718439227" lon="10.677262577247335"><ele>329.0</ele><time>2026-05-03T11:47:55Z</time></trkpt><trkpt lat="43.15166777014951" lon="10.677391006323711"><ele>327.6</ele><time>2026-05-03T11:47:56Z</time></trkpt><trkpt lat="43.151623632663394" lon="10.677518283031617"><ele>326.2</ele><time>2026-05-03T11:47:57Z</time></trkpt><trkpt lat="43.15157734369882" lon="10.677645949410234"><ele>324.8</ele><time>2026-05-03T11:47:58Z</time></trkpt><trkpt lat="43.151531979704615" lon="10.67777250679975"><ele>323.40000000000003</ele><time>2026-05-03T11:47:59Z</time></trkpt><trkpt lat="43.15148597470021" lon="10.677901576575216"><ele>322.0</ele><time>2026-05-03T11:48:00Z</time></trkpt><trkpt lat="43.15144208134134" lon="10.678031123263187"><ele>318.8333333333333</ele><time>2026-05-03T11:48:01Z</time></trkpt><trkpt lat="43.1513980599987" lon="10.678157385716347"><ele>315.66666666666663</ele><time>2026-05-03T11:48:02Z</time></trkpt><trkpt lat="43.15135316338257" lon="10.678268444035718"><ele>312.5</ele><time>2026-05-03T11:48:03Z</time></trkpt><trkpt lat="43.151319162422745" lon="10.678361112874592"><ele>309.3333333333333</ele><time>2026-05-03T11:48:04Z</time></trkpt><trkpt lat="43.151287845682724" lon="10.67844449901176"><ele>306.1666666666667</ele><time>2026-05-03T11:48:05Z</time></trkpt><trkpt lat="43.1512574827286" lon="10.678523953199049"><ele>303.0</ele><time>2026-05-03T11:48:06Z</time></trkpt><trkpt lat="43.15122450255248" lon="10.67860266065902"><ele>302.8</ele><time>2026-05-03T11:48:07Z</time></trkpt><trkpt lat="43.151164597557546" lon="10.678744985816506"><ele>302.6</ele><time>2026-05-03T11:48:09Z</time></trkpt><trkpt lat="43.151097398225716" lon="10.678859956752097"><ele>302.4</ele><time>2026-05-03T11:48:11Z</time></trkpt><trkpt lat="43.15109784770125" lon="10.67894854513497"><ele>302.2</ele><time>2026-05-03T11:48:12Z</time></trkpt><trkpt lat="43.15109529032341" lon="10.67912265732354"><ele>302.0</ele><time>2026-05-03T11:48:14Z</time></trkpt><trkpt lat="43.151093638312496" lon="10.67927226182442"><ele>302.0</ele><time>2026-05-03T11:48:16Z</time></trkpt><trkpt lat="43.151076134585026" lon="10.679384819283147"><ele>302.0</ele><time>2026-05-03T11:48:18.001Z</time></trkpt><trkpt lat="43.15096395010489" lon="10.679458547426597"><ele>302.0</ele><time>2026-05-03T11:48:20.001Z</time></trkpt><trkpt lat="43.15088650981013" lon="10.679509145061063"><ele>302.0</ele><time>2026-05-03T11:48:21.001Z</time></trkpt><trkpt lat="43.15080448698834" lon="10.679566217258929"><ele>302.0</ele><time>2026-05-03T11:48:22.001Z</time></trkpt><trkpt lat="43.15072107898593" lon="10.67962376326399"><ele>298.83333333333337</ele><time>2026-05-03T11:48:23.001Z</time></trkpt><trkpt lat="43.15064272032283" lon="10.679678634297758"><ele>295.6666666666667</ele><time>2026-05-03T11:48:24.001Z</time></trkpt><trkpt lat="43.1505697285958" lon="10.679744968361437"><ele>292.5</ele><time>2026-05-03T11:48:25.001Z</time></trkpt><trkpt lat="43.15049686561554" lon="10.679812574140938"><ele>289.3333333333333</ele><time>2026-05-03T11:48:26.001Z</time></trkpt><trkpt lat="43.1504605675623" lon="10.679930611023757"><ele>286.16666666666663</ele><time>2026-05-03T11:48:27.001Z</time></trkpt><trkpt lat="43.15041082943695" lon="10.68003278600582"><ele>283.0</ele><time>2026-05-03T11:48:28.001Z</time></trkpt><trkpt lat="43.15038967639941" lon="10.680154971064114"><ele>282.4</ele><time>2026-05-03T11:48:29.001Z</time></trkpt><trkpt lat="43.150401092177724" lon="10.680278448409165"><ele>281.8</ele><time>2026-05-03T11:48:30.001Z</time></trkpt><trkpt lat="43.15039681675554" lon="10.680401703888815"><ele>281.2</ele><time>2026-05-03T11:48:31.001Z</time></trkpt><trkpt lat="43.15037680933803" lon="10.680522560466173"><ele>280.6</ele><time>2026-05-03T11:48:32.001Z</time></trkpt><trkpt lat="43.15036721624965" lon="10.680648613337548"><ele>280.0</ele><time>2026-05-03T11:48:33.001Z</time></trkpt><trkpt lat="43.1503564053196" lon="10.680766925670225"><ele>280.0</ele><time>2026-05-03T11:48:34.001Z</time></trkpt><trkpt lat="43.15034374297809" lon="10.68089707449161"><ele>280.0</ele><time>2026-05-03T11:48:35.001Z</time></trkpt><trkpt lat="43.150344842832006" lon="10.681026141823374"><ele>280.0</ele><time>2026-05-03T11:48:36.001Z</time></trkpt><trkpt lat="43.15032525026132" lon="10.681149949984993"><ele>280.0</ele><time>2026-05-03T11:48:37.001Z</time></trkpt><trkpt lat="43.15031048666766" lon="10.681276890329745"><ele>280.0</ele><time>2026-05-03T11:48:38.001Z</time></trkpt><trkpt lat="43.15030471297965" lon="10.681410675704344"><ele>278.8</ele><time>2026-05-03T11:48:39.001Z</time></trkpt><trkpt lat="43.150293267283004" lon="10.681536376535004"><ele>277.6</ele><time>2026-05-03T11:48:40.001Z</time></trkpt><trkpt lat="43.150282715898996" lon="10.681660963022034"><ele>276.4</ele><time>2026-05-03T11:48:41.001Z</time></trkpt><trkpt lat="43.150266628050126" lon="10.681782129317758"><ele>275.2</ele><time>2026-05-03T11:48:42.001Z</time></trkpt><trkpt lat="43.150251063151295" lon="10.68190556360003"><ele>274.0</ele><time>2026-05-03T11:48:43.001Z</time></trkpt><trkpt lat="43.15023490305445" lon="10.68202757488839"><ele>273.0</ele><time>2026-05-03T11:48:44.001Z</time></trkpt><trkpt lat="43.150225246796765" lon="10.682148334414808"><ele>272.0</ele><time>2026-05-03T11:48:45.001Z</time></trkpt><trkpt lat="43.15021971961612" lon="10.682271352272167"><ele>271.0</ele><time>2026-05-03T11:48:46.001Z</time></trkpt><trkpt lat="43.15021488562936" lon="10.682400048108496"><ele>270.0</ele><time>2026-05-03T11:48:47.001Z</time></trkpt><trkpt lat="43.15020870975607" lon="10.682530483520598"><ele>269.0</ele><time>2026-05-03T11:48:48.001Z</time></trkpt><trkpt lat="43.15020508203387" lon="10.682662993323634"><ele>267.8</ele><time>2026-05-03T11:48:49.001Z</time></trkpt><trkpt lat="43.150201212559246" lon="10.682806060862523"><ele>266.59999999999997</ele><time>2026-05-03T11:48:50.001Z</time></trkpt><trkpt lat="43.15020149897676" lon="10.682941759283317"><ele>265.4</ele><time>2026-05-03T11:48:51.001Z</time></trkpt><trkpt lat="43.15020447441022" lon="10.683068285236223"><ele>264.2</ele><time>2026-05-03T11:48:52.001Z</time></trkpt><trkpt lat="43.150208580334414" lon="10.683176476024865"><ele>263.0</ele><time>2026-05-03T11:48:53.001Z</time></trkpt><trkpt lat="43.150212544038126" lon="10.68327897852319"><ele>263.0</ele><time>2026-05-03T11:48:54.001Z</time></trkpt><trkpt lat="43.150201292216906" lon="10.683431756968096"><ele>263.0</ele><time>2026-05-03T11:48:56.001Z</time></trkpt><trkpt lat="43.15013597264245" lon="10.683513746482399"><ele>263.0</ele><time>2026-05-03T11:48:58.001Z</time></trkpt><trkpt lat="43.150072341739275" lon="10.683517185390063"><ele>263.0</ele><time>2026-05-03T11:48:59Z</time></trkpt><trkpt lat="43.149992497606775" lon="10.68348021017185"><ele>263.0</ele><time>2026-05-03T11:49:00Z</time></trkpt><trkpt lat="43.14989784786838" lon="10.683434859342865"><ele>263.0</ele><time>2026-05-03T11:49:01Z</time></trkpt><trkpt lat="43.149829097524226" lon="10.683409418993804"><ele>260.0</ele><time>2026-05-03T11:49:02Z</time></trkpt><trkpt lat="43.14972152123964" lon="10.683435778903545"><ele>257.0</ele><time>2026-05-03T11:49:04Z</time></trkpt><trkpt lat="43.14967282503459" lon="10.683505234344134"><ele>254.0</ele><time>2026-05-03T11:49:05Z</time></trkpt><trkpt lat="43.149626140918976" lon="10.68367200433091"><ele>251.0</ele><time>2026-05-03T11:49:07Z</time></trkpt><trkpt lat="43.14961252206956" lon="10.683758894979402"><ele>248.0</ele><time>2026-05-03T11:49:08Z</time></trkpt><trkpt lat="43.14965341958773" lon="10.683894190079148"><ele>248.00000000000003</ele><time>2026-05-03T11:49:10Z</time></trkpt><trkpt lat="43.14968600484465" lon="10.683973975014371"><ele>248.0</ele><time>2026-05-03T11:49:11Z</time></trkpt><trkpt lat="43.14974409985267" lon="10.684081058584058"><ele>248.0</ele><time>2026-05-03T11:49:13Z</time></trkpt><trkpt lat="43.149744892943055" lon="10.684217028850172"><ele>248.0</ele><time>2026-05-03T11:49:15Z</time></trkpt><trkpt lat="43.14974654358405" lon="10.684343412396919"><ele>248.00000000000003</ele><time>2026-05-03T11:49:16Z</time></trkpt><trkpt lat="43.14973040549308" lon="10.684468578724445"><ele>248.0</ele><time>2026-05-03T11:49:17Z</time></trkpt><trkpt lat="43.14971655663443" lon="10.684587856917712"><ele>247.16666666666669</ele><time>2026-05-03T11:49:18Z</time></trkpt><trkpt lat="43.14970328529646" lon="10.684702756836758"><ele>246.33333333333334</ele><time>2026-05-03T11:49:19Z</time></trkpt><trkpt lat="43.14967617617714" lon="10.684806181662351"><ele>245.5</ele><time>2026-05-03T11:49:20Z</time></trkpt><trkpt lat="43.14963776926978" lon="10.684911226267245"><ele>244.66666666666669</ele><time>2026-05-03T11:49:21Z</time></trkpt><trkpt lat="43.14959559834835" lon="10.685023807317933"><ele>243.83333333333334</ele><time>2026-05-03T11:49:22Z</time></trkpt><trkpt lat="43.14954723010353" lon="10.685130864276086"><ele>243.0</ele><time>2026-05-03T11:49:23Z</time></trkpt><trkpt lat="43.14950486832051" lon="10.685231401609972"><ele>241.0</ele><time>2026-05-03T11:49:24Z</time></trkpt><trkpt lat="43.14945548523906" lon="10.685329128334667"><ele>239.0</ele><time>2026-05-03T11:49:25Z</time></trkpt><trkpt lat="43.14939813126235" lon="10.685426422580269"><ele>237.0</ele><time>2026-05-03T11:49:26Z</time></trkpt><trkpt lat="43.14933761770252" lon="10.685529064615704"><ele>235.0</ele><time>2026-05-03T11:49:27Z</time></trkpt><trkpt lat="43.14927084966171" lon="10.685631423257606"><ele>233.0</ele><time>2026-05-03T11:49:28Z</time></trkpt><trkpt lat="43.149213536860785" lon="10.68573775999041"><ele>233.0</ele><time>2026-05-03T11:49:29Z</time></trkpt><trkpt lat="43.14915367950993" lon="10.685834549843701"><ele>233.0</ele><time>2026-05-03T11:49:30Z</time></trkpt><trkpt lat="43.14910467349128" lon="10.68590556000608"><ele>233.0</ele><time>2026-05-03T11:49:31Z</time></trkpt><trkpt lat="43.14902662955874" lon="10.686024420529566"><ele>233.0</ele><time>2026-05-03T11:49:33Z</time></trkpt><trkpt lat="43.148969220400446" lon="10.686133550374052"><ele>233.0</ele><time>2026-05-03T11:49:35Z</time></trkpt><trkpt lat="43.14893132524967" lon="10.686301212847072"><ele>230.2</ele><time>2026-05-03T11:49:37Z</time></trkpt><trkpt lat="43.14891413032669" lon="10.686396916575411"><ele>227.4</ele><time>2026-05-03T11:49:38Z</time></trkpt><trkpt lat="43.14890255986309" lon="10.686495315719368"><ele>224.59999999999997</ele><time>2026-05-03T11:49:39Z</time></trkpt><trkpt lat="43.14882432976691" lon="10.686632795939977"><ele>221.79999999999998</ele><time>2026-05-03T11:49:41Z</time></trkpt><trkpt lat="43.14874370305139" lon="10.686691895422129"><ele>219.0</ele><time>2026-05-03T11:49:42Z</time></trkpt><trkpt lat="43.14868319751471" lon="10.686792453823735"><ele>219.0</ele><time>2026-05-03T11:49:43Z</time></trkpt><trkpt lat="43.14866710598029" lon="10.686917477800527"><ele>219.0</ele><time>2026-05-03T11:49:44Z</time></trkpt><trkpt lat="43.148625665265044" lon="10.687006114423234"><ele>219.0</ele><time>2026-05-03T11:49:45Z</time></trkpt><trkpt lat="43.148576693232876" lon="10.687091456971318"><ele>219.0</ele><time>2026-05-03T11:49:46Z</time></trkpt><trkpt lat="43.1485145080339" lon="10.687180694799574"><ele>219.0</ele><time>2026-05-03T11:49:47Z</time></trkpt><trkpt lat="43.14844691871519" lon="10.687245088659548"><ele>219.0</ele><time>2026-05-03T11:49:48Z</time></trkpt><trkpt lat="43.14839999901498" lon="10.687318761923922"><ele>218.83333333333334</ele><time>2026-05-03T11:49:49Z</time></trkpt><trkpt lat="43.14835080562569" lon="10.687488005714219"><ele>218.66666666666669</ele><time>2026-05-03T11:49:51Z</time></trkpt><trkpt lat="43.14834863678348" lon="10.68758726014368"><ele>218.5</ele><time>2026-05-03T11:49:52Z</time></trkpt><trkpt lat="43.14831979396219" lon="10.68766977143849"><ele>218.33333333333334</ele><time>2026-05-03T11:49:53Z</time></trkpt><trkpt lat="43.14825745183183" lon="10.687730199372112"><ele>218.16666666666669</ele><time>2026-05-03T11:49:54Z</time></trkpt><trkpt lat="43.14820062196207" lon="10.687811266192243"><ele>218.0</ele><time>2026-05-03T11:49:55Z</time></trkpt><trkpt lat="43.14816691726454" lon="10.687892387961378"><ele>216.0</ele><time>2026-05-03T11:49:56Z</time></trkpt><trkpt lat="43.148146737361124" lon="10.687975241507074"><ele>214.0</ele><time>2026-05-03T11:49:57Z</time></trkpt><trkpt lat="43.148128459798606" lon="10.688099306525665"><ele>212.0</ele><time>2026-05-03T11:49:59Z</time></trkpt><trkpt lat="43.14773698563027" lon="10.688437145868988"><ele>212.0</ele><time>2026-05-03T11:50:11Z</time></trkpt><trkpt lat="43.147680105911604" lon="10.688490016265654"><ele>212.0</ele><time>2026-05-03T11:50:12Z</time></trkpt><trkpt lat="43.14759395919608" lon="10.688576546036218"><ele>212.0</ele><time>2026-05-03T11:50:14Z</time></trkpt><trkpt lat="43.147485926817275" lon="10.688640423349153"><ele>212.0</ele><time>2026-05-03T11:50:16Z</time></trkpt><trkpt lat="43.14738862179308" lon="10.68865576559936"><ele>212.0</ele><time>2026-05-03T11:50:18Z</time></trkpt><trkpt lat="43.14731136940165" lon="10.688733318884543"><ele>211.33333333333334</ele><time>2026-05-03T11:50:21Z</time></trkpt><trkpt lat="43.14724836419237" lon="10.688814499316623"><ele>210.66666666666669</ele><time>2026-05-03T11:50:23Z</time></trkpt><trkpt lat="43.14714575784213" lon="10.688856973728551"><ele>210.0</ele><time>2026-05-03T11:50:26.001Z</time></trkpt><trkpt lat="43.14711157890578" lon="10.688936823346255"><ele>209.33333333333331</ele><time>2026-05-03T11:50:28.001Z</time></trkpt><trkpt lat="43.14705976368711" lon="10.689016302566957"><ele>208.66666666666666</ele><time>2026-05-03T11:50:30.001Z</time></trkpt><trkpt lat="43.147016995914065" lon="10.689111510384524"><ele>208.0</ele><time>2026-05-03T11:50:33.001Z</time></trkpt><trkpt lat="43.14698103219444" lon="10.68921706050225"><ele>208.0</ele><time>2026-05-03T11:50:35.001Z</time></trkpt><trkpt lat="43.1469519874102" lon="10.68937605231926"><ele>208.0</ele><time>2026-05-03T11:50:37.001Z</time></trkpt><trkpt lat="43.146881706976856" lon="10.689487928868008"><ele>208.0</ele><time>2026-05-03T11:50:39.001Z</time></trkpt><trkpt lat="43.14679476309656" lon="10.68960074199192"><ele>208.0</ele><time>2026-05-03T11:50:43.001Z</time></trkpt><trkpt lat="43.146763013244716" lon="10.689698296276177"><ele>208.0</ele><time>2026-05-03T11:50:44.001Z</time></trkpt><trkpt lat="43.146706369818524" lon="10.689755027175954"><ele>207.4</ele><time>2026-05-03T11:50:45.001Z</time></trkpt><trkpt lat="43.14663399455169" lon="10.689856343774258"><ele>206.8</ele><time>2026-05-03T11:50:46.001Z</time></trkpt><trkpt lat="43.14656210941702" lon="10.689930720688519"><ele>206.2</ele><time>2026-05-03T11:50:47.001Z</time></trkpt><trkpt lat="43.14658407536032" lon="10.690068071013414"><ele>205.6</ele><time>2026-05-03T11:50:50.001Z</time></trkpt><trkpt lat="43.14659224751983" lon="10.690215411380285"><ele>205.0</ele><time>2026-05-03T11:50:52.001Z</time></trkpt><trkpt lat="43.146593320106035" lon="10.690337339018736"><ele>204.99999999999997</ele><time>2026-05-03T11:50:54.001Z</time></trkpt><trkpt lat="43.14659316214511" lon="10.69046439922157"><ele>205.0</ele><time>2026-05-03T11:50:56.001Z</time></trkpt><trkpt lat="43.14662339729187" lon="10.690590817939809"><ele>205.0</ele><time>2026-05-03T11:50:59.001Z</time></trkpt><trkpt lat="43.1465836851628" lon="10.690685369989597"><ele>205.0</ele><time>2026-05-03T11:51:01.001Z</time></trkpt><trkpt lat="43.14658525247645" lon="10.690836867866253"><ele>204.99999999999997</ele><time>2026-05-03T11:51:03.001Z</time></trkpt><trkpt lat="43.14657513579637" lon="10.69092576978727"><ele>205.0</ele><time>2026-05-03T11:51:04.001Z</time></trkpt><trkpt lat="43.146636409840355" lon="10.691056202469584"><ele>205.66666666666666</ele><time>2026-05-03T11:51:06Z</time></trkpt><trkpt lat="43.14667412568387" lon="10.691182125249123"><ele>206.33333333333331</ele><time>2026-05-03T11:51:08Z</time></trkpt><trkpt lat="43.14674843880681" lon="10.691242689257358"><ele>207.0</ele><time>2026-05-03T11:51:10Z</time></trkpt><trkpt lat="43.1467882669511" lon="10.69131298591331"><ele>207.66666666666669</ele><time>2026-05-03T11:51:12Z</time></trkpt><trkpt lat="43.1467257829103" lon="10.691376784010826"><ele>208.33333333333334</ele><time>2026-05-03T11:51:15Z</time></trkpt><trkpt lat="43.14668158794469" lon="10.691527361958489"><ele>209.0</ele><time>2026-05-03T11:51:17Z</time></trkpt><trkpt lat="43.146643976885606" lon="10.691677097700833"><ele>209.00000000000003</ele><time>2026-05-03T11:51:19Z</time></trkpt><trkpt lat="43.14663324851594" lon="10.691780628919576"><ele>209.0</ele><time>2026-05-03T11:51:21Z</time></trkpt><trkpt lat="43.14658268713855" lon="10.691869684845004"><ele>209.0</ele><time>2026-05-03T11:51:23Z</time></trkpt><trkpt lat="43.146531225995716" lon="10.691950374146987"><ele>209.0</ele><time>2026-05-03T11:51:26Z</time></trkpt><trkpt lat="43.14649867624221" lon="10.692040687465347"><ele>209.00000000000003</ele><time>2026-05-03T11:51:29Z</time></trkpt><trkpt lat="43.14645665064959" lon="10.692113883754184"><ele>209.0</ele><time>2026-05-03T11:51:31Z</time></trkpt><trkpt lat="43.14641140383888" lon="10.692240727840062"><ele>210.6</ele><time>2026-05-03T11:51:33Z</time></trkpt><trkpt lat="43.14634736719629" lon="10.692371157101357"><ele>212.2</ele><time>2026-05-03T11:51:36Z</time></trkpt><trkpt lat="43.146264218070165" lon="10.692440588776849"><ele>213.79999999999998</ele><time>2026-05-03T11:51:40Z</time></trkpt><trkpt lat="43.146198864435675" lon="10.69251263002119"><ele>215.39999999999998</ele><time>2026-05-03T11:51:42Z</time></trkpt><trkpt lat="43.146115464542916" lon="10.692562836877167"><ele>217.0</ele><time>2026-05-03T11:51:45Z</time></trkpt><trkpt lat="43.14605684134047" lon="10.692637814970722"><ele>216.99999999999997</ele><time>2026-05-03T11:51:46Z</time></trkpt><trkpt lat="43.14596200130429" lon="10.692785382279967"><ele>217.0</ele><time>2026-05-03T11:51:48Z</time></trkpt><trkpt lat="43.145918324872255" lon="10.692856324153551"><ele>217.0</ele><time>2026-05-03T11:51:49Z</time></trkpt><trkpt lat="43.14586123473244" lon="10.692898535579255"><ele>217.0</ele><time>2026-05-03T11:51:51Z</time></trkpt><trkpt lat="43.14577810929317" lon="10.692935357470633"><ele>216.99999999999997</ele><time>2026-05-03T11:51:53Z</time></trkpt><trkpt lat="43.14569947007909" lon="10.692913835820915"><ele>217.0</ele><time>2026-05-03T11:51:55Z</time></trkpt><trkpt lat="43.145604929151624" lon="10.692916378135713"><ele>216.99999999999997</ele><time>2026-05-03T11:51:57Z</time></trkpt><trkpt lat="43.14554316667331" lon="10.692946828374614"><ele>217.0</ele><time>2026-05-03T11:51:59Z</time></trkpt><trkpt lat="43.145458930216606" lon="10.692997948906857"><ele>217.0</ele><time>2026-05-03T11:52:01Z</time></trkpt><trkpt lat="43.14538950410412" lon="10.693048970065636"><ele>217.0</ele><time>2026-05-03T11:52:03Z</time></trkpt><trkpt lat="43.14532357338294" lon="10.693150580726153"><ele>216.99999999999997</ele><time>2026-05-03T11:52:06Z</time></trkpt><trkpt lat="43.145275361974214" lon="10.693245112436822"><ele>217.0</ele><time>2026-05-03T11:52:07Z</time></trkpt><trkpt lat="43.145193878773696" lon="10.6933078669014"><ele>216.99999999999997</ele><time>2026-05-03T11:52:10Z</time></trkpt><trkpt lat="43.14513718045024" lon="10.693353491736351"><ele>217.0</ele><time>2026-05-03T11:52:12Z</time></trkpt><trkpt lat="43.14505237342797" lon="10.693370542811548"><ele>217.0</ele><time>2026-05-03T11:52:14Z</time></trkpt><trkpt lat="43.14498769943799" lon="10.69340328927655"><ele>217.0</ele><time>2026-05-03T11:52:15Z</time></trkpt><trkpt lat="43.144903870904486" lon="10.693418772315223"><ele>216.99999999999997</ele><time>2026-05-03T11:52:16Z</time></trkpt><trkpt lat="43.14482916051231" lon="10.693414664826111"><ele>217.0</ele><time>2026-05-03T11:52:17Z</time></trkpt><trkpt lat="43.144753726838424" lon="10.693455681919662"><ele>217.2</ele><time>2026-05-03T11:52:19.001Z</time></trkpt><trkpt lat="43.14466626647966" lon="10.693517355001076"><ele>217.39999999999998</ele><time>2026-05-03T11:52:21.001Z</time></trkpt><trkpt lat="43.14454847823047" lon="10.6935919479747"><ele>217.60000000000002</ele><time>2026-05-03T11:52:23.001Z</time></trkpt><trkpt lat="43.14446897832582" lon="10.693598955587037"><ele>217.8</ele><time>2026-05-03T11:52:24.001Z</time></trkpt><trkpt lat="43.14433353372238" lon="10.693622629032097"><ele>218.0</ele><time>2026-05-03T11:52:26.001Z</time></trkpt><trkpt lat="43.14424660107585" lon="10.693637223576145"><ele>218.00000000000003</ele><time>2026-05-03T11:52:27.001Z</time></trkpt><trkpt lat="43.14417851182185" lon="10.693643353175863"><ele>218.0</ele><time>2026-05-03T11:52:29.001Z</time></trkpt><trkpt lat="43.144089226606" lon="10.693655061136372"><ele>218.0</ele><time>2026-05-03T11:52:34.001Z</time></trkpt><trkpt lat="43.14400518377374" lon="10.6936632452115"><ele>218.0</ele><time>2026-05-03T11:52:37.001Z</time></trkpt><trkpt lat="43.14394019846091" lon="10.693735849739758"><ele>218.00000000000003</ele><time>2026-05-03T11:52:40.001Z</time></trkpt><trkpt lat="43.14389674159866" lon="10.69381653292558"><ele>218.0</ele><time>2026-05-03T11:52:42.001Z</time></trkpt><trkpt lat="43.143823022569684" lon="10.693878917149238"><ele>218.0</ele><time>2026-05-03T11:52:44.001Z</time></trkpt><trkpt lat="43.14368853771779" lon="10.693938625355635"><ele>218.0</ele><time>2026-05-03T11:52:47.001Z</time></trkpt><trkpt lat="43.143613301178235" lon="10.693959709523533"><ele>218.0</ele><time>2026-05-03T11:52:48.001Z</time></trkpt><trkpt lat="43.143514660915365" lon="10.693990456789285"><ele>218.0</ele><time>2026-05-03T11:52:50.001Z</time></trkpt><trkpt lat="43.143421967192" lon="10.694029414974828"><ele>218.0</ele><time>2026-05-03T11:52:52.001Z</time></trkpt><trkpt lat="43.1433301799043" lon="10.694037188791675"><ele>218.00000000000003</ele><time>2026-05-03T11:52:57.001Z</time></trkpt><trkpt lat="43.143233434110286" lon="10.69398471498903"><ele>218.0</ele><time>2026-05-03T11:52:58.001Z</time></trkpt><trkpt lat="43.14317046739012" lon="10.693926592033028"><ele>218.0</ele><time>2026-05-03T11:52:59.001Z</time></trkpt><trkpt lat="43.14310385053008" lon="10.693893697578869"><ele>218.0</ele><time>2026-05-03T11:53:01.001Z</time></trkpt><trkpt lat="43.14302493161852" lon="10.693872317324786"><ele>218.00000000000003</ele><time>2026-05-03T11:54:52.001Z</time></trkpt><trkpt lat="43.142935088942515" lon="10.693855903667014"><ele>218.0</ele><time>2026-05-03T11:54:54.001Z</time></trkpt><trkpt lat="43.1428666373806" lon="10.693863949846836"><ele>218.00000000000003</ele><time>2026-05-03T11:54:56.001Z</time></trkpt><trkpt lat="43.142758888344105" lon="10.693917278229447"><ele>218.0</ele><time>2026-05-03T11:54:58.001Z</time></trkpt><trkpt lat="43.14268078370542" lon="10.693911395971412"><ele>218.0</ele><time>2026-05-03T11:55:00.001Z</time></trkpt><trkpt lat="43.14261110959328" lon="10.69383406894255"><ele>218.0</ele><time>2026-05-03T11:55:02.001Z</time></trkpt><trkpt lat="43.14253459649827" lon="10.693822254260231"><ele>218.00000000000003</ele><time>2026-05-03T11:55:04.001Z</time></trkpt><trkpt lat="43.14245842470191" lon="10.693782844533716"><ele>218.0</ele><time>2026-05-03T11:55:06.001Z</time></trkpt><trkpt lat="43.14238639218962" lon="10.693761922431694"><ele>217.83333333333334</ele><time>2026-05-03T11:55:08.001Z</time></trkpt><trkpt lat="43.14230505050897" lon="10.693753378824747"><ele>217.66666666666669</ele><time>2026-05-03T11:55:10.001Z</time></trkpt><trkpt lat="43.14223958351394" lon="10.693723247185808"><ele>217.5</ele><time>2026-05-03T11:55:12.001Z</time></trkpt><trkpt lat="43.14216198770943" lon="10.693698217239072"><ele>217.33333333333331</ele><time>2026-05-03T11:55:13.001Z</time></trkpt><trkpt lat="43.1420889254363" lon="10.693695408634065"><ele>217.16666666666666</ele><time>2026-05-03T11:55:15.001Z</time></trkpt><trkpt lat="43.1420179700016" lon="10.693742491409916"><ele>217.0</ele><time>2026-05-03T11:55:18Z</time></trkpt><trkpt lat="43.141938623945045" lon="10.693780029989785"><ele>216.99999999999997</ele><time>2026-05-03T11:55:20Z</time></trkpt><trkpt lat="43.141873971640486" lon="10.693823105408221"><ele>217.0</ele><time>2026-05-03T11:55:23Z</time></trkpt><trkpt lat="43.1417636978978" lon="10.693842564557514"><ele>217.0</ele><time>2026-05-03T11:55:26Z</time></trkpt><trkpt lat="43.1417064404428" lon="10.69388427607545"><ele>217.0</ele><time>2026-05-03T11:55:29Z</time></trkpt><trkpt lat="43.141657834064205" lon="10.693941339838378"><ele>216.99999999999997</ele><time>2026-05-03T11:55:31Z</time></trkpt><trkpt lat="43.141591111585846" lon="10.693974752074363"><ele>217.0</ele><time>2026-05-03T11:55:33Z</time></trkpt><trkpt lat="43.14150652837816" lon="10.694012968743326"><ele>215.49999999999997</ele><time>2026-05-03T11:55:37Z</time></trkpt><trkpt lat="43.141428985948" lon="10.694008319567478"><ele>214.0</ele><time>2026-05-03T11:55:47Z</time></trkpt><trkpt lat="43.141353551992125" lon="10.693996242237647"><ele>212.5</ele><time>2026-05-03T11:55:58Z</time></trkpt><trkpt lat="43.14128628701336" lon="10.69399072288593"><ele>211.0</ele><time>2026-05-03T11:56:02Z</time></trkpt><trkpt lat="43.14121546757983" lon="10.694000483684993"><ele>209.49999999999997</ele><time>2026-05-03T11:56:08Z</time></trkpt><trkpt lat="43.141138432156694" lon="10.694038358534387"><ele>208.0</ele><time>2026-05-03T11:56:13Z</time></trkpt><trkpt lat="43.141060807042244" lon="10.694020137152211"><ele>207.99999999999997</ele><time>2026-05-03T11:56:17Z</time></trkpt><trkpt lat="43.1410057288442" lon="10.693972487908498"><ele>208.0</ele><time>2026-05-03T11:56:21Z</time></trkpt><trkpt lat="43.140922494051" lon="10.693957706593801"><ele>208.0</ele><time>2026-05-03T11:56:24Z</time></trkpt><trkpt lat="43.140844012654995" lon="10.693915743974568"><ele>208.0</ele><time>2026-05-03T11:56:27Z</time></trkpt><trkpt lat="43.1407773722389" lon="10.693909962241994"><ele>207.99999999999997</ele><time>2026-05-03T11:56:30Z</time></trkpt><trkpt lat="43.14067287818304" lon="10.693892737226328"><ele>208.0</ele><time>2026-05-03T11:56:33Z</time></trkpt><trkpt lat="43.14058113379753" lon="10.693890459677894"><ele>207.33333333333331</ele><time>2026-05-03T11:56:37.001Z</time></trkpt><trkpt lat="43.14048643350159" lon="10.693893545465835"><ele>206.66666666666666</ele><time>2026-05-03T11:56:40.001Z</time></trkpt><trkpt lat="43.14041681303605" lon="10.693906273221558"><ele>206.0</ele><time>2026-05-03T11:56:42.001Z</time></trkpt><trkpt lat="43.140332563537555" lon="10.693912752834047"><ele>205.33333333333331</ele><time>2026-05-03T11:56:44.001Z</time></trkpt><trkpt lat="43.14026572513488" lon="10.693924973674125"><ele>204.66666666666666</ele><time>2026-05-03T11:56:46.001Z</time></trkpt><trkpt lat="43.14020290276365" lon="10.693933142736059"><ele>204.0</ele><time>2026-05-03T11:56:48.001Z</time></trkpt><trkpt lat="43.14012117463781" lon="10.693941315091557"><ele>204.0</ele><time>2026-05-03T11:56:55.001Z</time></trkpt><trkpt lat="43.140051506022836" lon="10.693964321146538"><ele>204.0</ele><time>2026-05-03T11:57:00.001Z</time></trkpt><trkpt lat="43.139935334288" lon="10.693944888887243"><ele>204.0</ele><time>2026-05-03T11:57:02.001Z</time></trkpt><trkpt lat="43.13986111466643" lon="10.69395549453833"><ele>204.0</ele><time>2026-05-03T11:57:03.001Z</time></trkpt><trkpt lat="43.13979403313253" lon="10.693958120384037"><ele>204.0</ele><time>2026-05-03T11:57:04.001Z</time></trkpt><trkpt lat="43.13972722278273" lon="10.693953634635763"><ele>204.0</ele><time>2026-05-03T11:57:07.001Z</time></trkpt><trkpt lat="43.13965437538008" lon="10.693935313831828"><ele>202.66666666666666</ele><time>2026-05-03T11:57:15.001Z</time></trkpt><trkpt lat="43.13958269389536" lon="10.693904268903893"><ele>201.33333333333331</ele><time>2026-05-03T11:57:18.001Z</time></trkpt><trkpt lat="43.139516304051945" lon="10.693896427940555"><ele>200.0</ele><time>2026-05-03T11:57:19.001Z</time></trkpt><trkpt lat="43.139450561904965" lon="10.693870787780021"><ele>198.66666666666666</ele><time>2026-05-03T11:57:21.001Z</time></trkpt><trkpt lat="43.13938216844945" lon="10.693803366963085"><ele>197.33333333333331</ele><time>2026-05-03T11:57:23Z</time></trkpt><trkpt lat="43.13931441749828" lon="10.693840725175308"><ele>196.0</ele><time>2026-05-03T11:57:26Z</time></trkpt><trkpt lat="43.139232427853024" lon="10.69389359290294"><ele>195.99999999999997</ele><time>2026-05-03T11:57:28Z</time></trkpt><trkpt lat="43.13915979044188" lon="10.693926272491375"><ele>196.0</ele><time>2026-05-03T11:57:30Z</time></trkpt><trkpt lat="43.13909467980254" lon="10.693955938618256"><ele>196.0</ele><time>2026-05-03T11:57:31Z</time></trkpt><trkpt lat="43.13900678816669" lon="10.693985247238022"><ele>196.0</ele><time>2026-05-03T11:57:32Z</time></trkpt><trkpt lat="43.138922379442846" lon="10.694012302908012"><ele>195.99999999999997</ele><time>2026-05-03T11:57:33Z</time></trkpt><trkpt lat="43.13881291290096" lon="10.694016191265973"><ele>196.0</ele><time>2026-05-03T11:57:35Z</time></trkpt><trkpt lat="43.138736429479806" lon="10.69399516892766"><ele>194.66666666666666</ele><time>2026-05-03T11:57:37Z</time></trkpt><trkpt lat="43.138670807000345" lon="10.693982438122974"><ele>193.33333333333331</ele><time>2026-05-03T11:57:38Z</time></trkpt><trkpt lat="43.13856840330747" lon="10.69397072008489"><ele>192.0</ele><time>2026-05-03T11:57:39Z</time></trkpt><trkpt lat="43.13849850782999" lon="10.693963329623317"><ele>190.66666666666666</ele><time>2026-05-03T11:57:40Z</time></trkpt><trkpt lat="43.1384342538378" lon="10.693947291620903"><ele>189.33333333333331</ele><time>2026-05-03T11:57:41Z</time></trkpt><trkpt lat="43.138314722264724" lon="10.693939556150774"><ele>188.0</ele><time>2026-05-03T11:57:43Z</time></trkpt><trkpt lat="43.13822021336801" lon="10.69398812643155"><ele>186.0</ele><time>2026-05-03T11:57:45Z</time></trkpt><trkpt lat="43.13811469112379" lon="10.693970931250064"><ele>184.0</ele><time>2026-05-03T11:57:47Z</time></trkpt><trkpt lat="43.13801954284107" lon="10.693985746149794"><ele>182.0</ele><time>2026-05-03T11:57:49Z</time></trkpt><trkpt lat="43.13792225170272" lon="10.694014066426629"><ele>180.0</ele><time>2026-05-03T11:57:52Z</time></trkpt><trkpt lat="43.13780262687666" lon="10.694068033611247"><ele>178.0</ele><time>2026-05-03T11:57:54Z</time></trkpt><trkpt lat="43.137728782800345" lon="10.694121884828768"><ele>178.0</ele><time>2026-05-03T11:57:55Z</time></trkpt><trkpt lat="43.137629538381844" lon="10.694197121847948"><ele>178.0</ele><time>2026-05-03T11:57:57Z</time></trkpt><trkpt lat="43.13752079407587" lon="10.694204555035643"><ele>178.0</ele><time>2026-05-03T11:57:59Z</time></trkpt><trkpt lat="43.13743090788972" lon="10.69423051413082"><ele>178.0</ele><time>2026-05-03T11:58:00Z</time></trkpt><trkpt lat="43.13736145763874" lon="10.694249314671065"><ele>178.0</ele><time>2026-05-03T11:58:01Z</time></trkpt><trkpt lat="43.13725527204202" lon="10.694311789206147"><ele>176.83333333333334</ele><time>2026-05-03T11:58:03Z</time></trkpt><trkpt lat="43.13717539704119" lon="10.694363963491478"><ele>175.66666666666669</ele><time>2026-05-03T11:58:04Z</time></trkpt><trkpt lat="43.13710313395285" lon="10.694403969100545"><ele>174.5</ele><time>2026-05-03T11:58:05Z</time></trkpt><trkpt lat="43.13702178084372" lon="10.694411163489061"><ele>173.33333333333334</ele><time>2026-05-03T11:58:06Z</time></trkpt><trkpt lat="43.136931854195716" lon="10.694428910186387"><ele>172.16666666666666</ele><time>2026-05-03T11:58:07Z</time></trkpt><trkpt lat="43.13682433634071" lon="10.694454214585496"><ele>171.0</ele><time>2026-05-03T11:58:08Z</time></trkpt><trkpt lat="43.136748922291375" lon="10.694480227858353"><ele>171.0</ele><time>2026-05-03T11:58:09Z</time></trkpt><trkpt lat="43.13667866468977" lon="10.694469363389592"><ele>171.0</ele><time>2026-05-03T11:58:11Z</time></trkpt><trkpt lat="43.136599477112696" lon="10.694375596793853"><ele>171.0</ele><time>2026-05-03T11:58:13Z</time></trkpt><trkpt lat="43.13652257388755" lon="10.694357846858825"><ele>171.0</ele><time>2026-05-03T11:58:15Z</time></trkpt><trkpt lat="43.13645092885248" lon="10.694335070675148"><ele>171.0</ele><time>2026-05-03T11:58:17Z</time></trkpt><trkpt lat="43.13642308895995" lon="10.694196319995394"><ele>171.0</ele><time>2026-05-03T11:58:20Z</time></trkpt><trkpt lat="43.13641918543345" lon="10.694027116072725"><ele>169.16666666666666</ele><time>2026-05-03T11:58:22Z</time></trkpt><trkpt lat="43.13640292299428" lon="10.693914440765587"><ele>167.33333333333334</ele><time>2026-05-03T11:58:24Z</time></trkpt><trkpt lat="43.136348753178666" lon="10.693817789451488"><ele>165.5</ele><time>2026-05-03T11:58:26Z</time></trkpt><trkpt lat="43.13626465058493" lon="10.693744481578644"><ele>163.66666666666669</ele><time>2026-05-03T11:58:28Z</time></trkpt><trkpt lat="43.13619329789569" lon="10.693698796223714"><ele>161.83333333333334</ele><time>2026-05-03T11:58:29Z</time></trkpt><trkpt lat="43.136134706656954" lon="10.693633813485162"><ele>160.0</ele><time>2026-05-03T11:58:31Z</time></trkpt><trkpt lat="43.136047317473384" lon="10.693584416245345"><ele>158.5</ele><time>2026-05-03T11:58:33Z</time></trkpt><trkpt lat="43.13596398843966" lon="10.693514390949751"><ele>157.0</ele><time>2026-05-03T11:58:35Z</time></trkpt><trkpt lat="43.135882850791205" lon="10.693470048768829"><ele>155.5</ele><time>2026-05-03T11:58:37Z</time></trkpt><trkpt lat="43.13581191369816" lon="10.69348409684346"><ele>154.0</ele><time>2026-05-03T11:58:41Z</time></trkpt><trkpt lat="43.135753915182455" lon="10.69354592235247"><ele>152.5</ele><time>2026-05-03T11:58:42Z</time></trkpt><trkpt lat="43.13569274599902" lon="10.693588042789372"><ele>151.0</ele><time>2026-05-03T11:58:43Z</time></trkpt><trkpt lat="43.135625402804536" lon="10.693606297686806"><ele>149.83333333333334</ele><time>2026-05-03T11:58:46Z</time></trkpt><trkpt lat="43.1355040198434" lon="10.693606250135543"><ele>148.66666666666669</ele><time>2026-05-03T11:58:48Z</time></trkpt><trkpt lat="43.13542406239284" lon="10.693591339432704"><ele>147.5</ele><time>2026-05-03T11:58:49Z</time></trkpt><trkpt lat="43.1353512743506" lon="10.693576971296588"><ele>146.33333333333334</ele><time>2026-05-03T11:58:50Z</time></trkpt><trkpt lat="43.135287360186105" lon="10.693573371032274"><ele>145.16666666666666</ele><time>2026-05-03T11:58:51Z</time></trkpt><trkpt lat="43.13522290869506" lon="10.69355397479018"><ele>144.0</ele><time>2026-05-03T11:58:52Z</time></trkpt><trkpt lat="43.1351477280526" lon="10.693539373362082"><ele>142.33333333333334</ele><time>2026-05-03T11:58:53Z</time></trkpt><trkpt lat="43.13507578105637" lon="10.693523886896863"><ele>140.66666666666666</ele><time>2026-05-03T11:58:54.001Z</time></trkpt><trkpt lat="43.13496534916066" lon="10.693501494865219"><ele>139.0</ele><time>2026-05-03T11:58:56.001Z</time></trkpt><trkpt lat="43.13489001028318" lon="10.693488812538238"><ele>137.33333333333331</ele><time>2026-05-03T11:58:57.001Z</time></trkpt><trkpt lat="43.13479369543875" lon="10.693511834932437"><ele>135.66666666666666</ele><time>2026-05-03T11:58:59.001Z</time></trkpt><trkpt lat="43.13470954654182" lon="10.693556195276988"><ele>134.0</ele><time>2026-05-03T11:59:01.001Z</time></trkpt><trkpt lat="43.13462162549242" lon="10.69364001205596"><ele>132.4</ele><time>2026-05-03T11:59:03.001Z</time></trkpt><trkpt lat="43.13453553690719" lon="10.693768716402696"><ele>130.8</ele><time>2026-05-03T11:59:05.001Z</time></trkpt><trkpt lat="43.134482783039715" lon="10.693821023720664"><ele>129.2</ele><time>2026-05-03T11:59:06.001Z</time></trkpt><trkpt lat="43.134441043489865" lon="10.693896052825398"><ele>127.6</ele><time>2026-05-03T11:59:07.001Z</time></trkpt><trkpt lat="43.1343644122977" lon="10.693971045058806"><ele>126.0</ele><time>2026-05-03T11:59:09.001Z</time></trkpt><trkpt lat="43.13427762985993" lon="10.694069871802506"><ele>126.0</ele><time>2026-05-03T11:59:11.001Z</time></trkpt><trkpt lat="43.134205837255834" lon="10.694073177340284"><ele>126.0</ele><time>2026-05-03T11:59:13.001Z</time></trkpt><trkpt lat="43.13414191621992" lon="10.693971433126398"><ele>126.0</ele><time>2026-05-03T11:59:15.001Z</time></trkpt><trkpt lat="43.134105946891694" lon="10.693881212387062"><ele>126.0</ele><time>2026-05-03T11:59:17.001Z</time></trkpt><trkpt lat="43.13400989818019" lon="10.693755122368964"><ele>126.0</ele><time>2026-05-03T11:59:18.001Z</time></trkpt><trkpt lat="43.13394158196054" lon="10.693727147767708"><ele>126.0</ele><time>2026-05-03T11:59:19.001Z</time></trkpt><trkpt lat="43.13387573668789" lon="10.693704328526438"><ele>124.0</ele><time>2026-05-03T11:59:20.001Z</time></trkpt><trkpt lat="43.13381842167763" lon="10.693783358294334"><ele>122.0</ele><time>2026-05-03T11:59:22.001Z</time></trkpt><trkpt lat="43.133710160363734" lon="10.693874188570765"><ele>120.0</ele><time>2026-05-03T11:59:24.001Z</time></trkpt><trkpt lat="43.13366554914521" lon="10.693938062594388"><ele>118.0</ele><time>2026-05-03T11:59:25.001Z</time></trkpt><trkpt lat="43.133564353052556" lon="10.694005372365606"><ele>116.0</ele><time>2026-05-03T11:59:27.001Z</time></trkpt><trkpt lat="43.13349487527188" lon="10.694072597322744"><ele>115.99999999999999</ele><time>2026-05-03T11:59:30Z</time></trkpt><trkpt lat="43.133396305887096" lon="10.694059670182016"><ele>116.0</ele><time>2026-05-03T11:59:32Z</time></trkpt><trkpt lat="43.13331205699654" lon="10.694015909847582"><ele>116.0</ele><time>2026-05-03T11:59:33Z</time></trkpt><trkpt lat="43.13324421991231" lon="10.693965684567242"><ele>116.0</ele><time>2026-05-03T11:59:34Z</time></trkpt><trkpt lat="43.133175409599716" lon="10.693957208562303"><ele>115.99999999999999</ele><time>2026-05-03T11:59:35Z</time></trkpt><trkpt lat="43.133094296262136" lon="10.694004299735035"><ele>116.0</ele><time>2026-05-03T11:59:36Z</time></trkpt><trkpt lat="43.13295587391119" lon="10.694129847664048"><ele>116.4</ele><time>2026-05-03T11:59:38Z</time></trkpt><trkpt lat="43.132872016166054" lon="10.694232172453088"><ele>116.8</ele><time>2026-05-03T11:59:39Z</time></trkpt><trkpt lat="43.132818420361104" lon="10.69429284936483"><ele>117.20000000000002</ele><time>2026-05-03T11:59:40Z</time></trkpt><trkpt lat="43.13274647911247" lon="10.694317758672353"><ele>117.60000000000001</ele><time>2026-05-03T11:59:41Z</time></trkpt><trkpt lat="43.13262989380678" lon="10.694367734532017"><ele>118.0</ele><time>2026-05-03T11:59:42Z</time></trkpt><trkpt lat="43.13254491411522" lon="10.694414827530084"><ele>117.66666666666667</ele><time>2026-05-03T11:59:43Z</time></trkpt><trkpt lat="43.13247069204629" lon="10.694434987567629"><ele>117.33333333333334</ele><time>2026-05-03T11:59:44Z</time></trkpt><trkpt lat="43.132397068398134" lon="10.694433752386038"><ele>117.0</ele><time>2026-05-03T11:59:45Z</time></trkpt><trkpt lat="43.13231790385141" lon="10.69442790934527"><ele>116.66666666666666</ele><time>2026-05-03T11:59:46Z</time></trkpt><trkpt lat="43.1322381599086" lon="10.694409803424303"><ele>116.33333333333333</ele><time>2026-05-03T11:59:47Z</time></trkpt><trkpt lat="43.13216244558962" lon="10.694373464864"><ele>116.0</ele><time>2026-05-03T11:59:48Z</time></trkpt><trkpt lat="43.13209008275861" lon="10.694345863040477"><ele>116.0</ele><time>2026-05-03T11:59:49Z</time></trkpt><trkpt lat="43.132004245015494" lon="10.694320384718278"><ele>116.0</ele><time>2026-05-03T11:59:50Z</time></trkpt><trkpt lat="43.131896725358196" lon="10.694309525496472"><ele>116.0</ele><time>2026-05-03T11:59:51Z</time></trkpt><trkpt lat="43.131763882860255" lon="10.694287567154172"><ele>116.0</ele><time>2026-05-03T11:59:52Z</time></trkpt><trkpt lat="43.1316309384631" lon="10.69426294730878"><ele>115.19999999999999</ele><time>2026-05-03T11:59:53Z</time></trkpt><trkpt lat="43.13151740405656" lon="10.694241042978813"><ele>114.39999999999999</ele><time>2026-05-03T11:59:54Z</time></trkpt><trkpt lat="43.1314147822772" lon="10.694218351699622"><ele>113.6</ele><time>2026-05-03T11:59:55Z</time></trkpt><trkpt lat="43.13131825667529" lon="10.69418279474084"><ele>112.8</ele><time>2026-05-03T11:59:56Z</time></trkpt><trkpt lat="43.13122108894916" lon="10.694143609039156"><ele>112.0</ele><time>2026-05-03T11:59:57Z</time></trkpt><trkpt lat="43.13112883486138" lon="10.694105034317312"><ele>112.0</ele><time>2026-05-03T11:59:58Z</time></trkpt><trkpt lat="43.131035574146466" lon="10.694073807897492"><ele>111.99999999999999</ele><time>2026-05-03T11:59:59Z</time></trkpt><trkpt lat="43.13092937548323" lon="10.694055269341883"><ele>111.99999999999999</ele><time>2026-05-03T12:00:00Z</time></trkpt><trkpt lat="43.130825727214344" lon="10.694049193390288"><ele>112.0</ele><time>2026-05-03T12:00:01Z</time></trkpt><trkpt lat="43.1307205416245" lon="10.694054512877033"><ele>112.0</ele><time>2026-05-03T12:00:02Z</time></trkpt><trkpt lat="43.13060568579926" lon="10.69404381247683"><ele>110.39999999999999</ele><time>2026-05-03T12:00:03Z</time></trkpt><trkpt lat="43.13049182505976" lon="10.694035768575802"><ele>108.79999999999998</ele><time>2026-05-03T12:00:04Z</time></trkpt><trkpt lat="43.13039835413622" lon="10.694023249578908"><ele>107.2</ele><time>2026-05-03T12:00:05Z</time></trkpt><trkpt lat="43.130324979754825" lon="10.694003921011971"><ele>105.6</ele><time>2026-05-03T12:00:06Z</time></trkpt><trkpt lat="43.130195620340594" lon="10.693918738890785"><ele>104.0</ele><time>2026-05-03T12:00:08Z</time></trkpt><trkpt lat="43.13012263926097" lon="10.693858560987517"><ele>103.99999999999999</ele><time>2026-05-03T12:00:09Z</time></trkpt><trkpt lat="43.130071391621556" lon="10.693801433172746"><ele>104.0</ele><time>2026-05-03T12:00:10Z</time></trkpt><trkpt lat="43.13003104494487" lon="10.693711791238918"><ele>104.0</ele><time>2026-05-03T12:00:11Z</time></trkpt><trkpt lat="43.12999429272013" lon="10.69359058134673"><ele>104.0</ele><time>2026-05-03T12:00:12Z</time></trkpt><trkpt lat="43.1299489934952" lon="10.693479218685383"><ele>103.99999999999999</ele><time>2026-05-03T12:00:13Z</time></trkpt><trkpt lat="43.12990400116044" lon="10.693403655537137"><ele>104.0</ele><time>2026-05-03T12:00:14Z</time></trkpt><trkpt lat="43.12985640926529" lon="10.693315181800209"><ele>104.66666666666666</ele><time>2026-05-03T12:00:15Z</time></trkpt><trkpt lat="43.12979130850379" lon="10.69322490437097"><ele>105.33333333333333</ele><time>2026-05-03T12:00:16Z</time></trkpt><trkpt lat="43.12973902996381" lon="10.693120978842016"><ele>106.0</ele><time>2026-05-03T12:00:17Z</time></trkpt><trkpt lat="43.12967971473713" lon="10.693014336530384"><ele>106.66666666666666</ele><time>2026-05-03T12:00:18Z</time></trkpt><trkpt lat="43.12965123988976" lon="10.692936576517729"><ele>107.33333333333333</ele><time>2026-05-03T12:00:19Z</time></trkpt><trkpt lat="43.129628698580255" lon="10.692840521331009"><ele>108.0</ele><time>2026-05-03T12:00:21Z</time></trkpt><trkpt lat="43.12952851141092" lon="10.692769818566683"><ele>108.60000000000001</ele><time>2026-05-03T12:00:26Z</time></trkpt><trkpt lat="43.12943557980092" lon="10.692721528539412"><ele>109.20000000000002</ele><time>2026-05-03T12:00:27Z</time></trkpt><trkpt lat="43.12933163807426" lon="10.692676768917782"><ele>109.8</ele><time>2026-05-03T12:00:28Z</time></trkpt><trkpt lat="43.12922946716068" lon="10.69263717862316"><ele>110.4</ele><time>2026-05-03T12:00:29Z</time></trkpt><trkpt lat="43.12912634627949" lon="10.692600165908415"><ele>111.0</ele><time>2026-05-03T12:00:30Z</time></trkpt><trkpt lat="43.129032209729495" lon="10.692561445966396"><ele>108.8</ele><time>2026-05-03T12:00:31Z</time></trkpt><trkpt lat="43.128940156853595" lon="10.692521576330638"><ele>106.6</ele><time>2026-05-03T12:00:32Z</time></trkpt><trkpt lat="43.128843137039354" lon="10.69248922244283"><ele>104.4</ele><time>2026-05-03T12:00:33Z</time></trkpt><trkpt lat="43.12874652130266" lon="10.692447345369914"><ele>102.2</ele><time>2026-05-03T12:00:34Z</time></trkpt><trkpt lat="43.12865496589159" lon="10.692407435565963"><ele>100.0</ele><time>2026-05-03T12:00:35Z</time></trkpt><trkpt lat="43.12856745776471" lon="10.692377925201885"><ele>100.00000000000001</ele><time>2026-05-03T12:00:36Z</time></trkpt><trkpt lat="43.12848384179165" lon="10.69238041013028"><ele>100.0</ele><time>2026-05-03T12:00:37Z</time></trkpt><trkpt lat="43.12840107842937" lon="10.692418383415681"><ele>100.0</ele><time>2026-05-03T12:00:38Z</time></trkpt><trkpt lat="43.128330056713104" lon="10.692470050043195"><ele>100.0</ele><time>2026-05-03T12:00:39Z</time></trkpt><trkpt lat="43.128257906583606" lon="10.692531408244452"><ele>100.00000000000001</ele><time>2026-05-03T12:00:40Z</time></trkpt><trkpt lat="43.12819930967503" lon="10.69260516934043"><ele>100.0</ele><time>2026-05-03T12:00:41Z</time></trkpt><trkpt lat="43.12813957466102" lon="10.69269155697098"><ele>99.66666666666667</ele><time>2026-05-03T12:00:42Z</time></trkpt><trkpt lat="43.12809012316648" lon="10.692753838992244"><ele>99.33333333333334</ele><time>2026-05-03T12:00:43Z</time></trkpt><trkpt lat="43.128040794090154" lon="10.692813201201583"><ele>99.0</ele><time>2026-05-03T12:00:44Z</time></trkpt><trkpt lat="43.127976470468134" lon="10.692803108333754"><ele>98.66666666666666</ele><time>2026-05-03T12:00:47Z</time></trkpt><trkpt lat="43.12789118753253" lon="10.692911844117292"><ele>98.33333333333333</ele><time>2026-05-03T12:01:42Z</time></trkpt><trkpt lat="43.12786363016892" lon="10.692989437176193"><ele>98.0</ele><time>2026-05-03T12:01:43Z</time></trkpt><trkpt lat="43.12778352777754" lon="10.693136469029561"><ele>97.99999999999999</ele><time>2026-05-03T12:01:45Z</time></trkpt><trkpt lat="43.12776289577146" lon="10.693228122498951"><ele>98.0</ele><time>2026-05-03T12:01:46Z</time></trkpt><trkpt lat="43.12772494202904" lon="10.693307411765693"><ele>98.0</ele><time>2026-05-03T12:01:47Z</time></trkpt><trkpt lat="43.127691603330334" lon="10.693396929308115"><ele>98.0</ele><time>2026-05-03T12:01:48Z</time></trkpt><trkpt lat="43.12763753703705" lon="10.69348096836634"><ele>97.99999999999999</ele><time>2026-05-03T12:01:49Z</time></trkpt><trkpt lat="43.12759423820202" lon="10.693585948715404"><ele>98.0</ele><time>2026-05-03T12:01:50Z</time></trkpt><trkpt lat="43.12755095401716" lon="10.69373077041749"><ele>98.0</ele><time>2026-05-03T12:01:51Z</time></trkpt><trkpt lat="43.12749733825833" lon="10.693866759283107"><ele>98.0</ele><time>2026-05-03T12:01:52Z</time></trkpt><trkpt lat="43.12744008267793" lon="10.694010536345145"><ele>98.0</ele><time>2026-05-03T12:01:53Z</time></trkpt><trkpt lat="43.12737752084909" lon="10.694157269655816"><ele>98.0</ele><time>2026-05-03T12:01:54Z</time></trkpt><trkpt lat="43.1273161492714" lon="10.694307995369865"><ele>97.0</ele><time>2026-05-03T12:01:55Z</time></trkpt><trkpt lat="43.127242412908195" lon="10.694448463735759"><ele>96.0</ele><time>2026-05-03T12:01:56Z</time></trkpt><trkpt lat="43.1271904684014" lon="10.69460494230913"><ele>95.0</ele><time>2026-05-03T12:01:57Z</time></trkpt><trkpt lat="43.12711512882544" lon="10.6947430427742"><ele>94.0</ele><time>2026-05-03T12:01:58Z</time></trkpt><trkpt lat="43.12706670913812" lon="10.694896479023797"><ele>94.0</ele><time>2026-05-03T12:01:59Z</time></trkpt><trkpt lat="43.12700181319263" lon="10.695041078407645"><ele>94.0</ele><time>2026-05-03T12:02:00Z</time></trkpt><trkpt lat="43.12692555775015" lon="10.695184258320769"><ele>94.0</ele><time>2026-05-03T12:02:01Z</time></trkpt><trkpt lat="43.12687073228372" lon="10.695351145813166"><ele>94.0</ele><time>2026-05-03T12:02:02Z</time></trkpt><trkpt lat="43.12679906830432" lon="10.695507431335923"><ele>94.0</ele><time>2026-05-03T12:02:03Z</time></trkpt><trkpt lat="43.12673244068497" lon="10.695664980380906"><ele>94.0</ele><time>2026-05-03T12:02:04Z</time></trkpt><trkpt lat="43.12666527888994" lon="10.69582859174312"><ele>94.0</ele><time>2026-05-03T12:02:05Z</time></trkpt><trkpt lat="43.12659680620134" lon="10.695992990384568"><ele>94.0</ele><time>2026-05-03T12:02:06Z</time></trkpt><trkpt lat="43.126527652560604" lon="10.696155967206117"><ele>93.5</ele><time>2026-05-03T12:02:07Z</time></trkpt><trkpt lat="43.126457822991306" lon="10.696321254362298"><ele>93.0</ele><time>2026-05-03T12:02:08Z</time></trkpt><trkpt lat="43.12639001436369" lon="10.696476994786684"><ele>92.5</ele><time>2026-05-03T12:02:09Z</time></trkpt><trkpt lat="43.12632799018595" lon="10.696622390765087"><ele>92.0</ele><time>2026-05-03T12:02:10Z</time></trkpt><trkpt lat="43.12626726537126" lon="10.696759802459368"><ele>92.0</ele><time>2026-05-03T12:02:11Z</time></trkpt><trkpt lat="43.12621466355851" lon="10.696895680997123"><ele>92.0</ele><time>2026-05-03T12:02:12Z</time></trkpt><trkpt lat="43.126164311416005" lon="10.697041893601781"><ele>92.0</ele><time>2026-05-03T12:02:13Z</time></trkpt><trkpt lat="43.126115981569725" lon="10.697196987372827"><ele>92.0</ele><time>2026-05-03T12:02:14Z</time></trkpt><trkpt lat="43.12607094369055" lon="10.697357567171407"><ele>92.25</ele><time>2026-05-03T12:02:15Z</time></trkpt><trkpt lat="43.12603290290976" lon="10.697527354016364"><ele>92.5</ele><time>2026-05-03T12:02:16Z</time></trkpt><trkpt lat="43.125997362714564" lon="10.697701249376003"><ele>92.75</ele><time>2026-05-03T12:02:17Z</time></trkpt><trkpt lat="43.12596229134705" lon="10.697879774923777"><ele>93.0</ele><time>2026-05-03T12:02:18Z</time></trkpt><trkpt lat="43.12592704682796" lon="10.698060690631701"><ele>93.0</ele><time>2026-05-03T12:02:19Z</time></trkpt><trkpt lat="43.125885455377095" lon="10.698237376779955"><ele>93.0</ele><time>2026-05-03T12:02:20Z</time></trkpt><trkpt lat="43.12584391663577" lon="10.698413730911856"><ele>93.0</ele><time>2026-05-03T12:02:21Z</time></trkpt><trkpt lat="43.12580539971265" lon="10.698597970575593"><ele>93.0</ele><time>2026-05-03T12:02:22Z</time></trkpt><trkpt lat="43.125762264026626" lon="10.698782448224245"><ele>92.0</ele><time>2026-05-03T12:02:23Z</time></trkpt><trkpt lat="43.12572311988431" lon="10.698967925067858"><ele>91.0</ele><time>2026-05-03T12:02:24Z</time></trkpt><trkpt lat="43.12568467267581" lon="10.699156563261445"><ele>90.0</ele><time>2026-05-03T12:02:25Z</time></trkpt><trkpt lat="43.125646689523165" lon="10.699351536441586"><ele>89.0</ele><time>2026-05-03T12:02:26Z</time></trkpt><trkpt lat="43.12560658860706" lon="10.699544042284812"><ele>89.0</ele><time>2026-05-03T12:02:27Z</time></trkpt><trkpt lat="43.12557148209384" lon="10.69972911963619"><ele>89.0</ele><time>2026-05-03T12:02:28Z</time></trkpt><trkpt lat="43.125537137367594" lon="10.699904632456823"><ele>89.0</ele><time>2026-05-03T12:02:29Z</time></trkpt><trkpt lat="43.12549886138843" lon="10.700075852263259"><ele>89.0</ele><time>2026-05-03T12:02:30Z</time></trkpt><trkpt lat="43.12546362947884" lon="10.700249571176185"><ele>89.0</ele><time>2026-05-03T12:02:31Z</time></trkpt><trkpt lat="43.12543081154444" lon="10.700416880383488"><ele>89.0</ele><time>2026-05-03T12:02:32Z</time></trkpt><trkpt lat="43.12540023167293" lon="10.700581696508413"><ele>89.0</ele><time>2026-05-03T12:02:33Z</time></trkpt><trkpt lat="43.12537340581263" lon="10.700743830828808"><ele>89.0</ele><time>2026-05-03T12:02:34Z</time></trkpt><trkpt lat="43.12534809001832" lon="10.700901442350554"><ele>89.0</ele><time>2026-05-03T12:02:35Z</time></trkpt><trkpt lat="43.12531300808375" lon="10.701044675468538"><ele>89.0</ele><time>2026-05-03T12:02:36Z</time></trkpt><trkpt lat="43.12528939344945" lon="10.701183108618798"><ele>89.0</ele><time>2026-05-03T12:02:37Z</time></trkpt><trkpt lat="43.125312433548245" lon="10.701328018220211"><ele>89.0</ele><time>2026-05-03T12:02:38Z</time></trkpt><trkpt lat="43.12530241996689" lon="10.701464864963407"><ele>89.0</ele><time>2026-05-03T12:02:39Z</time></trkpt><trkpt lat="43.12529386325938" lon="10.701604015606978"><ele>89.2</ele><time>2026-05-03T12:02:40Z</time></trkpt><trkpt lat="43.125286867514134" lon="10.7017481701125"><ele>89.4</ele><time>2026-05-03T12:02:41Z</time></trkpt><trkpt lat="43.125281070195484" lon="10.701892154953986"><ele>89.6</ele><time>2026-05-03T12:02:42Z</time></trkpt><trkpt lat="43.125274977547015" lon="10.702032018918377"><ele>89.8</ele><time>2026-05-03T12:02:43Z</time></trkpt><trkpt lat="43.12526459236139" lon="10.702173689354149"><ele>90.0</ele><time>2026-05-03T12:02:44Z</time></trkpt><trkpt lat="43.1252562682615" lon="10.702325980843765"><ele>90.0</ele><time>2026-05-03T12:02:45Z</time></trkpt><trkpt lat="43.12524657954332" lon="10.7024892179757"><ele>90.0</ele><time>2026-05-03T12:02:46Z</time></trkpt><trkpt lat="43.125236325195736" lon="10.702663676548623"><ele>90.0</ele><time>2026-05-03T12:02:47Z</time></trkpt><trkpt lat="43.12522694473361" lon="10.70283329910632"><ele>90.0</ele><time>2026-05-03T12:02:48Z</time></trkpt><trkpt lat="43.125219688666995" lon="10.703006465336752"><ele>89.5</ele><time>2026-05-03T12:02:49Z</time></trkpt><trkpt lat="43.12520796934036" lon="10.703183965784905"><ele>89.0</ele><time>2026-05-03T12:02:50Z</time></trkpt><trkpt lat="43.12519433613476" lon="10.703366632395126"><ele>88.5</ele><time>2026-05-03T12:02:51Z</time></trkpt><trkpt lat="43.12518401180166" lon="10.703556748592616"><ele>88.0</ele><time>2026-05-03T12:02:52Z</time></trkpt><trkpt lat="43.12517503826524" lon="10.703752461261436"><ele>88.0</ele><time>2026-05-03T12:02:53Z</time></trkpt><trkpt lat="43.12516689200521" lon="10.703947928778552"><ele>88.0</ele><time>2026-05-03T12:02:54Z</time></trkpt><trkpt lat="43.12516045730634" lon="10.704145922192543"><ele>88.0</ele><time>2026-05-03T12:02:55Z</time></trkpt><trkpt lat="43.125153242827565" lon="10.704343321946254"><ele>88.0</ele><time>2026-05-03T12:02:56Z</time></trkpt><trkpt lat="43.12514273331792" lon="10.704539522209762"><ele>87.75</ele><time>2026-05-03T12:02:57Z</time></trkpt><trkpt lat="43.125131797589354" lon="10.704733755485151"><ele>87.5</ele><time>2026-05-03T12:02:58.001Z</time></trkpt><trkpt lat="43.125119478005544" lon="10.704932424469767"><ele>87.25</ele><time>2026-05-03T12:02:59.001Z</time></trkpt><trkpt lat="43.125107035628716" lon="10.705128047990847"><ele>87.0</ele><time>2026-05-03T12:03:00.001Z</time></trkpt><trkpt lat="43.12509613540411" lon="10.705326232515299"><ele>87.0</ele><time>2026-05-03T12:03:01.001Z</time></trkpt><trkpt lat="43.12508651813044" lon="10.705524439832802"><ele>87.0</ele><time>2026-05-03T12:03:02.001Z</time></trkpt><trkpt lat="43.12507755160087" lon="10.705705644008042"><ele>87.0</ele><time>2026-05-03T12:03:03.001Z</time></trkpt><trkpt lat="43.125064501693025" lon="10.705890444472569"><ele>87.0</ele><time>2026-05-03T12:03:04.001Z</time></trkpt><trkpt lat="43.125053576629256" lon="10.706083108466233"><ele>87.0</ele><time>2026-05-03T12:03:05.001Z</time></trkpt><trkpt lat="43.12504336773192" lon="10.7062823904775"><ele>87.0</ele><time>2026-05-03T12:03:06.001Z</time></trkpt><trkpt lat="43.12503196646188" lon="10.706485850135985"><ele>87.0</ele><time>2026-05-03T12:03:07.001Z</time></trkpt><trkpt lat="43.12502210901349" lon="10.70669331417402"><ele>87.0</ele><time>2026-05-03T12:03:08.001Z</time></trkpt><trkpt lat="43.12501072286186" lon="10.706904359555423"><ele>86.66666666666667</ele><time>2026-05-03T12:03:09.001Z</time></trkpt><trkpt lat="43.12499962828815" lon="10.70711570886436"><ele>86.33333333333334</ele><time>2026-05-03T12:03:10.001Z</time></trkpt><trkpt lat="43.12498696370056" lon="10.707328278797508"><ele>86.0</ele><time>2026-05-03T12:03:11.001Z</time></trkpt><trkpt lat="43.12497554674962" lon="10.707542806606774"><ele>86.0</ele><time>2026-05-03T12:03:12.001Z</time></trkpt><trkpt lat="43.124964712950806" lon="10.707756184908291"><ele>86.0</ele><time>2026-05-03T12:03:13.001Z</time></trkpt><trkpt lat="43.124953381489306" lon="10.707957385705807"><ele>86.0</ele><time>2026-05-03T12:03:14.001Z</time></trkpt><trkpt lat="43.12494551179436" lon="10.708152737232119"><ele>86.0</ele><time>2026-05-03T12:03:15.001Z</time></trkpt><trkpt lat="43.124935964340594" lon="10.708353666968858"><ele>86.0</ele><time>2026-05-03T12:03:16.001Z</time></trkpt><trkpt lat="43.12492166147001" lon="10.708549330633128"><ele>86.0</ele><time>2026-05-03T12:03:17.001Z</time></trkpt><trkpt lat="43.124911928918266" lon="10.708748257855552"><ele>86.0</ele><time>2026-05-03T12:03:18.001Z</time></trkpt><trkpt lat="43.12490152902666" lon="10.70894544620446"><ele>86.0</ele><time>2026-05-03T12:03:19.001Z</time></trkpt><trkpt lat="43.12488887673941" lon="10.70913807470328"><ele>84.33333333333334</ele><time>2026-05-03T12:03:20.001Z</time></trkpt><trkpt lat="43.12487786098709" lon="10.709335745584168"><ele>82.66666666666667</ele><time>2026-05-03T12:03:21.001Z</time></trkpt><trkpt lat="43.12486648486468" lon="10.70954276231201"><ele>81.0</ele><time>2026-05-03T12:03:22.001Z</time></trkpt><trkpt lat="43.12485236139065" lon="10.70976649569178"><ele>80.66666666666667</ele><time>2026-05-03T12:03:23.001Z</time></trkpt><trkpt lat="43.12484117745194" lon="10.709985564435891"><ele>80.33333333333334</ele><time>2026-05-03T12:03:24.001Z</time></trkpt><trkpt lat="43.12482991773034" lon="10.710199107405101"><ele>80.0</ele><time>2026-05-03T12:03:25.001Z</time></trkpt><trkpt lat="43.12482194701625" lon="10.710399674351123"><ele>80.0</ele><time>2026-05-03T12:03:26.001Z</time></trkpt><trkpt lat="43.12481251395206" lon="10.710597481054421"><ele>80.0</ele><time>2026-05-03T12:03:27.001Z</time></trkpt><trkpt lat="43.12479895670946" lon="10.710794460146989"><ele>80.0</ele><time>2026-05-03T12:03:28.001Z</time></trkpt><trkpt lat="43.12478605606566" lon="10.710973009539622"><ele>80.0</ele><time>2026-05-03T12:03:29.001Z</time></trkpt><trkpt lat="43.12477590550823" lon="10.711111823591967"><ele>80.0</ele><time>2026-05-03T12:03:30.001Z</time></trkpt><trkpt lat="43.12476980803628" lon="10.711206192792854"><ele>80.0</ele><time>2026-05-03T12:03:31.001Z</time></trkpt><trkpt lat="43.12474384806967" lon="10.711287049724634"><ele>80.0</ele><time>2026-05-03T12:03:33.001Z</time></trkpt><trkpt lat="43.12468809789938" lon="10.711375011818763"><ele>80.0</ele><time>2026-05-03T12:04:14Z</time></trkpt><trkpt lat="43.12463193272399" lon="10.711425164482575"><ele>80.0</ele><time>2026-05-03T12:04:15Z</time></trkpt><trkpt lat="43.12457974925921" lon="10.71149320141123"><ele>80.0</ele><time>2026-05-03T12:04:16Z</time></trkpt><trkpt lat="43.12453477926864" lon="10.711587897552576"><ele>80.0</ele><time>2026-05-03T12:04:17Z</time></trkpt><trkpt lat="43.12450371942834" lon="10.711710105127937"><ele>80.0</ele><time>2026-05-03T12:04:18Z</time></trkpt><trkpt lat="43.12447629115013" lon="10.711843150766644"><ele>80.0</ele><time>2026-05-03T12:04:19Z</time></trkpt><trkpt lat="43.12445079016918" lon="10.711976940232894"><ele>80.0</ele><time>2026-05-03T12:04:20Z</time></trkpt><trkpt lat="43.12441813181685" lon="10.712113922072307"><ele>80.0</ele><time>2026-05-03T12:04:21Z</time></trkpt><trkpt lat="43.124387882300084" lon="10.712250982088728"><ele>80.0</ele><time>2026-05-03T12:04:22Z</time></trkpt><trkpt lat="43.12435412108027" lon="10.712374481676644"><ele>80.0</ele><time>2026-05-03T12:04:23Z</time></trkpt><trkpt lat="43.124321013726195" lon="10.712485867561124"><ele>80.0</ele><time>2026-05-03T12:04:24Z</time></trkpt><trkpt lat="43.124293980218724" lon="10.712588669046053"><ele>80.0</ele><time>2026-05-03T12:04:25Z</time></trkpt><trkpt lat="43.124270393577945" lon="10.712679893247993"><ele>80.0</ele><time>2026-05-03T12:04:26Z</time></trkpt><trkpt lat="43.124200779108065" lon="10.71281288157694"><ele>80.0</ele><time>2026-05-03T12:04:28Z</time></trkpt><trkpt lat="43.124147993528545" lon="10.712874770624984"><ele>80.0</ele><time>2026-05-03T12:04:29Z</time></trkpt><trkpt lat="43.124080788105196" lon="10.712939754479892"><ele>81.2</ele><time>2026-05-03T12:04:30Z</time></trkpt><trkpt lat="43.12401481830233" lon="10.713008093406621"><ele>82.4</ele><time>2026-05-03T12:04:31Z</time></trkpt><trkpt lat="43.123939812467576" lon="10.713100398177188"><ele>83.6</ele><time>2026-05-03T12:04:32Z</time></trkpt><trkpt lat="43.123863680489976" lon="10.7132040381416"><ele>84.8</ele><time>2026-05-03T12:04:33Z</time></trkpt><trkpt lat="43.12378736475789" lon="10.71330479899546"><ele>86.0</ele><time>2026-05-03T12:04:34Z</time></trkpt><trkpt lat="43.123700172934456" lon="10.713412802658539"><ele>86.0</ele><time>2026-05-03T12:04:35Z</time></trkpt><trkpt lat="43.12360442050002" lon="10.713527739010758"><ele>86.0</ele><time>2026-05-03T12:04:36Z</time></trkpt><trkpt lat="43.1235142844305" lon="10.713639209127074"><ele>86.0</ele><time>2026-05-03T12:04:37Z</time></trkpt><trkpt lat="43.12343691125527" lon="10.713735775825059"><ele>86.0</ele><time>2026-05-03T12:04:38Z</time></trkpt><trkpt lat="43.12336606918269" lon="10.713822348009804"><ele>86.0</ele><time>2026-05-03T12:04:39Z</time></trkpt><trkpt lat="43.12330536574514" lon="10.71389735203314"><ele>85.83333333333334</ele><time>2026-05-03T12:04:40Z</time></trkpt><trkpt lat="43.12325679146109" lon="10.713956645944027"><ele>85.66666666666667</ele><time>2026-05-03T12:04:41Z</time></trkpt><trkpt lat="43.123210278604034" lon="10.714041817844064"><ele>85.5</ele><time>2026-05-03T12:04:43Z</time></trkpt><trkpt lat="43.12316012352418" lon="10.71413563673698"><ele>85.33333333333333</ele><time>2026-05-03T12:05:31.001Z</time></trkpt><trkpt lat="43.123110961299375" lon="10.714263621225474"><ele>85.16666666666666</ele><time>2026-05-03T12:05:33.001Z</time></trkpt><trkpt lat="43.123057795649174" lon="10.714334983807143"><ele>85.0</ele><time>2026-05-03T12:05:34.001Z</time></trkpt><trkpt lat="43.123011521843345" lon="10.714422459860206"><ele>87.8</ele><time>2026-05-03T12:05:35.001Z</time></trkpt><trkpt lat="43.12295942098249" lon="10.71452095142723"><ele>90.6</ele><time>2026-05-03T12:05:36.001Z</time></trkpt><trkpt lat="43.12290735578443" lon="10.714622040808058"><ele>93.4</ele><time>2026-05-03T12:05:37.001Z</time></trkpt><trkpt lat="43.12287785651755" lon="10.714738772080727"><ele>96.2</ele><time>2026-05-03T12:05:38.001Z</time></trkpt><trkpt lat="43.122851886910546" lon="10.714852593072218"><ele>99.0</ele><time>2026-05-03T12:05:39.001Z</time></trkpt><trkpt lat="43.122846230465804" lon="10.714984205414492"><ele>99.0</ele><time>2026-05-03T12:05:40.001Z</time></trkpt><trkpt lat="43.12284946389287" lon="10.7151220566963"><ele>99.0</ele><time>2026-05-03T12:05:41.001Z</time></trkpt><trkpt lat="43.12284347368649" lon="10.715258238189003"><ele>99.0</ele><time>2026-05-03T12:05:42.001Z</time></trkpt><trkpt lat="43.12283629691332" lon="10.715395993977777"><ele>99.0</ele><time>2026-05-03T12:05:43.001Z</time></trkpt><trkpt lat="43.12283393231194" lon="10.715523980673513"><ele>99.0</ele><time>2026-05-03T12:05:44.001Z</time></trkpt><trkpt lat="43.122838759285294" lon="10.715647181353207"><ele>98.0</ele><time>2026-05-03T12:05:45.001Z</time></trkpt><trkpt lat="43.12284457208744" lon="10.715746076462903"><ele>97.0</ele><time>2026-05-03T12:05:46.001Z</time></trkpt><trkpt lat="43.122864165495386" lon="10.71587803414911"><ele>96.0</ele><time>2026-05-03T12:05:47.999Z</time></trkpt><trkpt lat="43.122987120928315" lon="10.716231272438684"><ele>96.0</ele><time>2026-05-03T12:05:49.999Z</time></trkpt><trkpt lat="43.12254601207782" lon="10.715950211401314"><ele>96.0</ele><time>2026-05-03T12:05:51.999Z</time></trkpt><trkpt lat="43.122428193906885" lon="10.715955670830995"><ele>96.0</ele><time>2026-05-03T12:05:53.999Z</time></trkpt><trkpt lat="43.122365578908834" lon="10.715891905923167"><ele>96.0</ele><time>2026-05-03T12:05:54.999Z</time></trkpt><trkpt lat="43.122298665222985" lon="10.715817584857911"><ele>96.0</ele><time>2026-05-03T12:05:55.999Z</time></trkpt><trkpt lat="43.122244551159184" lon="10.715742211330783"><ele>96.0</ele><time>2026-05-03T12:05:56.999Z</time></trkpt><trkpt lat="43.1221964880566" lon="10.715645853839252"><ele>96.0</ele><time>2026-05-03T12:05:57.999Z</time></trkpt><trkpt lat="43.12215485205655" lon="10.715544594503378"><ele>96.6</ele><time>2026-05-03T12:05:58.999Z</time></trkpt><trkpt lat="43.122119136592744" lon="10.715429354080907"><ele>97.19999999999999</ele><time>2026-05-03T12:05:59.999Z</time></trkpt><trkpt lat="43.122078103896555" lon="10.71526109945241"><ele>97.80000000000001</ele><time>2026-05-03T12:06:00.999Z</time></trkpt><trkpt lat="43.12203574267434" lon="10.715104996977592"><ele>98.4</ele><time>2026-05-03T12:06:01.999Z</time></trkpt><trkpt lat="43.12200367291162" lon="10.714968011554998"><ele>99.0</ele><time>2026-05-03T12:06:02.999Z</time></trkpt><trkpt lat="43.12197880753729" lon="10.714818377644594"><ele>101.2</ele><time>2026-05-03T12:06:03.999Z</time></trkpt><trkpt lat="43.121963600578006" lon="10.714669969973347"><ele>103.4</ele><time>2026-05-03T12:06:04.999Z</time></trkpt><trkpt lat="43.12194008069474" lon="10.714549883398142"><ele>105.6</ele><time>2026-05-03T12:06:05.999Z</time></trkpt><trkpt lat="43.12191314886727" lon="10.714402658937809"><ele>107.8</ele><time>2026-05-03T12:06:06.999Z</time></trkpt><trkpt lat="43.121887575736984" lon="10.714233210333092"><ele>110.0</ele><time>2026-05-03T12:06:07.999Z</time></trkpt><trkpt lat="43.12186692601949" lon="10.714032288515446"><ele>111.8</ele><time>2026-05-03T12:06:09Z</time></trkpt><trkpt lat="43.121856414728406" lon="10.713858423994777"><ele>113.6</ele><time>2026-05-03T12:06:10Z</time></trkpt><trkpt lat="43.12183541541082" lon="10.713723341311205"><ele>115.4</ele><time>2026-05-03T12:06:11Z</time></trkpt><trkpt lat="43.1218138688029" lon="10.713609411221814"><ele>117.2</ele><time>2026-05-03T12:06:12Z</time></trkpt><trkpt lat="43.12177919566026" lon="10.713477049061476"><ele>119.0</ele><time>2026-05-03T12:06:13Z</time></trkpt><trkpt lat="43.12171988887297" lon="10.713332648908334"><ele>119.80000000000001</ele><time>2026-05-03T12:06:14Z</time></trkpt><trkpt lat="43.121659487415144" lon="10.713204605632194"><ele>120.60000000000001</ele><time>2026-05-03T12:06:15Z</time></trkpt><trkpt lat="43.12159922827068" lon="10.713108733283837"><ele>121.4</ele><time>2026-05-03T12:06:16Z</time></trkpt><trkpt lat="43.121524096081025" lon="10.712993286851196"><ele>122.2</ele><time>2026-05-03T12:06:17Z</time></trkpt><trkpt lat="43.12145845460941" lon="10.712866511585206"><ele>123.0</ele><time>2026-05-03T12:06:18Z</time></trkpt><trkpt lat="43.12141438938617" lon="10.71273610063607"><ele>125.75</ele><time>2026-05-03T12:06:19Z</time></trkpt><trkpt lat="43.12139728085175" lon="10.712583009960143"><ele>128.5</ele><time>2026-05-03T12:06:20Z</time></trkpt><trkpt lat="43.12136350954344" lon="10.712407307817438"><ele>131.25</ele><time>2026-05-03T12:06:21Z</time></trkpt><trkpt lat="43.121357359982" lon="10.712230600906349"><ele>134.0</ele><time>2026-05-03T12:06:22Z</time></trkpt><trkpt lat="43.12135075006658" lon="10.712114401896114"><ele>134.0</ele><time>2026-05-03T12:06:23Z</time></trkpt><trkpt lat="43.121327561606236" lon="10.712014900545986"><ele>134.0</ele><time>2026-05-03T12:06:24Z</time></trkpt><trkpt lat="43.12126065317562" lon="10.711891448747227"><ele>134.0</ele><time>2026-05-03T12:06:25Z</time></trkpt><trkpt lat="43.12119589524507" lon="10.71175236091039"><ele>134.0</ele><time>2026-05-03T12:06:26Z</time></trkpt><trkpt lat="43.12114917704792" lon="10.711617232855765"><ele>134.0</ele><time>2026-05-03T12:06:27Z</time></trkpt><trkpt lat="43.12112904666857" lon="10.711474817523156"><ele>133.2</ele><time>2026-05-03T12:06:28Z</time></trkpt><trkpt lat="43.12112915313362" lon="10.711312982077379"><ele>132.4</ele><time>2026-05-03T12:06:29Z</time></trkpt><trkpt lat="43.121129397809696" lon="10.711201254988849"><ele>131.6</ele><time>2026-05-03T12:06:30Z</time></trkpt><trkpt lat="43.12112527910395" lon="10.711087973046922"><ele>130.8</ele><time>2026-05-03T12:06:31Z</time></trkpt><trkpt lat="43.12112292709791" lon="10.710949673720455"><ele>130.0</ele><time>2026-05-03T12:06:32Z</time></trkpt><trkpt lat="43.121108211981074" lon="10.710772529434136"><ele>130.0</ele><time>2026-05-03T12:06:33Z</time></trkpt><trkpt lat="43.121081982652235" lon="10.710626020124788"><ele>130.0</ele><time>2026-05-03T12:06:34Z</time></trkpt><trkpt lat="43.12107651297366" lon="10.71049531916601"><ele>130.0</ele><time>2026-05-03T12:06:35Z</time></trkpt><trkpt lat="43.12109913067592" lon="10.710315971941615"><ele>130.0</ele><time>2026-05-03T12:06:36Z</time></trkpt><trkpt lat="43.12111363787352" lon="10.710177774625873"><ele>130.0</ele><time>2026-05-03T12:06:37Z</time></trkpt><trkpt lat="43.12112469602927" lon="10.70998830150205"><ele>131.2</ele><time>2026-05-03T12:06:38Z</time></trkpt><trkpt lat="43.121119795267205" lon="10.709821483347763"><ele>132.4</ele><time>2026-05-03T12:06:39Z</time></trkpt><trkpt lat="43.12111947812141" lon="10.709676266322012"><ele>133.6</ele><time>2026-05-03T12:06:40Z</time></trkpt><trkpt lat="43.121103072784756" lon="10.70956886445034"><ele>134.8</ele><time>2026-05-03T12:06:41Z</time></trkpt><trkpt lat="43.12110485044595" lon="10.709407235761311"><ele>136.0</ele><time>2026-05-03T12:06:43Z</time></trkpt><trkpt lat="43.121091326801626" lon="10.709310793955122"><ele>137.16666666666669</ele><time>2026-05-03T12:06:44Z</time></trkpt><trkpt lat="43.12107028563795" lon="10.709218954929321"><ele>138.33333333333334</ele><time>2026-05-03T12:06:45Z</time></trkpt><trkpt lat="43.12104253356359" lon="10.70908316988999"><ele>139.5</ele><time>2026-05-03T12:06:47Z</time></trkpt><trkpt lat="43.121032903999335" lon="10.70898048898871"><ele>140.66666666666666</ele><time>2026-05-03T12:06:49Z</time></trkpt><trkpt lat="43.121031329192924" lon="10.708887016996814"><ele>141.83333333333331</ele><time>2026-05-03T12:06:53Z</time></trkpt><trkpt lat="43.120972489821504" lon="10.708821557108687"><ele>143.0</ele><time>2026-05-03T12:08:29Z</time></trkpt><trkpt lat="43.12105076753606" lon="10.708844876242951"><ele>143.0</ele><time>2026-05-03T12:09:16.001Z</time></trkpt><trkpt lat="43.12098122722517" lon="10.708830982597943"><ele>143.0</ele><time>2026-05-03T12:37:38Z</time></trkpt><trkpt lat="43.12102205532422" lon="10.708902880944825"><ele>143.0</ele><time>2026-05-03T12:40:43.001Z</time></trkpt><trkpt lat="43.120994986852835" lon="10.708814205130116"><ele>143.0</ele><time>2026-05-03T12:42:22.001Z</time></trkpt><trkpt lat="43.12097650084311" lon="10.708694001573294"><ele>143.0</ele><time>2026-05-03T12:42:24.001Z</time></trkpt><trkpt lat="43.12091440364055" lon="10.708537083716676"><ele>143.0</ele><time>2026-05-03T12:42:26.001Z</time></trkpt><trkpt lat="43.12087811334211" lon="10.708459327585542"><ele>142.85714285714283</ele><time>2026-05-03T12:42:27.001Z</time></trkpt><trkpt lat="43.120833782183134" lon="10.708386171806946"><ele>142.71428571428572</ele><time>2026-05-03T12:42:28.001Z</time></trkpt><trkpt lat="43.12078577044414" lon="10.708311260216387"><ele>142.57142857142856</ele><time>2026-05-03T12:42:29.001Z</time></trkpt><trkpt lat="43.12075401416485" lon="10.708234908747283"><ele>142.42857142857142</ele><time>2026-05-03T12:42:30.001Z</time></trkpt><trkpt lat="43.120728350845724" lon="10.708148805117313"><ele>142.28571428571428</ele><time>2026-05-03T12:42:31.001Z</time></trkpt><trkpt lat="43.12072397856043" lon="10.708040665118121"><ele>142.14285714285714</ele><time>2026-05-03T12:42:32.001Z</time></trkpt><trkpt lat="43.12072502581353" lon="10.707934460004974"><ele>142.0</ele><time>2026-05-03T12:42:33.001Z</time></trkpt><trkpt lat="43.12072294243142" lon="10.707810949319509"><ele>141.79999999999998</ele><time>2026-05-03T12:42:34.001Z</time></trkpt><trkpt lat="43.12072380310743" lon="10.707677731099531"><ele>141.6</ele><time>2026-05-03T12:42:35.001Z</time></trkpt><trkpt lat="43.120717030880776" lon="10.707551581652277"><ele>141.39999999999998</ele><time>2026-05-03T12:42:36.001Z</time></trkpt><trkpt lat="43.12071921274749" lon="10.707428564932457"><ele>141.2</ele><time>2026-05-03T12:42:37.001Z</time></trkpt><trkpt lat="43.120725957099054" lon="10.707303171039687"><ele>141.0</ele><time>2026-05-03T12:42:38.001Z</time></trkpt><trkpt lat="43.120744150783636" lon="10.707180639261688"><ele>141.0</ele><time>2026-05-03T12:42:39.001Z</time></trkpt><trkpt lat="43.120763853659305" lon="10.707063320965691"><ele>141.0</ele><time>2026-05-03T12:42:40.001Z</time></trkpt><trkpt lat="43.12078612745003" lon="10.706938397625889"><ele>141.0</ele><time>2026-05-03T12:42:41.001Z</time></trkpt><trkpt lat="43.120817218084376" lon="10.706805115574294"><ele>141.0</ele><time>2026-05-03T12:42:42.001Z</time></trkpt><trkpt lat="43.12083535536321" lon="10.706675984114533"><ele>141.0</ele><time>2026-05-03T12:42:43.001Z</time></trkpt><trkpt lat="43.12085639275373" lon="10.70654386560147"><ele>140.2</ele><time>2026-05-03T12:42:44.001Z</time></trkpt><trkpt lat="43.120878167982376" lon="10.706405025205529"><ele>139.39999999999998</ele><time>2026-05-03T12:42:45.001Z</time></trkpt><trkpt lat="43.120902736087494" lon="10.706265728530182"><ele>138.6</ele><time>2026-05-03T12:42:46.001Z</time></trkpt><trkpt lat="43.1209376514321" lon="10.706129776354333"><ele>137.79999999999998</ele><time>2026-05-03T12:42:47.001Z</time></trkpt><trkpt lat="43.12099123210952" lon="10.70600110482644"><ele>137.0</ele><time>2026-05-03T12:42:48.001Z</time></trkpt><trkpt lat="43.12103361154716" lon="10.70587000252108"><ele>136.6</ele><time>2026-05-03T12:42:49.001Z</time></trkpt><trkpt lat="43.12105024546001" lon="10.705718566587548"><ele>136.2</ele><time>2026-05-03T12:42:50.001Z</time></trkpt><trkpt lat="43.12104755929163" lon="10.705591025517226"><ele>135.8</ele><time>2026-05-03T12:42:51.001Z</time></trkpt><trkpt lat="43.12105152235651" lon="10.705431128150964"><ele>135.4</ele><time>2026-05-03T12:42:52.001Z</time></trkpt><trkpt lat="43.12107308274795" lon="10.70531864431722"><ele>135.0</ele><time>2026-05-03T12:42:53.001Z</time></trkpt><trkpt lat="43.1210981210405" lon="10.705203364259642"><ele>135.8</ele><time>2026-05-03T12:42:54.001Z</time></trkpt><trkpt lat="43.12109579514042" lon="10.705079015724904"><ele>136.6</ele><time>2026-05-03T12:42:55.001Z</time></trkpt><trkpt lat="43.12108292576156" lon="10.704929861293747"><ele>137.4</ele><time>2026-05-03T12:42:56.001Z</time></trkpt><trkpt lat="43.121069020298705" lon="10.70477804773476"><ele>138.2</ele><time>2026-05-03T12:42:57.001Z</time></trkpt><trkpt lat="43.12104957099465" lon="10.704654919951615"><ele>139.0</ele><time>2026-05-03T12:42:58.001Z</time></trkpt><trkpt lat="43.1210131032851" lon="10.704539317249859"><ele>139.0</ele><time>2026-05-03T12:42:59.001Z</time></trkpt><trkpt lat="43.1209683437563" lon="10.704438123455034"><ele>139.0</ele><time>2026-05-03T12:43:00.001Z</time></trkpt><trkpt lat="43.120930768395816" lon="10.70434664089075"><ele>139.0</ele><time>2026-05-03T12:43:01.001Z</time></trkpt><trkpt lat="43.120932167952645" lon="10.704221421303513"><ele>139.0</ele><time>2026-05-03T12:43:02.001Z</time></trkpt><trkpt lat="43.120933648318875" lon="10.704108073230492"><ele>139.0</ele><time>2026-05-03T12:43:03.001Z</time></trkpt><trkpt lat="43.12092968875771" lon="10.704009280656681"><ele>139.0</ele><time>2026-05-03T12:43:04.001Z</time></trkpt><trkpt lat="43.120886715467535" lon="10.703904441261736"><ele>139.5</ele><time>2026-05-03T12:43:05.001Z</time></trkpt><trkpt lat="43.12080409791267" lon="10.70380407652577"><ele>140.0</ele><time>2026-05-03T12:43:06.001Z</time></trkpt><trkpt lat="43.1206938650188" lon="10.703729997691015"><ele>140.5</ele><time>2026-05-03T12:43:07.001Z</time></trkpt><trkpt lat="43.120588214158914" lon="10.7036400827383"><ele>141.0</ele><time>2026-05-03T12:43:08.001Z</time></trkpt><trkpt lat="43.12048964629816" lon="10.703525047678767"><ele>142.75</ele><time>2026-05-03T12:43:09.001Z</time></trkpt><trkpt lat="43.12038928304123" lon="10.703425218244226"><ele>144.5</ele><time>2026-05-03T12:43:10.001Z</time></trkpt><trkpt lat="43.120293425461995" lon="10.703268363200197"><ele>146.25</ele><time>2026-05-03T12:43:11.001Z</time></trkpt><trkpt lat="43.12020798082059" lon="10.703131016631652"><ele>148.0</ele><time>2026-05-03T12:43:12.001Z</time></trkpt><trkpt lat="43.120139917259316" lon="10.703022392844263"><ele>148.0</ele><time>2026-05-03T12:43:13.001Z</time></trkpt><trkpt lat="43.12007722653937" lon="10.702920485282002"><ele>148.0</ele><time>2026-05-03T12:43:14.001Z</time></trkpt><trkpt lat="43.12002797529023" lon="10.702823759085462"><ele>148.0</ele><time>2026-05-03T12:43:15.001Z</time></trkpt><trkpt lat="43.11999608753039" lon="10.702687255466678"><ele>148.0</ele><time>2026-05-03T12:43:16.001Z</time></trkpt><trkpt lat="43.11997674919744" lon="10.702553344054103"><ele>148.0</ele><time>2026-05-03T12:43:17.001Z</time></trkpt><trkpt lat="43.11994200301498" lon="10.702413262443676"><ele>148.0</ele><time>2026-05-03T12:43:18.001Z</time></trkpt><trkpt lat="43.119907323197474" lon="10.702299592659678"><ele>148.0</ele><time>2026-05-03T12:43:19.001Z</time></trkpt><trkpt lat="43.11985488254256" lon="10.70222600633507"><ele>148.0</ele><time>2026-05-03T12:43:20.001Z</time></trkpt><trkpt lat="43.11979089549023" lon="10.702177027896727"><ele>148.0</ele><time>2026-05-03T12:43:21.001Z</time></trkpt><trkpt lat="43.11971151610188" lon="10.70213777861768"><ele>148.0</ele><time>2026-05-03T12:43:22.001Z</time></trkpt><trkpt lat="43.119632987207545" lon="10.702124404392372"><ele>148.0</ele><time>2026-05-03T12:43:23.001Z</time></trkpt><trkpt lat="43.119552930925316" lon="10.702092834926962"><ele>148.0</ele><time>2026-05-03T12:43:24.001Z</time></trkpt><trkpt lat="43.11949904486991" lon="10.702037373484028"><ele>148.0</ele><time>2026-05-03T12:43:25.001Z</time></trkpt><trkpt lat="43.11944506060771" lon="10.701872779133982"><ele>148.0</ele><time>2026-05-03T12:43:27.001Z</time></trkpt><trkpt lat="43.11943149315272" lon="10.701758956037997"><ele>148.0</ele><time>2026-05-03T12:43:28.001Z</time></trkpt><trkpt lat="43.11941856140493" lon="10.701618294434345"><ele>148.0</ele><time>2026-05-03T12:43:29.001Z</time></trkpt><trkpt lat="43.11940601955033" lon="10.701457805518432"><ele>147.5</ele><time>2026-05-03T12:43:30.001Z</time></trkpt><trkpt lat="43.11938495147452" lon="10.701280816280603"><ele>147.0</ele><time>2026-05-03T12:43:31.001Z</time></trkpt><trkpt lat="43.11936500021494" lon="10.701094191903378"><ele>146.5</ele><time>2026-05-03T12:43:32.001Z</time></trkpt><trkpt lat="43.11936048377291" lon="10.700920809886606"><ele>146.0</ele><time>2026-05-03T12:43:33.001Z</time></trkpt><trkpt lat="43.11934212380296" lon="10.700777071828657"><ele>145.6</ele><time>2026-05-03T12:43:34.001Z</time></trkpt><trkpt lat="43.11931579559857" lon="10.700655388559504"><ele>145.2</ele><time>2026-05-03T12:43:35Z</time></trkpt><trkpt lat="43.119289127924255" lon="10.700531084980794"><ele>144.8</ele><time>2026-05-03T12:43:36Z</time></trkpt><trkpt lat="43.119243073418474" lon="10.700403510112006"><ele>144.4</ele><time>2026-05-03T12:43:37Z</time></trkpt><trkpt lat="43.11919580598549" lon="10.700289492521748"><ele>144.0</ele><time>2026-05-03T12:43:38Z</time></trkpt><trkpt lat="43.11916140465248" lon="10.700173449330487"><ele>143.66666666666666</ele><time>2026-05-03T12:43:39Z</time></trkpt><trkpt lat="43.119136999771214" lon="10.700055596558967"><ele>143.33333333333334</ele><time>2026-05-03T12:43:40Z</time></trkpt><trkpt lat="43.11911750958778" lon="10.699937479795796"><ele>143.0</ele><time>2026-05-03T12:43:41Z</time></trkpt><trkpt lat="43.11908592542791" lon="10.699836092585867"><ele>142.66666666666669</ele><time>2026-05-03T12:43:42Z</time></trkpt><trkpt lat="43.11904988378337" lon="10.699747915598714"><ele>142.33333333333334</ele><time>2026-05-03T12:43:43Z</time></trkpt><trkpt lat="43.119008045599585" lon="10.699653693431868"><ele>142.0</ele><time>2026-05-03T12:43:44Z</time></trkpt><trkpt lat="43.118947126707255" lon="10.69957738234663"><ele>140.4</ele><time>2026-05-03T12:43:45Z</time></trkpt><trkpt lat="43.11890293945682" lon="10.699493528984117"><ele>138.79999999999998</ele><time>2026-05-03T12:43:46Z</time></trkpt><trkpt lat="43.118856241368526" lon="10.699412930179184"><ele>137.2</ele><time>2026-05-03T12:43:47Z</time></trkpt><trkpt lat="43.118797259322506" lon="10.699333647580834"><ele>135.6</ele><time>2026-05-03T12:43:48Z</time></trkpt><trkpt lat="43.1187349669763" lon="10.699208563600735"><ele>134.0</ele><time>2026-05-03T12:43:49Z</time></trkpt><trkpt lat="43.11867554315628" lon="10.699063975475767"><ele>134.0</ele><time>2026-05-03T12:43:50Z</time></trkpt><trkpt lat="43.118619576029694" lon="10.698946570498459"><ele>134.0</ele><time>2026-05-03T12:43:51Z</time></trkpt><trkpt lat="43.11855822132644" lon="10.698814457773981"><ele>134.0</ele><time>2026-05-03T12:43:52Z</time></trkpt><trkpt lat="43.11848858065822" lon="10.698684392248657"><ele>134.0</ele><time>2026-05-03T12:43:53Z</time></trkpt><trkpt lat="43.11840852630542" lon="10.698541982188031"><ele>134.0</ele><time>2026-05-03T12:43:54Z</time></trkpt><trkpt lat="43.11833527481614" lon="10.69843289957567"><ele>134.0</ele><time>2026-05-03T12:43:55Z</time></trkpt><trkpt lat="43.11827795361729" lon="10.698339660350047"><ele>134.0</ele><time>2026-05-03T12:43:56Z</time></trkpt><trkpt lat="43.11824031655923" lon="10.698249247298678"><ele>134.0</ele><time>2026-05-03T12:43:57Z</time></trkpt><trkpt lat="43.11822468054568" lon="10.698163591043926"><ele>134.0</ele><time>2026-05-03T12:43:58Z</time></trkpt><trkpt lat="43.1182271127202" lon="10.698050385043983"><ele>134.0</ele><time>2026-05-03T12:43:59Z</time></trkpt><trkpt lat="43.11823683988177" lon="10.6979454504059"><ele>134.0</ele><time>2026-05-03T12:44:00Z</time></trkpt><trkpt lat="43.11824909117943" lon="10.697848807771765"><ele>134.0</ele><time>2026-05-03T12:44:01Z</time></trkpt><trkpt lat="43.11826172071361" lon="10.697689198987074"><ele>134.0</ele><time>2026-05-03T12:44:03Z</time></trkpt><trkpt lat="43.1182864428744" lon="10.69759189525625"><ele>134.0</ele><time>2026-05-03T12:44:04Z</time></trkpt><trkpt lat="43.11837234248071" lon="10.697481306529907"><ele>134.0</ele><time>2026-05-03T12:44:06Z</time></trkpt><trkpt lat="43.11845695601274" lon="10.697447261613386"><ele>133.66666666666666</ele><time>2026-05-03T12:44:07Z</time></trkpt><trkpt lat="43.118539510058135" lon="10.69739805883064"><ele>133.33333333333331</ele><time>2026-05-03T12:44:08Z</time></trkpt><trkpt lat="43.11861133117933" lon="10.697302181024687"><ele>133.0</ele><time>2026-05-03T12:44:09Z</time></trkpt><trkpt lat="43.118672335117964" lon="10.697189524455018"><ele>132.66666666666666</ele><time>2026-05-03T12:44:10Z</time></trkpt><trkpt lat="43.118699198706835" lon="10.697105415822541"><ele>132.33333333333334</ele><time>2026-05-03T12:44:11Z</time></trkpt><trkpt lat="43.11873530152701" lon="10.697019282605659"><ele>132.0</ele><time>2026-05-03T12:44:13Z</time></trkpt><trkpt lat="43.11879600987554" lon="10.696834898964841"><ele>130.2</ele><time>2026-05-03T12:44:15Z</time></trkpt><trkpt lat="43.11883892897089" lon="10.696694625955356"><ele>128.39999999999998</ele><time>2026-05-03T12:44:16Z</time></trkpt><trkpt lat="43.118878146937675" lon="10.696548860031692"><ele>126.60000000000001</ele><time>2026-05-03T12:44:17Z</time></trkpt><trkpt lat="43.11891316428813" lon="10.696413742381665"><ele>124.80000000000001</ele><time>2026-05-03T12:44:18Z</time></trkpt><trkpt lat="43.118957817034904" lon="10.696292102201625"><ele>123.0</ele><time>2026-05-03T12:44:19Z</time></trkpt><trkpt lat="43.119015864592996" lon="10.696185331750447"><ele>123.25</ele><time>2026-05-03T12:44:20Z</time></trkpt><trkpt lat="43.11910176846326" lon="10.696089046087295"><ele>123.5</ele><time>2026-05-03T12:44:21Z</time></trkpt><trkpt lat="43.119203024901104" lon="10.695989053626818"><ele>123.75</ele><time>2026-05-03T12:44:22Z</time></trkpt><trkpt lat="43.11930331768523" lon="10.695897859011525"><ele>124.0</ele><time>2026-05-03T12:44:23Z</time></trkpt><trkpt lat="43.11939050890758" lon="10.6957981070498"><ele>124.0</ele><time>2026-05-03T12:44:24Z</time></trkpt><trkpt lat="43.11946339500257" lon="10.695696370778755"><ele>124.0</ele><time>2026-05-03T12:44:25Z</time></trkpt><trkpt lat="43.11952418970667" lon="10.695593825592029"><ele>124.0</ele><time>2026-05-03T12:44:26.001Z</time></trkpt><trkpt lat="43.11957394173955" lon="10.695484374226053"><ele>124.0</ele><time>2026-05-03T12:44:27.001Z</time></trkpt><trkpt lat="43.119614484217294" lon="10.695358103361718"><ele>124.0</ele><time>2026-05-03T12:44:28.001Z</time></trkpt><trkpt lat="43.11964894140371" lon="10.695243674371255"><ele>124.00000000000001</ele><time>2026-05-03T12:44:29.001Z</time></trkpt><trkpt lat="43.11970701506012" lon="10.695142546146124"><ele>124.0</ele><time>2026-05-03T12:44:30.001Z</time></trkpt><trkpt lat="43.11977932009761" lon="10.69505542088484"><ele>124.0</ele><time>2026-05-03T12:44:31.001Z</time></trkpt><trkpt lat="43.119853479942435" lon="10.694988558761077"><ele>124.0</ele><time>2026-05-03T12:44:32.001Z</time></trkpt><trkpt lat="43.11990928793963" lon="10.694927008499741"><ele>124.00000000000001</ele><time>2026-05-03T12:44:33.001Z</time></trkpt><trkpt lat="43.119940069474815" lon="10.694850145668097"><ele>124.0</ele><time>2026-05-03T12:44:34.001Z</time></trkpt><trkpt lat="43.1200286980452" lon="10.69468882075614"><ele>126.4</ele><time>2026-05-03T12:44:36.001Z</time></trkpt><trkpt lat="43.120101959022676" lon="10.694606611076152"><ele>128.8</ele><time>2026-05-03T12:44:37.001Z</time></trkpt><trkpt lat="43.12017095550559" lon="10.694523231132205"><ele>131.2</ele><time>2026-05-03T12:44:38.001Z</time></trkpt><trkpt lat="43.12022655361102" lon="10.694419298208649"><ele>133.6</ele><time>2026-05-03T12:44:39.001Z</time></trkpt><trkpt lat="43.12026979111261" lon="10.694290710968687"><ele>136.0</ele><time>2026-05-03T12:44:40.001Z</time></trkpt><trkpt lat="43.12030264066814" lon="10.69412914331203"><ele>136.75</ele><time>2026-05-03T12:44:41.001Z</time></trkpt><trkpt lat="43.12032138268175" lon="10.693973729587997"><ele>137.5</ele><time>2026-05-03T12:44:42.001Z</time></trkpt><trkpt lat="43.120344020083145" lon="10.693802861671275"><ele>138.25</ele><time>2026-05-03T12:44:43.001Z</time></trkpt><trkpt lat="43.12039495380881" lon="10.693605572391549"><ele>139.0</ele><time>2026-05-03T12:44:44.001Z</time></trkpt><trkpt lat="43.12045186504947" lon="10.693419192958"><ele>139.4</ele><time>2026-05-03T12:44:45.001Z</time></trkpt><trkpt lat="43.120485170215176" lon="10.69325723286084"><ele>139.8</ele><time>2026-05-03T12:44:46.001Z</time></trkpt><trkpt lat="43.12051213048167" lon="10.6931106683703"><ele>140.2</ele><time>2026-05-03T12:44:47.001Z</time></trkpt><trkpt lat="43.120529641170926" lon="10.692987618359009"><ele>140.6</ele><time>2026-05-03T12:44:48.001Z</time></trkpt><trkpt lat="43.120539427860336" lon="10.692886523192756"><ele>141.0</ele><time>2026-05-03T12:44:49.001Z</time></trkpt><trkpt lat="43.1205372179855" lon="10.692796135385606"><ele>140.5</ele><time>2026-05-03T12:44:50.001Z</time></trkpt><trkpt lat="43.12050626478964" lon="10.692666837841669"><ele>140.0</ele><time>2026-05-03T12:44:51.001Z</time></trkpt><trkpt lat="43.12046613646366" lon="10.69252485482716"><ele>139.5</ele><time>2026-05-03T12:44:52.001Z</time></trkpt><trkpt lat="43.12042520091478" lon="10.692363959474848"><ele>139.0</ele><time>2026-05-03T12:44:53.001Z</time></trkpt><trkpt lat="43.12040433304741" lon="10.69219707248994"><ele>139.0</ele><time>2026-05-03T12:44:54.001Z</time></trkpt><trkpt lat="43.12036833621802" lon="10.692033311205536"><ele>139.0</ele><time>2026-05-03T12:44:55.001Z</time></trkpt><trkpt lat="43.12034070209875" lon="10.691867771126235"><ele>139.0</ele><time>2026-05-03T12:44:56.001Z</time></trkpt><trkpt lat="43.12029850810042" lon="10.691716052798007"><ele>139.0</ele><time>2026-05-03T12:44:57.001Z</time></trkpt><trkpt lat="43.12026741472492" lon="10.691548307516333"><ele>139.75</ele><time>2026-05-03T12:44:58.001Z</time></trkpt><trkpt lat="43.12023027115486" lon="10.691377006454807"><ele>140.5</ele><time>2026-05-03T12:44:59.001Z</time></trkpt><trkpt lat="43.12019536788172" lon="10.691202329165412"><ele>141.25</ele><time>2026-05-03T12:45:00.001Z</time></trkpt><trkpt lat="43.12017760689648" lon="10.691027342144922"><ele>142.0</ele><time>2026-05-03T12:45:01.001Z</time></trkpt><trkpt lat="43.12017045942698" lon="10.690838776714743"><ele>143.0</ele><time>2026-05-03T12:45:02.001Z</time></trkpt><trkpt lat="43.12013121322292" lon="10.69063958334501"><ele>144.0</ele><time>2026-05-03T12:45:03.001Z</time></trkpt><trkpt lat="43.12014019015767" lon="10.690466778286645"><ele>145.0</ele><time>2026-05-03T12:45:04.001Z</time></trkpt><trkpt lat="43.120137565687266" lon="10.690343835249385"><ele>146.0</ele><time>2026-05-03T12:45:05.001Z</time></trkpt><trkpt lat="43.12010394132351" lon="10.690222929478667"><ele>146.2</ele><time>2026-05-03T12:45:06.001Z</time></trkpt><trkpt lat="43.12005108323616" lon="10.690084436656056"><ele>146.39999999999998</ele><time>2026-05-03T12:45:07.001Z</time></trkpt><trkpt lat="43.11997475071825" lon="10.689926900453926"><ele>146.6</ele><time>2026-05-03T12:45:08.001Z</time></trkpt><trkpt lat="43.11993822851821" lon="10.689808915941565"><ele>146.79999999999998</ele><time>2026-05-03T12:45:09.001Z</time></trkpt><trkpt lat="43.1199244435874" lon="10.689706590382118"><ele>147.0</ele><time>2026-05-03T12:45:10.001Z</time></trkpt><trkpt lat="43.11992677849839" lon="10.689604608105322"><ele>147.0</ele><time>2026-05-03T12:45:11.001Z</time></trkpt><trkpt lat="43.119946494906664" lon="10.689487425139435"><ele>147.0</ele><time>2026-05-03T12:45:12.001Z</time></trkpt><trkpt lat="43.11998116264335" lon="10.689346864080086"><ele>147.0</ele><time>2026-05-03T12:45:13.001Z</time></trkpt><trkpt lat="43.120015028762474" lon="10.689175093057887"><ele>147.0</ele><time>2026-05-03T12:45:14.001Z</time></trkpt><trkpt lat="43.12003252773742" lon="10.689034382053858"><ele>147.0</ele><time>2026-05-03T12:45:15.001Z</time></trkpt><trkpt lat="43.120022304690046" lon="10.688913762692454"><ele>147.4</ele><time>2026-05-03T12:45:16.001Z</time></trkpt><trkpt lat="43.11998773611916" lon="10.688819541530995"><ele>147.79999999999998</ele><time>2026-05-03T12:45:17.001Z</time></trkpt><trkpt lat="43.11994863760913" lon="10.688672219278223"><ele>148.2</ele><time>2026-05-03T12:45:18.001Z</time></trkpt><trkpt lat="43.119868608867314" lon="10.68856825004349"><ele>148.6</ele><time>2026-05-03T12:45:19.001Z</time></trkpt><trkpt lat="43.11976996028905" lon="10.688462732851827"><ele>149.0</ele><time>2026-05-03T12:45:20.001Z</time></trkpt><trkpt lat="43.11965884215387" lon="10.688368736371297"><ele>149.4</ele><time>2026-05-03T12:45:21.001Z</time></trkpt><trkpt lat="43.11956741373541" lon="10.688277052540204"><ele>149.8</ele><time>2026-05-03T12:45:22.001Z</time></trkpt><trkpt lat="43.11951929280207" lon="10.688196617911746"><ele>150.2</ele><time>2026-05-03T12:45:23.001Z</time></trkpt><trkpt lat="43.11949864712962" lon="10.688086356513242"><ele>150.6</ele><time>2026-05-03T12:45:24.001Z</time></trkpt><trkpt lat="43.119473699935035" lon="10.687948824937891"><ele>151.0</ele><time>2026-05-03T12:45:25.001Z</time></trkpt><trkpt lat="43.119446342084274" lon="10.687778023652253"><ele>152.25</ele><time>2026-05-03T12:45:26.001Z</time></trkpt><trkpt lat="43.11940442071892" lon="10.687603284464382"><ele>153.5</ele><time>2026-05-03T12:45:27.001Z</time></trkpt><trkpt lat="43.11935563306811" lon="10.687418467777249"><ele>154.75</ele><time>2026-05-03T12:45:28.001Z</time></trkpt><trkpt lat="43.11932461786667" lon="10.687258248426481"><ele>156.0</ele><time>2026-05-03T12:45:29.001Z</time></trkpt><trkpt lat="43.11929948397029" lon="10.687128616072142"><ele>156.0</ele><time>2026-05-03T12:45:30.001Z</time></trkpt><trkpt lat="43.119244385755245" lon="10.687021077883667"><ele>156.0</ele><time>2026-05-03T12:45:31.001Z</time></trkpt><trkpt lat="43.11917834647232" lon="10.686906175299741"><ele>156.0</ele><time>2026-05-03T12:45:32.001Z</time></trkpt><trkpt lat="43.119115195293105" lon="10.686798390554284"><ele>156.0</ele><time>2026-05-03T12:45:33.001Z</time></trkpt><trkpt lat="43.11905308511598" lon="10.686706562781698"><ele>156.0</ele><time>2026-05-03T12:45:34.001Z</time></trkpt><trkpt lat="43.11897873680573" lon="10.686641245223608"><ele>155.8</ele><time>2026-05-03T12:45:35.001Z</time></trkpt><trkpt lat="43.11889327383694" lon="10.686573599861518"><ele>155.6</ele><time>2026-05-03T12:45:36.001Z</time></trkpt><trkpt lat="43.11880002877224" lon="10.686490141646841"><ele>155.4</ele><time>2026-05-03T12:45:37.001Z</time></trkpt><trkpt lat="43.11872689132015" lon="10.68640429540739"><ele>155.2</ele><time>2026-05-03T12:45:38.001Z</time></trkpt><trkpt lat="43.11866137202706" lon="10.686308470856014"><ele>155.0</ele><time>2026-05-03T12:45:39.001Z</time></trkpt><trkpt lat="43.11860016093899" lon="10.686202329936703"><ele>155.0</ele><time>2026-05-03T12:45:40.001Z</time></trkpt><trkpt lat="43.11854407642205" lon="10.686121406902513"><ele>155.0</ele><time>2026-05-03T12:45:41Z</time></trkpt><trkpt lat="43.11841234848708" lon="10.686004964332358"><ele>155.0</ele><time>2026-05-03T12:45:43Z</time></trkpt><trkpt lat="43.118338301852376" lon="10.685965847684425"><ele>155.0</ele><time>2026-05-03T12:45:44Z</time></trkpt><trkpt lat="43.11825833924615" lon="10.685909787924759"><ele>155.0</ele><time>2026-05-03T12:45:45Z</time></trkpt><trkpt lat="43.118177962099224" lon="10.685831093527769"><ele>154.0</ele><time>2026-05-03T12:45:46Z</time></trkpt><trkpt lat="43.11811443728022" lon="10.685729769214433"><ele>153.0</ele><time>2026-05-03T12:45:47Z</time></trkpt><trkpt lat="43.11805459784449" lon="10.685617562273828"><ele>152.0</ele><time>2026-05-03T12:45:48Z</time></trkpt><trkpt lat="43.11800087992414" lon="10.685508654582144"><ele>151.0</ele><time>2026-05-03T12:45:49Z</time></trkpt><trkpt lat="43.11795600208896" lon="10.685417219155216"><ele>150.0</ele><time>2026-05-03T12:45:50Z</time></trkpt><trkpt lat="43.117930300370276" lon="10.685286983127263"><ele>153.0</ele><time>2026-05-03T12:45:52Z</time></trkpt><trkpt lat="43.11791328558776" lon="10.685168636498123"><ele>156.0</ele><time>2026-05-03T12:45:54Z</time></trkpt><trkpt lat="43.11788970621245" lon="10.685065868172426"><ele>159.0</ele><time>2026-05-03T12:45:55Z</time></trkpt><trkpt lat="43.11786980226341" lon="10.684945711415827"><ele>162.0</ele><time>2026-05-03T12:45:56Z</time></trkpt><trkpt lat="43.11785490607041" lon="10.684803694377491"><ele>165.0</ele><time>2026-05-03T12:45:57Z</time></trkpt><trkpt lat="43.11783853207185" lon="10.684657131520325"><ele>165.0</ele><time>2026-05-03T12:45:58Z</time></trkpt><trkpt lat="43.11782427113628" lon="10.684504930305684"><ele>165.0</ele><time>2026-05-03T12:45:59Z</time></trkpt><trkpt lat="43.1178237716805" lon="10.68437606775944"><ele>165.0</ele><time>2026-05-03T12:46:00Z</time></trkpt><trkpt lat="43.11785713341587" lon="10.684267577856922"><ele>165.0</ele><time>2026-05-03T12:46:01Z</time></trkpt><trkpt lat="43.117874461650366" lon="10.68417288227148"><ele>165.0</ele><time>2026-05-03T12:46:02Z</time></trkpt><trkpt lat="43.11788857839518" lon="10.684080232198701"><ele>165.0</ele><time>2026-05-03T12:46:03Z</time></trkpt><trkpt lat="43.117896503259274" lon="10.683989133777368"><ele>167.4</ele><time>2026-05-03T12:46:04Z</time></trkpt><trkpt lat="43.11790459836453" lon="10.683877473099368"><ele>169.8</ele><time>2026-05-03T12:46:05Z</time></trkpt><trkpt lat="43.117898146689726" lon="10.683761774155975"><ele>172.2</ele><time>2026-05-03T12:46:06Z</time></trkpt><trkpt lat="43.117872662444015" lon="10.68364672514632"><ele>174.6</ele><time>2026-05-03T12:46:07Z</time></trkpt><trkpt lat="43.11782834908176" lon="10.68348621930253"><ele>177.0</ele><time>2026-05-03T12:46:08Z</time></trkpt><trkpt lat="43.11779815669517" lon="10.683340541516026"><ele>178.0</ele><time>2026-05-03T12:46:09Z</time></trkpt><trkpt lat="43.117792307500665" lon="10.683219180782524"><ele>179.0</ele><time>2026-05-03T12:46:10Z</time></trkpt><trkpt lat="43.11781436143713" lon="10.683101821378614"><ele>180.0</ele><time>2026-05-03T12:46:11Z</time></trkpt><trkpt lat="43.11783819340511" lon="10.682984425896473"><ele>181.0</ele><time>2026-05-03T12:46:12Z</time></trkpt><trkpt lat="43.1178299211551" lon="10.68285509971511"><ele>182.0</ele><time>2026-05-03T12:46:13Z</time></trkpt><trkpt lat="43.117803659530814" lon="10.682749246061793"><ele>183.0</ele><time>2026-05-03T12:46:14Z</time></trkpt><trkpt lat="43.1177524490844" lon="10.682593033519574"><ele>184.0</ele><time>2026-05-03T12:46:15Z</time></trkpt><trkpt lat="43.117712469250854" lon="10.682472212218034"><ele>185.0</ele><time>2026-05-03T12:46:16Z</time></trkpt><trkpt lat="43.117699303080535" lon="10.682356905993881"><ele>186.0</ele><time>2026-05-03T12:46:17Z</time></trkpt><trkpt lat="43.1176933889787" lon="10.682245716441725"><ele>187.0</ele><time>2026-05-03T12:46:18Z</time></trkpt><trkpt lat="43.1176808094184" lon="10.682117019230983"><ele>188.0</ele><time>2026-05-03T12:46:19Z</time></trkpt><trkpt lat="43.117647762180155" lon="10.6820367236461"><ele>189.0</ele><time>2026-05-03T12:46:20Z</time></trkpt><trkpt lat="43.117634432066986" lon="10.681897026809652"><ele>190.2</ele><time>2026-05-03T12:46:21Z</time></trkpt><trkpt lat="43.11761810791582" lon="10.681742947941776"><ele>191.39999999999998</ele><time>2026-05-03T12:46:22Z</time></trkpt><trkpt lat="43.11762416201658" lon="10.681593419244823"><ele>192.6</ele><time>2026-05-03T12:46:23Z</time></trkpt><trkpt lat="43.11764901982373" lon="10.681448919378733"><ele>193.8</ele><time>2026-05-03T12:46:24Z</time></trkpt><trkpt lat="43.11768817937894" lon="10.68132883670314"><ele>195.0</ele><time>2026-05-03T12:46:25Z</time></trkpt><trkpt lat="43.11775888676751" lon="10.68124226335112"><ele>195.0</ele><time>2026-05-03T12:46:26Z</time></trkpt><trkpt lat="43.117792924142215" lon="10.681134007311332"><ele>195.0</ele><time>2026-05-03T12:46:27Z</time></trkpt><trkpt lat="43.11782854587324" lon="10.681037183060972"><ele>195.0</ele><time>2026-05-03T12:46:28Z</time></trkpt><trkpt lat="43.11785753158157" lon="10.680953308809542"><ele>195.0</ele><time>2026-05-03T12:46:29Z</time></trkpt><trkpt lat="43.117874453090074" lon="10.680848875907998"><ele>195.0</ele><time>2026-05-03T12:46:30Z</time></trkpt><trkpt lat="43.117905245422946" lon="10.680758968819415"><ele>195.0</ele><time>2026-05-03T12:46:31Z</time></trkpt><trkpt lat="43.11792548127057" lon="10.680577674873655"><ele>195.0</ele><time>2026-05-03T12:46:32Z</time></trkpt><trkpt lat="43.117937241486835" lon="10.680442239621454"><ele>195.0</ele><time>2026-05-03T12:46:33Z</time></trkpt><trkpt lat="43.11793695137984" lon="10.68031184954695"><ele>195.0</ele><time>2026-05-03T12:46:34Z</time></trkpt><trkpt lat="43.11791004418506" lon="10.6802047256124"><ele>195.0</ele><time>2026-05-03T12:46:35Z</time></trkpt><trkpt lat="43.117890365925916" lon="10.68008603267434"><ele>195.0</ele><time>2026-05-03T12:46:36Z</time></trkpt><trkpt lat="43.11784046202465" lon="10.679972771311977"><ele>195.0</ele><time>2026-05-03T12:46:37Z</time></trkpt><trkpt lat="43.11781244797385" lon="10.679891416876773"><ele>195.0</ele><time>2026-05-03T12:46:38Z</time></trkpt><trkpt lat="43.11781014273562" lon="10.67978290589067"><ele>195.0</ele><time>2026-05-03T12:46:40Z</time></trkpt><trkpt lat="43.11782901709267" lon="10.679576915524768"><ele>195.0</ele><time>2026-05-03T12:46:42Z</time></trkpt><trkpt lat="43.11783725161313" lon="10.679442516104539"><ele>195.0</ele><time>2026-05-03T12:46:43Z</time></trkpt><trkpt lat="43.11784451913379" lon="10.679330827932025"><ele>193.66666666666666</ele><time>2026-05-03T12:46:44Z</time></trkpt><trkpt lat="43.11787153064186" lon="10.679248924530123"><ele>192.33333333333334</ele><time>2026-05-03T12:46:45Z</time></trkpt><trkpt lat="43.11790380128873" lon="10.6791663402273"><ele>191.0</ele><time>2026-05-03T12:46:46Z</time></trkpt><trkpt lat="43.11793120348231" lon="10.679075879813501"><ele>189.66666666666669</ele><time>2026-05-03T12:46:47Z</time></trkpt><trkpt lat="43.1179384879222" lon="10.67896771193731"><ele>188.33333333333334</ele><time>2026-05-03T12:46:49Z</time></trkpt><trkpt lat="43.11789398790108" lon="10.678874573589388"><ele>187.0</ele><time>2026-05-03T12:46:51Z</time></trkpt><trkpt lat="43.11779467652846" lon="10.678834740549549"><ele>187.0</ele><time>2026-05-03T12:46:53Z</time></trkpt><trkpt lat="43.117729071414516" lon="10.678786321102622"><ele>187.0</ele><time>2026-05-03T12:46:54Z</time></trkpt><trkpt lat="43.117677221681454" lon="10.678724909153571"><ele>187.0</ele><time>2026-05-03T12:46:55Z</time></trkpt><trkpt lat="43.117641497971796" lon="10.67862838684721"><ele>187.0</ele><time>2026-05-03T12:46:56Z</time></trkpt><trkpt lat="43.117604631950186" lon="10.678511592323803"><ele>187.0</ele><time>2026-05-03T12:46:57Z</time></trkpt><trkpt lat="43.11757689678052" lon="10.67836529842095"><ele>187.0</ele><time>2026-05-03T12:46:58Z</time></trkpt><trkpt lat="43.117553944185346" lon="10.678226452551206"><ele>185.8</ele><time>2026-05-03T12:46:59Z</time></trkpt><trkpt lat="43.11753036922314" lon="10.678079444936092"><ele>184.6</ele><time>2026-05-03T12:47:00Z</time></trkpt><trkpt lat="43.11749316660834" lon="10.677978858295948"><ele>183.4</ele><time>2026-05-03T12:47:01.001Z</time></trkpt><trkpt lat="43.11743674259239" lon="10.677860181486668"><ele>182.20000000000002</ele><time>2026-05-03T12:47:03.001Z</time></trkpt><trkpt lat="43.11736338362844" lon="10.677769078659539"><ele>181.0</ele><time>2026-05-03T12:47:05.001Z</time></trkpt><trkpt lat="43.11727106143659" lon="10.677697157301434"><ele>179.60000000000002</ele><time>2026-05-03T12:47:07.001Z</time></trkpt><trkpt lat="43.11724563239446" lon="10.677526510026828"><ele>178.2</ele><time>2026-05-03T12:47:09.001Z</time></trkpt><trkpt lat="43.11724794844783" lon="10.677402988481123"><ele>176.8</ele><time>2026-05-03T12:47:10.001Z</time></trkpt><trkpt lat="43.11725974796218" lon="10.677251661723831"><ele>175.39999999999998</ele><time>2026-05-03T12:47:11.001Z</time></trkpt><trkpt lat="43.11727747389028" lon="10.677095297120022"><ele>174.0</ele><time>2026-05-03T12:47:12.001Z</time></trkpt><trkpt lat="43.117287067492455" lon="10.676940203134242"><ele>174.5</ele><time>2026-05-03T12:47:13.001Z</time></trkpt><trkpt lat="43.11730714460681" lon="10.676771785005089"><ele>175.0</ele><time>2026-05-03T12:47:14.001Z</time></trkpt><trkpt lat="43.1173319266539" lon="10.67659813806543"><ele>175.5</ele><time>2026-05-03T12:47:15.001Z</time></trkpt><trkpt lat="43.11734964862375" lon="10.67641542535195"><ele>176.0</ele><time>2026-05-03T12:47:16.001Z</time></trkpt><trkpt lat="43.11735668509788" lon="10.676237930027135"><ele>177.25</ele><time>2026-05-03T12:47:17.001Z</time></trkpt><trkpt lat="43.11737306126393" lon="10.676056119806864"><ele>178.5</ele><time>2026-05-03T12:47:18.001Z</time></trkpt><trkpt lat="43.11738635561706" lon="10.67588967231526"><ele>179.75</ele><time>2026-05-03T12:47:19.001Z</time></trkpt><trkpt lat="43.11739576204686" lon="10.675757208904576"><ele>181.0</ele><time>2026-05-03T12:47:20.001Z</time></trkpt><trkpt lat="43.11738138570637" lon="10.675611044368791"><ele>181.0</ele><time>2026-05-03T12:47:21.001Z</time></trkpt><trkpt lat="43.117350252851736" lon="10.67546249881589"><ele>181.0</ele><time>2026-05-03T12:47:22.001Z</time></trkpt><trkpt lat="43.117350912504286" lon="10.675298022768816"><ele>181.0</ele><time>2026-05-03T12:47:23.001Z</time></trkpt><trkpt lat="43.11735745448353" lon="10.67514783104444"><ele>181.0</ele><time>2026-05-03T12:47:24.001Z</time></trkpt><trkpt lat="43.11736912989825" lon="10.674977418884916"><ele>182.5</ele><time>2026-05-03T12:47:25.001Z</time></trkpt><trkpt lat="43.117380695059914" lon="10.674788743967184"><ele>184.0</ele><time>2026-05-03T12:47:26.001Z</time></trkpt><trkpt lat="43.11740024660896" lon="10.674596045313871"><ele>185.5</ele><time>2026-05-03T12:47:27.001Z</time></trkpt><trkpt lat="43.11740330079992" lon="10.674450394627705"><ele>187.0</ele><time>2026-05-03T12:47:28.001Z</time></trkpt><trkpt lat="43.11741796829894" lon="10.674365120339724"><ele>188.8</ele><time>2026-05-03T12:47:29.001Z</time></trkpt><trkpt lat="43.117380022947415" lon="10.674169304596179"><ele>190.6</ele><time>2026-05-03T12:47:31.001Z</time></trkpt><trkpt lat="43.117330382951096" lon="10.674063180240347"><ele>192.4</ele><time>2026-05-03T12:47:32.001Z</time></trkpt><trkpt lat="43.11729428483553" lon="10.673956711269097"><ele>194.20000000000002</ele><time>2026-05-03T12:47:33.001Z</time></trkpt><trkpt lat="43.11727331192366" lon="10.673843070652895"><ele>196.0</ele><time>2026-05-03T12:47:34.001Z</time></trkpt><trkpt lat="43.11726555200211" lon="10.673691120010144"><ele>196.8</ele><time>2026-05-03T12:47:35.001Z</time></trkpt><trkpt lat="43.11725620854892" lon="10.673540255987483"><ele>197.60000000000002</ele><time>2026-05-03T12:47:36.001Z</time></trkpt><trkpt lat="43.11725350020953" lon="10.673397527975208"><ele>198.4</ele><time>2026-05-03T12:47:37.001Z</time></trkpt><trkpt lat="43.1172561566159" lon="10.673286531926502"><ele>199.2</ele><time>2026-05-03T12:47:38.001Z</time></trkpt><trkpt lat="43.11725139634757" lon="10.673153374599377"><ele>200.0</ele><time>2026-05-03T12:47:39.001Z</time></trkpt><trkpt lat="43.11727813570334" lon="10.673003961388089"><ele>200.0</ele><time>2026-05-03T12:47:40.001Z</time></trkpt><trkpt lat="43.117298373887124" lon="10.672850020221814"><ele>200.0</ele><time>2026-05-03T12:47:41.001Z</time></trkpt><trkpt lat="43.117334149889835" lon="10.672666233783984"><ele>200.0</ele><time>2026-05-03T12:47:42.001Z</time></trkpt><trkpt lat="43.117340025711094" lon="10.672482893563284"><ele>200.0</ele><time>2026-05-03T12:47:43.001Z</time></trkpt><trkpt lat="43.11735991291117" lon="10.67230504726549"><ele>199.8</ele><time>2026-05-03T12:47:44.001Z</time></trkpt><trkpt lat="43.11737257556996" lon="10.67214130850395"><ele>199.6</ele><time>2026-05-03T12:47:45.001Z</time></trkpt><trkpt lat="43.117389846652074" lon="10.671984173459583"><ele>199.39999999999998</ele><time>2026-05-03T12:47:46.001Z</time></trkpt><trkpt lat="43.11739732150853" lon="10.671826136677204"><ele>199.2</ele><time>2026-05-03T12:47:47Z</time></trkpt><trkpt lat="43.11740479168882" lon="10.671697398944916"><ele>199.0</ele><time>2026-05-03T12:47:48Z</time></trkpt><trkpt lat="43.11742192787376" lon="10.671590952376862"><ele>200.83333333333331</ele><time>2026-05-03T12:47:49Z</time></trkpt><trkpt lat="43.11743239993559" lon="10.671487862641715"><ele>202.66666666666666</ele><time>2026-05-03T12:47:50Z</time></trkpt><trkpt lat="43.11746057301593" lon="10.671388124339947"><ele>204.5</ele><time>2026-05-03T12:47:51Z</time></trkpt><trkpt lat="43.1174946994915" lon="10.671268893066195"><ele>206.33333333333331</ele><time>2026-05-03T12:47:52Z</time></trkpt><trkpt lat="43.11752042659831" lon="10.671152310870578"><ele>208.16666666666666</ele><time>2026-05-03T12:47:53Z</time></trkpt><trkpt lat="43.117556100478694" lon="10.671025946081476"><ele>210.0</ele><time>2026-05-03T12:47:54Z</time></trkpt><trkpt lat="43.1175964492053" lon="10.670901506225826"><ele>211.4</ele><time>2026-05-03T12:47:55Z</time></trkpt><trkpt lat="43.11764187434973" lon="10.670762908439642"><ele>212.8</ele><time>2026-05-03T12:47:56Z</time></trkpt><trkpt lat="43.11767535555592" lon="10.670624640265961"><ele>214.2</ele><time>2026-05-03T12:47:57Z</time></trkpt><trkpt lat="43.11768522641602" lon="10.670492622336367"><ele>215.6</ele><time>2026-05-03T12:47:58Z</time></trkpt><trkpt lat="43.117689213856146" lon="10.670364133438683"><ele>217.0</ele><time>2026-05-03T12:47:59Z</time></trkpt><trkpt lat="43.117675132584715" lon="10.670211570869881"><ele>218.6</ele><time>2026-05-03T12:48:00Z</time></trkpt><trkpt lat="43.117650455478206" lon="10.670044741217836"><ele>220.2</ele><time>2026-05-03T12:48:01Z</time></trkpt><trkpt lat="43.117640170362684" lon="10.66987988611898"><ele>221.8</ele><time>2026-05-03T12:48:02Z</time></trkpt><trkpt lat="43.11763705182317" lon="10.669735040110202"><ele>223.4</ele><time>2026-05-03T12:48:03Z</time></trkpt><trkpt lat="43.117668206246776" lon="10.669615501436972"><ele>225.0</ele><time>2026-05-03T12:48:04Z</time></trkpt><trkpt lat="43.11770668628832" lon="10.669480745855633"><ele>225.8</ele><time>2026-05-03T12:48:05Z</time></trkpt><trkpt lat="43.11773451473981" lon="10.669347516150493"><ele>226.6</ele><time>2026-05-03T12:48:06Z</time></trkpt><trkpt lat="43.11775061655189" lon="10.669204113479745"><ele>227.39999999999998</ele><time>2026-05-03T12:48:07Z</time></trkpt><trkpt lat="43.11777653117575" lon="10.669042163885969"><ele>228.2</ele><time>2026-05-03T12:48:08Z</time></trkpt><trkpt lat="43.11779376902921" lon="10.668915751680027"><ele>229.0</ele><time>2026-05-03T12:48:09Z</time></trkpt><trkpt lat="43.11783067035925" lon="10.668801929049705"><ele>229.0</ele><time>2026-05-03T12:48:10Z</time></trkpt><trkpt lat="43.1178632524289" lon="10.668647042802712"><ele>228.99999999999997</ele><time>2026-05-03T12:48:11Z</time></trkpt><trkpt lat="43.117885838129055" lon="10.668527194405234"><ele>228.99999999999997</ele><time>2026-05-03T12:48:12Z</time></trkpt><trkpt lat="43.11790348836155" lon="10.668408137479915"><ele>229.0</ele><time>2026-05-03T12:48:13Z</time></trkpt><trkpt lat="43.11791763386157" lon="10.66824244141489"><ele>229.0</ele><time>2026-05-03T12:48:14Z</time></trkpt><trkpt lat="43.117952012068244" lon="10.668083581022396"><ele>229.25</ele><time>2026-05-03T12:48:15Z</time></trkpt><trkpt lat="43.1179888169675" lon="10.66792513146887"><ele>229.5</ele><time>2026-05-03T12:48:16Z</time></trkpt><trkpt lat="43.118017028862305" lon="10.667754928810895"><ele>229.75</ele><time>2026-05-03T12:48:17Z</time></trkpt><trkpt lat="43.118042013964306" lon="10.667621130328627"><ele>230.0</ele><time>2026-05-03T12:48:18Z</time></trkpt><trkpt lat="43.11807090440716" lon="10.667487178790541"><ele>230.0</ele><time>2026-05-03T12:48:19Z</time></trkpt><trkpt lat="43.118109436850474" lon="10.667352982219"><ele>230.0</ele><time>2026-05-03T12:48:20Z</time></trkpt><trkpt lat="43.11816044209951" lon="10.667182798617237"><ele>230.0</ele><time>2026-05-03T12:48:21Z</time></trkpt><trkpt lat="43.11818575971631" lon="10.667002108748855"><ele>230.0</ele><time>2026-05-03T12:48:22Z</time></trkpt><trkpt lat="43.11822906911299" lon="10.666854758617813"><ele>230.8</ele><time>2026-05-03T12:48:23Z</time></trkpt><trkpt lat="43.11824007668969" lon="10.666707788642045"><ele>231.6</ele><time>2026-05-03T12:48:24Z</time></trkpt><trkpt lat="43.11824229352503" lon="10.666566319891231"><ele>232.39999999999998</ele><time>2026-05-03T12:48:25Z</time></trkpt><trkpt lat="43.118232004760884" lon="10.666447114251032"><ele>233.2</ele><time>2026-05-03T12:48:26Z</time></trkpt><trkpt lat="43.11821002355964" lon="10.666323903714703"><ele>234.0</ele><time>2026-05-03T12:48:27Z</time></trkpt><trkpt lat="43.118206691116086" lon="10.66618995821717"><ele>236.0</ele><time>2026-05-03T12:48:28Z</time></trkpt><trkpt lat="43.11821512238915" lon="10.66603856753197"><ele>238.0</ele><time>2026-05-03T12:48:29Z</time></trkpt><trkpt lat="43.1182277002909" lon="10.665872502424934"><ele>240.0</ele><time>2026-05-03T12:48:30Z</time></trkpt><trkpt lat="43.118235326044655" lon="10.665705934080703"><ele>242.0</ele><time>2026-05-03T12:48:31Z</time></trkpt><trkpt lat="43.11824925409811" lon="10.665544205939344"><ele>243.75</ele><time>2026-05-03T12:48:32Z</time></trkpt><trkpt lat="43.11826176032233" lon="10.665378507033294"><ele>245.5</ele><time>2026-05-03T12:48:33Z</time></trkpt><trkpt lat="43.11826571800479" lon="10.665213368101316"><ele>247.25</ele><time>2026-05-03T12:48:34Z</time></trkpt><trkpt lat="43.118277739261906" lon="10.665045605572265"><ele>249.0</ele><time>2026-05-03T12:48:35Z</time></trkpt><trkpt lat="43.11828656581348" lon="10.664903573133591"><ele>251.0</ele><time>2026-05-03T12:48:36Z</time></trkpt><trkpt lat="43.1183079151381" lon="10.664786309533355"><ele>252.99999999999997</ele><time>2026-05-03T12:48:37Z</time></trkpt><trkpt lat="43.11831284252547" lon="10.664666863130845"><ele>254.99999999999997</ele><time>2026-05-03T12:48:38Z</time></trkpt><trkpt lat="43.11831559233269" lon="10.664546125942318"><ele>257.0</ele><time>2026-05-03T12:48:39Z</time></trkpt><trkpt lat="43.1183130362312" lon="10.664438105715309"><ele>259.0</ele><time>2026-05-03T12:48:40Z</time></trkpt><trkpt lat="43.1182898679238" lon="10.664257624111544"><ele>258.8333333333333</ele><time>2026-05-03T12:48:42Z</time></trkpt><trkpt lat="43.11824960720364" lon="10.664162586955726"><ele>258.66666666666663</ele><time>2026-05-03T12:48:43Z</time></trkpt><trkpt lat="43.11820019908715" lon="10.664091484302812"><ele>258.5</ele><time>2026-05-03T12:48:44Z</time></trkpt><trkpt lat="43.11812493264476" lon="10.6640211461813"><ele>258.3333333333333</ele><time>2026-05-03T12:48:45Z</time></trkpt><trkpt lat="43.11802705348439" lon="10.6639859727866"><ele>258.1666666666667</ele><time>2026-05-03T12:48:46Z</time></trkpt><trkpt lat="43.11793535307231" lon="10.663947831799424"><ele>258.0</ele><time>2026-05-03T12:48:47Z</time></trkpt><trkpt lat="43.1178664276434" lon="10.663909856840604"><ele>258.0</ele><time>2026-05-03T12:48:48Z</time></trkpt><trkpt lat="43.117794367935225" lon="10.663844866431974"><ele>258.0</ele><time>2026-05-03T12:48:50Z</time></trkpt><trkpt lat="43.11774164492866" lon="10.663650472109175"><ele>258.0</ele><time>2026-05-03T12:48:52Z</time></trkpt><trkpt lat="43.117707324412216" lon="10.663517557436704"><ele>258.0</ele><time>2026-05-03T12:48:53Z</time></trkpt><trkpt lat="43.11766737920741" lon="10.663373712301645"><ele>259.6</ele><time>2026-05-03T12:48:54Z</time></trkpt><trkpt lat="43.1176230803956" lon="10.663237068003394"><ele>261.20000000000005</ele><time>2026-05-03T12:48:55Z</time></trkpt><trkpt lat="43.117592746707544" lon="10.663130129446142"><ele>262.8</ele><time>2026-05-03T12:48:56Z</time></trkpt><trkpt lat="43.11756204047177" lon="10.663018347660248"><ele>264.40000000000003</ele><time>2026-05-03T12:48:57Z</time></trkpt><trkpt lat="43.11755343110399" lon="10.662900533706347"><ele>266.0</ele><time>2026-05-03T12:48:58Z</time></trkpt><trkpt lat="43.11757680105078" lon="10.662787985989999"><ele>266.0</ele><time>2026-05-03T12:48:59Z</time></trkpt><trkpt lat="43.11757609141145" lon="10.66264731025382"><ele>266.0</ele><time>2026-05-03T12:49:00Z</time></trkpt><trkpt lat="43.117585317251425" lon="10.662509756618109"><ele>266.0</ele><time>2026-05-03T12:49:01Z</time></trkpt><trkpt lat="43.11756447392958" lon="10.662348003478236"><ele>266.0</ele><time>2026-05-03T12:49:02Z</time></trkpt><trkpt lat="43.11752553987691" lon="10.66216639983141"><ele>266.0</ele><time>2026-05-03T12:49:03Z</time></trkpt><trkpt lat="43.1175019791185" lon="10.662000074329123"><ele>266.0</ele><time>2026-05-03T12:49:04Z</time></trkpt><trkpt lat="43.11746485755216" lon="10.66186084241308"><ele>266.0</ele><time>2026-05-03T12:49:05Z</time></trkpt><trkpt lat="43.117417375476215" lon="10.66172425424803"><ele>266.0</ele><time>2026-05-03T12:49:06Z</time></trkpt><trkpt lat="43.11735098277748" lon="10.661584729319516"><ele>266.0</ele><time>2026-05-03T12:49:07Z</time></trkpt><trkpt lat="43.11728425787283" lon="10.661463343376846"><ele>266.0</ele><time>2026-05-03T12:49:08Z</time></trkpt><trkpt lat="43.11720884747683" lon="10.66131919611417"><ele>266.0</ele><time>2026-05-03T12:49:09.001Z</time></trkpt><trkpt lat="43.11714865112196" lon="10.661186336355357"><ele>266.0</ele><time>2026-05-03T12:49:10.001Z</time></trkpt><trkpt lat="43.11707019630096" lon="10.66107983085108"><ele>267.0</ele><time>2026-05-03T12:49:11.001Z</time></trkpt><trkpt lat="43.11700157856388" lon="10.661004721407055"><ele>268.0</ele><time>2026-05-03T12:49:12.001Z</time></trkpt><trkpt lat="43.1169282504718" lon="10.660967608530793"><ele>269.0</ele><time>2026-05-03T12:49:13.001Z</time></trkpt><trkpt lat="43.11685808613006" lon="10.660951293613879"><ele>270.0</ele><time>2026-05-03T12:49:14.001Z</time></trkpt><trkpt lat="43.116792287626616" lon="10.660947787252582"><ele>271.0</ele><time>2026-05-03T12:49:15.001Z</time></trkpt><trkpt lat="43.116669661048434" lon="10.66097923473425"><ele>272.0</ele><time>2026-05-03T12:49:17.001Z</time></trkpt><trkpt lat="43.11658981303749" lon="10.660966347519276"><ele>270.5</ele><time>2026-05-03T12:49:18.001Z</time></trkpt><trkpt lat="43.11652574778873" lon="10.660996250474184"><ele>269.0</ele><time>2026-05-03T12:49:20.001Z</time></trkpt><trkpt lat="43.11645724751489" lon="10.660949313080753"><ele>267.5</ele><time>2026-05-03T12:50:01Z</time></trkpt><trkpt lat="43.11643536802809" lon="10.660803405268988"><ele>266.0</ele><time>2026-05-03T12:50:03Z</time></trkpt><trkpt lat="43.11643260719821" lon="10.660678795737068"><ele>264.5</ele><time>2026-05-03T12:50:04Z</time></trkpt><trkpt lat="43.11643353354424" lon="10.660540402057986"><ele>263.0</ele><time>2026-05-03T12:50:05Z</time></trkpt><trkpt lat="43.11643001807319" lon="10.660389634045993"><ele>261.0</ele><time>2026-05-03T12:50:06Z</time></trkpt><trkpt lat="43.11642273204867" lon="10.66023590612026"><ele>259.0</ele><time>2026-05-03T12:50:07Z</time></trkpt><trkpt lat="43.116429970289126" lon="10.660100853024327"><ele>257.0</ele><time>2026-05-03T12:50:08Z</time></trkpt><trkpt lat="43.116431595931545" lon="10.659993336276672"><ele>255.0</ele><time>2026-05-03T12:50:09Z</time></trkpt><trkpt lat="43.116438347416825" lon="10.65986050990071"><ele>253.0</ele><time>2026-05-03T12:50:10Z</time></trkpt><trkpt lat="43.11645591315925" lon="10.659732301530978"><ele>253.0</ele><time>2026-05-03T12:50:11Z</time></trkpt><trkpt lat="43.116454242550795" lon="10.659604463106263"><ele>253.0</ele><time>2026-05-03T12:50:12Z</time></trkpt><trkpt lat="43.11644177700369" lon="10.659467080410355"><ele>253.0</ele><time>2026-05-03T12:50:13Z</time></trkpt><trkpt lat="43.116400622438746" lon="10.659336616898266"><ele>253.0</ele><time>2026-05-03T12:50:14Z</time></trkpt><trkpt lat="43.11637837415056" lon="10.659219003113435"><ele>253.0</ele><time>2026-05-03T12:50:15Z</time></trkpt><trkpt lat="43.11636328500209" lon="10.659115389567082"><ele>252.8</ele><time>2026-05-03T12:50:16Z</time></trkpt><trkpt lat="43.11636218177987" lon="10.659010893939183"><ele>252.60000000000002</ele><time>2026-05-03T12:50:17Z</time></trkpt><trkpt lat="43.11638271138038" lon="10.658868767152802"><ele>252.39999999999998</ele><time>2026-05-03T12:50:18Z</time></trkpt><trkpt lat="43.11642653399163" lon="10.658753267742714"><ele>252.2</ele><time>2026-05-03T12:50:19Z</time></trkpt><trkpt lat="43.116466181507356" lon="10.658643550747357"><ele>252.0</ele><time>2026-05-03T12:50:20Z</time></trkpt><trkpt lat="43.11651898222221" lon="10.658515418315655"><ele>253.0</ele><time>2026-05-03T12:50:21Z</time></trkpt><trkpt lat="43.116565041245" lon="10.658406053197183"><ele>254.0</ele><time>2026-05-03T12:50:22Z</time></trkpt><trkpt lat="43.11657658178836" lon="10.658291955469762"><ele>255.0</ele><time>2026-05-03T12:50:23Z</time></trkpt><trkpt lat="43.11657384948248" lon="10.658164418464866"><ele>256.0</ele><time>2026-05-03T12:50:24Z</time></trkpt><trkpt lat="43.11655650927287" lon="10.658034730253659"><ele>257.0</ele><time>2026-05-03T12:50:25Z</time></trkpt><trkpt lat="43.11652635294985" lon="10.657889910669555"><ele>258.8</ele><time>2026-05-03T12:50:26Z</time></trkpt><trkpt lat="43.116487039227465" lon="10.65776009610417"><ele>260.6</ele><time>2026-05-03T12:50:27Z</time></trkpt><trkpt lat="43.11646896944399" lon="10.657632583427388"><ele>262.40000000000003</ele><time>2026-05-03T12:50:28Z</time></trkpt><trkpt lat="43.116481161963826" lon="10.657480227128993"><ele>264.2</ele><time>2026-05-03T12:50:29Z</time></trkpt><trkpt lat="43.116462551251175" lon="10.657343822889557"><ele>266.0</ele><time>2026-05-03T12:50:30Z</time></trkpt><trkpt lat="43.11643911147783" lon="10.657230946144985"><ele>266.0</ele><time>2026-05-03T12:50:31Z</time></trkpt><trkpt lat="43.11640158171297" lon="10.657137357074276"><ele>266.0</ele><time>2026-05-03T12:50:32Z</time></trkpt><trkpt lat="43.11634208442988" lon="10.657069622613633"><ele>266.0</ele><time>2026-05-03T12:50:33Z</time></trkpt><trkpt lat="43.116236928825494" lon="10.657076439916434"><ele>266.0</ele><time>2026-05-03T12:50:34Z</time></trkpt><trkpt lat="43.11614472664736" lon="10.657073438894905"><ele>266.0</ele><time>2026-05-03T12:50:35Z</time></trkpt><trkpt lat="43.11605576230344" lon="10.657045043497998"><ele>266.0</ele><time>2026-05-03T12:50:36Z</time></trkpt><trkpt lat="43.11596067130421" lon="10.656990959680572"><ele>267.2</ele><time>2026-05-03T12:50:37Z</time></trkpt><trkpt lat="43.115891523702814" lon="10.656940592210438"><ele>268.40000000000003</ele><time>2026-05-03T12:50:38Z</time></trkpt><trkpt lat="43.11581417312663" lon="10.656788015505919"><ele>269.6</ele><time>2026-05-03T12:50:40Z</time></trkpt><trkpt lat="43.115758053371856" lon="10.656658479653313"><ele>270.8</ele><time>2026-05-03T12:50:41Z</time></trkpt><trkpt lat="43.11568496496378" lon="10.656594614502389"><ele>272.0</ele><time>2026-05-03T12:50:42Z</time></trkpt><trkpt lat="43.115583665630666" lon="10.656589390963989"><ele>274.25</ele><time>2026-05-03T12:50:43Z</time></trkpt><trkpt lat="43.11547595797581" lon="10.656660799612379"><ele>276.5</ele><time>2026-05-03T12:50:44Z</time></trkpt><trkpt lat="43.11536771536339" lon="10.656684240094364"><ele>278.75</ele><time>2026-05-03T12:50:45Z</time></trkpt><trkpt lat="43.11526343521933" lon="10.656766369979644"><ele>281.0</ele><time>2026-05-03T12:50:46Z</time></trkpt><trkpt lat="43.11517487720293" lon="10.656854937035641"><ele>281.0</ele><time>2026-05-03T12:50:47Z</time></trkpt><trkpt lat="43.11512232505259" lon="10.656904364894471"><ele>281.0</ele><time>2026-05-03T12:50:48Z</time></trkpt><trkpt lat="43.115055988938444" lon="10.656886687796915"><ele>281.0</ele><time>2026-05-03T12:50:51Z</time></trkpt><trkpt lat="43.11508318726554" lon="10.656716996779025"><ele>281.0</ele><time>2026-05-03T12:50:53Z</time></trkpt><trkpt lat="43.1151379363328" lon="10.656619473275578"><ele>281.0</ele><time>2026-05-03T12:50:54Z</time></trkpt><trkpt lat="43.11517818322706" lon="10.656513354331876"><ele>281.0</ele><time>2026-05-03T12:50:55Z</time></trkpt><trkpt lat="43.11520083821413" lon="10.656375944980818"><ele>281.0</ele><time>2026-05-03T12:50:56Z</time></trkpt><trkpt lat="43.11521461350077" lon="10.656214081807391"><ele>281.0</ele><time>2026-05-03T12:50:57Z</time></trkpt><trkpt lat="43.11523306647194" lon="10.656046356056043"><ele>281.0</ele><time>2026-05-03T12:50:58Z</time></trkpt><trkpt lat="43.11528060849477" lon="10.65590785286586"><ele>281.0</ele><time>2026-05-03T12:50:59Z</time></trkpt><trkpt lat="43.11532451538833" lon="10.655780765008949"><ele>283.5</ele><time>2026-05-03T12:51:00Z</time></trkpt><trkpt lat="43.115342777652494" lon="10.655673374902861"><ele>286.0</ele><time>2026-05-03T12:51:01Z</time></trkpt><trkpt lat="43.11534003428876" lon="10.655581360671915"><ele>288.5</ele><time>2026-05-03T12:51:02Z</time></trkpt><trkpt lat="43.11529654008051" lon="10.655481372534958"><ele>291.0</ele><time>2026-05-03T12:51:04Z</time></trkpt><trkpt lat="43.115204206332905" lon="10.655581275703799"><ele>293.5</ele><time>2026-05-03T12:51:06Z</time></trkpt><trkpt lat="43.1151895161539" lon="10.655666916194603"><ele>296.0</ele><time>2026-05-03T12:51:07.001Z</time></trkpt><trkpt lat="43.11516109715599" lon="10.65575052441413"><ele>296.0</ele><time>2026-05-03T12:51:08.001Z</time></trkpt><trkpt lat="43.115101860185156" lon="10.655791874905951"><ele>296.0</ele><time>2026-05-03T12:51:09.001Z</time></trkpt><trkpt lat="43.11501980277092" lon="10.655834062623061"><ele>296.0</ele><time>2026-05-03T12:51:10.001Z</time></trkpt><trkpt lat="43.11492614247458" lon="10.655906716261569"><ele>296.0</ele><time>2026-05-03T12:51:11.001Z</time></trkpt><trkpt lat="43.114850508513406" lon="10.65595653883173"><ele>296.0</ele><time>2026-05-03T12:51:12.001Z</time></trkpt><trkpt lat="43.11476405878973" lon="10.655960788359826"><ele>296.0</ele><time>2026-05-03T12:51:14.001Z</time></trkpt><trkpt lat="43.11475727211088" lon="10.65584191090254"><ele>296.0</ele><time>2026-05-03T12:51:16.001Z</time></trkpt><trkpt lat="43.11480293885542" lon="10.655768647505445"><ele>296.0</ele><time>2026-05-03T12:51:17.001Z</time></trkpt><trkpt lat="43.11483542626526" lon="10.655668280259427"><ele>296.0</ele><time>2026-05-03T12:51:18.001Z</time></trkpt><trkpt lat="43.1148874014951" lon="10.655567971999892"><ele>296.0</ele><time>2026-05-03T12:51:19.001Z</time></trkpt><trkpt lat="43.11492359473698" lon="10.655479285468495"><ele>296.0</ele><time>2026-05-03T12:51:20.001Z</time></trkpt><trkpt lat="43.11485640122728" lon="10.655375532754675"><ele>296.0</ele><time>2026-05-03T12:51:23.001Z</time></trkpt><trkpt lat="43.11476148838441" lon="10.655361728354181"><ele>295.83333333333337</ele><time>2026-05-03T12:51:24.001Z</time></trkpt><trkpt lat="43.114667167289326" lon="10.655359020822134"><ele>295.6666666666667</ele><time>2026-05-03T12:51:25.001Z</time></trkpt><trkpt lat="43.11460038697454" lon="10.655353588053995"><ele>295.5</ele><time>2026-05-03T12:51:26.001Z</time></trkpt><trkpt lat="43.11452486392549" lon="10.6553186642958"><ele>295.3333333333333</ele><time>2026-05-03T12:51:27.001Z</time></trkpt><trkpt lat="43.114446219060234" lon="10.655254877379042"><ele>295.16666666666663</ele><time>2026-05-03T12:51:28.001Z</time></trkpt><trkpt lat="43.11435797472284" lon="10.65518114499856"><ele>295.0</ele><time>2026-05-03T12:51:29.001Z</time></trkpt><trkpt lat="43.11427890289363" lon="10.655146960471251"><ele>295.8333333333333</ele><time>2026-05-03T12:51:30.001Z</time></trkpt><trkpt lat="43.114217032844074" lon="10.655108056249022"><ele>296.66666666666663</ele><time>2026-05-03T12:51:31.001Z</time></trkpt><trkpt lat="43.114168203509244" lon="10.655051006618024"><ele>297.5</ele><time>2026-05-03T12:51:32.001Z</time></trkpt><trkpt lat="43.11410726832696" lon="10.6549730922824"><ele>298.3333333333333</ele><time>2026-05-03T12:51:35.001Z</time></trkpt><trkpt lat="43.11401996554902" lon="10.654862965192027"><ele>299.1666666666667</ele><time>2026-05-03T12:51:37.001Z</time></trkpt><trkpt lat="43.1139549317597" lon="10.654804908589908"><ele>300.0</ele><time>2026-05-03T12:51:38.001Z</time></trkpt><trkpt lat="43.113882755242145" lon="10.654741407928451"><ele>300.0</ele><time>2026-05-03T12:51:39.001Z</time></trkpt><trkpt lat="43.11382986204711" lon="10.654638345017501"><ele>300.0</ele><time>2026-05-03T12:51:40.001Z</time></trkpt><trkpt lat="43.11378261431739" lon="10.654536353653429"><ele>300.0</ele><time>2026-05-03T12:51:41.001Z</time></trkpt><trkpt lat="43.11373772550701" lon="10.65440580230981"><ele>300.0</ele><time>2026-05-03T12:51:42.001Z</time></trkpt><trkpt lat="43.11372914059121" lon="10.654256233791598"><ele>300.0</ele><time>2026-05-03T12:51:43.001Z</time></trkpt><trkpt lat="43.11373650837888" lon="10.654114844167855"><ele>302.0</ele><time>2026-05-03T12:51:44.001Z</time></trkpt><trkpt lat="43.113760181323606" lon="10.653967948007551"><ele>304.0</ele><time>2026-05-03T12:51:45.001Z</time></trkpt><trkpt lat="43.11378829138246" lon="10.653820458775597"><ele>306.0</ele><time>2026-05-03T12:51:46.001Z</time></trkpt><trkpt lat="43.11381788605616" lon="10.653665525084824"><ele>308.0</ele><time>2026-05-03T12:51:47.001Z</time></trkpt><trkpt lat="43.11384169313446" lon="10.653520285485675"><ele>310.0</ele><time>2026-05-03T12:51:48.001Z</time></trkpt><trkpt lat="43.1138592551972" lon="10.653406719928725"><ele>312.6</ele><time>2026-05-03T12:51:49.001Z</time></trkpt><trkpt lat="43.1138534832744" lon="10.653299619227555"><ele>315.2</ele><time>2026-05-03T12:51:50.001Z</time></trkpt><trkpt lat="43.11380939914403" lon="10.653222748125819"><ele>317.79999999999995</ele><time>2026-05-03T12:51:51.001Z</time></trkpt><trkpt lat="43.11367552159465" lon="10.653163546228553"><ele>320.4</ele><time>2026-05-03T12:51:53.001Z</time></trkpt><trkpt lat="43.113586450100506" lon="10.653241074194517"><ele>323.0</ele><time>2026-05-03T12:51:54.001Z</time></trkpt><trkpt lat="43.113500695261045" lon="10.653326375796432"><ele>323.0</ele><time>2026-05-03T12:51:55.001Z</time></trkpt><trkpt lat="43.11339902202335" lon="10.653411672042798"><ele>323.0</ele><time>2026-05-03T12:51:56.001Z</time></trkpt><trkpt lat="43.11330950540361" lon="10.653517691099292"><ele>323.0</ele><time>2026-05-03T12:51:57.001Z</time></trkpt><trkpt lat="43.11323659101042" lon="10.653623580018808"><ele>323.0</ele><time>2026-05-03T12:51:58.001Z</time></trkpt><trkpt lat="43.113173010999915" lon="10.653715440896862"><ele>323.0</ele><time>2026-05-03T12:51:59Z</time></trkpt><trkpt lat="43.11311065582358" lon="10.653791167702451"><ele>322.1666666666667</ele><time>2026-05-03T12:52:00Z</time></trkpt><trkpt lat="43.11304975148503" lon="10.653837247604264"><ele>321.33333333333337</ele><time>2026-05-03T12:52:01Z</time></trkpt><trkpt lat="43.112973062335286" lon="10.653855013182369"><ele>320.5</ele><time>2026-05-03T12:52:02Z</time></trkpt><trkpt lat="43.112882419973175" lon="10.65381848947377"><ele>319.6666666666667</ele><time>2026-05-03T12:52:03Z</time></trkpt><trkpt lat="43.11280664829963" lon="10.653797292363159"><ele>318.8333333333333</ele><time>2026-05-03T12:52:04Z</time></trkpt><trkpt lat="43.11271183182936" lon="10.653799961706978"><ele>318.0</ele><time>2026-05-03T12:52:05Z</time></trkpt><trkpt lat="43.11263791678992" lon="10.65386399633271"><ele>318.0</ele><time>2026-05-03T12:52:06Z</time></trkpt><trkpt lat="43.11261228384975" lon="10.654001540944924"><ele>318.0</ele><time>2026-05-03T12:52:07Z</time></trkpt><trkpt lat="43.112650226689794" lon="10.654139493162194"><ele>318.0</ele><time>2026-05-03T12:52:08Z</time></trkpt><trkpt lat="43.11267985919383" lon="10.654274409432222"><ele>318.0</ele><time>2026-05-03T12:52:09Z</time></trkpt><trkpt lat="43.11270697852975" lon="10.65441603140917"><ele>318.0</ele><time>2026-05-03T12:52:10Z</time></trkpt><trkpt lat="43.1127257780963" lon="10.654555882019674"><ele>315.8333333333333</ele><time>2026-05-03T12:52:11Z</time></trkpt><trkpt lat="43.11273438909626" lon="10.654674571165843"><ele>313.6666666666667</ele><time>2026-05-03T12:52:12Z</time></trkpt><trkpt lat="43.112740938667436" lon="10.654810919454192"><ele>311.5</ele><time>2026-05-03T12:52:13Z</time></trkpt><trkpt lat="43.11273674083287" lon="10.654918441534317"><ele>309.33333333333337</ele><time>2026-05-03T12:52:14Z</time></trkpt><trkpt lat="43.11272546316839" lon="10.655005617002184"><ele>307.1666666666667</ele><time>2026-05-03T12:52:15Z</time></trkpt><trkpt lat="43.112675616929366" lon="10.655064666610107"><ele>305.0</ele><time>2026-05-03T12:52:16Z</time></trkpt><trkpt lat="43.11261867662331" lon="10.655105069478976"><ele>305.0</ele><time>2026-05-03T12:52:17Z</time></trkpt><trkpt lat="43.11252326448825" lon="10.655014334458645"><ele>305.0</ele><time>2026-05-03T12:52:18Z</time></trkpt><trkpt lat="43.11246868585122" lon="10.654946114026666"><ele>305.0</ele><time>2026-05-03T12:52:19Z</time></trkpt><trkpt lat="43.11241649550352" lon="10.654844442365318"><ele>305.0</ele><time>2026-05-03T12:52:20Z</time></trkpt><trkpt lat="43.11235865561339" lon="10.65473909680158"><ele>305.0</ele><time>2026-05-03T12:52:21Z</time></trkpt><trkpt lat="43.11229859608097" lon="10.654637623530586"><ele>306.83333333333337</ele><time>2026-05-03T12:52:22Z</time></trkpt><trkpt lat="43.1122264134932" lon="10.654555268291851"><ele>308.6666666666667</ele><time>2026-05-03T12:52:23Z</time></trkpt><trkpt lat="43.11214663799572" lon="10.654520228920104"><ele>310.5</ele><time>2026-05-03T12:52:24Z</time></trkpt><trkpt lat="43.1120649800702" lon="10.654530904590699"><ele>312.3333333333333</ele><time>2026-05-03T12:52:25Z</time></trkpt><trkpt lat="43.111984023367036" lon="10.654572185287327"><ele>314.16666666666663</ele><time>2026-05-03T12:52:26Z</time></trkpt><trkpt lat="43.11195774059472" lon="10.654704805863089"><ele>316.0</ele><time>2026-05-03T12:52:27Z</time></trkpt><trkpt lat="43.111923085032075" lon="10.65484358016946"><ele>316.0</ele><time>2026-05-03T12:52:28Z</time></trkpt><trkpt lat="43.11187060053142" lon="10.654964976544331"><ele>316.0</ele><time>2026-05-03T12:52:29Z</time></trkpt><trkpt lat="43.11183276299054" lon="10.655095988127105"><ele>316.0</ele><time>2026-05-03T12:52:30Z</time></trkpt><trkpt lat="43.111814794347204" lon="10.655221145100729"><ele>316.0</ele><time>2026-05-03T12:52:31Z</time></trkpt><trkpt lat="43.1117622518258" lon="10.655315920469821"><ele>316.0</ele><time>2026-05-03T12:52:32Z</time></trkpt><trkpt lat="43.111732476673545" lon="10.6554151580607"><ele>312.40000000000003</ele><time>2026-05-03T12:52:33Z</time></trkpt><trkpt lat="43.111690528809994" lon="10.655489998737188"><ele>308.8</ele><time>2026-05-03T12:52:34Z</time></trkpt><trkpt lat="43.111643735209185" lon="10.655569260405128"><ele>305.20000000000005</ele><time>2026-05-03T12:52:35Z</time></trkpt><trkpt lat="43.111576706396384" lon="10.655626266071536"><ele>301.6</ele><time>2026-05-03T12:52:37Z</time></trkpt><trkpt lat="43.11166178811748" lon="10.655498154924254"><ele>298.0</ele><time>2026-05-03T12:53:26.001Z</time></trkpt><trkpt lat="43.11174658410086" lon="10.655397129107657"><ele>301.6</ele><time>2026-05-03T12:53:28.001Z</time></trkpt><trkpt lat="43.11170879542054" lon="10.655192503280043"><ele>305.20000000000005</ele><time>2026-05-03T12:53:29.001Z</time></trkpt><trkpt lat="43.11172771321248" lon="10.655103883440736"><ele>308.8</ele><time>2026-05-03T12:53:30.001Z</time></trkpt><trkpt lat="43.111733387687394" lon="10.655010497161578"><ele>312.40000000000003</ele><time>2026-05-03T12:53:31.001Z</time></trkpt><trkpt lat="43.111748772425145" lon="10.654902215317316"><ele>316.0</ele><time>2026-05-03T12:53:32.001Z</time></trkpt><trkpt lat="43.11177170786114" lon="10.654782560538433"><ele>316.0</ele><time>2026-05-03T12:53:33.001Z</time></trkpt><trkpt lat="43.111779614273715" lon="10.654679582659858"><ele>316.0</ele><time>2026-05-03T12:53:34.001Z</time></trkpt><trkpt lat="43.1117836793137" lon="10.654569357932091"><ele>316.0</ele><time>2026-05-03T12:53:35.001Z</time></trkpt><trkpt lat="43.111811411110565" lon="10.654457193777944"><ele>316.0</ele><time>2026-05-03T12:53:36.001Z</time></trkpt><trkpt lat="43.111841578654634" lon="10.654355783371493"><ele>316.0</ele><time>2026-05-03T12:53:37.001Z</time></trkpt><trkpt lat="43.111881939629946" lon="10.654273552048735"><ele>316.0</ele><time>2026-05-03T12:53:38.001Z</time></trkpt><trkpt lat="43.11195032448437" lon="10.65423605293193"><ele>318.3333333333333</ele><time>2026-05-03T12:53:39.001Z</time></trkpt><trkpt lat="43.112025899142054" lon="10.654215479796603"><ele>320.66666666666663</ele><time>2026-05-03T12:53:40.001Z</time></trkpt><trkpt lat="43.1121120498319" lon="10.654173403173063"><ele>323.0</ele><time>2026-05-03T12:53:41.001Z</time></trkpt><trkpt lat="43.11218425757525" lon="10.654106798633675"><ele>325.3333333333333</ele><time>2026-05-03T12:53:42.001Z</time></trkpt><trkpt lat="43.11223587328063" lon="10.654018091593828"><ele>327.6666666666667</ele><time>2026-05-03T12:53:43.001Z</time></trkpt><trkpt lat="43.112286696695584" lon="10.653927723059825"><ele>330.0</ele><time>2026-05-03T12:53:44.001Z</time></trkpt><trkpt lat="43.11231317766051" lon="10.653840199744554"><ele>330.0</ele><time>2026-05-03T12:53:45.001Z</time></trkpt><trkpt lat="43.11234009738938" lon="10.653738428239777"><ele>330.0</ele><time>2026-05-03T12:53:46.001Z</time></trkpt><trkpt lat="43.11237586384876" lon="10.653624589102478"><ele>330.0</ele><time>2026-05-03T12:53:47.001Z</time></trkpt><trkpt lat="43.112405432401566" lon="10.653525674423399"><ele>330.0</ele><time>2026-05-03T12:53:48.001Z</time></trkpt><trkpt lat="43.11244053502004" lon="10.653413508065267"><ele>330.0</ele><time>2026-05-03T12:53:49.001Z</time></trkpt><trkpt lat="43.11251125558807" lon="10.65333012544981"><ele>330.0</ele><time>2026-05-03T12:53:51.001Z</time></trkpt><trkpt lat="43.11261728123119" lon="10.653311663619345"><ele>330.3333333333333</ele><time>2026-05-03T12:53:53.001Z</time></trkpt><trkpt lat="43.11269591029367" lon="10.653309799036096"><ele>330.6666666666667</ele><time>2026-05-03T12:53:54.001Z</time></trkpt><trkpt lat="43.11277019222889" lon="10.653320132890165"><ele>331.0</ele><time>2026-05-03T12:53:55.001Z</time></trkpt><trkpt lat="43.11285010781624" lon="10.653309500157444"><ele>331.33333333333337</ele><time>2026-05-03T12:53:56.001Z</time></trkpt><trkpt lat="43.112921944679705" lon="10.653283670394776"><ele>331.6666666666667</ele><time>2026-05-03T12:53:57.001Z</time></trkpt><trkpt lat="43.11299221142903" lon="10.653233776028198"><ele>332.0</ele><time>2026-05-03T12:53:58.001Z</time></trkpt><trkpt lat="43.113056247159086" lon="10.653137185575325"><ele>332.0</ele><time>2026-05-03T12:53:59.001Z</time></trkpt><trkpt lat="43.11312129024254" lon="10.653062622465876"><ele>332.0</ele><time>2026-05-03T12:54:00.001Z</time></trkpt><trkpt lat="43.11318478176733" lon="10.65301425897137"><ele>332.0</ele><time>2026-05-03T12:54:01.001Z</time></trkpt><trkpt lat="43.11326507785351" lon="10.652975391301693"><ele>332.0</ele><time>2026-05-03T12:54:02.001Z</time></trkpt><trkpt lat="43.113350815904056" lon="10.652900098918181"><ele>332.0</ele><time>2026-05-03T12:54:04.001Z</time></trkpt><trkpt lat="43.11340684503963" lon="10.652822931781904"><ele>332.0</ele><time>2026-05-03T12:54:06Z</time></trkpt><trkpt lat="43.11346626598476" lon="10.652774124804314"><ele>333.6</ele><time>2026-05-03T12:54:07Z</time></trkpt><trkpt lat="43.11354506495937" lon="10.652618323086536"><ele>335.20000000000005</ele><time>2026-05-03T12:54:09Z</time></trkpt><trkpt lat="43.1135945341423" lon="10.652543160221967"><ele>336.8</ele><time>2026-05-03T12:54:10Z</time></trkpt><trkpt lat="43.1136640452059" lon="10.652432793780974"><ele>338.4</ele><time>2026-05-03T12:54:11Z</time></trkpt><trkpt lat="43.113739919679965" lon="10.6523374247376"><ele>340.0</ele><time>2026-05-03T12:54:12Z</time></trkpt><trkpt lat="43.113808705291575" lon="10.652217736962372"><ele>340.0</ele><time>2026-05-03T12:54:14Z</time></trkpt><trkpt lat="43.11390123586617" lon="10.65208499124689"><ele>340.0</ele><time>2026-05-03T12:54:16Z</time></trkpt><trkpt lat="43.11395797095595" lon="10.652000337319338"><ele>340.0</ele><time>2026-05-03T12:54:17Z</time></trkpt><trkpt lat="43.114021253453316" lon="10.651884545307448"><ele>340.0</ele><time>2026-05-03T12:54:18Z</time></trkpt><trkpt lat="43.11406774574217" lon="10.65177697267002"><ele>340.0</ele><time>2026-05-03T12:54:19Z</time></trkpt><trkpt lat="43.11411413208233" lon="10.651675619142853"><ele>340.0</ele><time>2026-05-03T12:54:20Z</time></trkpt><trkpt lat="43.114158496747685" lon="10.651583983341936"><ele>340.0</ele><time>2026-05-03T12:54:21Z</time></trkpt><trkpt lat="43.11422994062776" lon="10.651448405666489"><ele>340.0</ele><time>2026-05-03T12:54:23Z</time></trkpt><trkpt lat="43.11434836671453" lon="10.651368563221208"><ele>340.0</ele><time>2026-05-03T12:54:25Z</time></trkpt><trkpt lat="43.11442113449343" lon="10.65128090679116"><ele>340.0</ele><time>2026-05-03T12:54:26Z</time></trkpt><trkpt lat="43.11447733308983" lon="10.651208228440092"><ele>343.2</ele><time>2026-05-03T12:54:27Z</time></trkpt><trkpt lat="43.11453921134332" lon="10.651099924421079"><ele>346.4</ele><time>2026-05-03T12:54:29Z</time></trkpt><trkpt lat="43.11457522292841" lon="10.650995917938282"><ele>349.6</ele><time>2026-05-03T12:54:30Z</time></trkpt><trkpt lat="43.114597243360265" lon="10.650850250032782"><ele>352.8</ele><time>2026-05-03T12:54:31Z</time></trkpt><trkpt lat="43.11461681135696" lon="10.65073567400347"><ele>356.0</ele><time>2026-05-03T12:54:32Z</time></trkpt><trkpt lat="43.11463240909005" lon="10.650640938306502"><ele>356.0</ele><time>2026-05-03T12:54:33Z</time></trkpt><trkpt lat="43.11467022707316" lon="10.650549189930873"><ele>356.0</ele><time>2026-05-03T12:54:34Z</time></trkpt><trkpt lat="43.1147340002039" lon="10.65046437055007"><ele>356.0</ele><time>2026-05-03T12:54:35Z</time></trkpt><trkpt lat="43.11481032789058" lon="10.65041830975416"><ele>356.0</ele><time>2026-05-03T12:54:36Z</time></trkpt><trkpt lat="43.114895471827715" lon="10.650395766144754"><ele>356.0</ele><time>2026-05-03T12:54:37Z</time></trkpt><trkpt lat="43.11498683377431" lon="10.65036981190029"><ele>356.0</ele><time>2026-05-03T12:54:38Z</time></trkpt><trkpt lat="43.115092092002314" lon="10.650353623198562"><ele>356.5</ele><time>2026-05-03T12:54:39Z</time></trkpt><trkpt lat="43.11519632211491" lon="10.650311512370426"><ele>357.0</ele><time>2026-05-03T12:54:40Z</time></trkpt><trkpt lat="43.115279106206756" lon="10.650256134088668"><ele>357.5</ele><time>2026-05-03T12:54:41Z</time></trkpt><trkpt lat="43.11535861759762" lon="10.650192845798028"><ele>358.0</ele><time>2026-05-03T12:54:42Z</time></trkpt><trkpt lat="43.115435316770686" lon="10.650144981940755"><ele>358.5</ele><time>2026-05-03T12:54:43Z</time></trkpt><trkpt lat="43.115493089478534" lon="10.650100041065546"><ele>359.0</ele><time>2026-05-03T12:54:44Z</time></trkpt><trkpt lat="43.11553630254595" lon="10.650035930921925"><ele>359.0</ele><time>2026-05-03T12:54:45Z</time></trkpt><trkpt lat="43.11557684766028" lon="10.649956128798273"><ele>359.0</ele><time>2026-05-03T12:54:46Z</time></trkpt><trkpt lat="43.11559681967131" lon="10.649854556213262"><ele>359.0</ele><time>2026-05-03T12:54:47Z</time></trkpt><trkpt lat="43.11561487677271" lon="10.6497404835095"><ele>359.0</ele><time>2026-05-03T12:54:48Z</time></trkpt><trkpt lat="43.11563142371093" lon="10.649632798529092"><ele>359.0</ele><time>2026-05-03T12:54:49Z</time></trkpt><trkpt lat="43.115651990395776" lon="10.649538083532928"><ele>359.0</ele><time>2026-05-03T12:54:50Z</time></trkpt><trkpt lat="43.11568713497395" lon="10.649461501431166"><ele>359.83333333333337</ele><time>2026-05-03T12:54:51Z</time></trkpt><trkpt lat="43.11573684691969" lon="10.64939155380676"><ele>360.6666666666667</ele><time>2026-05-03T12:54:52Z</time></trkpt><trkpt lat="43.115799778246476" lon="10.64932856298331"><ele>361.5</ele><time>2026-05-03T12:54:53Z</time></trkpt><trkpt lat="43.1158701541253" lon="10.649268002359717"><ele>362.3333333333333</ele><time>2026-05-03T12:54:54Z</time></trkpt><trkpt lat="43.11592022647331" lon="10.649189428035635"><ele>363.16666666666663</ele><time>2026-05-03T12:54:55Z</time></trkpt><trkpt lat="43.11594444830087" lon="10.64908688506731"><ele>364.0</ele><time>2026-05-03T12:54:56Z</time></trkpt><trkpt lat="43.1159489887212" lon="10.648988911563906"><ele>364.0</ele><time>2026-05-03T12:54:57Z</time></trkpt><trkpt lat="43.11593977410146" lon="10.648886166357602"><ele>364.0</ele><time>2026-05-03T12:54:58Z</time></trkpt><trkpt lat="43.11589484590952" lon="10.64878283631657"><ele>364.0</ele><time>2026-05-03T12:54:59Z</time></trkpt><trkpt lat="43.11586226950729" lon="10.648675734307366"><ele>364.0</ele><time>2026-05-03T12:55:00Z</time></trkpt><trkpt lat="43.115845346243745" lon="10.648557981979115"><ele>364.0</ele><time>2026-05-03T12:55:01Z</time></trkpt><trkpt lat="43.11584719887692" lon="10.648438052685002"><ele>364.0</ele><time>2026-05-03T12:55:02Z</time></trkpt><trkpt lat="43.11586669824528" lon="10.648335742264772"><ele>364.8333333333333</ele><time>2026-05-03T12:55:03Z</time></trkpt><trkpt lat="43.115879500395366" lon="10.648248968983319"><ele>365.66666666666663</ele><time>2026-05-03T12:55:04Z</time></trkpt><trkpt lat="43.11587523316967" lon="10.64815271001641"><ele>366.5</ele><time>2026-05-03T12:55:06Z</time></trkpt><trkpt lat="43.11578787496445" lon="10.648154900220526"><ele>367.3333333333333</ele><time>2026-05-03T12:55:08Z</time></trkpt><trkpt lat="43.11570478119385" lon="10.648294410084276"><ele>368.1666666666667</ele><time>2026-05-03T12:55:10Z</time></trkpt><trkpt lat="43.11568814787351" lon="10.648385675897748"><ele>369.0</ele><time>2026-05-03T12:55:11Z</time></trkpt><trkpt lat="43.11566831255727" lon="10.648474303713453"><ele>370.3333333333333</ele><time>2026-05-03T12:55:12Z</time></trkpt><trkpt lat="43.11565579740807" lon="10.648569724518781"><ele>371.6666666666667</ele><time>2026-05-03T12:55:13Z</time></trkpt><trkpt lat="43.11563334120187" lon="10.648670068312368"><ele>373.0</ele><time>2026-05-03T12:55:14Z</time></trkpt><trkpt lat="43.11561679838969" lon="10.648799426510424"><ele>374.33333333333337</ele><time>2026-05-03T12:55:16Z</time></trkpt><trkpt lat="43.115567547441564" lon="10.648861137521314"><ele>375.6666666666667</ele><time>2026-05-03T12:55:17.001Z</time></trkpt><trkpt lat="43.11548904333664" lon="10.648895556877624"><ele>377.0</ele><time>2026-05-03T12:55:18.001Z</time></trkpt><trkpt lat="43.11540594138557" lon="10.648922091404211"><ele>377.0</ele><time>2026-05-03T12:55:19.001Z</time></trkpt><trkpt lat="43.115329413044556" lon="10.648956801714611"><ele>377.0</ele><time>2026-05-03T12:55:20.001Z</time></trkpt><trkpt lat="43.11525146550736" lon="10.649009176623244"><ele>377.0</ele><time>2026-05-03T12:55:21.001Z</time></trkpt><trkpt lat="43.11517012108951" lon="10.649056691119764"><ele>377.0</ele><time>2026-05-03T12:55:22.001Z</time></trkpt><trkpt lat="43.11506400812466" lon="10.649026334520224"><ele>377.0</ele><time>2026-05-03T12:55:23.001Z</time></trkpt><trkpt lat="43.11495161102928" lon="10.649083930326027"><ele>378.20000000000005</ele><time>2026-05-03T12:55:25.001Z</time></trkpt><trkpt lat="43.11487475153446" lon="10.649108411234009"><ele>379.4</ele><time>2026-05-03T12:55:26.001Z</time></trkpt><trkpt lat="43.11479003459138" lon="10.649132449961499"><ele>380.6</ele><time>2026-05-03T12:55:27.001Z</time></trkpt><trkpt lat="43.114690571373046" lon="10.64915253079884"><ele>381.79999999999995</ele><time>2026-05-03T12:55:28.001Z</time></trkpt><trkpt lat="43.11458297626316" lon="10.649163453048828"><ele>383.0</ele><time>2026-05-03T12:55:29.001Z</time></trkpt><trkpt lat="43.11449002835771" lon="10.649172461877908"><ele>383.0</ele><time>2026-05-03T12:55:30.001Z</time></trkpt><trkpt lat="43.11442361738574" lon="10.649194663587668"><ele>383.0</ele><time>2026-05-03T12:55:31.001Z</time></trkpt><trkpt lat="43.11435899827328" lon="10.649241962769068"><ele>383.0</ele><time>2026-05-03T12:55:32.001Z</time></trkpt><trkpt lat="43.114239536441204" lon="10.649298401889984"><ele>383.0</ele><time>2026-05-03T12:55:34.001Z</time></trkpt><trkpt lat="43.11411706857101" lon="10.64929726162857"><ele>383.0</ele><time>2026-05-03T12:55:36.001Z</time></trkpt><trkpt lat="43.114050144049145" lon="10.6491708159858"><ele>383.0</ele><time>2026-05-03T12:55:41.001Z</time></trkpt><trkpt lat="43.11401378766024" lon="10.649099531800331"><ele>383.0</ele><time>2026-05-03T12:55:42.001Z</time></trkpt><trkpt lat="43.113973888801205" lon="10.649019854919597"><ele>383.0</ele><time>2026-05-03T12:55:43.001Z</time></trkpt><trkpt lat="43.113932444411" lon="10.648932767577389"><ele>383.0</ele><time>2026-05-03T12:55:44.001Z</time></trkpt><trkpt lat="43.11390359470003" lon="10.648837390522733"><ele>383.0</ele><time>2026-05-03T12:55:45.001Z</time></trkpt><trkpt lat="43.11388096212188" lon="10.648750350854453"><ele>383.0</ele><time>2026-05-03T12:55:46.001Z</time></trkpt><trkpt lat="43.11384804287135" lon="10.648607630181777"><ele>386.2</ele><time>2026-05-03T12:55:48.001Z</time></trkpt><trkpt lat="43.11380636656687" lon="10.648476612610605"><ele>389.4</ele><time>2026-05-03T12:55:50.001Z</time></trkpt><trkpt lat="43.113815964164054" lon="10.648380075538826"><ele>392.59999999999997</ele><time>2026-05-03T12:55:52.001Z</time></trkpt><trkpt lat="43.113832110071726" lon="10.64823671089488"><ele>395.79999999999995</ele><time>2026-05-03T12:55:54.001Z</time></trkpt><trkpt lat="43.113844379148844" lon="10.648088669501995"><ele>399.0</ele><time>2026-05-03T12:55:56.001Z</time></trkpt><trkpt lat="43.11385188951042" lon="10.647995383444046"><ele>399.0</ele><time>2026-05-03T12:55:57.001Z</time></trkpt><trkpt lat="43.11383516016861" lon="10.647870098016838"><ele>399.0</ele><time>2026-05-03T12:55:59.001Z</time></trkpt><trkpt lat="43.113788227240455" lon="10.64778145833602"><ele>399.0</ele><time>2026-05-03T12:56:01.001Z</time></trkpt><trkpt lat="43.11375975150858" lon="10.647683390226529"><ele>399.0</ele><time>2026-05-03T12:56:02.001Z</time></trkpt><trkpt lat="43.1137026647705" lon="10.647634594415935"><ele>399.0</ele><time>2026-05-03T12:56:03.001Z</time></trkpt><trkpt lat="43.113646118595774" lon="10.647542373682283"><ele>399.0</ele><time>2026-05-03T12:56:05.001Z</time></trkpt><trkpt lat="43.113622850239416" lon="10.647417523033472"><ele>400.79999999999995</ele><time>2026-05-03T12:56:07.001Z</time></trkpt><trkpt lat="43.11355034237285" lon="10.647292674958425"><ele>402.59999999999997</ele><time>2026-05-03T12:56:09.001Z</time></trkpt><trkpt lat="43.11351682492104" lon="10.647170541579277"><ele>404.4</ele><time>2026-05-03T12:56:11Z</time></trkpt><trkpt lat="43.113469569429704" lon="10.647047043138944"><ele>406.2</ele><time>2026-05-03T12:56:13Z</time></trkpt><trkpt lat="43.11342823728131" lon="10.64698110221789"><ele>408.0</ele><time>2026-05-03T12:56:14Z</time></trkpt><trkpt lat="43.11338726277257" lon="10.646826915200673"><ele>409.6666666666667</ele><time>2026-05-03T12:56:16Z</time></trkpt><trkpt lat="43.113457316864476" lon="10.64674056355136"><ele>411.33333333333337</ele><time>2026-05-03T12:56:18Z</time></trkpt><trkpt lat="43.11352414788528" lon="10.646758885960987"><ele>413.0</ele><time>2026-05-03T12:56:19Z</time></trkpt><trkpt lat="43.113599771921784" lon="10.646830356482697"><ele>414.6666666666667</ele><time>2026-05-03T12:56:20Z</time></trkpt><trkpt lat="43.113675674218115" lon="10.646884605898423"><ele>416.33333333333337</ele><time>2026-05-03T12:56:21Z</time></trkpt><trkpt lat="43.11373751710219" lon="10.646918050659206"><ele>418.0</ele><time>2026-05-03T12:56:22Z</time></trkpt><trkpt lat="43.113810974129095" lon="10.646926789331408"><ele>418.00000000000006</ele><time>2026-05-03T12:56:23Z</time></trkpt><trkpt lat="43.1138783003421" lon="10.646938189563189"><ele>418.0</ele><time>2026-05-03T12:56:24Z</time></trkpt><trkpt lat="43.11392077106847" lon="10.64685039771277"><ele>418.0</ele><time>2026-05-03T12:56:26Z</time></trkpt><trkpt lat="43.11391513351466" lon="10.646752805418846"><ele>418.0</ele><time>2026-05-03T12:56:27Z</time></trkpt><trkpt lat="43.11384181816637" lon="10.64660627850658"><ele>418.00000000000006</ele><time>2026-05-03T12:56:29Z</time></trkpt><trkpt lat="43.11380576378549" lon="10.646524160125825"><ele>418.0</ele><time>2026-05-03T12:56:30Z</time></trkpt><trkpt lat="43.11378562903819" lon="10.64638767299504"><ele>418.0</ele><time>2026-05-03T12:56:32Z</time></trkpt><trkpt lat="43.11374513983175" lon="10.646217138687378"><ele>418.0</ele><time>2026-05-03T12:56:34Z</time></trkpt><trkpt lat="43.11372790608234" lon="10.646126050887124"><ele>418.0</ele><time>2026-05-03T12:56:35Z</time></trkpt><trkpt lat="43.113688901151065" lon="10.646027150410797"><ele>418.0</ele><time>2026-05-03T12:56:37Z</time></trkpt><trkpt lat="43.11359157458131" lon="10.645974697119684"><ele>418.0</ele><time>2026-05-03T12:56:39Z</time></trkpt><trkpt lat="43.113507820924134" lon="10.645968388445933"><ele>420.2</ele><time>2026-05-03T12:56:41Z</time></trkpt><trkpt lat="43.11340056787848" lon="10.645941748971648"><ele>422.4</ele><time>2026-05-03T12:56:43Z</time></trkpt><trkpt lat="43.11329625791202" lon="10.645866321176777"><ele>424.59999999999997</ele><time>2026-05-03T12:56:45Z</time></trkpt><trkpt lat="43.11322210867174" lon="10.645783397701214"><ele>426.79999999999995</ele><time>2026-05-03T12:56:47Z</time></trkpt><trkpt lat="43.113162340131424" lon="10.64572445983844"><ele>429.0</ele><time>2026-05-03T12:56:48Z</time></trkpt><trkpt lat="43.11306163755255" lon="10.645681838175005"><ele>430.79999999999995</ele><time>2026-05-03T12:56:50Z</time></trkpt><trkpt lat="43.11294968237276" lon="10.64568038678716"><ele>432.59999999999997</ele><time>2026-05-03T12:56:52Z</time></trkpt><trkpt lat="43.11285958129384" lon="10.645671314611388"><ele>434.4</ele><time>2026-05-03T12:56:54Z</time></trkpt><trkpt lat="43.112777405141046" lon="10.645619936316988"><ele>436.2</ele><time>2026-05-03T12:56:56Z</time></trkpt><trkpt lat="43.11279373741913" lon="10.645474210944496"><ele>438.0</ele><time>2026-05-03T12:56:58Z</time></trkpt><trkpt lat="43.11283771628624" lon="10.645388711743141"><ele>438.0</ele><time>2026-05-03T12:56:59Z</time></trkpt><trkpt lat="43.11288847052653" lon="10.64530002153946"><ele>438.0</ele><time>2026-05-03T12:57:00Z</time></trkpt><trkpt lat="43.11291225130274" lon="10.645193427190835"><ele>438.0</ele><time>2026-05-03T12:57:02Z</time></trkpt><trkpt lat="43.11292641580572" lon="10.645109238431301"><ele>438.0</ele><time>2026-05-03T12:57:03Z</time></trkpt><trkpt lat="43.11292759162805" lon="10.6449782774512"><ele>438.0</ele><time>2026-05-03T13:00:40Z</time></trkpt><trkpt lat="43.11297283227066" lon="10.644838422339477"><ele>438.0</ele><time>2026-05-03T13:00:42Z</time></trkpt><trkpt lat="43.11301935970309" lon="10.64475652881497"><ele>438.0</ele><time>2026-05-03T13:00:43Z</time></trkpt><trkpt lat="43.11306601262232" lon="10.644681804371812"><ele>437.99999999999994</ele><time>2026-05-03T13:00:44Z</time></trkpt><trkpt lat="43.11310897319634" lon="10.644616685006293"><ele>437.99999999999994</ele><time>2026-05-03T13:00:45Z</time></trkpt><trkpt lat="43.113192853217726" lon="10.644502102765927"><ele>438.0</ele><time>2026-05-03T13:00:47Z</time></trkpt><trkpt lat="43.11326356874313" lon="10.64434132046223"><ele>438.0</ele><time>2026-05-03T13:00:49Z</time></trkpt><trkpt lat="43.11328753164876" lon="10.644244366385294"><ele>437.4</ele><time>2026-05-03T13:00:50Z</time></trkpt><trkpt lat="43.113318890663216" lon="10.644151822086075"><ele>436.79999999999995</ele><time>2026-05-03T13:00:51Z</time></trkpt><trkpt lat="43.11336271469253" lon="10.644035356925139"><ele>436.2</ele><time>2026-05-03T13:00:52Z</time></trkpt><trkpt lat="43.11341192545961" lon="10.643910191193292"><ele>435.6</ele><time>2026-05-03T13:00:53Z</time></trkpt><trkpt lat="43.113463792365394" lon="10.643796628684292"><ele>435.0</ele><time>2026-05-03T13:00:54Z</time></trkpt><trkpt lat="43.1135149473078" lon="10.643698898064311"><ele>435.6666666666667</ele><time>2026-05-03T13:00:55Z</time></trkpt><trkpt lat="43.113573873223764" lon="10.643614228143814"><ele>436.33333333333337</ele><time>2026-05-03T13:00:56Z</time></trkpt><trkpt lat="43.11363632996723" lon="10.643567262562078"><ele>437.0</ele><time>2026-05-03T13:00:57Z</time></trkpt><trkpt lat="43.11370390922182" lon="10.6435490111697"><ele>437.6666666666667</ele><time>2026-05-03T13:00:58Z</time></trkpt><trkpt lat="43.113801712163614" lon="10.643546915546079"><ele>438.33333333333337</ele><time>2026-05-03T13:00:59Z</time></trkpt><trkpt lat="43.11389491173306" lon="10.643532780657306"><ele>439.0</ele><time>2026-05-03T13:01:00Z</time></trkpt><trkpt lat="43.11399130536262" lon="10.643528277831868"><ele>440.50000000000006</ele><time>2026-05-03T13:01:01Z</time></trkpt><trkpt lat="43.11408090264592" lon="10.643525910494574"><ele>442.0</ele><time>2026-05-03T13:01:02Z</time></trkpt><trkpt lat="43.11416149169346" lon="10.643545302473786"><ele>443.5</ele><time>2026-05-03T13:01:03Z</time></trkpt><trkpt lat="43.11422656910512" lon="10.643505667489539"><ele>445.0</ele><time>2026-05-03T13:01:04Z</time></trkpt><trkpt lat="43.11430312264272" lon="10.643529948277195"><ele>446.50000000000006</ele><time>2026-05-03T13:01:05Z</time></trkpt><trkpt lat="43.11437478286089" lon="10.64357351249176"><ele>448.0</ele><time>2026-05-03T13:01:06Z</time></trkpt><trkpt lat="43.1144410124389" lon="10.643617251591833"><ele>448.00000000000006</ele><time>2026-05-03T13:01:07Z</time></trkpt><trkpt lat="43.114532387436554" lon="10.643619822349779"><ele>448.0</ele><time>2026-05-03T13:01:08Z</time></trkpt><trkpt lat="43.1146190062555" lon="10.643647719963985"><ele>448.0</ele><time>2026-05-03T13:01:09Z</time></trkpt><trkpt lat="43.11469384707383" lon="10.643664656399764"><ele>448.0</ele><time>2026-05-03T13:01:10Z</time></trkpt><trkpt lat="43.11478558509692" lon="10.643640718311445"><ele>448.00000000000006</ele><time>2026-05-03T13:01:12Z</time></trkpt><trkpt lat="43.1148483028914" lon="10.643577341222404"><ele>448.0</ele><time>2026-05-03T13:01:14Z</time></trkpt><trkpt lat="43.11494592632472" lon="10.64346633578588"><ele>450.1666666666667</ele><time>2026-05-03T13:01:16Z</time></trkpt><trkpt lat="43.1149474626715" lon="10.64334119459956"><ele>452.33333333333337</ele><time>2026-05-03T13:01:17Z</time></trkpt><trkpt lat="43.114955075485355" lon="10.643222084250272"><ele>454.5</ele><time>2026-05-03T13:01:18Z</time></trkpt><trkpt lat="43.114966942455226" lon="10.643102080697313"><ele>456.66666666666663</ele><time>2026-05-03T13:01:19Z</time></trkpt><trkpt lat="43.11498717793396" lon="10.642985407638372"><ele>458.8333333333333</ele><time>2026-05-03T13:01:20Z</time></trkpt><trkpt lat="43.11500913129981" lon="10.642889497265756"><ele>461.0</ele><time>2026-05-03T13:01:21Z</time></trkpt><trkpt lat="43.11508651090588" lon="10.642755423581596"><ele>461.0</ele><time>2026-05-03T13:01:23Z</time></trkpt><trkpt lat="43.11515748774032" lon="10.642611387147596"><ele>461.0</ele><time>2026-05-03T13:01:25Z</time></trkpt><trkpt lat="43.11520854740585" lon="10.642498460266195"><ele>461.0</ele><time>2026-05-03T13:01:26Z</time></trkpt><trkpt lat="43.115256819504296" lon="10.642379846759244"><ele>461.0</ele><time>2026-05-03T13:01:27Z</time></trkpt><trkpt lat="43.11530983829097" lon="10.642268140679002"><ele>461.0</ele><time>2026-05-03T13:01:28Z</time></trkpt><trkpt lat="43.11537350967405" lon="10.642183141109978"><ele>461.0</ele><time>2026-05-03T13:01:29Z</time></trkpt><trkpt lat="43.11543388398369" lon="10.642108887494762"><ele>461.0</ele><time>2026-05-03T13:01:30Z</time></trkpt><trkpt lat="43.11555801529048" lon="10.642027699760463"><ele>461.0</ele><time>2026-05-03T13:01:32Z</time></trkpt><trkpt lat="43.11564173291003" lon="10.641964768205444"><ele>461.0</ele><time>2026-05-03T13:01:33Z</time></trkpt><trkpt lat="43.11570479324299" lon="10.641902326982168"><ele>461.0</ele><time>2026-05-03T13:01:34Z</time></trkpt><trkpt lat="43.115761060332595" lon="10.641835683353332"><ele>462.49999999999994</ele><time>2026-05-03T13:01:35Z</time></trkpt><trkpt lat="43.115819634099665" lon="10.641766307604211"><ele>464.0</ele><time>2026-05-03T13:01:36.001Z</time></trkpt><trkpt lat="43.11587857620533" lon="10.641690372504428"><ele>465.5</ele><time>2026-05-03T13:01:37.001Z</time></trkpt><trkpt lat="43.11593084876698" lon="10.641614476407257"><ele>467.0</ele><time>2026-05-03T13:01:38.001Z</time></trkpt><trkpt lat="43.115998708141106" lon="10.64150901894064"><ele>468.49999999999994</ele><time>2026-05-03T13:01:39.001Z</time></trkpt><trkpt lat="43.116064959919626" lon="10.641389568570457"><ele>470.0</ele><time>2026-05-03T13:01:40.001Z</time></trkpt><trkpt lat="43.1161159443137" lon="10.641304749910848"><ele>470.0</ele><time>2026-05-03T13:01:41.001Z</time></trkpt><trkpt lat="43.11618428978361" lon="10.641235690600212"><ele>470.0</ele><time>2026-05-03T13:01:42.001Z</time></trkpt><trkpt lat="43.11624441139685" lon="10.641186533650199"><ele>470.0</ele><time>2026-05-03T13:01:43.001Z</time></trkpt><trkpt lat="43.116203939281654" lon="10.640971523389155"><ele>470.0</ele><time>2026-05-03T13:01:45.001Z</time></trkpt><trkpt lat="43.1161289590985" lon="10.640839034652386"><ele>470.0</ele><time>2026-05-03T13:01:48.001Z</time></trkpt><trkpt lat="43.116091111737155" lon="10.640757255856435"><ele>470.49999999999994</ele><time>2026-05-03T13:01:49.001Z</time></trkpt><trkpt lat="43.116057641854596" lon="10.640669253901896"><ele>471.0</ele><time>2026-05-03T13:01:50.001Z</time></trkpt><trkpt lat="43.11604386689821" lon="10.640543229736002"><ele>471.5</ele><time>2026-05-03T13:01:51.001Z</time></trkpt><trkpt lat="43.11598367778265" lon="10.64045203352966"><ele>472.0</ele><time>2026-05-03T13:01:52.001Z</time></trkpt><trkpt lat="43.115942648671535" lon="10.640350483426486"><ele>472.49999999999994</ele><time>2026-05-03T13:01:53.001Z</time></trkpt><trkpt lat="43.11590247166909" lon="10.640264227425888"><ele>473.0</ele><time>2026-05-03T13:01:54.001Z</time></trkpt><trkpt lat="43.11586913638166" lon="10.64017929007569"><ele>474.0</ele><time>2026-05-03T13:01:55.001Z</time></trkpt><trkpt lat="43.11582406661925" lon="10.640101278375727"><ele>475.0</ele><time>2026-05-03T13:01:56.001Z</time></trkpt><trkpt lat="43.11577728226603" lon="10.640040196851928"><ele>476.0</ele><time>2026-05-03T13:01:57.001Z</time></trkpt><trkpt lat="43.11572188149215" lon="10.639970333449337"><ele>477.0</ele><time>2026-05-03T13:01:58.001Z</time></trkpt><trkpt lat="43.11564815617711" lon="10.639909561001827"><ele>478.0</ele><time>2026-05-03T13:01:59.001Z</time></trkpt><trkpt lat="43.11558826774846" lon="10.639846002425733"><ele>479.0</ele><time>2026-05-03T13:02:00.001Z</time></trkpt><trkpt lat="43.11553779054314" lon="10.639791756967345"><ele>480.0</ele><time>2026-05-03T13:02:01.001Z</time></trkpt><trkpt lat="43.11544612254536" lon="10.639716827020896"><ele>480.0</ele><time>2026-05-03T13:02:03.001Z</time></trkpt><trkpt lat="43.11541491000552" lon="10.639637858686369"><ele>480.0</ele><time>2026-05-03T13:02:05.001Z</time></trkpt><trkpt lat="43.11545950016522" lon="10.639520780259026"><ele>480.0</ele><time>2026-05-03T13:02:06.001Z</time></trkpt><trkpt lat="43.115518994624445" lon="10.639432520106807"><ele>480.0</ele><time>2026-05-03T13:02:07.001Z</time></trkpt><trkpt lat="43.11559997779209" lon="10.639342667362072"><ele>480.0</ele><time>2026-05-03T13:02:08.001Z</time></trkpt><trkpt lat="43.115685531497405" lon="10.6392574976202"><ele>481.0</ele><time>2026-05-03T13:02:09.001Z</time></trkpt><trkpt lat="43.1157711871313" lon="10.639179379362321"><ele>482.0</ele><time>2026-05-03T13:02:10.001Z</time></trkpt><trkpt lat="43.115849244958625" lon="10.639115660764896"><ele>483.0</ele><time>2026-05-03T13:02:11.001Z</time></trkpt><trkpt lat="43.11591006985874" lon="10.639025174416455"><ele>484.0</ele><time>2026-05-03T13:02:12.001Z</time></trkpt><trkpt lat="43.11595020958875" lon="10.638927749316645"><ele>485.0</ele><time>2026-05-03T13:02:13.001Z</time></trkpt><trkpt lat="43.11600243613092" lon="10.638765836672786"><ele>484.99999999999994</ele><time>2026-05-03T13:02:15.001Z</time></trkpt><trkpt lat="43.1160325805469" lon="10.6386790275241"><ele>485.0</ele><time>2026-05-03T13:02:16.001Z</time></trkpt><trkpt lat="43.1160614895541" lon="10.638589313426683"><ele>485.0</ele><time>2026-05-03T13:02:17.001Z</time></trkpt><trkpt lat="43.11608640351047" lon="10.638500368373832"><ele>485.0</ele><time>2026-05-03T13:02:18.001Z</time></trkpt><trkpt lat="43.116101851754635" lon="10.638377425382629"><ele>484.99999999999994</ele><time>2026-05-03T13:02:19.001Z</time></trkpt><trkpt lat="43.11611588607345" lon="10.638252793783547"><ele>485.0</ele><time>2026-05-03T13:02:20.001Z</time></trkpt><trkpt lat="43.11617855701953" lon="10.63811522172642"><ele>484.8</ele><time>2026-05-03T13:02:22.001Z</time></trkpt><trkpt lat="43.11626794792426" lon="10.638033069034853"><ele>484.6</ele><time>2026-05-03T13:02:24.001Z</time></trkpt><trkpt lat="43.11633554939479" lon="10.637983985196646"><ele>484.4</ele><time>2026-05-03T13:02:25.001Z</time></trkpt><trkpt lat="43.116418641694196" lon="10.63789237389487"><ele>484.2</ele><time>2026-05-03T13:02:26.001Z</time></trkpt><trkpt lat="43.11648245513319" lon="10.637821918543493"><ele>484.0</ele><time>2026-05-03T13:02:27.001Z</time></trkpt><trkpt lat="43.11653921290763" lon="10.637731667667564"><ele>487.79999999999995</ele><time>2026-05-03T13:02:28.001Z</time></trkpt><trkpt lat="43.11661940555912" lon="10.637623498553253"><ele>491.59999999999997</ele><time>2026-05-03T13:02:29Z</time></trkpt><trkpt lat="43.11669169978426" lon="10.637503134681552"><ele>495.4</ele><time>2026-05-03T13:02:30Z</time></trkpt><trkpt lat="43.116766138559264" lon="10.637386312904015"><ele>499.2</ele><time>2026-05-03T13:02:31Z</time></trkpt><trkpt lat="43.116847215193715" lon="10.63728918100369"><ele>503.0</ele><time>2026-05-03T13:02:32Z</time></trkpt><trkpt lat="43.11692558415481" lon="10.637218745025255"><ele>502.99999999999994</ele><time>2026-05-03T13:02:33Z</time></trkpt><trkpt lat="43.11700394756297" lon="10.637166660964821"><ele>503.0</ele><time>2026-05-03T13:02:34Z</time></trkpt><trkpt lat="43.117083088906895" lon="10.637110774818938"><ele>503.0</ele><time>2026-05-03T13:02:35Z</time></trkpt><trkpt lat="43.11714074104228" lon="10.637031493049799"><ele>503.0</ele><time>2026-05-03T13:02:36Z</time></trkpt><trkpt lat="43.11717350082473" lon="10.636903141412628"><ele>502.99999999999994</ele><time>2026-05-03T13:02:38Z</time></trkpt><trkpt lat="43.11717756045024" lon="10.636810062678178"><ele>503.0</ele><time>2026-05-03T13:02:40Z</time></trkpt><trkpt lat="43.11724679333429" lon="10.636751879081979"><ele>504.0</ele><time>2026-05-03T13:02:42Z</time></trkpt><trkpt lat="43.117318722365106" lon="10.63672444685186"><ele>504.99999999999994</ele><time>2026-05-03T13:02:43Z</time></trkpt><trkpt lat="43.11740407187532" lon="10.636617565421265"><ele>505.99999999999994</ele><time>2026-05-03T13:02:45Z</time></trkpt><trkpt lat="43.11746174122618" lon="10.636484493218248"><ele>507.0</ele><time>2026-05-03T13:02:47Z</time></trkpt><trkpt lat="43.11753607926692" lon="10.636341544377693"><ele>508.0</ele><time>2026-05-03T13:02:49Z</time></trkpt><trkpt lat="43.11759183523016" lon="10.636228118122563"><ele>508.50000000000006</ele><time>2026-05-03T13:02:50Z</time></trkpt><trkpt lat="43.11763731277786" lon="10.636134130123414"><ele>509.0</ele><time>2026-05-03T13:02:51Z</time></trkpt><trkpt lat="43.117684553297735" lon="10.636056748097186"><ele>509.5</ele><time>2026-05-03T13:02:52Z</time></trkpt><trkpt lat="43.117749320291495" lon="10.635981768896775"><ele>510.0</ele><time>2026-05-03T13:02:53Z</time></trkpt><trkpt lat="43.1178190843903" lon="10.635898477068844"><ele>510.50000000000006</ele><time>2026-05-03T13:02:54Z</time></trkpt><trkpt lat="43.11789039556215" lon="10.63582092060673"><ele>511.0</ele><time>2026-05-03T13:02:55Z</time></trkpt><trkpt lat="43.11795769683251" lon="10.635739752253453"><ele>511.0</ele><time>2026-05-03T13:02:56Z</time></trkpt><trkpt lat="43.118045208446084" lon="10.635628639039574"><ele>511.0</ele><time>2026-05-03T13:02:58Z</time></trkpt><trkpt lat="43.11817618810578" lon="10.63556711767286"><ele>511.0</ele><time>2026-05-03T13:03:00Z</time></trkpt><trkpt lat="43.11825480795313" lon="10.63554679968943"><ele>511.0</ele><time>2026-05-03T13:03:01Z</time></trkpt><trkpt lat="43.118331719776535" lon="10.635522547729295"><ele>511.0</ele><time>2026-05-03T13:03:02Z</time></trkpt><trkpt lat="43.11839689613047" lon="10.63546989009668"><ele>510.33333333333337</ele><time>2026-05-03T13:03:03Z</time></trkpt><trkpt lat="43.11845958070311" lon="10.635417132840887"><ele>509.6666666666667</ele><time>2026-05-03T13:03:04Z</time></trkpt><trkpt lat="43.11856031732435" lon="10.635368882461954"><ele>509.0</ele><time>2026-05-03T13:03:05Z</time></trkpt><trkpt lat="43.11864135521364" lon="10.635355710428296"><ele>508.33333333333337</ele><time>2026-05-03T13:03:06Z</time></trkpt><trkpt lat="43.118717446079636" lon="10.635380101098622"><ele>507.6666666666667</ele><time>2026-05-03T13:03:07Z</time></trkpt><trkpt lat="43.11879056105632" lon="10.635384143850786"><ele>507.0</ele><time>2026-05-03T13:03:08Z</time></trkpt><trkpt lat="43.118878862820004" lon="10.635385941212434"><ele>507.0</ele><time>2026-05-03T13:03:09Z</time></trkpt><trkpt lat="43.11895055672356" lon="10.63536074609609"><ele>507.00000000000006</ele><time>2026-05-03T13:03:10Z</time></trkpt><trkpt lat="43.11905085950208" lon="10.63523348489568"><ele>507.00000000000006</ele><time>2026-05-03T13:03:12Z</time></trkpt><trkpt lat="43.119114724269025" lon="10.635163992216134"><ele>507.0</ele><time>2026-05-03T13:03:13Z</time></trkpt><trkpt lat="43.11918299904211" lon="10.635098694061083"><ele>507.0</ele><time>2026-05-03T13:03:14Z</time></trkpt><trkpt lat="43.11926502556153" lon="10.634976162649291"><ele>509.1666666666667</ele><time>2026-05-03T13:03:15Z</time></trkpt><trkpt lat="43.119332461409776" lon="10.634876309034341"><ele>511.33333333333337</ele><time>2026-05-03T13:03:16Z</time></trkpt><trkpt lat="43.11939916580095" lon="10.6347825730881"><ele>513.5</ele><time>2026-05-03T13:03:17Z</time></trkpt><trkpt lat="43.119470290006674" lon="10.63474589631877"><ele>515.6666666666667</ele><time>2026-05-03T13:03:18Z</time></trkpt><trkpt lat="43.11955150802686" lon="10.634699205485365"><ele>517.8333333333334</ele><time>2026-05-03T13:03:19Z</time></trkpt><trkpt lat="43.11962555394644" lon="10.634671418751289"><ele>520.0</ele><time>2026-05-03T13:03:20Z</time></trkpt><trkpt lat="43.1197364414428" lon="10.634645466727267"><ele>520.0</ele><time>2026-05-03T13:03:21Z</time></trkpt><trkpt lat="43.119848763805706" lon="10.634634264841447"><ele>520.0</ele><time>2026-05-03T13:03:22Z</time></trkpt><trkpt lat="43.11993837618648" lon="10.634631862740173"><ele>520.0</ele><time>2026-05-03T13:03:23Z</time></trkpt><trkpt lat="43.12005641928302" lon="10.634593166491952"><ele>520.0</ele><time>2026-05-03T13:03:25Z</time></trkpt><trkpt lat="43.12012405054584" lon="10.634545873086878"><ele>520.0</ele><time>2026-05-03T13:03:26Z</time></trkpt><trkpt lat="43.120192395106315" lon="10.634491341618347"><ele>520.3333333333334</ele><time>2026-05-03T13:03:27Z</time></trkpt><trkpt lat="43.12026930371915" lon="10.634429254687337"><ele>520.6666666666667</ele><time>2026-05-03T13:03:28Z</time></trkpt><trkpt lat="43.12032483952984" lon="10.6343340947658"><ele>521.0</ele><time>2026-05-03T13:03:29Z</time></trkpt><trkpt lat="43.12038567028535" lon="10.634262613975665"><ele>521.3333333333334</ele><time>2026-05-03T13:03:30Z</time></trkpt><trkpt lat="43.12044786358249" lon="10.634208251706884"><ele>521.6666666666666</ele><time>2026-05-03T13:03:31Z</time></trkpt><trkpt lat="43.12050491397699" lon="10.63415799418971"><ele>522.0</ele><time>2026-05-03T13:03:32Z</time></trkpt><trkpt lat="43.120594494974775" lon="10.634088932317534"><ele>522.0</ele><time>2026-05-03T13:03:33Z</time></trkpt><trkpt lat="43.120710874806896" lon="10.633988224561621"><ele>522.0</ele><time>2026-05-03T13:03:34Z</time></trkpt><trkpt lat="43.120821566120604" lon="10.633885474105648"><ele>522.0</ele><time>2026-05-03T13:03:35Z</time></trkpt><trkpt lat="43.12091255949869" lon="10.63381747177617"><ele>522.0</ele><time>2026-05-03T13:03:36Z</time></trkpt><trkpt lat="43.121006096904004" lon="10.633756348152863"><ele>521.2</ele><time>2026-05-03T13:03:37Z</time></trkpt><trkpt lat="43.1211134682789" lon="10.633674848758464"><ele>520.4000000000001</ele><time>2026-05-03T13:03:38Z</time></trkpt><trkpt lat="43.12120549453924" lon="10.633610686350158"><ele>519.5999999999999</ele><time>2026-05-03T13:03:39Z</time></trkpt><trkpt lat="43.12128840786362" lon="10.63355882524322"><ele>518.8</ele><time>2026-05-03T13:03:40Z</time></trkpt><trkpt lat="43.12138363822081" lon="10.63348608139788"><ele>518.0</ele><time>2026-05-03T13:03:41Z</time></trkpt><trkpt lat="43.1214778093111" lon="10.633411502883606"><ele>518.0</ele><time>2026-05-03T13:03:42.001Z</time></trkpt><trkpt lat="43.121561872257246" lon="10.633334752259296"><ele>518.0</ele><time>2026-05-03T13:03:43.001Z</time></trkpt><trkpt lat="43.12164195226208" lon="10.633255181773718"><ele>518.0</ele><time>2026-05-03T13:03:44.001Z</time></trkpt><trkpt lat="43.121721260699125" lon="10.633190721394802"><ele>518.0</ele><time>2026-05-03T13:03:45.001Z</time></trkpt><trkpt lat="43.12181096051432" lon="10.633155715397091"><ele>518.0</ele><time>2026-05-03T13:03:46.001Z</time></trkpt><trkpt lat="43.12189438210436" lon="10.633110129005889"><ele>518.8333333333333</ele><time>2026-05-03T13:03:47.001Z</time></trkpt><trkpt lat="43.1219593981824" lon="10.63308383688267"><ele>519.6666666666666</ele><time>2026-05-03T13:03:48.001Z</time></trkpt><trkpt lat="43.12202646386849" lon="10.633045469309797"><ele>520.5</ele><time>2026-05-03T13:03:49.001Z</time></trkpt><trkpt lat="43.122107385866144" lon="10.632982386757908"><ele>521.3333333333334</ele><time>2026-05-03T13:03:50.001Z</time></trkpt><trkpt lat="43.12218669329685" lon="10.632939387458412"><ele>522.1666666666667</ele><time>2026-05-03T13:03:51.001Z</time></trkpt><trkpt lat="43.12225351867252" lon="10.632893488327815"><ele>523.0</ele><time>2026-05-03T13:03:52.001Z</time></trkpt><trkpt lat="43.12230321968215" lon="10.632834976649072"><ele>524.0</ele><time>2026-05-03T13:03:53.001Z</time></trkpt><trkpt lat="43.12236013060338" lon="10.632762300718715"><ele>525.0</ele><time>2026-05-03T13:03:54.001Z</time></trkpt><trkpt lat="43.12242872612416" lon="10.632696452958749"><ele>526.0</ele><time>2026-05-03T13:03:55.001Z</time></trkpt><trkpt lat="43.122511560916394" lon="10.632632457690173"><ele>527.0</ele><time>2026-05-03T13:03:56.001Z</time></trkpt><trkpt lat="43.122609494858644" lon="10.632568729471611"><ele>528.0</ele><time>2026-05-03T13:03:57.001Z</time></trkpt><trkpt lat="43.1226948576315" lon="10.632490502877824"><ele>528.1999999999999</ele><time>2026-05-03T13:03:58.001Z</time></trkpt><trkpt lat="43.122782366676354" lon="10.632418811026293"><ele>528.4</ele><time>2026-05-03T13:03:59.001Z</time></trkpt><trkpt lat="43.12286787386068" lon="10.632349708535896"><ele>528.5999999999999</ele><time>2026-05-03T13:04:00.001Z</time></trkpt><trkpt lat="43.12295194460518" lon="10.632323596689032"><ele>528.8</ele><time>2026-05-03T13:04:01.001Z</time></trkpt><trkpt lat="43.12304214960118" lon="10.632289392047978"><ele>529.0</ele><time>2026-05-03T13:04:02.001Z</time></trkpt><trkpt lat="43.12315086712037" lon="10.63225935267304"><ele>529.0</ele><time>2026-05-03T13:04:03.001Z</time></trkpt><trkpt lat="43.12322899310366" lon="10.632260493226825"><ele>529.0</ele><time>2026-05-03T13:04:04.001Z</time></trkpt><trkpt lat="43.12333991237655" lon="10.632277964803382"><ele>529.0</ele><time>2026-05-03T13:04:05.001Z</time></trkpt><trkpt lat="43.12343597616786" lon="10.63227510079135"><ele>529.0</ele><time>2026-05-03T13:04:06.001Z</time></trkpt><trkpt lat="43.1235174432396" lon="10.63226830939356"><ele>529.0</ele><time>2026-05-03T13:04:07.001Z</time></trkpt><trkpt lat="43.123636956517316" lon="10.632205369287409"><ele>529.1666666666667</ele><time>2026-05-03T13:04:09.001Z</time></trkpt><trkpt lat="43.123713086291595" lon="10.63214893525616"><ele>529.3333333333334</ele><time>2026-05-03T13:04:10.001Z</time></trkpt><trkpt lat="43.12377633440974" lon="10.63208572635374"><ele>529.5</ele><time>2026-05-03T13:04:11.001Z</time></trkpt><trkpt lat="43.123849358812684" lon="10.632003027846817"><ele>529.6666666666666</ele><time>2026-05-03T13:04:12.001Z</time></trkpt><trkpt lat="43.12391929995134" lon="10.631919590730789"><ele>529.8333333333333</ele><time>2026-05-03T13:04:13.001Z</time></trkpt><trkpt lat="43.123984482492766" lon="10.631861598439201"><ele>530.0</ele><time>2026-05-03T13:04:14.001Z</time></trkpt><trkpt lat="43.12407948404838" lon="10.6317971820173"><ele>530.0</ele><time>2026-05-03T13:04:15.001Z</time></trkpt><trkpt lat="43.12418779926458" lon="10.631723450911817"><ele>530.0</ele><time>2026-05-03T13:04:16.001Z</time></trkpt><trkpt lat="43.12429513376074" lon="10.631668109882103"><ele>530.0</ele><time>2026-05-03T13:04:17.001Z</time></trkpt><trkpt lat="43.12438337990471" lon="10.631627031936745"><ele>530.0</ele><time>2026-05-03T13:04:18.001Z</time></trkpt><trkpt lat="43.12446423753333" lon="10.631570296832347"><ele>530.0</ele><time>2026-05-03T13:04:19.001Z</time></trkpt><trkpt lat="43.12455435986646" lon="10.631517608127133"><ele>530.0</ele><time>2026-05-03T13:04:20.001Z</time></trkpt><trkpt lat="43.12464720517245" lon="10.631469731106147"><ele>530.0</ele><time>2026-05-03T13:04:21.001Z</time></trkpt><trkpt lat="43.12473655222262" lon="10.631400497223758"><ele>530.0</ele><time>2026-05-03T13:04:22.001Z</time></trkpt><trkpt lat="43.124821414143554" lon="10.631343016180116"><ele>530.0</ele><time>2026-05-03T13:04:23.001Z</time></trkpt><trkpt lat="43.124908468409046" lon="10.631279843748228"><ele>530.0</ele><time>2026-05-03T13:04:24.001Z</time></trkpt><trkpt lat="43.125005387550914" lon="10.631204580794789"><ele>530.0</ele><time>2026-05-03T13:04:25.001Z</time></trkpt><trkpt lat="43.125102816173026" lon="10.63113905038826"><ele>530.0</ele><time>2026-05-03T13:04:26.001Z</time></trkpt><trkpt lat="43.12518618546583" lon="10.631077329810322"><ele>530.0</ele><time>2026-05-03T13:04:27.001Z</time></trkpt><trkpt lat="43.12525899199149" lon="10.63102474754734"><ele>530.0</ele><time>2026-05-03T13:04:28.001Z</time></trkpt><trkpt lat="43.1253388544984" lon="10.630933093408919"><ele>530.0</ele><time>2026-05-03T13:04:29.001Z</time></trkpt><trkpt lat="43.125397798920105" lon="10.63084454641263"><ele>530.0</ele><time>2026-05-03T13:04:30.001Z</time></trkpt><trkpt lat="43.12546369625143" lon="10.63077224067127"><ele>530.0</ele><time>2026-05-03T13:04:31.001Z</time></trkpt><trkpt lat="43.12554520877572" lon="10.630724696820746"><ele>530.0</ele><time>2026-05-03T13:04:32.001Z</time></trkpt><trkpt lat="43.12563524522163" lon="10.630640634067863"><ele>530.0</ele><time>2026-05-03T13:04:33.001Z</time></trkpt><trkpt lat="43.12572984464632" lon="10.630537316496511"><ele>530.0</ele><time>2026-05-03T13:04:34.001Z</time></trkpt><trkpt lat="43.12583158984395" lon="10.630427682489563"><ele>528.4</ele><time>2026-05-03T13:04:35Z</time></trkpt><trkpt lat="43.12591824628047" lon="10.630342577563724"><ele>526.8</ele><time>2026-05-03T13:04:36Z</time></trkpt><trkpt lat="43.125990494453376" lon="10.630256539647934"><ele>525.2</ele><time>2026-05-03T13:04:37Z</time></trkpt><trkpt lat="43.12606250622727" lon="10.630165371313177"><ele>523.6</ele><time>2026-05-03T13:04:38Z</time></trkpt><trkpt lat="43.12614870421731" lon="10.630077045402896"><ele>522.0</ele><time>2026-05-03T13:04:39Z</time></trkpt><trkpt lat="43.126245984612325" lon="10.629969509085532"><ele>522.0</ele><time>2026-05-03T13:04:40Z</time></trkpt><trkpt lat="43.12633254988673" lon="10.629880039928379"><ele>522.0</ele><time>2026-05-03T13:04:41Z</time></trkpt><trkpt lat="43.126410091342514" lon="10.629795192455019"><ele>522.0</ele><time>2026-05-03T13:04:42Z</time></trkpt><trkpt lat="43.12646103211869" lon="10.629717299010066"><ele>522.0</ele><time>2026-05-03T13:04:43Z</time></trkpt><trkpt lat="43.12650409094472" lon="10.629617198243588"><ele>522.0</ele><time>2026-05-03T13:04:44Z</time></trkpt><trkpt lat="43.12655090355696" lon="10.629557869345382"><ele>522.0</ele><time>2026-05-03T13:04:45Z</time></trkpt><trkpt lat="43.12662897295646" lon="10.62946682312847"><ele>522.5</ele><time>2026-05-03T13:04:47Z</time></trkpt><trkpt lat="43.12668743472653" lon="10.6294052737392"><ele>523.0</ele><time>2026-05-03T13:04:51Z</time></trkpt><trkpt lat="43.126801849854" lon="10.629371390293022"><ele>523.5</ele><time>2026-05-03T13:04:53Z</time></trkpt><trkpt lat="43.12686207330848" lon="10.629342701652712"><ele>524.0</ele><time>2026-05-03T13:04:54Z</time></trkpt><trkpt lat="43.126946359784164" lon="10.629285486892176"><ele>524.5</ele><time>2026-05-03T13:04:56Z</time></trkpt><trkpt lat="43.12700631599891" lon="10.62924294334967"><ele>525.0</ele><time>2026-05-03T13:04:59Z</time></trkpt><trkpt lat="43.12707651635258" lon="10.629228180855504"><ele>525.0</ele><time>2026-05-03T13:05:04Z</time></trkpt><trkpt lat="43.12703147823521" lon="10.629294814969427"><ele>525.0</ele><time>2026-05-03T13:05:12Z</time></trkpt><trkpt lat="43.12695786377573" lon="10.629340031566459"><ele>525.0</ele><time>2026-05-03T13:05:14Z</time></trkpt><trkpt lat="43.12684201006018" lon="10.629380023620952"><ele>525.0</ele><time>2026-05-03T13:05:16Z</time></trkpt><trkpt lat="43.126764781507454" lon="10.629387361429886"><ele>525.0</ele><time>2026-05-03T13:05:18Z</time></trkpt><trkpt lat="43.126672368837475" lon="10.629393951479955"><ele>525.0</ele><time>2026-05-03T13:07:05Z</time></trkpt><trkpt lat="43.126708875960745" lon="10.62927673058967"><ele>525.0</ele><time>2026-05-03T13:22:51.001Z</time></trkpt><trkpt lat="43.126694910319195" lon="10.629167082924553"><ele>525.0</ele><time>2026-05-03T13:22:53.001Z</time></trkpt><trkpt lat="43.12668822266203" lon="10.629057272441088"><ele>525.0</ele><time>2026-05-03T13:22:55.001Z</time></trkpt><trkpt lat="43.126687642118014" lon="10.628970635408592"><ele>525.0</ele><time>2026-05-03T13:22:57.001Z</time></trkpt><trkpt lat="43.12667960336798" lon="10.628796712505554"><ele>525.0</ele><time>2026-05-03T13:22:59.001Z</time></trkpt><trkpt lat="43.12666597031471" lon="10.62870862847323"><ele>525.0</ele><time>2026-05-03T13:23:00.001Z</time></trkpt><trkpt lat="43.12663386715013" lon="10.628573315457267"><ele>524.6</ele><time>2026-05-03T13:23:02.001Z</time></trkpt><trkpt lat="43.12662239993404" lon="10.628433440732952"><ele>524.2</ele><time>2026-05-03T13:23:04.001Z</time></trkpt><trkpt lat="43.126593208981" lon="10.62830904977918"><ele>523.8</ele><time>2026-05-03T13:23:06.001Z</time></trkpt><trkpt lat="43.1265377606095" lon="10.628205428680529"><ele>523.4</ele><time>2026-05-03T13:23:08.001Z</time></trkpt><trkpt lat="43.12650254324055" lon="10.628123754465879"><ele>523.0</ele><time>2026-05-03T13:23:09.001Z</time></trkpt><trkpt lat="43.126443982010265" lon="10.628010648257895"><ele>522.6666666666667</ele><time>2026-05-03T13:23:11.001Z</time></trkpt><trkpt lat="43.12640483895982" lon="10.627940360447543"><ele>522.3333333333334</ele><time>2026-05-03T13:23:12.001Z</time></trkpt><trkpt lat="43.12634781889254" lon="10.627881256154195"><ele>522.0</ele><time>2026-05-03T13:23:13.001Z</time></trkpt><trkpt lat="43.12627907941304" lon="10.627789116718034"><ele>521.6666666666666</ele><time>2026-05-03T13:23:15.001Z</time></trkpt><trkpt lat="43.1262274540183" lon="10.627725251795756"><ele>521.3333333333333</ele><time>2026-05-03T13:23:17.001Z</time></trkpt><trkpt lat="43.12614955107996" lon="10.627636457878204"><ele>521.0</ele><time>2026-05-03T13:23:19.001Z</time></trkpt><trkpt lat="43.12608651188636" lon="10.627543037596537"><ele>520.4285714285714</ele><time>2026-05-03T13:23:21.001Z</time></trkpt><trkpt lat="43.126047009749996" lon="10.627472531327"><ele>519.8571428571429</ele><time>2026-05-03T13:23:24.001Z</time></trkpt><trkpt lat="43.126003129477105" lon="10.627406215002061"><ele>519.2857142857143</ele><time>2026-05-03T13:23:26.001Z</time></trkpt><trkpt lat="43.1259590265971" lon="10.627304395639378"><ele>518.7142857142858</ele><time>2026-05-03T13:23:28.001Z</time></trkpt><trkpt lat="43.12591288708423" lon="10.627215787732728"><ele>518.1428571428572</ele><time>2026-05-03T13:23:30Z</time></trkpt><trkpt lat="43.1258416131594" lon="10.627146334717061"><ele>517.5714285714286</ele><time>2026-05-03T13:23:32Z</time></trkpt><trkpt lat="43.12584889114096" lon="10.627059748065852"><ele>517.0</ele><time>2026-05-03T13:23:45Z</time></trkpt><trkpt lat="43.12581262338479" lon="10.62692721437885"><ele>515.4</ele><time>2026-05-03T13:23:47Z</time></trkpt><trkpt lat="43.12574466576191" lon="10.626806025969262"><ele>513.8000000000001</ele><time>2026-05-03T13:23:49Z</time></trkpt><trkpt lat="43.12566417817812" lon="10.626674330704281"><ele>512.2</ele><time>2026-05-03T13:23:51Z</time></trkpt><trkpt lat="43.12559764597015" lon="10.626596063369323"><ele>510.6</ele><time>2026-05-03T13:23:52Z</time></trkpt><trkpt lat="43.125547674388415" lon="10.626524085216666"><ele>509.0</ele><time>2026-05-03T13:23:53Z</time></trkpt><trkpt lat="43.1254950883079" lon="10.62637906574568"><ele>507.66666666666663</ele><time>2026-05-03T13:23:55Z</time></trkpt><trkpt lat="43.12546770190466" lon="10.626291658442007"><ele>506.3333333333333</ele><time>2026-05-03T13:23:56Z</time></trkpt><trkpt lat="43.12543014768516" lon="10.626103275657352"><ele>505.0</ele><time>2026-05-03T13:23:58Z</time></trkpt><trkpt lat="43.12540627024617" lon="10.625996276466752"><ele>503.66666666666663</ele><time>2026-05-03T13:23:59Z</time></trkpt><trkpt lat="43.12537800187812" lon="10.625904736393247"><ele>502.3333333333333</ele><time>2026-05-03T13:24:00Z</time></trkpt><trkpt lat="43.12534976882887" lon="10.625797673084682"><ele>501.0</ele><time>2026-05-03T13:24:01Z</time></trkpt><trkpt lat="43.125314646749814" lon="10.625657491396895"><ele>501.0</ele><time>2026-05-03T13:24:03Z</time></trkpt><trkpt lat="43.125330767534784" lon="10.62555928739907"><ele>501.0</ele><time>2026-05-03T13:24:06Z</time></trkpt><trkpt lat="43.12531810569413" lon="10.625420662865467"><ele>501.0</ele><time>2026-05-03T13:24:13Z</time></trkpt><trkpt lat="43.12531700373823" lon="10.625250285724531"><ele>501.0</ele><time>2026-05-03T13:24:15Z</time></trkpt><trkpt lat="43.125334326728364" lon="10.625167125459672"><ele>501.0</ele><time>2026-05-03T13:24:17Z</time></trkpt><trkpt lat="43.12537482122617" lon="10.62506619252345"><ele>501.0</ele><time>2026-05-03T13:24:19Z</time></trkpt><trkpt lat="43.12542277098652" lon="10.625001394094484"><ele>501.0</ele><time>2026-05-03T13:24:20Z</time></trkpt><trkpt lat="43.12549296096067" lon="10.624873056375874"><ele>501.0</ele><time>2026-05-03T13:24:22Z</time></trkpt><trkpt lat="43.12552567217562" lon="10.624782510829947"><ele>501.0</ele><time>2026-05-03T13:24:24Z</time></trkpt><trkpt lat="43.1255682614173" lon="10.624675734725395"><ele>501.0</ele><time>2026-05-03T13:24:26Z</time></trkpt><trkpt lat="43.12560274147943" lon="10.624581488607436"><ele>501.0</ele><time>2026-05-03T13:24:28Z</time></trkpt><trkpt lat="43.125606934603105" lon="10.624438393221258"><ele>502.1666666666667</ele><time>2026-05-03T13:24:31Z</time></trkpt><trkpt lat="43.125614795233886" lon="10.624349344289831"><ele>503.33333333333337</ele><time>2026-05-03T13:24:32Z</time></trkpt><trkpt lat="43.12562721005249" lon="10.62419306746795"><ele>504.5</ele><time>2026-05-03T13:24:34Z</time></trkpt><trkpt lat="43.125622104802886" lon="10.624032404509757"><ele>505.6666666666667</ele><time>2026-05-03T13:24:36Z</time></trkpt><trkpt lat="43.125637224103095" lon="10.623941435443852"><ele>506.83333333333337</ele><time>2026-05-03T13:24:37Z</time></trkpt><trkpt lat="43.12563709014957" lon="10.623837523782576"><ele>508.0</ele><time>2026-05-03T13:24:38Z</time></trkpt><trkpt lat="43.12563896542695" lon="10.623735199815453"><ele>508.2</ele><time>2026-05-03T13:24:39Z</time></trkpt><trkpt lat="43.125643292737585" lon="10.623576778522732"><ele>508.4</ele><time>2026-05-03T13:24:41Z</time></trkpt><trkpt lat="43.12567741203254" lon="10.623437086915981"><ele>508.59999999999997</ele><time>2026-05-03T13:24:43Z</time></trkpt><trkpt lat="43.12572429399229" lon="10.623290808731134"><ele>508.79999999999995</ele><time>2026-05-03T13:24:45Z</time></trkpt><trkpt lat="43.12575765887501" lon="10.623170514375685"><ele>509.0</ele><time>2026-05-03T13:24:47Z</time></trkpt><trkpt lat="43.125770483466546" lon="10.6230743262192"><ele>506.71428571428567</ele><time>2026-05-03T13:24:49Z</time></trkpt><trkpt lat="43.125786529067874" lon="10.622960840939133"><ele>504.42857142857144</ele><time>2026-05-03T13:24:52.001Z</time></trkpt><trkpt lat="43.12581757526499" lon="10.622876620208975"><ele>502.1428571428571</ele><time>2026-05-03T13:24:54Z</time></trkpt><trkpt lat="43.12581148549657" lon="10.622780944821466"><ele>499.85714285714283</ele><time>2026-05-03T13:24:56.001Z</time></trkpt><trkpt lat="43.12583345174504" lon="10.622698686610159"><ele>497.57142857142856</ele><time>2026-05-03T13:24:58.001Z</time></trkpt><trkpt lat="43.12582598730593" lon="10.62260903096832"><ele>495.2857142857143</ele><time>2026-05-03T13:25:01.001Z</time></trkpt><trkpt lat="43.125842498623726" lon="10.622512221256518"><ele>493.0</ele><time>2026-05-03T13:25:04.001Z</time></trkpt><trkpt lat="43.125839245973204" lon="10.622410123487727"><ele>492.1666666666667</ele><time>2026-05-03T13:25:07.001Z</time></trkpt><trkpt lat="43.125833745943325" lon="10.622306023312072"><ele>491.33333333333337</ele><time>2026-05-03T13:25:14.001Z</time></trkpt><trkpt lat="43.12583917488367" lon="10.622195013629009"><ele>490.5</ele><time>2026-05-03T13:25:18.001Z</time></trkpt><trkpt lat="43.12582083674207" lon="10.622103795265367"><ele>489.66666666666663</ele><time>2026-05-03T13:25:20.001Z</time></trkpt><trkpt lat="43.12586486104897" lon="10.62200471849427"><ele>488.8333333333333</ele><time>2026-05-03T13:25:23.001Z</time></trkpt><trkpt lat="43.12587287510053" lon="10.621898612968103"><ele>488.0</ele><time>2026-05-03T13:25:25.001Z</time></trkpt><trkpt lat="43.12588128411274" lon="10.62180169613645"><ele>486.49999999999994</ele><time>2026-05-03T13:25:28.001Z</time></trkpt><trkpt lat="43.1258943357103" lon="10.621689366921736"><ele>485.0</ele><time>2026-05-03T13:25:31.001Z</time></trkpt><trkpt lat="43.12590628117166" lon="10.621562412173308"><ele>483.5</ele><time>2026-05-03T13:25:34.001Z</time></trkpt><trkpt lat="43.125939052771045" lon="10.62144274776225"><ele>482.0</ele><time>2026-05-03T13:25:37Z</time></trkpt><trkpt lat="43.125945561747955" lon="10.621347661224128"><ele>480.49999999999994</ele><time>2026-05-03T13:25:41Z</time></trkpt><trkpt lat="43.126015925166264" lon="10.621320124793323"><ele>479.0</ele><time>2026-05-03T13:25:43Z</time></trkpt><trkpt lat="43.12611585560409" lon="10.621358359775623"><ele>478.99999999999994</ele><time>2026-05-03T13:25:46Z</time></trkpt><trkpt lat="43.12618960929727" lon="10.621401847443284"><ele>479.0</ele><time>2026-05-03T13:25:49Z</time></trkpt><trkpt lat="43.12624697928699" lon="10.621454984160767"><ele>479.0</ele><time>2026-05-03T13:25:53Z</time></trkpt><trkpt lat="43.126313477339764" lon="10.621522912461632"><ele>479.0</ele><time>2026-05-03T13:25:56Z</time></trkpt><trkpt lat="43.12637563786087" lon="10.621614310664397"><ele>478.99999999999994</ele><time>2026-05-03T13:25:59Z</time></trkpt><trkpt lat="43.12643882354071" lon="10.621610066224491"><ele>479.0</ele><time>2026-05-03T13:26:00Z</time></trkpt><trkpt lat="43.12651825701837" lon="10.621658227535024"><ele>478.99999999999994</ele><time>2026-05-03T13:26:01Z</time></trkpt><trkpt lat="43.12654979901461" lon="10.621765364994358"><ele>479.0</ele><time>2026-05-03T13:26:03Z</time></trkpt><trkpt lat="43.12656823264854" lon="10.621893705726524"><ele>479.0</ele><time>2026-05-03T13:26:05Z</time></trkpt><trkpt lat="43.126624945760454" lon="10.621993298253805"><ele>479.0</ele><time>2026-05-03T13:26:07Z</time></trkpt><trkpt lat="43.126665153284904" lon="10.62209345179836"><ele>478.99999999999994</ele><time>2026-05-03T13:26:11Z</time></trkpt><trkpt lat="43.126712546841105" lon="10.622204652455329"><ele>479.0</ele><time>2026-05-03T13:26:13Z</time></trkpt><trkpt lat="43.12674915419731" lon="10.62228274994223"><ele>475.49999999999994</ele><time>2026-05-03T13:26:14Z</time></trkpt><trkpt lat="43.1268110826692" lon="10.622365062998735"><ele>472.0</ele><time>2026-05-03T13:26:16Z</time></trkpt><trkpt lat="43.1268843513545" lon="10.6224494633163"><ele>468.5</ele><time>2026-05-03T13:26:19Z</time></trkpt><trkpt lat="43.1269581675869" lon="10.622507672261582"><ele>465.0</ele><time>2026-05-03T13:26:22Z</time></trkpt><trkpt lat="43.12702182646218" lon="10.622549432087476"><ele>461.49999999999994</ele><time>2026-05-03T13:26:23Z</time></trkpt><trkpt lat="43.127110611724184" lon="10.62260767065297"><ele>458.0</ele><time>2026-05-03T13:26:25Z</time></trkpt><trkpt lat="43.1271717651262" lon="10.62264150295961"><ele>457.99999999999994</ele><time>2026-05-03T13:26:27Z</time></trkpt><trkpt lat="43.127262621261764" lon="10.622686879905842"><ele>458.0</ele><time>2026-05-03T13:26:30Z</time></trkpt><trkpt lat="43.12734390479762" lon="10.622734837223597"><ele>458.0</ele><time>2026-05-03T13:26:32Z</time></trkpt><trkpt lat="43.1274030502509" lon="10.622784642794793"><ele>458.0</ele><time>2026-05-03T13:26:34Z</time></trkpt><trkpt lat="43.12737609056798" lon="10.622874019043346"><ele>457.99999999999994</ele><time>2026-05-03T13:26:39Z</time></trkpt><trkpt lat="43.12733861120813" lon="10.622945571416993"><ele>458.0</ele><time>2026-05-03T13:26:43Z</time></trkpt><trkpt lat="43.12731850898995" lon="10.623077399688352"><ele>457.3333333333333</ele><time>2026-05-03T13:26:47Z</time></trkpt><trkpt lat="43.12733034329291" lon="10.62323760835046"><ele>456.66666666666663</ele><time>2026-05-03T13:26:50Z</time></trkpt><trkpt lat="43.12730562380081" lon="10.623333862268984"><ele>456.0</ele><time>2026-05-03T13:26:52Z</time></trkpt><trkpt lat="43.12725945727278" lon="10.623423812882654"><ele>455.33333333333337</ele><time>2026-05-03T13:26:54Z</time></trkpt><trkpt lat="43.12721633410959" lon="10.623540663116488"><ele>454.6666666666667</ele><time>2026-05-03T13:26:57Z</time></trkpt><trkpt lat="43.12719876095609" lon="10.623640926924775"><ele>454.0</ele><time>2026-05-03T13:26:59Z</time></trkpt><trkpt lat="43.127174276861545" lon="10.623747520225926"><ele>452.79999999999995</ele><time>2026-05-03T13:27:01Z</time></trkpt><trkpt lat="43.12717695648836" lon="10.62384447593944"><ele>451.59999999999997</ele><time>2026-05-03T13:27:03Z</time></trkpt><trkpt lat="43.12718704006413" lon="10.623944562353534"><ele>450.4</ele><time>2026-05-03T13:27:05Z</time></trkpt><trkpt lat="43.1272380900727" lon="10.624026776549648"><ele>449.2</ele><time>2026-05-03T13:27:09.001Z</time></trkpt><trkpt lat="43.12731329571085" lon="10.624039758391444"><ele>448.0</ele><time>2026-05-03T13:27:12.001Z</time></trkpt><trkpt lat="43.12749215558522" lon="10.62408415228647"><ele>445.1666666666667</ele><time>2026-05-03T13:27:15.001Z</time></trkpt><trkpt lat="43.12757796087956" lon="10.624115658666387"><ele>442.33333333333337</ele><time>2026-05-03T13:27:16.001Z</time></trkpt><trkpt lat="43.127637096818574" lon="10.624145639353818"><ele>439.5</ele><time>2026-05-03T13:27:17.001Z</time></trkpt><trkpt lat="43.127713346958416" lon="10.62417511920736"><ele>436.66666666666663</ele><time>2026-05-03T13:27:18.001Z</time></trkpt><trkpt lat="43.12779277696336" lon="10.6242279479007"><ele>433.8333333333333</ele><time>2026-05-03T13:27:19.001Z</time></trkpt><trkpt lat="43.12786301338352" lon="10.62424481182259"><ele>431.0</ele><time>2026-05-03T13:27:20.001Z</time></trkpt><trkpt lat="43.12797334728855" lon="10.624330610047123"><ele>430.99999999999994</ele><time>2026-05-03T13:27:22.001Z</time></trkpt><trkpt lat="43.12803276845958" lon="10.624365061535798"><ele>431.0</ele><time>2026-05-03T13:27:23.001Z</time></trkpt><trkpt lat="43.12810312046891" lon="10.624400715854586"><ele>431.0</ele><time>2026-05-03T13:27:24.001Z</time></trkpt><trkpt lat="43.12819199034288" lon="10.62437718422628"><ele>431.0</ele><time>2026-05-03T13:27:26.001Z</time></trkpt><trkpt lat="43.128273989017586" lon="10.624413182912763"><ele>430.99999999999994</ele><time>2026-05-03T13:27:27.001Z</time></trkpt><trkpt lat="43.1283695108403" lon="10.624489277325907"><ele>431.0</ele><time>2026-05-03T13:27:29.001Z</time></trkpt><trkpt lat="43.128425265058546" lon="10.624585962823067"><ele>432.8</ele><time>2026-05-03T13:27:31.001Z</time></trkpt><trkpt lat="43.12847672859822" lon="10.624742984885337"><ele>434.6</ele><time>2026-05-03T13:27:33.001Z</time></trkpt><trkpt lat="43.12855491945656" lon="10.62481633205485"><ele>436.4</ele><time>2026-05-03T13:27:35.001Z</time></trkpt><trkpt lat="43.128676596854106" lon="10.624778489688344"><ele>438.2</ele><time>2026-05-03T13:27:37.001Z</time></trkpt><trkpt lat="43.12873857373757" lon="10.624740594713227"><ele>440.0</ele><time>2026-05-03T13:27:38.001Z</time></trkpt><trkpt lat="43.1288002337354" lon="10.624717254322846"><ele>440.0</ele><time>2026-05-03T13:27:39.001Z</time></trkpt><trkpt lat="43.1288692749563" lon="10.62476912832704"><ele>440.0</ele><time>2026-05-03T13:27:41Z</time></trkpt><trkpt lat="43.128948943089625" lon="10.624891734543422"><ele>440.0</ele><time>2026-05-03T13:27:43Z</time></trkpt><trkpt lat="43.129001606066936" lon="10.62495927623718"><ele>440.0</ele><time>2026-05-03T13:27:44Z</time></trkpt><trkpt lat="43.129069711527734" lon="10.625023480318387"><ele>440.0</ele><time>2026-05-03T13:27:45Z</time></trkpt><trkpt lat="43.12916923364542" lon="10.625049754449323"><ele>441.2</ele><time>2026-05-03T13:27:46Z</time></trkpt><trkpt lat="43.129289874173686" lon="10.62514801616753"><ele>442.4</ele><time>2026-05-03T13:27:47Z</time></trkpt><trkpt lat="43.12935901068856" lon="10.625216437036356"><ele>443.6</ele><time>2026-05-03T13:27:48Z</time></trkpt><trkpt lat="43.129448887994975" lon="10.625275191289402"><ele>444.8</ele><time>2026-05-03T13:27:49Z</time></trkpt><trkpt lat="43.129519934012805" lon="10.625331008777673"><ele>446.0</ele><time>2026-05-03T13:27:50Z</time></trkpt><trkpt lat="43.12960771802638" lon="10.625370561098514"><ele>446.0</ele><time>2026-05-03T13:27:52Z</time></trkpt><trkpt lat="43.129726160944905" lon="10.62541836031609"><ele>446.0</ele><time>2026-05-03T13:27:54Z</time></trkpt><trkpt lat="43.12978893353655" lon="10.625441647434853"><ele>446.0</ele><time>2026-05-03T13:27:55Z</time></trkpt><trkpt lat="43.129845267708276" lon="10.625501741523843"><ele>446.0</ele><time>2026-05-03T13:27:56Z</time></trkpt><trkpt lat="43.12995446326952" lon="10.625603387087303"><ele>446.0</ele><time>2026-05-03T13:27:58Z</time></trkpt><trkpt lat="43.130005031506464" lon="10.625658173840428"><ele>443.99999999999994</ele><time>2026-05-03T13:27:59Z</time></trkpt><trkpt lat="43.1300481826532" lon="10.62574085863473"><ele>442.0</ele><time>2026-05-03T13:28:00Z</time></trkpt><trkpt lat="43.13014516281548" lon="10.625806906445208"><ele>440.0</ele><time>2026-05-03T13:28:02Z</time></trkpt><trkpt lat="43.13019435619316" lon="10.62592758407752"><ele>438.0</ele><time>2026-05-03T13:28:04Z</time></trkpt><trkpt lat="43.130219460558706" lon="10.626011551656521"><ele>435.99999999999994</ele><time>2026-05-03T13:28:05Z</time></trkpt><trkpt lat="43.13025135164877" lon="10.626127320429504"><ele>434.0</ele><time>2026-05-03T13:28:07Z</time></trkpt><trkpt lat="43.13024186027208" lon="10.626217054034976"><ele>434.0</ele><time>2026-05-03T13:28:09Z</time></trkpt><trkpt lat="43.13022200075979" lon="10.62635958998732"><ele>434.0</ele><time>2026-05-03T13:28:11Z</time></trkpt><trkpt lat="43.13019358303115" lon="10.626448793615404"><ele>434.0</ele><time>2026-05-03T13:28:12Z</time></trkpt><trkpt lat="43.13018185927413" lon="10.626564548716027"><ele>434.0</ele><time>2026-05-03T13:28:14Z</time></trkpt><trkpt lat="43.13020411109248" lon="10.62671952623641"><ele>434.0</ele><time>2026-05-03T13:28:16Z</time></trkpt><trkpt lat="43.13023286204943" lon="10.626827725557385"><ele>433.99999999999994</ele><time>2026-05-03T13:28:18Z</time></trkpt><trkpt lat="43.13030745153184" lon="10.626921851307582"><ele>434.0</ele><time>2026-05-03T13:28:20Z</time></trkpt><trkpt lat="43.13035186272901" lon="10.627015064178806"><ele>434.0</ele><time>2026-05-03T13:28:22Z</time></trkpt><trkpt lat="43.13043361504159" lon="10.626999680769371"><ele>434.0</ele><time>2026-05-03T13:28:24Z</time></trkpt><trkpt lat="43.13048754532558" lon="10.626952468742612"><ele>433.99999999999994</ele><time>2026-05-03T13:28:25Z</time></trkpt><trkpt lat="43.13054884268415" lon="10.626882127109614"><ele>434.0</ele><time>2026-05-03T13:28:26Z</time></trkpt><trkpt lat="43.13060498877413" lon="10.626824217359028"><ele>434.0</ele><time>2026-05-03T13:28:27Z</time></trkpt><trkpt lat="43.130664373015314" lon="10.626701000443404"><ele>434.0</ele><time>2026-05-03T13:28:29Z</time></trkpt><trkpt lat="43.13076253425636" lon="10.626677362022091"><ele>434.0</ele><time>2026-05-03T13:28:31Z</time></trkpt><trkpt lat="43.13086190012594" lon="10.626631600530665"><ele>434.0</ele><time>2026-05-03T13:28:33Z</time></trkpt><trkpt lat="43.13095296069643" lon="10.626598036032773"><ele>434.0</ele><time>2026-05-03T13:28:35Z</time></trkpt><trkpt lat="43.1310205425922" lon="10.626617179612182"><ele>431.3333333333333</ele><time>2026-05-03T13:28:38Z</time></trkpt><trkpt lat="43.13106648333116" lon="10.626545915532404"><ele>428.66666666666663</ele><time>2026-05-03T13:28:40Z</time></trkpt><trkpt lat="43.13111705985523" lon="10.62644222683657"><ele>426.0</ele><time>2026-05-03T13:28:42Z</time></trkpt><trkpt lat="43.13114825239448" lon="10.626361453424671"><ele>423.33333333333337</ele><time>2026-05-03T13:28:43Z</time></trkpt><trkpt lat="43.131171295415584" lon="10.626235571969952"><ele>420.6666666666667</ele><time>2026-05-03T13:28:44Z</time></trkpt><trkpt lat="43.13120988049081" lon="10.626079531943299"><ele>418.0</ele><time>2026-05-03T13:28:46Z</time></trkpt><trkpt lat="43.131244015358355" lon="10.625916828930603"><ele>418.00000000000006</ele><time>2026-05-03T13:28:48Z</time></trkpt><trkpt lat="43.131265307121424" lon="10.625820625353304"><ele>418.0</ele><time>2026-05-03T13:28:49Z</time></trkpt><trkpt lat="43.131310690427966" lon="10.625740719413566"><ele>418.0</ele><time>2026-05-03T13:28:51Z</time></trkpt><trkpt lat="43.13133695790297" lon="10.625599570910712"><ele>418.0</ele><time>2026-05-03T13:28:53Z</time></trkpt><trkpt lat="43.13133655166006" lon="10.625508239662029"><ele>418.00000000000006</ele><time>2026-05-03T13:28:56Z</time></trkpt><trkpt lat="43.13136663298115" lon="10.625399966896982"><ele>418.0</ele><time>2026-05-03T13:28:59Z</time></trkpt><trkpt lat="43.131354330459814" lon="10.625297930575728"><ele>417.1666666666667</ele><time>2026-05-03T13:29:00Z</time></trkpt><trkpt lat="43.131370735483046" lon="10.625144870192697"><ele>416.33333333333337</ele><time>2026-05-03T13:29:01Z</time></trkpt><trkpt lat="43.13138246932083" lon="10.625036544828369"><ele>415.5</ele><time>2026-05-03T13:29:02Z</time></trkpt><trkpt lat="43.131385437874236" lon="10.624915268857404"><ele>414.66666666666663</ele><time>2026-05-03T13:29:03Z</time></trkpt><trkpt lat="43.131389623679205" lon="10.624810971584374"><ele>413.8333333333333</ele><time>2026-05-03T13:29:04Z</time></trkpt><trkpt lat="43.13142541934757" lon="10.62470915435326"><ele>413.0</ele><time>2026-05-03T13:29:05Z</time></trkpt><trkpt lat="43.13146191082514" lon="10.62461705827935"><ele>413.0</ele><time>2026-05-03T13:29:06Z</time></trkpt><trkpt lat="43.13153894549467" lon="10.624530697917397"><ele>413.0</ele><time>2026-05-03T13:29:08Z</time></trkpt><trkpt lat="43.131583489852225" lon="10.624412928214896"><ele>413.0</ele><time>2026-05-03T13:29:10Z</time></trkpt><trkpt lat="43.13159409867157" lon="10.624308178884073"><ele>413.0</ele><time>2026-05-03T13:29:13.001Z</time></trkpt><trkpt lat="43.131617957076244" lon="10.624203063758465"><ele>413.0</ele><time>2026-05-03T13:29:15.001Z</time></trkpt><trkpt lat="43.13167091872588" lon="10.624086960058342"><ele>409.3333333333333</ele><time>2026-05-03T13:29:18.001Z</time></trkpt><trkpt lat="43.131690020415604" lon="10.623982661034981"><ele>405.66666666666663</ele><time>2026-05-03T13:29:20.001Z</time></trkpt><trkpt lat="43.13171831025802" lon="10.623840105058692"><ele>402.0</ele><time>2026-05-03T13:29:22.001Z</time></trkpt><trkpt lat="43.13175007160931" lon="10.623760876209966"><ele>398.33333333333337</ele><time>2026-05-03T13:29:23.001Z</time></trkpt><trkpt lat="43.13177275049563" lon="10.623676258385688"><ele>394.6666666666667</ele><time>2026-05-03T13:29:24.001Z</time></trkpt><trkpt lat="43.1317556094713" lon="10.623532068064318"><ele>391.0</ele><time>2026-05-03T13:29:26.001Z</time></trkpt><trkpt lat="43.131751015913096" lon="10.623409264704003"><ele>389.4</ele><time>2026-05-03T13:29:28.001Z</time></trkpt><trkpt lat="43.131771232348285" lon="10.623268397454137"><ele>387.8</ele><time>2026-05-03T13:29:30.001Z</time></trkpt><trkpt lat="43.13180544818633" lon="10.623144525259656"><ele>386.2</ele><time>2026-05-03T13:29:32.001Z</time></trkpt><trkpt lat="43.13187139302222" lon="10.622999413066816"><ele>384.59999999999997</ele><time>2026-05-03T13:29:34.001Z</time></trkpt><trkpt lat="43.131912808875754" lon="10.622924357444312"><ele>383.0</ele><time>2026-05-03T13:29:35.001Z</time></trkpt><trkpt lat="43.13200759088974" lon="10.622851464958302"><ele>381.33333333333337</ele><time>2026-05-03T13:29:37.001Z</time></trkpt><trkpt lat="43.132077552278744" lon="10.622778476482841"><ele>379.6666666666667</ele><time>2026-05-03T13:29:39.001Z</time></trkpt><trkpt lat="43.13213345216341" lon="10.62266660723909"><ele>378.0</ele><time>2026-05-03T13:29:41.001Z</time></trkpt><trkpt lat="43.13218715301595" lon="10.62253175951592"><ele>376.3333333333333</ele><time>2026-05-03T13:29:44.001Z</time></trkpt><trkpt lat="43.13222221659562" lon="10.622457091144955"><ele>374.66666666666663</ele><time>2026-05-03T13:29:47Z</time></trkpt><trkpt lat="43.13223128430594" lon="10.622358275145551"><ele>373.0</ele><time>2026-05-03T13:29:49Z</time></trkpt><trkpt lat="43.132295230714206" lon="10.622265874703523"><ele>373.0</ele><time>2026-05-03T13:29:52Z</time></trkpt><trkpt lat="43.13235310111349" lon="10.622205778614173"><ele>373.0</ele><time>2026-05-03T13:29:53Z</time></trkpt><trkpt lat="43.1324096281603" lon="10.622150457995685"><ele>373.0</ele><time>2026-05-03T13:29:54Z</time></trkpt><trkpt lat="43.132468079539976" lon="10.622111338731987"><ele>373.0</ele><time>2026-05-03T13:29:56Z</time></trkpt><trkpt lat="43.1325222878305" lon="10.622027748354787"><ele>373.0</ele><time>2026-05-03T13:29:59Z</time></trkpt><trkpt lat="43.132576765617145" lon="10.621984471799475"><ele>373.0</ele><time>2026-05-03T13:30:02Z</time></trkpt><trkpt lat="43.13286632803048" lon="10.62180020956152"><ele>369.79999999999995</ele><time>2026-05-03T13:30:05Z</time></trkpt><trkpt lat="43.132929578171144" lon="10.62174743459908"><ele>366.6</ele><time>2026-05-03T13:30:06Z</time></trkpt><trkpt lat="43.13303478490038" lon="10.621694189591642"><ele>363.4</ele><time>2026-05-03T13:30:08Z</time></trkpt><trkpt lat="43.13309682148025" lon="10.62158731362787"><ele>360.20000000000005</ele><time>2026-05-03T13:30:10Z</time></trkpt><trkpt lat="43.133180611191" lon="10.621516990266525"><ele>357.0</ele><time>2026-05-03T13:30:12Z</time></trkpt><trkpt lat="43.133225186121635" lon="10.621445207172712"><ele>354.20000000000005</ele><time>2026-05-03T13:30:13Z</time></trkpt><trkpt lat="43.13327565399266" lon="10.621338530442934"><ele>351.4</ele><time>2026-05-03T13:30:15Z</time></trkpt><trkpt lat="43.13326762857992" lon="10.62124250240156"><ele>348.6</ele><time>2026-05-03T13:30:16Z</time></trkpt><trkpt lat="43.13324819247824" lon="10.621155332862056"><ele>345.79999999999995</ele><time>2026-05-03T13:30:17Z</time></trkpt><trkpt lat="43.13326300624359" lon="10.621022407364338"><ele>343.0</ele><time>2026-05-03T13:30:19Z</time></trkpt><trkpt lat="43.13325516475505" lon="10.620847629770624"><ele>342.25</ele><time>2026-05-03T13:30:21Z</time></trkpt><trkpt lat="43.13326753107504" lon="10.62070228315702"><ele>341.5</ele><time>2026-05-03T13:30:22Z</time></trkpt><trkpt lat="43.133339667534905" lon="10.620777374138205"><ele>340.75</ele><time>2026-05-03T13:30:27Z</time></trkpt><trkpt lat="43.1332633228849" lon="10.620854900273088"><ele>340.0</ele><time>2026-05-03T13:30:29Z</time></trkpt><trkpt lat="43.13341117990102" lon="10.620972682275433"><ele>340.0</ele><time>2026-05-03T13:30:30Z</time></trkpt><trkpt lat="43.133461113474645" lon="10.621038533728075"><ele>340.0</ele><time>2026-05-03T13:30:31Z</time></trkpt><trkpt lat="43.1335389143288" lon="10.62112637096614"><ele>340.0</ele><time>2026-05-03T13:30:33Z</time></trkpt><trkpt lat="43.13359112825958" lon="10.62128860175976"><ele>340.0</ele><time>2026-05-03T13:30:35Z</time></trkpt><trkpt lat="43.13354910982288" lon="10.621464157313659"><ele>340.0</ele><time>2026-05-03T13:30:37Z</time></trkpt><trkpt lat="43.13349041437471" lon="10.621553960370715"><ele>340.4</ele><time>2026-05-03T13:30:38Z</time></trkpt><trkpt lat="43.13346733585659" lon="10.621652450244039"><ele>340.8</ele><time>2026-05-03T13:30:39Z</time></trkpt><trkpt lat="43.133431776622565" lon="10.62175838073665"><ele>341.20000000000005</ele><time>2026-05-03T13:30:40Z</time></trkpt><trkpt lat="43.13338975548842" lon="10.621847521445712"><ele>341.6</ele><time>2026-05-03T13:30:41Z</time></trkpt><trkpt lat="43.13332655734304" lon="10.621983740679973"><ele>342.0</ele><time>2026-05-03T13:30:43Z</time></trkpt><trkpt lat="43.13322214230911" lon="10.622111510656467"><ele>342.0</ele><time>2026-05-03T13:30:45Z</time></trkpt><trkpt lat="43.13319169499105" lon="10.622233121527184"><ele>342.0</ele><time>2026-05-03T13:30:47Z</time></trkpt><trkpt lat="43.133273659777316" lon="10.622304262179739"><ele>342.0</ele><time>2026-05-03T13:30:48Z</time></trkpt><trkpt lat="43.133298247067785" lon="10.62238824286702"><ele>342.0</ele><time>2026-05-03T13:30:49Z</time></trkpt><trkpt lat="43.13332844931105" lon="10.622465178662207"><ele>342.0</ele><time>2026-05-03T13:30:50Z</time></trkpt><trkpt lat="43.133266991790606" lon="10.62261319071217"><ele>342.0</ele><time>2026-05-03T13:30:52Z</time></trkpt><trkpt lat="43.1332513850753" lon="10.622728061044743"><ele>341.1666666666667</ele><time>2026-05-03T13:30:53Z</time></trkpt><trkpt lat="43.13323263774808" lon="10.622850276054466"><ele>340.3333333333333</ele><time>2026-05-03T13:30:54Z</time></trkpt><trkpt lat="43.13321218189607" lon="10.622933185015773"><ele>339.5</ele><time>2026-05-03T13:30:55Z</time></trkpt><trkpt lat="43.13314474356551" lon="10.6230584441503"><ele>338.66666666666663</ele><time>2026-05-03T13:30:57Z</time></trkpt><trkpt lat="43.13310533963434" lon="10.623135696914218"><ele>337.8333333333333</ele><time>2026-05-03T13:30:58Z</time></trkpt><trkpt lat="43.133060627387195" lon="10.623223356779041"><ele>337.0</ele><time>2026-05-03T13:30:59Z</time></trkpt><trkpt lat="43.13300010393931" lon="10.623347213267198"><ele>341.0</ele><time>2026-05-03T13:31:01Z</time></trkpt><trkpt lat="43.132965205530645" lon="10.62342764409595"><ele>345.0</ele><time>2026-05-03T13:31:03.001Z</time></trkpt><trkpt lat="43.13293953697061" lon="10.623507607575638"><ele>349.0</ele><time>2026-05-03T13:31:05.001Z</time></trkpt><trkpt lat="43.132886856877434" lon="10.623679349082991"><ele>353.0</ele><time>2026-05-03T13:31:07.001Z</time></trkpt><trkpt lat="43.132861648089765" lon="10.623783029254424"><ele>357.0</ele><time>2026-05-03T13:31:08.001Z</time></trkpt><trkpt lat="43.13284331150452" lon="10.623911700186104"><ele>361.0</ele><time>2026-05-03T13:31:09.001Z</time></trkpt><trkpt lat="43.132829753749185" lon="10.624035066550665"><ele>361.6</ele><time>2026-05-03T13:31:10.001Z</time></trkpt><trkpt lat="43.13281975905714" lon="10.62416265540849"><ele>362.20000000000005</ele><time>2026-05-03T13:31:11.001Z</time></trkpt><trkpt lat="43.132816797917144" lon="10.624303192273572"><ele>362.79999999999995</ele><time>2026-05-03T13:31:12.001Z</time></trkpt><trkpt lat="43.13282057385658" lon="10.62440834599898"><ele>363.4</ele><time>2026-05-03T13:31:13.001Z</time></trkpt><trkpt lat="43.132852398241965" lon="10.624576863497339"><ele>364.0</ele><time>2026-05-03T13:31:15.001Z</time></trkpt><trkpt lat="43.132919530468016" lon="10.624663227697011"><ele>364.66666666666663</ele><time>2026-05-03T13:31:16.001Z</time></trkpt><trkpt lat="43.13298072088668" lon="10.62473988280019"><ele>365.3333333333333</ele><time>2026-05-03T13:31:17.001Z</time></trkpt><trkpt lat="43.13301707269471" lon="10.62481567413436"><ele>366.0</ele><time>2026-05-03T13:31:18.001Z</time></trkpt><trkpt lat="43.13304927390214" lon="10.624909457170011"><ele>366.6666666666667</ele><time>2026-05-03T13:31:19.001Z</time></trkpt><trkpt lat="43.1330817304239" lon="10.625020098885438"><ele>367.33333333333337</ele><time>2026-05-03T13:31:20.001Z</time></trkpt><trkpt lat="43.133096306319025" lon="10.625148456389269"><ele>368.0</ele><time>2026-05-03T13:31:21.001Z</time></trkpt><trkpt lat="43.133140033224635" lon="10.625255204896673"><ele>368.79999999999995</ele><time>2026-05-03T13:31:22.001Z</time></trkpt><trkpt lat="43.13317659140884" lon="10.625365235554305"><ele>369.6</ele><time>2026-05-03T13:31:23.001Z</time></trkpt><trkpt lat="43.133211550838624" lon="10.625459402587342"><ele>370.4</ele><time>2026-05-03T13:31:24.001Z</time></trkpt><trkpt lat="43.133270449487945" lon="10.625615934661512"><ele>371.20000000000005</ele><time>2026-05-03T13:31:26.001Z</time></trkpt><trkpt lat="43.13332462761464" lon="10.625743896442817"><ele>372.0</ele><time>2026-05-03T13:31:28.001Z</time></trkpt><trkpt lat="43.13338717356935" lon="10.625804495181344"><ele>369.5</ele><time>2026-05-03T13:31:30.001Z</time></trkpt><trkpt lat="43.13345102636513" lon="10.625916433638732"><ele>367.0</ele><time>2026-05-03T13:31:32.001Z</time></trkpt><trkpt lat="43.13346233726419" lon="10.62600701128466"><ele>364.5</ele><time>2026-05-03T13:31:33.001Z</time></trkpt><trkpt lat="43.133513581813276" lon="10.626067335718098"><ele>362.0</ele><time>2026-05-03T13:31:34.001Z</time></trkpt><trkpt lat="43.13360935977825" lon="10.626182420886694"><ele>359.5</ele><time>2026-05-03T13:31:36.001Z</time></trkpt><trkpt lat="43.133657443786966" lon="10.626251869653078"><ele>357.0</ele><time>2026-05-03T13:31:37.001Z</time></trkpt><trkpt lat="43.13374977210195" lon="10.626360997271618"><ele>357.0</ele><time>2026-05-03T13:31:39.001Z</time></trkpt><trkpt lat="43.13376098317235" lon="10.626469971998123"><ele>357.0</ele><time>2026-05-03T13:31:49.001Z</time></trkpt><trkpt lat="43.133744491439074" lon="10.626578080946372"><ele>357.0</ele><time>2026-05-03T13:31:51.001Z</time></trkpt><trkpt lat="43.13372028191784" lon="10.626672595567141"><ele>357.0</ele><time>2026-05-03T13:31:52.001Z</time></trkpt><trkpt lat="43.13369393882941" lon="10.626798577310808"><ele>357.0</ele><time>2026-05-03T13:31:53Z</time></trkpt><trkpt lat="43.13366102608638" lon="10.626906089404589"><ele>357.0</ele><time>2026-05-03T13:31:54Z</time></trkpt><trkpt lat="43.133639858619674" lon="10.626991152677794"><ele>359.20000000000005</ele><time>2026-05-03T13:31:55Z</time></trkpt><trkpt lat="43.13364578351012" lon="10.627167844593275"><ele>361.4</ele><time>2026-05-03T13:31:57Z</time></trkpt><trkpt lat="43.13366180608374" lon="10.627286358836558"><ele>363.6</ele><time>2026-05-03T13:31:58Z</time></trkpt><trkpt lat="43.13368999710847" lon="10.627389349882241"><ele>365.79999999999995</ele><time>2026-05-03T13:31:59Z</time></trkpt><trkpt lat="43.133726673975374" lon="10.62748905581044"><ele>368.0</ele><time>2026-05-03T13:32:00Z</time></trkpt><trkpt lat="43.133753669613284" lon="10.627581131196981"><ele>368.0</ele><time>2026-05-03T13:32:01Z</time></trkpt><trkpt lat="43.13379787154746" lon="10.627671291526765"><ele>368.0</ele><time>2026-05-03T13:32:02Z</time></trkpt><trkpt lat="43.13384898360554" lon="10.627766839762607"><ele>368.0</ele><time>2026-05-03T13:32:03Z</time></trkpt><trkpt lat="43.13390998686094" lon="10.627842716651529"><ele>368.0</ele><time>2026-05-03T13:32:04Z</time></trkpt><trkpt lat="43.13396404302748" lon="10.627910667395037"><ele>368.0</ele><time>2026-05-03T13:32:05Z</time></trkpt><trkpt lat="43.13406509485034" lon="10.628030680843786"><ele>365.33333333333337</ele><time>2026-05-03T13:32:07Z</time></trkpt><trkpt lat="43.13411434361664" lon="10.628084835817926"><ele>362.6666666666667</ele><time>2026-05-03T13:32:08Z</time></trkpt><trkpt lat="43.1341630775267" lon="10.628168097916133"><ele>360.0</ele><time>2026-05-03T13:32:09Z</time></trkpt><trkpt lat="43.13422241830653" lon="10.628223978141676"><ele>357.3333333333333</ele><time>2026-05-03T13:32:10Z</time></trkpt><trkpt lat="43.134317917004076" lon="10.628305344356589"><ele>354.66666666666663</ele><time>2026-05-03T13:32:12Z</time></trkpt><trkpt lat="43.13439207185648" lon="10.628353467072191"><ele>352.0</ele><time>2026-05-03T13:32:14Z</time></trkpt><trkpt lat="43.134502320173524" lon="10.628391888499477"><ele>352.0</ele><time>2026-05-03T13:32:16Z</time></trkpt><trkpt lat="43.13455963111454" lon="10.62843678835462"><ele>352.0</ele><time>2026-05-03T13:32:17Z</time></trkpt><trkpt lat="43.13468369015298" lon="10.628507410840369"><ele>352.0</ele><time>2026-05-03T13:32:19Z</time></trkpt><trkpt lat="43.13474296489179" lon="10.628541154082829"><ele>352.0</ele><time>2026-05-03T13:32:20Z</time></trkpt><trkpt lat="43.1348034266506" lon="10.628575573162014"><ele>352.0</ele><time>2026-05-03T13:32:21Z</time></trkpt><trkpt lat="43.13489448607724" lon="10.628633387436293"><ele>352.0</ele><time>2026-05-03T13:32:22Z</time></trkpt><trkpt lat="43.134960933396314" lon="10.628683175402175"><ele>355.20000000000005</ele><time>2026-05-03T13:32:23Z</time></trkpt><trkpt lat="43.13503634766577" lon="10.62870478827774"><ele>358.4</ele><time>2026-05-03T13:32:24Z</time></trkpt><trkpt lat="43.135123206781174" lon="10.62874778502567"><ele>361.6</ele><time>2026-05-03T13:32:25Z</time></trkpt><trkpt lat="43.135235054560525" lon="10.628820722247823"><ele>364.79999999999995</ele><time>2026-05-03T13:32:26Z</time></trkpt><trkpt lat="43.13533672496494" lon="10.628885247879387"><ele>368.0</ele><time>2026-05-03T13:32:27Z</time></trkpt><trkpt lat="43.135466385719894" lon="10.628946472376182"><ele>368.0</ele><time>2026-05-03T13:32:28Z</time></trkpt><trkpt lat="43.1356006304408" lon="10.628986193495042"><ele>368.0</ele><time>2026-05-03T13:32:29Z</time></trkpt><trkpt lat="43.13569924988578" lon="10.62904872787357"><ele>368.0</ele><time>2026-05-03T13:32:30Z</time></trkpt><trkpt lat="43.135787112672304" lon="10.629089921053298"><ele>368.0</ele><time>2026-05-03T13:32:31Z</time></trkpt><trkpt lat="43.13588024062334" lon="10.629133582718472"><ele>368.0</ele><time>2026-05-03T13:32:32Z</time></trkpt><trkpt lat="43.13598567468476" lon="10.62915999052114"><ele>365.59999999999997</ele><time>2026-05-03T13:32:33Z</time></trkpt><trkpt lat="43.136070382521154" lon="10.62920770682136"><ele>363.2</ele><time>2026-05-03T13:32:34Z</time></trkpt><trkpt lat="43.136164827285924" lon="10.629260701569107"><ele>360.8</ele><time>2026-05-03T13:32:35Z</time></trkpt><trkpt lat="43.13626092278289" lon="10.629304520954712"><ele>358.4</ele><time>2026-05-03T13:32:36Z</time></trkpt><trkpt lat="43.136370204316414" lon="10.629335776145462"><ele>356.0</ele><time>2026-05-03T13:32:37Z</time></trkpt><trkpt lat="43.136479020790986" lon="10.629339984166537"><ele>354.8</ele><time>2026-05-03T13:32:38Z</time></trkpt><trkpt lat="43.13657295387276" lon="10.629337711381195"><ele>353.6</ele><time>2026-05-03T13:32:39Z</time></trkpt><trkpt lat="43.13664886033565" lon="10.629322528381884"><ele>352.4</ele><time>2026-05-03T13:32:40Z</time></trkpt><trkpt lat="43.136738194886135" lon="10.629322673900582"><ele>351.2</ele><time>2026-05-03T13:32:42Z</time></trkpt><trkpt lat="43.136873154595186" lon="10.629327899401178"><ele>350.0</ele><time>2026-05-03T13:32:44Z</time></trkpt><trkpt lat="43.136941184960904" lon="10.629332382385812"><ele>350.0</ele><time>2026-05-03T13:32:45Z</time></trkpt><trkpt lat="43.13706261106595" lon="10.629360249809057"><ele>350.0</ele><time>2026-05-03T13:32:47Z</time></trkpt><trkpt lat="43.13715712447955" lon="10.629399406654759"><ele>350.0</ele><time>2026-05-03T13:32:49Z</time></trkpt><trkpt lat="43.13722185736255" lon="10.62944425939811"><ele>350.0</ele><time>2026-05-03T13:32:51Z</time></trkpt><trkpt lat="43.13728953477536" lon="10.629516076884226"><ele>350.0</ele><time>2026-05-03T13:32:53Z</time></trkpt><trkpt lat="43.137342478366996" lon="10.629579124515432"><ele>351.1666666666667</ele><time>2026-05-03T13:32:55Z</time></trkpt><trkpt lat="43.13739285607172" lon="10.629643871457352"><ele>352.33333333333337</ele><time>2026-05-03T13:32:57Z</time></trkpt><trkpt lat="43.137461417662806" lon="10.629721425417568"><ele>353.5</ele><time>2026-05-03T13:33:00Z</time></trkpt><trkpt lat="43.137559812509664" lon="10.629809012523376"><ele>354.6666666666667</ele><time>2026-05-03T13:33:02Z</time></trkpt><trkpt lat="43.13763095074684" lon="10.629865753915405"><ele>355.8333333333333</ele><time>2026-05-03T13:33:03Z</time></trkpt><trkpt lat="43.13769638398804" lon="10.629910886303515"><ele>357.0</ele><time>2026-05-03T13:33:04Z</time></trkpt><trkpt lat="43.13777509165607" lon="10.629953555601025"><ele>357.0</ele><time>2026-05-03T13:33:05Z</time></trkpt><trkpt lat="43.13783817233659" lon="10.629984822996285"><ele>357.0</ele><time>2026-05-03T13:33:06Z</time></trkpt><trkpt lat="43.1379248495572" lon="10.629985541020517"><ele>357.0</ele><time>2026-05-03T13:33:07Z</time></trkpt><trkpt lat="43.1379884172826" lon="10.630007154127428"><ele>357.0</ele><time>2026-05-03T13:33:08Z</time></trkpt><trkpt lat="43.13805511148007" lon="10.630002764238203"><ele>357.0</ele><time>2026-05-03T13:33:09Z</time></trkpt><trkpt lat="43.13811368738644" lon="10.629963387851845"><ele>357.0</ele><time>2026-05-03T13:33:10Z</time></trkpt><trkpt lat="43.13820764310927" lon="10.629870592119447"><ele>355.0</ele><time>2026-05-03T13:33:12Z</time></trkpt><trkpt lat="43.13824651526382" lon="10.62979537181992"><ele>353.0</ele><time>2026-05-03T13:33:13Z</time></trkpt><trkpt lat="43.13830000673323" lon="10.629677265301318"><ele>351.0</ele><time>2026-05-03T13:33:14.001Z</time></trkpt><trkpt lat="43.138352099688646" lon="10.629593812211205"><ele>349.0</ele><time>2026-05-03T13:33:15.001Z</time></trkpt><trkpt lat="43.138397062072464" lon="10.629518102303418"><ele>347.0</ele><time>2026-05-03T13:33:16.001Z</time></trkpt><trkpt lat="43.138429356942474" lon="10.629437850976972"><ele>345.0</ele><time>2026-05-03T13:33:17.001Z</time></trkpt><trkpt lat="43.13849957805913" lon="10.629302005094411"><ele>342.2</ele><time>2026-05-03T13:33:19.001Z</time></trkpt><trkpt lat="43.13853639047372" lon="10.629151117105907"><ele>339.4</ele><time>2026-05-03T13:33:21.001Z</time></trkpt><trkpt lat="43.13858748661563" lon="10.62901476685411"><ele>336.6</ele><time>2026-05-03T13:33:23.001Z</time></trkpt><trkpt lat="43.13866254670658" lon="10.628888348000096"><ele>333.8</ele><time>2026-05-03T13:33:25.001Z</time></trkpt><trkpt lat="43.13871072340042" lon="10.62881648462453"><ele>331.0</ele><time>2026-05-03T13:33:26.001Z</time></trkpt><trkpt lat="43.13879287105592" lon="10.628713992985945"><ele>331.0</ele><time>2026-05-03T13:33:28.001Z</time></trkpt><trkpt lat="43.13886002409388" lon="10.628651312855606"><ele>331.0</ele><time>2026-05-03T13:33:29.001Z</time></trkpt><trkpt lat="43.138922199266105" lon="10.628607199620337"><ele>331.0</ele><time>2026-05-03T13:33:30.001Z</time></trkpt><trkpt lat="43.13898697684911" lon="10.628575344308459"><ele>331.0</ele><time>2026-05-03T13:33:31.001Z</time></trkpt><trkpt lat="43.13907331627694" lon="10.628546792862563"><ele>331.0</ele><time>2026-05-03T13:33:32.001Z</time></trkpt><trkpt lat="43.13913739598349" lon="10.628545292847745"><ele>331.0</ele><time>2026-05-03T13:33:33.001Z</time></trkpt><trkpt lat="43.13920136345159" lon="10.628542116826603"><ele>331.0</ele><time>2026-05-03T13:33:34.001Z</time></trkpt><trkpt lat="43.139297331495136" lon="10.628549137142203"><ele>330.0</ele><time>2026-05-03T13:33:36.001Z</time></trkpt><trkpt lat="43.13933673281755" lon="10.628472938374689"><ele>329.0</ele><time>2026-05-03T13:33:37.001Z</time></trkpt><trkpt lat="43.139374264740674" lon="10.628616881932274"><ele>328.0</ele><time>2026-05-03T13:33:39.001Z</time></trkpt><trkpt lat="43.13942187076893" lon="10.6286864174665"><ele>327.0</ele><time>2026-05-03T13:33:40.001Z</time></trkpt><trkpt lat="43.139484313930275" lon="10.62875462680502"><ele>326.0</ele><time>2026-05-03T13:33:41.001Z</time></trkpt><trkpt lat="43.13955331859741" lon="10.628859291817607"><ele>325.0</ele><time>2026-05-03T13:33:42.001Z</time></trkpt><trkpt lat="43.13960419478781" lon="10.62895876468425"><ele>325.0</ele><time>2026-05-03T13:33:43.001Z</time></trkpt><trkpt lat="43.13965613993316" lon="10.62903449337762"><ele>325.0</ele><time>2026-05-03T13:33:44.001Z</time></trkpt><trkpt lat="43.139712842026135" lon="10.62909537990561"><ele>325.0</ele><time>2026-05-03T13:33:45.001Z</time></trkpt><trkpt lat="43.13976740805733" lon="10.62913974878906"><ele>325.0</ele><time>2026-05-03T13:33:46.001Z</time></trkpt><trkpt lat="43.1398886613854" lon="10.629152337774032"><ele>325.0</ele><time>2026-05-03T13:33:48.001Z</time></trkpt><trkpt lat="43.13994978216281" lon="10.629110400031752"><ele>325.0</ele><time>2026-05-03T13:33:49.001Z</time></trkpt><trkpt lat="43.140007124197005" lon="10.628997365903192"><ele>324.0</ele><time>2026-05-03T13:33:50.001Z</time></trkpt><trkpt lat="43.14004580845926" lon="10.628892679216328"><ele>323.0</ele><time>2026-05-03T13:33:51.001Z</time></trkpt><trkpt lat="43.14009271885687" lon="10.628783031365938"><ele>322.0</ele><time>2026-05-03T13:33:52.001Z</time></trkpt><trkpt lat="43.14014196351938" lon="10.628672820521087"><ele>321.0</ele><time>2026-05-03T13:33:53.001Z</time></trkpt><trkpt lat="43.140168337832556" lon="10.628575372679345"><ele>320.0</ele><time>2026-05-03T13:33:54.001Z</time></trkpt><trkpt lat="43.14021305009736" lon="10.628479302802374"><ele>319.0</ele><time>2026-05-03T13:33:55.001Z</time></trkpt><trkpt lat="43.14025910670376" lon="10.628395636870483"><ele>319.0</ele><time>2026-05-03T13:33:56.001Z</time></trkpt><trkpt lat="43.1403010492066" lon="10.62823293440372"><ele>319.0</ele><time>2026-05-03T13:33:58.001Z</time></trkpt><trkpt lat="43.14037428120317" lon="10.628195337958235"><ele>319.0</ele><time>2026-05-03T13:34:00Z</time></trkpt><trkpt lat="43.14039309598847" lon="10.628307628934184"><ele>319.0</ele><time>2026-05-03T13:34:02Z</time></trkpt><trkpt lat="43.14042882842889" lon="10.628488239993244"><ele>319.0</ele><time>2026-05-03T13:34:04Z</time></trkpt><trkpt lat="43.14046180696385" lon="10.628661129765844"><ele>319.0</ele><time>2026-05-03T13:34:06Z</time></trkpt><trkpt lat="43.14049080638149" lon="10.628751462945008"><ele>319.0</ele><time>2026-05-03T13:34:07Z</time></trkpt><trkpt lat="43.14056920528851" lon="10.628886117013689"><ele>319.0</ele><time>2026-05-03T13:34:09Z</time></trkpt><trkpt lat="43.14067962647323" lon="10.628995315838637"><ele>319.0</ele><time>2026-05-03T13:34:11Z</time></trkpt><trkpt lat="43.140762592749994" lon="10.629032593462282"><ele>319.0</ele><time>2026-05-03T13:34:12Z</time></trkpt><trkpt lat="43.14083868424995" lon="10.629028937825048"><ele>318.0</ele><time>2026-05-03T13:34:13Z</time></trkpt><trkpt lat="43.140912845376356" lon="10.629009667886637"><ele>317.0</ele><time>2026-05-03T13:34:14Z</time></trkpt><trkpt lat="43.14096798897487" lon="10.628904037269345"><ele>316.0</ele><time>2026-05-03T13:34:15Z</time></trkpt><trkpt lat="43.14102454757422" lon="10.628804490860164"><ele>315.0</ele><time>2026-05-03T13:34:16Z</time></trkpt><trkpt lat="43.14107911764976" lon="10.62869953735971"><ele>314.0</ele><time>2026-05-03T13:34:17Z</time></trkpt><trkpt lat="43.14113160518841" lon="10.628609175657942"><ele>313.0</ele><time>2026-05-03T13:34:18Z</time></trkpt><trkpt lat="43.141185550272894" lon="10.628527251378108"><ele>311.66666666666663</ele><time>2026-05-03T13:34:19Z</time></trkpt><trkpt lat="43.14123183385588" lon="10.628466609484594"><ele>310.3333333333333</ele><time>2026-05-03T13:34:20Z</time></trkpt><trkpt lat="43.141325679728126" lon="10.628440871375533"><ele>309.0</ele><time>2026-05-03T13:34:22Z</time></trkpt><trkpt lat="43.14141557849413" lon="10.628468616536729"><ele>307.6666666666667</ele><time>2026-05-03T13:34:24Z</time></trkpt><trkpt lat="43.141483324379514" lon="10.628491655515946"><ele>306.33333333333337</ele><time>2026-05-03T13:34:25Z</time></trkpt><trkpt lat="43.141574651935855" lon="10.628505338331388"><ele>305.0</ele><time>2026-05-03T13:34:26Z</time></trkpt><trkpt lat="43.14166568720413" lon="10.628514638105786"><ele>303.6</ele><time>2026-05-03T13:34:27Z</time></trkpt><trkpt lat="43.14173181315955" lon="10.628522163443622"><ele>302.2</ele><time>2026-05-03T13:34:28Z</time></trkpt><trkpt lat="43.141821972069316" lon="10.628519097391592"><ele>300.8</ele><time>2026-05-03T13:34:29Z</time></trkpt><trkpt lat="43.14192705396742" lon="10.62848895520065"><ele>299.4</ele><time>2026-05-03T13:34:30Z</time></trkpt><trkpt lat="43.14202535427188" lon="10.62842542768854"><ele>298.0</ele><time>2026-05-03T13:34:31Z</time></trkpt><trkpt lat="43.142115715039544" lon="10.628323055244124"><ele>298.0</ele><time>2026-05-03T13:34:32Z</time></trkpt><trkpt lat="43.14220884783248" lon="10.628211606483523"><ele>298.0</ele><time>2026-05-03T13:34:33Z</time></trkpt><trkpt lat="43.14228723470296" lon="10.628115510274961"><ele>298.0</ele><time>2026-05-03T13:34:34Z</time></trkpt><trkpt lat="43.14236183262374" lon="10.628034928582132"><ele>298.0</ele><time>2026-05-03T13:34:35Z</time></trkpt><trkpt lat="43.142440111780765" lon="10.627961833027086"><ele>298.0</ele><time>2026-05-03T13:34:36Z</time></trkpt><trkpt lat="43.142511392314404" lon="10.627898799533375"><ele>297.0</ele><time>2026-05-03T13:34:37Z</time></trkpt><trkpt lat="43.142586388494955" lon="10.627835395569535"><ele>296.0</ele><time>2026-05-03T13:34:38Z</time></trkpt><trkpt lat="43.14266687214837" lon="10.627772371215864"><ele>295.0</ele><time>2026-05-03T13:34:39Z</time></trkpt><trkpt lat="43.14274688397325" lon="10.627695201710909"><ele>294.0</ele><time>2026-05-03T13:34:40Z</time></trkpt><trkpt lat="43.14284590894991" lon="10.627650292062492"><ele>293.0</ele><time>2026-05-03T13:34:41Z</time></trkpt><trkpt lat="43.14295118977905" lon="10.627661899230237"><ele>290.6</ele><time>2026-05-03T13:34:42Z</time></trkpt><trkpt lat="43.143021636018034" lon="10.627694439729435"><ele>288.20000000000005</ele><time>2026-05-03T13:34:43Z</time></trkpt><trkpt lat="43.14313311013045" lon="10.627689154500292"><ele>285.8</ele><time>2026-05-03T13:34:44Z</time></trkpt><trkpt lat="43.14320521775051" lon="10.627657293102786"><ele>283.40000000000003</ele><time>2026-05-03T13:34:45Z</time></trkpt><trkpt lat="43.14329650548473" lon="10.62759677805934"><ele>281.0</ele><time>2026-05-03T13:34:47Z</time></trkpt><trkpt lat="43.14340323674272" lon="10.62750294788345"><ele>279.40000000000003</ele><time>2026-05-03T13:34:49Z</time></trkpt><trkpt lat="43.14347177451047" lon="10.627424131882323"><ele>277.8</ele><time>2026-05-03T13:34:50Z</time></trkpt><trkpt lat="43.143530535208534" lon="10.627317988311818"><ele>276.20000000000005</ele><time>2026-05-03T13:34:51Z</time></trkpt><trkpt lat="43.143582512308214" lon="10.627191547207715"><ele>274.6</ele><time>2026-05-03T13:34:52Z</time></trkpt><trkpt lat="43.14361618779865" lon="10.627069551905757"><ele>273.0</ele><time>2026-05-03T13:34:53Z</time></trkpt><trkpt lat="43.1436696684902" lon="10.626983037072888"><ele>271.6666666666667</ele><time>2026-05-03T13:34:54Z</time></trkpt><trkpt lat="43.14373913861513" lon="10.626914396658071"><ele>270.3333333333333</ele><time>2026-05-03T13:34:55Z</time></trkpt><trkpt lat="43.14382041371437" lon="10.626838686723127"><ele>269.0</ele><time>2026-05-03T13:34:56Z</time></trkpt><trkpt lat="43.14389123639339" lon="10.626765149020766"><ele>267.66666666666663</ele><time>2026-05-03T13:34:57Z</time></trkpt><trkpt lat="43.14394808748158" lon="10.626680138164973"><ele>266.3333333333333</ele><time>2026-05-03T13:34:58Z</time></trkpt><trkpt lat="43.14402138821632" lon="10.626632964434357"><ele>265.0</ele><time>2026-05-03T13:34:59Z</time></trkpt><trkpt lat="43.14407899380626" lon="10.626564215409434"><ele>265.0</ele><time>2026-05-03T13:35:00Z</time></trkpt><trkpt lat="43.14413350459207" lon="10.62647713537402"><ele>265.0</ele><time>2026-05-03T13:35:01Z</time></trkpt><trkpt lat="43.14417268910557" lon="10.626372375088703"><ele>265.0</ele><time>2026-05-03T13:35:02Z</time></trkpt><trkpt lat="43.14420284852682" lon="10.626251612122756"><ele>265.0</ele><time>2026-05-03T13:35:03Z</time></trkpt><trkpt lat="43.14422165534743" lon="10.626109824641805"><ele>265.0</ele><time>2026-05-03T13:35:04Z</time></trkpt><trkpt lat="43.14427039630822" lon="10.626004137527103"><ele>262.5</ele><time>2026-05-03T13:35:05Z</time></trkpt><trkpt lat="43.14432562945885" lon="10.62586061561247"><ele>260.0</ele><time>2026-05-03T13:35:07.001Z</time></trkpt><trkpt lat="43.144395420462956" lon="10.625810800055326"><ele>257.5</ele><time>2026-05-03T13:35:09.001Z</time></trkpt><trkpt lat="43.144458862989666" lon="10.625860933072424"><ele>255.0</ele><time>2026-05-03T13:35:10.001Z</time></trkpt><trkpt lat="43.14454202842876" lon="10.62586196119854"><ele>252.49999999999997</ele><time>2026-05-03T13:35:11.001Z</time></trkpt><trkpt lat="43.14461671669755" lon="10.625878382280966"><ele>250.0</ele><time>2026-05-03T13:35:12.001Z</time></trkpt><trkpt lat="43.14468843800773" lon="10.625901588795328"><ele>250.0</ele><time>2026-05-03T13:35:13.001Z</time></trkpt><trkpt lat="43.14477465404807" lon="10.625870547031175"><ele>250.0</ele><time>2026-05-03T13:35:14.001Z</time></trkpt><trkpt lat="43.14484643833642" lon="10.625773990796814"><ele>250.0</ele><time>2026-05-03T13:35:15.001Z</time></trkpt><trkpt lat="43.14489294135282" lon="10.625694152566817"><ele>250.0</ele><time>2026-05-03T13:35:16.001Z</time></trkpt><trkpt lat="43.14499817014474" lon="10.625671332855655"><ele>250.0</ele><time>2026-05-03T13:35:18.001Z</time></trkpt><trkpt lat="43.145064236543455" lon="10.6257305581896"><ele>250.4</ele><time>2026-05-03T13:35:19.001Z</time></trkpt><trkpt lat="43.145138260572075" lon="10.625829603544881"><ele>250.8</ele><time>2026-05-03T13:35:20.001Z</time></trkpt><trkpt lat="43.145207868929" lon="10.625930768081822"><ele>251.2</ele><time>2026-05-03T13:35:21.001Z</time></trkpt><trkpt lat="43.145263324699165" lon="10.626057494552148"><ele>251.6</ele><time>2026-05-03T13:35:22.001Z</time></trkpt><trkpt lat="43.14530580596676" lon="10.626169557507675"><ele>252.0</ele><time>2026-05-03T13:35:23.001Z</time></trkpt><trkpt lat="43.145308119428925" lon="10.626269811427168"><ele>255.25</ele><time>2026-05-03T13:35:24.001Z</time></trkpt><trkpt lat="43.14528753774155" lon="10.626467500174785"><ele>258.5</ele><time>2026-05-03T13:35:26.001Z</time></trkpt><trkpt lat="43.14524628627268" lon="10.626599346823731"><ele>261.75</ele><time>2026-05-03T13:35:27.001Z</time></trkpt><trkpt lat="43.14520428349997" lon="10.626731866865052"><ele>265.0</ele><time>2026-05-03T13:35:28.001Z</time></trkpt><trkpt lat="43.145212677014904" lon="10.626869897088177"><ele>265.0</ele><time>2026-05-03T13:35:29.001Z</time></trkpt><trkpt lat="43.1452325488687" lon="10.626971623589217"><ele>265.0</ele><time>2026-05-03T13:35:30.001Z</time></trkpt><trkpt lat="43.14526474466675" lon="10.627072453673298"><ele>265.0</ele><time>2026-05-03T13:35:31.001Z</time></trkpt><trkpt lat="43.145315743607064" lon="10.627128405215412"><ele>265.0</ele><time>2026-05-03T13:35:32.001Z</time></trkpt><trkpt lat="43.145379312951114" lon="10.627144172165787"><ele>265.0</ele><time>2026-05-03T13:35:33.001Z</time></trkpt><trkpt lat="43.145456325640126" lon="10.6270822695701"><ele>265.0</ele><time>2026-05-03T13:35:34.001Z</time></trkpt><trkpt lat="43.14551294223885" lon="10.6269439211958"><ele>265.0</ele><time>2026-05-03T13:35:35.001Z</time></trkpt><trkpt lat="43.14557356975001" lon="10.626862622889002"><ele>265.0</ele><time>2026-05-03T13:35:36.001Z</time></trkpt><trkpt lat="43.145634165115666" lon="10.626824002469215"><ele>265.0</ele><time>2026-05-03T13:35:37.001Z</time></trkpt><trkpt lat="43.14577484867631" lon="10.626831308000188"><ele>265.0</ele><time>2026-05-03T13:35:39.001Z</time></trkpt><trkpt lat="43.145873376784934" lon="10.626870757848554"><ele>265.0</ele><time>2026-05-03T13:35:40.001Z</time></trkpt><trkpt lat="43.145994486961484" lon="10.626923406864185"><ele>265.8</ele><time>2026-05-03T13:35:41.001Z</time></trkpt><trkpt lat="43.146106849436194" lon="10.626967106844884"><ele>266.6</ele><time>2026-05-03T13:35:42.001Z</time></trkpt><trkpt lat="43.14619313429629" lon="10.6270020497861"><ele>267.4</ele><time>2026-05-03T13:35:43.001Z</time></trkpt><trkpt lat="43.14627327379226" lon="10.62701793800411"><ele>268.2</ele><time>2026-05-03T13:35:44.001Z</time></trkpt><trkpt lat="43.14638879189386" lon="10.626994587544687"><ele>269.0</ele><time>2026-05-03T13:35:46.001Z</time></trkpt><trkpt lat="43.14643638018255" lon="10.626920551853441"><ele>265.0</ele><time>2026-05-03T13:35:47.001Z</time></trkpt><trkpt lat="43.14647178103931" lon="10.626803196174288"><ele>261.0</ele><time>2026-05-03T13:35:48.001Z</time></trkpt><trkpt lat="43.14648965343137" lon="10.626665821019316"><ele>257.0</ele><time>2026-05-03T13:35:49.001Z</time></trkpt><trkpt lat="43.14649589462398" lon="10.626498077548366"><ele>253.0</ele><time>2026-05-03T13:35:50.001Z</time></trkpt><trkpt lat="43.14650249995447" lon="10.626339591212991"><ele>249.0</ele><time>2026-05-03T13:35:51.001Z</time></trkpt><trkpt lat="43.14651041682757" lon="10.626195669537738"><ele>245.79999999999998</ele><time>2026-05-03T13:35:52.001Z</time></trkpt><trkpt lat="43.14650289208255" lon="10.626056031255589"><ele>242.59999999999997</ele><time>2026-05-03T13:35:53.001Z</time></trkpt><trkpt lat="43.146493025141844" lon="10.625921141094146"><ele>239.4</ele><time>2026-05-03T13:35:54.001Z</time></trkpt><trkpt lat="43.146479073861265" lon="10.625786442875121"><ele>236.2</ele><time>2026-05-03T13:35:55.001Z</time></trkpt><trkpt lat="43.14647509390946" lon="10.625658005124523"><ele>233.0</ele><time>2026-05-03T13:35:56.001Z</time></trkpt><trkpt lat="43.1464817531537" lon="10.625555605199368"><ele>234.8</ele><time>2026-05-03T13:35:57.001Z</time></trkpt><trkpt lat="43.14654470246178" lon="10.625441200995715"><ele>236.60000000000002</ele><time>2026-05-03T13:35:59.001Z</time></trkpt><trkpt lat="43.1466635515323" lon="10.625462893316968"><ele>238.39999999999998</ele><time>2026-05-03T13:36:01.001Z</time></trkpt><trkpt lat="43.14672815334231" lon="10.625507674742453"><ele>240.2</ele><time>2026-05-03T13:36:02.001Z</time></trkpt><trkpt lat="43.14682742511412" lon="10.62555823072857"><ele>242.0</ele><time>2026-05-03T13:36:03.001Z</time></trkpt><trkpt lat="43.14692729143974" lon="10.625658559053845"><ele>242.0</ele><time>2026-05-03T13:36:04.001Z</time></trkpt><trkpt lat="43.147013098465884" lon="10.625728807872763"><ele>242.0</ele><time>2026-05-03T13:36:05Z</time></trkpt><trkpt lat="43.147101401146834" lon="10.62578659277093"><ele>242.0</ele><time>2026-05-03T13:36:06Z</time></trkpt><trkpt lat="43.14719340964913" lon="10.625819113659317"><ele>242.0</ele><time>2026-05-03T13:36:07Z</time></trkpt><trkpt lat="43.14728468797471" lon="10.625859107195668"><ele>242.0</ele><time>2026-05-03T13:36:08Z</time></trkpt><trkpt lat="43.147373967527216" lon="10.625887826069702"><ele>240.6</ele><time>2026-05-03T13:36:09Z</time></trkpt><trkpt lat="43.14745750834029" lon="10.625893989257932"><ele>239.2</ele><time>2026-05-03T13:36:10Z</time></trkpt><trkpt lat="43.147572572139" lon="10.625927599321388"><ele>237.8</ele><time>2026-05-03T13:36:12Z</time></trkpt><trkpt lat="43.14764153429981" lon="10.625881096532941"><ele>236.4</ele><time>2026-05-03T13:36:13Z</time></trkpt><trkpt lat="43.14772997686087" lon="10.625823622710048"><ele>235.0</ele><time>2026-05-03T13:36:14Z</time></trkpt><trkpt lat="43.147812987221975" lon="10.625750158823273"><ele>234.99999999999997</ele><time>2026-05-03T13:36:15Z</time></trkpt><trkpt lat="43.1478790332203" lon="10.625693689694367"><ele>235.0</ele><time>2026-05-03T13:36:16Z</time></trkpt><trkpt lat="43.14794884016918" lon="10.62566481756824"><ele>235.0</ele><time>2026-05-03T13:36:17Z</time></trkpt><trkpt lat="43.14802089776461" lon="10.625675096976016"><ele>235.0</ele><time>2026-05-03T13:36:18Z</time></trkpt><trkpt lat="43.14810780159027" lon="10.625702470518684"><ele>234.99999999999997</ele><time>2026-05-03T13:36:19Z</time></trkpt><trkpt lat="43.148201979222875" lon="10.625763177238248"><ele>235.0</ele><time>2026-05-03T13:36:20Z</time></trkpt><trkpt lat="43.14827409754209" lon="10.625831734275724"><ele>235.4</ele><time>2026-05-03T13:36:21Z</time></trkpt><trkpt lat="43.14835399337477" lon="10.625866403885496"><ele>235.8</ele><time>2026-05-03T13:36:22Z</time></trkpt><trkpt lat="43.1484337278344" lon="10.625845009503934"><ele>236.2</ele><time>2026-05-03T13:36:23Z</time></trkpt><trkpt lat="43.14849399096379" lon="10.625739869729005"><ele>236.6</ele><time>2026-05-03T13:36:24Z</time></trkpt><trkpt lat="43.14850569430779" lon="10.625609142406669"><ele>237.0</ele><time>2026-05-03T13:36:25Z</time></trkpt><trkpt lat="43.14846773214309" lon="10.625476473818566"><ele>237.0</ele><time>2026-05-03T13:36:26Z</time></trkpt><trkpt lat="43.148417916794415" lon="10.625364276920669"><ele>237.0</ele><time>2026-05-03T13:36:27Z</time></trkpt><trkpt lat="43.148371906721046" lon="10.625261469303842"><ele>237.0</ele><time>2026-05-03T13:36:28Z</time></trkpt><trkpt lat="43.14829345129888" lon="10.625161013362973"><ele>237.0</ele><time>2026-05-03T13:36:29Z</time></trkpt><trkpt lat="43.14821129568095" lon="10.62506572953823"><ele>237.0</ele><time>2026-05-03T13:36:30Z</time></trkpt><trkpt lat="43.14816341699967" lon="10.624963531690755"><ele>234.0</ele><time>2026-05-03T13:36:31Z</time></trkpt><trkpt lat="43.14813941795955" lon="10.624843476255238"><ele>231.0</ele><time>2026-05-03T13:36:32Z</time></trkpt><trkpt lat="43.148116734265216" lon="10.62473127462424"><ele>228.0</ele><time>2026-05-03T13:36:33Z</time></trkpt><trkpt lat="43.148113714421264" lon="10.624620990592911"><ele>225.0</ele><time>2026-05-03T13:36:34Z</time></trkpt><trkpt lat="43.1481188044305" lon="10.624512985894086"><ele>222.0</ele><time>2026-05-03T13:36:35Z</time></trkpt><trkpt lat="43.14814334489274" lon="10.624408100917597"><ele>219.0</ele><time>2026-05-03T13:36:36Z</time></trkpt><trkpt lat="43.14817971274055" lon="10.62430349795285"><ele>219.6</ele><time>2026-05-03T13:36:37Z</time></trkpt><trkpt lat="43.14822951382358" lon="10.624218848789404"><ele>220.2</ele><time>2026-05-03T13:36:38Z</time></trkpt><trkpt lat="43.1483083389083" lon="10.624133651520868"><ele>220.79999999999998</ele><time>2026-05-03T13:36:39Z</time></trkpt><trkpt lat="43.1484119794854" lon="10.624033573035206"><ele>221.39999999999998</ele><time>2026-05-03T13:36:40Z</time></trkpt><trkpt lat="43.14851456558374" lon="10.623905132512876"><ele>222.0</ele><time>2026-05-03T13:36:41Z</time></trkpt><trkpt lat="43.14857481200153" lon="10.623793345402309"><ele>222.0</ele><time>2026-05-03T13:36:42Z</time></trkpt><trkpt lat="43.14863120218229" lon="10.623709663967794"><ele>222.0</ele><time>2026-05-03T13:36:43Z</time></trkpt><trkpt lat="43.14870036403081" lon="10.623650088449395"><ele>222.0</ele><time>2026-05-03T13:36:44Z</time></trkpt><trkpt lat="43.14879670560894" lon="10.62358869908784"><ele>222.0</ele><time>2026-05-03T13:36:45Z</time></trkpt><trkpt lat="43.148903820332215" lon="10.623572123716768"><ele>222.0</ele><time>2026-05-03T13:36:46Z</time></trkpt><trkpt lat="43.14900617883687" lon="10.623538519122732"><ele>221.0</ele><time>2026-05-03T13:36:47Z</time></trkpt><trkpt lat="43.149123743003194" lon="10.623502426399096"><ele>220.0</ele><time>2026-05-03T13:36:48Z</time></trkpt><trkpt lat="43.14925652384178" lon="10.62346191360156"><ele>219.0</ele><time>2026-05-03T13:36:49Z</time></trkpt><trkpt lat="43.14939466901388" lon="10.623417955969131"><ele>218.0</ele><time>2026-05-03T13:36:50Z</time></trkpt><trkpt lat="43.149485700372374" lon="10.623361882155967"><ele>218.00000000000003</ele><time>2026-05-03T13:36:51Z</time></trkpt><trkpt lat="43.14955974990291" lon="10.623339147315425"><ele>218.0</ele><time>2026-05-03T13:36:52Z</time></trkpt><trkpt lat="43.149609834109384" lon="10.62328402177822"><ele>218.0</ele><time>2026-05-03T13:36:53Z</time></trkpt><trkpt lat="43.1496368955306" lon="10.6231977814579"><ele>218.0</ele><time>2026-05-03T13:36:54Z</time></trkpt><trkpt lat="43.14963769595523" lon="10.623093086950087"><ele>218.00000000000003</ele><time>2026-05-03T13:36:55Z</time></trkpt><trkpt lat="43.149611822767135" lon="10.622944179895093"><ele>218.0</ele><time>2026-05-03T13:36:56Z</time></trkpt><trkpt lat="43.149612785327534" lon="10.62279299386624"><ele>213.8</ele><time>2026-05-03T13:36:57Z</time></trkpt><trkpt lat="43.149642468241495" lon="10.622684861282382"><ele>209.60000000000002</ele><time>2026-05-03T13:36:58Z</time></trkpt><trkpt lat="43.149693309455266" lon="10.622573154171839"><ele>205.39999999999998</ele><time>2026-05-03T13:36:59Z</time></trkpt><trkpt lat="43.14976120912097" lon="10.622426567897321"><ele>201.2</ele><time>2026-05-03T13:37:00Z</time></trkpt><trkpt lat="43.149810570356465" lon="10.622256349368055"><ele>197.0</ele><time>2026-05-03T13:37:01.001Z</time></trkpt><trkpt lat="43.149867005014976" lon="10.622127634201043"><ele>198.50000000000003</ele><time>2026-05-03T13:37:02.001Z</time></trkpt><trkpt lat="43.149906940976855" lon="10.622049717757172"><ele>200.0</ele><time>2026-05-03T13:37:03.001Z</time></trkpt><trkpt lat="43.14999064355439" lon="10.621977425079978"><ele>201.5</ele><time>2026-05-03T13:37:05.001Z</time></trkpt><trkpt lat="43.15007388929798" lon="10.622034127861873"><ele>203.0</ele><time>2026-05-03T13:37:06.001Z</time></trkpt><trkpt lat="43.15013710288409" lon="10.622077618680988"><ele>204.50000000000003</ele><time>2026-05-03T13:37:07.001Z</time></trkpt><trkpt lat="43.15020984943733" lon="10.622114951266"><ele>206.0</ele><time>2026-05-03T13:37:08.001Z</time></trkpt><trkpt lat="43.150292733071645" lon="10.622111143673887"><ele>206.00000000000003</ele><time>2026-05-03T13:37:09.001Z</time></trkpt><trkpt lat="43.15037799821967" lon="10.622071392429167"><ele>206.0</ele><time>2026-05-03T13:37:10.001Z</time></trkpt><trkpt lat="43.15045657756075" lon="10.622020044421747"><ele>206.0</ele><time>2026-05-03T13:37:11.001Z</time></trkpt><trkpt lat="43.15054583607887" lon="10.621974562054369"><ele>206.0</ele><time>2026-05-03T13:37:12.001Z</time></trkpt><trkpt lat="43.15062814659621" lon="10.621903593255599"><ele>206.00000000000003</ele><time>2026-05-03T13:37:13.001Z</time></trkpt><trkpt lat="43.150689477232454" lon="10.621841947495911"><ele>206.0</ele><time>2026-05-03T13:37:14.001Z</time></trkpt><trkpt lat="43.15077222661193" lon="10.621739037081586"><ele>210.25</ele><time>2026-05-03T13:37:15.001Z</time></trkpt><trkpt lat="43.150843418181836" lon="10.621623518580662"><ele>214.5</ele><time>2026-05-03T13:37:16.001Z</time></trkpt><trkpt lat="43.150898733368535" lon="10.621453986451673"><ele>218.75</ele><time>2026-05-03T13:37:17.001Z</time></trkpt><trkpt lat="43.150948568261086" lon="10.621312501515247"><ele>223.0</ele><time>2026-05-03T13:37:18.001Z</time></trkpt><trkpt lat="43.15100037500766" lon="10.621210697165589"><ele>223.0</ele><time>2026-05-03T13:37:19.001Z</time></trkpt><trkpt lat="43.15106945615597" lon="10.621153411907303"><ele>223.0</ele><time>2026-05-03T13:37:20.001Z</time></trkpt><trkpt lat="43.1511518701049" lon="10.621119926080205"><ele>223.0</ele><time>2026-05-03T13:37:21.001Z</time></trkpt><trkpt lat="43.151238519541856" lon="10.621110430885228"><ele>223.0</ele><time>2026-05-03T13:37:22.001Z</time></trkpt><trkpt lat="43.15133128749305" lon="10.621109736222417"><ele>223.0</ele><time>2026-05-03T13:37:23.001Z</time></trkpt><trkpt lat="43.15143884132738" lon="10.621167291670496"><ele>222.99999999999997</ele><time>2026-05-03T13:37:24.001Z</time></trkpt><trkpt lat="43.151509849633214" lon="10.621229115443068"><ele>223.0</ele><time>2026-05-03T13:37:25.001Z</time></trkpt><trkpt lat="43.15157278703882" lon="10.621304414611364"><ele>223.0</ele><time>2026-05-03T13:37:26.001Z</time></trkpt><trkpt lat="43.151626783929906" lon="10.621385151003707"><ele>223.0</ele><time>2026-05-03T13:37:27.001Z</time></trkpt><trkpt lat="43.1516611816901" lon="10.621486465265676"><ele>222.99999999999997</ele><time>2026-05-03T13:37:28.001Z</time></trkpt><trkpt lat="43.15166467151428" lon="10.621606139077224"><ele>223.0</ele><time>2026-05-03T13:37:29.001Z</time></trkpt><trkpt lat="43.15166737075089" lon="10.621801196753987"><ele>223.33333333333331</ele><time>2026-05-03T13:37:30.001Z</time></trkpt><trkpt lat="43.15168492361959" lon="10.621960893209224"><ele>223.66666666666666</ele><time>2026-05-03T13:37:31.001Z</time></trkpt><trkpt lat="43.151699834053225" lon="10.622090936388124"><ele>224.0</ele><time>2026-05-03T13:37:32.001Z</time></trkpt><trkpt lat="43.15171586848742" lon="10.622193182474945"><ele>224.33333333333331</ele><time>2026-05-03T13:37:33.001Z</time></trkpt><trkpt lat="43.15174283150321" lon="10.622286466385686"><ele>224.66666666666666</ele><time>2026-05-03T13:37:34.001Z</time></trkpt><trkpt lat="43.15180220608483" lon="10.622357831987568"><ele>225.0</ele><time>2026-05-03T13:37:35.001Z</time></trkpt><trkpt lat="43.151918453294044" lon="10.622374835695807"><ele>225.0</ele><time>2026-05-03T13:37:36.001Z</time></trkpt><trkpt lat="43.1519534455428" lon="10.622237047657652"><ele>225.0</ele><time>2026-05-03T13:37:37.001Z</time></trkpt><trkpt lat="43.1519787593154" lon="10.62215348163978"><ele>225.0</ele><time>2026-05-03T13:37:38.001Z</time></trkpt><trkpt lat="43.151997894781054" lon="10.622002832330777"><ele>225.0</ele><time>2026-05-03T13:37:39.001Z</time></trkpt><trkpt lat="43.1520387091666" lon="10.621864142908215"><ele>225.0</ele><time>2026-05-03T13:37:40.001Z</time></trkpt><trkpt lat="43.15208874130598" lon="10.621735229902864"><ele>225.0</ele><time>2026-05-03T13:37:41.001Z</time></trkpt><trkpt lat="43.15216263327168" lon="10.62158726780249"><ele>225.0</ele><time>2026-05-03T13:37:42.001Z</time></trkpt><trkpt lat="43.15223445767994" lon="10.621420037441373"><ele>225.0</ele><time>2026-05-03T13:37:43.001Z</time></trkpt><trkpt lat="43.152291193220684" lon="10.62126366798201"><ele>225.0</ele><time>2026-05-03T13:37:44.001Z</time></trkpt><trkpt lat="43.15233639759383" lon="10.621110023278057"><ele>223.0</ele><time>2026-05-03T13:37:45.001Z</time></trkpt><trkpt lat="43.15239340460508" lon="10.620991319562753"><ele>221.0</ele><time>2026-05-03T13:37:46.001Z</time></trkpt><trkpt lat="43.15244691719083" lon="10.62086318497621"><ele>219.0</ele><time>2026-05-03T13:37:47.001Z</time></trkpt><trkpt lat="43.1525069193493" lon="10.62074457451257"><ele>217.0</ele><time>2026-05-03T13:37:48.001Z</time></trkpt><trkpt lat="43.152573037105284" lon="10.620648800599122"><ele>215.0</ele><time>2026-05-03T13:37:49.001Z</time></trkpt><trkpt lat="43.152642947693344" lon="10.620590877645867"><ele>215.0</ele><time>2026-05-03T13:37:50.001Z</time></trkpt><trkpt lat="43.15278066561626" lon="10.620634770747321"><ele>215.0</ele><time>2026-05-03T13:37:52.001Z</time></trkpt><trkpt lat="43.1529087799664" lon="10.620652580110843"><ele>215.0</ele><time>2026-05-03T13:37:53.001Z</time></trkpt><trkpt lat="43.153016793503085" lon="10.620664855203989"><ele>215.0</ele><time>2026-05-03T13:37:54.001Z</time></trkpt><trkpt lat="43.15311750443143" lon="10.620700480620377"><ele>215.8</ele><time>2026-05-03T13:37:55.001Z</time></trkpt><trkpt lat="43.15322117405702" lon="10.620732872037914"><ele>216.6</ele><time>2026-05-03T13:37:56.001Z</time></trkpt><trkpt lat="43.15331033437138" lon="10.62076660900719"><ele>217.39999999999998</ele><time>2026-05-03T13:37:57.001Z</time></trkpt><trkpt lat="43.1533911460883" lon="10.620823916738482"><ele>218.2</ele><time>2026-05-03T13:37:58.001Z</time></trkpt><trkpt lat="43.15344211863739" lon="10.620920946295369"><ele>219.0</ele><time>2026-05-03T13:37:59.001Z</time></trkpt><trkpt lat="43.153504855559454" lon="10.621017206072862"><ele>223.39999999999998</ele><time>2026-05-03T13:38:00.001Z</time></trkpt><trkpt lat="43.1536003799041" lon="10.621151903600124"><ele>227.79999999999998</ele><time>2026-05-03T13:38:01.001Z</time></trkpt><trkpt lat="43.15367522115283" lon="10.621312670201402"><ele>232.20000000000002</ele><time>2026-05-03T13:38:02.001Z</time></trkpt><trkpt lat="43.1537306513588" lon="10.621399659899106"><ele>236.60000000000002</ele><time>2026-05-03T13:38:03.001Z</time></trkpt><trkpt lat="43.15379103090005" lon="10.62147153385866"><ele>241.0</ele><time>2026-05-03T13:38:04.001Z</time></trkpt><trkpt lat="43.15388914290624" lon="10.62146338089713"><ele>241.0</ele><time>2026-05-03T13:38:06.001Z</time></trkpt><trkpt lat="43.1539369534273" lon="10.621401216395771"><ele>241.00000000000003</ele><time>2026-05-03T13:38:07.001Z</time></trkpt><trkpt lat="43.15395815638592" lon="10.621312787150115"><ele>241.00000000000003</ele><time>2026-05-03T13:38:08.001Z</time></trkpt><trkpt lat="43.153946259788555" lon="10.621167631578134"><ele>241.0</ele><time>2026-05-03T13:38:09.001Z</time></trkpt><trkpt lat="43.15394714150317" lon="10.621011288757952"><ele>241.0</ele><time>2026-05-03T13:38:10.001Z</time></trkpt><trkpt lat="43.15398432618223" lon="10.620842929578846"><ele>236.60000000000002</ele><time>2026-05-03T13:38:11Z</time></trkpt><trkpt lat="43.15399934934636" lon="10.62069566384198"><ele>232.20000000000002</ele><time>2026-05-03T13:38:12Z</time></trkpt><trkpt lat="43.15399757412703" lon="10.620542291780557"><ele>227.79999999999998</ele><time>2026-05-03T13:38:13Z</time></trkpt><trkpt lat="43.15395561441463" lon="10.620388655687726"><ele>223.39999999999998</ele><time>2026-05-03T13:38:14Z</time></trkpt><trkpt lat="43.15397285914529" lon="10.620265349745727"><ele>219.0</ele><time>2026-05-03T13:38:15Z</time></trkpt><trkpt lat="43.15398820219526" lon="10.620117745915914"><ele>219.0</ele><time>2026-05-03T13:38:16Z</time></trkpt><trkpt lat="43.154009448532804" lon="10.619907056544955"><ele>219.0</ele><time>2026-05-03T13:38:17Z</time></trkpt><trkpt lat="43.154031739258855" lon="10.619693261240936"><ele>219.0</ele><time>2026-05-03T13:38:18Z</time></trkpt><trkpt lat="43.154050044373356" lon="10.619476634109121"><ele>219.0</ele><time>2026-05-03T13:38:19Z</time></trkpt><trkpt lat="43.15408021630301" lon="10.619266907344379"><ele>219.0</ele><time>2026-05-03T13:38:20Z</time></trkpt><trkpt lat="43.15408366063326" lon="10.619088500690927"><ele>219.0</ele><time>2026-05-03T13:38:21Z</time></trkpt><trkpt lat="43.154059295774175" lon="10.618930574337732"><ele>219.0</ele><time>2026-05-03T13:38:22Z</time></trkpt><trkpt lat="43.15404910401949" lon="10.618786149234978"><ele>219.0</ele><time>2026-05-03T13:38:23Z</time></trkpt><trkpt lat="43.15405018395664" lon="10.618651781247614"><ele>219.0</ele><time>2026-05-03T13:38:24Z</time></trkpt><trkpt lat="43.15405236487737" lon="10.618518469198031"><ele>219.0</ele><time>2026-05-03T13:38:25Z</time></trkpt><trkpt lat="43.15405628783132" lon="10.61841085504586"><ele>219.0</ele><time>2026-05-03T13:38:26Z</time></trkpt><trkpt lat="43.154061851442954" lon="10.618320057602771"><ele>219.0</ele><time>2026-05-03T13:38:27Z</time></trkpt><trkpt lat="43.15410667140124" lon="10.618222443231387"><ele>219.0</ele><time>2026-05-03T13:38:29Z</time></trkpt><trkpt lat="43.15415718136362" lon="10.61816494997445"><ele>217.0</ele><time>2026-05-03T13:38:30Z</time></trkpt><trkpt lat="43.15424933648666" lon="10.618127860487837"><ele>214.99999999999997</ele><time>2026-05-03T13:38:32Z</time></trkpt><trkpt lat="43.15435455544981" lon="10.618118742643679"><ele>213.0</ele><time>2026-05-03T13:38:34Z</time></trkpt><trkpt lat="43.15448643868758" lon="10.618181054063404"><ele>211.0</ele><time>2026-05-03T13:38:36Z</time></trkpt><trkpt lat="43.15456480252989" lon="10.618196730956244"><ele>209.0</ele><time>2026-05-03T13:38:37Z</time></trkpt><trkpt lat="43.154635796797876" lon="10.618179514123561"><ele>209.0</ele><time>2026-05-03T13:38:38Z</time></trkpt><trkpt lat="43.154738936920474" lon="10.61816488620764"><ele>209.0</ele><time>2026-05-03T13:38:40Z</time></trkpt><trkpt lat="43.15483477076048" lon="10.618103053795444"><ele>209.0</ele><time>2026-05-03T13:38:42Z</time></trkpt><trkpt lat="43.15490015452963" lon="10.618043075553224"><ele>209.0</ele><time>2026-05-03T13:38:43Z</time></trkpt><trkpt lat="43.15496743633442" lon="10.617953952162484"><ele>209.0</ele><time>2026-05-03T13:38:44Z</time></trkpt><trkpt lat="43.1550170788494" lon="10.617864356997934"><ele>207.79999999999998</ele><time>2026-05-03T13:38:45Z</time></trkpt><trkpt lat="43.155052100308176" lon="10.61776900835274"><ele>206.6</ele><time>2026-05-03T13:38:46Z</time></trkpt><trkpt lat="43.15509237854928" lon="10.61762669704825"><ele>205.4</ele><time>2026-05-03T13:38:48Z</time></trkpt><trkpt lat="43.15515383428928" lon="10.61750784687191"><ele>204.2</ele><time>2026-05-03T13:38:50Z</time></trkpt><trkpt lat="43.15520629317573" lon="10.617440286160685"><ele>203.0</ele><time>2026-05-03T13:38:51Z</time></trkpt><trkpt lat="43.15526032756943" lon="10.617351918351126"><ele>203.00000000000003</ele><time>2026-05-03T13:38:52Z</time></trkpt><trkpt lat="43.15532102412655" lon="10.61726670065974"><ele>203.0</ele><time>2026-05-03T13:38:53Z</time></trkpt><trkpt lat="43.155376908084506" lon="10.617199258473773"><ele>203.0</ele><time>2026-05-03T13:38:54Z</time></trkpt><trkpt lat="43.15541753311823" lon="10.617131810156293"><ele>203.0</ele><time>2026-05-03T13:38:55Z</time></trkpt><trkpt lat="43.15544961405805" lon="10.61705490738681"><ele>203.00000000000003</ele><time>2026-05-03T13:38:56Z</time></trkpt><trkpt lat="43.15553259078128" lon="10.616945532330424"><ele>203.0</ele><time>2026-05-03T13:38:58Z</time></trkpt><trkpt lat="43.15561671495854" lon="10.616841249623395"><ele>203.8</ele><time>2026-05-03T13:39:00Z</time></trkpt><trkpt lat="43.15574162845368" lon="10.6168302741562"><ele>204.60000000000002</ele><time>2026-05-03T13:39:02Z</time></trkpt><trkpt lat="43.155808648432846" lon="10.616824491235803"><ele>205.39999999999998</ele><time>2026-05-03T13:39:03Z</time></trkpt><trkpt lat="43.15592613115988" lon="10.616860059963338"><ele>206.2</ele><time>2026-05-03T13:39:05Z</time></trkpt><trkpt lat="43.15597882365465" lon="10.616942933175588"><ele>207.0</ele><time>2026-05-03T13:39:06Z</time></trkpt><trkpt lat="43.1560319771658" lon="10.617014459751095"><ele>207.0</ele><time>2026-05-03T13:39:07Z</time></trkpt><trkpt lat="43.156088911769146" lon="10.617092518753573"><ele>207.0</ele><time>2026-05-03T13:39:08Z</time></trkpt><trkpt lat="43.15615112608855" lon="10.617177838280384"><ele>207.0</ele><time>2026-05-03T13:39:09Z</time></trkpt><trkpt lat="43.156212469574896" lon="10.61726672257812"><ele>207.0</ele><time>2026-05-03T13:39:10Z</time></trkpt><trkpt lat="43.15626494493717" lon="10.617356483757563"><ele>207.0</ele><time>2026-05-03T13:39:11Z</time></trkpt><trkpt lat="43.15630393222662" lon="10.61744505464939"><ele>207.0</ele><time>2026-05-03T13:39:12Z</time></trkpt><trkpt lat="43.15633764692447" lon="10.617523818685731"><ele>207.0</ele><time>2026-05-03T13:39:13Z</time></trkpt><trkpt lat="43.156400111710305" lon="10.61768631519319"><ele>207.0</ele><time>2026-05-03T13:39:15Z</time></trkpt><trkpt lat="43.15643024817224" lon="10.617776250770747"><ele>207.0</ele><time>2026-05-03T13:39:16Z</time></trkpt><trkpt lat="43.156506324946065" lon="10.617924763120726"><ele>207.0</ele><time>2026-05-03T13:39:18.001Z</time></trkpt><trkpt lat="43.15657083979731" lon="10.617945162485183"><ele>207.0</ele><time>2026-05-03T13:39:19.001Z</time></trkpt><trkpt lat="43.15664032913549" lon="10.617936485598563"><ele>207.2</ele><time>2026-05-03T13:39:20.001Z</time></trkpt><trkpt lat="43.15668455972767" lon="10.617851293010036"><ele>207.39999999999998</ele><time>2026-05-03T13:39:21.001Z</time></trkpt><trkpt lat="43.156726626888805" lon="10.61774767994267"><ele>207.60000000000002</ele><time>2026-05-03T13:39:22.001Z</time></trkpt><trkpt lat="43.15677778020661" lon="10.617629548553026"><ele>207.8</ele><time>2026-05-03T13:39:23.001Z</time></trkpt><trkpt lat="43.15683697812464" lon="10.617513797683786"><ele>208.0</ele><time>2026-05-03T13:39:24.001Z</time></trkpt><trkpt lat="43.15689594273905" lon="10.617398812138461"><ele>204.0</ele><time>2026-05-03T13:39:25.001Z</time></trkpt><trkpt lat="43.1569517873271" lon="10.617284011519331"><ele>200.0</ele><time>2026-05-03T13:39:26.001Z</time></trkpt><trkpt lat="43.15700722302734" lon="10.617171001408613"><ele>196.0</ele><time>2026-05-03T13:39:27.001Z</time></trkpt><trkpt lat="43.15705932231714" lon="10.617081725202011"><ele>192.0</ele><time>2026-05-03T13:39:28.001Z</time></trkpt><trkpt lat="43.15711945014026" lon="10.617006693808417"><ele>188.0</ele><time>2026-05-03T13:39:29.001Z</time></trkpt><trkpt lat="43.15718970819472" lon="10.616938466846399"><ele>185.5</ele><time>2026-05-03T13:39:30.001Z</time></trkpt><trkpt lat="43.15726542465145" lon="10.616876977577377"><ele>183.0</ele><time>2026-05-03T13:39:31.001Z</time></trkpt><trkpt lat="43.15734167956288" lon="10.616823473342585"><ele>180.5</ele><time>2026-05-03T13:39:32.001Z</time></trkpt><trkpt lat="43.15741324881737" lon="10.61677425996409"><ele>178.0</ele><time>2026-05-03T13:39:33.001Z</time></trkpt><trkpt lat="43.15749069396953" lon="10.616729888874275"><ele>175.5</ele><time>2026-05-03T13:39:34.001Z</time></trkpt><trkpt lat="43.157577669878854" lon="10.616696842188537"><ele>173.0</ele><time>2026-05-03T13:39:35.001Z</time></trkpt><trkpt lat="43.15767204299964" lon="10.616666328896347"><ele>173.0</ele><time>2026-05-03T13:39:36.001Z</time></trkpt><trkpt lat="43.15776120451968" lon="10.61660223597417"><ele>173.0</ele><time>2026-05-03T13:39:37.001Z</time></trkpt><trkpt lat="43.15784483010361" lon="10.616507974376427"><ele>173.0</ele><time>2026-05-03T13:39:38.001Z</time></trkpt><trkpt lat="43.15790625216759" lon="10.616422067693318"><ele>173.0</ele><time>2026-05-03T13:39:39.001Z</time></trkpt><trkpt lat="43.15796221087263" lon="10.61634334958947"><ele>173.0</ele><time>2026-05-03T13:39:40.001Z</time></trkpt><trkpt lat="43.158020670556894" lon="10.616266147934871"><ele>173.0</ele><time>2026-05-03T13:39:41.001Z</time></trkpt><trkpt lat="43.1580857475297" lon="10.616191380782954"><ele>173.0</ele><time>2026-05-03T13:39:42.001Z</time></trkpt><trkpt lat="43.1581538011373" lon="10.616135352631233"><ele>173.0</ele><time>2026-05-03T13:39:43.001Z</time></trkpt><trkpt lat="43.158237541057055" lon="10.616090871597708"><ele>173.0</ele><time>2026-05-03T13:39:44.001Z</time></trkpt><trkpt lat="43.158326331409675" lon="10.616051552930514"><ele>173.0</ele><time>2026-05-03T13:39:45.001Z</time></trkpt><trkpt lat="43.15841088451972" lon="10.616014948541537"><ele>173.0</ele><time>2026-05-03T13:39:46.001Z</time></trkpt><trkpt lat="43.15848888311213" lon="10.615992864469955"><ele>172.0</ele><time>2026-05-03T13:39:47.001Z</time></trkpt><trkpt lat="43.15856806876858" lon="10.616009244430956"><ele>171.0</ele><time>2026-05-03T13:39:48.001Z</time></trkpt><trkpt lat="43.158654763198044" lon="10.616015221440199"><ele>170.0</ele><time>2026-05-03T13:39:49.001Z</time></trkpt><trkpt lat="43.158728837049615" lon="10.616020706704246"><ele>169.0</ele><time>2026-05-03T13:39:50.001Z</time></trkpt><trkpt lat="43.15880676782692" lon="10.616010762306232"><ele>168.0</ele><time>2026-05-03T13:39:51.001Z</time></trkpt><trkpt lat="43.15888435296012" lon="10.616056419649107"><ele>167.0</ele><time>2026-05-03T13:39:52.001Z</time></trkpt><trkpt lat="43.158963447097136" lon="10.616094119334711"><ele>167.33333333333331</ele><time>2026-05-03T13:39:53.001Z</time></trkpt><trkpt lat="43.159042722067916" lon="10.61613536070855"><ele>167.66666666666666</ele><time>2026-05-03T13:39:54.001Z</time></trkpt><trkpt lat="43.15912671860833" lon="10.616144490275754"><ele>168.0</ele><time>2026-05-03T13:39:55.001Z</time></trkpt><trkpt lat="43.159206697100416" lon="10.616144452957435"><ele>168.33333333333334</ele><time>2026-05-03T13:39:56.001Z</time></trkpt><trkpt lat="43.159274703675145" lon="10.616110380704498"><ele>168.66666666666669</ele><time>2026-05-03T13:39:57.001Z</time></trkpt><trkpt lat="43.15934248810928" lon="10.616051717389626"><ele>169.0</ele><time>2026-05-03T13:39:58.001Z</time></trkpt><trkpt lat="43.159400335462735" lon="10.615960352325425"><ele>169.0</ele><time>2026-05-03T13:39:59.001Z</time></trkpt><trkpt lat="43.15944946563037" lon="10.615891887755417"><ele>169.0</ele><time>2026-05-03T13:40:00.001Z</time></trkpt><trkpt lat="43.15951391426203" lon="10.615820905079172"><ele>169.0</ele><time>2026-05-03T13:40:01.001Z</time></trkpt><trkpt lat="43.15960605946296" lon="10.615765985693875"><ele>169.0</ele><time>2026-05-03T13:40:02.001Z</time></trkpt><trkpt lat="43.15969245171383" lon="10.615712475881644"><ele>169.0</ele><time>2026-05-03T13:40:03.001Z</time></trkpt><trkpt lat="43.15977141846089" lon="10.615643430258155"><ele>169.0</ele><time>2026-05-03T13:40:04.001Z</time></trkpt><trkpt lat="43.159848743188945" lon="10.615580444725476"><ele>169.2</ele><time>2026-05-03T13:40:05.001Z</time></trkpt><trkpt lat="43.159931409343116" lon="10.615511286223837"><ele>169.39999999999998</ele><time>2026-05-03T13:40:06.001Z</time></trkpt><trkpt lat="43.16001835820743" lon="10.61544561469686"><ele>169.6</ele><time>2026-05-03T13:40:07.001Z</time></trkpt><trkpt lat="43.160101142338895" lon="10.615380798592897"><ele>169.8</ele><time>2026-05-03T13:40:08.001Z</time></trkpt><trkpt lat="43.16017497656576" lon="10.615308822514363"><ele>170.0</ele><time>2026-05-03T13:40:09.001Z</time></trkpt><trkpt lat="43.160249328752826" lon="10.615244061147433"><ele>168.0</ele><time>2026-05-03T13:40:10.001Z</time></trkpt><trkpt lat="43.16031866507628" lon="10.615186580380119"><ele>166.0</ele><time>2026-05-03T13:40:11.001Z</time></trkpt><trkpt lat="43.16037731604014" lon="10.615139051455209"><ele>164.0</ele><time>2026-05-03T13:40:12.001Z</time></trkpt><trkpt lat="43.160472099546325" lon="10.615077943726867"><ele>162.0</ele><time>2026-05-03T13:40:14.001Z</time></trkpt><trkpt lat="43.16053977811092" lon="10.61505068066689"><ele>160.0</ele><time>2026-05-03T13:40:17Z</time></trkpt><trkpt lat="43.16060476261217" lon="10.614928153760154"><ele>158.0</ele><time>2026-05-03T13:40:20Z</time></trkpt><trkpt lat="43.160593387557604" lon="10.614820303328203"><ele>158.0</ele><time>2026-05-03T13:40:21Z</time></trkpt><trkpt lat="43.16057937626555" lon="10.614714525619396"><ele>158.0</ele><time>2026-05-03T13:40:22Z</time></trkpt><trkpt lat="43.16057435553762" lon="10.614591865964446"><ele>158.0</ele><time>2026-05-03T13:40:23Z</time></trkpt><trkpt lat="43.160569899776185" lon="10.61446298523961"><ele>158.0</ele><time>2026-05-03T13:40:24Z</time></trkpt><trkpt lat="43.16056619779688" lon="10.614333617572127"><ele>158.0</ele><time>2026-05-03T13:40:25Z</time></trkpt><trkpt lat="43.160562367349804" lon="10.61421775782783"><ele>158.0</ele><time>2026-05-03T13:40:26Z</time></trkpt><trkpt lat="43.16055852788583" lon="10.614101059792587"><ele>157.6</ele><time>2026-05-03T13:40:27Z</time></trkpt><trkpt lat="43.16055447000695" lon="10.61397999398899"><ele>157.20000000000002</ele><time>2026-05-03T13:40:28Z</time></trkpt><trkpt lat="43.16055565174359" lon="10.613856684241894"><ele>156.8</ele><time>2026-05-03T13:40:29Z</time></trkpt><trkpt lat="43.16055060822313" lon="10.613731525890087"><ele>156.4</ele><time>2026-05-03T13:40:30Z</time></trkpt><trkpt lat="43.16054714208861" lon="10.613600771007084"><ele>156.0</ele><time>2026-05-03T13:40:31Z</time></trkpt><trkpt lat="43.160543364616416" lon="10.613475881490837"><ele>157.0</ele><time>2026-05-03T13:40:32Z</time></trkpt><trkpt lat="43.160528981506936" lon="10.613347960765005"><ele>158.0</ele><time>2026-05-03T13:40:33Z</time></trkpt><trkpt lat="43.16049331097688" lon="10.613221423216507"><ele>159.0</ele><time>2026-05-03T13:40:34Z</time></trkpt><trkpt lat="43.160449972205065" lon="10.613106692188603"><ele>160.0</ele><time>2026-05-03T13:40:35Z</time></trkpt><trkpt lat="43.160395393011456" lon="10.61299978737354"><ele>161.0</ele><time>2026-05-03T13:40:36Z</time></trkpt><trkpt lat="43.16034081835848" lon="10.612890634631517"><ele>162.0</ele><time>2026-05-03T13:40:37Z</time></trkpt><trkpt lat="43.16028527762631" lon="10.612790168147267"><ele>163.0</ele><time>2026-05-03T13:40:38Z</time></trkpt><trkpt lat="43.160233386566766" lon="10.612696453466862"><ele>164.0</ele><time>2026-05-03T13:40:39Z</time></trkpt><trkpt lat="43.160174796038405" lon="10.612608452313076"><ele>165.0</ele><time>2026-05-03T13:40:40Z</time></trkpt><trkpt lat="43.16010457410377" lon="10.61253351809633"><ele>166.0</ele><time>2026-05-03T13:40:41Z</time></trkpt><trkpt lat="43.160040947639814" lon="10.612435529655997"><ele>167.0</ele><time>2026-05-03T13:40:42Z</time></trkpt><trkpt lat="43.159979539163345" lon="10.61232790603514"><ele>167.0</ele><time>2026-05-03T13:40:43Z</time></trkpt><trkpt lat="43.159922660913956" lon="10.612226950827077"><ele>167.0</ele><time>2026-05-03T13:40:44Z</time></trkpt><trkpt lat="43.15988161794998" lon="10.612112987392047"><ele>167.0</ele><time>2026-05-03T13:40:45Z</time></trkpt><trkpt lat="43.159845712814686" lon="10.612012334310933"><ele>167.0</ele><time>2026-05-03T13:40:46Z</time></trkpt><trkpt lat="43.15981524376743" lon="10.611913701865918"><ele>167.0</ele><time>2026-05-03T13:40:47Z</time></trkpt><trkpt lat="43.15978819226759" lon="10.611809464747939"><ele>167.0</ele><time>2026-05-03T13:40:48Z</time></trkpt><trkpt lat="43.159769486963576" lon="10.611697804484493"><ele>165.0</ele><time>2026-05-03T13:40:49Z</time></trkpt><trkpt lat="43.15975332208637" lon="10.611576031352467"><ele>163.0</ele><time>2026-05-03T13:40:50Z</time></trkpt><trkpt lat="43.15974364907798" lon="10.611464861548674"><ele>161.0</ele><time>2026-05-03T13:40:51Z</time></trkpt><trkpt lat="43.15973633788416" lon="10.611360892110067"><ele>159.0</ele><time>2026-05-03T13:40:52Z</time></trkpt><trkpt lat="43.159730425582666" lon="10.611258013788529"><ele>157.0</ele><time>2026-05-03T13:40:53Z</time></trkpt><trkpt lat="43.15972619394856" lon="10.61115499539139"><ele>155.0</ele><time>2026-05-03T13:40:54Z</time></trkpt><trkpt lat="43.15973141204419" lon="10.611056349832921"><ele>154.5</ele><time>2026-05-03T13:40:55Z</time></trkpt><trkpt lat="43.15973749772186" lon="10.610964131081111"><ele>154.0</ele><time>2026-05-03T13:40:56Z</time></trkpt><trkpt lat="43.15975145881554" lon="10.610862613106418"><ele>153.5</ele><time>2026-05-03T13:40:57Z</time></trkpt><trkpt lat="43.15976801228404" lon="10.610750113892253"><ele>153.0</ele><time>2026-05-03T13:40:58Z</time></trkpt><trkpt lat="43.159789843171055" lon="10.610624248575634"><ele>152.5</ele><time>2026-05-03T13:40:59Z</time></trkpt><trkpt lat="43.15981360691232" lon="10.610489187116713"><ele>152.0</ele><time>2026-05-03T13:41:00Z</time></trkpt><trkpt lat="43.159837469688796" lon="10.610364532204667"><ele>156.0</ele><time>2026-05-03T13:41:01Z</time></trkpt><trkpt lat="43.159866854339164" lon="10.610242545221563"><ele>160.0</ele><time>2026-05-03T13:41:02Z</time></trkpt><trkpt lat="43.15988836664223" lon="10.610119759170788"><ele>164.0</ele><time>2026-05-03T13:41:03Z</time></trkpt><trkpt lat="43.15990931256388" lon="10.610000807238276"><ele>168.0</ele><time>2026-05-03T13:41:04Z</time></trkpt><trkpt lat="43.159928754294434" lon="10.609883296503426"><ele>172.0</ele><time>2026-05-03T13:41:05Z</time></trkpt><trkpt lat="43.15994964848066" lon="10.609769526167188"><ele>176.0</ele><time>2026-05-03T13:41:06Z</time></trkpt><trkpt lat="43.1599614349482" lon="10.609659148212263"><ele>176.0</ele><time>2026-05-03T13:41:07Z</time></trkpt><trkpt lat="43.15996592493033" lon="10.6095517924019"><ele>176.0</ele><time>2026-05-03T13:41:08Z</time></trkpt><trkpt lat="43.15996915805554" lon="10.609453202715233"><ele>176.0</ele><time>2026-05-03T13:41:09Z</time></trkpt><trkpt lat="43.15996536162216" lon="10.609347802125946"><ele>176.0</ele><time>2026-05-03T13:41:10Z</time></trkpt><trkpt lat="43.15995648924789" lon="10.609253945489337"><ele>176.0</ele><time>2026-05-03T13:41:11Z</time></trkpt><trkpt lat="43.15994552963047" lon="10.609166296728938"><ele>176.0</ele><time>2026-05-03T13:41:12Z</time></trkpt><trkpt lat="43.15993118959068" lon="10.609081402826604"><ele>176.0</ele><time>2026-05-03T13:41:13Z</time></trkpt><trkpt lat="43.15991120394939" lon="10.60891790096464"><ele>174.33333333333331</ele><time>2026-05-03T13:41:15Z</time></trkpt><trkpt lat="43.15990303759493" lon="10.608828521132814"><ele>172.66666666666666</ele><time>2026-05-03T13:41:16Z</time></trkpt><trkpt lat="43.15989565188997" lon="10.608729734835254"><ele>171.0</ele><time>2026-05-03T13:41:17Z</time></trkpt><trkpt lat="43.15989103203133" lon="10.60861503921667"><ele>169.33333333333334</ele><time>2026-05-03T13:41:18.001Z</time></trkpt><trkpt lat="43.15987650845124" lon="10.608503959489228"><ele>167.66666666666669</ele><time>2026-05-03T13:41:19.001Z</time></trkpt><trkpt lat="43.15987294163652" lon="10.608388981729812"><ele>166.0</ele><time>2026-05-03T13:41:20.001Z</time></trkpt><trkpt lat="43.15986314005156" lon="10.608283107336161"><ele>165.33333333333334</ele><time>2026-05-03T13:41:21.001Z</time></trkpt><trkpt lat="43.159862141997735" lon="10.60817318044459"><ele>164.66666666666669</ele><time>2026-05-03T13:41:22.001Z</time></trkpt><trkpt lat="43.15986090192696" lon="10.608060231590018"><ele>164.0</ele><time>2026-05-03T13:41:23.001Z</time></trkpt><trkpt lat="43.15987108803554" lon="10.607954434348725"><ele>163.33333333333334</ele><time>2026-05-03T13:41:24.001Z</time></trkpt><trkpt lat="43.159885560491084" lon="10.607853245239141"><ele>162.66666666666666</ele><time>2026-05-03T13:41:25.001Z</time></trkpt><trkpt lat="43.159903448516125" lon="10.607754250343367"><ele>162.0</ele><time>2026-05-03T13:41:26.001Z</time></trkpt><trkpt lat="43.159916340726" lon="10.607647387113591"><ele>161.0</ele><time>2026-05-03T13:41:27.001Z</time></trkpt><trkpt lat="43.1599332406363" lon="10.60753320977762"><ele>160.0</ele><time>2026-05-03T13:41:28.001Z</time></trkpt><trkpt lat="43.15995339551195" lon="10.607424734780215"><ele>159.0</ele><time>2026-05-03T13:41:29.001Z</time></trkpt><trkpt lat="43.159967244767884" lon="10.607323481535982"><ele>158.0</ele><time>2026-05-03T13:41:30.001Z</time></trkpt><trkpt lat="43.15998374563365" lon="10.607217733784347"><ele>157.0</ele><time>2026-05-03T13:41:31.001Z</time></trkpt><trkpt lat="43.1599979723841" lon="10.60712415031585"><ele>156.0</ele><time>2026-05-03T13:41:32.001Z</time></trkpt><trkpt lat="43.16001330831505" lon="10.606987507843229"><ele>155.0</ele><time>2026-05-03T13:41:34.001Z</time></trkpt><trkpt lat="43.160012682968734" lon="10.606863935919252"><ele>154.0</ele><time>2026-05-03T13:41:36.001Z</time></trkpt><trkpt lat="43.16000421840682" lon="10.606760294740754"><ele>153.0</ele><time>2026-05-03T13:41:38.001Z</time></trkpt><trkpt lat="43.16001014296463" lon="10.606647626991988"><ele>152.0</ele><time>2026-05-03T13:41:40.001Z</time></trkpt><trkpt lat="43.160001159726136" lon="10.606517322993605"><ele>151.0</ele><time>2026-05-03T13:41:42.001Z</time></trkpt><trkpt lat="43.15999380126292" lon="10.60633875915595"><ele>151.0</ele><time>2026-05-03T13:41:44.001Z</time></trkpt><trkpt lat="43.16000114840886" lon="10.60624434049985"><ele>151.0</ele><time>2026-05-03T13:41:45.001Z</time></trkpt><trkpt lat="43.15999490484662" lon="10.606073956933114"><ele>151.0</ele><time>2026-05-03T13:41:47.001Z</time></trkpt><trkpt lat="43.15999130983755" lon="10.605978847438621"><ele>151.0</ele><time>2026-05-03T13:41:48.001Z</time></trkpt><trkpt lat="43.159984419695306" lon="10.605875795392501"><ele>151.0</ele><time>2026-05-03T13:41:49.001Z</time></trkpt><trkpt lat="43.15998292356149" lon="10.605784853129624"><ele>151.0</ele><time>2026-05-03T13:41:50.001Z</time></trkpt><trkpt lat="43.15998643135987" lon="10.605688720888647"><ele>150.0</ele><time>2026-05-03T13:41:51.001Z</time></trkpt><trkpt lat="43.15998687021674" lon="10.605587830631608"><ele>149.0</ele><time>2026-05-03T13:41:52.001Z</time></trkpt><trkpt lat="43.15997243881164" lon="10.6054683989165"><ele>148.0</ele><time>2026-05-03T13:41:53.001Z</time></trkpt><trkpt lat="43.15996999465948" lon="10.605346220447204"><ele>147.0</ele><time>2026-05-03T13:41:54.001Z</time></trkpt><trkpt lat="43.15996548811273" lon="10.605218470764536"><ele>146.0</ele><time>2026-05-03T13:41:55.001Z</time></trkpt><trkpt lat="43.159949718709655" lon="10.605120891159762"><ele>145.0</ele><time>2026-05-03T13:41:56.001Z</time></trkpt><trkpt lat="43.159912107724985" lon="10.605038032537637"><ele>143.0</ele><time>2026-05-03T13:41:57.001Z</time></trkpt><trkpt lat="43.159865989341625" lon="10.604950618664779"><ele>141.0</ele><time>2026-05-03T13:41:58.001Z</time></trkpt><trkpt lat="43.15980839431122" lon="10.604890880114242"><ele>139.0</ele><time>2026-05-03T13:41:59.001Z</time></trkpt><trkpt lat="43.159737874472015" lon="10.604850242542065"><ele>137.0</ele><time>2026-05-03T13:42:00.001Z</time></trkpt><trkpt lat="43.15965099713596" lon="10.60483281462917"><ele>135.0</ele><time>2026-05-03T13:42:01.001Z</time></trkpt><trkpt lat="43.159565550529585" lon="10.604858651354515"><ele>133.0</ele><time>2026-05-03T13:42:02.001Z</time></trkpt><trkpt lat="43.159481805374135" lon="10.604887957666156"><ele>133.0</ele><time>2026-05-03T13:42:03.001Z</time></trkpt><trkpt lat="43.15939944333121" lon="10.604975386910425"><ele>133.0</ele><time>2026-05-03T13:42:04.001Z</time></trkpt><trkpt lat="43.159345134820654" lon="10.605093319292997"><ele>133.0</ele><time>2026-05-03T13:42:05.001Z</time></trkpt><trkpt lat="43.1593250551116" lon="10.605233164503904"><ele>133.0</ele><time>2026-05-03T13:42:06.001Z</time></trkpt><trkpt lat="43.1593422693295" lon="10.6053885333156"><ele>133.0</ele><time>2026-05-03T13:42:07.001Z</time></trkpt><trkpt lat="43.15939879118047" lon="10.605550711497058"><ele>132.25</ele><time>2026-05-03T13:42:08.001Z</time></trkpt><trkpt lat="43.1594293740261" lon="10.605726518106012"><ele>131.5</ele><time>2026-05-03T13:42:09.001Z</time></trkpt><trkpt lat="43.15946399525718" lon="10.605877414301847"><ele>130.75</ele><time>2026-05-03T13:42:10.001Z</time></trkpt><trkpt lat="43.159488804191966" lon="10.606020678992362"><ele>130.0</ele><time>2026-05-03T13:42:11.001Z</time></trkpt><trkpt lat="43.159499615606215" lon="10.6061657297198"><ele>129.25</ele><time>2026-05-03T13:42:12.001Z</time></trkpt><trkpt lat="43.15949026957544" lon="10.606304040039904"><ele>128.5</ele><time>2026-05-03T13:42:13.001Z</time></trkpt><trkpt lat="43.159472461244924" lon="10.606464369489471"><ele>127.75</ele><time>2026-05-03T13:42:14.001Z</time></trkpt><trkpt lat="43.15944769940582" lon="10.606654934234772"><ele>127.0</ele><time>2026-05-03T13:42:15.001Z</time></trkpt><trkpt lat="43.159435547184195" lon="10.60683716896055"><ele>127.5</ele><time>2026-05-03T13:42:16.001Z</time></trkpt><trkpt lat="43.15943090384304" lon="10.607008448318162"><ele>128.0</ele><time>2026-05-03T13:42:17.001Z</time></trkpt><trkpt lat="43.15943112753925" lon="10.607177912309055"><ele>128.5</ele><time>2026-05-03T13:42:18.001Z</time></trkpt><trkpt lat="43.1594248769661" lon="10.607346716034442"><ele>129.0</ele><time>2026-05-03T13:42:19.001Z</time></trkpt><trkpt lat="43.15936396362737" lon="10.607505794119412"><ele>129.0</ele><time>2026-05-03T13:42:20.001Z</time></trkpt><trkpt lat="43.15930945716947" lon="10.607672649387542"><ele>129.0</ele><time>2026-05-03T13:42:21.001Z</time></trkpt><trkpt lat="43.159257282341194" lon="10.60783000340051"><ele>129.0</ele><time>2026-05-03T13:42:22.001Z</time></trkpt><trkpt lat="43.159220114236234" lon="10.60799053885046"><ele>129.0</ele><time>2026-05-03T13:42:23Z</time></trkpt><trkpt lat="43.159154292423956" lon="10.60812283502244"><ele>128.66666666666666</ele><time>2026-05-03T13:42:24Z</time></trkpt><trkpt lat="43.159081095963494" lon="10.60822666078399"><ele>128.33333333333334</ele><time>2026-05-03T13:42:25Z</time></trkpt><trkpt lat="43.159004410563384" lon="10.608305090726637"><ele>128.0</ele><time>2026-05-03T13:42:26Z</time></trkpt><trkpt lat="43.15892851109361" lon="10.608340793008157"><ele>127.66666666666667</ele><time>2026-05-03T13:42:27Z</time></trkpt><trkpt lat="43.1588464970427" lon="10.60833256018985"><ele>127.33333333333334</ele><time>2026-05-03T13:42:28Z</time></trkpt><trkpt lat="43.15877398202272" lon="10.608278547155855"><ele>127.0</ele><time>2026-05-03T13:42:29Z</time></trkpt><trkpt lat="43.158717400379906" lon="10.608185794035146"><ele>127.0</ele><time>2026-05-03T13:42:30Z</time></trkpt><trkpt lat="43.15869452102323" lon="10.60806562214562"><ele>126.99999999999999</ele><time>2026-05-03T13:42:31Z</time></trkpt><trkpt lat="43.1587135465891" lon="10.607946178462058"><ele>126.99999999999999</ele><time>2026-05-03T13:42:32Z</time></trkpt><trkpt lat="43.158767556590014" lon="10.60783611547108"><ele>127.0</ele><time>2026-05-03T13:42:33Z</time></trkpt><trkpt lat="43.158850523667795" lon="10.60772919387182"><ele>127.0</ele><time>2026-05-03T13:42:34Z</time></trkpt><trkpt lat="43.15895082726661" lon="10.607595190799206"><ele>127.0</ele><time>2026-05-03T13:42:35Z</time></trkpt><trkpt lat="43.15903644901914" lon="10.607448897469373"><ele>127.0</ele><time>2026-05-03T13:42:36Z</time></trkpt><trkpt lat="43.15909432259899" lon="10.607296384384036"><ele>127.0</ele><time>2026-05-03T13:42:37Z</time></trkpt><trkpt lat="43.15912083520831" lon="10.60713783267849"><ele>127.0</ele><time>2026-05-03T13:42:38Z</time></trkpt><trkpt lat="43.159110243309925" lon="10.606966167309098"><ele>127.0</ele><time>2026-05-03T13:42:39Z</time></trkpt><trkpt lat="43.15908024936269" lon="10.606786044592956"><ele>127.0</ele><time>2026-05-03T13:42:40Z</time></trkpt><trkpt lat="43.15904666929592" lon="10.60660976570539"><ele>127.0</ele><time>2026-05-03T13:42:41Z</time></trkpt><trkpt lat="43.15900922740268" lon="10.60644495702425"><ele>127.0</ele><time>2026-05-03T13:42:42Z</time></trkpt><trkpt lat="43.1589571347017" lon="10.60630095618427"><ele>122.25</ele><time>2026-05-03T13:42:43Z</time></trkpt><trkpt lat="43.158892428288986" lon="10.606163610210142"><ele>117.5</ele><time>2026-05-03T13:42:44Z</time></trkpt><trkpt lat="43.15881491898803" lon="10.606035406621688"><ele>112.75</ele><time>2026-05-03T13:42:45Z</time></trkpt><trkpt lat="43.158735078586304" lon="10.605896409660275"><ele>108.0</ele><time>2026-05-03T13:42:46Z</time></trkpt><trkpt lat="43.15865862728746" lon="10.605753710454636"><ele>107.75</ele><time>2026-05-03T13:42:47Z</time></trkpt><trkpt lat="43.15858914840783" lon="10.605601970282537"><ele>107.5</ele><time>2026-05-03T13:42:48Z</time></trkpt><trkpt lat="43.15852143613187" lon="10.605452384722257"><ele>107.25</ele><time>2026-05-03T13:42:49Z</time></trkpt><trkpt lat="43.1584605026217" lon="10.605307061271615"><ele>107.0</ele><time>2026-05-03T13:42:50Z</time></trkpt><trkpt lat="43.15840020060406" lon="10.60516563161359"><ele>107.8</ele><time>2026-05-03T13:42:51Z</time></trkpt><trkpt lat="43.15836230636089" lon="10.605019853555904"><ele>108.6</ele><time>2026-05-03T13:42:52Z</time></trkpt><trkpt lat="43.15835494699724" lon="10.604868546618755"><ele>109.39999999999999</ele><time>2026-05-03T13:42:53Z</time></trkpt><trkpt lat="43.1583740258557" lon="10.604722937318677"><ele>110.19999999999999</ele><time>2026-05-03T13:42:54Z</time></trkpt><trkpt lat="43.15841196186936" lon="10.604572883066243"><ele>111.0</ele><time>2026-05-03T13:42:55Z</time></trkpt><trkpt lat="43.15847839060506" lon="10.60442521494936"><ele>108.5</ele><time>2026-05-03T13:42:56Z</time></trkpt><trkpt lat="43.15856627673815" lon="10.60428038735882"><ele>106.0</ele><time>2026-05-03T13:42:57Z</time></trkpt><trkpt lat="43.158657988072065" lon="10.604147805637265"><ele>103.5</ele><time>2026-05-03T13:42:58Z</time></trkpt><trkpt lat="43.15875095828503" lon="10.604000889455438"><ele>101.0</ele><time>2026-05-03T13:42:59Z</time></trkpt><trkpt lat="43.15884327237104" lon="10.603858521979634"><ele>101.0</ele><time>2026-05-03T13:43:00Z</time></trkpt><trkpt lat="43.158952728710254" lon="10.60372150701686"><ele>101.0</ele><time>2026-05-03T13:43:01Z</time></trkpt><trkpt lat="43.15905831983833" lon="10.603594479818353"><ele>101.0</ele><time>2026-05-03T13:43:02Z</time></trkpt><trkpt lat="43.159158284023064" lon="10.603475033313533"><ele>101.0</ele><time>2026-05-03T13:43:03Z</time></trkpt><trkpt lat="43.15925697789899" lon="10.603360218767849"><ele>101.25</ele><time>2026-05-03T13:43:04Z</time></trkpt><trkpt lat="43.15934864041779" lon="10.603245166643616"><ele>101.5</ele><time>2026-05-03T13:43:05Z</time></trkpt><trkpt lat="43.15943453280669" lon="10.60312878582194"><ele>101.75</ele><time>2026-05-03T13:43:06Z</time></trkpt><trkpt lat="43.15952413974705" lon="10.60302756451621"><ele>102.0</ele><time>2026-05-03T13:43:07Z</time></trkpt><trkpt lat="43.159614879437214" lon="10.602962480171762"><ele>102.0</ele><time>2026-05-03T13:43:08Z</time></trkpt><trkpt lat="43.15970658909761" lon="10.602930368558356"><ele>102.0</ele><time>2026-05-03T13:43:09Z</time></trkpt><trkpt lat="43.1597997464864" lon="10.602935014180527"><ele>102.0</ele><time>2026-05-03T13:43:10Z</time></trkpt><trkpt lat="43.15987703497468" lon="10.603000469257172"><ele>102.0</ele><time>2026-05-03T13:43:11Z</time></trkpt><trkpt lat="43.15995602189657" lon="10.603079287144585"><ele>102.0</ele><time>2026-05-03T13:43:12Z</time></trkpt><trkpt lat="43.16005730485208" lon="10.60315865622282"><ele>101.75</ele><time>2026-05-03T13:43:13Z</time></trkpt><trkpt lat="43.16015581631595" lon="10.603268107068546"><ele>101.5</ele><time>2026-05-03T13:43:14Z</time></trkpt><trkpt lat="43.16025339353277" lon="10.603393338163146"><ele>101.25</ele><time>2026-05-03T13:43:15Z</time></trkpt><trkpt lat="43.16036514386707" lon="10.603478677669226"><ele>101.0</ele><time>2026-05-03T13:43:16Z</time></trkpt><trkpt lat="43.160489876276756" lon="10.603520274879067"><ele>101.0</ele><time>2026-05-03T13:43:17Z</time></trkpt><trkpt lat="43.160612315818646" lon="10.60356041990231"><ele>101.0</ele><time>2026-05-03T13:43:18Z</time></trkpt><trkpt lat="43.16073100930675" lon="10.603578107510886"><ele>101.0</ele><time>2026-05-03T13:43:19.001Z</time></trkpt><trkpt lat="43.16083906562511" lon="10.603610686045295"><ele>101.0</ele><time>2026-05-03T13:43:20.001Z</time></trkpt><trkpt lat="43.16093013270273" lon="10.60368950550441"><ele>101.75</ele><time>2026-05-03T13:43:21.001Z</time></trkpt><trkpt lat="43.161016346411856" lon="10.603799717733343"><ele>102.5</ele><time>2026-05-03T13:43:22.001Z</time></trkpt><trkpt lat="43.161089392916914" lon="10.603942541776195"><ele>103.25</ele><time>2026-05-03T13:43:23.001Z</time></trkpt><trkpt lat="43.16117533664519" lon="10.604077144303506"><ele>104.0</ele><time>2026-05-03T13:43:24.001Z</time></trkpt><trkpt lat="43.16127140016965" lon="10.604191392725996"><ele>104.0</ele><time>2026-05-03T13:43:25.001Z</time></trkpt><trkpt lat="43.161375235604716" lon="10.60426165879674"><ele>104.0</ele><time>2026-05-03T13:43:26.001Z</time></trkpt><trkpt lat="43.16149776228616" lon="10.604263686142607"><ele>104.0</ele><time>2026-05-03T13:43:27.001Z</time></trkpt><trkpt lat="43.1616281640174" lon="10.604247962032629"><ele>104.0</ele><time>2026-05-03T13:43:28.001Z</time></trkpt><trkpt lat="43.16174956547587" lon="10.604200793294838"><ele>101.0</ele><time>2026-05-03T13:43:29.001Z</time></trkpt><trkpt lat="43.16184427443536" lon="10.604128009595444"><ele>98.0</ele><time>2026-05-03T13:43:30.001Z</time></trkpt><trkpt lat="43.16191360083583" lon="10.604012317052902"><ele>95.0</ele><time>2026-05-03T13:43:31.001Z</time></trkpt><trkpt lat="43.161964842374324" lon="10.603859985826643"><ele>92.0</ele><time>2026-05-03T13:43:32.001Z</time></trkpt><trkpt lat="43.16201821487329" lon="10.603692669885216"><ele>89.0</ele><time>2026-05-03T13:43:33.001Z</time></trkpt><trkpt lat="43.16207517821693" lon="10.603523342257311"><ele>86.0</ele><time>2026-05-03T13:43:34.001Z</time></trkpt><trkpt lat="43.1621326721536" lon="10.60335367122173"><ele>83.0</ele><time>2026-05-03T13:43:35.001Z</time></trkpt><trkpt lat="43.16219087313938" lon="10.603196319390122"><ele>80.0</ele><time>2026-05-03T13:43:36.001Z</time></trkpt><trkpt lat="43.16226664217769" lon="10.603043435447622"><ele>80.0</ele><time>2026-05-03T13:43:37.001Z</time></trkpt><trkpt lat="43.16236357008269" lon="10.60290240876871"><ele>80.0</ele><time>2026-05-03T13:43:38.001Z</time></trkpt><trkpt lat="43.162473135858264" lon="10.60277512502725"><ele>80.0</ele><time>2026-05-03T13:43:39.001Z</time></trkpt><trkpt lat="43.16259112755381" lon="10.60267146424569"><ele>80.0</ele><time>2026-05-03T13:43:40.001Z</time></trkpt><trkpt lat="43.16271358570977" lon="10.60257639223143"><ele>79.25</ele><time>2026-05-03T13:43:41.001Z</time></trkpt><trkpt lat="43.162825881563435" lon="10.602486762439256"><ele>78.5</ele><time>2026-05-03T13:43:42.001Z</time></trkpt><trkpt lat="43.16293980406463" lon="10.602409790104462"><ele>77.75</ele><time>2026-05-03T13:43:43.001Z</time></trkpt><trkpt lat="43.16305158109589" lon="10.602351171011442"><ele>77.0</ele><time>2026-05-03T13:43:44.001Z</time></trkpt><trkpt lat="43.16314705108393" lon="10.602308772239619"><ele>77.5</ele><time>2026-05-03T13:43:45.001Z</time></trkpt><trkpt lat="43.16323634320687" lon="10.602286005041657"><ele>78.0</ele><time>2026-05-03T13:43:46.001Z</time></trkpt><trkpt lat="43.16331683212381" lon="10.60224929921089"><ele>78.5</ele><time>2026-05-03T13:43:47.001Z</time></trkpt><trkpt lat="43.16338343804979" lon="10.602178226615365"><ele>79.0</ele><time>2026-05-03T13:43:48.001Z</time></trkpt><trkpt lat="43.16342385850635" lon="10.602078181541925"><ele>79.5</ele><time>2026-05-03T13:43:49.001Z</time></trkpt><trkpt lat="43.1634310612974" lon="10.60197147367409"><ele>80.0</ele><time>2026-05-03T13:43:50.001Z</time></trkpt><trkpt lat="43.16340488617422" lon="10.601873210649588"><ele>78.16666666666667</ele><time>2026-05-03T13:43:51.001Z</time></trkpt><trkpt lat="43.1633486287591" lon="10.601794363883174"><ele>76.33333333333334</ele><time>2026-05-03T13:43:52.001Z</time></trkpt><trkpt lat="43.16326956111192" lon="10.601748860975702"><ele>74.5</ele><time>2026-05-03T13:43:53.001Z</time></trkpt><trkpt lat="43.163180792828626" lon="10.601739713954482"><ele>72.66666666666667</ele><time>2026-05-03T13:43:54.001Z</time></trkpt><trkpt lat="43.163096776626126" lon="10.601751981537355"><ele>70.83333333333333</ele><time>2026-05-03T13:43:55.001Z</time></trkpt><trkpt lat="43.16301744768303" lon="10.601752096307875"><ele>69.0</ele><time>2026-05-03T13:43:56.001Z</time></trkpt><trkpt lat="43.162941073441175" lon="10.601748816237263"><ele>68.85714285714286</ele><time>2026-05-03T13:43:57.001Z</time></trkpt><trkpt lat="43.16286673155454" lon="10.601746775168062"><ele>68.71428571428572</ele><time>2026-05-03T13:43:58.001Z</time></trkpt><trkpt lat="43.16279492135646" lon="10.601746039194468"><ele>68.57142857142857</ele><time>2026-05-03T13:43:59.001Z</time></trkpt><trkpt lat="43.16272602884422" lon="10.601722889520222"><ele>68.42857142857143</ele><time>2026-05-03T13:44:00.001Z</time></trkpt><trkpt lat="43.162665709571826" lon="10.601666017336468"><ele>68.28571428571428</ele><time>2026-05-03T13:44:01.001Z</time></trkpt><trkpt lat="43.16263429003986" lon="10.601575141855632"><ele>68.14285714285714</ele><time>2026-05-03T13:44:02.001Z</time></trkpt><trkpt lat="43.162611958024" lon="10.601491995581283"><ele>68.0</ele><time>2026-05-03T13:44:03.001Z</time></trkpt><trkpt lat="43.16267355825132" lon="10.601380207718504"><ele>68.0</ele><time>2026-05-03T13:44:04.001Z</time></trkpt><trkpt lat="43.16274009501179" lon="10.601294672701172"><ele>68.0</ele><time>2026-05-03T13:44:05.001Z</time></trkpt><trkpt lat="43.16281960308894" lon="10.601200487700401"><ele>68.0</ele><time>2026-05-03T13:44:06.001Z</time></trkpt><trkpt lat="43.16289832868791" lon="10.601097510002441"><ele>68.0</ele><time>2026-05-03T13:44:07.001Z</time></trkpt><trkpt lat="43.16297892633718" lon="10.600991567147403"><ele>68.0</ele><time>2026-05-03T13:44:08.001Z</time></trkpt><trkpt lat="43.16306402233574" lon="10.600887793993545"><ele>66.75</ele><time>2026-05-03T13:44:09.001Z</time></trkpt><trkpt lat="43.16314300472607" lon="10.60079016008749"><ele>65.5</ele><time>2026-05-03T13:44:10.001Z</time></trkpt><trkpt lat="43.16322998508334" lon="10.600680807139794"><ele>64.25</ele><time>2026-05-03T13:44:11.001Z</time></trkpt><trkpt lat="43.163311858841766" lon="10.600576947091152"><ele>63.0</ele><time>2026-05-03T13:44:12.001Z</time></trkpt><trkpt lat="43.163399175799" lon="10.600469200424088"><ele>62.5</ele><time>2026-05-03T13:44:13.001Z</time></trkpt><trkpt lat="43.163483382779724" lon="10.600364658995364"><ele>62.0</ele><time>2026-05-03T13:44:14.001Z</time></trkpt><trkpt lat="43.1635730584479" lon="10.600252310626228"><ele>61.5</ele><time>2026-05-03T13:44:15.001Z</time></trkpt><trkpt lat="43.16366276117184" lon="10.600139074712505"><ele>61.0</ele><time>2026-05-03T13:44:16.001Z</time></trkpt><trkpt lat="43.16375524859345" lon="10.600030806994974"><ele>60.0</ele><time>2026-05-03T13:44:17.001Z</time></trkpt><trkpt lat="43.16385064932002" lon="10.599912249290544"><ele>59.0</ele><time>2026-05-03T13:44:18.001Z</time></trkpt><trkpt lat="43.1639505575151" lon="10.599789534606796"><ele>58.0</ele><time>2026-05-03T13:44:19.001Z</time></trkpt><trkpt lat="43.16405213570915" lon="10.599666450901303"><ele>57.0</ele><time>2026-05-03T13:44:20.001Z</time></trkpt><trkpt lat="43.16415424350912" lon="10.599539730218753"><ele>55.0</ele><time>2026-05-03T13:44:21.001Z</time></trkpt><trkpt lat="43.164254349139775" lon="10.599409346467288"><ele>53.0</ele><time>2026-05-03T13:44:22.001Z</time></trkpt><trkpt lat="43.164353545617544" lon="10.599283094466294"><ele>51.0</ele><time>2026-05-03T13:44:23.001Z</time></trkpt><trkpt lat="43.16445523555018" lon="10.59915562487718"><ele>49.0</ele><time>2026-05-03T13:44:24.001Z</time></trkpt><trkpt lat="43.16456146492064" lon="10.599024559941359"><ele>49.0</ele><time>2026-05-03T13:44:25.001Z</time></trkpt><trkpt lat="43.16467157283911" lon="10.598891696166238"><ele>49.0</ele><time>2026-05-03T13:44:26.001Z</time></trkpt><trkpt lat="43.16478378854112" lon="10.598755171074203"><ele>49.0</ele><time>2026-05-03T13:44:27.001Z</time></trkpt><trkpt lat="43.164896337587884" lon="10.598617821382945"><ele>49.0</ele><time>2026-05-03T13:44:28.001Z</time></trkpt><trkpt lat="43.16500668658399" lon="10.598476018117132"><ele>48.0</ele><time>2026-05-03T13:44:29Z</time></trkpt><trkpt lat="43.16511264072169" lon="10.598330383379741"><ele>47.0</ele><time>2026-05-03T13:44:30Z</time></trkpt><trkpt lat="43.16521337915668" lon="10.598180152085371"><ele>46.0</ele><time>2026-05-03T13:44:31Z</time></trkpt><trkpt lat="43.1653137532691" lon="10.598025026027393"><ele>46.0</ele><time>2026-05-03T13:44:32Z</time></trkpt><trkpt lat="43.165415809136206" lon="10.597871813333235"><ele>46.0</ele><time>2026-05-03T13:44:33Z</time></trkpt><trkpt lat="43.16551576527925" lon="10.597720760364417"><ele>46.0</ele><time>2026-05-03T13:44:34Z</time></trkpt><trkpt lat="43.16561494029493" lon="10.597569030463934"><ele>46.0</ele><time>2026-05-03T13:44:35Z</time></trkpt><trkpt lat="43.165714868112296" lon="10.597415213365414"><ele>45.66666666666667</ele><time>2026-05-03T13:44:36Z</time></trkpt><trkpt lat="43.165816990252324" lon="10.597263211499968"><ele>45.333333333333336</ele><time>2026-05-03T13:44:37Z</time></trkpt><trkpt lat="43.16592079760029" lon="10.597112869626393"><ele>45.0</ele><time>2026-05-03T13:44:38Z</time></trkpt><trkpt lat="43.166019786037204" lon="10.596960394029693"><ele>45.0</ele><time>2026-05-03T13:44:39Z</time></trkpt><trkpt lat="43.1661213284196" lon="10.596810990452465"><ele>45.0</ele><time>2026-05-03T13:44:40Z</time></trkpt><trkpt lat="43.16622276382849" lon="10.596663228004571"><ele>45.0</ele><time>2026-05-03T13:44:41Z</time></trkpt><trkpt lat="43.16632192941706" lon="10.596515791811788"><ele>45.0</ele><time>2026-05-03T13:44:42Z</time></trkpt><trkpt lat="43.16642124438055" lon="10.59636931209433"><ele>45.0</ele><time>2026-05-03T13:44:43Z</time></trkpt><trkpt lat="43.166514304036156" lon="10.596221521398784"><ele>45.0</ele><time>2026-05-03T13:44:44Z</time></trkpt><trkpt lat="43.166598258540326" lon="10.596070199931184"><ele>45.0</ele><time>2026-05-03T13:44:45Z</time></trkpt><trkpt lat="43.1666735770078" lon="10.595918677579228"><ele>45.0</ele><time>2026-05-03T13:44:46Z</time></trkpt><trkpt lat="43.16673465961065" lon="10.595747014572257"><ele>44.5</ele><time>2026-05-03T13:44:47Z</time></trkpt><trkpt lat="43.16677857862871" lon="10.59555745605815"><ele>44.0</ele><time>2026-05-03T13:44:48Z</time></trkpt><trkpt lat="43.166799309517" lon="10.595359806736697"><ele>43.5</ele><time>2026-05-03T13:44:49Z</time></trkpt><trkpt lat="43.166801096280764" lon="10.595154033303267"><ele>43.0</ele><time>2026-05-03T13:44:50Z</time></trkpt><trkpt lat="43.16678674335951" lon="10.594945580660081"><ele>42.5</ele><time>2026-05-03T13:44:51Z</time></trkpt><trkpt lat="43.16676616896684" lon="10.594756897286386"><ele>42.0</ele><time>2026-05-03T13:44:52Z</time></trkpt><trkpt lat="43.16674464583931" lon="10.594569618030512"><ele>41.5</ele><time>2026-05-03T13:44:53Z</time></trkpt><trkpt lat="43.166737530697965" lon="10.594375198418282"><ele>41.0</ele><time>2026-05-03T13:44:54Z</time></trkpt><trkpt lat="43.16673099351654" lon="10.59417736522769"><ele>41.0</ele><time>2026-05-03T13:44:55Z</time></trkpt><trkpt lat="43.16673463865544" lon="10.593971089734396"><ele>41.0</ele><time>2026-05-03T13:44:56Z</time></trkpt><trkpt lat="43.16674742109546" lon="10.593773903688447"><ele>41.0</ele><time>2026-05-03T13:44:57Z</time></trkpt><trkpt lat="43.166765220091385" lon="10.593581553042524"><ele>41.0</ele><time>2026-05-03T13:44:58Z</time></trkpt><trkpt lat="43.16678802579826" lon="10.593394574669388"><ele>41.0</ele><time>2026-05-03T13:44:59Z</time></trkpt><trkpt lat="43.166811774064335" lon="10.593209430341306"><ele>41.0</ele><time>2026-05-03T13:45:00Z</time></trkpt><trkpt lat="43.16683187784444" lon="10.593030587981767"><ele>41.0</ele><time>2026-05-03T13:45:01Z</time></trkpt><trkpt lat="43.16684837624837" lon="10.59285257098259"><ele>41.0</ele><time>2026-05-03T13:45:02Z</time></trkpt><trkpt lat="43.166866850389944" lon="10.592669136191617"><ele>41.0</ele><time>2026-05-03T13:45:03Z</time></trkpt><trkpt lat="43.16689631397206" lon="10.592489993704458"><ele>41.0</ele><time>2026-05-03T13:45:04Z</time></trkpt><trkpt lat="43.16693698835691" lon="10.592313050646835"><ele>41.0</ele><time>2026-05-03T13:45:05Z</time></trkpt><trkpt lat="43.166988035828055" lon="10.59213617531731"><ele>41.0</ele><time>2026-05-03T13:45:06Z</time></trkpt><trkpt lat="43.1670414638128" lon="10.59196317710575"><ele>41.0</ele><time>2026-05-03T13:45:07Z</time></trkpt><trkpt lat="43.16709542957333" lon="10.591792067622393"><ele>41.0</ele><time>2026-05-03T13:45:08Z</time></trkpt><trkpt lat="43.167147197518005" lon="10.591614418113357"><ele>41.0</ele><time>2026-05-03T13:45:09Z</time></trkpt><trkpt lat="43.16719942115035" lon="10.591435545897971"><ele>41.0</ele><time>2026-05-03T13:45:10Z</time></trkpt><trkpt lat="43.16725387838763" lon="10.591257544791775"><ele>40.75</ele><time>2026-05-03T13:45:11Z</time></trkpt><trkpt lat="43.16730986850746" lon="10.591082231576317"><ele>40.5</ele><time>2026-05-03T13:45:12Z</time></trkpt><trkpt lat="43.167363700544" lon="10.590906214968713"><ele>40.25</ele><time>2026-05-03T13:45:13Z</time></trkpt><trkpt lat="43.1674158246313" lon="10.590729584845102"><ele>40.0</ele><time>2026-05-03T13:45:14Z</time></trkpt><trkpt lat="43.16746689253579" lon="10.59055383967237"><ele>39.5</ele><time>2026-05-03T13:45:15Z</time></trkpt><trkpt lat="43.16751028893374" lon="10.590386765902691"><ele>39.0</ele><time>2026-05-03T13:45:16Z</time></trkpt><trkpt lat="43.16755811169879" lon="10.590228504697688"><ele>38.5</ele><time>2026-05-03T13:45:17Z</time></trkpt><trkpt lat="43.16760887940454" lon="10.590061785265721"><ele>38.0</ele><time>2026-05-03T13:45:18Z</time></trkpt><trkpt lat="43.16766123570663" lon="10.58989381665652"><ele>38.0</ele><time>2026-05-03T13:45:19Z</time></trkpt><trkpt lat="43.167715593330925" lon="10.589725971197543"><ele>38.0</ele><time>2026-05-03T13:45:20Z</time></trkpt><trkpt lat="43.16777382486136" lon="10.589558491063524"><ele>38.0</ele><time>2026-05-03T13:45:21Z</time></trkpt><trkpt lat="43.16784017710459" lon="10.589390896242953"><ele>38.0</ele><time>2026-05-03T13:45:22Z</time></trkpt><trkpt lat="43.16791626756186" lon="10.589245950703098"><ele>37.75</ele><time>2026-05-03T13:45:23Z</time></trkpt><trkpt lat="43.16799652573108" lon="10.589118044917784"><ele>37.5</ele><time>2026-05-03T13:45:24Z</time></trkpt><trkpt lat="43.16807310205514" lon="10.588986615374765"><ele>37.25</ele><time>2026-05-03T13:45:25Z</time></trkpt><trkpt lat="43.168146215721755" lon="10.58883947320156"><ele>37.0</ele><time>2026-05-03T13:45:26Z</time></trkpt><trkpt lat="43.168210602982676" lon="10.588684217868936"><ele>37.5</ele><time>2026-05-03T13:45:27Z</time></trkpt><trkpt lat="43.16825963576117" lon="10.588513667385962"><ele>38.0</ele><time>2026-05-03T13:45:28Z</time></trkpt><trkpt lat="43.16829814603297" lon="10.588333886592036"><ele>38.5</ele><time>2026-05-03T13:45:29Z</time></trkpt><trkpt lat="43.16832449101365" lon="10.58814306573036"><ele>39.0</ele><time>2026-05-03T13:45:30Z</time></trkpt><trkpt lat="43.16834416903985" lon="10.587949502980802"><ele>38.75</ele><time>2026-05-03T13:45:31Z</time></trkpt><trkpt lat="43.1683617492324" lon="10.587752617756516"><ele>38.5</ele><time>2026-05-03T13:45:32Z</time></trkpt><trkpt lat="43.168382243693735" lon="10.587564416793787"><ele>38.25</ele><time>2026-05-03T13:45:33Z</time></trkpt><trkpt lat="43.16840120492573" lon="10.587379830537392"><ele>38.0</ele><time>2026-05-03T13:45:34Z</time></trkpt><trkpt lat="43.16842319633595" lon="10.587187860875497"><ele>37.75</ele><time>2026-05-03T13:45:35Z</time></trkpt><trkpt lat="43.16844528132479" lon="10.586998893179544"><ele>37.5</ele><time>2026-05-03T13:45:36.001Z</time></trkpt><trkpt lat="43.168465540803425" lon="10.586805122231258"><ele>37.25</ele><time>2026-05-03T13:45:37.001Z</time></trkpt><trkpt lat="43.16848927363936" lon="10.586611099013721"><ele>37.0</ele><time>2026-05-03T13:45:38.001Z</time></trkpt><trkpt lat="43.1685122787454" lon="10.586419981269682"><ele>37.0</ele><time>2026-05-03T13:45:39.001Z</time></trkpt><trkpt lat="43.16853160889177" lon="10.586230356525881"><ele>37.0</ele><time>2026-05-03T13:45:40.001Z</time></trkpt><trkpt lat="43.16855304955961" lon="10.586040954601843"><ele>37.0</ele><time>2026-05-03T13:45:41.001Z</time></trkpt><trkpt lat="43.16857534724084" lon="10.585855872694182"><ele>37.0</ele><time>2026-05-03T13:45:42.001Z</time></trkpt><trkpt lat="43.1685976366846" lon="10.585671613920459"><ele>36.75</ele><time>2026-05-03T13:45:43.001Z</time></trkpt><trkpt lat="43.1686149818568" lon="10.58548845196834"><ele>36.5</ele><time>2026-05-03T13:45:44.001Z</time></trkpt><trkpt lat="43.16863354696023" lon="10.585306334813513"><ele>36.25</ele><time>2026-05-03T13:45:45.001Z</time></trkpt><trkpt lat="43.16865128285777" lon="10.58512488699094"><ele>36.0</ele><time>2026-05-03T13:45:46.001Z</time></trkpt><trkpt lat="43.16867339434416" lon="10.584946375343941"><ele>36.0</ele><time>2026-05-03T13:45:47.001Z</time></trkpt><trkpt lat="43.16869724219532" lon="10.584758948091064"><ele>36.0</ele><time>2026-05-03T13:45:48.001Z</time></trkpt><trkpt lat="43.16871915272978" lon="10.584566595268917"><ele>36.0</ele><time>2026-05-03T13:45:49.001Z</time></trkpt><trkpt lat="43.168739063915" lon="10.58436829351547"><ele>36.0</ele><time>2026-05-03T13:45:50.001Z</time></trkpt><trkpt lat="43.16876250956634" lon="10.584163396269426"><ele>36.0</ele><time>2026-05-03T13:45:51.001Z</time></trkpt><trkpt lat="43.1687859842735" lon="10.583956604722955"><ele>36.0</ele><time>2026-05-03T13:45:52.001Z</time></trkpt><trkpt lat="43.16881017966552" lon="10.583748056797427"><ele>36.0</ele><time>2026-05-03T13:45:53.001Z</time></trkpt><trkpt lat="43.168833446348835" lon="10.583541303165447"><ele>36.0</ele><time>2026-05-03T13:45:54.001Z</time></trkpt><trkpt lat="43.168855214164815" lon="10.583338539660684"><ele>36.0</ele><time>2026-05-03T13:45:55.001Z</time></trkpt><trkpt lat="43.16888112706478" lon="10.58314057094967"><ele>36.0</ele><time>2026-05-03T13:45:56.001Z</time></trkpt><trkpt lat="43.168907648065286" lon="10.582948594296713"><ele>36.0</ele><time>2026-05-03T13:45:57.001Z</time></trkpt><trkpt lat="43.16893118931058" lon="10.582754301285423"><ele>36.5</ele><time>2026-05-03T13:45:58.001Z</time></trkpt><trkpt lat="43.168958282206106" lon="10.582562256407233"><ele>37.0</ele><time>2026-05-03T13:45:59.001Z</time></trkpt><trkpt lat="43.16898202599428" lon="10.582369111839812"><ele>37.5</ele><time>2026-05-03T13:46:00.001Z</time></trkpt><trkpt lat="43.169008837933546" lon="10.582178044980958"><ele>38.0</ele><time>2026-05-03T13:46:01.001Z</time></trkpt><trkpt lat="43.16903198172432" lon="10.581986139247133"><ele>36.5</ele><time>2026-05-03T13:46:02.001Z</time></trkpt><trkpt lat="43.16905828389043" lon="10.581794358091699"><ele>35.0</ele><time>2026-05-03T13:46:03.001Z</time></trkpt><trkpt lat="43.16908766355656" lon="10.581605764921838"><ele>33.5</ele><time>2026-05-03T13:46:04.001Z</time></trkpt><trkpt lat="43.169116635095925" lon="10.581413575393215"><ele>32.0</ele><time>2026-05-03T13:46:05.001Z</time></trkpt><trkpt lat="43.16914553728278" lon="10.581220040585775"><ele>31.5</ele><time>2026-05-03T13:46:06.001Z</time></trkpt><trkpt lat="43.16917724635262" lon="10.581030365688125"><ele>31.0</ele><time>2026-05-03T13:46:07.001Z</time></trkpt><trkpt lat="43.16921040907927" lon="10.58084908024203"><ele>30.5</ele><time>2026-05-03T13:46:08.001Z</time></trkpt><trkpt lat="43.169246637225115" lon="10.580660401498731"><ele>30.0</ele><time>2026-05-03T13:46:09.001Z</time></trkpt><trkpt lat="43.16927934882944" lon="10.580475534523773"><ele>30.0</ele><time>2026-05-03T13:46:10.001Z</time></trkpt><trkpt lat="43.169314499364816" lon="10.580285839589722"><ele>30.0</ele><time>2026-05-03T13:46:11.001Z</time></trkpt><trkpt lat="43.16935118783963" lon="10.580096383632913"><ele>30.0</ele><time>2026-05-03T13:46:12.001Z</time></trkpt><trkpt lat="43.169385410422" lon="10.579905802467412"><ele>30.0</ele><time>2026-05-03T13:46:13.001Z</time></trkpt><trkpt lat="43.169418720313736" lon="10.579716590327541"><ele>30.0</ele><time>2026-05-03T13:46:14.001Z</time></trkpt><trkpt lat="43.1694531326469" lon="10.579526112193442"><ele>30.0</ele><time>2026-05-03T13:46:15.001Z</time></trkpt><trkpt lat="43.16949459548053" lon="10.579334265052994"><ele>30.0</ele><time>2026-05-03T13:46:16.001Z</time></trkpt><trkpt lat="43.169543839273416" lon="10.579147560895771"><ele>30.0</ele><time>2026-05-03T13:46:17.001Z</time></trkpt><trkpt lat="43.169608238869955" lon="10.578970333606318"><ele>30.0</ele><time>2026-05-03T13:46:18.001Z</time></trkpt><trkpt lat="43.169690611158515" lon="10.57880700549062"><ele>30.0</ele><time>2026-05-03T13:46:19.001Z</time></trkpt><trkpt lat="43.16978738817327" lon="10.578658600411165"><ele>30.0</ele><time>2026-05-03T13:46:20.001Z</time></trkpt><trkpt lat="43.16988980650615" lon="10.578511708545948"><ele>30.0</ele><time>2026-05-03T13:46:21.001Z</time></trkpt><trkpt lat="43.169990714873975" lon="10.57834998078825"><ele>29.666666666666664</ele><time>2026-05-03T13:46:22.001Z</time></trkpt><trkpt lat="43.17009282812948" lon="10.578191481678127"><ele>29.333333333333332</ele><time>2026-05-03T13:46:23.001Z</time></trkpt><trkpt lat="43.17019476808478" lon="10.578031624990373"><ele>29.0</ele><time>2026-05-03T13:46:24.001Z</time></trkpt><trkpt lat="43.17029903932568" lon="10.577874374587116"><ele>28.666666666666664</ele><time>2026-05-03T13:46:25.001Z</time></trkpt><trkpt lat="43.1704016896167" lon="10.577717507201669"><ele>28.333333333333336</ele><time>2026-05-03T13:46:26.001Z</time></trkpt><trkpt lat="43.170503505817884" lon="10.577562026959123"><ele>28.0</ele><time>2026-05-03T13:46:27.001Z</time></trkpt><trkpt lat="43.17060077790715" lon="10.577412809764997"><ele>27.75</ele><time>2026-05-03T13:46:28.001Z</time></trkpt><trkpt lat="43.17069739016784" lon="10.577263430666681"><ele>27.5</ele><time>2026-05-03T13:46:29.001Z</time></trkpt><trkpt lat="43.170795013782346" lon="10.577113427580045"><ele>27.25</ele><time>2026-05-03T13:46:30.001Z</time></trkpt><trkpt lat="43.170892099686355" lon="10.576961822731704"><ele>27.0</ele><time>2026-05-03T13:46:31.001Z</time></trkpt><trkpt lat="43.1709883825502" lon="10.576810947161677"><ele>26.75</ele><time>2026-05-03T13:46:32.001Z</time></trkpt><trkpt lat="43.17108243180688" lon="10.576669403769523"><ele>26.5</ele><time>2026-05-03T13:46:33.001Z</time></trkpt><trkpt lat="43.17117111770367" lon="10.576534855210998"><ele>26.25</ele><time>2026-05-03T13:46:34.001Z</time></trkpt><trkpt lat="43.17126448214627" lon="10.576396615303096"><ele>26.0</ele><time>2026-05-03T13:46:35Z</time></trkpt><trkpt lat="43.17135707441329" lon="10.576255707453367"><ele>26.0</ele><time>2026-05-03T13:46:36Z</time></trkpt><trkpt lat="43.17144488722231" lon="10.5761119462574"><ele>26.0</ele><time>2026-05-03T13:46:37Z</time></trkpt><trkpt lat="43.17153303038808" lon="10.575980612357357"><ele>26.0</ele><time>2026-05-03T13:46:38Z</time></trkpt><trkpt lat="43.171621875923556" lon="10.575869257829726"><ele>26.0</ele><time>2026-05-03T13:46:39Z</time></trkpt><trkpt lat="43.171707708084455" lon="10.575772100896843"><ele>25.75</ele><time>2026-05-03T13:46:40Z</time></trkpt><trkpt lat="43.17179580037933" lon="10.575688559338687"><ele>25.5</ele><time>2026-05-03T13:46:41Z</time></trkpt><trkpt lat="43.17188576474016" lon="10.575618698906931"><ele>25.25</ele><time>2026-05-03T13:46:42Z</time></trkpt><trkpt lat="43.17198722110171" lon="10.575530372068657"><ele>25.0</ele><time>2026-05-03T13:46:43Z</time></trkpt><trkpt lat="43.1720860312554" lon="10.575412316520238"><ele>25.0</ele><time>2026-05-03T13:46:44Z</time></trkpt><trkpt lat="43.17219707048245" lon="10.575295666094286"><ele>25.0</ele><time>2026-05-03T13:46:45Z</time></trkpt><trkpt lat="43.17231664754531" lon="10.575197886484665"><ele>25.0</ele><time>2026-05-03T13:46:46Z</time></trkpt><trkpt lat="43.17243883317433" lon="10.575091760287034"><ele>25.0</ele><time>2026-05-03T13:46:47Z</time></trkpt><trkpt lat="43.17256363108624" lon="10.574977244439667"><ele>25.0</ele><time>2026-05-03T13:46:48Z</time></trkpt><trkpt lat="43.17268174835646" lon="10.5748672145635"><ele>25.0</ele><time>2026-05-03T13:46:49Z</time></trkpt><trkpt lat="43.172805312718395" lon="10.57475464388445"><ele>25.0</ele><time>2026-05-03T13:46:50Z</time></trkpt><trkpt lat="43.172932534607945" lon="10.574641128019033"><ele>25.0</ele><time>2026-05-03T13:46:51Z</time></trkpt><trkpt lat="43.17306065506443" lon="10.57452532491088"><ele>25.0</ele><time>2026-05-03T13:46:52Z</time></trkpt><trkpt lat="43.173190190212786" lon="10.574407607961835"><ele>25.0</ele><time>2026-05-03T13:46:53Z</time></trkpt><trkpt lat="43.173317154958816" lon="10.574291247454612"><ele>25.0</ele><time>2026-05-03T13:46:54Z</time></trkpt><trkpt lat="43.17344209241887" lon="10.574175861271813"><ele>25.0</ele><time>2026-05-03T13:46:55Z</time></trkpt><trkpt lat="43.173565526682715" lon="10.574061719005908"><ele>25.0</ele><time>2026-05-03T13:46:56Z</time></trkpt><trkpt lat="43.173687194668624" lon="10.573949528787875"><ele>25.0</ele><time>2026-05-03T13:46:57Z</time></trkpt><trkpt lat="43.17381010409985" lon="10.573837675945494"><ele>25.0</ele><time>2026-05-03T13:46:58Z</time></trkpt><trkpt lat="43.17392983954748" lon="10.573729283808696"><ele>24.5</ele><time>2026-05-03T13:46:59Z</time></trkpt><trkpt lat="43.174044722625524" lon="10.573624391046724"><ele>24.0</ele><time>2026-05-03T13:47:00Z</time></trkpt><trkpt lat="43.17415619399909" lon="10.573524073662359"><ele>23.5</ele><time>2026-05-03T13:47:01Z</time></trkpt><trkpt lat="43.174268011401445" lon="10.573419956975544"><ele>23.0</ele><time>2026-05-03T13:47:02Z</time></trkpt><trkpt lat="43.17438196680678" lon="10.573313275588806"><ele>23.0</ele><time>2026-05-03T13:47:03Z</time></trkpt><trkpt lat="43.17449782675224" lon="10.573204900903567"><ele>23.0</ele><time>2026-05-03T13:47:04Z</time></trkpt><trkpt lat="43.174616292408174" lon="10.573098524006284"><ele>23.0</ele><time>2026-05-03T13:47:05Z</time></trkpt><trkpt lat="43.174738426238534" lon="10.572989929641743"><ele>23.0</ele><time>2026-05-03T13:47:06Z</time></trkpt><trkpt lat="43.17486136790377" lon="10.572876515596818"><ele>22.666666666666668</ele><time>2026-05-03T13:47:07Z</time></trkpt><trkpt lat="43.174984304631806" lon="10.572761361129894"><ele>22.333333333333332</ele><time>2026-05-03T13:47:08Z</time></trkpt><trkpt lat="43.17511065019242" lon="10.572647759771334"><ele>22.0</ele><time>2026-05-03T13:47:09Z</time></trkpt><trkpt lat="43.17523617220266" lon="10.57253474989478"><ele>22.0</ele><time>2026-05-03T13:47:10Z</time></trkpt><trkpt lat="43.17535769712694" lon="10.572421091512517"><ele>22.0</ele><time>2026-05-03T13:47:11Z</time></trkpt><trkpt lat="43.17547958204595" lon="10.572305330014387"><ele>22.0</ele><time>2026-05-03T13:47:12Z</time></trkpt><trkpt lat="43.1756041012743" lon="10.572188462590532"><ele>22.0</ele><time>2026-05-03T13:47:13Z</time></trkpt><trkpt lat="43.17572914740567" lon="10.572077041825086"><ele>21.666666666666664</ele><time>2026-05-03T13:47:14Z</time></trkpt><trkpt lat="43.175857410138846" lon="10.571958565621083"><ele>21.333333333333332</ele><time>2026-05-03T13:47:15Z</time></trkpt><trkpt lat="43.17598535499684" lon="10.57184248235255"><ele>21.0</ele><time>2026-05-03T13:47:16Z</time></trkpt><trkpt lat="43.17611498393774" lon="10.571723133611567"><ele>21.0</ele><time>2026-05-03T13:47:17Z</time></trkpt><trkpt lat="43.17624649385429" lon="10.571601927002414"><ele>21.0</ele><time>2026-05-03T13:47:18Z</time></trkpt><trkpt lat="43.176376588098115" lon="10.571485263435532"><ele>21.0</ele><time>2026-05-03T13:47:19Z</time></trkpt><trkpt lat="43.17650652010989" lon="10.571366320138017"><ele>20.333333333333332</ele><time>2026-05-03T13:47:20Z</time></trkpt><trkpt lat="43.1766360090372" lon="10.571247347702483"><ele>19.666666666666664</ele><time>2026-05-03T13:47:21Z</time></trkpt><trkpt lat="43.17675739956891" lon="10.571137293117395"><ele>19.0</ele><time>2026-05-03T13:47:22Z</time></trkpt><trkpt lat="43.17688011998468" lon="10.571023142936488"><ele>18.666666666666664</ele><time>2026-05-03T13:47:23Z</time></trkpt><trkpt lat="43.17700524725816" lon="10.57090517008138"><ele>18.333333333333332</ele><time>2026-05-03T13:47:24Z</time></trkpt><trkpt lat="43.17712995832706" lon="10.570792563898152"><ele>18.0</ele><time>2026-05-03T13:47:25Z</time></trkpt><trkpt lat="43.177253162305355" lon="10.570679010382655"><ele>18.0</ele><time>2026-05-03T13:47:26Z</time></trkpt><trkpt lat="43.17737360297493" lon="10.570568521246392"><ele>18.0</ele><time>2026-05-03T13:47:27Z</time></trkpt><trkpt lat="43.177493184893265" lon="10.570456701265453"><ele>18.0</ele><time>2026-05-03T13:47:28Z</time></trkpt><trkpt lat="43.177612859861725" lon="10.570346471436663"><ele>18.0</ele><time>2026-05-03T13:47:29Z</time></trkpt><trkpt lat="43.177728908256256" lon="10.570237098535111"><ele>17.75</ele><time>2026-05-03T13:47:30Z</time></trkpt><trkpt lat="43.17784819408037" lon="10.570130892889766"><ele>17.5</ele><time>2026-05-03T13:47:31Z</time></trkpt><trkpt lat="43.1779678416128" lon="10.570023685048909"><ele>17.25</ele><time>2026-05-03T13:47:32Z</time></trkpt><trkpt lat="43.178084925888975" lon="10.5699095537703"><ele>17.0</ele><time>2026-05-03T13:47:33Z</time></trkpt><trkpt lat="43.17819317004449" lon="10.569780171701908"><ele>17.0</ele><time>2026-05-03T13:47:34Z</time></trkpt><trkpt lat="43.17828849252847" lon="10.569634339477977"><ele>17.0</ele><time>2026-05-03T13:47:35Z</time></trkpt><trkpt lat="43.17837922753016" lon="10.569482321387794"><ele>17.0</ele><time>2026-05-03T13:47:36Z</time></trkpt><trkpt lat="43.17846092230454" lon="10.569339644552164"><ele>17.0</ele><time>2026-05-03T13:47:37Z</time></trkpt><trkpt lat="43.17854035728495" lon="10.56920901313314"><ele>17.5</ele><time>2026-05-03T13:47:38Z</time></trkpt><trkpt lat="43.178616434694675" lon="10.569085058734812"><ele>18.0</ele><time>2026-05-03T13:47:39Z</time></trkpt><trkpt lat="43.17868860070521" lon="10.56896377344738"><ele>18.5</ele><time>2026-05-03T13:47:40Z</time></trkpt><trkpt lat="43.17875978702411" lon="10.568838283824498"><ele>19.0</ele><time>2026-05-03T13:47:41Z</time></trkpt><trkpt lat="43.17883019157265" lon="10.568719439614512"><ele>18.8</ele><time>2026-05-03T13:47:42Z</time></trkpt><trkpt lat="43.17889899377559" lon="10.568610681904314"><ele>18.599999999999998</ele><time>2026-05-03T13:47:43.001Z</time></trkpt><trkpt lat="43.17896342700872" lon="10.568506172062614"><ele>18.4</ele><time>2026-05-03T13:47:44.001Z</time></trkpt><trkpt lat="43.17902481418321" lon="10.568396867724708"><ele>18.2</ele><time>2026-05-03T13:47:45.001Z</time></trkpt><trkpt lat="43.17909066741999" lon="10.568285884162202"><ele>18.0</ele><time>2026-05-03T13:47:46.001Z</time></trkpt><trkpt lat="43.17914651032518" lon="10.568201758002663"><ele>18.0</ele><time>2026-05-03T13:47:47.001Z</time></trkpt><trkpt lat="43.17919875631571" lon="10.568111709826287"><ele>18.0</ele><time>2026-05-03T13:47:48.001Z</time></trkpt><trkpt lat="43.179246309206185" lon="10.568029232783134"><ele>18.0</ele><time>2026-05-03T13:47:49.001Z</time></trkpt><trkpt lat="43.17929009927994" lon="10.567946045222396"><ele>18.0</ele><time>2026-05-03T13:47:50.001Z</time></trkpt><trkpt lat="43.1793394596061" lon="10.567852532822963"><ele>18.0</ele><time>2026-05-03T13:47:51.001Z</time></trkpt><trkpt lat="43.17939385763212" lon="10.567760937849068"><ele>18.0</ele><time>2026-05-03T13:47:52.001Z</time></trkpt><trkpt lat="43.17944242307045" lon="10.56763411803588"><ele>18.0</ele><time>2026-05-03T13:47:54.001Z</time></trkpt><trkpt lat="43.17949586701895" lon="10.567564180137685"><ele>18.0</ele><time>2026-05-03T13:47:57.001Z</time></trkpt><trkpt lat="43.17941367802637" lon="10.56741421219753"><ele>18.0</ele><time>2026-05-03T13:48:04.001Z</time></trkpt><trkpt lat="43.17936249507276" lon="10.567325392137755"><ele>18.0</ele><time>2026-05-03T13:48:17.001Z</time></trkpt><trkpt lat="43.17927153807478" lon="10.567242461507242"><ele>18.0</ele><time>2026-05-03T13:48:19.001Z</time></trkpt><trkpt lat="43.179207749873555" lon="10.567255957860537"><ele>18.0</ele><time>2026-05-03T13:48:20.001Z</time></trkpt><trkpt lat="43.17909649230091" lon="10.567269601077786"><ele>18.0</ele><time>2026-05-03T13:48:22.001Z</time></trkpt><trkpt lat="43.17900907054591" lon="10.567288949110601"><ele>18.0</ele><time>2026-05-03T13:48:23.001Z</time></trkpt><trkpt lat="43.17892813364504" lon="10.567296062636649"><ele>18.0</ele><time>2026-05-03T13:48:24.001Z</time></trkpt><trkpt lat="43.17885767115644" lon="10.567305657943868"><ele>18.0</ele><time>2026-05-03T13:48:25.001Z</time></trkpt><trkpt lat="43.178787410433536" lon="10.567298338102725"><ele>18.0</ele><time>2026-05-03T13:48:26.001Z</time></trkpt><trkpt lat="43.178692096307536" lon="10.567312997797915"><ele>17.666666666666668</ele><time>2026-05-03T13:48:27.001Z</time></trkpt><trkpt lat="43.17862637653887" lon="10.567327770460015"><ele>17.333333333333332</ele><time>2026-05-03T13:48:28.001Z</time></trkpt><trkpt lat="43.17855063852255" lon="10.567343073782217"><ele>17.0</ele><time>2026-05-03T13:48:29.001Z</time></trkpt><trkpt lat="43.17848182485609" lon="10.567342905867505"><ele>16.666666666666664</ele><time>2026-05-03T13:48:30.001Z</time></trkpt><trkpt lat="43.17839076767481" lon="10.567352191785185"><ele>16.333333333333332</ele><time>2026-05-03T13:48:31.001Z</time></trkpt><trkpt lat="43.17830808675013" lon="10.567353995311546"><ele>16.0</ele><time>2026-05-03T13:48:32.001Z</time></trkpt><trkpt lat="43.178218560829535" lon="10.567353934153358"><ele>16.400000000000002</ele><time>2026-05-03T13:48:33.001Z</time></trkpt><trkpt lat="43.1781297691573" lon="10.567332285726561"><ele>16.8</ele><time>2026-05-03T13:48:34.001Z</time></trkpt><trkpt lat="43.178041767211035" lon="10.567282855661283"><ele>17.200000000000003</ele><time>2026-05-03T13:48:35.001Z</time></trkpt><trkpt lat="43.17797373182048" lon="10.567222949856756"><ele>17.6</ele><time>2026-05-03T13:48:36.001Z</time></trkpt><trkpt lat="43.17789922870871" lon="10.567182781441936"><ele>18.0</ele><time>2026-05-03T13:48:37.001Z</time></trkpt><trkpt lat="43.177864094971746" lon="10.567031021600172"><ele>18.0</ele><time>2026-05-03T13:48:38.001Z</time></trkpt><trkpt lat="43.177825784756116" lon="10.566908767577548"><ele>18.0</ele><time>2026-05-03T13:48:39.001Z</time></trkpt><trkpt lat="43.17787603697093" lon="10.566734366471595"><ele>18.0</ele><time>2026-05-03T13:48:40.001Z</time></trkpt><trkpt lat="43.17787706208265" lon="10.56657776248098"><ele>18.0</ele><time>2026-05-03T13:48:41Z</time></trkpt><trkpt lat="43.17788423332936" lon="10.566405366822497"><ele>18.0</ele><time>2026-05-03T13:48:42Z</time></trkpt><trkpt lat="43.17788771135664" lon="10.566240924214787"><ele>18.0</ele><time>2026-05-03T13:48:43Z</time></trkpt><trkpt lat="43.17789510471145" lon="10.566076683645127"><ele>18.0</ele><time>2026-05-03T13:48:44Z</time></trkpt><trkpt lat="43.17789379960448" lon="10.565901611087368"><ele>18.0</ele><time>2026-05-03T13:48:45Z</time></trkpt><trkpt lat="43.17789670678999" lon="10.565720479112871"><ele>17.75</ele><time>2026-05-03T13:48:46Z</time></trkpt><trkpt lat="43.17790116795702" lon="10.565536120842005"><ele>17.5</ele><time>2026-05-03T13:48:47Z</time></trkpt><trkpt lat="43.177913164393" lon="10.565357525480811"><ele>17.25</ele><time>2026-05-03T13:48:48Z</time></trkpt><trkpt lat="43.17792584389774" lon="10.565201701509794"><ele>17.0</ele><time>2026-05-03T13:48:49Z</time></trkpt><trkpt lat="43.17794338338738" lon="10.56504526324025"><ele>16.75</ele><time>2026-05-03T13:48:50Z</time></trkpt><trkpt lat="43.177978385784456" lon="10.564893385740335"><ele>16.5</ele><time>2026-05-03T13:48:51Z</time></trkpt><trkpt lat="43.17802437115586" lon="10.564745941974415"><ele>16.25</ele><time>2026-05-03T13:48:52Z</time></trkpt><trkpt lat="43.178073535867426" lon="10.564596557060323"><ele>16.0</ele><time>2026-05-03T13:48:53Z</time></trkpt><trkpt lat="43.17812684726827" lon="10.564453052244215"><ele>16.0</ele><time>2026-05-03T13:48:54Z</time></trkpt><trkpt lat="43.17818382524912" lon="10.564309979986586"><ele>16.0</ele><time>2026-05-03T13:48:55Z</time></trkpt><trkpt lat="43.178238885001676" lon="10.564164191986308"><ele>16.0</ele><time>2026-05-03T13:48:56Z</time></trkpt><trkpt lat="43.17828876481642" lon="10.564025169377269"><ele>16.0</ele><time>2026-05-03T13:48:57Z</time></trkpt><trkpt lat="43.1783340367223" lon="10.563881139574605"><ele>15.75</ele><time>2026-05-03T13:48:58Z</time></trkpt><trkpt lat="43.178380657309724" lon="10.563730435324732"><ele>15.5</ele><time>2026-05-03T13:48:59Z</time></trkpt><trkpt lat="43.17842426421651" lon="10.563571951943882"><ele>15.25</ele><time>2026-05-03T13:49:00Z</time></trkpt><trkpt lat="43.17846066822721" lon="10.563416726065068"><ele>15.0</ele><time>2026-05-03T13:49:01Z</time></trkpt><trkpt lat="43.17848981441659" lon="10.563259115164024"><ele>14.5</ele><time>2026-05-03T13:49:02Z</time></trkpt><trkpt lat="43.17850959688556" lon="10.563102807685901"><ele>14.0</ele><time>2026-05-03T13:49:03Z</time></trkpt><trkpt lat="43.17849468687591" lon="10.562936739079863"><ele>13.5</ele><time>2026-05-03T13:49:04Z</time></trkpt><trkpt lat="43.17851312096986" lon="10.562785598447725"><ele>13.0</ele><time>2026-05-03T13:49:05Z</time></trkpt><trkpt lat="43.17851207436616" lon="10.562635874493239"><ele>13.0</ele><time>2026-05-03T13:49:06Z</time></trkpt><trkpt lat="43.17853415119803" lon="10.56248482591054"><ele>13.0</ele><time>2026-05-03T13:49:07Z</time></trkpt><trkpt lat="43.17857783054317" lon="10.562337407916745"><ele>13.0</ele><time>2026-05-03T13:49:08Z</time></trkpt><trkpt lat="43.178652666566954" lon="10.562206396899427"><ele>13.0</ele><time>2026-05-03T13:49:09Z</time></trkpt><trkpt lat="43.1786478437126" lon="10.562041074719547"><ele>13.0</ele><time>2026-05-03T13:49:10Z</time></trkpt><trkpt lat="43.17868043006962" lon="10.56185862684723"><ele>13.0</ele><time>2026-05-03T13:49:11Z</time></trkpt><trkpt lat="43.17870471135312" lon="10.561683842398907"><ele>13.0</ele><time>2026-05-03T13:49:12Z</time></trkpt><trkpt lat="43.17872991397765" lon="10.561505813286637"><ele>13.0</ele><time>2026-05-03T13:49:13Z</time></trkpt><trkpt lat="43.178756473126995" lon="10.561319943656596"><ele>13.0</ele><time>2026-05-03T13:49:14Z</time></trkpt><trkpt lat="43.178782487546194" lon="10.561137886397168"><ele>13.0</ele><time>2026-05-03T13:49:15Z</time></trkpt><trkpt lat="43.17880806904783" lon="10.560958858776619"><ele>13.0</ele><time>2026-05-03T13:49:16Z</time></trkpt><trkpt lat="43.178831622312444" lon="10.560794025569525"><ele>13.0</ele><time>2026-05-03T13:49:17Z</time></trkpt><trkpt lat="43.17885470802362" lon="10.560632464123078"><ele>13.0</ele><time>2026-05-03T13:49:18Z</time></trkpt><trkpt lat="43.17887625486108" lon="10.560481672464856"><ele>13.0</ele><time>2026-05-03T13:49:19Z</time></trkpt><trkpt lat="43.1788989383299" lon="10.560322371261297"><ele>13.0</ele><time>2026-05-03T13:49:20Z</time></trkpt><trkpt lat="43.17894047065753" lon="10.56014690723132"><ele>13.0</ele><time>2026-05-03T13:49:21Z</time></trkpt><trkpt lat="43.17896227969262" lon="10.55998175190191"><ele>12.75</ele><time>2026-05-03T13:49:22Z</time></trkpt><trkpt lat="43.17897904132019" lon="10.559829814187198"><ele>12.5</ele><time>2026-05-03T13:49:23Z</time></trkpt><trkpt lat="43.17899977021972" lon="10.559667108080749"><ele>12.25</ele><time>2026-05-03T13:49:24Z</time></trkpt><trkpt lat="43.17902742622174" lon="10.559509476050525"><ele>12.0</ele><time>2026-05-03T13:49:25Z</time></trkpt><trkpt lat="43.17903812322438" lon="10.559329669966417"><ele>11.25</ele><time>2026-05-03T13:49:26Z</time></trkpt><trkpt lat="43.179059638664214" lon="10.559172098695402"><ele>10.5</ele><time>2026-05-03T13:49:27Z</time></trkpt><trkpt lat="43.17908481261376" lon="10.558987733866287"><ele>9.75</ele><time>2026-05-03T13:49:28Z</time></trkpt><trkpt lat="43.17910897896694" lon="10.558810747908023"><ele>9.0</ele><time>2026-05-03T13:49:29Z</time></trkpt><trkpt lat="43.17913371062348" lon="10.558623634023382"><ele>8.75</ele><time>2026-05-03T13:49:30Z</time></trkpt><trkpt lat="43.17917230919956" lon="10.558448054456928"><ele>8.5</ele><time>2026-05-03T13:49:31Z</time></trkpt><trkpt lat="43.17918291529797" lon="10.558248334933808"><ele>8.25</ele><time>2026-05-03T13:49:32Z</time></trkpt><trkpt lat="43.17922336411288" lon="10.558064281561126"><ele>8.0</ele><time>2026-05-03T13:49:33Z</time></trkpt><trkpt lat="43.179240343602075" lon="10.55785724907087"><ele>7.75</ele><time>2026-05-03T13:49:34Z</time></trkpt><trkpt lat="43.17926182332069" lon="10.557650770765228"><ele>7.5</ele><time>2026-05-03T13:49:35Z</time></trkpt><trkpt lat="43.17930039977567" lon="10.557451753431401"><ele>7.25</ele><time>2026-05-03T13:49:36Z</time></trkpt><trkpt lat="43.17932534413351" lon="10.557257908458077"><ele>7.0</ele><time>2026-05-03T13:49:37Z</time></trkpt><trkpt lat="43.17935286804193" lon="10.557060469653472"><ele>7.25</ele><time>2026-05-03T13:49:38Z</time></trkpt><trkpt lat="43.179379600560225" lon="10.556872423685883"><ele>7.5</ele><time>2026-05-03T13:49:39Z</time></trkpt><trkpt lat="43.17938841816252" lon="10.556683885545663"><ele>7.75</ele><time>2026-05-03T13:49:40Z</time></trkpt><trkpt lat="43.17941278407906" lon="10.556498508156213"><ele>8.0</ele><time>2026-05-03T13:49:41Z</time></trkpt><trkpt lat="43.17943709673394" lon="10.556314143296376"><ele>7.25</ele><time>2026-05-03T13:49:42Z</time></trkpt><trkpt lat="43.179462173889966" lon="10.556126281789577"><ele>6.5</ele><time>2026-05-03T13:49:43Z</time></trkpt><trkpt lat="43.179487175399714" lon="10.555938987031224"><ele>5.75</ele><time>2026-05-03T13:49:44Z</time></trkpt><trkpt lat="43.179512322489515" lon="10.555750601514493"><ele>5.0</ele><time>2026-05-03T13:49:45Z</time></trkpt><trkpt lat="43.17953754824198" lon="10.55556162699529"><ele>5.0</ele><time>2026-05-03T13:49:46Z</time></trkpt><trkpt lat="43.17956274885973" lon="10.555372840853837"><ele>5.0</ele><time>2026-05-03T13:49:47Z</time></trkpt><trkpt lat="43.17958755086147" lon="10.555187040130809"><ele>5.0</ele><time>2026-05-03T13:49:48Z</time></trkpt><trkpt lat="43.179612065078324" lon="10.555003396101295"><ele>5.0</ele><time>2026-05-03T13:49:49.001Z</time></trkpt><trkpt lat="43.179635761794806" lon="10.55482587609023"><ele>5.25</ele><time>2026-05-03T13:49:50.001Z</time></trkpt><trkpt lat="43.179659606126144" lon="10.554647250237668"><ele>5.5</ele><time>2026-05-03T13:49:51.001Z</time></trkpt><trkpt lat="43.17968153654509" lon="10.554479936026066"><ele>5.75</ele><time>2026-05-03T13:49:52.001Z</time></trkpt><trkpt lat="43.17970179168313" lon="10.554323462143863"><ele>6.0</ele><time>2026-05-03T13:49:53.001Z</time></trkpt><trkpt lat="43.17972175584755" lon="10.554169236568482"><ele>5.5</ele><time>2026-05-03T13:49:54.001Z</time></trkpt><trkpt lat="43.17974017683801" lon="10.55402693179807"><ele>5.0</ele><time>2026-05-03T13:49:55.001Z</time></trkpt><trkpt lat="43.179759512103516" lon="10.553878335499453"><ele>4.5</ele><time>2026-05-03T13:49:56.001Z</time></trkpt><trkpt lat="43.17977977693846" lon="10.553722631084568"><ele>4.0</ele><time>2026-05-03T13:49:57.001Z</time></trkpt><trkpt lat="43.17980120271672" lon="10.553558006902293"><ele>4.25</ele><time>2026-05-03T13:49:58.001Z</time></trkpt><trkpt lat="43.17982405193525" lon="10.553382441405239"><ele>4.5</ele><time>2026-05-03T13:49:59.001Z</time></trkpt><trkpt lat="43.17984666326283" lon="10.553210023731852"><ele>4.75</ele><time>2026-05-03T13:50:00.001Z</time></trkpt><trkpt lat="43.17988454097303" lon="10.553038910318875"><ele>5.0</ele><time>2026-05-03T13:50:01.001Z</time></trkpt><trkpt lat="43.17989249596777" lon="10.552859624249823"><ele>5.5</ele><time>2026-05-03T13:50:02.001Z</time></trkpt><trkpt lat="43.179915345939484" lon="10.552684931947866"><ele>6.0</ele><time>2026-05-03T13:50:03.001Z</time></trkpt><trkpt lat="43.179938095177874" lon="10.55251100979884"><ele>6.5</ele><time>2026-05-03T13:50:04.001Z</time></trkpt><trkpt lat="43.17996172667961" lon="10.552330342435914"><ele>7.0</ele><time>2026-05-03T13:50:05.001Z</time></trkpt><trkpt lat="43.17998619751716" lon="10.55214325826366"><ele>7.25</ele><time>2026-05-03T13:50:06.001Z</time></trkpt><trkpt lat="43.18001186340374" lon="10.551947037841481"><ele>7.5</ele><time>2026-05-03T13:50:07.001Z</time></trkpt><trkpt lat="43.18003633287148" lon="10.551759964262398"><ele>7.75</ele><time>2026-05-03T13:50:08.001Z</time></trkpt><trkpt lat="43.18005870654573" lon="10.551588913463872"><ele>8.0</ele><time>2026-05-03T13:50:09.001Z</time></trkpt><trkpt lat="43.18009494726718" lon="10.551435658797688"><ele>8.0</ele><time>2026-05-03T13:50:10.001Z</time></trkpt><trkpt lat="43.18009738638412" lon="10.551280896511974"><ele>8.0</ele><time>2026-05-03T13:50:11.001Z</time></trkpt><trkpt lat="43.18011532783255" lon="10.551139120160315"><ele>8.0</ele><time>2026-05-03T13:50:12.001Z</time></trkpt><trkpt lat="43.180133626475985" lon="10.551008123599683"><ele>8.0</ele><time>2026-05-03T13:50:13.001Z</time></trkpt><trkpt lat="43.18016739301835" lon="10.550904733526588"><ele>8.0</ele><time>2026-05-03T13:50:14.001Z</time></trkpt><trkpt lat="43.18018556594312" lon="10.550815351381305"><ele>8.600000000000001</ele><time>2026-05-03T13:50:15.001Z</time></trkpt><trkpt lat="43.18029226840434" lon="10.550737953988708"><ele>9.200000000000001</ele><time>2026-05-03T13:50:17.001Z</time></trkpt><trkpt lat="43.18038821257292" lon="10.550744666099696"><ele>9.8</ele><time>2026-05-03T13:50:18.001Z</time></trkpt><trkpt lat="43.18047600141024" lon="10.550741661500552"><ele>10.4</ele><time>2026-05-03T13:50:19.001Z</time></trkpt><trkpt lat="43.180589573886564" lon="10.550712784755644"><ele>11.0</ele><time>2026-05-03T13:50:21.001Z</time></trkpt><trkpt lat="43.180656025625915" lon="10.550698724870266"><ele>10.166666666666666</ele><time>2026-05-03T13:50:22.001Z</time></trkpt><trkpt lat="43.18074954732447" lon="10.550682211753529"><ele>9.333333333333332</ele><time>2026-05-03T13:50:24.001Z</time></trkpt><trkpt lat="43.180812850806" lon="10.550636538726566"><ele>8.5</ele><time>2026-05-03T13:50:26.001Z</time></trkpt><trkpt lat="43.180892239109944" lon="10.550656176972652"><ele>7.666666666666666</ele><time>2026-05-03T13:50:28.001Z</time></trkpt><trkpt lat="43.180974797787584" lon="10.55063063145867"><ele>6.833333333333333</ele><time>2026-05-03T13:52:18.001Z</time></trkpt><trkpt lat="43.18107792559866" lon="10.550609531744623"><ele>6.0</ele><time>2026-05-03T13:52:20.001Z</time></trkpt><trkpt lat="43.181200550252505" lon="10.55059735006756"><ele>6.0</ele><time>2026-05-03T13:52:22.001Z</time></trkpt><trkpt lat="43.1812704747529" lon="10.550606015863508"><ele>6.0</ele><time>2026-05-03T13:52:23.001Z</time></trkpt><trkpt lat="43.18137290090134" lon="10.550668605232959"><ele>6.0</ele><time>2026-05-03T13:52:25.001Z</time></trkpt><trkpt lat="43.18142808811231" lon="10.550721056953812"><ele>6.0</ele><time>2026-05-03T13:52:26.001Z</time></trkpt><trkpt lat="43.1815043210562" lon="10.550814801648936"><ele>6.0</ele><time>2026-05-03T13:52:28.001Z</time></trkpt><trkpt lat="43.181568148819736" lon="10.550878791651382"><ele>6.0</ele><time>2026-05-03T13:52:30.001Z</time></trkpt><trkpt lat="43.18164475221596" lon="10.550954020323095"><ele>5.6</ele><time>2026-05-03T13:52:32.001Z</time></trkpt><trkpt lat="43.18173563894189" lon="10.551059182863451"><ele>5.199999999999999</ele><time>2026-05-03T13:52:34.001Z</time></trkpt><trkpt lat="43.18181493676136" lon="10.551133286609437"><ele>4.800000000000001</ele><time>2026-05-03T13:52:35.001Z</time></trkpt><trkpt lat="43.181888009192335" lon="10.551212124337415"><ele>4.4</ele><time>2026-05-03T13:52:36.001Z</time></trkpt><trkpt lat="43.18194848467517" lon="10.551278165534587"><ele>4.0</ele><time>2026-05-03T13:52:37.001Z</time></trkpt><trkpt lat="43.18204812454442" lon="10.551368674071924"><ele>3.714285714285714</ele><time>2026-05-03T13:52:39.001Z</time></trkpt><trkpt lat="43.18208811093615" lon="10.551469772038084"><ele>3.428571428571428</ele><time>2026-05-03T13:52:41.001Z</time></trkpt><trkpt lat="43.18203561297525" lon="10.551543381362489"><ele>3.142857142857143</ele><time>2026-05-03T13:52:43.001Z</time></trkpt><trkpt lat="43.18198291592078" lon="10.551603952304797"><ele>2.8571428571428568</ele><time>2026-05-03T13:52:45.001Z</time></trkpt><trkpt lat="43.18193225106176" lon="10.551691544244385"><ele>2.571428571428571</ele><time>2026-05-03T13:52:48.001Z</time></trkpt><trkpt lat="43.18199412737288" lon="10.551665837347205"><ele>2.2857142857142856</ele><time>2026-05-03T13:53:04Z</time></trkpt><trkpt lat="43.18204977641349" lon="10.55160165348083"><ele>2.0</ele><time>2026-05-03T13:59:55Z</time></trkpt><trkpt lat="43.18208859990422" lon="10.55153284725243"><ele>2.0</ele><time>2026-05-03T13:59:57Z</time></trkpt><trkpt lat="43.18219179664575" lon="10.551556086979414"><ele>2.0</ele><time>2026-05-03T14:00:17Z</time></trkpt><trkpt lat="43.18227542018573" lon="10.551640953199001"><ele>2.0</ele><time>2026-05-03T14:00:19Z</time></trkpt><trkpt lat="43.18233952563493" lon="10.551697099327624"><ele>2.0</ele><time>2026-05-03T14:00:20Z</time></trkpt><trkpt lat="43.182405792423495" lon="10.551759683490044"><ele>2.0</ele><time>2026-05-03T14:00:21Z</time></trkpt><trkpt lat="43.18248473651276" lon="10.55183690789246"><ele>1.8</ele><time>2026-05-03T14:00:22Z</time></trkpt><trkpt lat="43.18256296163555" lon="10.551916615292601"><ele>1.6</ele><time>2026-05-03T14:00:23Z</time></trkpt><trkpt lat="43.18264701462085" lon="10.552002939129045"><ele>1.4000000000000001</ele><time>2026-05-03T14:00:24Z</time></trkpt><trkpt lat="43.18273014902532" lon="10.552085750093344"><ele>1.2000000000000002</ele><time>2026-05-03T14:00:25Z</time></trkpt><trkpt lat="43.182801882601275" lon="10.552160513319148"><ele>1.0</ele><time>2026-05-03T14:00:26Z</time></trkpt><trkpt lat="43.18286872080659" lon="10.552229451420963"><ele>1.4</ele><time>2026-05-03T14:00:27Z</time></trkpt><trkpt lat="43.18292745156144" lon="10.552288461223156"><ele>1.8</ele><time>2026-05-03T14:00:28Z</time></trkpt><trkpt lat="43.182977895019945" lon="10.552342265888427"><ele>2.1999999999999997</ele><time>2026-05-03T14:00:29Z</time></trkpt><trkpt lat="43.18307460149136" lon="10.552402277371781"><ele>2.6</ele><time>2026-05-03T14:00:31Z</time></trkpt><trkpt lat="43.1831824822098" lon="10.552296896359907"><ele>3.0</ele><time>2026-05-03T14:00:33.001Z</time></trkpt><trkpt lat="43.183235079344854" lon="10.552193328040776"><ele>3.0</ele><time>2026-05-03T14:00:34.001Z</time></trkpt><trkpt lat="43.183317550160005" lon="10.552065234874755"><ele>3.0</ele><time>2026-05-03T14:00:35.001Z</time></trkpt><trkpt lat="43.183418496217335" lon="10.551913593535835"><ele>3.0</ele><time>2026-05-03T14:00:36.001Z</time></trkpt><trkpt lat="43.18352112713792" lon="10.55175246256711"><ele>3.0</ele><time>2026-05-03T14:00:37.001Z</time></trkpt><trkpt lat="43.18363617804631" lon="10.55158149371024"><ele>3.0</ele><time>2026-05-03T14:00:38.001Z</time></trkpt><trkpt lat="43.18375021712631" lon="10.55141035243004"><ele>3.0</ele><time>2026-05-03T14:00:39.001Z</time></trkpt><trkpt lat="43.18385327326704" lon="10.551249292943444"><ele>3.0</ele><time>2026-05-03T14:00:40.001Z</time></trkpt><trkpt lat="43.183952796736115" lon="10.551098859898651"><ele>2.75</ele><time>2026-05-03T14:00:41.001Z</time></trkpt><trkpt lat="43.184047025560616" lon="10.550957955605387"><ele>2.5</ele><time>2026-05-03T14:00:42.001Z</time></trkpt><trkpt lat="43.18414149391105" lon="10.550813428248285"><ele>2.25</ele><time>2026-05-03T14:00:43.001Z</time></trkpt><trkpt lat="43.184250436704396" lon="10.550650192632672"><ele>2.0</ele><time>2026-05-03T14:00:44.001Z</time></trkpt><trkpt lat="43.184358945684075" lon="10.55048699860317"><ele>1.6666666666666665</ele><time>2026-05-03T14:00:45.001Z</time></trkpt><trkpt lat="43.1844684092064" lon="10.550320619098217"><ele>1.3333333333333333</ele><time>2026-05-03T14:00:46.001Z</time></trkpt><trkpt lat="43.18457253326267" lon="10.550164064249822"><ele>1.0</ele><time>2026-05-03T14:00:47.001Z</time></trkpt><trkpt lat="43.18467594419272" lon="10.550012832200245"><ele>1.0</ele><time>2026-05-03T14:00:48.001Z</time></trkpt><trkpt lat="43.184781403305415" lon="10.549850620139658"><ele>1.0</ele><time>2026-05-03T14:00:49.001Z</time></trkpt><trkpt lat="43.18487696621917" lon="10.549701727505337"><ele>1.0</ele><time>2026-05-03T14:00:50.001Z</time></trkpt><trkpt lat="43.18497854888675" lon="10.54954932857953"><ele>1.0</ele><time>2026-05-03T14:00:51.001Z</time></trkpt><trkpt lat="43.18508256075982" lon="10.549396655403696"><ele>1.0</ele><time>2026-05-03T14:00:52.001Z</time></trkpt><trkpt lat="43.185192045211956" lon="10.549220417388689"><ele>1.0</ele><time>2026-05-03T14:00:53.001Z</time></trkpt><trkpt lat="43.18530799331972" lon="10.54904157375961"><ele>1.0</ele><time>2026-05-03T14:00:54.001Z</time></trkpt><trkpt lat="43.18541073829274" lon="10.548886351981773"><ele>1.0</ele><time>2026-05-03T14:00:55.001Z</time></trkpt><trkpt lat="43.185510978107516" lon="10.548734095434916"><ele>1.0</ele><time>2026-05-03T14:00:56.001Z</time></trkpt><trkpt lat="43.185609566262634" lon="10.548585707906797"><ele>1.0</ele><time>2026-05-03T14:00:57.001Z</time></trkpt><trkpt lat="43.18570197560151" lon="10.548448871089013"><ele>1.25</ele><time>2026-05-03T14:00:58.001Z</time></trkpt><trkpt lat="43.18578391145046" lon="10.548318152725894"><ele>1.5</ele><time>2026-05-03T14:00:59.001Z</time></trkpt><trkpt lat="43.185867378567245" lon="10.548193264035262"><ele>1.75</ele><time>2026-05-03T14:01:00.001Z</time></trkpt><trkpt lat="43.185950868880326" lon="10.548067672190134"><ele>2.0</ele><time>2026-05-03T14:01:01.001Z</time></trkpt><trkpt lat="43.18602549925294" lon="10.547952871987738"><ele>1.6666666666666665</ele><time>2026-05-03T14:01:02.001Z</time></trkpt><trkpt lat="43.186089192098976" lon="10.547853329028182"><ele>1.3333333333333333</ele><time>2026-05-03T14:01:03.001Z</time></trkpt><trkpt lat="43.18614141268296" lon="10.547769288490828"><ele>1.0</ele><time>2026-05-03T14:01:04.001Z</time></trkpt><trkpt lat="43.186217711650166" lon="10.547657491919693"><ele>0.6666666666666666</ele><time>2026-05-03T14:01:06.001Z</time></trkpt><trkpt lat="43.18626186971927" lon="10.547588627927215"><ele>0.3333333333333333</ele><time>2026-05-03T14:01:09.001Z</time></trkpt><trkpt lat="43.18630114137964" lon="10.547508656306542"><ele>0.0</ele><time>2026-05-03T14:01:13.001Z</time></trkpt><trkpt lat="43.18617549034772" lon="10.547366366660528"><ele>0.0</ele><time>2026-05-03T14:01:17Z</time></trkpt><trkpt lat="43.18611060081226" lon="10.547261727415343"><ele>0.0</ele><time>2026-05-03T14:01:19Z</time></trkpt><trkpt lat="43.18604205219611" lon="10.547159644254972"><ele>0.0</ele><time>2026-05-03T14:01:21Z</time></trkpt><trkpt lat="43.18599330700795" lon="10.547095238835858"><ele>0.0</ele><time>2026-05-03T14:01:22Z</time></trkpt><trkpt lat="43.18594062609608" lon="10.54703448763624"><ele>0.0</ele><time>2026-05-03T14:01:23Z</time></trkpt><trkpt lat="43.1858840475584" lon="10.546968245827072"><ele>0.0</ele><time>2026-05-03T14:01:24Z</time></trkpt><trkpt lat="43.18582663707593" lon="10.546888980540354"><ele>0.0</ele><time>2026-05-03T14:01:25Z</time></trkpt><trkpt lat="43.18576507128268" lon="10.546800930862192"><ele>0.0</ele><time>2026-05-03T14:01:26Z</time></trkpt><trkpt lat="43.185705775873814" lon="10.54670865763568"><ele>0.0</ele><time>2026-05-03T14:01:27Z</time></trkpt><trkpt lat="43.185640712986704" lon="10.546616475620247"><ele>0.0</ele><time>2026-05-03T14:01:28Z</time></trkpt><trkpt lat="43.18557197259226" lon="10.546514254473607"><ele>0.0</ele><time>2026-05-03T14:01:29Z</time></trkpt><trkpt lat="43.18549871083655" lon="10.546406396528784"><ele>0.0</ele><time>2026-05-03T14:01:30Z</time></trkpt><trkpt lat="43.18541768818517" lon="10.54628851548036"><ele>0.0</ele><time>2026-05-03T14:01:31Z</time></trkpt><trkpt lat="43.185332927402435" lon="10.546171492637166"><ele>0.0</ele><time>2026-05-03T14:01:32Z</time></trkpt><trkpt lat="43.185259353472574" lon="10.546061718536807"><ele>0.0</ele><time>2026-05-03T14:01:33Z</time></trkpt><trkpt lat="43.185193438105635" lon="10.545960669157484"><ele>0.0</ele><time>2026-05-03T14:01:34Z</time></trkpt><trkpt lat="43.18513593473226" lon="10.545872926468629"><ele>0.0</ele><time>2026-05-03T14:01:35Z</time></trkpt><trkpt lat="43.18509297334628" lon="10.545793167628311"><ele>0.0</ele><time>2026-05-03T14:01:36Z</time></trkpt><trkpt lat="43.18506326883013" lon="10.545656829401453"><ele>0.0</ele><time>2026-05-03T14:01:38Z</time></trkpt><trkpt lat="43.18511350377778" lon="10.545521235211686"><ele>0.0</ele><time>2026-05-03T14:01:40Z</time></trkpt><trkpt lat="43.18517559641116" lon="10.54547612798981"><ele>0.0</ele><time>2026-05-03T14:01:41Z</time></trkpt><trkpt lat="43.185238062105995" lon="10.545431374019309"><ele>0.0</ele><time>2026-05-03T14:01:42Z</time></trkpt><trkpt lat="43.185300527339734" lon="10.545380681887309"><ele>0.6</ele><time>2026-05-03T14:01:43Z</time></trkpt><trkpt lat="43.185375811739085" lon="10.545325732983871"><ele>1.2</ele><time>2026-05-03T14:01:44Z</time></trkpt><trkpt lat="43.18546326684008" lon="10.545264268378446"><ele>1.7999999999999998</ele><time>2026-05-03T14:01:45Z</time></trkpt><trkpt lat="43.18555016374689" lon="10.545202487247055"><ele>2.4</ele><time>2026-05-03T14:01:46Z</time></trkpt><trkpt lat="43.18564403221122" lon="10.54513514030736"><ele>3.0</ele><time>2026-05-03T14:01:47Z</time></trkpt><trkpt lat="43.18575412247162" lon="10.545067760418796"><ele>3.0</ele><time>2026-05-03T14:01:48Z</time></trkpt><trkpt lat="43.18586238561927" lon="10.544995108513499"><ele>3.0</ele><time>2026-05-03T14:01:49Z</time></trkpt><trkpt lat="43.18597522563069" lon="10.544920046832805"><ele>3.0</ele><time>2026-05-03T14:01:50Z</time></trkpt><trkpt lat="43.186086881416564" lon="10.544845659272786"><ele>3.0</ele><time>2026-05-03T14:01:51Z</time></trkpt><trkpt lat="43.1862006690429" lon="10.544771502076468"><ele>3.0</ele><time>2026-05-03T14:01:52Z</time></trkpt><trkpt lat="43.18630761985093" lon="10.544699010871506"><ele>3.0</ele><time>2026-05-03T14:01:53Z</time></trkpt><trkpt lat="43.18641386724277" lon="10.54462532043245"><ele>3.0</ele><time>2026-05-03T14:01:54Z</time></trkpt><trkpt lat="43.18652209156153" lon="10.544551681869098"><ele>3.0</ele><time>2026-05-03T14:01:55Z</time></trkpt><trkpt lat="43.186630183490635" lon="10.544477710560814"><ele>2.8</ele><time>2026-05-03T14:01:56Z</time></trkpt><trkpt lat="43.18673408583201" lon="10.544404447715447"><ele>2.5999999999999996</ele><time>2026-05-03T14:01:57Z</time></trkpt><trkpt lat="43.18683098581789" lon="10.544338606172136"><ele>2.4000000000000004</ele><time>2026-05-03T14:01:58Z</time></trkpt><trkpt lat="43.18692121723889" lon="10.54427942547256"><ele>2.2</ele><time>2026-05-03T14:01:59Z</time></trkpt><trkpt lat="43.18700308160055" lon="10.544224843486822"><ele>2.0</ele><time>2026-05-03T14:02:00Z</time></trkpt><trkpt lat="43.18706558125743" lon="10.544176645002008"><ele>1.9999999999999998</ele><time>2026-05-03T14:02:01Z</time></trkpt><trkpt lat="43.1871183777079" lon="10.54412024838526"><ele>2.0</ele><time>2026-05-03T14:02:02Z</time></trkpt><trkpt lat="43.18715413659265" lon="10.54404830162673"><ele>2.0</ele><time>2026-05-03T14:02:03Z</time></trkpt><trkpt lat="43.18717291296905" lon="10.54395196586804"><ele>2.0</ele><time>2026-05-03T14:02:04Z</time></trkpt><trkpt lat="43.18715802522984" lon="10.543846311869157"><ele>1.9999999999999998</ele><time>2026-05-03T14:02:05Z</time></trkpt><trkpt lat="43.18712260696725" lon="10.543739689189987"><ele>2.0</ele><time>2026-05-03T14:02:06Z</time></trkpt><trkpt lat="43.18708083249426" lon="10.543626699207099"><ele>2.5</ele><time>2026-05-03T14:02:07Z</time></trkpt><trkpt lat="43.1870381083701" lon="10.543507906992524"><ele>3.0</ele><time>2026-05-03T14:02:08Z</time></trkpt><trkpt lat="43.187014549003464" lon="10.543397979124364"><ele>3.5</ele><time>2026-05-03T14:02:09Z</time></trkpt><trkpt lat="43.18700260753077" lon="10.543292865067935"><ele>4.0</ele><time>2026-05-03T14:02:10Z</time></trkpt><trkpt lat="43.186998369229535" lon="10.543190478184574"><ele>4.5</ele><time>2026-05-03T14:02:11Z</time></trkpt><trkpt lat="43.186999321593305" lon="10.543083729063053"><ele>5.0</ele><time>2026-05-03T14:02:12Z</time></trkpt><trkpt lat="43.18699519502318" lon="10.542985217747582"><ele>5.833333333333334</ele><time>2026-05-03T14:02:13Z</time></trkpt><trkpt lat="43.186968865661186" lon="10.542877212189058"><ele>6.666666666666667</ele><time>2026-05-03T14:02:14Z</time></trkpt><trkpt lat="43.186921343273255" lon="10.542787408282004"><ele>7.5</ele><time>2026-05-03T14:02:15Z</time></trkpt><trkpt lat="43.186867871163756" lon="10.54262285723443"><ele>8.333333333333334</ele><time>2026-05-03T14:02:17Z</time></trkpt><trkpt lat="43.186855328453106" lon="10.542517649470932"><ele>9.166666666666668</ele><time>2026-05-03T14:02:18Z</time></trkpt><trkpt lat="43.186845362257" lon="10.542418522707885"><ele>10.0</ele><time>2026-05-03T14:02:19Z</time></trkpt><trkpt lat="43.18684890467439" lon="10.542285593910695"><ele>10.0</ele><time>2026-05-03T14:02:21Z</time></trkpt><trkpt lat="43.18684177899542" lon="10.542172416917316"><ele>10.0</ele><time>2026-05-03T14:02:23Z</time></trkpt><trkpt lat="43.18695319435288" lon="10.54213810420981"><ele>10.0</ele><time>2026-05-03T14:02:24Z</time></trkpt><trkpt lat="43.187059920831125" lon="10.542057601912001"><ele>10.0</ele><time>2026-05-03T14:02:26Z</time></trkpt><trkpt lat="43.18714604780722" lon="10.54195311427027"><ele>10.0</ele><time>2026-05-03T14:02:28Z</time></trkpt><trkpt lat="43.18721589249603" lon="10.541865446426716"><ele>10.8</ele><time>2026-05-03T14:02:30Z</time></trkpt><trkpt lat="43.18732100844132" lon="10.541734123551992"><ele>11.6</ele><time>2026-05-03T14:02:32Z</time></trkpt><trkpt lat="43.18738270373046" lon="10.541690268295024"><ele>12.399999999999999</ele><time>2026-05-03T14:02:33Z</time></trkpt><trkpt lat="43.18744994530478" lon="10.541652150148863"><ele>13.2</ele><time>2026-05-03T14:02:34Z</time></trkpt><trkpt lat="43.18758214828101" lon="10.541640427387948"><ele>14.0</ele><time>2026-05-03T14:02:36Z</time></trkpt><trkpt lat="43.18765203983075" lon="10.541645606952905"><ele>14.0</ele><time>2026-05-03T14:02:37.001Z</time></trkpt><trkpt lat="43.18772561746061" lon="10.541633478358104"><ele>14.0</ele><time>2026-05-03T14:02:38.001Z</time></trkpt><trkpt lat="43.18780270938518" lon="10.541624251554554"><ele>14.0</ele><time>2026-05-03T14:02:39.001Z</time></trkpt><trkpt lat="43.187868776139695" lon="10.541601527403621"><ele>14.0</ele><time>2026-05-03T14:02:40.001Z</time></trkpt><trkpt lat="43.18793700669951" lon="10.541584496978812"><ele>14.0</ele><time>2026-05-03T14:02:41.001Z</time></trkpt><trkpt lat="43.18800636842783" lon="10.541549700753906"><ele>14.0</ele><time>2026-05-03T14:02:42.001Z</time></trkpt><trkpt lat="43.1880757255105" lon="10.541508868840053"><ele>14.0</ele><time>2026-05-03T14:02:43.001Z</time></trkpt><trkpt lat="43.1881330290619" lon="10.541450445370199"><ele>13.666666666666668</ele><time>2026-05-03T14:02:44.001Z</time></trkpt><trkpt lat="43.18819835784651" lon="10.541385004513476"><ele>13.333333333333334</ele><time>2026-05-03T14:02:45.001Z</time></trkpt><trkpt lat="43.18824142650775" lon="10.541319906286652"><ele>13.0</ele><time>2026-05-03T14:02:46.001Z</time></trkpt><trkpt lat="43.188295071534704" lon="10.541247363595058"><ele>12.666666666666668</ele><time>2026-05-03T14:02:48.001Z</time></trkpt><trkpt lat="43.1883300366383" lon="10.54115755280143"><ele>12.333333333333334</ele><time>2026-05-03T14:02:55.001Z</time></trkpt><trkpt lat="43.188370419525526" lon="10.541072862275325"><ele>12.0</ele><time>2026-05-03T14:02:57.001Z</time></trkpt><trkpt lat="43.18845342817016" lon="10.540986228135031"><ele>12.0</ele><time>2026-05-03T14:02:59.001Z</time></trkpt><trkpt lat="43.18854122108492" lon="10.540950068231075"><ele>12.0</ele><time>2026-05-03T14:03:01.001Z</time></trkpt><trkpt lat="43.18865567284471" lon="10.540980052423507"><ele>12.0</ele><time>2026-05-03T14:03:03.001Z</time></trkpt><trkpt lat="43.18877004541826" lon="10.541014112672352"><ele>12.0</ele><time>2026-05-03T14:03:05.001Z</time></trkpt><trkpt lat="43.18884053563876" lon="10.541040649003024"><ele>12.0</ele><time>2026-05-03T14:03:07.001Z</time></trkpt><trkpt lat="43.18891821135006" lon="10.54105605171432"><ele>12.0</ele><time>2026-05-03T14:03:10.001Z</time></trkpt><trkpt lat="43.18893115987341" lon="10.54086402470553"><ele>12.0</ele><time>2026-05-03T14:03:14.001Z</time></trkpt><trkpt lat="43.18895715538331" lon="10.540770996060742"><ele>12.0</ele><time>2026-05-03T14:03:15.001Z</time></trkpt><trkpt lat="43.188969878098256" lon="10.540591810821441"><ele>12.0</ele><time>2026-05-03T14:03:17.001Z</time></trkpt><trkpt lat="43.188972270304674" lon="10.5404120643824"><ele>11.833333333333334</ele><time>2026-05-03T14:03:19.001Z</time></trkpt><trkpt lat="43.18900333366954" lon="10.540333411661434"><ele>11.666666666666666</ele><time>2026-05-03T14:03:20.001Z</time></trkpt><trkpt lat="43.18903520259803" lon="10.540255645362254"><ele>11.5</ele><time>2026-05-03T14:03:21.001Z</time></trkpt><trkpt lat="43.18905312462854" lon="10.54017233176905"><ele>11.333333333333332</ele><time>2026-05-03T14:03:22.001Z</time></trkpt><trkpt lat="43.189072892048635" lon="10.540017048758942"><ele>11.166666666666666</ele><time>2026-05-03T14:03:24Z</time></trkpt><trkpt lat="43.18907635626932" lon="10.539876563899355"><ele>11.0</ele><time>2026-05-03T14:03:26Z</time></trkpt><trkpt lat="43.18902751338535" lon="10.539730626700123"><ele>11.0</ele><time>2026-05-03T14:03:28Z</time></trkpt><trkpt lat="43.18898844719072" lon="10.539655827288135"><ele>11.0</ele><time>2026-05-03T14:03:29Z</time></trkpt><trkpt lat="43.18897731740952" lon="10.539488787575326"><ele>11.0</ele><time>2026-05-03T14:03:31Z</time></trkpt><trkpt lat="43.188999397012275" lon="10.539383460790315"><ele>11.0</ele><time>2026-05-03T14:03:32Z</time></trkpt><trkpt lat="43.189009259353085" lon="10.539225075030553"><ele>11.0</ele><time>2026-05-03T14:03:34Z</time></trkpt><trkpt lat="43.18897759973767" lon="10.539103939388143"><ele>10.200000000000001</ele><time>2026-05-03T14:03:36Z</time></trkpt><trkpt lat="43.188885756958854" lon="10.538994923832794"><ele>9.4</ele><time>2026-05-03T14:03:38Z</time></trkpt><trkpt lat="43.188842452177866" lon="10.538845208339174"><ele>8.6</ele><time>2026-05-03T14:03:40Z</time></trkpt><trkpt lat="43.18882489938912" lon="10.538751716795819"><ele>7.8</ele><time>2026-05-03T14:03:41Z</time></trkpt><trkpt lat="43.1888059880007" lon="10.538652236258745"><ele>7.0</ele><time>2026-05-03T14:03:42Z</time></trkpt><trkpt lat="43.188785143811856" lon="10.538566531027934"><ele>6.0</ele><time>2026-05-03T14:03:43Z</time></trkpt><trkpt lat="43.188732373880256" lon="10.538473389311887"><ele>6.0</ele><time>2026-05-03T14:03:45Z</time></trkpt><trkpt lat="43.18866359717058" lon="10.538378669340771"><ele>6.0</ele><time>2026-05-03T14:03:48Z</time></trkpt><trkpt lat="43.18858098157483" lon="10.538318988763322"><ele>6.0</ele><time>2026-05-03T14:03:50Z</time></trkpt><trkpt lat="43.18855774699868" lon="10.538199563405877"><ele>6.0</ele><time>2026-05-03T14:04:37Z</time></trkpt><trkpt lat="43.18861744544766" lon="10.538238379353315"><ele>6.0</ele><time>2026-05-03T14:05:37Z</time></trkpt><trkpt lat="43.18861744544766" lon="10.538238379353315"><ele>6.0</ele><time>2026-05-03T14:05:37Z</time></trkpt></trkseg></trk></gpx>